<?xml version='1.0' encoding='UTF-8'?><gpx version="1.1" creator="JPX - https://github.com/jenetics/jpx" xmlns="http://www.topografix.com/GPX/1/1"><trk><trkseg><trkpt lat="44.395992" lon="11.2451207"><ele>136.0</ele><time>2026-04-09T07:25:31.018Z</time></trkpt><trkpt lat="44.3960729" lon="11.2451451"><ele>136.0</ele><time>2026-04-09T07:43:53.981Z</time></trkpt><trkpt lat="44.3961371" lon="11.2451457"><ele>136.0</ele><time>2026-04-09T07:44:37.033Z</time></trkpt><trkpt lat="44.3961667" lon="11.2450644"><ele>136.0</ele><time>2026-04-09T07:44:51.975Z</time></trkpt><trkpt lat="44.3961873" lon="11.2449776"><ele>136.0</ele><time>2026-04-09T07:45:07.015Z</time></trkpt><trkpt lat="44.3963203" lon="11.2450139"><ele>136.0</ele><time>2026-04-09T07:46:05.988Z</time></trkpt><trkpt lat="44.3961233" lon="11.2450471"><ele>136.0</ele><time>2026-04-09T07:46:41.019Z</time></trkpt><trkpt lat="44.3961465" lon="11.2451311"><ele>136.0</ele><time>2026-04-09T07:48:41.055Z</time></trkpt><trkpt lat="44.3960929" lon="11.2451895"><ele>136.0</ele><time>2026-04-09T07:48:45.996Z</time></trkpt><trkpt lat="44.3960433" lon="11.245285"><ele>136.0</ele><time>2026-04-09T08:17:27.965Z</time></trkpt><trkpt lat="44.395975" lon="11.24533"><ele>136.0</ele><time>2026-04-09T08:17:37.965Z</time></trkpt><trkpt lat="44.3959083" lon="11.2453067"><ele>136.0</ele><time>2026-04-09T08:17:40.965Z</time></trkpt><trkpt lat="44.3958033" lon="11.2452233"><ele>136.0</ele><time>2026-04-09T08:17:42.965Z</time></trkpt><trkpt lat="44.395705" lon="11.2451767"><ele>136.0</ele><time>2026-04-09T08:17:44.965Z</time></trkpt><trkpt lat="44.3956483" lon="11.2451317"><ele>136.0</ele><time>2026-04-09T08:17:45.966Z</time></trkpt><trkpt lat="44.3955417" lon="11.2450983"><ele>136.0</ele><time>2026-04-09T08:17:46.965Z</time></trkpt><trkpt lat="44.3954567" lon="11.24508"><ele>136.0</ele><time>2026-04-09T08:17:47.965Z</time></trkpt><trkpt lat="44.3953783" lon="11.2450667"><ele>136.0</ele><time>2026-04-09T08:17:48.965Z</time></trkpt><trkpt lat="44.395305" lon="11.24505"><ele>136.0</ele><time>2026-04-09T08:17:49.965Z</time></trkpt><trkpt lat="44.3952" lon="11.2450233"><ele>136.0</ele><time>2026-04-09T08:17:51.965Z</time></trkpt><trkpt lat="44.3951283" lon="11.245055"><ele>136.0</ele><time>2026-04-09T08:17:53.965Z</time></trkpt><trkpt lat="44.3950867" lon="11.2451317"><ele>136.0</ele><time>2026-04-09T08:17:55.965Z</time></trkpt><trkpt lat="44.3950567" lon="11.24529"><ele>136.0</ele><time>2026-04-09T08:17:57.966Z</time></trkpt><trkpt lat="44.39502" lon="11.2454433"><ele>136.0</ele><time>2026-04-09T08:17:59.965Z</time></trkpt><trkpt lat="44.3949983" lon="11.24554"><ele>136.0</ele><time>2026-04-09T08:18:00.966Z</time></trkpt><trkpt lat="44.39498" lon="11.2456517"><ele>136.0</ele><time>2026-04-09T08:18:01.965Z</time></trkpt><trkpt lat="44.39496" lon="11.2457567"><ele>136.0</ele><time>2026-04-09T08:18:02.965Z</time></trkpt><trkpt lat="44.394935" lon="11.2458583"><ele>136.0</ele><time>2026-04-09T08:18:03.965Z</time></trkpt><trkpt lat="44.394905" lon="11.245965"><ele>136.0</ele><time>2026-04-09T08:18:04.965Z</time></trkpt><trkpt lat="44.39487" lon="11.2460617"><ele>135.66666666666669</ele><time>2026-04-09T08:18:05.965Z</time></trkpt><trkpt lat="44.3948433" lon="11.246165"><ele>135.33333333333334</ele><time>2026-04-09T08:18:06.965Z</time></trkpt><trkpt lat="44.3948183" lon="11.2462783"><ele>135.0</ele><time>2026-04-09T08:18:07.965Z</time></trkpt><trkpt lat="44.39479" lon="11.246385"><ele>134.66666666666666</ele><time>2026-04-09T08:18:08.965Z</time></trkpt><trkpt lat="44.394765" lon="11.24648"><ele>134.33333333333331</ele><time>2026-04-09T08:18:09.965Z</time></trkpt><trkpt lat="44.3947067" lon="11.2466367"><ele>134.0</ele><time>2026-04-09T08:18:11.965Z</time></trkpt><trkpt lat="44.3946483" lon="11.2467917"><ele>132.2</ele><time>2026-04-09T08:18:13.965Z</time></trkpt><trkpt lat="44.3946083" lon="11.2469167"><ele>130.4</ele><time>2026-04-09T08:18:15.965Z</time></trkpt><trkpt lat="44.3945633" lon="11.2470133"><ele>128.6</ele><time>2026-04-09T08:18:18.965Z</time></trkpt><trkpt lat="44.39453" lon="11.2471367"><ele>126.8</ele><time>2026-04-09T08:18:40.965Z</time></trkpt><trkpt lat="44.394505" lon="11.247255"><ele>125.0</ele><time>2026-04-09T08:18:52.965Z</time></trkpt><trkpt lat="44.3944233" lon="11.2472983"><ele>124.99999999999999</ele><time>2026-04-09T08:18:55.965Z</time></trkpt><trkpt lat="44.3943167" lon="11.2472717"><ele>125.0</ele><time>2026-04-09T08:18:57.966Z</time></trkpt><trkpt lat="44.3942467" lon="11.2472433"><ele>125.0</ele><time>2026-04-09T08:18:58.965Z</time></trkpt><trkpt lat="44.3941783" lon="11.24722"><ele>125.0</ele><time>2026-04-09T08:18:59.965Z</time></trkpt><trkpt lat="44.39411" lon="11.2471917"><ele>124.99999999999999</ele><time>2026-04-09T08:19:00.966Z</time></trkpt><trkpt lat="44.3940467" lon="11.2471667"><ele>125.0</ele><time>2026-04-09T08:19:01.965Z</time></trkpt><trkpt lat="44.3939517" lon="11.2471267"><ele>124.99999999999999</ele><time>2026-04-09T08:19:03.966Z</time></trkpt><trkpt lat="44.3939217" lon="11.2469683"><ele>125.0</ele><time>2026-04-09T08:19:46.966Z</time></trkpt><trkpt lat="44.39382" lon="11.2469583"><ele>125.0</ele><time>2026-04-09T08:19:52.966Z</time></trkpt><trkpt lat="44.3937567" lon="11.246965"><ele>125.0</ele><time>2026-04-09T08:19:53.965Z</time></trkpt><trkpt lat="44.39368" lon="11.2469617"><ele>124.99999999999999</ele><time>2026-04-09T08:19:54.965Z</time></trkpt><trkpt lat="44.3936" lon="11.2469417"><ele>125.0</ele><time>2026-04-09T08:19:55.965Z</time></trkpt><trkpt lat="44.3935083" lon="11.2469133"><ele>125.25</ele><time>2026-04-09T08:19:56.966Z</time></trkpt><trkpt lat="44.3934017" lon="11.2468683"><ele>125.5</ele><time>2026-04-09T08:19:57.965Z</time></trkpt><trkpt lat="44.3933033" lon="11.246825"><ele>125.75</ele><time>2026-04-09T08:19:58.965Z</time></trkpt><trkpt lat="44.3931983" lon="11.2467667"><ele>126.0</ele><time>2026-04-09T08:19:59.965Z</time></trkpt><trkpt lat="44.39308" lon="11.2467183"><ele>126.5</ele><time>2026-04-09T08:20:00.965Z</time></trkpt><trkpt lat="44.3929483" lon="11.2466833"><ele>127.0</ele><time>2026-04-09T08:20:01.966Z</time></trkpt><trkpt lat="44.3928267" lon="11.2466017"><ele>127.5</ele><time>2026-04-09T08:20:02.965Z</time></trkpt><trkpt lat="44.39271" lon="11.2465317"><ele>128.0</ele><time>2026-04-09T08:20:03.965Z</time></trkpt><trkpt lat="44.392595" lon="11.2464767"><ele>128.75</ele><time>2026-04-09T08:20:04.965Z</time></trkpt><trkpt lat="44.3924767" lon="11.24642"><ele>129.5</ele><time>2026-04-09T08:20:05.965Z</time></trkpt><trkpt lat="44.3923617" lon="11.2463567"><ele>130.25</ele><time>2026-04-09T08:20:06.966Z</time></trkpt><trkpt lat="44.39224" lon="11.2462933"><ele>131.0</ele><time>2026-04-09T08:20:07.965Z</time></trkpt><trkpt lat="44.392115" lon="11.2462367"><ele>131.0</ele><time>2026-04-09T08:20:08.965Z</time></trkpt><trkpt lat="44.391995" lon="11.2461833"><ele>131.0</ele><time>2026-04-09T08:20:09.965Z</time></trkpt><trkpt lat="44.3918717" lon="11.2461283"><ele>131.0</ele><time>2026-04-09T08:20:10.965Z</time></trkpt><trkpt lat="44.391755" lon="11.2460817"><ele>131.0</ele><time>2026-04-09T08:20:11.965Z</time></trkpt><trkpt lat="44.3916317" lon="11.2460417"><ele>131.0</ele><time>2026-04-09T08:20:12.965Z</time></trkpt><trkpt lat="44.3915183" lon="11.2460017"><ele>131.0</ele><time>2026-04-09T08:20:13.966Z</time></trkpt><trkpt lat="44.3913067" lon="11.24593"><ele>131.0</ele><time>2026-04-09T08:20:15.965Z</time></trkpt><trkpt lat="44.3912133" lon="11.2458833"><ele>131.0</ele><time>2026-04-09T08:20:16.965Z</time></trkpt><trkpt lat="44.391125" lon="11.2458167"><ele>130.4</ele><time>2026-04-09T08:20:17.965Z</time></trkpt><trkpt lat="44.39104" lon="11.2457517"><ele>129.8</ele><time>2026-04-09T08:20:18.965Z</time></trkpt><trkpt lat="44.3909533" lon="11.2457"><ele>129.20000000000002</ele><time>2026-04-09T08:20:19.965Z</time></trkpt><trkpt lat="44.39087" lon="11.24568"><ele>128.6</ele><time>2026-04-09T08:20:20.965Z</time></trkpt><trkpt lat="44.390785" lon="11.24571"><ele>128.0</ele><time>2026-04-09T08:20:21.965Z</time></trkpt><trkpt lat="44.3907133" lon="11.2457867"><ele>128.0</ele><time>2026-04-09T08:20:22.965Z</time></trkpt><trkpt lat="44.3906533" lon="11.2458983"><ele>128.0</ele><time>2026-04-09T08:20:23.965Z</time></trkpt><trkpt lat="44.390595" lon="11.246005"><ele>128.0</ele><time>2026-04-09T08:20:24.965Z</time></trkpt><trkpt lat="44.3905183" lon="11.2461033"><ele>128.0</ele><time>2026-04-09T08:20:25.965Z</time></trkpt><trkpt lat="44.390425" lon="11.2461867"><ele>128.0</ele><time>2026-04-09T08:20:26.966Z</time></trkpt><trkpt lat="44.390325" lon="11.2462467"><ele>123.75</ele><time>2026-04-09T08:20:27.965Z</time></trkpt><trkpt lat="44.3902283" lon="11.2463"><ele>119.5</ele><time>2026-04-09T08:20:28.966Z</time></trkpt><trkpt lat="44.39011" lon="11.2463533"><ele>115.25</ele><time>2026-04-09T08:20:29.966Z</time></trkpt><trkpt lat="44.3899833" lon="11.2464083"><ele>111.0</ele><time>2026-04-09T08:20:30.965Z</time></trkpt><trkpt lat="44.389855" lon="11.2464667"><ele>108.5</ele><time>2026-04-09T08:20:31.965Z</time></trkpt><trkpt lat="44.3897217" lon="11.24653"><ele>106.0</ele><time>2026-04-09T08:20:32.965Z</time></trkpt><trkpt lat="44.3895833" lon="11.2466033"><ele>103.5</ele><time>2026-04-09T08:20:33.965Z</time></trkpt><trkpt lat="44.389435" lon="11.2466883"><ele>101.0</ele><time>2026-04-09T08:20:34.966Z</time></trkpt><trkpt lat="44.3892883" lon="11.2467567"><ele>101.0</ele><time>2026-04-09T08:20:35.964Z</time></trkpt><trkpt lat="44.3891383" lon="11.24682"><ele>101.0</ele><time>2026-04-09T08:20:36.964Z</time></trkpt><trkpt lat="44.3889917" lon="11.24688"><ele>101.0</ele><time>2026-04-09T08:20:37.964Z</time></trkpt><trkpt lat="44.3888517" lon="11.2469483"><ele>102.83333333333333</ele><time>2026-04-09T08:20:38.964Z</time></trkpt><trkpt lat="44.3887333" lon="11.247005"><ele>104.66666666666666</ele><time>2026-04-09T08:20:39.964Z</time></trkpt><trkpt lat="44.388635" lon="11.24705"><ele>106.5</ele><time>2026-04-09T08:20:40.965Z</time></trkpt><trkpt lat="44.3885583" lon="11.2470783"><ele>108.33333333333334</ele><time>2026-04-09T08:20:41.964Z</time></trkpt><trkpt lat="44.388495" lon="11.2471033"><ele>110.16666666666667</ele><time>2026-04-09T08:20:42.965Z</time></trkpt><trkpt lat="44.3884267" lon="11.2471167"><ele>112.0</ele><time>2026-04-09T08:20:43.964Z</time></trkpt><trkpt lat="44.388345" lon="11.24712"><ele>112.0</ele><time>2026-04-09T08:20:44.964Z</time></trkpt><trkpt lat="44.3882733" lon="11.2471267"><ele>112.0</ele><time>2026-04-09T08:20:45.964Z</time></trkpt><trkpt lat="44.3880967" lon="11.2472267"><ele>112.0</ele><time>2026-04-09T08:20:47.965Z</time></trkpt><trkpt lat="44.388005" lon="11.247305"><ele>112.0</ele><time>2026-04-09T08:20:48.964Z</time></trkpt><trkpt lat="44.38778" lon="11.2474417"><ele>114.75</ele><time>2026-04-09T08:20:50.964Z</time></trkpt><trkpt lat="44.3876583" lon="11.2475133"><ele>117.5</ele><time>2026-04-09T08:20:51.964Z</time></trkpt><trkpt lat="44.3875183" lon="11.24758"><ele>120.25</ele><time>2026-04-09T08:20:52.964Z</time></trkpt><trkpt lat="44.38736" lon="11.2476583"><ele>123.0</ele><time>2026-04-09T08:20:53.964Z</time></trkpt><trkpt lat="44.3871833" lon="11.2477383"><ele>123.0</ele><time>2026-04-09T08:20:54.964Z</time></trkpt><trkpt lat="44.387" lon="11.2478217"><ele>123.0</ele><time>2026-04-09T08:20:55.964Z</time></trkpt><trkpt lat="44.3868083" lon="11.2479067"><ele>123.0</ele><time>2026-04-09T08:20:56.964Z</time></trkpt><trkpt lat="44.3866167" lon="11.2479833"><ele>123.0</ele><time>2026-04-09T08:20:57.964Z</time></trkpt><trkpt lat="44.3864367" lon="11.2480533"><ele>123.0</ele><time>2026-04-09T08:20:58.964Z</time></trkpt><trkpt lat="44.386265" lon="11.2481133"><ele>123.0</ele><time>2026-04-09T08:20:59.964Z</time></trkpt><trkpt lat="44.38611" lon="11.248155"><ele>122.66666666666666</ele><time>2026-04-09T08:21:00.964Z</time></trkpt><trkpt lat="44.3859483" lon="11.2482"><ele>122.33333333333333</ele><time>2026-04-09T08:21:01.964Z</time></trkpt><trkpt lat="44.3857867" lon="11.2482433"><ele>122.0</ele><time>2026-04-09T08:21:02.964Z</time></trkpt><trkpt lat="44.3856217" lon="11.2482883"><ele>118.66666666666666</ele><time>2026-04-09T08:21:03.964Z</time></trkpt><trkpt lat="44.3854633" lon="11.24834"><ele>115.33333333333334</ele><time>2026-04-09T08:21:04.964Z</time></trkpt><trkpt lat="44.385305" lon="11.2483967"><ele>112.0</ele><time>2026-04-09T08:21:05.964Z</time></trkpt><trkpt lat="44.3851483" lon="11.248465"><ele>112.0</ele><time>2026-04-09T08:21:06.964Z</time></trkpt><trkpt lat="44.3849867" lon="11.2485433"><ele>112.0</ele><time>2026-04-09T08:21:07.965Z</time></trkpt><trkpt lat="44.3848383" lon="11.2486267"><ele>112.0</ele><time>2026-04-09T08:21:08.964Z</time></trkpt><trkpt lat="44.384695" lon="11.2487283"><ele>109.33333333333334</ele><time>2026-04-09T08:21:09.964Z</time></trkpt><trkpt lat="44.3845517" lon="11.2488383"><ele>106.66666666666666</ele><time>2026-04-09T08:21:10.965Z</time></trkpt><trkpt lat="44.384415" lon="11.2489467"><ele>104.0</ele><time>2026-04-09T08:21:11.965Z</time></trkpt><trkpt lat="44.3842783" lon="11.2490533"><ele>106.75</ele><time>2026-04-09T08:21:12.965Z</time></trkpt><trkpt lat="44.3841433" lon="11.2491467"><ele>109.5</ele><time>2026-04-09T08:21:13.964Z</time></trkpt><trkpt lat="44.3840083" lon="11.2492267"><ele>112.25</ele><time>2026-04-09T08:21:14.964Z</time></trkpt><trkpt lat="44.38388" lon="11.2493033"><ele>115.0</ele><time>2026-04-09T08:21:15.964Z</time></trkpt><trkpt lat="44.3837433" lon="11.249365"><ele>115.0</ele><time>2026-04-09T08:21:16.964Z</time></trkpt><trkpt lat="44.383615" lon="11.249425"><ele>115.0</ele><time>2026-04-09T08:21:17.965Z</time></trkpt><trkpt lat="44.38349" lon="11.249495"><ele>115.0</ele><time>2026-04-09T08:21:18.964Z</time></trkpt><trkpt lat="44.3833633" lon="11.2495667"><ele>115.0</ele><time>2026-04-09T08:21:19.964Z</time></trkpt><trkpt lat="44.383235" lon="11.2496567"><ele>115.0</ele><time>2026-04-09T08:21:20.964Z</time></trkpt><trkpt lat="44.383105" lon="11.249745"><ele>115.0</ele><time>2026-04-09T08:21:21.964Z</time></trkpt><trkpt lat="44.3829833" lon="11.24984"><ele>115.0</ele><time>2026-04-09T08:21:22.965Z</time></trkpt><trkpt lat="44.3828633" lon="11.2499433"><ele>115.0</ele><time>2026-04-09T08:21:23.964Z</time></trkpt><trkpt lat="44.38275" lon="11.2500533"><ele>114.25</ele><time>2026-04-09T08:21:24.965Z</time></trkpt><trkpt lat="44.3826367" lon="11.250165"><ele>113.5</ele><time>2026-04-09T08:21:25.965Z</time></trkpt><trkpt lat="44.38252" lon="11.25029"><ele>112.75</ele><time>2026-04-09T08:21:26.964Z</time></trkpt><trkpt lat="44.3824083" lon="11.2504117"><ele>112.0</ele><time>2026-04-09T08:21:27.964Z</time></trkpt><trkpt lat="44.3822983" lon="11.250515"><ele>112.25</ele><time>2026-04-09T08:21:28.964Z</time></trkpt><trkpt lat="44.3821783" lon="11.2506233"><ele>112.5</ele><time>2026-04-09T08:21:29.964Z</time></trkpt><trkpt lat="44.38206" lon="11.2507317"><ele>112.75</ele><time>2026-04-09T08:21:30.964Z</time></trkpt><trkpt lat="44.38194" lon="11.2508183"><ele>113.0</ele><time>2026-04-09T08:21:31.965Z</time></trkpt><trkpt lat="44.38182" lon="11.2508917"><ele>113.0</ele><time>2026-04-09T08:21:32.964Z</time></trkpt><trkpt lat="44.38169" lon="11.2509717"><ele>113.0</ele><time>2026-04-09T08:21:33.964Z</time></trkpt><trkpt lat="44.381555" lon="11.2510417"><ele>113.0</ele><time>2026-04-09T08:21:34.964Z</time></trkpt><trkpt lat="44.3814233" lon="11.25109"><ele>113.0</ele><time>2026-04-09T08:21:35.964Z</time></trkpt><trkpt lat="44.38128" lon="11.2511317"><ele>112.5</ele><time>2026-04-09T08:21:36.964Z</time></trkpt><trkpt lat="44.38114" lon="11.251165"><ele>112.0</ele><time>2026-04-09T08:21:37.964Z</time></trkpt><trkpt lat="44.381005" lon="11.251185"><ele>111.5</ele><time>2026-04-09T08:21:38.964Z</time></trkpt><trkpt lat="44.38086" lon="11.2512017"><ele>111.0</ele><time>2026-04-09T08:21:39.964Z</time></trkpt><trkpt lat="44.3807217" lon="11.251195"><ele>111.0</ele><time>2026-04-09T08:21:40.964Z</time></trkpt><trkpt lat="44.3805817" lon="11.2511817"><ele>111.0</ele><time>2026-04-09T08:21:41.964Z</time></trkpt><trkpt lat="44.380455" lon="11.25116"><ele>111.0</ele><time>2026-04-09T08:21:42.964Z</time></trkpt><trkpt lat="44.38033" lon="11.2511033"><ele>111.0</ele><time>2026-04-09T08:21:43.965Z</time></trkpt><trkpt lat="44.3802267" lon="11.2510267"><ele>112.5</ele><time>2026-04-09T08:21:44.964Z</time></trkpt><trkpt lat="44.3801233" lon="11.2509467"><ele>114.0</ele><time>2026-04-09T08:21:45.964Z</time></trkpt><trkpt lat="44.3800183" lon="11.2508717"><ele>115.5</ele><time>2026-04-09T08:21:46.964Z</time></trkpt><trkpt lat="44.37992" lon="11.2508"><ele>117.0</ele><time>2026-04-09T08:21:47.964Z</time></trkpt><trkpt lat="44.379815" lon="11.25075"><ele>117.0</ele><time>2026-04-09T08:21:48.965Z</time></trkpt><trkpt lat="44.379715" lon="11.2507117"><ele>116.99999999999999</ele><time>2026-04-09T08:21:49.964Z</time></trkpt><trkpt lat="44.3796" lon="11.2507033"><ele>116.99999999999999</ele><time>2026-04-09T08:21:50.964Z</time></trkpt><trkpt lat="44.3794967" lon="11.2507267"><ele>117.0</ele><time>2026-04-09T08:21:51.965Z</time></trkpt><trkpt lat="44.3793883" lon="11.2507817"><ele>117.0</ele><time>2026-04-09T08:21:52.964Z</time></trkpt><trkpt lat="44.3792817" lon="11.2508633"><ele>115.5</ele><time>2026-04-09T08:21:53.964Z</time></trkpt><trkpt lat="44.3791783" lon="11.25095"><ele>114.0</ele><time>2026-04-09T08:21:54.964Z</time></trkpt><trkpt lat="44.3790767" lon="11.2510517"><ele>112.5</ele><time>2026-04-09T08:21:55.964Z</time></trkpt><trkpt lat="44.3789717" lon="11.2511583"><ele>111.0</ele><time>2026-04-09T08:21:56.964Z</time></trkpt><trkpt lat="44.378865" lon="11.2512667"><ele>112.25</ele><time>2026-04-09T08:21:57.964Z</time></trkpt><trkpt lat="44.3787567" lon="11.2513917"><ele>113.5</ele><time>2026-04-09T08:21:58.965Z</time></trkpt><trkpt lat="44.3786433" lon="11.251505"><ele>114.75</ele><time>2026-04-09T08:21:59.964Z</time></trkpt><trkpt lat="44.378535" lon="11.2516283"><ele>116.0</ele><time>2026-04-09T08:22:00.964Z</time></trkpt><trkpt lat="44.3784317" lon="11.25175"><ele>116.0</ele><time>2026-04-09T08:22:01.965Z</time></trkpt><trkpt lat="44.3783317" lon="11.2518633"><ele>116.0</ele><time>2026-04-09T08:22:02.964Z</time></trkpt><trkpt lat="44.37823" lon="11.251965"><ele>116.0</ele><time>2026-04-09T08:22:03.964Z</time></trkpt><trkpt lat="44.3781317" lon="11.25206"><ele>116.0</ele><time>2026-04-09T08:22:04.964Z</time></trkpt><trkpt lat="44.3780233" lon="11.2521367"><ele>114.75</ele><time>2026-04-09T08:22:05.965Z</time></trkpt><trkpt lat="44.3779017" lon="11.252195"><ele>113.5</ele><time>2026-04-09T08:22:06.965Z</time></trkpt><trkpt lat="44.3777733" lon="11.2522467"><ele>112.25</ele><time>2026-04-09T08:22:07.965Z</time></trkpt><trkpt lat="44.3776383" lon="11.2522917"><ele>111.0</ele><time>2026-04-09T08:22:08.964Z</time></trkpt><trkpt lat="44.3775083" lon="11.2523367"><ele>113.25</ele><time>2026-04-09T08:22:09.964Z</time></trkpt><trkpt lat="44.3773767" lon="11.2523767"><ele>115.5</ele><time>2026-04-09T08:22:10.965Z</time></trkpt><trkpt lat="44.3772483" lon="11.25242"><ele>117.75</ele><time>2026-04-09T08:22:11.965Z</time></trkpt><trkpt lat="44.377115" lon="11.2524483"><ele>120.0</ele><time>2026-04-09T08:22:12.964Z</time></trkpt><trkpt lat="44.3769833" lon="11.2524667"><ele>120.0</ele><time>2026-04-09T08:22:13.964Z</time></trkpt><trkpt lat="44.3768483" lon="11.2524817"><ele>120.0</ele><time>2026-04-09T08:22:14.964Z</time></trkpt><trkpt lat="44.3767167" lon="11.2524917"><ele>120.0</ele><time>2026-04-09T08:22:15.964Z</time></trkpt><trkpt lat="44.3765817" lon="11.2524817"><ele>120.0</ele><time>2026-04-09T08:22:16.964Z</time></trkpt><trkpt lat="44.376445" lon="11.2524683"><ele>120.75</ele><time>2026-04-09T08:22:17.964Z</time></trkpt><trkpt lat="44.37631" lon="11.25244"><ele>121.5</ele><time>2026-04-09T08:22:18.964Z</time></trkpt><trkpt lat="44.37618" lon="11.25241"><ele>122.25</ele><time>2026-04-09T08:22:19.964Z</time></trkpt><trkpt lat="44.376055" lon="11.25237"><ele>123.0</ele><time>2026-04-09T08:22:20.965Z</time></trkpt><trkpt lat="44.37583" lon="11.2522633"><ele>121.0</ele><time>2026-04-09T08:22:22.964Z</time></trkpt><trkpt lat="44.3757317" lon="11.2521933"><ele>119.00000000000001</ele><time>2026-04-09T08:22:23.964Z</time></trkpt><trkpt lat="44.3756367" lon="11.2521267"><ele>117.00000000000001</ele><time>2026-04-09T08:22:24.965Z</time></trkpt><trkpt lat="44.3755333" lon="11.2520667"><ele>115.0</ele><time>2026-04-09T08:22:25.964Z</time></trkpt><trkpt lat="44.3754317" lon="11.2520283"><ele>113.0</ele><time>2026-04-09T08:22:26.965Z</time></trkpt><trkpt lat="44.3753117" lon="11.25201"><ele>112.75</ele><time>2026-04-09T08:22:27.964Z</time></trkpt><trkpt lat="44.3751983" lon="11.252005"><ele>112.5</ele><time>2026-04-09T08:22:28.964Z</time></trkpt><trkpt lat="44.37508" lon="11.2520183"><ele>112.25</ele><time>2026-04-09T08:22:29.964Z</time></trkpt><trkpt lat="44.3749633" lon="11.2520383"><ele>112.0</ele><time>2026-04-09T08:22:30.964Z</time></trkpt><trkpt lat="44.3748433" lon="11.25207"><ele>112.0</ele><time>2026-04-09T08:22:31.964Z</time></trkpt><trkpt lat="44.3747183" lon="11.2521"><ele>112.0</ele><time>2026-04-09T08:22:32.964Z</time></trkpt><trkpt lat="44.374585" lon="11.25213"><ele>112.0</ele><time>2026-04-09T08:22:33.964Z</time></trkpt><trkpt lat="44.3744517" lon="11.2521633"><ele>112.0</ele><time>2026-04-09T08:22:34.964Z</time></trkpt><trkpt lat="44.3743183" lon="11.2521983"><ele>112.25</ele><time>2026-04-09T08:22:35.964Z</time></trkpt><trkpt lat="44.37418" lon="11.252255"><ele>112.5</ele><time>2026-04-09T08:22:36.964Z</time></trkpt><trkpt lat="44.3740467" lon="11.2523317"><ele>112.75</ele><time>2026-04-09T08:22:37.965Z</time></trkpt><trkpt lat="44.37391" lon="11.25241"><ele>113.0</ele><time>2026-04-09T08:22:38.964Z</time></trkpt><trkpt lat="44.3737767" lon="11.2524867"><ele>113.0</ele><time>2026-04-09T08:22:39.965Z</time></trkpt><trkpt lat="44.3736467" lon="11.25257"><ele>113.0</ele><time>2026-04-09T08:22:40.965Z</time></trkpt><trkpt lat="44.3735117" lon="11.25264"><ele>113.0</ele><time>2026-04-09T08:22:41.964Z</time></trkpt><trkpt lat="44.37338" lon="11.25272"><ele>113.0</ele><time>2026-04-09T08:22:42.964Z</time></trkpt><trkpt lat="44.373245" lon="11.2527833"><ele>113.0</ele><time>2026-04-09T08:22:43.964Z</time></trkpt><trkpt lat="44.373115" lon="11.25284"><ele>113.0</ele><time>2026-04-09T08:22:44.964Z</time></trkpt><trkpt lat="44.3729833" lon="11.2528867"><ele>113.0</ele><time>2026-04-09T08:22:45.965Z</time></trkpt><trkpt lat="44.372855" lon="11.2529317"><ele>113.0</ele><time>2026-04-09T08:22:46.964Z</time></trkpt><trkpt lat="44.3727183" lon="11.2529633"><ele>112.25</ele><time>2026-04-09T08:22:47.964Z</time></trkpt><trkpt lat="44.372585" lon="11.2530033"><ele>111.5</ele><time>2026-04-09T08:22:48.964Z</time></trkpt><trkpt lat="44.37246" lon="11.2530417"><ele>110.75</ele><time>2026-04-09T08:22:49.964Z</time></trkpt><trkpt lat="44.3723333" lon="11.2530917"><ele>110.0</ele><time>2026-04-09T08:22:50.964Z</time></trkpt><trkpt lat="44.3722183" lon="11.253145"><ele>111.0</ele><time>2026-04-09T08:22:51.965Z</time></trkpt><trkpt lat="44.3721" lon="11.2532"><ele>112.0</ele><time>2026-04-09T08:22:52.964Z</time></trkpt><trkpt lat="44.371985" lon="11.253275"><ele>113.0</ele><time>2026-04-09T08:22:53.965Z</time></trkpt><trkpt lat="44.3718783" lon="11.2533617"><ele>114.0</ele><time>2026-04-09T08:22:54.964Z</time></trkpt><trkpt lat="44.3717717" lon="11.2534467"><ele>114.0</ele><time>2026-04-09T08:22:55.965Z</time></trkpt><trkpt lat="44.3716667" lon="11.253545"><ele>114.0</ele><time>2026-04-09T08:22:56.964Z</time></trkpt><trkpt lat="44.371565" lon="11.2536517"><ele>114.0</ele><time>2026-04-09T08:22:57.964Z</time></trkpt><trkpt lat="44.371465" lon="11.2537783"><ele>114.0</ele><time>2026-04-09T08:22:58.964Z</time></trkpt><trkpt lat="44.3713817" lon="11.2539067"><ele>113.25</ele><time>2026-04-09T08:22:59.964Z</time></trkpt><trkpt lat="44.3713033" lon="11.254045"><ele>112.5</ele><time>2026-04-09T08:23:00.965Z</time></trkpt><trkpt lat="44.3712333" lon="11.25419"><ele>111.75</ele><time>2026-04-09T08:23:01.964Z</time></trkpt><trkpt lat="44.371175" lon="11.25434"><ele>111.0</ele><time>2026-04-09T08:23:02.964Z</time></trkpt><trkpt lat="44.371115" lon="11.2544933"><ele>111.0</ele><time>2026-04-09T08:23:03.964Z</time></trkpt><trkpt lat="44.3710617" lon="11.2546617"><ele>111.0</ele><time>2026-04-09T08:23:04.965Z</time></trkpt><trkpt lat="44.3710033" lon="11.2548267"><ele>111.0</ele><time>2026-04-09T08:23:05.964Z</time></trkpt><trkpt lat="44.3709433" lon="11.2549767"><ele>111.0</ele><time>2026-04-09T08:23:06.964Z</time></trkpt><trkpt lat="44.3708817" lon="11.2551317"><ele>112.5</ele><time>2026-04-09T08:23:07.965Z</time></trkpt><trkpt lat="44.3708283" lon="11.2552833"><ele>114.0</ele><time>2026-04-09T08:23:08.964Z</time></trkpt><trkpt lat="44.3707733" lon="11.25545"><ele>115.5</ele><time>2026-04-09T08:23:09.964Z</time></trkpt><trkpt lat="44.3707067" lon="11.25558"><ele>117.0</ele><time>2026-04-09T08:23:10.964Z</time></trkpt><trkpt lat="44.370645" lon="11.2557"><ele>116.33333333333333</ele><time>2026-04-09T08:23:11.965Z</time></trkpt><trkpt lat="44.3705833" lon="11.25581"><ele>115.66666666666666</ele><time>2026-04-09T08:23:12.964Z</time></trkpt><trkpt lat="44.3705417" lon="11.2558983"><ele>115.0</ele><time>2026-04-09T08:23:13.964Z</time></trkpt><trkpt lat="44.3705" lon="11.2559683"><ele>114.33333333333333</ele><time>2026-04-09T08:23:14.964Z</time></trkpt><trkpt lat="44.3704267" lon="11.2561167"><ele>113.66666666666666</ele><time>2026-04-09T08:23:16.964Z</time></trkpt><trkpt lat="44.3703783" lon="11.2561917"><ele>113.0</ele><time>2026-04-09T08:23:17.964Z</time></trkpt><trkpt lat="44.3703317" lon="11.25627"><ele>112.99999999999999</ele><time>2026-04-09T08:23:18.964Z</time></trkpt><trkpt lat="44.37029" lon="11.25635"><ele>113.0</ele><time>2026-04-09T08:23:19.964Z</time></trkpt><trkpt lat="44.3702483" lon="11.2564267"><ele>113.0</ele><time>2026-04-09T08:23:20.965Z</time></trkpt><trkpt lat="44.3701883" lon="11.25655"><ele>113.0</ele><time>2026-04-09T08:23:22.964Z</time></trkpt><trkpt lat="44.3701467" lon="11.2566433"><ele>112.99999999999999</ele><time>2026-04-09T08:23:24.964Z</time></trkpt><trkpt lat="44.3701117" lon="11.2567433"><ele>113.0</ele><time>2026-04-09T08:23:27.965Z</time></trkpt><trkpt lat="44.3700517" lon="11.2569"><ele>113.83333333333333</ele><time>2026-04-09T08:24:34.963Z</time></trkpt><trkpt lat="44.3699983" lon="11.2570017"><ele>114.66666666666666</ele><time>2026-04-09T08:24:36.964Z</time></trkpt><trkpt lat="44.369985" lon="11.257115"><ele>115.5</ele><time>2026-04-09T08:24:38.963Z</time></trkpt><trkpt lat="44.3699967" lon="11.2572467"><ele>116.33333333333334</ele><time>2026-04-09T08:24:39.963Z</time></trkpt><trkpt lat="44.3700333" lon="11.2573333"><ele>117.16666666666667</ele><time>2026-04-09T08:24:40.963Z</time></trkpt><trkpt lat="44.37005" lon="11.2574217"><ele>118.0</ele><time>2026-04-09T08:24:41.963Z</time></trkpt><trkpt lat="44.370045" lon="11.2575817"><ele>121.0</ele><time>2026-04-09T08:24:43.963Z</time></trkpt><trkpt lat="44.3697333" lon="11.2580467"><ele>118.5</ele><time>2026-04-09T08:24:44.964Z</time></trkpt><trkpt lat="44.369425" lon="11.2584117"><ele>116.0</ele><time>2026-04-09T08:24:45.963Z</time></trkpt><trkpt lat="44.3693083" lon="11.2586217"><ele>116.0</ele><time>2026-04-09T08:24:46.963Z</time></trkpt><trkpt lat="44.3692467" lon="11.258775"><ele>116.0</ele><time>2026-04-09T08:24:47.963Z</time></trkpt><trkpt lat="44.3691967" lon="11.2589067"><ele>116.0</ele><time>2026-04-09T08:24:48.963Z</time></trkpt><trkpt lat="44.3691517" lon="11.25904"><ele>116.0</ele><time>2026-04-09T08:24:49.964Z</time></trkpt><trkpt lat="44.3691033" lon="11.2591667"><ele>116.0</ele><time>2026-04-09T08:24:50.964Z</time></trkpt><trkpt lat="44.3690383" lon="11.2592917"><ele>116.0</ele><time>2026-04-09T08:24:51.963Z</time></trkpt><trkpt lat="44.368975" lon="11.2593667"><ele>116.0</ele><time>2026-04-09T08:24:52.964Z</time></trkpt><trkpt lat="44.3688717" lon="11.25946"><ele>116.0</ele><time>2026-04-09T08:24:53.963Z</time></trkpt><trkpt lat="44.3687533" lon="11.25951"><ele>116.0</ele><time>2026-04-09T08:24:54.963Z</time></trkpt><trkpt lat="44.3686267" lon="11.25956"><ele>116.0</ele><time>2026-04-09T08:24:55.963Z</time></trkpt><trkpt lat="44.3684967" lon="11.25961"><ele>116.0</ele><time>2026-04-09T08:24:56.964Z</time></trkpt><trkpt lat="44.3683567" lon="11.259655"><ele>116.0</ele><time>2026-04-09T08:24:57.963Z</time></trkpt><trkpt lat="44.3682333" lon="11.2597017"><ele>116.0</ele><time>2026-04-09T08:24:58.963Z</time></trkpt><trkpt lat="44.3681083" lon="11.2597617"><ele>116.75</ele><time>2026-04-09T08:24:59.964Z</time></trkpt><trkpt lat="44.3679783" lon="11.2598317"><ele>117.5</ele><time>2026-04-09T08:25:00.964Z</time></trkpt><trkpt lat="44.36785" lon="11.2599117"><ele>118.25</ele><time>2026-04-09T08:25:01.963Z</time></trkpt><trkpt lat="44.3677317" lon="11.2599833"><ele>119.0</ele><time>2026-04-09T08:25:02.963Z</time></trkpt><trkpt lat="44.3676233" lon="11.2600517"><ele>119.0</ele><time>2026-04-09T08:25:03.963Z</time></trkpt><trkpt lat="44.36752" lon="11.26011"><ele>119.0</ele><time>2026-04-09T08:25:04.963Z</time></trkpt><trkpt lat="44.3674183" lon="11.2601633"><ele>119.0</ele><time>2026-04-09T08:25:05.964Z</time></trkpt><trkpt lat="44.3673183" lon="11.2601917"><ele>119.0</ele><time>2026-04-09T08:25:06.963Z</time></trkpt><trkpt lat="44.36721" lon="11.2602033"><ele>119.0</ele><time>2026-04-09T08:25:07.963Z</time></trkpt><trkpt lat="44.3671083" lon="11.260195"><ele>118.0</ele><time>2026-04-09T08:25:08.963Z</time></trkpt><trkpt lat="44.367" lon="11.26017"><ele>117.0</ele><time>2026-04-09T08:25:09.963Z</time></trkpt><trkpt lat="44.3668967" lon="11.2601267"><ele>116.0</ele><time>2026-04-09T08:25:10.963Z</time></trkpt><trkpt lat="44.366805" lon="11.2600683"><ele>115.0</ele><time>2026-04-09T08:25:11.963Z</time></trkpt><trkpt lat="44.3667233" lon="11.2599917"><ele>114.0</ele><time>2026-04-09T08:25:12.963Z</time></trkpt><trkpt lat="44.3666517" lon="11.2599067"><ele>114.0</ele><time>2026-04-09T08:25:13.963Z</time></trkpt><trkpt lat="44.3665967" lon="11.2598133"><ele>114.0</ele><time>2026-04-09T08:25:14.963Z</time></trkpt><trkpt lat="44.3665667" lon="11.25972"><ele>114.0</ele><time>2026-04-09T08:25:15.963Z</time></trkpt><trkpt lat="44.3665433" lon="11.259635"><ele>114.0</ele><time>2026-04-09T08:25:16.963Z</time></trkpt><trkpt lat="44.3665383" lon="11.259535"><ele>114.0</ele><time>2026-04-09T08:25:17.963Z</time></trkpt><trkpt lat="44.3665533" lon="11.25943"><ele>114.0</ele><time>2026-04-09T08:25:18.964Z</time></trkpt><trkpt lat="44.3665867" lon="11.2593267"><ele>113.6</ele><time>2026-04-09T08:25:19.963Z</time></trkpt><trkpt lat="44.36664" lon="11.2592333"><ele>113.2</ele><time>2026-04-09T08:25:20.963Z</time></trkpt><trkpt lat="44.3667117" lon="11.2591317"><ele>112.79999999999998</ele><time>2026-04-09T08:25:21.963Z</time></trkpt><trkpt lat="44.3667967" lon="11.2590183"><ele>112.39999999999999</ele><time>2026-04-09T08:25:22.964Z</time></trkpt><trkpt lat="44.3668933" lon="11.25888"><ele>112.0</ele><time>2026-04-09T08:25:23.963Z</time></trkpt><trkpt lat="44.3669917" lon="11.258735"><ele>112.0</ele><time>2026-04-09T08:25:24.963Z</time></trkpt><trkpt lat="44.3670867" lon="11.2585767"><ele>112.0</ele><time>2026-04-09T08:25:25.963Z</time></trkpt><trkpt lat="44.3671833" lon="11.25842"><ele>112.0</ele><time>2026-04-09T08:25:26.963Z</time></trkpt><trkpt lat="44.367275" lon="11.2582617"><ele>112.0</ele><time>2026-04-09T08:25:27.963Z</time></trkpt><trkpt lat="44.3673633" lon="11.25811"><ele>111.33333333333334</ele><time>2026-04-09T08:25:28.963Z</time></trkpt><trkpt lat="44.3674533" lon="11.2579517"><ele>110.66666666666666</ele><time>2026-04-09T08:25:29.963Z</time></trkpt><trkpt lat="44.3675417" lon="11.25778"><ele>110.0</ele><time>2026-04-09T08:25:30.964Z</time></trkpt><trkpt lat="44.3676383" lon="11.2576117"><ele>110.0</ele><time>2026-04-09T08:25:31.963Z</time></trkpt><trkpt lat="44.3677417" lon="11.2574383"><ele>110.0</ele><time>2026-04-09T08:25:32.963Z</time></trkpt><trkpt lat="44.3678433" lon="11.2572267"><ele>110.0</ele><time>2026-04-09T08:25:33.963Z</time></trkpt><trkpt lat="44.3681283" lon="11.2571033"><ele>109.66666666666666</ele><time>2026-04-09T08:25:34.963Z</time></trkpt><trkpt lat="44.3683517" lon="11.2570117"><ele>109.33333333333334</ele><time>2026-04-09T08:25:35.963Z</time></trkpt><trkpt lat="44.3685283" lon="11.256935"><ele>109.0</ele><time>2026-04-09T08:25:36.964Z</time></trkpt><trkpt lat="44.3686917" lon="11.256855"><ele>109.0</ele><time>2026-04-09T08:25:37.963Z</time></trkpt><trkpt lat="44.3688417" lon="11.25676"><ele>109.0</ele><time>2026-04-09T08:25:38.963Z</time></trkpt><trkpt lat="44.3689917" lon="11.256655"><ele>109.0</ele><time>2026-04-09T08:25:39.963Z</time></trkpt><trkpt lat="44.36914" lon="11.256545"><ele>110.0</ele><time>2026-04-09T08:25:40.963Z</time></trkpt><trkpt lat="44.36929" lon="11.2564267"><ele>111.0</ele><time>2026-04-09T08:25:41.964Z</time></trkpt><trkpt lat="44.3694383" lon="11.2563183"><ele>112.0</ele><time>2026-04-09T08:25:42.963Z</time></trkpt><trkpt lat="44.3695883" lon="11.2561933"><ele>112.33333333333334</ele><time>2026-04-09T08:25:43.964Z</time></trkpt><trkpt lat="44.3697333" lon="11.2560633"><ele>112.66666666666666</ele><time>2026-04-09T08:25:44.963Z</time></trkpt><trkpt lat="44.3698717" lon="11.255925"><ele>113.0</ele><time>2026-04-09T08:25:45.963Z</time></trkpt><trkpt lat="44.3700067" lon="11.2557833"><ele>113.0</ele><time>2026-04-09T08:25:46.963Z</time></trkpt><trkpt lat="44.3701467" lon="11.255645"><ele>113.0</ele><time>2026-04-09T08:25:47.963Z</time></trkpt><trkpt lat="44.3702967" lon="11.25552"><ele>113.0</ele><time>2026-04-09T08:25:48.963Z</time></trkpt><trkpt lat="44.370445" lon="11.2553967"><ele>114.33333333333333</ele><time>2026-04-09T08:25:49.963Z</time></trkpt><trkpt lat="44.3705983" lon="11.2552717"><ele>115.66666666666666</ele><time>2026-04-09T08:25:50.963Z</time></trkpt><trkpt lat="44.3707567" lon="11.2551533"><ele>117.0</ele><time>2026-04-09T08:25:51.963Z</time></trkpt><trkpt lat="44.3709183" lon="11.2550367"><ele>117.0</ele><time>2026-04-09T08:25:52.963Z</time></trkpt><trkpt lat="44.371085" lon="11.25492"><ele>117.0</ele><time>2026-04-09T08:25:53.963Z</time></trkpt><trkpt lat="44.37125" lon="11.2548033"><ele>117.0</ele><time>2026-04-09T08:25:54.963Z</time></trkpt><trkpt lat="44.3714133" lon="11.2546817"><ele>119.0</ele><time>2026-04-09T08:25:55.963Z</time></trkpt><trkpt lat="44.3715783" lon="11.2545533"><ele>121.0</ele><time>2026-04-09T08:25:56.964Z</time></trkpt><trkpt lat="44.3717417" lon="11.2544283"><ele>123.0</ele><time>2026-04-09T08:25:57.963Z</time></trkpt><trkpt lat="44.37191" lon="11.254305"><ele>123.0</ele><time>2026-04-09T08:25:58.963Z</time></trkpt><trkpt lat="44.3720783" lon="11.254175"><ele>123.0</ele><time>2026-04-09T08:25:59.963Z</time></trkpt><trkpt lat="44.37225" lon="11.2540483"><ele>123.0</ele><time>2026-04-09T08:26:00.963Z</time></trkpt><trkpt lat="44.37242" lon="11.2539183"><ele>122.33333333333334</ele><time>2026-04-09T08:26:01.963Z</time></trkpt><trkpt lat="44.3725917" lon="11.2537933"><ele>121.66666666666667</ele><time>2026-04-09T08:26:02.963Z</time></trkpt><trkpt lat="44.3727617" lon="11.253655"><ele>121.0</ele><time>2026-04-09T08:26:03.963Z</time></trkpt><trkpt lat="44.3729317" lon="11.2535233"><ele>122.66666666666667</ele><time>2026-04-09T08:26:04.963Z</time></trkpt><trkpt lat="44.3731033" lon="11.2533967"><ele>124.33333333333334</ele><time>2026-04-09T08:26:05.963Z</time></trkpt><trkpt lat="44.37328" lon="11.2532767"><ele>126.0</ele><time>2026-04-09T08:26:06.963Z</time></trkpt><trkpt lat="44.373455" lon="11.2531567"><ele>123.33333333333334</ele><time>2026-04-09T08:26:07.963Z</time></trkpt><trkpt lat="44.3736333" lon="11.25306"><ele>120.66666666666667</ele><time>2026-04-09T08:26:08.963Z</time></trkpt><trkpt lat="44.373815" lon="11.25297"><ele>118.0</ele><time>2026-04-09T08:26:09.963Z</time></trkpt><trkpt lat="44.3739983" lon="11.25289"><ele>118.0</ele><time>2026-04-09T08:26:10.963Z</time></trkpt><trkpt lat="44.3741817" lon="11.2528283"><ele>118.0</ele><time>2026-04-09T08:26:11.963Z</time></trkpt><trkpt lat="44.3743683" lon="11.2527683"><ele>118.0</ele><time>2026-04-09T08:26:12.963Z</time></trkpt><trkpt lat="44.3745583" lon="11.2527267"><ele>120.0</ele><time>2026-04-09T08:26:13.963Z</time></trkpt><trkpt lat="44.37475" lon="11.2526867"><ele>122.0</ele><time>2026-04-09T08:26:14.963Z</time></trkpt><trkpt lat="44.3749433" lon="11.25266"><ele>124.0</ele><time>2026-04-09T08:26:15.963Z</time></trkpt><trkpt lat="44.3751317" lon="11.2526433"><ele>124.0</ele><time>2026-04-09T08:26:16.963Z</time></trkpt><trkpt lat="44.3753183" lon="11.252645"><ele>124.0</ele><time>2026-04-09T08:26:17.963Z</time></trkpt><trkpt lat="44.37551" lon="11.2526567"><ele>124.0</ele><time>2026-04-09T08:26:18.963Z</time></trkpt><trkpt lat="44.3756967" lon="11.2526633"><ele>123.66666666666667</ele><time>2026-04-09T08:26:19.963Z</time></trkpt><trkpt lat="44.37589" lon="11.25267"><ele>123.33333333333334</ele><time>2026-04-09T08:26:20.963Z</time></trkpt><trkpt lat="44.3760783" lon="11.2526733"><ele>123.0</ele><time>2026-04-09T08:26:21.963Z</time></trkpt><trkpt lat="44.3762633" lon="11.252685"><ele>122.0</ele><time>2026-04-09T08:26:22.963Z</time></trkpt><trkpt lat="44.3764483" lon="11.2526967"><ele>121.0</ele><time>2026-04-09T08:26:23.963Z</time></trkpt><trkpt lat="44.3766267" lon="11.252695"><ele>120.0</ele><time>2026-04-09T08:26:24.964Z</time></trkpt><trkpt lat="44.3768083" lon="11.2526933"><ele>120.0</ele><time>2026-04-09T08:26:25.963Z</time></trkpt><trkpt lat="44.3769967" lon="11.252675"><ele>120.0</ele><time>2026-04-09T08:26:26.963Z</time></trkpt><trkpt lat="44.377185" lon="11.2526433"><ele>120.0</ele><time>2026-04-09T08:26:27.963Z</time></trkpt><trkpt lat="44.3773683" lon="11.2525967"><ele>120.33333333333334</ele><time>2026-04-09T08:26:28.963Z</time></trkpt><trkpt lat="44.3775533" lon="11.25252"><ele>120.66666666666667</ele><time>2026-04-09T08:26:29.964Z</time></trkpt><trkpt lat="44.37774" lon="11.2524517"><ele>121.0</ele><time>2026-04-09T08:26:30.964Z</time></trkpt><trkpt lat="44.3779233" lon="11.252365"><ele>119.33333333333334</ele><time>2026-04-09T08:26:31.964Z</time></trkpt><trkpt lat="44.3781067" lon="11.2522767"><ele>117.66666666666666</ele><time>2026-04-09T08:26:32.963Z</time></trkpt><trkpt lat="44.3782933" lon="11.252185"><ele>116.0</ele><time>2026-04-09T08:26:33.963Z</time></trkpt><trkpt lat="44.3784783" lon="11.252095"><ele>116.0</ele><time>2026-04-09T08:26:34.963Z</time></trkpt><trkpt lat="44.3786667" lon="11.2520167"><ele>116.0</ele><time>2026-04-09T08:26:35.963Z</time></trkpt><trkpt lat="44.3788517" lon="11.2519283"><ele>116.0</ele><time>2026-04-09T08:26:36.963Z</time></trkpt><trkpt lat="44.3790267" lon="11.25184"><ele>119.0</ele><time>2026-04-09T08:26:37.963Z</time></trkpt><trkpt lat="44.37921" lon="11.2517717"><ele>122.0</ele><time>2026-04-09T08:26:38.963Z</time></trkpt><trkpt lat="44.3793933" lon="11.2517017"><ele>125.0</ele><time>2026-04-09T08:26:39.963Z</time></trkpt><trkpt lat="44.379575" lon="11.2516467"><ele>126.66666666666666</ele><time>2026-04-09T08:26:40.963Z</time></trkpt><trkpt lat="44.3797633" lon="11.2516183"><ele>128.33333333333334</ele><time>2026-04-09T08:26:41.963Z</time></trkpt><trkpt lat="44.3799483" lon="11.2515867"><ele>130.0</ele><time>2026-04-09T08:26:42.963Z</time></trkpt><trkpt lat="44.3801333" lon="11.251555"><ele>130.0</ele><time>2026-04-09T08:26:43.963Z</time></trkpt><trkpt lat="44.380325" lon="11.2515133"><ele>130.0</ele><time>2026-04-09T08:26:44.964Z</time></trkpt><trkpt lat="44.3805117" lon="11.251475"><ele>130.0</ele><time>2026-04-09T08:26:45.963Z</time></trkpt><trkpt lat="44.380695" lon="11.251445"><ele>123.66666666666667</ele><time>2026-04-09T08:26:46.963Z</time></trkpt><trkpt lat="44.380875" lon="11.2514133"><ele>117.33333333333334</ele><time>2026-04-09T08:26:47.963Z</time></trkpt><trkpt lat="44.3810533" lon="11.251365"><ele>111.0</ele><time>2026-04-09T08:26:48.963Z</time></trkpt><trkpt lat="44.38123" lon="11.25131"><ele>111.66666666666666</ele><time>2026-04-09T08:26:49.963Z</time></trkpt><trkpt lat="44.3814133" lon="11.2512633"><ele>112.33333333333333</ele><time>2026-04-09T08:26:50.963Z</time></trkpt><trkpt lat="44.3815983" lon="11.25119"><ele>113.0</ele><time>2026-04-09T08:26:51.964Z</time></trkpt><trkpt lat="44.3817867" lon="11.251105"><ele>113.0</ele><time>2026-04-09T08:26:52.963Z</time></trkpt><trkpt lat="44.3819733" lon="11.251005"><ele>113.0</ele><time>2026-04-09T08:26:53.964Z</time></trkpt><trkpt lat="44.38216" lon="11.2508967"><ele>113.0</ele><time>2026-04-09T08:26:54.963Z</time></trkpt><trkpt lat="44.382345" lon="11.2507783"><ele>112.66666666666666</ele><time>2026-04-09T08:26:55.963Z</time></trkpt><trkpt lat="44.38252" lon="11.2506433"><ele>112.33333333333334</ele><time>2026-04-09T08:26:56.963Z</time></trkpt><trkpt lat="44.3826917" lon="11.2504983"><ele>112.0</ele><time>2026-04-09T08:26:57.963Z</time></trkpt><trkpt lat="44.382865" lon="11.2503567"><ele>116.33333333333334</ele><time>2026-04-09T08:26:58.963Z</time></trkpt><trkpt lat="44.3830417" lon="11.2502167"><ele>120.66666666666666</ele><time>2026-04-09T08:26:59.963Z</time></trkpt><trkpt lat="44.38322" lon="11.250085"><ele>125.0</ele><time>2026-04-09T08:27:00.964Z</time></trkpt><trkpt lat="44.3833967" lon="11.2499417"><ele>125.0</ele><time>2026-04-09T08:27:01.963Z</time></trkpt><trkpt lat="44.3835733" lon="11.2497933"><ele>125.0</ele><time>2026-04-09T08:27:02.963Z</time></trkpt><trkpt lat="44.3837517" lon="11.2496433"><ele>125.0</ele><time>2026-04-09T08:27:03.963Z</time></trkpt><trkpt lat="44.3839217" lon="11.249505"><ele>123.33333333333333</ele><time>2026-04-09T08:27:04.963Z</time></trkpt><trkpt lat="44.3840933" lon="11.2493683"><ele>121.66666666666666</ele><time>2026-04-09T08:27:05.963Z</time></trkpt><trkpt lat="44.3842717" lon="11.2492317"><ele>120.0</ele><time>2026-04-09T08:27:06.964Z</time></trkpt><trkpt lat="44.3844433" lon="11.249095"><ele>117.33333333333334</ele><time>2026-04-09T08:27:07.963Z</time></trkpt><trkpt lat="44.38461" lon="11.248955"><ele>114.66666666666667</ele><time>2026-04-09T08:27:08.963Z</time></trkpt><trkpt lat="44.384775" lon="11.248835"><ele>112.0</ele><time>2026-04-09T08:27:09.963Z</time></trkpt><trkpt lat="44.384945" lon="11.248735"><ele>112.0</ele><time>2026-04-09T08:27:10.963Z</time></trkpt><trkpt lat="44.3851083" lon="11.2486433"><ele>112.0</ele><time>2026-04-09T08:27:11.963Z</time></trkpt><trkpt lat="44.3852617" lon="11.2485717"><ele>112.0</ele><time>2026-04-09T08:27:12.963Z</time></trkpt><trkpt lat="44.385415" lon="11.24851"><ele>115.33333333333334</ele><time>2026-04-09T08:27:13.963Z</time></trkpt><trkpt lat="44.3855717" lon="11.24846"><ele>118.66666666666666</ele><time>2026-04-09T08:27:14.964Z</time></trkpt><trkpt lat="44.3857317" lon="11.24842"><ele>122.0</ele><time>2026-04-09T08:27:15.963Z</time></trkpt><trkpt lat="44.3859017" lon="11.2484017"><ele>122.0</ele><time>2026-04-09T08:27:16.964Z</time></trkpt><trkpt lat="44.3860767" lon="11.2483967"><ele>122.0</ele><time>2026-04-09T08:27:17.963Z</time></trkpt><trkpt lat="44.38624" lon="11.2484017"><ele>122.0</ele><time>2026-04-09T08:27:18.963Z</time></trkpt><trkpt lat="44.3864033" lon="11.248405"><ele>122.66666666666666</ele><time>2026-04-09T08:27:19.963Z</time></trkpt><trkpt lat="44.3865683" lon="11.2484183"><ele>123.33333333333334</ele><time>2026-04-09T08:27:20.963Z</time></trkpt><trkpt lat="44.3867367" lon="11.2484467"><ele>124.0</ele><time>2026-04-09T08:27:21.963Z</time></trkpt><trkpt lat="44.3869083" lon="11.2484867"><ele>124.0</ele><time>2026-04-09T08:27:22.963Z</time></trkpt><trkpt lat="44.38708" lon="11.2485517"><ele>124.0</ele><time>2026-04-09T08:27:23.963Z</time></trkpt><trkpt lat="44.3872483" lon="11.2486167"><ele>124.0</ele><time>2026-04-09T08:27:24.963Z</time></trkpt><trkpt lat="44.38741" lon="11.2486967"><ele>123.33333333333334</ele><time>2026-04-09T08:27:25.963Z</time></trkpt><trkpt lat="44.38757" lon="11.248785"><ele>122.66666666666666</ele><time>2026-04-09T08:27:26.963Z</time></trkpt><trkpt lat="44.3877167" lon="11.2488867"><ele>122.0</ele><time>2026-04-09T08:27:27.963Z</time></trkpt><trkpt lat="44.3878483" lon="11.2489933"><ele>122.0</ele><time>2026-04-09T08:27:28.964Z</time></trkpt><trkpt lat="44.38797" lon="11.2491033"><ele>122.0</ele><time>2026-04-09T08:27:29.963Z</time></trkpt><trkpt lat="44.38808" lon="11.249215"><ele>122.0</ele><time>2026-04-09T08:27:30.963Z</time></trkpt><trkpt lat="44.3881817" lon="11.2493283"><ele>122.0</ele><time>2026-04-09T08:27:31.964Z</time></trkpt><trkpt lat="44.3882817" lon="11.249445"><ele>121.75</ele><time>2026-04-09T08:27:32.963Z</time></trkpt><trkpt lat="44.38837" lon="11.24956"><ele>121.5</ele><time>2026-04-09T08:27:33.963Z</time></trkpt><trkpt lat="44.3884583" lon="11.2496783"><ele>121.25</ele><time>2026-04-09T08:27:34.963Z</time></trkpt><trkpt lat="44.3885417" lon="11.24979"><ele>121.0</ele><time>2026-04-09T08:27:35.963Z</time></trkpt><trkpt lat="44.3886183" lon="11.2498983"><ele>121.00000000000001</ele><time>2026-04-09T08:27:36.964Z</time></trkpt><trkpt lat="44.388695" lon="11.2499967"><ele>121.0</ele><time>2026-04-09T08:27:37.963Z</time></trkpt><trkpt lat="44.3887733" lon="11.2500867"><ele>121.0</ele><time>2026-04-09T08:27:38.963Z</time></trkpt><trkpt lat="44.3888383" lon="11.250165"><ele>121.0</ele><time>2026-04-09T08:27:39.963Z</time></trkpt><trkpt lat="44.3888933" lon="11.25023"><ele>121.00000000000001</ele><time>2026-04-09T08:27:40.963Z</time></trkpt><trkpt lat="44.3889467" lon="11.2502933"><ele>121.0</ele><time>2026-04-09T08:27:41.963Z</time></trkpt><trkpt lat="44.3889883" lon="11.2503617"><ele>121.0</ele><time>2026-04-09T08:27:42.963Z</time></trkpt><trkpt lat="44.3890283" lon="11.2504317"><ele>120.99999999999999</ele><time>2026-04-09T08:27:43.963Z</time></trkpt><trkpt lat="44.38907" lon="11.25051"><ele>121.0</ele><time>2026-04-09T08:27:44.963Z</time></trkpt><trkpt lat="44.3891233" lon="11.2505667"><ele>121.0</ele><time>2026-04-09T08:27:45.963Z</time></trkpt><trkpt lat="44.389185" lon="11.2506017"><ele>120.99999999999999</ele><time>2026-04-09T08:27:46.963Z</time></trkpt><trkpt lat="44.389255" lon="11.2505983"><ele>121.0</ele><time>2026-04-09T08:27:47.963Z</time></trkpt><trkpt lat="44.3893233" lon="11.2505583"><ele>121.0</ele><time>2026-04-09T08:27:48.963Z</time></trkpt><trkpt lat="44.3893717" lon="11.250485"><ele>121.0</ele><time>2026-04-09T08:27:49.964Z</time></trkpt><trkpt lat="44.3893933" lon="11.2503833"><ele>121.0</ele><time>2026-04-09T08:27:50.964Z</time></trkpt><trkpt lat="44.3893833" lon="11.2502633"><ele>121.0</ele><time>2026-04-09T08:27:51.963Z</time></trkpt><trkpt lat="44.389355" lon="11.25014"><ele>121.0</ele><time>2026-04-09T08:27:52.964Z</time></trkpt><trkpt lat="44.38932" lon="11.25001"><ele>121.0</ele><time>2026-04-09T08:27:53.963Z</time></trkpt><trkpt lat="44.3892933" lon="11.2498667"><ele>120.75</ele><time>2026-04-09T08:27:54.963Z</time></trkpt><trkpt lat="44.3892767" lon="11.2497033"><ele>120.5</ele><time>2026-04-09T08:27:55.963Z</time></trkpt><trkpt lat="44.3892633" lon="11.249535"><ele>120.25</ele><time>2026-04-09T08:27:56.963Z</time></trkpt><trkpt lat="44.3892333" lon="11.2493583"><ele>120.0</ele><time>2026-04-09T08:27:57.963Z</time></trkpt><trkpt lat="44.38919" lon="11.2491817"><ele>120.0</ele><time>2026-04-09T08:27:58.963Z</time></trkpt><trkpt lat="44.3891367" lon="11.2490117"><ele>120.0</ele><time>2026-04-09T08:27:59.963Z</time></trkpt><trkpt lat="44.3890767" lon="11.2488467"><ele>120.0</ele><time>2026-04-09T08:28:00.964Z</time></trkpt><trkpt lat="44.3889967" lon="11.2486733"><ele>120.0</ele><time>2026-04-09T08:28:01.963Z</time></trkpt><trkpt lat="44.3889233" lon="11.2485133"><ele>120.25</ele><time>2026-04-09T08:28:02.963Z</time></trkpt><trkpt lat="44.38885" lon="11.2483583"><ele>120.5</ele><time>2026-04-09T08:28:03.963Z</time></trkpt><trkpt lat="44.3887817" lon="11.2482183"><ele>120.75</ele><time>2026-04-09T08:28:04.963Z</time></trkpt><trkpt lat="44.38872" lon="11.2480983"><ele>121.0</ele><time>2026-04-09T08:28:05.963Z</time></trkpt><trkpt lat="44.38866" lon="11.2479917"><ele>121.00000000000001</ele><time>2026-04-09T08:28:06.963Z</time></trkpt><trkpt lat="44.3886067" lon="11.2478967"><ele>121.0</ele><time>2026-04-09T08:28:07.963Z</time></trkpt><trkpt lat="44.3885617" lon="11.2478133"><ele>121.0</ele><time>2026-04-09T08:28:08.964Z</time></trkpt><trkpt lat="44.388525" lon="11.2477333"><ele>121.0</ele><time>2026-04-09T08:28:09.963Z</time></trkpt><trkpt lat="44.3884767" lon="11.2475883"><ele>121.00000000000001</ele><time>2026-04-09T08:28:11.963Z</time></trkpt><trkpt lat="44.388475" lon="11.2475"><ele>121.0</ele><time>2026-04-09T08:28:12.963Z</time></trkpt><trkpt lat="44.3884667" lon="11.2474033"><ele>119.19999999999999</ele><time>2026-04-09T08:28:13.963Z</time></trkpt><trkpt lat="44.3884917" lon="11.2472317"><ele>117.39999999999999</ele><time>2026-04-09T08:28:15.963Z</time></trkpt><trkpt lat="44.38853" lon="11.24716"><ele>115.6</ele><time>2026-04-09T08:28:16.963Z</time></trkpt><trkpt lat="44.3885883" lon="11.2471067"><ele>113.8</ele><time>2026-04-09T08:28:17.963Z</time></trkpt><trkpt lat="44.3886683" lon="11.2470583"><ele>112.0</ele><time>2026-04-09T08:28:18.963Z</time></trkpt><trkpt lat="44.3887683" lon="11.2470117"><ele>109.8</ele><time>2026-04-09T08:28:19.963Z</time></trkpt><trkpt lat="44.38887" lon="11.2469633"><ele>107.6</ele><time>2026-04-09T08:28:20.963Z</time></trkpt><trkpt lat="44.38897" lon="11.2469183"><ele>105.39999999999999</ele><time>2026-04-09T08:28:21.963Z</time></trkpt><trkpt lat="44.3890617" lon="11.2468783"><ele>103.19999999999999</ele><time>2026-04-09T08:28:22.963Z</time></trkpt><trkpt lat="44.3891483" lon="11.2468383"><ele>101.0</ele><time>2026-04-09T08:28:23.963Z</time></trkpt><trkpt lat="44.389235" lon="11.2468017"><ele>101.0</ele><time>2026-04-09T08:28:24.963Z</time></trkpt><trkpt lat="44.3893233" lon="11.2467633"><ele>101.0</ele><time>2026-04-09T08:28:25.964Z</time></trkpt><trkpt lat="44.3894083" lon="11.2467183"><ele>101.0</ele><time>2026-04-09T08:28:26.963Z</time></trkpt><trkpt lat="44.389495" lon="11.24668"><ele>101.0</ele><time>2026-04-09T08:28:27.963Z</time></trkpt><trkpt lat="44.389585" lon="11.2466383"><ele>101.0</ele><time>2026-04-09T08:28:28.963Z</time></trkpt><trkpt lat="44.3896733" lon="11.2465967"><ele>100.33333333333333</ele><time>2026-04-09T08:28:29.963Z</time></trkpt><trkpt lat="44.38976" lon="11.2465517"><ele>99.66666666666666</ele><time>2026-04-09T08:28:30.963Z</time></trkpt><trkpt lat="44.389845" lon="11.2465133"><ele>99.0</ele><time>2026-04-09T08:28:31.963Z</time></trkpt><trkpt lat="44.3899317" lon="11.2464733"><ele>98.33333333333334</ele><time>2026-04-09T08:28:32.964Z</time></trkpt><trkpt lat="44.3900117" lon="11.246435"><ele>97.66666666666667</ele><time>2026-04-09T08:28:33.962Z</time></trkpt><trkpt lat="44.3900883" lon="11.2463983"><ele>97.0</ele><time>2026-04-09T08:28:34.962Z</time></trkpt><trkpt lat="44.3901667" lon="11.246365"><ele>99.33333333333334</ele><time>2026-04-09T08:28:35.963Z</time></trkpt><trkpt lat="44.3902433" lon="11.246325"><ele>101.66666666666667</ele><time>2026-04-09T08:28:36.962Z</time></trkpt><trkpt lat="44.3903217" lon="11.2462833"><ele>104.0</ele><time>2026-04-09T08:28:37.962Z</time></trkpt><trkpt lat="44.390395" lon="11.2462517"><ele>106.33333333333334</ele><time>2026-04-09T08:28:38.962Z</time></trkpt><trkpt lat="44.3904683" lon="11.246225"><ele>108.66666666666667</ele><time>2026-04-09T08:28:39.962Z</time></trkpt><trkpt lat="44.390535" lon="11.2462083"><ele>111.0</ele><time>2026-04-09T08:28:40.963Z</time></trkpt><trkpt lat="44.3906033" lon="11.2462117"><ele>113.42857142857142</ele><time>2026-04-09T08:28:41.962Z</time></trkpt><trkpt lat="44.390675" lon="11.2462133"><ele>115.85714285714286</ele><time>2026-04-09T08:28:42.962Z</time></trkpt><trkpt lat="44.39075" lon="11.246215"><ele>118.28571428571428</ele><time>2026-04-09T08:28:43.962Z</time></trkpt><trkpt lat="44.3908217" lon="11.2462183"><ele>120.71428571428571</ele><time>2026-04-09T08:28:44.962Z</time></trkpt><trkpt lat="44.39089" lon="11.2462117"><ele>123.14285714285714</ele><time>2026-04-09T08:28:45.962Z</time></trkpt><trkpt lat="44.3909517" lon="11.2461717"><ele>125.57142857142857</ele><time>2026-04-09T08:28:46.963Z</time></trkpt><trkpt lat="44.3910067" lon="11.2461217"><ele>128.0</ele><time>2026-04-09T08:28:47.962Z</time></trkpt><trkpt lat="44.3910467" lon="11.2460467"><ele>128.0</ele><time>2026-04-09T08:28:48.962Z</time></trkpt><trkpt lat="44.3910583" lon="11.2458767"><ele>128.0</ele><time>2026-04-09T08:28:50.962Z</time></trkpt><trkpt lat="44.3910267" lon="11.24579"><ele>128.0</ele><time>2026-04-09T08:28:51.962Z</time></trkpt><trkpt lat="44.3909583" lon="11.2457033"><ele>128.0</ele><time>2026-04-09T08:28:52.962Z</time></trkpt><trkpt lat="44.3908633" lon="11.2456383"><ele>128.0</ele><time>2026-04-09T08:28:53.962Z</time></trkpt><trkpt lat="44.39073" lon="11.2455867"><ele>127.5</ele><time>2026-04-09T08:28:54.962Z</time></trkpt><trkpt lat="44.3905983" lon="11.245535"><ele>127.0</ele><time>2026-04-09T08:28:55.962Z</time></trkpt><trkpt lat="44.390485" lon="11.2454867"><ele>126.5</ele><time>2026-04-09T08:28:56.962Z</time></trkpt><trkpt lat="44.3903767" lon="11.2454433"><ele>126.0</ele><time>2026-04-09T08:28:57.962Z</time></trkpt><trkpt lat="44.390275" lon="11.245395"><ele>125.33333333333333</ele><time>2026-04-09T08:28:58.962Z</time></trkpt><trkpt lat="44.390185" lon="11.24535"><ele>124.66666666666666</ele><time>2026-04-09T08:28:59.962Z</time></trkpt><trkpt lat="44.3900933" lon="11.2453167"><ele>124.0</ele><time>2026-04-09T08:29:00.963Z</time></trkpt><trkpt lat="44.390015" lon="11.24528"><ele>123.33333333333333</ele><time>2026-04-09T08:29:01.962Z</time></trkpt><trkpt lat="44.38995" lon="11.245255"><ele>122.66666666666666</ele><time>2026-04-09T08:29:02.962Z</time></trkpt><trkpt lat="44.38988" lon="11.24519"><ele>122.0</ele><time>2026-04-09T08:29:04.962Z</time></trkpt><trkpt lat="44.3898767" lon="11.2450933"><ele>122.0</ele><time>2026-04-09T08:29:06.962Z</time></trkpt><trkpt lat="44.389945" lon="11.24498"><ele>121.99999999999999</ele><time>2026-04-09T08:29:08.962Z</time></trkpt><trkpt lat="44.3900417" lon="11.24485"><ele>121.99999999999999</ele><time>2026-04-09T08:29:10.962Z</time></trkpt><trkpt lat="44.3900967" lon="11.24478"><ele>122.0</ele><time>2026-04-09T08:29:11.962Z</time></trkpt><trkpt lat="44.3901567" lon="11.2447117"><ele>122.0</ele><time>2026-04-09T08:29:12.962Z</time></trkpt><trkpt lat="44.3902" lon="11.2446217"><ele>122.33333333333333</ele><time>2026-04-09T08:29:13.962Z</time></trkpt><trkpt lat="44.3902483" lon="11.2445267"><ele>122.66666666666666</ele><time>2026-04-09T08:29:14.962Z</time></trkpt><trkpt lat="44.3903033" lon="11.2444467"><ele>123.0</ele><time>2026-04-09T08:29:15.962Z</time></trkpt><trkpt lat="44.3903683" lon="11.244365"><ele>123.33333333333334</ele><time>2026-04-09T08:29:16.962Z</time></trkpt><trkpt lat="44.3904433" lon="11.2442817"><ele>123.66666666666667</ele><time>2026-04-09T08:29:17.962Z</time></trkpt><trkpt lat="44.3905267" lon="11.2441983"><ele>124.0</ele><time>2026-04-09T08:29:18.962Z</time></trkpt><trkpt lat="44.39061" lon="11.24412"><ele>124.0</ele><time>2026-04-09T08:29:19.963Z</time></trkpt><trkpt lat="44.3906933" lon="11.2440267"><ele>124.0</ele><time>2026-04-09T08:29:20.962Z</time></trkpt><trkpt lat="44.39077" lon="11.24393"><ele>124.0</ele><time>2026-04-09T08:29:21.962Z</time></trkpt><trkpt lat="44.3908467" lon="11.243835"><ele>124.0</ele><time>2026-04-09T08:29:22.962Z</time></trkpt><trkpt lat="44.3909317" lon="11.24376"><ele>124.0</ele><time>2026-04-09T08:29:23.962Z</time></trkpt><trkpt lat="44.3910167" lon="11.24369"><ele>125.4</ele><time>2026-04-09T08:29:24.963Z</time></trkpt><trkpt lat="44.3910967" lon="11.2436017"><ele>126.80000000000001</ele><time>2026-04-09T08:29:25.962Z</time></trkpt><trkpt lat="44.391175" lon="11.2435133"><ele>128.2</ele><time>2026-04-09T08:29:26.963Z</time></trkpt><trkpt lat="44.39125" lon="11.2434267"><ele>129.6</ele><time>2026-04-09T08:29:27.962Z</time></trkpt><trkpt lat="44.39133" lon="11.24334"><ele>131.0</ele><time>2026-04-09T08:29:28.962Z</time></trkpt><trkpt lat="44.3914033" lon="11.2432683"><ele>131.0</ele><time>2026-04-09T08:29:29.962Z</time></trkpt><trkpt lat="44.3914917" lon="11.24322"><ele>131.0</ele><time>2026-04-09T08:29:30.962Z</time></trkpt><trkpt lat="44.3915917" lon="11.2432"><ele>131.0</ele><time>2026-04-09T08:29:31.962Z</time></trkpt><trkpt lat="44.3916933" lon="11.2431967"><ele>131.0</ele><time>2026-04-09T08:29:32.962Z</time></trkpt><trkpt lat="44.391805" lon="11.2432133"><ele>131.0</ele><time>2026-04-09T08:29:33.962Z</time></trkpt><trkpt lat="44.3919167" lon="11.2432383"><ele>131.0</ele><time>2026-04-09T08:29:34.962Z</time></trkpt><trkpt lat="44.39203" lon="11.2432833"><ele>131.0</ele><time>2026-04-09T08:29:35.962Z</time></trkpt><trkpt lat="44.3921383" lon="11.2433367"><ele>131.0</ele><time>2026-04-09T08:29:36.963Z</time></trkpt><trkpt lat="44.3922383" lon="11.2433883"><ele>131.0</ele><time>2026-04-09T08:29:37.962Z</time></trkpt><trkpt lat="44.3923333" lon="11.24345"><ele>131.0</ele><time>2026-04-09T08:29:38.962Z</time></trkpt><trkpt lat="44.3924233" lon="11.243525"><ele>131.4</ele><time>2026-04-09T08:29:39.962Z</time></trkpt><trkpt lat="44.392505" lon="11.243595"><ele>131.8</ele><time>2026-04-09T08:29:40.962Z</time></trkpt><trkpt lat="44.3926" lon="11.2436633"><ele>132.20000000000002</ele><time>2026-04-09T08:29:41.962Z</time></trkpt><trkpt lat="44.3927083" lon="11.2437317"><ele>132.6</ele><time>2026-04-09T08:29:42.962Z</time></trkpt><trkpt lat="44.3928117" lon="11.2437967"><ele>133.0</ele><time>2026-04-09T08:29:43.963Z</time></trkpt><trkpt lat="44.392915" lon="11.2438617"><ele>133.6</ele><time>2026-04-09T08:29:44.962Z</time></trkpt><trkpt lat="44.3930217" lon="11.2439217"><ele>134.20000000000002</ele><time>2026-04-09T08:29:45.962Z</time></trkpt><trkpt lat="44.3931217" lon="11.24399"><ele>134.8</ele><time>2026-04-09T08:29:46.962Z</time></trkpt><trkpt lat="44.3932133" lon="11.24405"><ele>135.4</ele><time>2026-04-09T08:29:47.962Z</time></trkpt><trkpt lat="44.3933" lon="11.2441167"><ele>136.0</ele><time>2026-04-09T08:29:48.963Z</time></trkpt><trkpt lat="44.3933833" lon="11.244185"><ele>136.0</ele><time>2026-04-09T08:29:49.962Z</time></trkpt><trkpt lat="44.3934633" lon="11.24425"><ele>136.0</ele><time>2026-04-09T08:29:50.962Z</time></trkpt><trkpt lat="44.3935333" lon="11.244305"><ele>136.0</ele><time>2026-04-09T08:29:51.962Z</time></trkpt><trkpt lat="44.3936017" lon="11.2443667"><ele>136.0</ele><time>2026-04-09T08:29:52.962Z</time></trkpt><trkpt lat="44.39367" lon="11.2444167"><ele>136.0</ele><time>2026-04-09T08:29:53.963Z</time></trkpt><trkpt lat="44.3937317" lon="11.2444667"><ele>136.0</ele><time>2026-04-09T08:29:54.962Z</time></trkpt><trkpt lat="44.393805" lon="11.244495"><ele>135.83333333333334</ele><time>2026-04-09T08:29:55.962Z</time></trkpt><trkpt lat="44.39391" lon="11.24454"><ele>135.66666666666669</ele><time>2026-04-09T08:29:57.963Z</time></trkpt><trkpt lat="44.393985" lon="11.2445733"><ele>135.5</ele><time>2026-04-09T08:29:59.963Z</time></trkpt><trkpt lat="44.3940783" lon="11.2446233"><ele>135.33333333333334</ele><time>2026-04-09T08:30:02.962Z</time></trkpt><trkpt lat="44.39415" lon="11.2446567"><ele>135.16666666666666</ele><time>2026-04-09T08:30:04.962Z</time></trkpt><trkpt lat="44.39423" lon="11.244685"><ele>135.0</ele><time>2026-04-09T08:30:07.963Z</time></trkpt><trkpt lat="44.394295" lon="11.2447017"><ele>135.0</ele><time>2026-04-09T08:30:10.962Z</time></trkpt><trkpt lat="44.3943667" lon="11.2447283"><ele>135.0</ele><time>2026-04-09T08:30:12.962Z</time></trkpt><trkpt lat="44.39445" lon="11.24478"><ele>135.0</ele><time>2026-04-09T08:30:14.963Z</time></trkpt><trkpt lat="44.3945617" lon="11.2448367"><ele>135.0</ele><time>2026-04-09T08:30:16.962Z</time></trkpt><trkpt lat="44.3946617" lon="11.2448667"><ele>135.0</ele><time>2026-04-09T08:30:18.962Z</time></trkpt><trkpt lat="44.39476" lon="11.2449233"><ele>135.16666666666666</ele><time>2026-04-09T08:30:20.963Z</time></trkpt><trkpt lat="44.39482" lon="11.244965"><ele>135.33333333333334</ele><time>2026-04-09T08:30:21.962Z</time></trkpt><trkpt lat="44.39488" lon="11.244995"><ele>135.5</ele><time>2026-04-09T08:30:22.962Z</time></trkpt><trkpt lat="44.3949967" lon="11.2450233"><ele>135.66666666666669</ele><time>2026-04-09T08:30:24.962Z</time></trkpt><trkpt lat="44.3950633" lon="11.2450283"><ele>135.83333333333334</ele><time>2026-04-09T08:30:26.962Z</time></trkpt><trkpt lat="44.3951267" lon="11.2450267"><ele>136.0</ele><time>2026-04-09T08:30:30.962Z</time></trkpt><trkpt lat="44.3952183" lon="11.2450667"><ele>136.0</ele><time>2026-04-09T08:30:33.962Z</time></trkpt><trkpt lat="44.3953183" lon="11.245085"><ele>136.0</ele><time>2026-04-09T08:30:35.962Z</time></trkpt><trkpt lat="44.3954217" lon="11.2451533"><ele>136.0</ele><time>2026-04-09T08:30:37.962Z</time></trkpt><trkpt lat="44.395485" lon="11.24518"><ele>136.0</ele><time>2026-04-09T08:30:38.962Z</time></trkpt><trkpt lat="44.3955917" lon="11.2452267"><ele>136.0</ele><time>2026-04-09T08:30:40.963Z</time></trkpt><trkpt lat="44.3957183" lon="11.2452583"><ele>136.0</ele><time>2026-04-09T08:30:42.963Z</time></trkpt><trkpt lat="44.39582" lon="11.2452883"><ele>136.0</ele><time>2026-04-09T08:30:44.962Z</time></trkpt><trkpt lat="44.3958983" lon="11.24532"><ele>136.0</ele><time>2026-04-09T08:30:46.962Z</time></trkpt><trkpt lat="44.3959583" lon="11.2453683"><ele>136.0</ele><time>2026-04-09T08:30:49.962Z</time></trkpt><trkpt lat="44.3960233" lon="11.24538"><ele>136.0</ele><time>2026-04-09T08:30:52.962Z</time></trkpt><trkpt lat="44.3960867" lon="11.2451883"><ele>136.0</ele><time>2026-04-09T08:31:34.962Z</time></trkpt><trkpt lat="44.3961543" lon="11.2451659"><ele>136.0</ele><time>2026-04-09T08:36:51.017Z</time></trkpt><trkpt lat="44.3960133" lon="11.2453317"><ele>136.0</ele><time>2026-04-09T08:51:45.956Z</time></trkpt><trkpt lat="44.3959133" lon="11.24531"><ele>136.0</ele><time>2026-04-09T08:51:48.957Z</time></trkpt><trkpt lat="44.3958367" lon="11.245235"><ele>136.0</ele><time>2026-04-09T08:51:50.956Z</time></trkpt><trkpt lat="44.395735" lon="11.2451817"><ele>136.0</ele><time>2026-04-09T08:51:52.956Z</time></trkpt><trkpt lat="44.3956733" lon="11.2451633"><ele>136.0</ele><time>2026-04-09T08:51:53.957Z</time></trkpt><trkpt lat="44.395555" lon="11.2451383"><ele>136.0</ele><time>2026-04-09T08:51:55.957Z</time></trkpt><trkpt lat="44.3954617" lon="11.2451033"><ele>136.0</ele><time>2026-04-09T08:51:57.956Z</time></trkpt><trkpt lat="44.3954" lon="11.2450817"><ele>136.0</ele><time>2026-04-09T08:51:59.956Z</time></trkpt><trkpt lat="44.3953817" lon="11.244935"><ele>136.0</ele><time>2026-04-09T08:52:02.956Z</time></trkpt><trkpt lat="44.3954367" lon="11.2447483"><ele>136.33333333333334</ele><time>2026-04-09T08:52:04.956Z</time></trkpt><trkpt lat="44.3954767" lon="11.244635"><ele>136.66666666666669</ele><time>2026-04-09T08:52:05.956Z</time></trkpt><trkpt lat="44.3955117" lon="11.24453"><ele>137.0</ele><time>2026-04-09T08:52:06.956Z</time></trkpt><trkpt lat="44.3955467" lon="11.2444183"><ele>137.33333333333334</ele><time>2026-04-09T08:52:07.956Z</time></trkpt><trkpt lat="44.395575" lon="11.244305"><ele>137.66666666666666</ele><time>2026-04-09T08:52:08.956Z</time></trkpt><trkpt lat="44.39559" lon="11.24419"><ele>138.0</ele><time>2026-04-09T08:52:09.956Z</time></trkpt><trkpt lat="44.395605" lon="11.2440817"><ele>138.16666666666666</ele><time>2026-04-09T08:52:10.956Z</time></trkpt><trkpt lat="44.3956283" lon="11.243965"><ele>138.33333333333334</ele><time>2026-04-09T08:52:12.956Z</time></trkpt><trkpt lat="44.3956433" lon="11.243865"><ele>138.5</ele><time>2026-04-09T08:52:13.956Z</time></trkpt><trkpt lat="44.3956417" lon="11.24373"><ele>138.66666666666669</ele><time>2026-04-09T08:52:15.957Z</time></trkpt><trkpt lat="44.3955817" lon="11.2436667"><ele>138.83333333333334</ele><time>2026-04-09T08:52:17.956Z</time></trkpt><trkpt lat="44.3955" lon="11.243605"><ele>139.0</ele><time>2026-04-09T08:52:19.956Z</time></trkpt><trkpt lat="44.3953917" lon="11.2435717"><ele>139.6</ele><time>2026-04-09T08:52:21.956Z</time></trkpt><trkpt lat="44.39532" lon="11.24356"><ele>140.2</ele><time>2026-04-09T08:52:22.956Z</time></trkpt><trkpt lat="44.3952567" lon="11.2435467"><ele>140.79999999999998</ele><time>2026-04-09T08:52:23.956Z</time></trkpt><trkpt lat="44.395145" lon="11.243515"><ele>141.4</ele><time>2026-04-09T08:52:25.956Z</time></trkpt><trkpt lat="44.3950183" lon="11.2434733"><ele>142.0</ele><time>2026-04-09T08:52:27.956Z</time></trkpt><trkpt lat="44.3949467" lon="11.2434633"><ele>142.0</ele><time>2026-04-09T08:52:28.957Z</time></trkpt><trkpt lat="44.3948717" lon="11.2434517"><ele>142.0</ele><time>2026-04-09T08:52:29.956Z</time></trkpt><trkpt lat="44.3948" lon="11.2434333"><ele>142.0</ele><time>2026-04-09T08:52:30.956Z</time></trkpt><trkpt lat="44.3947183" lon="11.243415"><ele>142.0</ele><time>2026-04-09T08:52:31.956Z</time></trkpt><trkpt lat="44.3946383" lon="11.2434067"><ele>142.0</ele><time>2026-04-09T08:52:32.956Z</time></trkpt><trkpt lat="44.3945717" lon="11.2433883"><ele>142.0</ele><time>2026-04-09T08:52:33.956Z</time></trkpt><trkpt lat="44.3944833" lon="11.2433683"><ele>141.33333333333334</ele><time>2026-04-09T08:52:35.957Z</time></trkpt><trkpt lat="44.3944167" lon="11.2433517"><ele>140.66666666666669</ele><time>2026-04-09T08:52:38.956Z</time></trkpt><trkpt lat="44.3943633" lon="11.2434183"><ele>140.0</ele><time>2026-04-09T08:52:41.956Z</time></trkpt><trkpt lat="44.3943383" lon="11.2435583"><ele>139.33333333333334</ele><time>2026-04-09T08:52:43.956Z</time></trkpt><trkpt lat="44.3943083" lon="11.2437317"><ele>138.66666666666666</ele><time>2026-04-09T08:52:45.956Z</time></trkpt><trkpt lat="44.3942917" lon="11.2438267"><ele>138.0</ele><time>2026-04-09T08:52:46.956Z</time></trkpt><trkpt lat="44.394265" lon="11.2439967"><ele>137.5</ele><time>2026-04-09T08:52:48.956Z</time></trkpt><trkpt lat="44.3942533" lon="11.244085"><ele>137.0</ele><time>2026-04-09T08:52:49.957Z</time></trkpt><trkpt lat="44.3942317" lon="11.2442383"><ele>136.5</ele><time>2026-04-09T08:52:51.956Z</time></trkpt><trkpt lat="44.3942183" lon="11.244325"><ele>136.0</ele><time>2026-04-09T08:52:52.956Z</time></trkpt><trkpt lat="44.3942" lon="11.2444567"><ele>135.5</ele><time>2026-04-09T08:52:54.956Z</time></trkpt><trkpt lat="44.3941767" lon="11.244555"><ele>135.0</ele><time>2026-04-09T08:52:56.957Z</time></trkpt><trkpt lat="44.3941133" lon="11.2446233"><ele>135.0</ele><time>2026-04-09T08:52:59.957Z</time></trkpt><trkpt lat="44.39403" lon="11.24462"><ele>135.0</ele><time>2026-04-09T08:53:01.956Z</time></trkpt><trkpt lat="44.3939417" lon="11.2445867"><ele>135.0</ele><time>2026-04-09T08:53:03.957Z</time></trkpt><trkpt lat="44.393835" lon="11.2445283"><ele>135.0</ele><time>2026-04-09T08:53:05.956Z</time></trkpt><trkpt lat="44.39377" lon="11.2444933"><ele>135.0</ele><time>2026-04-09T08:53:06.956Z</time></trkpt><trkpt lat="44.3937117" lon="11.2444433"><ele>135.0</ele><time>2026-04-09T08:53:07.956Z</time></trkpt><trkpt lat="44.39365" lon="11.2443967"><ele>135.16666666666666</ele><time>2026-04-09T08:53:08.956Z</time></trkpt><trkpt lat="44.3935817" lon="11.2443533"><ele>135.33333333333334</ele><time>2026-04-09T08:53:09.956Z</time></trkpt><trkpt lat="44.3935167" lon="11.2443067"><ele>135.5</ele><time>2026-04-09T08:53:10.956Z</time></trkpt><trkpt lat="44.39344" lon="11.2442483"><ele>135.66666666666669</ele><time>2026-04-09T08:53:11.956Z</time></trkpt><trkpt lat="44.3933533" lon="11.244185"><ele>135.83333333333334</ele><time>2026-04-09T08:53:12.956Z</time></trkpt><trkpt lat="44.39326" lon="11.2441217"><ele>136.0</ele><time>2026-04-09T08:53:13.956Z</time></trkpt><trkpt lat="44.3931567" lon="11.24404"><ele>136.0</ele><time>2026-04-09T08:53:14.956Z</time></trkpt><trkpt lat="44.3930433" lon="11.2439517"><ele>136.0</ele><time>2026-04-09T08:53:15.956Z</time></trkpt><trkpt lat="44.392925" lon="11.2438567"><ele>136.0</ele><time>2026-04-09T08:53:16.957Z</time></trkpt><trkpt lat="44.3928083" lon="11.243765"><ele>136.0</ele><time>2026-04-09T08:53:17.956Z</time></trkpt><trkpt lat="44.3926817" lon="11.24367"><ele>135.25</ele><time>2026-04-09T08:53:18.956Z</time></trkpt><trkpt lat="44.3925567" lon="11.2435883"><ele>134.5</ele><time>2026-04-09T08:53:19.956Z</time></trkpt><trkpt lat="44.39243" lon="11.2434983"><ele>133.75</ele><time>2026-04-09T08:53:20.956Z</time></trkpt><trkpt lat="44.3923117" lon="11.24341"><ele>133.0</ele><time>2026-04-09T08:53:21.957Z</time></trkpt><trkpt lat="44.3921933" lon="11.243325"><ele>132.5</ele><time>2026-04-09T08:53:22.956Z</time></trkpt><trkpt lat="44.3920667" lon="11.2432733"><ele>132.0</ele><time>2026-04-09T08:53:23.956Z</time></trkpt><trkpt lat="44.39194" lon="11.24324"><ele>131.5</ele><time>2026-04-09T08:53:24.956Z</time></trkpt><trkpt lat="44.3918167" lon="11.2432167"><ele>131.0</ele><time>2026-04-09T08:53:25.957Z</time></trkpt><trkpt lat="44.3916917" lon="11.2432067"><ele>131.0</ele><time>2026-04-09T08:53:26.955Z</time></trkpt><trkpt lat="44.3915783" lon="11.2432033"><ele>131.0</ele><time>2026-04-09T08:53:27.955Z</time></trkpt><trkpt lat="44.3914633" lon="11.2432267"><ele>131.0</ele><time>2026-04-09T08:53:28.955Z</time></trkpt><trkpt lat="44.3913417" lon="11.2432733"><ele>131.0</ele><time>2026-04-09T08:53:29.955Z</time></trkpt><trkpt lat="44.3912317" lon="11.2433867"><ele>135.75</ele><time>2026-04-09T08:53:30.955Z</time></trkpt><trkpt lat="44.3911233" lon="11.2435017"><ele>140.5</ele><time>2026-04-09T08:53:31.955Z</time></trkpt><trkpt lat="44.3910167" lon="11.24363"><ele>145.25</ele><time>2026-04-09T08:53:32.955Z</time></trkpt><trkpt lat="44.3909033" lon="11.243745"><ele>150.0</ele><time>2026-04-09T08:53:33.955Z</time></trkpt><trkpt lat="44.3908017" lon="11.2438683"><ele>147.0</ele><time>2026-04-09T08:53:34.955Z</time></trkpt><trkpt lat="44.390705" lon="11.2439717"><ele>144.0</ele><time>2026-04-09T08:53:35.955Z</time></trkpt><trkpt lat="44.390615" lon="11.244065"><ele>141.0</ele><time>2026-04-09T08:53:36.955Z</time></trkpt><trkpt lat="44.39053" lon="11.24413"><ele>138.0</ele><time>2026-04-09T08:53:37.955Z</time></trkpt><trkpt lat="44.3904583" lon="11.2441883"><ele>135.0</ele><time>2026-04-09T08:53:38.955Z</time></trkpt><trkpt lat="44.3903917" lon="11.2442417"><ele>135.0</ele><time>2026-04-09T08:53:39.955Z</time></trkpt><trkpt lat="44.3903283" lon="11.2442933"><ele>135.0</ele><time>2026-04-09T08:53:40.955Z</time></trkpt><trkpt lat="44.3902783" lon="11.2443583"><ele>135.0</ele><time>2026-04-09T08:53:41.955Z</time></trkpt><trkpt lat="44.3902333" lon="11.2444417"><ele>135.0</ele><time>2026-04-09T08:53:42.955Z</time></trkpt><trkpt lat="44.3901883" lon="11.2445333"><ele>135.0</ele><time>2026-04-09T08:53:43.955Z</time></trkpt><trkpt lat="44.3901467" lon="11.244645"><ele>135.0</ele><time>2026-04-09T08:53:44.955Z</time></trkpt><trkpt lat="44.3900917" lon="11.2447633"><ele>132.83333333333334</ele><time>2026-04-09T08:53:45.955Z</time></trkpt><trkpt lat="44.390025" lon="11.2448683"><ele>130.66666666666666</ele><time>2026-04-09T08:53:46.956Z</time></trkpt><trkpt lat="44.3899583" lon="11.2449533"><ele>128.5</ele><time>2026-04-09T08:53:47.956Z</time></trkpt><trkpt lat="44.389895" lon="11.2450267"><ele>126.33333333333333</ele><time>2026-04-09T08:53:48.956Z</time></trkpt><trkpt lat="44.3898083" lon="11.245105"><ele>124.16666666666666</ele><time>2026-04-09T08:53:50.955Z</time></trkpt><trkpt lat="44.389745" lon="11.24514"><ele>122.0</ele><time>2026-04-09T08:53:52.955Z</time></trkpt><trkpt lat="44.3896133" lon="11.2451"><ele>119.19999999999999</ele><time>2026-04-09T08:53:54.955Z</time></trkpt><trkpt lat="44.3895283" lon="11.2450583"><ele>116.39999999999999</ele><time>2026-04-09T08:53:55.955Z</time></trkpt><trkpt lat="44.389435" lon="11.2449783"><ele>113.60000000000001</ele><time>2026-04-09T08:53:56.955Z</time></trkpt><trkpt lat="44.3893483" lon="11.2448833"><ele>110.80000000000001</ele><time>2026-04-09T08:53:57.955Z</time></trkpt><trkpt lat="44.3892683" lon="11.2447733"><ele>108.0</ele><time>2026-04-09T08:53:58.956Z</time></trkpt><trkpt lat="44.38919" lon="11.244645"><ele>117.25</ele><time>2026-04-09T08:53:59.955Z</time></trkpt><trkpt lat="44.3891117" lon="11.2445117"><ele>126.5</ele><time>2026-04-09T08:54:00.955Z</time></trkpt><trkpt lat="44.38903" lon="11.2443833"><ele>135.75</ele><time>2026-04-09T08:54:01.955Z</time></trkpt><trkpt lat="44.388955" lon="11.2442517"><ele>145.0</ele><time>2026-04-09T08:54:02.955Z</time></trkpt><trkpt lat="44.38887" lon="11.2441267"><ele>151.25</ele><time>2026-04-09T08:54:03.955Z</time></trkpt><trkpt lat="44.388775" lon="11.2440067"><ele>157.5</ele><time>2026-04-09T08:54:04.955Z</time></trkpt><trkpt lat="44.3886567" lon="11.2439183"><ele>163.75</ele><time>2026-04-09T08:54:05.956Z</time></trkpt><trkpt lat="44.38852" lon="11.24383"><ele>170.0</ele><time>2026-04-09T08:54:06.956Z</time></trkpt><trkpt lat="44.388395" lon="11.2437133"><ele>170.0</ele><time>2026-04-09T08:54:07.955Z</time></trkpt><trkpt lat="44.388275" lon="11.2436067"><ele>170.0</ele><time>2026-04-09T08:54:08.955Z</time></trkpt><trkpt lat="44.3881633" lon="11.24346"><ele>170.0</ele><time>2026-04-09T08:54:09.956Z</time></trkpt><trkpt lat="44.3880533" lon="11.24332"><ele>170.0</ele><time>2026-04-09T08:54:10.955Z</time></trkpt><trkpt lat="44.387945" lon="11.2431633"><ele>159.25</ele><time>2026-04-09T08:54:11.955Z</time></trkpt><trkpt lat="44.3878433" lon="11.2430183"><ele>148.5</ele><time>2026-04-09T08:54:12.955Z</time></trkpt><trkpt lat="44.3877517" lon="11.242885"><ele>137.75</ele><time>2026-04-09T08:54:13.955Z</time></trkpt><trkpt lat="44.3876717" lon="11.2427483"><ele>127.0</ele><time>2026-04-09T08:54:14.956Z</time></trkpt><trkpt lat="44.3876067" lon="11.242615"><ele>127.0</ele><time>2026-04-09T08:54:15.955Z</time></trkpt><trkpt lat="44.387575" lon="11.2424483"><ele>127.0</ele><time>2026-04-09T08:54:16.955Z</time></trkpt><trkpt lat="44.38756" lon="11.2422617"><ele>127.0</ele><time>2026-04-09T08:54:17.955Z</time></trkpt><trkpt lat="44.38755" lon="11.242065"><ele>127.0</ele><time>2026-04-09T08:54:18.956Z</time></trkpt><trkpt lat="44.38753" lon="11.2418583"><ele>134.33333333333334</ele><time>2026-04-09T08:54:19.955Z</time></trkpt><trkpt lat="44.3875117" lon="11.2416417"><ele>141.66666666666666</ele><time>2026-04-09T08:54:20.955Z</time></trkpt><trkpt lat="44.3874867" lon="11.2414233"><ele>149.0</ele><time>2026-04-09T08:54:21.955Z</time></trkpt><trkpt lat="44.387455" lon="11.2412033"><ele>150.0</ele><time>2026-04-09T08:54:22.955Z</time></trkpt><trkpt lat="44.3874267" lon="11.2409783"><ele>151.0</ele><time>2026-04-09T08:54:23.955Z</time></trkpt><trkpt lat="44.3873867" lon="11.240755"><ele>152.0</ele><time>2026-04-09T08:54:24.955Z</time></trkpt><trkpt lat="44.3873433" lon="11.240535"><ele>153.33333333333331</ele><time>2026-04-09T08:54:25.955Z</time></trkpt><trkpt lat="44.3872817" lon="11.24032"><ele>154.66666666666666</ele><time>2026-04-09T08:54:26.955Z</time></trkpt><trkpt lat="44.3872117" lon="11.2401133"><ele>156.0</ele><time>2026-04-09T08:54:27.955Z</time></trkpt><trkpt lat="44.3871233" lon="11.23991"><ele>145.33333333333334</ele><time>2026-04-09T08:54:28.955Z</time></trkpt><trkpt lat="44.387035" lon="11.239695"><ele>134.66666666666669</ele><time>2026-04-09T08:54:29.955Z</time></trkpt><trkpt lat="44.3869317" lon="11.2394867"><ele>124.0</ele><time>2026-04-09T08:54:30.955Z</time></trkpt><trkpt lat="44.3868267" lon="11.2392817"><ele>124.0</ele><time>2026-04-09T08:54:31.955Z</time></trkpt><trkpt lat="44.3866917" lon="11.2390867"><ele>124.0</ele><time>2026-04-09T08:54:32.955Z</time></trkpt><trkpt lat="44.3865717" lon="11.2389017"><ele>124.0</ele><time>2026-04-09T08:54:33.956Z</time></trkpt><trkpt lat="44.3864483" lon="11.2387183"><ele>123.66666666666667</ele><time>2026-04-09T08:54:34.956Z</time></trkpt><trkpt lat="44.3863283" lon="11.23852"><ele>123.33333333333334</ele><time>2026-04-09T08:54:35.955Z</time></trkpt><trkpt lat="44.3862117" lon="11.238325"><ele>123.0</ele><time>2026-04-09T08:54:36.955Z</time></trkpt><trkpt lat="44.3860933" lon="11.23814"><ele>124.0</ele><time>2026-04-09T08:54:37.955Z</time></trkpt><trkpt lat="44.3859833" lon="11.237965"><ele>125.0</ele><time>2026-04-09T08:54:38.955Z</time></trkpt><trkpt lat="44.3858783" lon="11.2378033"><ele>126.0</ele><time>2026-04-09T08:54:39.955Z</time></trkpt><trkpt lat="44.3857683" lon="11.237645"><ele>126.0</ele><time>2026-04-09T08:54:40.956Z</time></trkpt><trkpt lat="44.3856617" lon="11.2374933"><ele>126.0</ele><time>2026-04-09T08:54:41.955Z</time></trkpt><trkpt lat="44.385545" lon="11.2373417"><ele>126.0</ele><time>2026-04-09T08:54:42.956Z</time></trkpt><trkpt lat="44.3854183" lon="11.2371917"><ele>126.66666666666666</ele><time>2026-04-09T08:54:43.955Z</time></trkpt><trkpt lat="44.3852917" lon="11.2370433"><ele>127.33333333333333</ele><time>2026-04-09T08:54:44.956Z</time></trkpt><trkpt lat="44.3851583" lon="11.2369067"><ele>128.0</ele><time>2026-04-09T08:54:45.955Z</time></trkpt><trkpt lat="44.385015" lon="11.2367767"><ele>128.0</ele><time>2026-04-09T08:54:46.956Z</time></trkpt><trkpt lat="44.3848667" lon="11.2366583"><ele>128.0</ele><time>2026-04-09T08:54:47.955Z</time></trkpt><trkpt lat="44.3847167" lon="11.2365467"><ele>128.0</ele><time>2026-04-09T08:54:48.955Z</time></trkpt><trkpt lat="44.3845617" lon="11.2364333"><ele>127.66666666666666</ele><time>2026-04-09T08:54:49.955Z</time></trkpt><trkpt lat="44.3843967" lon="11.236325"><ele>127.33333333333334</ele><time>2026-04-09T08:54:50.956Z</time></trkpt><trkpt lat="44.3842283" lon="11.2362167"><ele>127.0</ele><time>2026-04-09T08:54:51.955Z</time></trkpt><trkpt lat="44.3840583" lon="11.2361117"><ele>127.0</ele><time>2026-04-09T08:54:52.955Z</time></trkpt><trkpt lat="44.3838833" lon="11.2360033"><ele>127.0</ele><time>2026-04-09T08:54:53.955Z</time></trkpt><trkpt lat="44.3837083" lon="11.235895"><ele>127.0</ele><time>2026-04-09T08:54:54.955Z</time></trkpt><trkpt lat="44.383545" lon="11.235775"><ele>126.33333333333334</ele><time>2026-04-09T08:54:55.955Z</time></trkpt><trkpt lat="44.3833767" lon="11.2356517"><ele>125.66666666666666</ele><time>2026-04-09T08:54:56.955Z</time></trkpt><trkpt lat="44.3832167" lon="11.2355267"><ele>125.0</ele><time>2026-04-09T08:54:57.955Z</time></trkpt><trkpt lat="44.38306" lon="11.2354067"><ele>124.66666666666666</ele><time>2026-04-09T08:54:58.955Z</time></trkpt><trkpt lat="44.3829117" lon="11.2352767"><ele>124.33333333333334</ele><time>2026-04-09T08:54:59.956Z</time></trkpt><trkpt lat="44.3827683" lon="11.2351517"><ele>124.0</ele><time>2026-04-09T08:55:00.955Z</time></trkpt><trkpt lat="44.3826467" lon="11.2350283"><ele>124.0</ele><time>2026-04-09T08:55:01.955Z</time></trkpt><trkpt lat="44.3825217" lon="11.2349067"><ele>124.0</ele><time>2026-04-09T08:55:02.955Z</time></trkpt><trkpt lat="44.3824033" lon="11.23478"><ele>124.0</ele><time>2026-04-09T08:55:03.955Z</time></trkpt><trkpt lat="44.3822883" lon="11.2346583"><ele>124.0</ele><time>2026-04-09T08:55:04.955Z</time></trkpt><trkpt lat="44.3821833" lon="11.2345467"><ele>124.25</ele><time>2026-04-09T08:55:05.955Z</time></trkpt><trkpt lat="44.3820767" lon="11.2344433"><ele>124.5</ele><time>2026-04-09T08:55:06.955Z</time></trkpt><trkpt lat="44.3819783" lon="11.2343483"><ele>124.75</ele><time>2026-04-09T08:55:07.955Z</time></trkpt><trkpt lat="44.3818883" lon="11.234255"><ele>125.0</ele><time>2026-04-09T08:55:08.955Z</time></trkpt><trkpt lat="44.3818" lon="11.2341667"><ele>124.99999999999999</ele><time>2026-04-09T08:55:09.955Z</time></trkpt><trkpt lat="44.381715" lon="11.2340783"><ele>125.0</ele><time>2026-04-09T08:55:10.955Z</time></trkpt><trkpt lat="44.3816433" lon="11.2340017"><ele>125.0</ele><time>2026-04-09T08:55:11.955Z</time></trkpt><trkpt lat="44.3815717" lon="11.2339317"><ele>125.0</ele><time>2026-04-09T08:55:12.955Z</time></trkpt><trkpt lat="44.381515" lon="11.2338817"><ele>124.99999999999999</ele><time>2026-04-09T08:55:13.955Z</time></trkpt><trkpt lat="44.381465" lon="11.233825"><ele>125.0</ele><time>2026-04-09T08:55:14.955Z</time></trkpt><trkpt lat="44.381385" lon="11.23375"><ele>124.83333333333333</ele><time>2026-04-09T08:55:16.955Z</time></trkpt><trkpt lat="44.38132" lon="11.2336733"><ele>124.66666666666666</ele><time>2026-04-09T08:55:20.956Z</time></trkpt><trkpt lat="44.3812417" lon="11.2336933"><ele>124.5</ele><time>2026-04-09T08:55:23.956Z</time></trkpt><trkpt lat="44.3812033" lon="11.2337683"><ele>124.33333333333334</ele><time>2026-04-09T08:55:25.955Z</time></trkpt><trkpt lat="44.3811567" lon="11.2338583"><ele>124.16666666666667</ele><time>2026-04-09T08:55:27.955Z</time></trkpt><trkpt lat="44.38111" lon="11.2339567"><ele>124.0</ele><time>2026-04-09T08:55:29.955Z</time></trkpt><trkpt lat="44.38109" lon="11.2340717"><ele>124.00000000000001</ele><time>2026-04-09T08:55:31.955Z</time></trkpt><trkpt lat="44.3810967" lon="11.234165"><ele>124.0</ele><time>2026-04-09T08:55:33.956Z</time></trkpt><trkpt lat="44.381135" lon="11.2342583"><ele>124.0</ele><time>2026-04-09T08:55:35.955Z</time></trkpt><trkpt lat="44.3811967" lon="11.2342983"><ele>124.0</ele><time>2026-04-09T08:55:38.955Z</time></trkpt><trkpt lat="44.3812667" lon="11.234255"><ele>124.00000000000001</ele><time>2026-04-09T08:55:45.955Z</time></trkpt><trkpt lat="44.38138" lon="11.23418"><ele>124.0</ele><time>2026-04-09T08:55:58.955Z</time></trkpt><trkpt lat="44.3813867" lon="11.234085"><ele>124.00000000000001</ele><time>2026-04-09T08:56:11.955Z</time></trkpt><trkpt lat="44.3812817" lon="11.2340033"><ele>124.0</ele><time>2026-04-09T09:04:58.953Z</time></trkpt><trkpt lat="44.3812183" lon="11.2339483"><ele>124.0</ele><time>2026-04-09T09:05:00.953Z</time></trkpt><trkpt lat="44.38122" lon="11.233815"><ele>124.0</ele><time>2026-04-09T09:05:03.953Z</time></trkpt><trkpt lat="44.3812633" lon="11.233745"><ele>124.00000000000001</ele><time>2026-04-09T09:05:05.953Z</time></trkpt><trkpt lat="44.381265" lon="11.23364"><ele>124.0</ele><time>2026-04-09T09:05:15.952Z</time></trkpt><trkpt lat="44.3812267" lon="11.2335683"><ele>125.2</ele><time>2026-04-09T09:05:16.953Z</time></trkpt><trkpt lat="44.381175" lon="11.23349"><ele>126.4</ele><time>2026-04-09T09:05:17.953Z</time></trkpt><trkpt lat="44.3811017" lon="11.2334067"><ele>127.6</ele><time>2026-04-09T09:05:18.952Z</time></trkpt><trkpt lat="44.3810133" lon="11.23332"><ele>128.8</ele><time>2026-04-09T09:05:19.952Z</time></trkpt><trkpt lat="44.380915" lon="11.2332117"><ele>130.0</ele><time>2026-04-09T09:05:20.952Z</time></trkpt><trkpt lat="44.380815" lon="11.2330933"><ele>129.33333333333334</ele><time>2026-04-09T09:05:21.952Z</time></trkpt><trkpt lat="44.3806983" lon="11.2329767"><ele>128.66666666666666</ele><time>2026-04-09T09:05:22.953Z</time></trkpt><trkpt lat="44.3805717" lon="11.232855"><ele>128.0</ele><time>2026-04-09T09:05:23.952Z</time></trkpt><trkpt lat="44.3804483" lon="11.2327267"><ele>128.0</ele><time>2026-04-09T09:05:24.952Z</time></trkpt><trkpt lat="44.3803167" lon="11.2325933"><ele>128.0</ele><time>2026-04-09T09:05:25.952Z</time></trkpt><trkpt lat="44.3801867" lon="11.2324517"><ele>128.0</ele><time>2026-04-09T09:05:26.952Z</time></trkpt><trkpt lat="44.3800567" lon="11.23231"><ele>128.0</ele><time>2026-04-09T09:05:27.952Z</time></trkpt><trkpt lat="44.379925" lon="11.2321633"><ele>128.0</ele><time>2026-04-09T09:05:28.952Z</time></trkpt><trkpt lat="44.37978" lon="11.2320267"><ele>128.0</ele><time>2026-04-09T09:05:29.952Z</time></trkpt><trkpt lat="44.3796233" lon="11.2319"><ele>126.66666666666666</ele><time>2026-04-09T09:05:30.953Z</time></trkpt><trkpt lat="44.3794817" lon="11.2317883"><ele>125.33333333333334</ele><time>2026-04-09T09:05:31.953Z</time></trkpt><trkpt lat="44.3793483" lon="11.231675"><ele>124.0</ele><time>2026-04-09T09:05:32.952Z</time></trkpt><trkpt lat="44.379215" lon="11.2315667"><ele>123.33333333333334</ele><time>2026-04-09T09:05:33.952Z</time></trkpt><trkpt lat="44.37908" lon="11.23145"><ele>122.66666666666666</ele><time>2026-04-09T09:05:34.952Z</time></trkpt><trkpt lat="44.3789483" lon="11.2313333"><ele>122.0</ele><time>2026-04-09T09:05:35.952Z</time></trkpt><trkpt lat="44.3788183" lon="11.231215"><ele>122.0</ele><time>2026-04-09T09:05:36.952Z</time></trkpt><trkpt lat="44.3786733" lon="11.2310967"><ele>122.0</ele><time>2026-04-09T09:05:37.952Z</time></trkpt><trkpt lat="44.3785233" lon="11.2309683"><ele>122.0</ele><time>2026-04-09T09:05:38.953Z</time></trkpt><trkpt lat="44.37837" lon="11.2308333"><ele>122.0</ele><time>2026-04-09T09:05:39.952Z</time></trkpt><trkpt lat="44.3782233" lon="11.2306867"><ele>122.0</ele><time>2026-04-09T09:05:40.952Z</time></trkpt><trkpt lat="44.3780767" lon="11.2305367"><ele>122.0</ele><time>2026-04-09T09:05:41.952Z</time></trkpt><trkpt lat="44.3779367" lon="11.2303867"><ele>121.66666666666666</ele><time>2026-04-09T09:05:42.952Z</time></trkpt><trkpt lat="44.3778033" lon="11.2302417"><ele>121.33333333333334</ele><time>2026-04-09T09:05:43.952Z</time></trkpt><trkpt lat="44.3776783" lon="11.2301017"><ele>121.0</ele><time>2026-04-09T09:05:44.952Z</time></trkpt><trkpt lat="44.37756" lon="11.2299633"><ele>121.0</ele><time>2026-04-09T09:05:45.952Z</time></trkpt><trkpt lat="44.37745" lon="11.2298233"><ele>121.0</ele><time>2026-04-09T09:05:46.952Z</time></trkpt><trkpt lat="44.3773467" lon="11.2296883"><ele>121.0</ele><time>2026-04-09T09:05:47.953Z</time></trkpt><trkpt lat="44.3772483" lon="11.2295433"><ele>121.0</ele><time>2026-04-09T09:05:48.952Z</time></trkpt><trkpt lat="44.37716" lon="11.2293967"><ele>120.5</ele><time>2026-04-09T09:05:49.953Z</time></trkpt><trkpt lat="44.3770783" lon="11.22924"><ele>120.0</ele><time>2026-04-09T09:05:50.952Z</time></trkpt><trkpt lat="44.377005" lon="11.2290817"><ele>119.5</ele><time>2026-04-09T09:05:51.952Z</time></trkpt><trkpt lat="44.3769333" lon="11.2289233"><ele>119.0</ele><time>2026-04-09T09:05:52.952Z</time></trkpt><trkpt lat="44.3768667" lon="11.228765"><ele>119.0</ele><time>2026-04-09T09:05:53.952Z</time></trkpt><trkpt lat="44.376805" lon="11.2286033"><ele>119.0</ele><time>2026-04-09T09:05:54.952Z</time></trkpt><trkpt lat="44.3767383" lon="11.228445"><ele>119.0</ele><time>2026-04-09T09:05:55.952Z</time></trkpt><trkpt lat="44.3766767" lon="11.2282767"><ele>119.0</ele><time>2026-04-09T09:05:56.953Z</time></trkpt><trkpt lat="44.3766117" lon="11.22811"><ele>122.25</ele><time>2026-04-09T09:05:57.952Z</time></trkpt><trkpt lat="44.3765467" lon="11.22794"><ele>125.5</ele><time>2026-04-09T09:05:58.952Z</time></trkpt><trkpt lat="44.3764817" lon="11.2277767"><ele>128.75</ele><time>2026-04-09T09:05:59.952Z</time></trkpt><trkpt lat="44.3764133" lon="11.2276017"><ele>132.0</ele><time>2026-04-09T09:06:00.952Z</time></trkpt><trkpt lat="44.3763417" lon="11.2274283"><ele>128.0</ele><time>2026-04-09T09:06:01.952Z</time></trkpt><trkpt lat="44.3762633" lon="11.227255"><ele>124.0</ele><time>2026-04-09T09:06:02.953Z</time></trkpt><trkpt lat="44.3761867" lon="11.2270917"><ele>120.0</ele><time>2026-04-09T09:06:03.952Z</time></trkpt><trkpt lat="44.3761017" lon="11.2269333"><ele>116.0</ele><time>2026-04-09T09:06:04.953Z</time></trkpt><trkpt lat="44.376025" lon="11.2267883"><ele>116.0</ele><time>2026-04-09T09:06:05.952Z</time></trkpt><trkpt lat="44.375945" lon="11.2266483"><ele>116.0</ele><time>2026-04-09T09:06:06.952Z</time></trkpt><trkpt lat="44.3758633" lon="11.2265067"><ele>116.0</ele><time>2026-04-09T09:06:07.953Z</time></trkpt><trkpt lat="44.3757817" lon="11.226365"><ele>116.0</ele><time>2026-04-09T09:06:08.952Z</time></trkpt><trkpt lat="44.3756917" lon="11.2262317"><ele>115.25</ele><time>2026-04-09T09:06:09.952Z</time></trkpt><trkpt lat="44.375595" lon="11.2260983"><ele>114.5</ele><time>2026-04-09T09:06:10.952Z</time></trkpt><trkpt lat="44.37549" lon="11.22596"><ele>113.75</ele><time>2026-04-09T09:06:11.953Z</time></trkpt><trkpt lat="44.37538" lon="11.22583"><ele>113.0</ele><time>2026-04-09T09:06:12.952Z</time></trkpt><trkpt lat="44.3752617" lon="11.2257017"><ele>115.5</ele><time>2026-04-09T09:06:13.952Z</time></trkpt><trkpt lat="44.3751467" lon="11.22558"><ele>118.0</ele><time>2026-04-09T09:06:14.952Z</time></trkpt><trkpt lat="44.3750267" lon="11.2254567"><ele>120.5</ele><time>2026-04-09T09:06:15.953Z</time></trkpt><trkpt lat="44.3749017" lon="11.2253417"><ele>123.0</ele><time>2026-04-09T09:06:16.953Z</time></trkpt><trkpt lat="44.3747783" lon="11.22523"><ele>122.75</ele><time>2026-04-09T09:06:17.952Z</time></trkpt><trkpt lat="44.3746533" lon="11.2251167"><ele>122.5</ele><time>2026-04-09T09:06:18.952Z</time></trkpt><trkpt lat="44.374535" lon="11.2249883"><ele>122.25</ele><time>2026-04-09T09:06:19.953Z</time></trkpt><trkpt lat="44.3744217" lon="11.2248567"><ele>122.0</ele><time>2026-04-09T09:06:20.952Z</time></trkpt><trkpt lat="44.3743167" lon="11.2247233"><ele>122.0</ele><time>2026-04-09T09:06:21.953Z</time></trkpt><trkpt lat="44.3742083" lon="11.2245833"><ele>122.0</ele><time>2026-04-09T09:06:22.952Z</time></trkpt><trkpt lat="44.3741067" lon="11.2244333"><ele>122.0</ele><time>2026-04-09T09:06:23.952Z</time></trkpt><trkpt lat="44.3739983" lon="11.2242783"><ele>122.0</ele><time>2026-04-09T09:06:24.952Z</time></trkpt><trkpt lat="44.37389" lon="11.2241167"><ele>122.0</ele><time>2026-04-09T09:06:25.952Z</time></trkpt><trkpt lat="44.3737783" lon="11.22395"><ele>122.0</ele><time>2026-04-09T09:06:26.953Z</time></trkpt><trkpt lat="44.3736667" lon="11.2237917"><ele>122.66666666666666</ele><time>2026-04-09T09:06:27.953Z</time></trkpt><trkpt lat="44.3735467" lon="11.2236267"><ele>123.33333333333334</ele><time>2026-04-09T09:06:28.952Z</time></trkpt><trkpt lat="44.37342" lon="11.2234733"><ele>124.0</ele><time>2026-04-09T09:06:29.952Z</time></trkpt><trkpt lat="44.373285" lon="11.2233333"><ele>124.0</ele><time>2026-04-09T09:06:30.952Z</time></trkpt><trkpt lat="44.37315" lon="11.22321"><ele>124.0</ele><time>2026-04-09T09:06:31.952Z</time></trkpt><trkpt lat="44.373015" lon="11.2230883"><ele>124.0</ele><time>2026-04-09T09:06:32.953Z</time></trkpt><trkpt lat="44.372895" lon="11.2229617"><ele>124.0</ele><time>2026-04-09T09:06:33.952Z</time></trkpt><trkpt lat="44.3727633" lon="11.2228417"><ele>124.0</ele><time>2026-04-09T09:06:34.952Z</time></trkpt><trkpt lat="44.37263" lon="11.2227167"><ele>124.0</ele><time>2026-04-09T09:06:35.952Z</time></trkpt><trkpt lat="44.3724983" lon="11.22259"><ele>124.0</ele><time>2026-04-09T09:06:36.952Z</time></trkpt><trkpt lat="44.3723683" lon="11.222445"><ele>124.0</ele><time>2026-04-09T09:06:37.952Z</time></trkpt><trkpt lat="44.3722483" lon="11.2222867"><ele>124.0</ele><time>2026-04-09T09:06:38.952Z</time></trkpt><trkpt lat="44.3721267" lon="11.22213"><ele>121.33333333333334</ele><time>2026-04-09T09:06:39.952Z</time></trkpt><trkpt lat="44.3720067" lon="11.2219633"><ele>118.66666666666666</ele><time>2026-04-09T09:06:40.952Z</time></trkpt><trkpt lat="44.3718933" lon="11.2217933"><ele>116.0</ele><time>2026-04-09T09:06:41.952Z</time></trkpt><trkpt lat="44.3717833" lon="11.2216167"><ele>120.66666666666666</ele><time>2026-04-09T09:06:42.952Z</time></trkpt><trkpt lat="44.371665" lon="11.2214417"><ele>125.33333333333334</ele><time>2026-04-09T09:06:43.952Z</time></trkpt><trkpt lat="44.3715533" lon="11.221265"><ele>130.0</ele><time>2026-04-09T09:06:44.952Z</time></trkpt><trkpt lat="44.3714383" lon="11.2210917"><ele>125.66666666666667</ele><time>2026-04-09T09:06:45.952Z</time></trkpt><trkpt lat="44.3713217" lon="11.22092"><ele>121.33333333333334</ele><time>2026-04-09T09:06:46.952Z</time></trkpt><trkpt lat="44.371215" lon="11.220745"><ele>117.0</ele><time>2026-04-09T09:06:47.952Z</time></trkpt><trkpt lat="44.37111" lon="11.220575"><ele>117.0</ele><time>2026-04-09T09:06:48.952Z</time></trkpt><trkpt lat="44.371015" lon="11.220395"><ele>117.0</ele><time>2026-04-09T09:06:49.952Z</time></trkpt><trkpt lat="44.3709333" lon="11.2202067"><ele>117.0</ele><time>2026-04-09T09:06:50.952Z</time></trkpt><trkpt lat="44.3708517" lon="11.2200133"><ele>119.66666666666666</ele><time>2026-04-09T09:06:51.952Z</time></trkpt><trkpt lat="44.37077" lon="11.219805"><ele>122.33333333333333</ele><time>2026-04-09T09:06:52.953Z</time></trkpt><trkpt lat="44.37071" lon="11.219585"><ele>125.0</ele><time>2026-04-09T09:06:53.952Z</time></trkpt><trkpt lat="44.3706617" lon="11.219365"><ele>125.0</ele><time>2026-04-09T09:06:54.952Z</time></trkpt><trkpt lat="44.37062" lon="11.21915"><ele>125.0</ele><time>2026-04-09T09:06:55.952Z</time></trkpt><trkpt lat="44.370585" lon="11.218935"><ele>125.0</ele><time>2026-04-09T09:06:56.952Z</time></trkpt><trkpt lat="44.37056" lon="11.2187183"><ele>123.75</ele><time>2026-04-09T09:06:57.952Z</time></trkpt><trkpt lat="44.3705333" lon="11.2185067"><ele>122.5</ele><time>2026-04-09T09:06:58.952Z</time></trkpt><trkpt lat="44.3705083" lon="11.2183067"><ele>121.25</ele><time>2026-04-09T09:06:59.952Z</time></trkpt><trkpt lat="44.3704867" lon="11.218115"><ele>120.0</ele><time>2026-04-09T09:07:00.952Z</time></trkpt><trkpt lat="44.3704667" lon="11.2179317"><ele>120.0</ele><time>2026-04-09T09:07:01.952Z</time></trkpt><trkpt lat="44.3704383" lon="11.21775"><ele>120.0</ele><time>2026-04-09T09:07:02.952Z</time></trkpt><trkpt lat="44.3704033" lon="11.217565"><ele>120.0</ele><time>2026-04-09T09:07:03.953Z</time></trkpt><trkpt lat="44.37035" lon="11.2173983"><ele>120.0</ele><time>2026-04-09T09:07:04.952Z</time></trkpt><trkpt lat="44.37028" lon="11.217245"><ele>124.33333333333334</ele><time>2026-04-09T09:07:05.952Z</time></trkpt><trkpt lat="44.37018" lon="11.2170883"><ele>128.66666666666669</ele><time>2026-04-09T09:07:06.952Z</time></trkpt><trkpt lat="44.370065" lon="11.21694"><ele>133.0</ele><time>2026-04-09T09:07:07.952Z</time></trkpt><trkpt lat="44.3699533" lon="11.2167883"><ele>133.0</ele><time>2026-04-09T09:07:08.952Z</time></trkpt><trkpt lat="44.3698433" lon="11.2166267"><ele>133.0</ele><time>2026-04-09T09:07:09.952Z</time></trkpt><trkpt lat="44.3697317" lon="11.2164683"><ele>133.0</ele><time>2026-04-09T09:07:10.952Z</time></trkpt><trkpt lat="44.369615" lon="11.2163083"><ele>129.66666666666669</ele><time>2026-04-09T09:07:11.952Z</time></trkpt><trkpt lat="44.3694983" lon="11.2161433"><ele>126.33333333333334</ele><time>2026-04-09T09:07:12.953Z</time></trkpt><trkpt lat="44.3693833" lon="11.2159783"><ele>123.0</ele><time>2026-04-09T09:07:13.953Z</time></trkpt><trkpt lat="44.3692683" lon="11.2158067"><ele>126.5</ele><time>2026-04-09T09:07:14.952Z</time></trkpt><trkpt lat="44.36915" lon="11.2156467"><ele>130.0</ele><time>2026-04-09T09:07:15.952Z</time></trkpt><trkpt lat="44.3689167" lon="11.2153133"><ele>130.0</ele><time>2026-04-09T09:07:17.952Z</time></trkpt><trkpt lat="44.368795" lon="11.2151433"><ele>130.0</ele><time>2026-04-09T09:07:18.952Z</time></trkpt><trkpt lat="44.3686733" lon="11.2149733"><ele>130.0</ele><time>2026-04-09T09:07:19.952Z</time></trkpt><trkpt lat="44.3685567" lon="11.214805"><ele>130.0</ele><time>2026-04-09T09:07:20.953Z</time></trkpt><trkpt lat="44.3684383" lon="11.2146417"><ele>130.0</ele><time>2026-04-09T09:07:21.953Z</time></trkpt><trkpt lat="44.3683083" lon="11.2144917"><ele>130.0</ele><time>2026-04-09T09:07:22.952Z</time></trkpt><trkpt lat="44.3681683" lon="11.21436"><ele>127.66666666666667</ele><time>2026-04-09T09:07:23.952Z</time></trkpt><trkpt lat="44.3680233" lon="11.214245"><ele>125.33333333333334</ele><time>2026-04-09T09:07:24.952Z</time></trkpt><trkpt lat="44.367875" lon="11.2141417"><ele>123.0</ele><time>2026-04-09T09:07:25.952Z</time></trkpt><trkpt lat="44.3677167" lon="11.2140633"><ele>127.0</ele><time>2026-04-09T09:07:26.952Z</time></trkpt><trkpt lat="44.36756" lon="11.2139883"><ele>131.0</ele><time>2026-04-09T09:07:27.952Z</time></trkpt><trkpt lat="44.3673983" lon="11.2139267"><ele>135.0</ele><time>2026-04-09T09:07:28.952Z</time></trkpt><trkpt lat="44.3672267" lon="11.2138933"><ele>134.0</ele><time>2026-04-09T09:07:29.952Z</time></trkpt><trkpt lat="44.3670633" lon="11.2138583"><ele>133.0</ele><time>2026-04-09T09:07:30.952Z</time></trkpt><trkpt lat="44.3669117" lon="11.2138283"><ele>132.0</ele><time>2026-04-09T09:07:31.952Z</time></trkpt><trkpt lat="44.36675" lon="11.21378"><ele>132.0</ele><time>2026-04-09T09:07:32.952Z</time></trkpt><trkpt lat="44.3666067" lon="11.213725"><ele>132.0</ele><time>2026-04-09T09:07:33.953Z</time></trkpt><trkpt lat="44.366465" lon="11.213655"><ele>132.0</ele><time>2026-04-09T09:07:34.952Z</time></trkpt><trkpt lat="44.3663383" lon="11.2135733"><ele>132.0</ele><time>2026-04-09T09:07:35.952Z</time></trkpt><trkpt lat="44.366225" lon="11.2134733"><ele>132.25</ele><time>2026-04-09T09:07:36.953Z</time></trkpt><trkpt lat="44.3661067" lon="11.2133633"><ele>132.5</ele><time>2026-04-09T09:07:37.953Z</time></trkpt><trkpt lat="44.366" lon="11.2132183"><ele>132.75</ele><time>2026-04-09T09:07:38.952Z</time></trkpt><trkpt lat="44.3658983" lon="11.2130533"><ele>133.0</ele><time>2026-04-09T09:07:39.953Z</time></trkpt><trkpt lat="44.3658017" lon="11.2128833"><ele>133.0</ele><time>2026-04-09T09:07:40.952Z</time></trkpt><trkpt lat="44.36573" lon="11.212705"><ele>133.0</ele><time>2026-04-09T09:07:41.952Z</time></trkpt><trkpt lat="44.3656767" lon="11.2125267"><ele>133.0</ele><time>2026-04-09T09:07:42.952Z</time></trkpt><trkpt lat="44.3656333" lon="11.2123683"><ele>133.0</ele><time>2026-04-09T09:07:43.952Z</time></trkpt><trkpt lat="44.3655967" lon="11.2122133"><ele>134.6</ele><time>2026-04-09T09:07:44.953Z</time></trkpt><trkpt lat="44.3655583" lon="11.2120617"><ele>136.20000000000002</ele><time>2026-04-09T09:07:45.952Z</time></trkpt><trkpt lat="44.365525" lon="11.2119167"><ele>137.8</ele><time>2026-04-09T09:07:46.952Z</time></trkpt><trkpt lat="44.3654917" lon="11.2117717"><ele>139.4</ele><time>2026-04-09T09:07:47.952Z</time></trkpt><trkpt lat="44.3654617" lon="11.2116417"><ele>141.0</ele><time>2026-04-09T09:07:48.952Z</time></trkpt><trkpt lat="44.3654217" lon="11.211515"><ele>136.5</ele><time>2026-04-09T09:07:49.952Z</time></trkpt><trkpt lat="44.3653783" lon="11.2113967"><ele>132.0</ele><time>2026-04-09T09:07:50.952Z</time></trkpt><trkpt lat="44.3653383" lon="11.211285"><ele>127.5</ele><time>2026-04-09T09:07:51.952Z</time></trkpt><trkpt lat="44.3653033" lon="11.2111833"><ele>123.0</ele><time>2026-04-09T09:07:52.952Z</time></trkpt><trkpt lat="44.3652667" lon="11.211085"><ele>118.5</ele><time>2026-04-09T09:07:53.952Z</time></trkpt><trkpt lat="44.3652367" lon="11.211005"><ele>114.0</ele><time>2026-04-09T09:07:54.952Z</time></trkpt><trkpt lat="44.3652" lon="11.2109"><ele>114.0</ele><time>2026-04-09T09:07:56.952Z</time></trkpt><trkpt lat="44.365165" lon="11.2108067"><ele>114.0</ele><time>2026-04-09T09:08:00.952Z</time></trkpt><trkpt lat="44.3651233" lon="11.2107"><ele>114.0</ele><time>2026-04-09T09:08:05.952Z</time></trkpt><trkpt lat="44.3650717" lon="11.2105717"><ele>114.0</ele><time>2026-04-09T09:08:07.953Z</time></trkpt><trkpt lat="44.365035" lon="11.2104467"><ele>114.0</ele><time>2026-04-09T09:08:09.952Z</time></trkpt><trkpt lat="44.364995" lon="11.2103583"><ele>114.0</ele><time>2026-04-09T09:08:12.952Z</time></trkpt><trkpt lat="44.3649583" lon="11.2102567"><ele>114.83333333333333</ele><time>2026-04-09T09:08:15.952Z</time></trkpt><trkpt lat="44.3649083" lon="11.2101617"><ele>115.66666666666666</ele><time>2026-04-09T09:08:33.952Z</time></trkpt><trkpt lat="44.36488" lon="11.21007"><ele>116.5</ele><time>2026-04-09T09:08:34.953Z</time></trkpt><trkpt lat="44.3648333" lon="11.2099583"><ele>117.33333333333333</ele><time>2026-04-09T09:08:35.952Z</time></trkpt><trkpt lat="44.3647833" lon="11.20985"><ele>118.16666666666666</ele><time>2026-04-09T09:08:36.952Z</time></trkpt><trkpt lat="44.3647333" lon="11.2097383"><ele>119.0</ele><time>2026-04-09T09:08:37.952Z</time></trkpt><trkpt lat="44.3646733" lon="11.209635"><ele>119.0</ele><time>2026-04-09T09:08:38.952Z</time></trkpt><trkpt lat="44.364605" lon="11.20954"><ele>119.0</ele><time>2026-04-09T09:08:39.952Z</time></trkpt><trkpt lat="44.364545" lon="11.2094433"><ele>119.0</ele><time>2026-04-09T09:08:40.953Z</time></trkpt><trkpt lat="44.3644883" lon="11.2093467"><ele>119.0</ele><time>2026-04-09T09:08:41.953Z</time></trkpt><trkpt lat="44.36443" lon="11.20924"><ele>119.0</ele><time>2026-04-09T09:08:42.952Z</time></trkpt><trkpt lat="44.3643717" lon="11.2091233"><ele>120.75</ele><time>2026-04-09T09:08:43.952Z</time></trkpt><trkpt lat="44.36431" lon="11.2089917"><ele>122.5</ele><time>2026-04-09T09:08:44.952Z</time></trkpt><trkpt lat="44.3642433" lon="11.2088617"><ele>124.25</ele><time>2026-04-09T09:08:45.952Z</time></trkpt><trkpt lat="44.3641783" lon="11.2087117"><ele>126.0</ele><time>2026-04-09T09:08:46.952Z</time></trkpt><trkpt lat="44.36412" lon="11.208565"><ele>126.0</ele><time>2026-04-09T09:08:47.952Z</time></trkpt><trkpt lat="44.3640617" lon="11.2084133"><ele>126.0</ele><time>2026-04-09T09:08:48.953Z</time></trkpt><trkpt lat="44.3639933" lon="11.20826"><ele>126.0</ele><time>2026-04-09T09:08:49.952Z</time></trkpt><trkpt lat="44.36392" lon="11.2081033"><ele>126.0</ele><time>2026-04-09T09:08:50.952Z</time></trkpt><trkpt lat="44.363855" lon="11.2079467"><ele>123.0</ele><time>2026-04-09T09:08:51.952Z</time></trkpt><trkpt lat="44.36379" lon="11.2077933"><ele>120.0</ele><time>2026-04-09T09:08:52.952Z</time></trkpt><trkpt lat="44.3637167" lon="11.2076417"><ele>117.0</ele><time>2026-04-09T09:08:53.953Z</time></trkpt><trkpt lat="44.3636417" lon="11.207495"><ele>114.0</ele><time>2026-04-09T09:08:54.952Z</time></trkpt><trkpt lat="44.3635617" lon="11.2073483"><ele>116.75</ele><time>2026-04-09T09:08:55.953Z</time></trkpt><trkpt lat="44.3634933" lon="11.2072"><ele>119.5</ele><time>2026-04-09T09:08:56.952Z</time></trkpt><trkpt lat="44.3634233" lon="11.2070633"><ele>122.25</ele><time>2026-04-09T09:08:57.952Z</time></trkpt><trkpt lat="44.3633517" lon="11.2069233"><ele>125.0</ele><time>2026-04-09T09:08:58.952Z</time></trkpt><trkpt lat="44.3632883" lon="11.2067917"><ele>125.0</ele><time>2026-04-09T09:08:59.952Z</time></trkpt><trkpt lat="44.3632283" lon="11.206675"><ele>125.0</ele><time>2026-04-09T09:09:00.952Z</time></trkpt><trkpt lat="44.363175" lon="11.2065667"><ele>125.0</ele><time>2026-04-09T09:09:01.953Z</time></trkpt><trkpt lat="44.36312" lon="11.2064467"><ele>125.0</ele><time>2026-04-09T09:09:02.952Z</time></trkpt><trkpt lat="44.3630667" lon="11.2063233"><ele>125.0</ele><time>2026-04-09T09:09:03.952Z</time></trkpt><trkpt lat="44.3630183" lon="11.2061917"><ele>123.8</ele><time>2026-04-09T09:09:04.952Z</time></trkpt><trkpt lat="44.3629733" lon="11.2060533"><ele>122.6</ele><time>2026-04-09T09:09:05.952Z</time></trkpt><trkpt lat="44.36294" lon="11.2059283"><ele>121.4</ele><time>2026-04-09T09:09:06.952Z</time></trkpt><trkpt lat="44.3629033" lon="11.2058133"><ele>120.2</ele><time>2026-04-09T09:09:07.952Z</time></trkpt><trkpt lat="44.362875" lon="11.205705"><ele>119.0</ele><time>2026-04-09T09:09:08.952Z</time></trkpt><trkpt lat="44.3628467" lon="11.2056083"><ele>119.0</ele><time>2026-04-09T09:09:09.952Z</time></trkpt><trkpt lat="44.36281" lon="11.205515"><ele>119.0</ele><time>2026-04-09T09:09:10.953Z</time></trkpt><trkpt lat="44.36277" lon="11.2054033"><ele>119.0</ele><time>2026-04-09T09:09:11.952Z</time></trkpt><trkpt lat="44.362725" lon="11.2052833"><ele>119.0</ele><time>2026-04-09T09:09:12.953Z</time></trkpt><trkpt lat="44.3626533" lon="11.205165"><ele>119.0</ele><time>2026-04-09T09:09:13.952Z</time></trkpt><trkpt lat="44.362575" lon="11.2050583"><ele>119.0</ele><time>2026-04-09T09:09:14.953Z</time></trkpt><trkpt lat="44.362495" lon="11.20496"><ele>119.0</ele><time>2026-04-09T09:09:15.953Z</time></trkpt><trkpt lat="44.36242" lon="11.20488"><ele>119.0</ele><time>2026-04-09T09:09:16.952Z</time></trkpt><trkpt lat="44.3623383" lon="11.2048067"><ele>119.0</ele><time>2026-04-09T09:09:17.952Z</time></trkpt><trkpt lat="44.3622483" lon="11.2047383"><ele>119.0</ele><time>2026-04-09T09:09:18.953Z</time></trkpt><trkpt lat="44.3621517" lon="11.204685"><ele>122.0</ele><time>2026-04-09T09:09:19.951Z</time></trkpt><trkpt lat="44.362055" lon="11.2046383"><ele>125.0</ele><time>2026-04-09T09:09:20.951Z</time></trkpt><trkpt lat="44.3619617" lon="11.204605"><ele>128.0</ele><time>2026-04-09T09:09:21.951Z</time></trkpt><trkpt lat="44.3618667" lon="11.2045967"><ele>131.0</ele><time>2026-04-09T09:09:22.952Z</time></trkpt><trkpt lat="44.3617733" lon="11.2046033"><ele>134.0</ele><time>2026-04-09T09:09:23.951Z</time></trkpt><trkpt lat="44.3616817" lon="11.2046183"><ele>134.0</ele><time>2026-04-09T09:09:24.951Z</time></trkpt><trkpt lat="44.3615967" lon="11.2046433"><ele>134.0</ele><time>2026-04-09T09:09:25.951Z</time></trkpt><trkpt lat="44.3615167" lon="11.2046667"><ele>134.0</ele><time>2026-04-09T09:09:26.952Z</time></trkpt><trkpt lat="44.3614467" lon="11.204685"><ele>134.0</ele><time>2026-04-09T09:09:27.951Z</time></trkpt><trkpt lat="44.36138" lon="11.2047067"><ele>134.0</ele><time>2026-04-09T09:09:28.951Z</time></trkpt><trkpt lat="44.361315" lon="11.2047333"><ele>134.0</ele><time>2026-04-09T09:09:29.951Z</time></trkpt><trkpt lat="44.3612533" lon="11.2047517"><ele>134.0</ele><time>2026-04-09T09:09:30.951Z</time></trkpt><trkpt lat="44.3611283" lon="11.204795"><ele>130.0</ele><time>2026-04-09T09:09:32.951Z</time></trkpt><trkpt lat="44.3609783" lon="11.2048317"><ele>126.0</ele><time>2026-04-09T09:09:34.951Z</time></trkpt><trkpt lat="44.3608967" lon="11.2048533"><ele>122.0</ele><time>2026-04-09T09:09:35.951Z</time></trkpt><trkpt lat="44.3608183" lon="11.204885"><ele>118.0</ele><time>2026-04-09T09:09:36.952Z</time></trkpt><trkpt lat="44.3607467" lon="11.204915"><ele>114.0</ele><time>2026-04-09T09:09:37.951Z</time></trkpt><trkpt lat="44.3606717" lon="11.2049467"><ele>114.0</ele><time>2026-04-09T09:09:38.951Z</time></trkpt><trkpt lat="44.3605933" lon="11.2049817"><ele>114.0</ele><time>2026-04-09T09:09:39.951Z</time></trkpt><trkpt lat="44.360515" lon="11.20501"><ele>114.0</ele><time>2026-04-09T09:09:40.951Z</time></trkpt><trkpt lat="44.3604317" lon="11.2050367"><ele>114.0</ele><time>2026-04-09T09:09:41.951Z</time></trkpt><trkpt lat="44.3603583" lon="11.2050667"><ele>114.0</ele><time>2026-04-09T09:09:42.951Z</time></trkpt><trkpt lat="44.3602833" lon="11.205115"><ele>114.0</ele><time>2026-04-09T09:09:43.952Z</time></trkpt><trkpt lat="44.3602" lon="11.2051667"><ele>117.80000000000001</ele><time>2026-04-09T09:09:44.951Z</time></trkpt><trkpt lat="44.36011" lon="11.2052333"><ele>121.60000000000001</ele><time>2026-04-09T09:09:45.951Z</time></trkpt><trkpt lat="44.3600317" lon="11.2053067"><ele>125.4</ele><time>2026-04-09T09:09:46.951Z</time></trkpt><trkpt lat="44.3599567" lon="11.2053767"><ele>129.20000000000002</ele><time>2026-04-09T09:09:47.951Z</time></trkpt><trkpt lat="44.3598767" lon="11.2054517"><ele>133.0</ele><time>2026-04-09T09:09:48.951Z</time></trkpt><trkpt lat="44.3597917" lon="11.2055367"><ele>133.0</ele><time>2026-04-09T09:09:49.951Z</time></trkpt><trkpt lat="44.3597117" lon="11.2056283"><ele>133.0</ele><time>2026-04-09T09:09:50.951Z</time></trkpt><trkpt lat="44.3596367" lon="11.2057267"><ele>133.0</ele><time>2026-04-09T09:09:51.951Z</time></trkpt><trkpt lat="44.35956" lon="11.2058217"><ele>133.0</ele><time>2026-04-09T09:09:52.951Z</time></trkpt><trkpt lat="44.3594917" lon="11.2059017"><ele>133.0</ele><time>2026-04-09T09:09:53.951Z</time></trkpt><trkpt lat="44.3594167" lon="11.2060017"><ele>133.20000000000002</ele><time>2026-04-09T09:09:54.952Z</time></trkpt><trkpt lat="44.359345" lon="11.2060983"><ele>133.4</ele><time>2026-04-09T09:09:55.951Z</time></trkpt><trkpt lat="44.3592767" lon="11.20619"><ele>133.60000000000002</ele><time>2026-04-09T09:09:56.951Z</time></trkpt><trkpt lat="44.3592067" lon="11.2062767"><ele>133.8</ele><time>2026-04-09T09:09:57.951Z</time></trkpt><trkpt lat="44.3591433" lon="11.206365"><ele>134.0</ele><time>2026-04-09T09:09:58.951Z</time></trkpt><trkpt lat="44.3590717" lon="11.2064567"><ele>137.6</ele><time>2026-04-09T09:09:59.951Z</time></trkpt><trkpt lat="44.3590017" lon="11.2065583"><ele>141.2</ele><time>2026-04-09T09:10:00.951Z</time></trkpt><trkpt lat="44.358935" lon="11.20666"><ele>144.79999999999998</ele><time>2026-04-09T09:10:01.951Z</time></trkpt><trkpt lat="44.3588667" lon="11.206775"><ele>148.4</ele><time>2026-04-09T09:10:02.951Z</time></trkpt><trkpt lat="44.358785" lon="11.20688"><ele>152.0</ele><time>2026-04-09T09:10:03.951Z</time></trkpt><trkpt lat="44.3587117" lon="11.2069883"><ele>152.0</ele><time>2026-04-09T09:10:04.951Z</time></trkpt><trkpt lat="44.3586333" lon="11.207095"><ele>152.0</ele><time>2026-04-09T09:10:05.951Z</time></trkpt><trkpt lat="44.3585583" lon="11.2072017"><ele>152.0</ele><time>2026-04-09T09:10:06.952Z</time></trkpt><trkpt lat="44.3584867" lon="11.2073083"><ele>152.0</ele><time>2026-04-09T09:10:07.952Z</time></trkpt><trkpt lat="44.35841" lon="11.207405"><ele>152.0</ele><time>2026-04-09T09:10:08.951Z</time></trkpt><trkpt lat="44.358345" lon="11.2075067"><ele>152.2</ele><time>2026-04-09T09:10:09.951Z</time></trkpt><trkpt lat="44.35828" lon="11.2076083"><ele>152.39999999999998</ele><time>2026-04-09T09:10:10.951Z</time></trkpt><trkpt lat="44.358225" lon="11.20771"><ele>152.60000000000002</ele><time>2026-04-09T09:10:11.951Z</time></trkpt><trkpt lat="44.3581583" lon="11.20781"><ele>152.8</ele><time>2026-04-09T09:10:12.952Z</time></trkpt><trkpt lat="44.35809" lon="11.20792"><ele>153.0</ele><time>2026-04-09T09:10:13.951Z</time></trkpt><trkpt lat="44.35802" lon="11.208035"><ele>153.0</ele><time>2026-04-09T09:10:14.951Z</time></trkpt><trkpt lat="44.3579467" lon="11.2081467"><ele>153.0</ele><time>2026-04-09T09:10:15.951Z</time></trkpt><trkpt lat="44.357865" lon="11.20825"><ele>153.0</ele><time>2026-04-09T09:10:16.951Z</time></trkpt><trkpt lat="44.357785" lon="11.2083533"><ele>153.0</ele><time>2026-04-09T09:10:17.951Z</time></trkpt><trkpt lat="44.3577017" lon="11.2084417"><ele>153.0</ele><time>2026-04-09T09:10:18.951Z</time></trkpt><trkpt lat="44.3576117" lon="11.2085217"><ele>148.8</ele><time>2026-04-09T09:10:19.952Z</time></trkpt><trkpt lat="44.3575133" lon="11.2085767"><ele>144.60000000000002</ele><time>2026-04-09T09:10:20.951Z</time></trkpt><trkpt lat="44.35741" lon="11.2086083"><ele>140.39999999999998</ele><time>2026-04-09T09:10:21.951Z</time></trkpt><trkpt lat="44.3573017" lon="11.2086233"><ele>136.2</ele><time>2026-04-09T09:10:22.951Z</time></trkpt><trkpt lat="44.3572017" lon="11.20859"><ele>132.0</ele><time>2026-04-09T09:10:23.951Z</time></trkpt><trkpt lat="44.3571083" lon="11.2085333"><ele>131.2</ele><time>2026-04-09T09:10:24.952Z</time></trkpt><trkpt lat="44.3570133" lon="11.2084517"><ele>130.39999999999998</ele><time>2026-04-09T09:10:25.951Z</time></trkpt><trkpt lat="44.3569333" lon="11.2083417"><ele>129.60000000000002</ele><time>2026-04-09T09:10:26.951Z</time></trkpt><trkpt lat="44.356855" lon="11.2082217"><ele>128.8</ele><time>2026-04-09T09:10:27.952Z</time></trkpt><trkpt lat="44.3567883" lon="11.2081067"><ele>128.0</ele><time>2026-04-09T09:10:28.951Z</time></trkpt><trkpt lat="44.3567417" lon="11.2080133"><ele>129.6</ele><time>2026-04-09T09:10:29.951Z</time></trkpt><trkpt lat="44.356675" lon="11.2078867"><ele>131.20000000000002</ele><time>2026-04-09T09:10:31.951Z</time></trkpt><trkpt lat="44.3566267" lon="11.207795"><ele>132.8</ele><time>2026-04-09T09:10:34.952Z</time></trkpt><trkpt lat="44.356555" lon="11.2076883"><ele>134.4</ele><time>2026-04-09T09:10:37.951Z</time></trkpt><trkpt lat="44.3564717" lon="11.2075833"><ele>136.0</ele><time>2026-04-09T09:10:39.952Z</time></trkpt><trkpt lat="44.356425" lon="11.2075233"><ele>136.0</ele><time>2026-04-09T09:10:40.951Z</time></trkpt><trkpt lat="44.3563733" lon="11.2074633"><ele>136.0</ele><time>2026-04-09T09:10:41.951Z</time></trkpt><trkpt lat="44.3563217" lon="11.2073933"><ele>136.0</ele><time>2026-04-09T09:10:42.951Z</time></trkpt><trkpt lat="44.35627" lon="11.207325"><ele>136.0</ele><time>2026-04-09T09:10:43.951Z</time></trkpt><trkpt lat="44.35621" lon="11.207255"><ele>136.0</ele><time>2026-04-09T09:10:44.951Z</time></trkpt><trkpt lat="44.3561483" lon="11.207175"><ele>136.0</ele><time>2026-04-09T09:10:45.951Z</time></trkpt><trkpt lat="44.3560767" lon="11.2070933"><ele>136.0</ele><time>2026-04-09T09:10:46.951Z</time></trkpt><trkpt lat="44.3559983" lon="11.207005"><ele>136.0</ele><time>2026-04-09T09:10:47.951Z</time></trkpt><trkpt lat="44.3559217" lon="11.20692"><ele>136.0</ele><time>2026-04-09T09:10:48.951Z</time></trkpt><trkpt lat="44.3558317" lon="11.2068283"><ele>136.0</ele><time>2026-04-09T09:10:49.951Z</time></trkpt><trkpt lat="44.3557417" lon="11.2067333"><ele>136.0</ele><time>2026-04-09T09:10:50.951Z</time></trkpt><trkpt lat="44.3556467" lon="11.20665"><ele>136.0</ele><time>2026-04-09T09:10:51.951Z</time></trkpt><trkpt lat="44.3555433" lon="11.206585"><ele>136.0</ele><time>2026-04-09T09:10:52.951Z</time></trkpt><trkpt lat="44.3554283" lon="11.2065417"><ele>136.0</ele><time>2026-04-09T09:10:53.951Z</time></trkpt><trkpt lat="44.3553067" lon="11.2065133"><ele>136.0</ele><time>2026-04-09T09:10:54.952Z</time></trkpt><trkpt lat="44.35519" lon="11.2064883"><ele>141.0</ele><time>2026-04-09T09:10:55.951Z</time></trkpt><trkpt lat="44.35508" lon="11.2064683"><ele>146.0</ele><time>2026-04-09T09:10:56.951Z</time></trkpt><trkpt lat="44.3549633" lon="11.20645"><ele>151.0</ele><time>2026-04-09T09:10:57.951Z</time></trkpt><trkpt lat="44.354845" lon="11.2064333"><ele>156.0</ele><time>2026-04-09T09:10:58.951Z</time></trkpt><trkpt lat="44.3547233" lon="11.2064217"><ele>156.0</ele><time>2026-04-09T09:10:59.951Z</time></trkpt><trkpt lat="44.3545867" lon="11.206395"><ele>156.0</ele><time>2026-04-09T09:11:00.951Z</time></trkpt><trkpt lat="44.35444" lon="11.2063733"><ele>156.0</ele><time>2026-04-09T09:11:01.951Z</time></trkpt><trkpt lat="44.3542917" lon="11.20636"><ele>156.0</ele><time>2026-04-09T09:11:02.951Z</time></trkpt><trkpt lat="44.3541433" lon="11.2063317"><ele>156.0</ele><time>2026-04-09T09:11:03.951Z</time></trkpt><trkpt lat="44.3539917" lon="11.206295"><ele>156.0</ele><time>2026-04-09T09:11:04.951Z</time></trkpt><trkpt lat="44.3538433" lon="11.20626"><ele>156.0</ele><time>2026-04-09T09:11:05.951Z</time></trkpt><trkpt lat="44.3537" lon="11.206215"><ele>154.66666666666666</ele><time>2026-04-09T09:11:06.951Z</time></trkpt><trkpt lat="44.3535467" lon="11.2061683"><ele>153.33333333333331</ele><time>2026-04-09T09:11:07.951Z</time></trkpt><trkpt lat="44.3533867" lon="11.2061283"><ele>152.0</ele><time>2026-04-09T09:11:08.951Z</time></trkpt><trkpt lat="44.3532383" lon="11.2061"><ele>152.0</ele><time>2026-04-09T09:11:09.952Z</time></trkpt><trkpt lat="44.3530867" lon="11.2060683"><ele>152.0</ele><time>2026-04-09T09:11:10.951Z</time></trkpt><trkpt lat="44.3529367" lon="11.206045"><ele>152.0</ele><time>2026-04-09T09:11:11.952Z</time></trkpt><trkpt lat="44.3527883" lon="11.2060217"><ele>150.5</ele><time>2026-04-09T09:11:12.952Z</time></trkpt><trkpt lat="44.3526433" lon="11.206"><ele>149.0</ele><time>2026-04-09T09:11:13.952Z</time></trkpt><trkpt lat="44.352495" lon="11.2059767"><ele>147.5</ele><time>2026-04-09T09:11:14.951Z</time></trkpt><trkpt lat="44.3523483" lon="11.2059533"><ele>146.0</ele><time>2026-04-09T09:11:15.952Z</time></trkpt><trkpt lat="44.352195" lon="11.2059267"><ele>146.0</ele><time>2026-04-09T09:11:16.952Z</time></trkpt><trkpt lat="44.3520383" lon="11.2059017"><ele>146.0</ele><time>2026-04-09T09:11:17.951Z</time></trkpt><trkpt lat="44.351875" lon="11.205885"><ele>146.0</ele><time>2026-04-09T09:11:18.951Z</time></trkpt><trkpt lat="44.3517083" lon="11.2058767"><ele>146.0</ele><time>2026-04-09T09:11:19.951Z</time></trkpt><trkpt lat="44.35154" lon="11.2058717"><ele>146.0</ele><time>2026-04-09T09:11:20.951Z</time></trkpt><trkpt lat="44.35137" lon="11.20588"><ele>146.0</ele><time>2026-04-09T09:11:21.951Z</time></trkpt><trkpt lat="44.3511933" lon="11.205895"><ele>144.66666666666666</ele><time>2026-04-09T09:11:22.951Z</time></trkpt><trkpt lat="44.3510167" lon="11.20592"><ele>143.33333333333334</ele><time>2026-04-09T09:11:23.952Z</time></trkpt><trkpt lat="44.35084" lon="11.20594"><ele>142.0</ele><time>2026-04-09T09:11:24.952Z</time></trkpt><trkpt lat="44.3506667" lon="11.20596"><ele>140.66666666666669</ele><time>2026-04-09T09:11:25.951Z</time></trkpt><trkpt lat="44.3504917" lon="11.20598"><ele>139.33333333333334</ele><time>2026-04-09T09:11:26.951Z</time></trkpt><trkpt lat="44.3503133" lon="11.2059817"><ele>138.0</ele><time>2026-04-09T09:11:27.951Z</time></trkpt><trkpt lat="44.35013" lon="11.2059617"><ele>138.0</ele><time>2026-04-09T09:11:28.951Z</time></trkpt><trkpt lat="44.3499483" lon="11.205925"><ele>138.0</ele><time>2026-04-09T09:11:29.951Z</time></trkpt><trkpt lat="44.3497783" lon="11.2058633"><ele>138.0</ele><time>2026-04-09T09:11:30.951Z</time></trkpt><trkpt lat="44.3496133" lon="11.2057917"><ele>136.33333333333334</ele><time>2026-04-09T09:11:31.951Z</time></trkpt><trkpt lat="44.349445" lon="11.20573"><ele>134.66666666666669</ele><time>2026-04-09T09:11:32.952Z</time></trkpt><trkpt lat="44.3492733" lon="11.2056767"><ele>133.0</ele><time>2026-04-09T09:11:33.952Z</time></trkpt><trkpt lat="44.3491133" lon="11.2056167"><ele>136.66666666666669</ele><time>2026-04-09T09:11:34.951Z</time></trkpt><trkpt lat="44.3489567" lon="11.2055367"><ele>140.33333333333334</ele><time>2026-04-09T09:11:35.952Z</time></trkpt><trkpt lat="44.34881" lon="11.205445"><ele>144.0</ele><time>2026-04-09T09:11:36.951Z</time></trkpt><trkpt lat="44.348655" lon="11.205355"><ele>144.0</ele><time>2026-04-09T09:11:37.951Z</time></trkpt><trkpt lat="44.3484967" lon="11.20527"><ele>144.0</ele><time>2026-04-09T09:11:38.951Z</time></trkpt><trkpt lat="44.3483333" lon="11.2052"><ele>144.0</ele><time>2026-04-09T09:11:39.951Z</time></trkpt><trkpt lat="44.3481717" lon="11.2051383"><ele>143.33333333333334</ele><time>2026-04-09T09:11:40.952Z</time></trkpt><trkpt lat="44.3480183" lon="11.2050783"><ele>142.66666666666669</ele><time>2026-04-09T09:11:41.951Z</time></trkpt><trkpt lat="44.3478633" lon="11.205035"><ele>142.0</ele><time>2026-04-09T09:11:42.951Z</time></trkpt><trkpt lat="44.3477117" lon="11.2049883"><ele>142.0</ele><time>2026-04-09T09:11:43.951Z</time></trkpt><trkpt lat="44.3475567" lon="11.2049633"><ele>142.0</ele><time>2026-04-09T09:11:44.951Z</time></trkpt><trkpt lat="44.3474067" lon="11.20496"><ele>142.0</ele><time>2026-04-09T09:11:45.951Z</time></trkpt><trkpt lat="44.3472583" lon="11.2049833"><ele>141.0</ele><time>2026-04-09T09:11:46.951Z</time></trkpt><trkpt lat="44.3471183" lon="11.2050167"><ele>140.0</ele><time>2026-04-09T09:11:47.951Z</time></trkpt><trkpt lat="44.34698" lon="11.2050367"><ele>139.0</ele><time>2026-04-09T09:11:48.951Z</time></trkpt><trkpt lat="44.3468333" lon="11.205055"><ele>138.0</ele><time>2026-04-09T09:11:49.952Z</time></trkpt><trkpt lat="44.3466883" lon="11.2050517"><ele>138.0</ele><time>2026-04-09T09:11:50.952Z</time></trkpt><trkpt lat="44.3465517" lon="11.2050167"><ele>138.0</ele><time>2026-04-09T09:11:51.951Z</time></trkpt><trkpt lat="44.3464233" lon="11.204955"><ele>138.0</ele><time>2026-04-09T09:11:52.951Z</time></trkpt><trkpt lat="44.3463" lon="11.2048767"><ele>138.0</ele><time>2026-04-09T09:11:53.951Z</time></trkpt><trkpt lat="44.3461783" lon="11.204805"><ele>138.75</ele><time>2026-04-09T09:11:54.951Z</time></trkpt><trkpt lat="44.3460617" lon="11.2047383"><ele>139.5</ele><time>2026-04-09T09:11:55.952Z</time></trkpt><trkpt lat="44.3459533" lon="11.2046883"><ele>140.25</ele><time>2026-04-09T09:11:56.952Z</time></trkpt><trkpt lat="44.34584" lon="11.2046583"><ele>141.0</ele><time>2026-04-09T09:11:57.952Z</time></trkpt><trkpt lat="44.3457283" lon="11.2046533"><ele>141.0</ele><time>2026-04-09T09:11:58.951Z</time></trkpt><trkpt lat="44.3456083" lon="11.2046733"><ele>141.0</ele><time>2026-04-09T09:11:59.952Z</time></trkpt><trkpt lat="44.3454867" lon="11.2047467"><ele>141.0</ele><time>2026-04-09T09:12:00.952Z</time></trkpt><trkpt lat="44.3453883" lon="11.2048583"><ele>141.0</ele><time>2026-04-09T09:12:01.951Z</time></trkpt><trkpt lat="44.3453133" lon="11.204985"><ele>144.0</ele><time>2026-04-09T09:12:02.951Z</time></trkpt><trkpt lat="44.3452483" lon="11.20512"><ele>147.0</ele><time>2026-04-09T09:12:03.951Z</time></trkpt><trkpt lat="44.3451883" lon="11.2052667"><ele>150.0</ele><time>2026-04-09T09:12:04.951Z</time></trkpt><trkpt lat="44.3451367" lon="11.2054083"><ele>153.0</ele><time>2026-04-09T09:12:05.952Z</time></trkpt><trkpt lat="44.3450933" lon="11.2055417"><ele>151.0</ele><time>2026-04-09T09:12:06.951Z</time></trkpt><trkpt lat="44.3450533" lon="11.20568"><ele>149.0</ele><time>2026-04-09T09:12:07.951Z</time></trkpt><trkpt lat="44.3450033" lon="11.2058283"><ele>147.0</ele><time>2026-04-09T09:12:08.951Z</time></trkpt><trkpt lat="44.3449417" lon="11.2059633"><ele>145.0</ele><time>2026-04-09T09:12:09.951Z</time></trkpt><trkpt lat="44.3448733" lon="11.2060867"><ele>145.0</ele><time>2026-04-09T09:12:10.952Z</time></trkpt><trkpt lat="44.3447917" lon="11.2061933"><ele>145.0</ele><time>2026-04-09T09:12:11.951Z</time></trkpt><trkpt lat="44.3446917" lon="11.2062967"><ele>145.0</ele><time>2026-04-09T09:12:12.951Z</time></trkpt><trkpt lat="44.34459" lon="11.2063767"><ele>145.0</ele><time>2026-04-09T09:12:13.952Z</time></trkpt><trkpt lat="44.3444783" lon="11.20645"><ele>145.5</ele><time>2026-04-09T09:12:14.951Z</time></trkpt><trkpt lat="44.3443567" lon="11.2065117"><ele>146.0</ele><time>2026-04-09T09:12:15.951Z</time></trkpt><trkpt lat="44.3442317" lon="11.206565"><ele>146.5</ele><time>2026-04-09T09:12:16.951Z</time></trkpt><trkpt lat="44.3441117" lon="11.20662"><ele>147.0</ele><time>2026-04-09T09:12:17.951Z</time></trkpt><trkpt lat="44.3439883" lon="11.206665"><ele>144.0</ele><time>2026-04-09T09:12:18.951Z</time></trkpt><trkpt lat="44.3438583" lon="11.2067183"><ele>141.0</ele><time>2026-04-09T09:12:19.951Z</time></trkpt><trkpt lat="44.3437283" lon="11.206755"><ele>138.0</ele><time>2026-04-09T09:12:20.952Z</time></trkpt><trkpt lat="44.3436017" lon="11.2067667"><ele>135.0</ele><time>2026-04-09T09:12:21.951Z</time></trkpt><trkpt lat="44.3434667" lon="11.2067467"><ele>135.0</ele><time>2026-04-09T09:12:22.952Z</time></trkpt><trkpt lat="44.343345" lon="11.2066983"><ele>135.0</ele><time>2026-04-09T09:12:23.951Z</time></trkpt><trkpt lat="44.34324" lon="11.2066117"><ele>135.0</ele><time>2026-04-09T09:12:24.951Z</time></trkpt><trkpt lat="44.3431517" lon="11.2065033"><ele>135.0</ele><time>2026-04-09T09:12:25.951Z</time></trkpt><trkpt lat="44.34307" lon="11.20639"><ele>134.0</ele><time>2026-04-09T09:12:26.952Z</time></trkpt><trkpt lat="44.3429933" lon="11.2062817"><ele>133.0</ele><time>2026-04-09T09:12:27.951Z</time></trkpt><trkpt lat="44.3429217" lon="11.206175"><ele>132.0</ele><time>2026-04-09T09:12:28.952Z</time></trkpt><trkpt lat="44.34285" lon="11.2060867"><ele>131.0</ele><time>2026-04-09T09:12:29.951Z</time></trkpt><trkpt lat="44.3427833" lon="11.206015"><ele>130.0</ele><time>2026-04-09T09:12:30.952Z</time></trkpt><trkpt lat="44.3427167" lon="11.2059167"><ele>130.0</ele><time>2026-04-09T09:12:32.951Z</time></trkpt><trkpt lat="44.3426617" lon="11.20584"><ele>130.0</ele><time>2026-04-09T09:12:34.951Z</time></trkpt><trkpt lat="44.34259" lon="11.20574"><ele>130.0</ele><time>2026-04-09T09:12:36.951Z</time></trkpt><trkpt lat="44.342495" lon="11.2056083"><ele>130.0</ele><time>2026-04-09T09:12:38.951Z</time></trkpt><trkpt lat="44.3424367" lon="11.205525"><ele>130.0</ele><time>2026-04-09T09:12:39.951Z</time></trkpt><trkpt lat="44.342375" lon="11.2054333"><ele>130.0</ele><time>2026-04-09T09:12:40.951Z</time></trkpt><trkpt lat="44.3423117" lon="11.205345"><ele>130.0</ele><time>2026-04-09T09:12:41.952Z</time></trkpt><trkpt lat="44.3422417" lon="11.20525"><ele>130.0</ele><time>2026-04-09T09:12:42.951Z</time></trkpt><trkpt lat="44.3421717" lon="11.2051567"><ele>130.0</ele><time>2026-04-09T09:12:43.951Z</time></trkpt><trkpt lat="44.3421067" lon="11.205065"><ele>130.0</ele><time>2026-04-09T09:12:44.951Z</time></trkpt><trkpt lat="44.3420383" lon="11.20498"><ele>130.0</ele><time>2026-04-09T09:12:45.951Z</time></trkpt><trkpt lat="44.3419767" lon="11.204895"><ele>130.0</ele><time>2026-04-09T09:12:46.951Z</time></trkpt><trkpt lat="44.3419167" lon="11.204815"><ele>130.0</ele><time>2026-04-09T09:12:47.951Z</time></trkpt><trkpt lat="44.341855" lon="11.2047333"><ele>130.0</ele><time>2026-04-09T09:12:48.951Z</time></trkpt><trkpt lat="44.3418" lon="11.2046517"><ele>130.0</ele><time>2026-04-09T09:12:49.951Z</time></trkpt><trkpt lat="44.3417433" lon="11.2045767"><ele>130.0</ele><time>2026-04-09T09:12:50.951Z</time></trkpt><trkpt lat="44.3416933" lon="11.2045133"><ele>130.4</ele><time>2026-04-09T09:12:51.952Z</time></trkpt><trkpt lat="44.341645" lon="11.20445"><ele>130.8</ele><time>2026-04-09T09:12:52.952Z</time></trkpt><trkpt lat="44.34159" lon="11.204365"><ele>131.2</ele><time>2026-04-09T09:12:53.951Z</time></trkpt><trkpt lat="44.3415183" lon="11.2042733"><ele>131.6</ele><time>2026-04-09T09:12:54.951Z</time></trkpt><trkpt lat="44.34144" lon="11.2041667"><ele>132.0</ele><time>2026-04-09T09:12:55.951Z</time></trkpt><trkpt lat="44.3413617" lon="11.2040417"><ele>132.5</ele><time>2026-04-09T09:12:56.951Z</time></trkpt><trkpt lat="44.34127" lon="11.2039133"><ele>133.0</ele><time>2026-04-09T09:12:57.951Z</time></trkpt><trkpt lat="44.3411767" lon="11.2037933"><ele>133.5</ele><time>2026-04-09T09:12:58.951Z</time></trkpt><trkpt lat="44.34108" lon="11.2036733"><ele>134.0</ele><time>2026-04-09T09:12:59.951Z</time></trkpt><trkpt lat="44.3409867" lon="11.203555"><ele>134.0</ele><time>2026-04-09T09:13:00.951Z</time></trkpt><trkpt lat="44.3408933" lon="11.2034367"><ele>134.0</ele><time>2026-04-09T09:13:01.951Z</time></trkpt><trkpt lat="44.3408017" lon="11.20332"><ele>134.0</ele><time>2026-04-09T09:13:02.952Z</time></trkpt><trkpt lat="44.3407133" lon="11.2032"><ele>134.0</ele><time>2026-04-09T09:13:03.951Z</time></trkpt><trkpt lat="44.34062" lon="11.2030983"><ele>137.2</ele><time>2026-04-09T09:13:04.951Z</time></trkpt><trkpt lat="44.3405183" lon="11.203015"><ele>140.4</ele><time>2026-04-09T09:13:05.952Z</time></trkpt><trkpt lat="44.34042" lon="11.2029567"><ele>143.6</ele><time>2026-04-09T09:13:06.951Z</time></trkpt><trkpt lat="44.3403533" lon="11.2029217"><ele>146.8</ele><time>2026-04-09T09:13:07.951Z</time></trkpt><trkpt lat="44.3402767" lon="11.2028867"><ele>150.0</ele><time>2026-04-09T09:13:08.951Z</time></trkpt><trkpt lat="44.3401917" lon="11.202855"><ele>150.0</ele><time>2026-04-09T09:13:09.951Z</time></trkpt><trkpt lat="44.3400833" lon="11.2028367"><ele>150.0</ele><time>2026-04-09T09:13:10.951Z</time></trkpt><trkpt lat="44.3399383" lon="11.2028383"><ele>150.0</ele><time>2026-04-09T09:13:11.951Z</time></trkpt><trkpt lat="44.339775" lon="11.202845"><ele>150.0</ele><time>2026-04-09T09:13:12.951Z</time></trkpt><trkpt lat="44.3395983" lon="11.20284"><ele>152.66666666666666</ele><time>2026-04-09T09:13:13.951Z</time></trkpt><trkpt lat="44.33941" lon="11.2028483"><ele>155.33333333333331</ele><time>2026-04-09T09:13:14.952Z</time></trkpt><trkpt lat="44.3392133" lon="11.2028767"><ele>158.0</ele><time>2026-04-09T09:13:15.952Z</time></trkpt><trkpt lat="44.3390283" lon="11.2029117"><ele>158.66666666666666</ele><time>2026-04-09T09:13:16.951Z</time></trkpt><trkpt lat="44.3388467" lon="11.2029617"><ele>159.33333333333334</ele><time>2026-04-09T09:13:17.951Z</time></trkpt><trkpt lat="44.3386767" lon="11.2030117"><ele>160.0</ele><time>2026-04-09T09:13:18.952Z</time></trkpt><trkpt lat="44.3385167" lon="11.2030733"><ele>160.0</ele><time>2026-04-09T09:13:19.951Z</time></trkpt><trkpt lat="44.338365" lon="11.2031333"><ele>160.0</ele><time>2026-04-09T09:13:20.951Z</time></trkpt><trkpt lat="44.338225" lon="11.2031917"><ele>160.0</ele><time>2026-04-09T09:13:21.952Z</time></trkpt><trkpt lat="44.3380917" lon="11.2032483"><ele>160.0</ele><time>2026-04-09T09:13:22.951Z</time></trkpt><trkpt lat="44.33796" lon="11.2032933"><ele>158.5</ele><time>2026-04-09T09:13:23.951Z</time></trkpt><trkpt lat="44.3378267" lon="11.20333"><ele>157.0</ele><time>2026-04-09T09:13:24.951Z</time></trkpt><trkpt lat="44.337695" lon="11.20334"><ele>155.5</ele><time>2026-04-09T09:13:25.951Z</time></trkpt><trkpt lat="44.337555" lon="11.2033333"><ele>154.0</ele><time>2026-04-09T09:13:26.952Z</time></trkpt><trkpt lat="44.337425" lon="11.2032983"><ele>154.0</ele><time>2026-04-09T09:13:27.951Z</time></trkpt><trkpt lat="44.337295" lon="11.20324"><ele>154.0</ele><time>2026-04-09T09:13:28.951Z</time></trkpt><trkpt lat="44.3371867" lon="11.2031617"><ele>154.0</ele><time>2026-04-09T09:13:29.952Z</time></trkpt><trkpt lat="44.337095" lon="11.2030633"><ele>154.0</ele><time>2026-04-09T09:13:30.952Z</time></trkpt><trkpt lat="44.3370367" lon="11.202925"><ele>155.0</ele><time>2026-04-09T09:13:31.951Z</time></trkpt><trkpt lat="44.3369967" lon="11.20277"><ele>156.0</ele><time>2026-04-09T09:13:32.952Z</time></trkpt><trkpt lat="44.3369783" lon="11.2025967"><ele>157.0</ele><time>2026-04-09T09:13:33.951Z</time></trkpt><trkpt lat="44.3369617" lon="11.202415"><ele>158.0</ele><time>2026-04-09T09:13:34.95Z</time></trkpt><trkpt lat="44.3369217" lon="11.2022467"><ele>159.25</ele><time>2026-04-09T09:13:35.95Z</time></trkpt><trkpt lat="44.3368617" lon="11.202095"><ele>160.5</ele><time>2026-04-09T09:13:36.95Z</time></trkpt><trkpt lat="44.33677" lon="11.2019583"><ele>161.75</ele><time>2026-04-09T09:13:37.951Z</time></trkpt><trkpt lat="44.3366633" lon="11.20184"><ele>163.0</ele><time>2026-04-09T09:13:38.95Z</time></trkpt><trkpt lat="44.33655" lon="11.2017267"><ele>163.0</ele><time>2026-04-09T09:13:39.95Z</time></trkpt><trkpt lat="44.3364333" lon="11.2016267"><ele>163.0</ele><time>2026-04-09T09:13:40.95Z</time></trkpt><trkpt lat="44.3363217" lon="11.201525"><ele>163.0</ele><time>2026-04-09T09:13:41.95Z</time></trkpt><trkpt lat="44.3362083" lon="11.2014233"><ele>163.0</ele><time>2026-04-09T09:13:42.951Z</time></trkpt><trkpt lat="44.3360983" lon="11.2013183"><ele>164.0</ele><time>2026-04-09T09:13:43.95Z</time></trkpt><trkpt lat="44.335985" lon="11.201205"><ele>165.0</ele><time>2026-04-09T09:13:44.95Z</time></trkpt><trkpt lat="44.335865" lon="11.201095"><ele>166.0</ele><time>2026-04-09T09:13:45.95Z</time></trkpt><trkpt lat="44.335745" lon="11.2009817"><ele>167.0</ele><time>2026-04-09T09:13:46.95Z</time></trkpt><trkpt lat="44.3356233" lon="11.20086"><ele>164.5</ele><time>2026-04-09T09:13:47.95Z</time></trkpt><trkpt lat="44.3355033" lon="11.200755"><ele>162.0</ele><time>2026-04-09T09:13:48.95Z</time></trkpt><trkpt lat="44.3354067" lon="11.2006517"><ele>159.5</ele><time>2026-04-09T09:13:49.95Z</time></trkpt><trkpt lat="44.3353283" lon="11.20052"><ele>157.0</ele><time>2026-04-09T09:13:50.95Z</time></trkpt><trkpt lat="44.3352667" lon="11.2003683"><ele>156.0</ele><time>2026-04-09T09:13:51.95Z</time></trkpt><trkpt lat="44.3352267" lon="11.200215"><ele>155.0</ele><time>2026-04-09T09:13:52.95Z</time></trkpt><trkpt lat="44.3352033" lon="11.2000517"><ele>154.0</ele><time>2026-04-09T09:13:53.95Z</time></trkpt><trkpt lat="44.3351967" lon="11.1998883"><ele>153.0</ele><time>2026-04-09T09:13:54.951Z</time></trkpt><trkpt lat="44.3352117" lon="11.199715"><ele>151.75</ele><time>2026-04-09T09:13:55.951Z</time></trkpt><trkpt lat="44.33524" lon="11.199545"><ele>150.5</ele><time>2026-04-09T09:13:56.95Z</time></trkpt><trkpt lat="44.3352667" lon="11.1993633"><ele>149.25</ele><time>2026-04-09T09:13:57.951Z</time></trkpt><trkpt lat="44.3352983" lon="11.199165"><ele>148.0</ele><time>2026-04-09T09:13:58.95Z</time></trkpt><trkpt lat="44.33533" lon="11.19898"><ele>146.25</ele><time>2026-04-09T09:13:59.95Z</time></trkpt><trkpt lat="44.3353617" lon="11.1987883"><ele>144.5</ele><time>2026-04-09T09:14:00.95Z</time></trkpt><trkpt lat="44.3353983" lon="11.1986017"><ele>142.75</ele><time>2026-04-09T09:14:01.95Z</time></trkpt><trkpt lat="44.3354333" lon="11.1984117"><ele>141.0</ele><time>2026-04-09T09:14:02.95Z</time></trkpt><trkpt lat="44.3354517" lon="11.1982267"><ele>141.0</ele><time>2026-04-09T09:14:03.95Z</time></trkpt><trkpt lat="44.3354567" lon="11.1980383"><ele>141.0</ele><time>2026-04-09T09:14:04.95Z</time></trkpt><trkpt lat="44.33544" lon="11.1978417"><ele>141.0</ele><time>2026-04-09T09:14:05.95Z</time></trkpt><trkpt lat="44.3354083" lon="11.1976617"><ele>141.0</ele><time>2026-04-09T09:14:06.95Z</time></trkpt><trkpt lat="44.3353683" lon="11.1974833"><ele>142.0</ele><time>2026-04-09T09:14:07.951Z</time></trkpt><trkpt lat="44.3353233" lon="11.1973017"><ele>143.0</ele><time>2026-04-09T09:14:08.951Z</time></trkpt><trkpt lat="44.33528" lon="11.19711"><ele>144.0</ele><time>2026-04-09T09:14:09.95Z</time></trkpt><trkpt lat="44.3352333" lon="11.196915"><ele>145.0</ele><time>2026-04-09T09:14:10.95Z</time></trkpt><trkpt lat="44.33519" lon="11.1967133"><ele>145.0</ele><time>2026-04-09T09:14:11.95Z</time></trkpt><trkpt lat="44.3351383" lon="11.1965167"><ele>145.0</ele><time>2026-04-09T09:14:12.951Z</time></trkpt><trkpt lat="44.3350917" lon="11.1963183"><ele>145.0</ele><time>2026-04-09T09:14:13.95Z</time></trkpt><trkpt lat="44.3350483" lon="11.1961217"><ele>145.0</ele><time>2026-04-09T09:14:14.95Z</time></trkpt><trkpt lat="44.3349917" lon="11.1959167"><ele>146.0</ele><time>2026-04-09T09:14:15.95Z</time></trkpt><trkpt lat="44.3349433" lon="11.1957217"><ele>147.0</ele><time>2026-04-09T09:14:16.95Z</time></trkpt><trkpt lat="44.3348967" lon="11.19553"><ele>148.0</ele><time>2026-04-09T09:14:17.951Z</time></trkpt><trkpt lat="44.3348483" lon="11.19534"><ele>149.0</ele><time>2026-04-09T09:14:18.95Z</time></trkpt><trkpt lat="44.3348017" lon="11.1951667"><ele>150.25</ele><time>2026-04-09T09:14:19.95Z</time></trkpt><trkpt lat="44.3347583" lon="11.195"><ele>151.5</ele><time>2026-04-09T09:14:20.95Z</time></trkpt><trkpt lat="44.334725" lon="11.1948517"><ele>152.75</ele><time>2026-04-09T09:14:21.95Z</time></trkpt><trkpt lat="44.33469" lon="11.19471"><ele>154.0</ele><time>2026-04-09T09:14:22.95Z</time></trkpt><trkpt lat="44.3346567" lon="11.1945667"><ele>151.2</ele><time>2026-04-09T09:14:23.95Z</time></trkpt><trkpt lat="44.33462" lon="11.194425"><ele>148.4</ele><time>2026-04-09T09:14:24.95Z</time></trkpt><trkpt lat="44.33459" lon="11.19428"><ele>145.6</ele><time>2026-04-09T09:14:25.95Z</time></trkpt><trkpt lat="44.3345533" lon="11.1941367"><ele>142.8</ele><time>2026-04-09T09:14:26.95Z</time></trkpt><trkpt lat="44.3345167" lon="11.19399"><ele>140.0</ele><time>2026-04-09T09:14:27.95Z</time></trkpt><trkpt lat="44.3344767" lon="11.193825"><ele>140.0</ele><time>2026-04-09T09:14:28.95Z</time></trkpt><trkpt lat="44.3344367" lon="11.19365"><ele>140.0</ele><time>2026-04-09T09:14:29.95Z</time></trkpt><trkpt lat="44.334395" lon="11.19347"><ele>140.0</ele><time>2026-04-09T09:14:30.95Z</time></trkpt><trkpt lat="44.33435" lon="11.1932833"><ele>140.0</ele><time>2026-04-09T09:14:31.95Z</time></trkpt><trkpt lat="44.3343033" lon="11.19309"><ele>140.5</ele><time>2026-04-09T09:14:32.95Z</time></trkpt><trkpt lat="44.3342533" lon="11.1928983"><ele>141.0</ele><time>2026-04-09T09:14:33.951Z</time></trkpt><trkpt lat="44.334215" lon="11.1927"><ele>141.5</ele><time>2026-04-09T09:14:34.95Z</time></trkpt><trkpt lat="44.3341667" lon="11.1925133"><ele>142.0</ele><time>2026-04-09T09:14:35.95Z</time></trkpt><trkpt lat="44.3341117" lon="11.1923267"><ele>142.0</ele><time>2026-04-09T09:14:36.95Z</time></trkpt><trkpt lat="44.334055" lon="11.1921367"><ele>142.0</ele><time>2026-04-09T09:14:37.95Z</time></trkpt><trkpt lat="44.3339867" lon="11.1919433"><ele>142.0</ele><time>2026-04-09T09:14:38.95Z</time></trkpt><trkpt lat="44.3339217" lon="11.1917433"><ele>141.66666666666669</ele><time>2026-04-09T09:14:39.95Z</time></trkpt><trkpt lat="44.3338633" lon="11.1915383"><ele>141.33333333333334</ele><time>2026-04-09T09:14:40.95Z</time></trkpt><trkpt lat="44.3337933" lon="11.1913367"><ele>141.0</ele><time>2026-04-09T09:14:41.95Z</time></trkpt><trkpt lat="44.3337267" lon="11.1911433"><ele>141.0</ele><time>2026-04-09T09:14:42.95Z</time></trkpt><trkpt lat="44.3336667" lon="11.1909467"><ele>141.0</ele><time>2026-04-09T09:14:43.951Z</time></trkpt><trkpt lat="44.333605" lon="11.1907567"><ele>141.0</ele><time>2026-04-09T09:14:44.95Z</time></trkpt><trkpt lat="44.3335383" lon="11.190575"><ele>141.0</ele><time>2026-04-09T09:14:45.95Z</time></trkpt><trkpt lat="44.33348" lon="11.19039"><ele>141.66666666666666</ele><time>2026-04-09T09:14:46.95Z</time></trkpt><trkpt lat="44.3334167" lon="11.1902033"><ele>142.33333333333331</ele><time>2026-04-09T09:14:47.951Z</time></trkpt><trkpt lat="44.3333583" lon="11.1900033"><ele>143.0</ele><time>2026-04-09T09:14:48.95Z</time></trkpt><trkpt lat="44.3333017" lon="11.1898017"><ele>143.66666666666666</ele><time>2026-04-09T09:14:49.95Z</time></trkpt><trkpt lat="44.333235" lon="11.1896067"><ele>144.33333333333334</ele><time>2026-04-09T09:14:50.951Z</time></trkpt><trkpt lat="44.3331683" lon="11.1894067"><ele>145.0</ele><time>2026-04-09T09:14:51.95Z</time></trkpt><trkpt lat="44.3331067" lon="11.189205"><ele>145.33333333333334</ele><time>2026-04-09T09:14:52.95Z</time></trkpt><trkpt lat="44.3330417" lon="11.1890183"><ele>145.66666666666666</ele><time>2026-04-09T09:14:53.951Z</time></trkpt><trkpt lat="44.3329817" lon="11.18882"><ele>146.0</ele><time>2026-04-09T09:14:54.95Z</time></trkpt><trkpt lat="44.3329233" lon="11.18863"><ele>146.0</ele><time>2026-04-09T09:14:55.95Z</time></trkpt><trkpt lat="44.332865" lon="11.1884367"><ele>146.0</ele><time>2026-04-09T09:14:56.95Z</time></trkpt><trkpt lat="44.332795" lon="11.18825"><ele>146.0</ele><time>2026-04-09T09:14:57.95Z</time></trkpt><trkpt lat="44.3327267" lon="11.1880583"><ele>146.33333333333331</ele><time>2026-04-09T09:14:58.95Z</time></trkpt><trkpt lat="44.332665" lon="11.1878667"><ele>146.66666666666666</ele><time>2026-04-09T09:14:59.951Z</time></trkpt><trkpt lat="44.3326017" lon="11.1876733"><ele>147.0</ele><time>2026-04-09T09:15:00.95Z</time></trkpt><trkpt lat="44.3325117" lon="11.187505"><ele>147.0</ele><time>2026-04-09T09:15:01.951Z</time></trkpt><trkpt lat="44.3324133" lon="11.1873417"><ele>147.0</ele><time>2026-04-09T09:15:02.95Z</time></trkpt><trkpt lat="44.332305" lon="11.1872083"><ele>147.0</ele><time>2026-04-09T09:15:03.951Z</time></trkpt><trkpt lat="44.3321967" lon="11.187075"><ele>147.0</ele><time>2026-04-09T09:15:04.95Z</time></trkpt><trkpt lat="44.3320833" lon="11.186945"><ele>147.0</ele><time>2026-04-09T09:15:05.95Z</time></trkpt><trkpt lat="44.3319767" lon="11.1868083"><ele>147.0</ele><time>2026-04-09T09:15:06.95Z</time></trkpt><trkpt lat="44.33187" lon="11.186675"><ele>147.0</ele><time>2026-04-09T09:15:07.95Z</time></trkpt><trkpt lat="44.3317667" lon="11.1865383"><ele>147.0</ele><time>2026-04-09T09:15:08.95Z</time></trkpt></trkseg><trkseg><trkpt lat="44.32182" lon="11.1864083"><ele>172.0</ele><time>2026-04-09T09:18:05.95Z</time></trkpt><trkpt lat="44.321735" lon="11.1864867"><ele>172.0</ele><time>2026-04-09T09:18:34.949Z</time></trkpt><trkpt lat="44.3216733" lon="11.1865133"><ele>172.0</ele><time>2026-04-09T09:18:35.949Z</time></trkpt><trkpt lat="44.3215883" lon="11.1865383"><ele>172.0</ele><time>2026-04-09T09:18:36.949Z</time></trkpt><trkpt lat="44.3214883" lon="11.186575"><ele>172.0</ele><time>2026-04-09T09:18:37.949Z</time></trkpt><trkpt lat="44.3213783" lon="11.1866217"><ele>176.0</ele><time>2026-04-09T09:18:38.949Z</time></trkpt><trkpt lat="44.3212717" lon="11.186655"><ele>180.0</ele><time>2026-04-09T09:18:39.949Z</time></trkpt><trkpt lat="44.3211567" lon="11.18666"><ele>184.0</ele><time>2026-04-09T09:18:40.95Z</time></trkpt><trkpt lat="44.3210333" lon="11.18664"><ele>188.0</ele><time>2026-04-09T09:18:41.949Z</time></trkpt><trkpt lat="44.3209033" lon="11.1866017"><ele>188.0</ele><time>2026-04-09T09:18:42.95Z</time></trkpt><trkpt lat="44.32078" lon="11.186545"><ele>188.0</ele><time>2026-04-09T09:18:43.95Z</time></trkpt><trkpt lat="44.3206483" lon="11.1865033"><ele>188.0</ele><time>2026-04-09T09:18:44.949Z</time></trkpt><trkpt lat="44.3205167" lon="11.18646"><ele>188.0</ele><time>2026-04-09T09:18:45.949Z</time></trkpt><trkpt lat="44.3203967" lon="11.1864267"><ele>181.25</ele><time>2026-04-09T09:18:46.949Z</time></trkpt><trkpt lat="44.3202683" lon="11.1864183"><ele>174.5</ele><time>2026-04-09T09:18:47.949Z</time></trkpt><trkpt lat="44.32014" lon="11.18643"><ele>167.75</ele><time>2026-04-09T09:18:48.949Z</time></trkpt><trkpt lat="44.3200017" lon="11.186455"><ele>161.0</ele><time>2026-04-09T09:18:49.949Z</time></trkpt><trkpt lat="44.3198583" lon="11.1864917"><ele>164.33333333333331</ele><time>2026-04-09T09:18:50.949Z</time></trkpt><trkpt lat="44.3197033" lon="11.1865417"><ele>167.66666666666666</ele><time>2026-04-09T09:18:51.949Z</time></trkpt><trkpt lat="44.319545" lon="11.1865917"><ele>171.0</ele><time>2026-04-09T09:18:52.949Z</time></trkpt><trkpt lat="44.3194017" lon="11.1866317"><ele>171.0</ele><time>2026-04-09T09:18:53.949Z</time></trkpt><trkpt lat="44.319245" lon="11.1866517"><ele>171.0</ele><time>2026-04-09T09:18:54.95Z</time></trkpt><trkpt lat="44.31908" lon="11.18664"><ele>171.0</ele><time>2026-04-09T09:18:55.95Z</time></trkpt><trkpt lat="44.3189017" lon="11.18662"><ele>170.66666666666666</ele><time>2026-04-09T09:18:56.949Z</time></trkpt><trkpt lat="44.3187233" lon="11.1865767"><ele>170.33333333333331</ele><time>2026-04-09T09:18:57.949Z</time></trkpt><trkpt lat="44.3185517" lon="11.1865383"><ele>170.0</ele><time>2026-04-09T09:18:58.949Z</time></trkpt><trkpt lat="44.3183783" lon="11.1864983"><ele>165.66666666666666</ele><time>2026-04-09T09:18:59.949Z</time></trkpt><trkpt lat="44.3182167" lon="11.186465"><ele>161.33333333333334</ele><time>2026-04-09T09:19:00.949Z</time></trkpt><trkpt lat="44.3180533" lon="11.1864367"><ele>157.0</ele><time>2026-04-09T09:19:01.949Z</time></trkpt><trkpt lat="44.3179017" lon="11.1864117"><ele>157.0</ele><time>2026-04-09T09:19:02.949Z</time></trkpt><trkpt lat="44.3177567" lon="11.186385"><ele>157.0</ele><time>2026-04-09T09:19:03.95Z</time></trkpt><trkpt lat="44.3176217" lon="11.1863517"><ele>157.0</ele><time>2026-04-09T09:19:04.949Z</time></trkpt><trkpt lat="44.3175067" lon="11.18629"><ele>157.0</ele><time>2026-04-09T09:19:05.949Z</time></trkpt><trkpt lat="44.31739" lon="11.186185"><ele>157.0</ele><time>2026-04-09T09:19:06.95Z</time></trkpt><trkpt lat="44.31728" lon="11.1860467"><ele>157.0</ele><time>2026-04-09T09:19:07.949Z</time></trkpt><trkpt lat="44.3171633" lon="11.1859"><ele>157.0</ele><time>2026-04-09T09:19:08.949Z</time></trkpt><trkpt lat="44.31703" lon="11.1857383"><ele>154.33333333333334</ele><time>2026-04-09T09:19:09.949Z</time></trkpt><trkpt lat="44.3168883" lon="11.1855717"><ele>151.66666666666666</ele><time>2026-04-09T09:19:10.949Z</time></trkpt><trkpt lat="44.3167333" lon="11.1853983"><ele>149.0</ele><time>2026-04-09T09:19:11.949Z</time></trkpt><trkpt lat="44.3165767" lon="11.1852333"><ele>149.0</ele><time>2026-04-09T09:19:12.949Z</time></trkpt><trkpt lat="44.316415" lon="11.1850617"><ele>149.0</ele><time>2026-04-09T09:19:13.95Z</time></trkpt><trkpt lat="44.316255" lon="11.184885"><ele>149.0</ele><time>2026-04-09T09:19:14.949Z</time></trkpt><trkpt lat="44.3160983" lon="11.1846983"><ele>150.0</ele><time>2026-04-09T09:19:15.949Z</time></trkpt><trkpt lat="44.315945" lon="11.1845167"><ele>151.0</ele><time>2026-04-09T09:19:16.949Z</time></trkpt><trkpt lat="44.315805" lon="11.184345"><ele>152.0</ele><time>2026-04-09T09:19:17.95Z</time></trkpt><trkpt lat="44.315675" lon="11.1841783"><ele>153.0</ele><time>2026-04-09T09:19:18.949Z</time></trkpt><trkpt lat="44.315555" lon="11.1840167"><ele>154.0</ele><time>2026-04-09T09:19:19.949Z</time></trkpt><trkpt lat="44.31544" lon="11.1838733"><ele>155.0</ele><time>2026-04-09T09:19:20.949Z</time></trkpt><trkpt lat="44.3153117" lon="11.1837333"><ele>155.0</ele><time>2026-04-09T09:19:21.95Z</time></trkpt><trkpt lat="44.3151783" lon="11.1836117"><ele>155.0</ele><time>2026-04-09T09:19:22.949Z</time></trkpt><trkpt lat="44.31503" lon="11.1835033"><ele>155.0</ele><time>2026-04-09T09:19:23.949Z</time></trkpt><trkpt lat="44.3148733" lon="11.1834033"><ele>156.0</ele><time>2026-04-09T09:19:24.949Z</time></trkpt><trkpt lat="44.314705" lon="11.1833083"><ele>157.0</ele><time>2026-04-09T09:19:25.949Z</time></trkpt><trkpt lat="44.314545" lon="11.18323"><ele>158.0</ele><time>2026-04-09T09:19:26.949Z</time></trkpt><trkpt lat="44.31438" lon="11.18316"><ele>158.0</ele><time>2026-04-09T09:19:27.949Z</time></trkpt><trkpt lat="44.3142133" lon="11.1831033"><ele>158.0</ele><time>2026-04-09T09:19:28.949Z</time></trkpt><trkpt lat="44.3140583" lon="11.1830383"><ele>158.0</ele><time>2026-04-09T09:19:29.949Z</time></trkpt><trkpt lat="44.3139167" lon="11.1829733"><ele>160.5</ele><time>2026-04-09T09:19:30.949Z</time></trkpt><trkpt lat="44.3137733" lon="11.1828967"><ele>163.0</ele><time>2026-04-09T09:19:31.95Z</time></trkpt><trkpt lat="44.3136533" lon="11.1828183"><ele>165.5</ele><time>2026-04-09T09:19:32.949Z</time></trkpt><trkpt lat="44.313545" lon="11.1827417"><ele>168.0</ele><time>2026-04-09T09:19:33.949Z</time></trkpt><trkpt lat="44.3134433" lon="11.182665"><ele>168.0</ele><time>2026-04-09T09:19:34.949Z</time></trkpt><trkpt lat="44.31333" lon="11.1826083"><ele>168.0</ele><time>2026-04-09T09:19:35.949Z</time></trkpt><trkpt lat="44.3132133" lon="11.1825783"><ele>168.0</ele><time>2026-04-09T09:19:36.949Z</time></trkpt><trkpt lat="44.313095" lon="11.1825733"><ele>168.0</ele><time>2026-04-09T09:19:37.949Z</time></trkpt><trkpt lat="44.3129717" lon="11.182575"><ele>170.60000000000002</ele><time>2026-04-09T09:19:38.949Z</time></trkpt><trkpt lat="44.3128583" lon="11.1825917"><ele>173.20000000000002</ele><time>2026-04-09T09:19:39.949Z</time></trkpt><trkpt lat="44.3127517" lon="11.182605"><ele>175.8</ele><time>2026-04-09T09:19:40.949Z</time></trkpt><trkpt lat="44.3126683" lon="11.1826383"><ele>178.4</ele><time>2026-04-09T09:19:41.949Z</time></trkpt><trkpt lat="44.312595" lon="11.1826983"><ele>181.0</ele><time>2026-04-09T09:19:42.949Z</time></trkpt><trkpt lat="44.3125383" lon="11.1827817"><ele>181.0</ele><time>2026-04-09T09:19:43.949Z</time></trkpt><trkpt lat="44.3125117" lon="11.18289"><ele>181.0</ele><time>2026-04-09T09:19:44.949Z</time></trkpt><trkpt lat="44.312515" lon="11.1830233"><ele>181.0</ele><time>2026-04-09T09:19:45.949Z</time></trkpt><trkpt lat="44.31254" lon="11.18317"><ele>181.0</ele><time>2026-04-09T09:19:46.95Z</time></trkpt><trkpt lat="44.3125867" lon="11.1833183"><ele>181.0</ele><time>2026-04-09T09:19:47.949Z</time></trkpt><trkpt lat="44.3126367" lon="11.1834933"><ele>181.25</ele><time>2026-04-09T09:19:48.949Z</time></trkpt><trkpt lat="44.3126833" lon="11.1836783"><ele>181.5</ele><time>2026-04-09T09:19:49.95Z</time></trkpt><trkpt lat="44.3127283" lon="11.1838517"><ele>181.75</ele><time>2026-04-09T09:19:50.949Z</time></trkpt><trkpt lat="44.3127717" lon="11.18403"><ele>182.0</ele><time>2026-04-09T09:19:51.949Z</time></trkpt><trkpt lat="44.3128133" lon="11.1842117"><ele>184.25</ele><time>2026-04-09T09:19:52.949Z</time></trkpt><trkpt lat="44.3128533" lon="11.1843783"><ele>186.5</ele><time>2026-04-09T09:19:53.949Z</time></trkpt><trkpt lat="44.3128983" lon="11.1845383"><ele>188.75</ele><time>2026-04-09T09:19:54.95Z</time></trkpt><trkpt lat="44.3129367" lon="11.1847117"><ele>191.0</ele><time>2026-04-09T09:19:55.949Z</time></trkpt><trkpt lat="44.31297" lon="11.1848817"><ele>193.5</ele><time>2026-04-09T09:19:56.949Z</time></trkpt><trkpt lat="44.313" lon="11.185055"><ele>196.0</ele><time>2026-04-09T09:19:57.95Z</time></trkpt><trkpt lat="44.31302" lon="11.18525"><ele>198.5</ele><time>2026-04-09T09:19:58.949Z</time></trkpt><trkpt lat="44.3130333" lon="11.1854383"><ele>201.0</ele><time>2026-04-09T09:19:59.95Z</time></trkpt><trkpt lat="44.31303" lon="11.185635"><ele>204.5</ele><time>2026-04-09T09:20:00.95Z</time></trkpt><trkpt lat="44.31302" lon="11.1858083"><ele>208.0</ele><time>2026-04-09T09:20:01.949Z</time></trkpt><trkpt lat="44.313" lon="11.1859617"><ele>211.5</ele><time>2026-04-09T09:20:02.949Z</time></trkpt><trkpt lat="44.3129667" lon="11.18612"><ele>215.0</ele><time>2026-04-09T09:20:03.95Z</time></trkpt><trkpt lat="44.3129167" lon="11.18627"><ele>215.0</ele><time>2026-04-09T09:20:04.949Z</time></trkpt><trkpt lat="44.3128517" lon="11.1864033"><ele>215.0</ele><time>2026-04-09T09:20:05.949Z</time></trkpt><trkpt lat="44.3127967" lon="11.186525"><ele>215.0</ele><time>2026-04-09T09:20:06.949Z</time></trkpt><trkpt lat="44.31276" lon="11.1866367"><ele>215.0</ele><time>2026-04-09T09:20:07.949Z</time></trkpt><trkpt lat="44.3127533" lon="11.1867517"><ele>215.0</ele><time>2026-04-09T09:20:08.949Z</time></trkpt><trkpt lat="44.3127817" lon="11.186865"><ele>216.2</ele><time>2026-04-09T09:20:09.95Z</time></trkpt><trkpt lat="44.3128567" lon="11.1869583"><ele>217.4</ele><time>2026-04-09T09:20:10.95Z</time></trkpt><trkpt lat="44.3129467" lon="11.1870367"><ele>218.60000000000002</ele><time>2026-04-09T09:20:11.949Z</time></trkpt><trkpt lat="44.3130483" lon="11.1870833"><ele>219.8</ele><time>2026-04-09T09:20:12.949Z</time></trkpt><trkpt lat="44.3131417" lon="11.1871267"><ele>221.0</ele><time>2026-04-09T09:20:13.949Z</time></trkpt><trkpt lat="44.3132383" lon="11.1871917"><ele>220.20000000000002</ele><time>2026-04-09T09:20:14.949Z</time></trkpt><trkpt lat="44.3133283" lon="11.187265"><ele>219.40000000000003</ele><time>2026-04-09T09:20:15.949Z</time></trkpt><trkpt lat="44.3134033" lon="11.187365"><ele>218.6</ele><time>2026-04-09T09:20:16.949Z</time></trkpt><trkpt lat="44.313465" lon="11.1874617"><ele>217.8</ele><time>2026-04-09T09:20:17.95Z</time></trkpt><trkpt lat="44.31351" lon="11.1875533"><ele>217.0</ele><time>2026-04-09T09:20:18.95Z</time></trkpt><trkpt lat="44.3135367" lon="11.187655"><ele>217.0</ele><time>2026-04-09T09:20:19.95Z</time></trkpt><trkpt lat="44.3135267" lon="11.1877483"><ele>217.0</ele><time>2026-04-09T09:20:20.95Z</time></trkpt><trkpt lat="44.3134383" lon="11.1878783"><ele>217.0</ele><time>2026-04-09T09:20:22.949Z</time></trkpt><trkpt lat="44.3133817" lon="11.187945"><ele>217.0</ele><time>2026-04-09T09:20:23.95Z</time></trkpt><trkpt lat="44.3133367" lon="11.188045"><ele>217.0</ele><time>2026-04-09T09:20:24.949Z</time></trkpt><trkpt lat="44.31332" lon="11.1881767"><ele>221.0</ele><time>2026-04-09T09:20:25.949Z</time></trkpt><trkpt lat="44.313315" lon="11.1883333"><ele>225.0</ele><time>2026-04-09T09:20:26.949Z</time></trkpt><trkpt lat="44.31331" lon="11.1885267"><ele>229.0</ele><time>2026-04-09T09:20:27.949Z</time></trkpt><trkpt lat="44.3133083" lon="11.188725"><ele>233.0</ele><time>2026-04-09T09:20:28.949Z</time></trkpt><trkpt lat="44.3133117" lon="11.1889067"><ele>235.4</ele><time>2026-04-09T09:20:29.949Z</time></trkpt><trkpt lat="44.31332" lon="11.1890733"><ele>237.8</ele><time>2026-04-09T09:20:30.949Z</time></trkpt><trkpt lat="44.3133217" lon="11.1892217"><ele>240.2</ele><time>2026-04-09T09:20:31.949Z</time></trkpt><trkpt lat="44.3133433" lon="11.1893567"><ele>242.6</ele><time>2026-04-09T09:20:32.949Z</time></trkpt><trkpt lat="44.3133883" lon="11.1894983"><ele>245.0</ele><time>2026-04-09T09:20:33.95Z</time></trkpt><trkpt lat="44.31346" lon="11.1896317"><ele>245.0</ele><time>2026-04-09T09:20:34.949Z</time></trkpt><trkpt lat="44.31354" lon="11.189765"><ele>245.0</ele><time>2026-04-09T09:20:35.949Z</time></trkpt><trkpt lat="44.3136367" lon="11.1898917"><ele>245.0</ele><time>2026-04-09T09:20:36.949Z</time></trkpt><trkpt lat="44.3137283" lon="11.1900317"><ele>245.0</ele><time>2026-04-09T09:20:37.949Z</time></trkpt><trkpt lat="44.31383" lon="11.190165"><ele>246.0</ele><time>2026-04-09T09:20:38.95Z</time></trkpt><trkpt lat="44.3139433" lon="11.190285"><ele>247.0</ele><time>2026-04-09T09:20:39.949Z</time></trkpt><trkpt lat="44.3140517" lon="11.190405"><ele>248.0</ele><time>2026-04-09T09:20:40.949Z</time></trkpt><trkpt lat="44.3141683" lon="11.190515"><ele>249.0</ele><time>2026-04-09T09:20:41.949Z</time></trkpt><trkpt lat="44.3142933" lon="11.19061"><ele>249.0</ele><time>2026-04-09T09:20:42.949Z</time></trkpt><trkpt lat="44.314415" lon="11.19066"><ele>248.99999999999997</ele><time>2026-04-09T09:20:43.95Z</time></trkpt><trkpt lat="44.3145317" lon="11.1906683"><ele>248.99999999999997</ele><time>2026-04-09T09:20:44.95Z</time></trkpt><trkpt lat="44.3146383" lon="11.1906767"><ele>249.0</ele><time>2026-04-09T09:20:45.95Z</time></trkpt><trkpt lat="44.314715" lon="11.1906983"><ele>249.0</ele><time>2026-04-09T09:20:46.949Z</time></trkpt><trkpt lat="44.3147667" lon="11.190755"><ele>251.83333333333334</ele><time>2026-04-09T09:20:47.95Z</time></trkpt><trkpt lat="44.3147567" lon="11.1909033"><ele>254.66666666666669</ele><time>2026-04-09T09:20:49.949Z</time></trkpt><trkpt lat="44.3146917" lon="11.1909467"><ele>257.5</ele><time>2026-04-09T09:20:50.949Z</time></trkpt><trkpt lat="44.314615" lon="11.1909833"><ele>260.33333333333337</ele><time>2026-04-09T09:20:51.949Z</time></trkpt><trkpt lat="44.3145467" lon="11.1910133"><ele>263.1666666666667</ele><time>2026-04-09T09:20:52.949Z</time></trkpt><trkpt lat="44.3144833" lon="11.1910467"><ele>266.0</ele><time>2026-04-09T09:20:53.949Z</time></trkpt><trkpt lat="44.3144317" lon="11.1911033"><ele>267.75</ele><time>2026-04-09T09:20:54.949Z</time></trkpt><trkpt lat="44.31439" lon="11.1912433"><ele>269.5</ele><time>2026-04-09T09:20:56.949Z</time></trkpt><trkpt lat="44.3144683" lon="11.191325"><ele>271.25</ele><time>2026-04-09T09:20:57.949Z</time></trkpt><trkpt lat="44.3145833" lon="11.1914233"><ele>273.0</ele><time>2026-04-09T09:20:58.949Z</time></trkpt><trkpt lat="44.31472" lon="11.1914933"><ele>275.8</ele><time>2026-04-09T09:20:59.949Z</time></trkpt><trkpt lat="44.31485" lon="11.1915333"><ele>278.6</ele><time>2026-04-09T09:21:00.949Z</time></trkpt><trkpt lat="44.314955" lon="11.1915683"><ele>281.4</ele><time>2026-04-09T09:21:01.949Z</time></trkpt><trkpt lat="44.3150417" lon="11.1915883"><ele>284.2</ele><time>2026-04-09T09:21:02.95Z</time></trkpt><trkpt lat="44.3151033" lon="11.1916183"><ele>287.0</ele><time>2026-04-09T09:21:03.95Z</time></trkpt><trkpt lat="44.3151267" lon="11.19172"><ele>287.0</ele><time>2026-04-09T09:21:05.949Z</time></trkpt><trkpt lat="44.3150533" lon="11.1918117"><ele>287.0</ele><time>2026-04-09T09:21:07.95Z</time></trkpt><trkpt lat="44.3149767" lon="11.19183"><ele>287.0</ele><time>2026-04-09T09:21:08.949Z</time></trkpt><trkpt lat="44.3148667" lon="11.1918467"><ele>287.0</ele><time>2026-04-09T09:21:09.949Z</time></trkpt><trkpt lat="44.31475" lon="11.1918717"><ele>287.0</ele><time>2026-04-09T09:21:10.949Z</time></trkpt><trkpt lat="44.3146283" lon="11.191905"><ele>291.25</ele><time>2026-04-09T09:21:11.949Z</time></trkpt><trkpt lat="44.31449" lon="11.19195"><ele>295.5</ele><time>2026-04-09T09:21:12.949Z</time></trkpt><trkpt lat="44.3143667" lon="11.1920067"><ele>299.75</ele><time>2026-04-09T09:21:13.949Z</time></trkpt><trkpt lat="44.3142567" lon="11.1920683"><ele>304.0</ele><time>2026-04-09T09:21:14.949Z</time></trkpt><trkpt lat="44.3141567" lon="11.1921133"><ele>304.0</ele><time>2026-04-09T09:21:15.949Z</time></trkpt><trkpt lat="44.3140683" lon="11.1921467"><ele>304.0</ele><time>2026-04-09T09:21:16.949Z</time></trkpt><trkpt lat="44.313975" lon="11.19212"><ele>304.0</ele><time>2026-04-09T09:21:17.95Z</time></trkpt><trkpt lat="44.313885" lon="11.1920517"><ele>304.0</ele><time>2026-04-09T09:21:18.95Z</time></trkpt><trkpt lat="44.313805" lon="11.19194"><ele>304.0</ele><time>2026-04-09T09:21:19.949Z</time></trkpt><trkpt lat="44.3137467" lon="11.19181"><ele>303.0</ele><time>2026-04-09T09:21:20.949Z</time></trkpt><trkpt lat="44.3136867" lon="11.1916783"><ele>302.0</ele><time>2026-04-09T09:21:21.949Z</time></trkpt><trkpt lat="44.313625" lon="11.1915483"><ele>301.0</ele><time>2026-04-09T09:21:22.949Z</time></trkpt><trkpt lat="44.3135767" lon="11.191435"><ele>300.0</ele><time>2026-04-09T09:21:23.949Z</time></trkpt><trkpt lat="44.3135233" lon="11.19135"><ele>299.0</ele><time>2026-04-09T09:21:24.949Z</time></trkpt><trkpt lat="44.3134667" lon="11.1912867"><ele>299.0</ele><time>2026-04-09T09:21:25.949Z</time></trkpt><trkpt lat="44.3134067" lon="11.1912517"><ele>299.0</ele><time>2026-04-09T09:21:26.949Z</time></trkpt><trkpt lat="44.31333" lon="11.1912567"><ele>299.0</ele><time>2026-04-09T09:21:27.949Z</time></trkpt><trkpt lat="44.31324" lon="11.1912967"><ele>299.0</ele><time>2026-04-09T09:21:28.949Z</time></trkpt><trkpt lat="44.3131333" lon="11.19139"><ele>299.0</ele><time>2026-04-09T09:21:29.949Z</time></trkpt><trkpt lat="44.313035" lon="11.19149"><ele>308.75</ele><time>2026-04-09T09:21:30.95Z</time></trkpt><trkpt lat="44.3129417" lon="11.1915983"><ele>318.5</ele><time>2026-04-09T09:21:31.949Z</time></trkpt><trkpt lat="44.312845" lon="11.191715"><ele>328.25</ele><time>2026-04-09T09:21:32.949Z</time></trkpt><trkpt lat="44.3127433" lon="11.1918"><ele>338.0</ele><time>2026-04-09T09:21:33.949Z</time></trkpt><trkpt lat="44.3126583" lon="11.1918667"><ele>338.0</ele><time>2026-04-09T09:21:34.949Z</time></trkpt><trkpt lat="44.3125783" lon="11.19192"><ele>338.0</ele><time>2026-04-09T09:21:35.949Z</time></trkpt><trkpt lat="44.3124967" lon="11.1919483"><ele>338.0</ele><time>2026-04-09T09:21:36.949Z</time></trkpt><trkpt lat="44.312415" lon="11.19196"><ele>338.0</ele><time>2026-04-09T09:21:37.95Z</time></trkpt><trkpt lat="44.31234" lon="11.1919433"><ele>338.0</ele><time>2026-04-09T09:21:38.95Z</time></trkpt><trkpt lat="44.3122633" lon="11.19183"><ele>338.0</ele><time>2026-04-09T09:21:39.949Z</time></trkpt><trkpt lat="44.3122133" lon="11.191685"><ele>338.79999999999995</ele><time>2026-04-09T09:21:40.949Z</time></trkpt><trkpt lat="44.312175" lon="11.1915217"><ele>339.6</ele><time>2026-04-09T09:21:41.949Z</time></trkpt><trkpt lat="44.3121367" lon="11.1913883"><ele>340.4</ele><time>2026-04-09T09:21:42.949Z</time></trkpt><trkpt lat="44.3120933" lon="11.1912567"><ele>341.20000000000005</ele><time>2026-04-09T09:21:43.949Z</time></trkpt><trkpt lat="44.31205" lon="11.1911483"><ele>342.0</ele><time>2026-04-09T09:21:44.949Z</time></trkpt><trkpt lat="44.3119967" lon="11.1910717"><ele>342.0</ele><time>2026-04-09T09:21:45.949Z</time></trkpt><trkpt lat="44.3119183" lon="11.1910683"><ele>342.0</ele><time>2026-04-09T09:21:46.949Z</time></trkpt><trkpt lat="44.31185" lon="11.19113"><ele>342.0</ele><time>2026-04-09T09:21:47.95Z</time></trkpt><trkpt lat="44.3117983" lon="11.1912383"><ele>342.0</ele><time>2026-04-09T09:21:48.949Z</time></trkpt><trkpt lat="44.3117467" lon="11.191385"><ele>342.0</ele><time>2026-04-09T09:21:49.949Z</time></trkpt><trkpt lat="44.3117083" lon="11.1915483"><ele>342.0</ele><time>2026-04-09T09:21:50.949Z</time></trkpt><trkpt lat="44.311655" lon="11.1917283"><ele>342.0</ele><time>2026-04-09T09:21:51.949Z</time></trkpt><trkpt lat="44.31161" lon="11.1918833"><ele>342.0</ele><time>2026-04-09T09:21:52.949Z</time></trkpt><trkpt lat="44.3115733" lon="11.1920183"><ele>342.0</ele><time>2026-04-09T09:21:53.949Z</time></trkpt><trkpt lat="44.3115333" lon="11.192135"><ele>342.0</ele><time>2026-04-09T09:21:54.949Z</time></trkpt><trkpt lat="44.3114783" lon="11.1922267"><ele>342.0</ele><time>2026-04-09T09:21:55.949Z</time></trkpt><trkpt lat="44.3113983" lon="11.1922683"><ele>342.0</ele><time>2026-04-09T09:21:56.949Z</time></trkpt><trkpt lat="44.3113033" lon="11.1922683"><ele>342.0</ele><time>2026-04-09T09:21:57.95Z</time></trkpt><trkpt lat="44.3112" lon="11.19226"><ele>342.0</ele><time>2026-04-09T09:21:58.949Z</time></trkpt><trkpt lat="44.31109" lon="11.1922633"><ele>343.25</ele><time>2026-04-09T09:21:59.949Z</time></trkpt><trkpt lat="44.3109667" lon="11.1922817"><ele>344.5</ele><time>2026-04-09T09:22:00.95Z</time></trkpt><trkpt lat="44.3108467" lon="11.192325"><ele>345.75</ele><time>2026-04-09T09:22:01.949Z</time></trkpt><trkpt lat="44.31074" lon="11.19238"><ele>347.0</ele><time>2026-04-09T09:22:02.949Z</time></trkpt><trkpt lat="44.3106533" lon="11.1924333"><ele>347.0</ele><time>2026-04-09T09:22:03.949Z</time></trkpt><trkpt lat="44.31058" lon="11.192515"><ele>347.0</ele><time>2026-04-09T09:22:04.949Z</time></trkpt><trkpt lat="44.3105233" lon="11.192615"><ele>347.0</ele><time>2026-04-09T09:22:05.95Z</time></trkpt><trkpt lat="44.3104933" lon="11.19275"><ele>347.0</ele><time>2026-04-09T09:22:06.949Z</time></trkpt><trkpt lat="44.3104867" lon="11.1928983"><ele>347.0</ele><time>2026-04-09T09:22:07.949Z</time></trkpt><trkpt lat="44.3104917" lon="11.193045"><ele>347.75</ele><time>2026-04-09T09:22:08.949Z</time></trkpt><trkpt lat="44.3104967" lon="11.193195"><ele>348.5</ele><time>2026-04-09T09:22:09.949Z</time></trkpt><trkpt lat="44.310495" lon="11.193355"><ele>349.25</ele><time>2026-04-09T09:22:10.949Z</time></trkpt><trkpt lat="44.3104783" lon="11.1935167"><ele>350.0</ele><time>2026-04-09T09:22:11.949Z</time></trkpt><trkpt lat="44.3104533" lon="11.1936867"><ele>350.0</ele><time>2026-04-09T09:22:12.949Z</time></trkpt><trkpt lat="44.3104283" lon="11.193865"><ele>350.0</ele><time>2026-04-09T09:22:13.949Z</time></trkpt><trkpt lat="44.310415" lon="11.1940433"><ele>350.0</ele><time>2026-04-09T09:22:14.949Z</time></trkpt><trkpt lat="44.3104133" lon="11.1942283"><ele>350.0</ele><time>2026-04-09T09:22:15.949Z</time></trkpt><trkpt lat="44.3104217" lon="11.1944317"><ele>352.25</ele><time>2026-04-09T09:22:16.949Z</time></trkpt><trkpt lat="44.31044" lon="11.1946267"><ele>354.5</ele><time>2026-04-09T09:22:17.949Z</time></trkpt><trkpt lat="44.3104617" lon="11.1948133"><ele>356.75</ele><time>2026-04-09T09:22:18.949Z</time></trkpt><trkpt lat="44.3104667" lon="11.1949833"><ele>359.0</ele><time>2026-04-09T09:22:19.95Z</time></trkpt><trkpt lat="44.3104567" lon="11.1951367"><ele>362.0</ele><time>2026-04-09T09:22:20.949Z</time></trkpt><trkpt lat="44.3104533" lon="11.195295"><ele>365.0</ele><time>2026-04-09T09:22:21.949Z</time></trkpt><trkpt lat="44.310455" lon="11.1954383"><ele>368.0</ele><time>2026-04-09T09:22:22.949Z</time></trkpt><trkpt lat="44.3104617" lon="11.1955817"><ele>371.0</ele><time>2026-04-09T09:22:23.949Z</time></trkpt><trkpt lat="44.3104867" lon="11.1957183"><ele>374.0</ele><time>2026-04-09T09:22:24.949Z</time></trkpt><trkpt lat="44.3105183" lon="11.19585"><ele>377.4</ele><time>2026-04-09T09:22:25.949Z</time></trkpt><trkpt lat="44.310565" lon="11.1959733"><ele>380.79999999999995</ele><time>2026-04-09T09:22:26.949Z</time></trkpt><trkpt lat="44.3106217" lon="11.1960833"><ele>384.20000000000005</ele><time>2026-04-09T09:22:27.949Z</time></trkpt><trkpt lat="44.3106683" lon="11.1962017"><ele>387.6</ele><time>2026-04-09T09:22:28.95Z</time></trkpt><trkpt lat="44.3107017" lon="11.1963283"><ele>391.0</ele><time>2026-04-09T09:22:29.949Z</time></trkpt><trkpt lat="44.3107283" lon="11.1964617"><ele>392.0</ele><time>2026-04-09T09:22:30.949Z</time></trkpt><trkpt lat="44.3107467" lon="11.1966"><ele>393.0</ele><time>2026-04-09T09:22:31.95Z</time></trkpt><trkpt lat="44.310755" lon="11.1967167"><ele>394.0</ele><time>2026-04-09T09:22:32.95Z</time></trkpt><trkpt lat="44.3107617" lon="11.1968217"><ele>395.0</ele><time>2026-04-09T09:22:33.949Z</time></trkpt><trkpt lat="44.3107383" lon="11.1969733"><ele>396.0</ele><time>2026-04-09T09:22:35.949Z</time></trkpt><trkpt lat="44.3106933" lon="11.19707"><ele>396.0</ele><time>2026-04-09T09:22:37.949Z</time></trkpt><trkpt lat="44.310635" lon="11.1971217"><ele>396.0</ele><time>2026-04-09T09:22:39.949Z</time></trkpt><trkpt lat="44.3105467" lon="11.1971167"><ele>396.0</ele><time>2026-04-09T09:22:41.949Z</time></trkpt><trkpt lat="44.31049" lon="11.1970733"><ele>396.0</ele><time>2026-04-09T09:22:42.949Z</time></trkpt><trkpt lat="44.3104367" lon="11.1970083"><ele>396.0</ele><time>2026-04-09T09:22:43.949Z</time></trkpt><trkpt lat="44.310385" lon="11.1969333"><ele>396.0</ele><time>2026-04-09T09:22:44.949Z</time></trkpt><trkpt lat="44.31033" lon="11.1968817"><ele>396.0</ele><time>2026-04-09T09:22:45.95Z</time></trkpt><trkpt lat="44.31023" lon="11.196885"><ele>398.5</ele><time>2026-04-09T09:22:47.949Z</time></trkpt><trkpt lat="44.3102167" lon="11.1970383"><ele>401.0</ele><time>2026-04-09T09:22:49.949Z</time></trkpt><trkpt lat="44.3102367" lon="11.1971333"><ele>403.5</ele><time>2026-04-09T09:22:50.949Z</time></trkpt><trkpt lat="44.310275" lon="11.1972317"><ele>406.0</ele><time>2026-04-09T09:22:51.949Z</time></trkpt><trkpt lat="44.3103283" lon="11.19733"><ele>408.5</ele><time>2026-04-09T09:22:52.949Z</time></trkpt><trkpt lat="44.3103767" lon="11.19744"><ele>411.0</ele><time>2026-04-09T09:22:53.949Z</time></trkpt><trkpt lat="44.3104183" lon="11.1975633"><ele>410.1666666666667</ele><time>2026-04-09T09:22:54.949Z</time></trkpt><trkpt lat="44.3104583" lon="11.197685"><ele>409.33333333333337</ele><time>2026-04-09T09:22:55.949Z</time></trkpt><trkpt lat="44.310515" lon="11.1977917"><ele>408.5</ele><time>2026-04-09T09:22:56.949Z</time></trkpt><trkpt lat="44.3105733" lon="11.1978783"><ele>407.6666666666667</ele><time>2026-04-09T09:22:57.949Z</time></trkpt><trkpt lat="44.31063" lon="11.1979583"><ele>406.83333333333337</ele><time>2026-04-09T09:22:58.949Z</time></trkpt><trkpt lat="44.31068" lon="11.19803"><ele>406.0</ele><time>2026-04-09T09:22:59.95Z</time></trkpt><trkpt lat="44.31077" lon="11.1981467"><ele>408.4</ele><time>2026-04-09T09:23:01.949Z</time></trkpt><trkpt lat="44.310855" lon="11.1982567"><ele>410.8</ele><time>2026-04-09T09:23:03.949Z</time></trkpt><trkpt lat="44.3109333" lon="11.1983533"><ele>413.2</ele><time>2026-04-09T09:23:05.949Z</time></trkpt><trkpt lat="44.3110017" lon="11.1984367"><ele>415.59999999999997</ele><time>2026-04-09T09:23:07.949Z</time></trkpt><trkpt lat="44.3110533" lon="11.1985133"><ele>418.0</ele><time>2026-04-09T09:23:09.95Z</time></trkpt><trkpt lat="44.3111117" lon="11.1986"><ele>418.0</ele><time>2026-04-09T09:23:11.949Z</time></trkpt><trkpt lat="44.3111733" lon="11.1987133"><ele>418.0</ele><time>2026-04-09T09:23:13.949Z</time></trkpt><trkpt lat="44.3111733" lon="11.1988617"><ele>418.0</ele><time>2026-04-09T09:23:15.95Z</time></trkpt><trkpt lat="44.3111117" lon="11.1989817"><ele>418.0</ele><time>2026-04-09T09:23:17.949Z</time></trkpt><trkpt lat="44.3110567" lon="11.1990283"><ele>418.0</ele><time>2026-04-09T09:23:18.949Z</time></trkpt><trkpt lat="44.3109617" lon="11.1990967"><ele>418.00000000000006</ele><time>2026-04-09T09:23:20.948Z</time></trkpt><trkpt lat="44.3108683" lon="11.1991367"><ele>418.0</ele><time>2026-04-09T09:23:22.948Z</time></trkpt><trkpt lat="44.3108017" lon="11.1991267"><ele>418.0</ele><time>2026-04-09T09:23:24.949Z</time></trkpt><trkpt lat="44.3107317" lon="11.1990833"><ele>418.0</ele><time>2026-04-09T09:23:26.948Z</time></trkpt><trkpt lat="44.3106833" lon="11.19902"><ele>418.00000000000006</ele><time>2026-04-09T09:23:28.948Z</time></trkpt><trkpt lat="44.3106033" lon="11.19893"><ele>418.0</ele><time>2026-04-09T09:23:31.948Z</time></trkpt><trkpt lat="44.3105067" lon="11.1988167"><ele>419.2</ele><time>2026-04-09T09:23:33.948Z</time></trkpt><trkpt lat="44.31044" lon="11.1987467"><ele>420.4</ele><time>2026-04-09T09:23:34.948Z</time></trkpt><trkpt lat="44.31037" lon="11.1986667"><ele>421.59999999999997</ele><time>2026-04-09T09:23:35.949Z</time></trkpt><trkpt lat="44.3102967" lon="11.1985817"><ele>422.79999999999995</ele><time>2026-04-09T09:23:36.948Z</time></trkpt><trkpt lat="44.3102183" lon="11.19849"><ele>424.0</ele><time>2026-04-09T09:23:37.948Z</time></trkpt><trkpt lat="44.3101417" lon="11.19839"><ele>424.0</ele><time>2026-04-09T09:23:38.948Z</time></trkpt><trkpt lat="44.31006" lon="11.1982883"><ele>424.0</ele><time>2026-04-09T09:23:39.949Z</time></trkpt><trkpt lat="44.3099767" lon="11.19818"><ele>424.0</ele><time>2026-04-09T09:23:40.948Z</time></trkpt><trkpt lat="44.3098917" lon="11.1980683"><ele>424.0</ele><time>2026-04-09T09:23:41.948Z</time></trkpt><trkpt lat="44.3098133" lon="11.1979683"><ele>424.0</ele><time>2026-04-09T09:23:42.948Z</time></trkpt><trkpt lat="44.3097433" lon="11.1978817"><ele>425.33333333333337</ele><time>2026-04-09T09:23:43.948Z</time></trkpt><trkpt lat="44.3096817" lon="11.1977967"><ele>426.6666666666667</ele><time>2026-04-09T09:23:44.948Z</time></trkpt><trkpt lat="44.309615" lon="11.1977217"><ele>428.0</ele><time>2026-04-09T09:23:45.948Z</time></trkpt><trkpt lat="44.30955" lon="11.1976533"><ele>429.33333333333337</ele><time>2026-04-09T09:23:46.948Z</time></trkpt><trkpt lat="44.309485" lon="11.1975917"><ele>430.6666666666667</ele><time>2026-04-09T09:23:47.949Z</time></trkpt><trkpt lat="44.3094167" lon="11.1975367"><ele>432.0</ele><time>2026-04-09T09:23:48.949Z</time></trkpt><trkpt lat="44.3093433" lon="11.1974967"><ele>432.0</ele><time>2026-04-09T09:23:49.949Z</time></trkpt><trkpt lat="44.3092717" lon="11.197465"><ele>432.0</ele><time>2026-04-09T09:23:50.948Z</time></trkpt><trkpt lat="44.3091883" lon="11.1974317"><ele>432.0</ele><time>2026-04-09T09:23:51.948Z</time></trkpt><trkpt lat="44.3091017" lon="11.1973983"><ele>432.0</ele><time>2026-04-09T09:23:52.949Z</time></trkpt><trkpt lat="44.30902" lon="11.1973633"><ele>432.0</ele><time>2026-04-09T09:23:53.948Z</time></trkpt><trkpt lat="44.3089433" lon="11.19734"><ele>432.0</ele><time>2026-04-09T09:23:54.948Z</time></trkpt><trkpt lat="44.3088733" lon="11.1973267"><ele>431.1666666666667</ele><time>2026-04-09T09:23:55.948Z</time></trkpt><trkpt lat="44.308805" lon="11.19731"><ele>430.33333333333337</ele><time>2026-04-09T09:23:56.948Z</time></trkpt><trkpt lat="44.30869" lon="11.1972733"><ele>429.5</ele><time>2026-04-09T09:23:58.948Z</time></trkpt><trkpt lat="44.3085783" lon="11.1972067"><ele>428.6666666666667</ele><time>2026-04-09T09:24:00.949Z</time></trkpt><trkpt lat="44.30853" lon="11.197145"><ele>427.83333333333337</ele><time>2026-04-09T09:24:01.948Z</time></trkpt><trkpt lat="44.3084817" lon="11.1970683"><ele>427.0</ele><time>2026-04-09T09:24:02.949Z</time></trkpt><trkpt lat="44.3084483" lon="11.1969867"><ele>427.0</ele><time>2026-04-09T09:24:03.949Z</time></trkpt><trkpt lat="44.308435" lon="11.1968933"><ele>427.0</ele><time>2026-04-09T09:24:04.948Z</time></trkpt><trkpt lat="44.3084233" lon="11.1967967"><ele>427.0</ele><time>2026-04-09T09:24:05.949Z</time></trkpt><trkpt lat="44.3084117" lon="11.1966917"><ele>427.0</ele><time>2026-04-09T09:24:06.948Z</time></trkpt><trkpt lat="44.3084117" lon="11.19658"><ele>427.0</ele><time>2026-04-09T09:24:07.948Z</time></trkpt><trkpt lat="44.3084183" lon="11.1964733"><ele>427.0</ele><time>2026-04-09T09:24:08.949Z</time></trkpt><trkpt lat="44.3084317" lon="11.1963717"><ele>427.0</ele><time>2026-04-09T09:24:09.948Z</time></trkpt><trkpt lat="44.3084417" lon="11.196265"><ele>427.00000000000006</ele><time>2026-04-09T09:24:10.948Z</time></trkpt><trkpt lat="44.3084417" lon="11.19616"><ele>427.0</ele><time>2026-04-09T09:24:11.948Z</time></trkpt><trkpt lat="44.308435" lon="11.1960517"><ele>427.0</ele><time>2026-04-09T09:24:12.948Z</time></trkpt><trkpt lat="44.3084167" lon="11.1959383"><ele>427.0</ele><time>2026-04-09T09:24:13.949Z</time></trkpt><trkpt lat="44.30839" lon="11.1958267"><ele>427.00000000000006</ele><time>2026-04-09T09:24:14.949Z</time></trkpt><trkpt lat="44.3083467" lon="11.1957217"><ele>427.0</ele><time>2026-04-09T09:24:15.948Z</time></trkpt><trkpt lat="44.308295" lon="11.1956317"><ele>427.00000000000006</ele><time>2026-04-09T09:24:16.948Z</time></trkpt><trkpt lat="44.30824" lon="11.1955467"><ele>427.0</ele><time>2026-04-09T09:24:17.948Z</time></trkpt><trkpt lat="44.3081833" lon="11.195465"><ele>427.0</ele><time>2026-04-09T09:24:18.948Z</time></trkpt><trkpt lat="44.3081333" lon="11.1953817"><ele>427.0</ele><time>2026-04-09T09:24:19.948Z</time></trkpt><trkpt lat="44.3080917" lon="11.1952967"><ele>427.00000000000006</ele><time>2026-04-09T09:24:20.948Z</time></trkpt><trkpt lat="44.3080533" lon="11.195205"><ele>427.0</ele><time>2026-04-09T09:24:21.949Z</time></trkpt><trkpt lat="44.308015" lon="11.1951183"><ele>431.00000000000006</ele><time>2026-04-09T09:24:22.948Z</time></trkpt><trkpt lat="44.3079733" lon="11.19503"><ele>435.0</ele><time>2026-04-09T09:24:23.948Z</time></trkpt><trkpt lat="44.3079317" lon="11.194925"><ele>439.0</ele><time>2026-04-09T09:24:24.948Z</time></trkpt><trkpt lat="44.3078783" lon="11.1948083"><ele>443.0</ele><time>2026-04-09T09:24:25.948Z</time></trkpt><trkpt lat="44.3078317" lon="11.1947017"><ele>447.00000000000006</ele><time>2026-04-09T09:24:26.948Z</time></trkpt><trkpt lat="44.3077833" lon="11.1945933"><ele>451.0</ele><time>2026-04-09T09:24:27.948Z</time></trkpt><trkpt lat="44.3077383" lon="11.19449"><ele>451.0</ele><time>2026-04-09T09:24:28.948Z</time></trkpt><trkpt lat="44.3076917" lon="11.194385"><ele>451.0</ele><time>2026-04-09T09:24:29.949Z</time></trkpt><trkpt lat="44.3076417" lon="11.1942883"><ele>451.0</ele><time>2026-04-09T09:24:30.948Z</time></trkpt><trkpt lat="44.3075933" lon="11.1941867"><ele>451.0</ele><time>2026-04-09T09:24:31.948Z</time></trkpt><trkpt lat="44.3075483" lon="11.194075"><ele>451.0</ele><time>2026-04-09T09:24:32.948Z</time></trkpt><trkpt lat="44.3075083" lon="11.1939467"><ele>449.0</ele><time>2026-04-09T09:24:33.948Z</time></trkpt><trkpt lat="44.3074733" lon="11.1938067"><ele>447.0</ele><time>2026-04-09T09:24:34.948Z</time></trkpt><trkpt lat="44.3074533" lon="11.1936767"><ele>445.0</ele><time>2026-04-09T09:24:35.948Z</time></trkpt><trkpt lat="44.30742" lon="11.1935567"><ele>443.0</ele><time>2026-04-09T09:24:36.949Z</time></trkpt><trkpt lat="44.307395" lon="11.1934483"><ele>441.0</ele><time>2026-04-09T09:24:37.948Z</time></trkpt><trkpt lat="44.30734" lon="11.193365"><ele>441.0</ele><time>2026-04-09T09:24:38.948Z</time></trkpt><trkpt lat="44.3072717" lon="11.1932883"><ele>441.0</ele><time>2026-04-09T09:24:39.948Z</time></trkpt><trkpt lat="44.30719" lon="11.1932183"><ele>441.0</ele><time>2026-04-09T09:24:40.948Z</time></trkpt><trkpt lat="44.307105" lon="11.193145"><ele>441.0</ele><time>2026-04-09T09:24:41.948Z</time></trkpt><trkpt lat="44.3070317" lon="11.193055"><ele>441.0</ele><time>2026-04-09T09:24:42.948Z</time></trkpt><trkpt lat="44.306965" lon="11.1929683"><ele>443.3333333333333</ele><time>2026-04-09T09:24:43.948Z</time></trkpt><trkpt lat="44.3069167" lon="11.192885"><ele>445.66666666666663</ele><time>2026-04-09T09:24:44.949Z</time></trkpt><trkpt lat="44.3068583" lon="11.1928233"><ele>448.0</ele><time>2026-04-09T09:24:45.949Z</time></trkpt><trkpt lat="44.306755" lon="11.1927367"><ele>450.3333333333333</ele><time>2026-04-09T09:24:47.949Z</time></trkpt><trkpt lat="44.3066933" lon="11.1926917"><ele>452.66666666666663</ele><time>2026-04-09T09:24:48.949Z</time></trkpt><trkpt lat="44.3066233" lon="11.1926317"><ele>455.0</ele><time>2026-04-09T09:24:49.948Z</time></trkpt><trkpt lat="44.3065433" lon="11.1925683"><ele>455.0</ele><time>2026-04-09T09:24:50.949Z</time></trkpt><trkpt lat="44.3064667" lon="11.1925067"><ele>455.0</ele><time>2026-04-09T09:24:51.948Z</time></trkpt><trkpt lat="44.3063933" lon="11.192465"><ele>455.0</ele><time>2026-04-09T09:24:52.948Z</time></trkpt><trkpt lat="44.3063267" lon="11.1924317"><ele>455.0</ele><time>2026-04-09T09:24:53.948Z</time></trkpt><trkpt lat="44.3062617" lon="11.192415"><ele>455.0</ele><time>2026-04-09T09:24:54.948Z</time></trkpt><trkpt lat="44.3061983" lon="11.1924083"><ele>455.0</ele><time>2026-04-09T09:24:55.948Z</time></trkpt><trkpt lat="44.3061217" lon="11.1924233"><ele>455.0</ele><time>2026-04-09T09:24:56.948Z</time></trkpt><trkpt lat="44.30604" lon="11.1924567"><ele>455.3333333333333</ele><time>2026-04-09T09:24:57.948Z</time></trkpt><trkpt lat="44.305955" lon="11.192485"><ele>455.66666666666663</ele><time>2026-04-09T09:24:58.949Z</time></trkpt><trkpt lat="44.30587" lon="11.1924983"><ele>456.0</ele><time>2026-04-09T09:24:59.948Z</time></trkpt><trkpt lat="44.3057867" lon="11.1924967"><ele>456.33333333333337</ele><time>2026-04-09T09:25:00.948Z</time></trkpt><trkpt lat="44.3057033" lon="11.1924983"><ele>456.6666666666667</ele><time>2026-04-09T09:25:01.948Z</time></trkpt><trkpt lat="44.3056233" lon="11.1924967"><ele>457.0</ele><time>2026-04-09T09:25:02.948Z</time></trkpt><trkpt lat="44.3055383" lon="11.1924917"><ele>455.0</ele><time>2026-04-09T09:25:03.948Z</time></trkpt><trkpt lat="44.3054467" lon="11.1924783"><ele>453.00000000000006</ele><time>2026-04-09T09:25:04.948Z</time></trkpt><trkpt lat="44.30536" lon="11.19246"><ele>451.00000000000006</ele><time>2026-04-09T09:25:05.948Z</time></trkpt><trkpt lat="44.3052617" lon="11.1924433"><ele>449.0</ele><time>2026-04-09T09:25:06.948Z</time></trkpt><trkpt lat="44.3051683" lon="11.1924283"><ele>447.0</ele><time>2026-04-09T09:25:07.949Z</time></trkpt><trkpt lat="44.305085" lon="11.192415"><ele>447.0</ele><time>2026-04-09T09:25:08.948Z</time></trkpt><trkpt lat="44.3050133" lon="11.1924033"><ele>447.0</ele><time>2026-04-09T09:25:09.948Z</time></trkpt><trkpt lat="44.3049433" lon="11.19238"><ele>447.0</ele><time>2026-04-09T09:25:10.949Z</time></trkpt><trkpt lat="44.3048717" lon="11.1923383"><ele>447.0</ele><time>2026-04-09T09:25:11.949Z</time></trkpt><trkpt lat="44.3048067" lon="11.1922783"><ele>447.0</ele><time>2026-04-09T09:25:12.948Z</time></trkpt><trkpt lat="44.30475" lon="11.19221"><ele>447.0</ele><time>2026-04-09T09:25:13.948Z</time></trkpt><trkpt lat="44.3046917" lon="11.1921283"><ele>446.6</ele><time>2026-04-09T09:25:14.948Z</time></trkpt><trkpt lat="44.3046267" lon="11.1920267"><ele>446.20000000000005</ele><time>2026-04-09T09:25:15.948Z</time></trkpt><trkpt lat="44.3045633" lon="11.1919183"><ele>445.8</ele><time>2026-04-09T09:25:16.949Z</time></trkpt><trkpt lat="44.3045067" lon="11.1917967"><ele>445.4</ele><time>2026-04-09T09:25:17.948Z</time></trkpt><trkpt lat="44.3044583" lon="11.1916717"><ele>445.0</ele><time>2026-04-09T09:25:18.948Z</time></trkpt><trkpt lat="44.304405" lon="11.19155"><ele>446.2</ele><time>2026-04-09T09:25:19.948Z</time></trkpt><trkpt lat="44.3043583" lon="11.1914433"><ele>447.4</ele><time>2026-04-09T09:25:20.948Z</time></trkpt><trkpt lat="44.3043017" lon="11.1913267"><ele>448.6</ele><time>2026-04-09T09:25:21.949Z</time></trkpt><trkpt lat="44.30424" lon="11.19123"><ele>449.8</ele><time>2026-04-09T09:25:22.948Z</time></trkpt><trkpt lat="44.304165" lon="11.1911417"><ele>451.0</ele><time>2026-04-09T09:25:23.948Z</time></trkpt><trkpt lat="44.3040833" lon="11.1910617"><ele>451.00000000000006</ele><time>2026-04-09T09:25:24.949Z</time></trkpt><trkpt lat="44.3039967" lon="11.1909933"><ele>451.0</ele><time>2026-04-09T09:25:25.948Z</time></trkpt><trkpt lat="44.30391" lon="11.19093"><ele>451.0</ele><time>2026-04-09T09:25:26.949Z</time></trkpt><trkpt lat="44.30383" lon="11.1908733"><ele>451.0</ele><time>2026-04-09T09:25:27.948Z</time></trkpt><trkpt lat="44.303755" lon="11.1908367"><ele>451.00000000000006</ele><time>2026-04-09T09:25:28.948Z</time></trkpt><trkpt lat="44.3036767" lon="11.1908333"><ele>451.0</ele><time>2026-04-09T09:25:29.948Z</time></trkpt><trkpt lat="44.3035917" lon="11.19085"><ele>453.20000000000005</ele><time>2026-04-09T09:25:30.949Z</time></trkpt><trkpt lat="44.3035" lon="11.1908983"><ele>455.40000000000003</ele><time>2026-04-09T09:25:31.948Z</time></trkpt><trkpt lat="44.3034017" lon="11.19093"><ele>457.6</ele><time>2026-04-09T09:25:32.948Z</time></trkpt><trkpt lat="44.30331" lon="11.1909283"><ele>459.8</ele><time>2026-04-09T09:25:33.948Z</time></trkpt><trkpt lat="44.3032283" lon="11.1909117"><ele>462.0</ele><time>2026-04-09T09:25:34.948Z</time></trkpt><trkpt lat="44.3031367" lon="11.1908533"><ele>462.8</ele><time>2026-04-09T09:25:35.948Z</time></trkpt><trkpt lat="44.3030567" lon="11.1907617"><ele>463.6</ele><time>2026-04-09T09:25:36.948Z</time></trkpt><trkpt lat="44.3029917" lon="11.1906317"><ele>464.40000000000003</ele><time>2026-04-09T09:25:37.948Z</time></trkpt><trkpt lat="44.30295" lon="11.19049"><ele>465.20000000000005</ele><time>2026-04-09T09:25:38.948Z</time></trkpt><trkpt lat="44.3029117" lon="11.1903367"><ele>466.0</ele><time>2026-04-09T09:25:39.948Z</time></trkpt><trkpt lat="44.3028717" lon="11.1901817"><ele>468.6</ele><time>2026-04-09T09:25:40.948Z</time></trkpt><trkpt lat="44.3028367" lon="11.1900517"><ele>471.20000000000005</ele><time>2026-04-09T09:25:41.948Z</time></trkpt><trkpt lat="44.30279" lon="11.1899117"><ele>473.79999999999995</ele><time>2026-04-09T09:25:42.949Z</time></trkpt><trkpt lat="44.3027483" lon="11.1897783"><ele>476.4</ele><time>2026-04-09T09:25:43.948Z</time></trkpt><trkpt lat="44.3026967" lon="11.1896383"><ele>479.0</ele><time>2026-04-09T09:25:44.948Z</time></trkpt><trkpt lat="44.3026633" lon="11.189505"><ele>479.4</ele><time>2026-04-09T09:25:45.948Z</time></trkpt><trkpt lat="44.30263" lon="11.1893783"><ele>479.79999999999995</ele><time>2026-04-09T09:25:46.948Z</time></trkpt><trkpt lat="44.3026" lon="11.1892567"><ele>480.20000000000005</ele><time>2026-04-09T09:25:47.948Z</time></trkpt><trkpt lat="44.3025717" lon="11.1891367"><ele>480.6</ele><time>2026-04-09T09:25:48.948Z</time></trkpt><trkpt lat="44.30254" lon="11.18901"><ele>481.0</ele><time>2026-04-09T09:25:49.948Z</time></trkpt><trkpt lat="44.3025" lon="11.1888933"><ele>481.0</ele><time>2026-04-09T09:25:50.949Z</time></trkpt><trkpt lat="44.30246" lon="11.188765"><ele>481.0</ele><time>2026-04-09T09:25:51.948Z</time></trkpt><trkpt lat="44.3024233" lon="11.1886333"><ele>481.0</ele><time>2026-04-09T09:25:52.948Z</time></trkpt><trkpt lat="44.3023867" lon="11.1885067"><ele>481.0</ele><time>2026-04-09T09:25:53.948Z</time></trkpt><trkpt lat="44.3023517" lon="11.1883833"><ele>481.0</ele><time>2026-04-09T09:25:54.948Z</time></trkpt><trkpt lat="44.302315" lon="11.1882583"><ele>479.6</ele><time>2026-04-09T09:25:55.948Z</time></trkpt><trkpt lat="44.302265" lon="11.18812"><ele>478.20000000000005</ele><time>2026-04-09T09:25:56.949Z</time></trkpt><trkpt lat="44.3022183" lon="11.18798"><ele>476.79999999999995</ele><time>2026-04-09T09:25:57.948Z</time></trkpt><trkpt lat="44.3021667" lon="11.18785"><ele>475.4</ele><time>2026-04-09T09:25:58.949Z</time></trkpt><trkpt lat="44.30212" lon="11.1877367"><ele>474.0</ele><time>2026-04-09T09:25:59.948Z</time></trkpt><trkpt lat="44.3020783" lon="11.1876233"><ele>477.0</ele><time>2026-04-09T09:26:00.948Z</time></trkpt><trkpt lat="44.30204" lon="11.1875117"><ele>480.0</ele><time>2026-04-09T09:26:01.948Z</time></trkpt><trkpt lat="44.302" lon="11.1873967"><ele>483.0</ele><time>2026-04-09T09:26:02.949Z</time></trkpt><trkpt lat="44.3019533" lon="11.187285"><ele>486.0</ele><time>2026-04-09T09:26:03.948Z</time></trkpt><trkpt lat="44.3019017" lon="11.1871883"><ele>489.0</ele><time>2026-04-09T09:26:04.948Z</time></trkpt><trkpt lat="44.3018467" lon="11.1871067"><ele>492.0</ele><time>2026-04-09T09:26:05.948Z</time></trkpt><trkpt lat="44.3017983" lon="11.1870417"><ele>492.3333333333333</ele><time>2026-04-09T09:26:06.948Z</time></trkpt><trkpt lat="44.3017233" lon="11.186905"><ele>492.66666666666663</ele><time>2026-04-09T09:26:08.948Z</time></trkpt><trkpt lat="44.30169" lon="11.1868267"><ele>493.0</ele><time>2026-04-09T09:26:09.948Z</time></trkpt><trkpt lat="44.3016617" lon="11.1867417"><ele>493.3333333333333</ele><time>2026-04-09T09:26:10.948Z</time></trkpt><trkpt lat="44.301635" lon="11.1866533"><ele>493.66666666666663</ele><time>2026-04-09T09:26:11.948Z</time></trkpt><trkpt lat="44.301615" lon="11.1865583"><ele>494.0</ele><time>2026-04-09T09:26:12.949Z</time></trkpt><trkpt lat="44.3015933" lon="11.1864583"><ele>493.3333333333333</ele><time>2026-04-09T09:26:13.948Z</time></trkpt><trkpt lat="44.3015733" lon="11.186355"><ele>492.66666666666663</ele><time>2026-04-09T09:26:14.948Z</time></trkpt><trkpt lat="44.301565" lon="11.18624"><ele>492.0</ele><time>2026-04-09T09:26:15.948Z</time></trkpt><trkpt lat="44.3015467" lon="11.186135"><ele>491.33333333333337</ele><time>2026-04-09T09:26:16.949Z</time></trkpt><trkpt lat="44.301535" lon="11.1860233"><ele>490.6666666666667</ele><time>2026-04-09T09:26:17.948Z</time></trkpt><trkpt lat="44.30151" lon="11.185885"><ele>490.0</ele><time>2026-04-09T09:26:18.949Z</time></trkpt><trkpt lat="44.30148" lon="11.1857533"><ele>489.0</ele><time>2026-04-09T09:26:19.948Z</time></trkpt><trkpt lat="44.3014467" lon="11.1856233"><ele>488.0</ele><time>2026-04-09T09:26:20.948Z</time></trkpt><trkpt lat="44.301405" lon="11.1854883"><ele>487.0</ele><time>2026-04-09T09:26:21.948Z</time></trkpt><trkpt lat="44.3013583" lon="11.1853733"><ele>486.0</ele><time>2026-04-09T09:26:22.948Z</time></trkpt><trkpt lat="44.301315" lon="11.1852533"><ele>485.0</ele><time>2026-04-09T09:26:23.949Z</time></trkpt><trkpt lat="44.30128" lon="11.1851383"><ele>482.49999999999994</ele><time>2026-04-09T09:26:24.948Z</time></trkpt><trkpt lat="44.3012367" lon="11.18503"><ele>480.0</ele><time>2026-04-09T09:26:25.948Z</time></trkpt><trkpt lat="44.3012067" lon="11.1849133"><ele>477.5</ele><time>2026-04-09T09:26:26.948Z</time></trkpt><trkpt lat="44.3011783" lon="11.1848083"><ele>475.0</ele><time>2026-04-09T09:26:27.948Z</time></trkpt><trkpt lat="44.3011433" lon="11.1847083"><ele>472.49999999999994</ele><time>2026-04-09T09:26:28.948Z</time></trkpt><trkpt lat="44.30112" lon="11.1845983"><ele>470.0</ele><time>2026-04-09T09:26:29.948Z</time></trkpt><trkpt lat="44.3010967" lon="11.1844867"><ele>469.66666666666663</ele><time>2026-04-09T09:26:30.948Z</time></trkpt><trkpt lat="44.3010817" lon="11.1843767"><ele>469.3333333333333</ele><time>2026-04-09T09:26:31.949Z</time></trkpt><trkpt lat="44.30107" lon="11.1842833"><ele>469.0</ele><time>2026-04-09T09:26:32.948Z</time></trkpt><trkpt lat="44.3010617" lon="11.184195"><ele>468.66666666666663</ele><time>2026-04-09T09:26:33.948Z</time></trkpt><trkpt lat="44.3010533" lon="11.1840433"><ele>468.3333333333333</ele><time>2026-04-09T09:26:35.948Z</time></trkpt><trkpt lat="44.3010483" lon="11.1838983"><ele>468.0</ele><time>2026-04-09T09:26:37.949Z</time></trkpt><trkpt lat="44.30103" lon="11.1838133"><ele>467.5</ele><time>2026-04-09T09:26:38.948Z</time></trkpt><trkpt lat="44.3009483" lon="11.183655"><ele>467.0</ele><time>2026-04-09T09:26:40.948Z</time></trkpt><trkpt lat="44.3008867" lon="11.1835917"><ele>466.5</ele><time>2026-04-09T09:26:41.949Z</time></trkpt><trkpt lat="44.30083" lon="11.1835267"><ele>466.0</ele><time>2026-04-09T09:26:42.948Z</time></trkpt><trkpt lat="44.30079" lon="11.183455"><ele>465.5</ele><time>2026-04-09T09:26:43.948Z</time></trkpt><trkpt lat="44.3007567" lon="11.183365"><ele>465.0</ele><time>2026-04-09T09:26:44.948Z</time></trkpt><trkpt lat="44.3007417" lon="11.1832533"><ele>465.2</ele><time>2026-04-09T09:26:45.948Z</time></trkpt><trkpt lat="44.3007233" lon="11.183125"><ele>465.4</ele><time>2026-04-09T09:26:46.948Z</time></trkpt><trkpt lat="44.3007133" lon="11.1829933"><ele>465.6</ele><time>2026-04-09T09:26:47.948Z</time></trkpt><trkpt lat="44.3007033" lon="11.1828533"><ele>465.8</ele><time>2026-04-09T09:26:48.948Z</time></trkpt><trkpt lat="44.3006917" lon="11.18272"><ele>466.0</ele><time>2026-04-09T09:26:49.948Z</time></trkpt><trkpt lat="44.3006867" lon="11.1825917"><ele>466.00000000000006</ele><time>2026-04-09T09:26:50.948Z</time></trkpt><trkpt lat="44.300665" lon="11.18246"><ele>466.0</ele><time>2026-04-09T09:26:51.948Z</time></trkpt><trkpt lat="44.3006383" lon="11.18235"><ele>466.0</ele><time>2026-04-09T09:26:52.948Z</time></trkpt><trkpt lat="44.30061" lon="11.1822433"><ele>466.0</ele><time>2026-04-09T09:26:53.948Z</time></trkpt><trkpt lat="44.300565" lon="11.1821517"><ele>466.00000000000006</ele><time>2026-04-09T09:26:54.948Z</time></trkpt><trkpt lat="44.3005067" lon="11.1820767"><ele>466.0</ele><time>2026-04-09T09:26:55.949Z</time></trkpt><trkpt lat="44.3004417" lon="11.1820117"><ele>466.1666666666667</ele><time>2026-04-09T09:26:56.948Z</time></trkpt><trkpt lat="44.3003717" lon="11.1819517"><ele>466.33333333333337</ele><time>2026-04-09T09:26:57.949Z</time></trkpt><trkpt lat="44.3003067" lon="11.181895"><ele>466.5</ele><time>2026-04-09T09:26:58.948Z</time></trkpt><trkpt lat="44.3002517" lon="11.181835"><ele>466.66666666666663</ele><time>2026-04-09T09:26:59.948Z</time></trkpt><trkpt lat="44.3002033" lon="11.18177"><ele>466.8333333333333</ele><time>2026-04-09T09:27:00.948Z</time></trkpt><trkpt lat="44.3001517" lon="11.181695"><ele>467.0</ele><time>2026-04-09T09:27:01.948Z</time></trkpt><trkpt lat="44.3000967" lon="11.1816083"><ele>467.0</ele><time>2026-04-09T09:27:02.948Z</time></trkpt><trkpt lat="44.3000333" lon="11.181525"><ele>467.00000000000006</ele><time>2026-04-09T09:27:03.949Z</time></trkpt><trkpt lat="44.2999667" lon="11.18144"><ele>467.00000000000006</ele><time>2026-04-09T09:27:04.949Z</time></trkpt><trkpt lat="44.2998917" lon="11.1813567"><ele>467.0</ele><time>2026-04-09T09:27:05.948Z</time></trkpt><trkpt lat="44.2998033" lon="11.1812833"><ele>467.0</ele><time>2026-04-09T09:27:06.949Z</time></trkpt><trkpt lat="44.2997033" lon="11.18122"><ele>467.75</ele><time>2026-04-09T09:27:07.948Z</time></trkpt><trkpt lat="44.299585" lon="11.1811733"><ele>468.5</ele><time>2026-04-09T09:27:08.948Z</time></trkpt><trkpt lat="44.299465" lon="11.1811567"><ele>469.25</ele><time>2026-04-09T09:27:09.948Z</time></trkpt><trkpt lat="44.29935" lon="11.18115"><ele>470.0</ele><time>2026-04-09T09:27:10.948Z</time></trkpt><trkpt lat="44.2992283" lon="11.181155"><ele>470.0</ele><time>2026-04-09T09:27:11.948Z</time></trkpt><trkpt lat="44.2991133" lon="11.1811667"><ele>470.0</ele><time>2026-04-09T09:27:12.948Z</time></trkpt><trkpt lat="44.2990017" lon="11.1811883"><ele>470.0</ele><time>2026-04-09T09:27:13.948Z</time></trkpt><trkpt lat="44.2988983" lon="11.18121"><ele>470.0</ele><time>2026-04-09T09:27:14.948Z</time></trkpt><trkpt lat="44.2987933" lon="11.1812383"><ele>470.0</ele><time>2026-04-09T09:27:15.948Z</time></trkpt><trkpt lat="44.2986917" lon="11.1812667"><ele>471.0</ele><time>2026-04-09T09:27:16.948Z</time></trkpt><trkpt lat="44.2985983" lon="11.1812967"><ele>472.0</ele><time>2026-04-09T09:27:17.949Z</time></trkpt><trkpt lat="44.2985083" lon="11.18132"><ele>473.0</ele><time>2026-04-09T09:27:18.948Z</time></trkpt><trkpt lat="44.2984167" lon="11.1813467"><ele>474.0</ele><time>2026-04-09T09:27:19.948Z</time></trkpt><trkpt lat="44.2983283" lon="11.1813683"><ele>475.0</ele><time>2026-04-09T09:27:20.949Z</time></trkpt><trkpt lat="44.298235" lon="11.181385"><ele>475.0</ele><time>2026-04-09T09:27:21.948Z</time></trkpt><trkpt lat="44.2981433" lon="11.1813917"><ele>475.0</ele><time>2026-04-09T09:27:22.948Z</time></trkpt><trkpt lat="44.29804" lon="11.1814067"><ele>475.0</ele><time>2026-04-09T09:27:23.948Z</time></trkpt><trkpt lat="44.2979367" lon="11.181425"><ele>475.0</ele><time>2026-04-09T09:27:24.948Z</time></trkpt><trkpt lat="44.29783" lon="11.1814367"><ele>475.0</ele><time>2026-04-09T09:27:25.948Z</time></trkpt><trkpt lat="44.2977117" lon="11.1814433"><ele>472.8</ele><time>2026-04-09T09:27:26.948Z</time></trkpt><trkpt lat="44.2976017" lon="11.18144"><ele>470.6</ele><time>2026-04-09T09:27:27.948Z</time></trkpt><trkpt lat="44.297495" lon="11.18143"><ele>468.4</ele><time>2026-04-09T09:27:28.948Z</time></trkpt><trkpt lat="44.2973917" lon="11.18143"><ele>466.2</ele><time>2026-04-09T09:27:29.948Z</time></trkpt><trkpt lat="44.2972783" lon="11.1814367"><ele>464.0</ele><time>2026-04-09T09:27:30.948Z</time></trkpt><trkpt lat="44.2971783" lon="11.1814383"><ele>463.99999999999994</ele><time>2026-04-09T09:27:31.949Z</time></trkpt><trkpt lat="44.29708" lon="11.1814467"><ele>464.0</ele><time>2026-04-09T09:27:32.948Z</time></trkpt><trkpt lat="44.2969883" lon="11.1814467"><ele>464.0</ele><time>2026-04-09T09:27:33.949Z</time></trkpt><trkpt lat="44.2969017" lon="11.18144"><ele>464.0</ele><time>2026-04-09T09:27:34.948Z</time></trkpt><trkpt lat="44.2968167" lon="11.181425"><ele>463.99999999999994</ele><time>2026-04-09T09:27:35.948Z</time></trkpt><trkpt lat="44.296735" lon="11.181395"><ele>464.0</ele><time>2026-04-09T09:27:36.948Z</time></trkpt><trkpt lat="44.2966617" lon="11.1813433"><ele>463.99999999999994</ele><time>2026-04-09T09:27:37.948Z</time></trkpt><trkpt lat="44.2965883" lon="11.1812783"><ele>464.0</ele><time>2026-04-09T09:27:38.948Z</time></trkpt><trkpt lat="44.296535" lon="11.1811967"><ele>464.0</ele><time>2026-04-09T09:27:39.948Z</time></trkpt><trkpt lat="44.29649" lon="11.181095"><ele>464.0</ele><time>2026-04-09T09:27:40.949Z</time></trkpt><trkpt lat="44.296455" lon="11.1809817"><ele>463.99999999999994</ele><time>2026-04-09T09:27:41.948Z</time></trkpt><trkpt lat="44.296435" lon="11.1808533"><ele>464.0</ele><time>2026-04-09T09:27:42.948Z</time></trkpt><trkpt lat="44.2964233" lon="11.1807383"><ele>469.49999999999994</ele><time>2026-04-09T09:27:43.948Z</time></trkpt><trkpt lat="44.2964067" lon="11.18061"><ele>475.0</ele><time>2026-04-09T09:27:44.948Z</time></trkpt><trkpt lat="44.2963933" lon="11.180495"><ele>480.5</ele><time>2026-04-09T09:27:45.948Z</time></trkpt><trkpt lat="44.29637" lon="11.180365"><ele>486.0</ele><time>2026-04-09T09:27:46.948Z</time></trkpt><trkpt lat="44.29635" lon="11.1802417"><ele>491.49999999999994</ele><time>2026-04-09T09:27:47.948Z</time></trkpt><trkpt lat="44.2963267" lon="11.1801283"><ele>497.0</ele><time>2026-04-09T09:27:48.948Z</time></trkpt><trkpt lat="44.296295" lon="11.1800067"><ele>496.99999999999994</ele><time>2026-04-09T09:27:49.948Z</time></trkpt><trkpt lat="44.2962583" lon="11.1798883"><ele>497.0</ele><time>2026-04-09T09:27:50.948Z</time></trkpt><trkpt lat="44.29622" lon="11.179775"><ele>497.0</ele><time>2026-04-09T09:27:51.949Z</time></trkpt><trkpt lat="44.2961817" lon="11.17967"><ele>497.0</ele><time>2026-04-09T09:27:52.948Z</time></trkpt><trkpt lat="44.296135" lon="11.17958"><ele>496.99999999999994</ele><time>2026-04-09T09:27:53.949Z</time></trkpt><trkpt lat="44.2960733" lon="11.17949"><ele>497.0</ele><time>2026-04-09T09:27:54.948Z</time></trkpt><trkpt lat="44.2959983" lon="11.179405"><ele>494.8333333333333</ele><time>2026-04-09T09:27:55.949Z</time></trkpt><trkpt lat="44.2959217" lon="11.1793333"><ele>492.66666666666663</ele><time>2026-04-09T09:27:56.948Z</time></trkpt><trkpt lat="44.295835" lon="11.1792933"><ele>490.5</ele><time>2026-04-09T09:27:57.948Z</time></trkpt><trkpt lat="44.2957483" lon="11.1792717"><ele>488.33333333333337</ele><time>2026-04-09T09:27:58.949Z</time></trkpt><trkpt lat="44.29567" lon="11.179255"><ele>486.1666666666667</ele><time>2026-04-09T09:27:59.948Z</time></trkpt><trkpt lat="44.29559" lon="11.1792417"><ele>484.0</ele><time>2026-04-09T09:28:00.949Z</time></trkpt><trkpt lat="44.2955183" lon="11.179245"><ele>484.0</ele><time>2026-04-09T09:28:01.948Z</time></trkpt><trkpt lat="44.2954483" lon="11.1792567"><ele>483.99999999999994</ele><time>2026-04-09T09:28:02.949Z</time></trkpt><trkpt lat="44.2953767" lon="11.1792733"><ele>484.0</ele><time>2026-04-09T09:28:03.949Z</time></trkpt><trkpt lat="44.2953033" lon="11.179295"><ele>484.0</ele><time>2026-04-09T09:28:04.948Z</time></trkpt><trkpt lat="44.29524" lon="11.1793117"><ele>483.99999999999994</ele><time>2026-04-09T09:28:05.948Z</time></trkpt><trkpt lat="44.295175" lon="11.1793267"><ele>484.0</ele><time>2026-04-09T09:28:06.949Z</time></trkpt><trkpt lat="44.29511" lon="11.1793383"><ele>484.0</ele><time>2026-04-09T09:28:07.949Z</time></trkpt><trkpt lat="44.2949883" lon="11.1793333"><ele>484.00000000000006</ele><time>2026-04-09T09:28:09.949Z</time></trkpt><trkpt lat="44.2949217" lon="11.1792967"><ele>484.0</ele><time>2026-04-09T09:28:10.948Z</time></trkpt><trkpt lat="44.2948517" lon="11.1792483"><ele>484.0</ele><time>2026-04-09T09:28:11.948Z</time></trkpt><trkpt lat="44.2947817" lon="11.1791783"><ele>484.0</ele><time>2026-04-09T09:28:12.948Z</time></trkpt><trkpt lat="44.2947067" lon="11.1791"><ele>484.00000000000006</ele><time>2026-04-09T09:28:13.948Z</time></trkpt><trkpt lat="44.294635" lon="11.1790317"><ele>484.0</ele><time>2026-04-09T09:28:14.948Z</time></trkpt><trkpt lat="44.294575" lon="11.1789667"><ele>482.4</ele><time>2026-04-09T09:28:15.949Z</time></trkpt><trkpt lat="44.2945317" lon="11.1788883"><ele>480.79999999999995</ele><time>2026-04-09T09:28:16.948Z</time></trkpt><trkpt lat="44.2944983" lon="11.1788017"><ele>479.20000000000005</ele><time>2026-04-09T09:28:17.948Z</time></trkpt><trkpt lat="44.2944133" lon="11.1786783"><ele>477.6</ele><time>2026-04-09T09:28:19.949Z</time></trkpt><trkpt lat="44.2942983" lon="11.1785883"><ele>476.0</ele><time>2026-04-09T09:28:21.948Z</time></trkpt><trkpt lat="44.29423" lon="11.1785633"><ele>475.99999999999994</ele><time>2026-04-09T09:28:22.948Z</time></trkpt><trkpt lat="44.2941583" lon="11.1785433"><ele>476.0</ele><time>2026-04-09T09:28:23.948Z</time></trkpt><trkpt lat="44.2940833" lon="11.1785267"><ele>476.0</ele><time>2026-04-09T09:28:24.948Z</time></trkpt><trkpt lat="44.2940067" lon="11.17852"><ele>476.0</ele><time>2026-04-09T09:28:25.948Z</time></trkpt><trkpt lat="44.2939183" lon="11.1785267"><ele>475.99999999999994</ele><time>2026-04-09T09:28:26.948Z</time></trkpt><trkpt lat="44.2938283" lon="11.178565"><ele>476.0</ele><time>2026-04-09T09:28:27.948Z</time></trkpt><trkpt lat="44.2937433" lon="11.1786117"><ele>476.2857142857143</ele><time>2026-04-09T09:28:28.948Z</time></trkpt><trkpt lat="44.293665" lon="11.1786633"><ele>476.57142857142856</ele><time>2026-04-09T09:28:29.949Z</time></trkpt><trkpt lat="44.2935967" lon="11.1787067"><ele>476.8571428571429</ele><time>2026-04-09T09:28:30.949Z</time></trkpt><trkpt lat="44.2935333" lon="11.1787367"><ele>477.14285714285717</ele><time>2026-04-09T09:28:31.948Z</time></trkpt><trkpt lat="44.2934667" lon="11.17876"><ele>477.42857142857144</ele><time>2026-04-09T09:28:32.948Z</time></trkpt><trkpt lat="44.2934033" lon="11.1787617"><ele>477.7142857142858</ele><time>2026-04-09T09:28:33.948Z</time></trkpt><trkpt lat="44.29333" lon="11.1787383"><ele>478.00000000000006</ele><time>2026-04-09T09:28:34.948Z</time></trkpt><trkpt lat="44.2932533" lon="11.1786967"><ele>478.00000000000006</ele><time>2026-04-09T09:28:35.948Z</time></trkpt><trkpt lat="44.2931883" lon="11.1786467"><ele>478.0</ele><time>2026-04-09T09:28:36.948Z</time></trkpt><trkpt lat="44.293125" lon="11.1785833"><ele>478.0</ele><time>2026-04-09T09:28:37.948Z</time></trkpt><trkpt lat="44.2930567" lon="11.17852"><ele>478.0</ele><time>2026-04-09T09:28:38.948Z</time></trkpt><trkpt lat="44.2929817" lon="11.1784583"><ele>478.00000000000006</ele><time>2026-04-09T09:28:39.948Z</time></trkpt><trkpt lat="44.2929117" lon="11.178395"><ele>478.0</ele><time>2026-04-09T09:28:40.949Z</time></trkpt><trkpt lat="44.292845" lon="11.1783483"><ele>478.2</ele><time>2026-04-09T09:28:41.948Z</time></trkpt><trkpt lat="44.292785" lon="11.1783"><ele>478.4</ele><time>2026-04-09T09:28:42.948Z</time></trkpt><trkpt lat="44.2927033" lon="11.1781817"><ele>478.59999999999997</ele><time>2026-04-09T09:28:44.948Z</time></trkpt><trkpt lat="44.292675" lon="11.178065"><ele>478.79999999999995</ele><time>2026-04-09T09:28:46.948Z</time></trkpt><trkpt lat="44.2926683" lon="11.1779383"><ele>479.0</ele><time>2026-04-09T09:28:48.948Z</time></trkpt><trkpt lat="44.29264" lon="11.1778033"><ele>479.0</ele><time>2026-04-09T09:28:50.948Z</time></trkpt><trkpt lat="44.2925683" lon="11.1776517"><ele>479.0</ele><time>2026-04-09T09:28:52.948Z</time></trkpt><trkpt lat="44.29251" lon="11.1775833"><ele>479.0</ele><time>2026-04-09T09:28:53.947Z</time></trkpt><trkpt lat="44.2924333" lon="11.1775233"><ele>479.0</ele><time>2026-04-09T09:28:54.947Z</time></trkpt><trkpt lat="44.2923383" lon="11.1774667"><ele>479.0</ele><time>2026-04-09T09:28:55.947Z</time></trkpt><trkpt lat="44.29225" lon="11.1774183"><ele>480.49999999999994</ele><time>2026-04-09T09:28:56.947Z</time></trkpt><trkpt lat="44.2921667" lon="11.1773683"><ele>482.0</ele><time>2026-04-09T09:28:57.947Z</time></trkpt><trkpt lat="44.292105" lon="11.1773167"><ele>483.5</ele><time>2026-04-09T09:28:58.947Z</time></trkpt><trkpt lat="44.29206" lon="11.17725"><ele>485.0</ele><time>2026-04-09T09:28:59.948Z</time></trkpt><trkpt lat="44.2920217" lon="11.1771617"><ele>486.49999999999994</ele><time>2026-04-09T09:29:00.947Z</time></trkpt><trkpt lat="44.2919917" lon="11.177075"><ele>488.0</ele><time>2026-04-09T09:29:01.948Z</time></trkpt><trkpt lat="44.2919633" lon="11.1769183"><ele>489.4</ele><time>2026-04-09T09:29:03.948Z</time></trkpt><trkpt lat="44.2919667" lon="11.1767983"><ele>490.79999999999995</ele><time>2026-04-09T09:29:05.947Z</time></trkpt><trkpt lat="44.291945" lon="11.1766767"><ele>492.2</ele><time>2026-04-09T09:29:08.947Z</time></trkpt><trkpt lat="44.2918417" lon="11.1766433"><ele>493.6</ele><time>2026-04-09T09:29:10.947Z</time></trkpt><trkpt lat="44.2917617" lon="11.1766333"><ele>495.0</ele><time>2026-04-09T09:29:11.947Z</time></trkpt><trkpt lat="44.2916717" lon="11.1766083"><ele>495.0</ele><time>2026-04-09T09:29:12.948Z</time></trkpt><trkpt lat="44.2915767" lon="11.176585"><ele>495.0</ele><time>2026-04-09T09:29:13.947Z</time></trkpt><trkpt lat="44.2914683" lon="11.1765733"><ele>495.0</ele><time>2026-04-09T09:29:14.947Z</time></trkpt><trkpt lat="44.2913383" lon="11.1765833"><ele>495.0</ele><time>2026-04-09T09:29:15.947Z</time></trkpt><trkpt lat="44.2912133" lon="11.1766167"><ele>496.2</ele><time>2026-04-09T09:29:16.948Z</time></trkpt><trkpt lat="44.2910983" lon="11.1766467"><ele>497.4</ele><time>2026-04-09T09:29:17.947Z</time></trkpt><trkpt lat="44.290995" lon="11.1766767"><ele>498.6</ele><time>2026-04-09T09:29:18.947Z</time></trkpt><trkpt lat="44.290905" lon="11.1766967"><ele>499.8</ele><time>2026-04-09T09:29:19.947Z</time></trkpt><trkpt lat="44.2908133" lon="11.17671"><ele>501.0</ele><time>2026-04-09T09:29:20.947Z</time></trkpt><trkpt lat="44.2907217" lon="11.1767167"><ele>501.0</ele><time>2026-04-09T09:29:21.947Z</time></trkpt><trkpt lat="44.290625" lon="11.1767033"><ele>501.0</ele><time>2026-04-09T09:29:22.947Z</time></trkpt><trkpt lat="44.290525" lon="11.17668"><ele>501.0</ele><time>2026-04-09T09:29:23.947Z</time></trkpt><trkpt lat="44.2904283" lon="11.1766283"><ele>501.0</ele><time>2026-04-09T09:29:24.947Z</time></trkpt><trkpt lat="44.2903233" lon="11.1765717"><ele>501.0</ele><time>2026-04-09T09:29:25.947Z</time></trkpt><trkpt lat="44.2902183" lon="11.17648"><ele>502.0</ele><time>2026-04-09T09:29:26.947Z</time></trkpt><trkpt lat="44.2901233" lon="11.1763667"><ele>503.0</ele><time>2026-04-09T09:29:27.947Z</time></trkpt><trkpt lat="44.2900283" lon="11.1762583"><ele>504.0</ele><time>2026-04-09T09:29:28.947Z</time></trkpt><trkpt lat="44.2899367" lon="11.1761533"><ele>505.0</ele><time>2026-04-09T09:29:29.947Z</time></trkpt><trkpt lat="44.2898367" lon="11.17607"><ele>500.25</ele><time>2026-04-09T09:29:30.947Z</time></trkpt><trkpt lat="44.2897283" lon="11.176025"><ele>495.5</ele><time>2026-04-09T09:29:31.947Z</time></trkpt><trkpt lat="44.2896217" lon="11.176015"><ele>490.75</ele><time>2026-04-09T09:29:32.948Z</time></trkpt><trkpt lat="44.2895017" lon="11.1760383"><ele>486.0</ele><time>2026-04-09T09:29:33.947Z</time></trkpt><trkpt lat="44.2893783" lon="11.1760867"><ele>486.0</ele><time>2026-04-09T09:29:34.948Z</time></trkpt><trkpt lat="44.2892617" lon="11.1761667"><ele>486.0</ele><time>2026-04-09T09:29:35.947Z</time></trkpt><trkpt lat="44.289165" lon="11.176235"><ele>486.0</ele><time>2026-04-09T09:29:36.948Z</time></trkpt><trkpt lat="44.2890733" lon="11.1762917"><ele>486.0</ele><time>2026-04-09T09:29:37.947Z</time></trkpt><trkpt lat="44.2889983" lon="11.1763333"><ele>486.0</ele><time>2026-04-09T09:29:38.947Z</time></trkpt><trkpt lat="44.2889283" lon="11.1763633"><ele>481.6666666666667</ele><time>2026-04-09T09:29:39.947Z</time></trkpt><trkpt lat="44.2888567" lon="11.17637"><ele>477.33333333333337</ele><time>2026-04-09T09:29:40.948Z</time></trkpt><trkpt lat="44.2887833" lon="11.1763533"><ele>473.0</ele><time>2026-04-09T09:29:41.947Z</time></trkpt><trkpt lat="44.2887033" lon="11.1763067"><ele>468.6666666666667</ele><time>2026-04-09T09:29:42.947Z</time></trkpt><trkpt lat="44.2886167" lon="11.17625"><ele>464.33333333333337</ele><time>2026-04-09T09:29:43.948Z</time></trkpt><trkpt lat="44.2885267" lon="11.17617"><ele>460.0</ele><time>2026-04-09T09:29:44.947Z</time></trkpt><trkpt lat="44.2884367" lon="11.176095"><ele>460.00000000000006</ele><time>2026-04-09T09:29:45.947Z</time></trkpt><trkpt lat="44.28836" lon="11.1760317"><ele>460.0</ele><time>2026-04-09T09:29:46.948Z</time></trkpt><trkpt lat="44.2883" lon="11.1759617"><ele>460.0</ele><time>2026-04-09T09:29:47.947Z</time></trkpt><trkpt lat="44.2882567" lon="11.1758867"><ele>460.0</ele><time>2026-04-09T09:29:48.947Z</time></trkpt><trkpt lat="44.288245" lon="11.1757983"><ele>460.00000000000006</ele><time>2026-04-09T09:29:49.947Z</time></trkpt><trkpt lat="44.288265" lon="11.1756883"><ele>460.0</ele><time>2026-04-09T09:29:50.947Z</time></trkpt><trkpt lat="44.2883083" lon="11.175575"><ele>461.4</ele><time>2026-04-09T09:29:51.948Z</time></trkpt><trkpt lat="44.2883483" lon="11.17546"><ele>462.8</ele><time>2026-04-09T09:29:52.947Z</time></trkpt><trkpt lat="44.288355" lon="11.1753267"><ele>464.20000000000005</ele><time>2026-04-09T09:29:53.947Z</time></trkpt><trkpt lat="44.288345" lon="11.1751683"><ele>465.6</ele><time>2026-04-09T09:29:54.948Z</time></trkpt><trkpt lat="44.2882933" lon="11.1749883"><ele>467.0</ele><time>2026-04-09T09:29:55.947Z</time></trkpt><trkpt lat="44.2882467" lon="11.1748117"><ele>468.75</ele><time>2026-04-09T09:29:56.948Z</time></trkpt><trkpt lat="44.2881967" lon="11.1746383"><ele>470.5</ele><time>2026-04-09T09:29:57.947Z</time></trkpt><trkpt lat="44.28815" lon="11.1744667"><ele>472.25</ele><time>2026-04-09T09:29:58.948Z</time></trkpt><trkpt lat="44.2881133" lon="11.1743083"><ele>474.0</ele><time>2026-04-09T09:29:59.948Z</time></trkpt><trkpt lat="44.2880783" lon="11.1741633"><ele>475.0</ele><time>2026-04-09T09:30:00.948Z</time></trkpt><trkpt lat="44.28803" lon="11.17403"><ele>476.0</ele><time>2026-04-09T09:30:01.947Z</time></trkpt><trkpt lat="44.287955" lon="11.1739217"><ele>477.0</ele><time>2026-04-09T09:30:02.948Z</time></trkpt><trkpt lat="44.2878767" lon="11.1738517"><ele>478.0</ele><time>2026-04-09T09:30:03.948Z</time></trkpt><trkpt lat="44.28778" lon="11.1738033"><ele>479.0</ele><time>2026-04-09T09:30:04.948Z</time></trkpt><trkpt lat="44.2876733" lon="11.1737733"><ele>479.0</ele><time>2026-04-09T09:30:05.947Z</time></trkpt><trkpt lat="44.28755" lon="11.173765"><ele>479.0</ele><time>2026-04-09T09:30:06.947Z</time></trkpt><trkpt lat="44.2874133" lon="11.173765"><ele>479.0</ele><time>2026-04-09T09:30:07.947Z</time></trkpt><trkpt lat="44.287275" lon="11.173785"><ele>479.0</ele><time>2026-04-09T09:30:08.947Z</time></trkpt><trkpt lat="44.28714" lon="11.17381"><ele>481.75</ele><time>2026-04-09T09:30:09.948Z</time></trkpt><trkpt lat="44.2870067" lon="11.1738317"><ele>484.5</ele><time>2026-04-09T09:30:10.947Z</time></trkpt><trkpt lat="44.2868717" lon="11.1738467"><ele>487.25</ele><time>2026-04-09T09:30:11.948Z</time></trkpt><trkpt lat="44.2867483" lon="11.1738617"><ele>490.0</ele><time>2026-04-09T09:30:12.947Z</time></trkpt><trkpt lat="44.286625" lon="11.173885"><ele>490.0</ele><time>2026-04-09T09:30:13.947Z</time></trkpt><trkpt lat="44.2864967" lon="11.1739217"><ele>490.0</ele><time>2026-04-09T09:30:14.948Z</time></trkpt><trkpt lat="44.2863767" lon="11.1739683"><ele>490.0</ele><time>2026-04-09T09:30:15.947Z</time></trkpt><trkpt lat="44.2862733" lon="11.174"><ele>490.0</ele><time>2026-04-09T09:30:16.947Z</time></trkpt><trkpt lat="44.286155" lon="11.1740033"><ele>491.6</ele><time>2026-04-09T09:30:17.948Z</time></trkpt><trkpt lat="44.2860533" lon="11.17398"><ele>493.2</ele><time>2026-04-09T09:30:18.947Z</time></trkpt><trkpt lat="44.28595" lon="11.1739367"><ele>494.79999999999995</ele><time>2026-04-09T09:30:19.948Z</time></trkpt><trkpt lat="44.28586" lon="11.1738833"><ele>496.4</ele><time>2026-04-09T09:30:20.947Z</time></trkpt><trkpt lat="44.2857767" lon="11.1738"><ele>498.0</ele><time>2026-04-09T09:30:21.947Z</time></trkpt><trkpt lat="44.2856983" lon="11.1736883"><ele>498.0</ele><time>2026-04-09T09:30:22.947Z</time></trkpt><trkpt lat="44.2856133" lon="11.173565"><ele>498.0</ele><time>2026-04-09T09:30:23.948Z</time></trkpt><trkpt lat="44.285525" lon="11.173425"><ele>498.0</ele><time>2026-04-09T09:30:24.948Z</time></trkpt><trkpt lat="44.28543" lon="11.173285"><ele>498.0</ele><time>2026-04-09T09:30:25.947Z</time></trkpt><trkpt lat="44.2853317" lon="11.1731417"><ele>496.25</ele><time>2026-04-09T09:30:26.947Z</time></trkpt><trkpt lat="44.2852233" lon="11.1730083"><ele>494.5</ele><time>2026-04-09T09:30:27.948Z</time></trkpt><trkpt lat="44.285125" lon="11.1728883"><ele>492.75</ele><time>2026-04-09T09:30:28.947Z</time></trkpt><trkpt lat="44.2850333" lon="11.1727783"><ele>491.0</ele><time>2026-04-09T09:30:29.947Z</time></trkpt><trkpt lat="44.2849517" lon="11.1726817"><ele>491.0</ele><time>2026-04-09T09:30:30.947Z</time></trkpt><trkpt lat="44.28489" lon="11.1725867"><ele>491.0</ele><time>2026-04-09T09:30:31.947Z</time></trkpt><trkpt lat="44.2848617" lon="11.1724683"><ele>491.0</ele><time>2026-04-09T09:30:32.947Z</time></trkpt><trkpt lat="44.2848533" lon="11.1723467"><ele>491.0</ele><time>2026-04-09T09:30:33.948Z</time></trkpt><trkpt lat="44.284865" lon="11.172215"><ele>491.0</ele><time>2026-04-09T09:30:34.948Z</time></trkpt><trkpt lat="44.2848883" lon="11.1720583"><ele>489.5</ele><time>2026-04-09T09:30:35.947Z</time></trkpt><trkpt lat="44.2849117" lon="11.1718867"><ele>488.0</ele><time>2026-04-09T09:30:36.947Z</time></trkpt><trkpt lat="44.2849333" lon="11.1717167"><ele>486.5</ele><time>2026-04-09T09:30:37.947Z</time></trkpt><trkpt lat="44.2849417" lon="11.1715183"><ele>485.0</ele><time>2026-04-09T09:30:38.947Z</time></trkpt><trkpt lat="44.2849417" lon="11.1713167"><ele>484.75</ele><time>2026-04-09T09:30:39.947Z</time></trkpt><trkpt lat="44.284935" lon="11.17111"><ele>484.5</ele><time>2026-04-09T09:30:40.948Z</time></trkpt><trkpt lat="44.28492" lon="11.17092"><ele>484.25</ele><time>2026-04-09T09:30:41.947Z</time></trkpt><trkpt lat="44.2848967" lon="11.1707267"><ele>484.0</ele><time>2026-04-09T09:30:42.947Z</time></trkpt><trkpt lat="44.2848683" lon="11.17056"><ele>483.4</ele><time>2026-04-09T09:30:43.947Z</time></trkpt><trkpt lat="44.2848367" lon="11.1704167"><ele>482.79999999999995</ele><time>2026-04-09T09:30:44.947Z</time></trkpt><trkpt lat="44.284805" lon="11.1702817"><ele>482.20000000000005</ele><time>2026-04-09T09:30:45.947Z</time></trkpt><trkpt lat="44.2847617" lon="11.1701683"><ele>481.6</ele><time>2026-04-09T09:30:46.947Z</time></trkpt><trkpt lat="44.2846867" lon="11.1700667"><ele>481.0</ele><time>2026-04-09T09:30:47.947Z</time></trkpt><trkpt lat="44.284595" lon="11.1699817"><ele>481.0</ele><time>2026-04-09T09:30:48.947Z</time></trkpt><trkpt lat="44.28448" lon="11.1699167"><ele>481.0</ele><time>2026-04-09T09:30:49.948Z</time></trkpt><trkpt lat="44.28435" lon="11.1698483"><ele>481.0</ele><time>2026-04-09T09:30:50.947Z</time></trkpt><trkpt lat="44.2842217" lon="11.169785"><ele>481.0</ele><time>2026-04-09T09:30:51.948Z</time></trkpt><trkpt lat="44.284095" lon="11.16974"><ele>489.25</ele><time>2026-04-09T09:30:52.947Z</time></trkpt><trkpt lat="44.2839617" lon="11.1697083"><ele>497.5</ele><time>2026-04-09T09:30:53.948Z</time></trkpt><trkpt lat="44.2838367" lon="11.1696967"><ele>505.75</ele><time>2026-04-09T09:30:54.947Z</time></trkpt><trkpt lat="44.283725" lon="11.1696983"><ele>514.0</ele><time>2026-04-09T09:30:55.947Z</time></trkpt><trkpt lat="44.2836183" lon="11.16971"><ele>516.4</ele><time>2026-04-09T09:30:56.947Z</time></trkpt><trkpt lat="44.2835283" lon="11.1697333"><ele>518.8</ele><time>2026-04-09T09:30:57.947Z</time></trkpt><trkpt lat="44.2834433" lon="11.1697967"><ele>521.2</ele><time>2026-04-09T09:30:58.947Z</time></trkpt><trkpt lat="44.283365" lon="11.1698983"><ele>523.6</ele><time>2026-04-09T09:30:59.947Z</time></trkpt><trkpt lat="44.283295" lon="11.1700017"><ele>526.0</ele><time>2026-04-09T09:31:00.947Z</time></trkpt><trkpt lat="44.2832183" lon="11.1700883"><ele>527.4</ele><time>2026-04-09T09:31:01.947Z</time></trkpt><trkpt lat="44.2831317" lon="11.1701433"><ele>528.8</ele><time>2026-04-09T09:31:02.947Z</time></trkpt><trkpt lat="44.28303" lon="11.1701783"><ele>530.1999999999999</ele><time>2026-04-09T09:31:03.947Z</time></trkpt><trkpt lat="44.28293" lon="11.1701917"><ele>531.6</ele><time>2026-04-09T09:31:04.947Z</time></trkpt><trkpt lat="44.2828333" lon="11.1702083"><ele>533.0</ele><time>2026-04-09T09:31:05.947Z</time></trkpt><trkpt lat="44.2827517" lon="11.17023"><ele>533.0</ele><time>2026-04-09T09:31:06.947Z</time></trkpt><trkpt lat="44.2826817" lon="11.170295"><ele>533.0</ele><time>2026-04-09T09:31:07.947Z</time></trkpt><trkpt lat="44.2826233" lon="11.1703817"><ele>533.0</ele><time>2026-04-09T09:31:08.947Z</time></trkpt><trkpt lat="44.2825667" lon="11.17048"><ele>533.0</ele><time>2026-04-09T09:31:09.947Z</time></trkpt><trkpt lat="44.282495" lon="11.1705683"><ele>533.0</ele><time>2026-04-09T09:31:10.947Z</time></trkpt><trkpt lat="44.2824017" lon="11.1706433"><ele>530.8</ele><time>2026-04-09T09:31:11.948Z</time></trkpt><trkpt lat="44.2823" lon="11.1707233"><ele>528.5999999999999</ele><time>2026-04-09T09:31:12.947Z</time></trkpt><trkpt lat="44.2822083" lon="11.1708033"><ele>526.4000000000001</ele><time>2026-04-09T09:31:13.947Z</time></trkpt><trkpt lat="44.282125" lon="11.1708733"><ele>524.2</ele><time>2026-04-09T09:31:14.947Z</time></trkpt><trkpt lat="44.2820433" lon="11.1709183"><ele>522.0</ele><time>2026-04-09T09:31:15.947Z</time></trkpt><trkpt lat="44.2819583" lon="11.1709383"><ele>522.0</ele><time>2026-04-09T09:31:16.947Z</time></trkpt><trkpt lat="44.2818733" lon="11.1709317"><ele>522.0</ele><time>2026-04-09T09:31:17.947Z</time></trkpt><trkpt lat="44.2817833" lon="11.170905"><ele>522.0</ele><time>2026-04-09T09:31:18.947Z</time></trkpt><trkpt lat="44.28169" lon="11.17089"><ele>522.0</ele><time>2026-04-09T09:31:19.947Z</time></trkpt><trkpt lat="44.2816" lon="11.1709033"><ele>522.0</ele><time>2026-04-09T09:31:20.947Z</time></trkpt><trkpt lat="44.2815217" lon="11.1709683"><ele>522.0</ele><time>2026-04-09T09:31:21.948Z</time></trkpt><trkpt lat="44.2814533" lon="11.1710583"><ele>522.0</ele><time>2026-04-09T09:31:22.947Z</time></trkpt><trkpt lat="44.2813917" lon="11.171145"><ele>522.0</ele><time>2026-04-09T09:31:23.947Z</time></trkpt><trkpt lat="44.2813267" lon="11.17121"><ele>522.0</ele><time>2026-04-09T09:31:24.947Z</time></trkpt><trkpt lat="44.2812467" lon="11.17125"><ele>522.0</ele><time>2026-04-09T09:31:25.947Z</time></trkpt><trkpt lat="44.2811583" lon="11.1712783"><ele>522.0</ele><time>2026-04-09T09:31:26.947Z</time></trkpt><trkpt lat="44.2810633" lon="11.1712883"><ele>525.2</ele><time>2026-04-09T09:31:27.948Z</time></trkpt><trkpt lat="44.2809567" lon="11.1713033"><ele>528.4000000000001</ele><time>2026-04-09T09:31:28.947Z</time></trkpt><trkpt lat="44.280855" lon="11.1713067"><ele>531.5999999999999</ele><time>2026-04-09T09:31:29.947Z</time></trkpt><trkpt lat="44.28076" lon="11.1713117"><ele>534.8</ele><time>2026-04-09T09:31:30.947Z</time></trkpt><trkpt lat="44.2806583" lon="11.17131"><ele>538.0</ele><time>2026-04-09T09:31:31.947Z</time></trkpt><trkpt lat="44.2805633" lon="11.1713"><ele>538.0</ele><time>2026-04-09T09:31:32.947Z</time></trkpt><trkpt lat="44.2804533" lon="11.1712583"><ele>538.0</ele><time>2026-04-09T09:31:33.947Z</time></trkpt><trkpt lat="44.2803417" lon="11.171225"><ele>538.0</ele><time>2026-04-09T09:31:34.948Z</time></trkpt><trkpt lat="44.2802233" lon="11.1712233"><ele>538.0</ele><time>2026-04-09T09:31:35.947Z</time></trkpt><trkpt lat="44.280105" lon="11.171225"><ele>538.0</ele><time>2026-04-09T09:31:36.947Z</time></trkpt><trkpt lat="44.2799933" lon="11.1712317"><ele>538.0</ele><time>2026-04-09T09:31:37.947Z</time></trkpt><trkpt lat="44.2798933" lon="11.1712283"><ele>538.0</ele><time>2026-04-09T09:31:38.947Z</time></trkpt><trkpt lat="44.2797967" lon="11.1712233"><ele>538.0</ele><time>2026-04-09T09:31:39.947Z</time></trkpt><trkpt lat="44.27971" lon="11.171235"><ele>538.0</ele><time>2026-04-09T09:31:40.947Z</time></trkpt><trkpt lat="44.2796217" lon="11.17127"><ele>535.1999999999999</ele><time>2026-04-09T09:31:41.947Z</time></trkpt><trkpt lat="44.2795467" lon="11.1713333"><ele>532.4</ele><time>2026-04-09T09:31:42.947Z</time></trkpt><trkpt lat="44.2794783" lon="11.171435"><ele>529.5999999999999</ele><time>2026-04-09T09:31:43.947Z</time></trkpt><trkpt lat="44.27943" lon="11.17156"><ele>526.8</ele><time>2026-04-09T09:31:44.947Z</time></trkpt><trkpt lat="44.2794083" lon="11.1716983"><ele>524.0</ele><time>2026-04-09T09:31:45.947Z</time></trkpt><trkpt lat="44.2794117" lon="11.171865"><ele>522.0</ele><time>2026-04-09T09:31:46.947Z</time></trkpt><trkpt lat="44.2794383" lon="11.17204"><ele>520.0</ele><time>2026-04-09T09:31:47.947Z</time></trkpt><trkpt lat="44.27947" lon="11.17221"><ele>518.0</ele><time>2026-04-09T09:31:48.947Z</time></trkpt><trkpt lat="44.2794933" lon="11.1723633"><ele>516.0</ele><time>2026-04-09T09:31:49.948Z</time></trkpt><trkpt lat="44.2794967" lon="11.172485"><ele>515.2</ele><time>2026-04-09T09:31:50.947Z</time></trkpt><trkpt lat="44.2794717" lon="11.172585"><ele>514.4000000000001</ele><time>2026-04-09T09:31:51.947Z</time></trkpt><trkpt lat="44.2794133" lon="11.17267"><ele>513.6</ele><time>2026-04-09T09:31:52.947Z</time></trkpt><trkpt lat="44.2793333" lon="11.1727467"><ele>512.8000000000001</ele><time>2026-04-09T09:31:53.947Z</time></trkpt><trkpt lat="44.27922" lon="11.17281"><ele>512.0</ele><time>2026-04-09T09:31:54.947Z</time></trkpt><trkpt lat="44.2791117" lon="11.1728783"><ele>512.0</ele><time>2026-04-09T09:31:55.947Z</time></trkpt><trkpt lat="44.2790133" lon="11.1729567"><ele>512.0</ele><time>2026-04-09T09:31:56.947Z</time></trkpt><trkpt lat="44.2789133" lon="11.173015"><ele>512.0</ele><time>2026-04-09T09:31:57.947Z</time></trkpt><trkpt lat="44.2788217" lon="11.17305"><ele>512.0</ele><time>2026-04-09T09:31:58.948Z</time></trkpt><trkpt lat="44.2787167" lon="11.173055"><ele>512.0</ele><time>2026-04-09T09:31:59.947Z</time></trkpt><trkpt lat="44.2786117" lon="11.1730567"><ele>507.75</ele><time>2026-04-09T09:32:00.948Z</time></trkpt><trkpt lat="44.2784967" lon="11.173045"><ele>503.5</ele><time>2026-04-09T09:32:01.947Z</time></trkpt><trkpt lat="44.2783817" lon="11.17304"><ele>499.25</ele><time>2026-04-09T09:32:02.947Z</time></trkpt><trkpt lat="44.2782683" lon="11.173055"><ele>495.0</ele><time>2026-04-09T09:32:03.947Z</time></trkpt><trkpt lat="44.2781583" lon="11.173065"><ele>493.8</ele><time>2026-04-09T09:32:04.947Z</time></trkpt><trkpt lat="44.278055" lon="11.173095"><ele>492.6</ele><time>2026-04-09T09:32:05.948Z</time></trkpt><trkpt lat="44.2779533" lon="11.1731283"><ele>491.4</ele><time>2026-04-09T09:32:06.947Z</time></trkpt><trkpt lat="44.2778567" lon="11.173165"><ele>490.2</ele><time>2026-04-09T09:32:07.947Z</time></trkpt><trkpt lat="44.2777733" lon="11.1731967"><ele>489.0</ele><time>2026-04-09T09:32:08.947Z</time></trkpt><trkpt lat="44.2776967" lon="11.1732233"><ele>489.0</ele><time>2026-04-09T09:32:09.947Z</time></trkpt><trkpt lat="44.27759" lon="11.173245"><ele>489.0</ele><time>2026-04-09T09:32:11.947Z</time></trkpt><trkpt lat="44.2775083" lon="11.1732283"><ele>489.0</ele><time>2026-04-09T09:32:13.947Z</time></trkpt><trkpt lat="44.2774717" lon="11.173135"><ele>489.0</ele><time>2026-04-09T09:32:15.947Z</time></trkpt><trkpt lat="44.277465" lon="11.17298"><ele>489.0</ele><time>2026-04-09T09:32:17.947Z</time></trkpt><trkpt lat="44.27744" lon="11.17288"><ele>487.6</ele><time>2026-04-09T09:32:18.948Z</time></trkpt><trkpt lat="44.2773933" lon="11.172775"><ele>486.2</ele><time>2026-04-09T09:32:19.948Z</time></trkpt><trkpt lat="44.2773233" lon="11.1726833"><ele>484.80000000000007</ele><time>2026-04-09T09:32:20.948Z</time></trkpt><trkpt lat="44.277245" lon="11.1725817"><ele>483.40000000000003</ele><time>2026-04-09T09:32:21.947Z</time></trkpt><trkpt lat="44.2771867" lon="11.17248"><ele>482.0</ele><time>2026-04-09T09:32:22.948Z</time></trkpt><trkpt lat="44.27713" lon="11.1723433"><ele>478.0</ele><time>2026-04-09T09:32:23.947Z</time></trkpt><trkpt lat="44.277085" lon="11.1721833"><ele>474.0</ele><time>2026-04-09T09:32:24.948Z</time></trkpt><trkpt lat="44.2770433" lon="11.1720083"><ele>470.0</ele><time>2026-04-09T09:32:25.947Z</time></trkpt><trkpt lat="44.27701" lon="11.17183"><ele>466.0</ele><time>2026-04-09T09:32:26.947Z</time></trkpt><trkpt lat="44.27697" lon="11.1716483"><ele>468.0</ele><time>2026-04-09T09:32:27.947Z</time></trkpt><trkpt lat="44.2769333" lon="11.1714567"><ele>470.0</ele><time>2026-04-09T09:32:28.947Z</time></trkpt><trkpt lat="44.2768833" lon="11.1712667"><ele>472.0</ele><time>2026-04-09T09:32:29.947Z</time></trkpt><trkpt lat="44.27685" lon="11.171095"><ele>474.0</ele><time>2026-04-09T09:32:30.947Z</time></trkpt><trkpt lat="44.27682" lon="11.1709317"><ele>474.0</ele><time>2026-04-09T09:32:31.948Z</time></trkpt><trkpt lat="44.2768" lon="11.17078"><ele>474.0</ele><time>2026-04-09T09:32:32.947Z</time></trkpt><trkpt lat="44.2767967" lon="11.17064"><ele>474.0</ele><time>2026-04-09T09:32:33.947Z</time></trkpt><trkpt lat="44.2768" lon="11.1705317"><ele>474.0</ele><time>2026-04-09T09:32:34.948Z</time></trkpt><trkpt lat="44.2768383" lon="11.1704383"><ele>474.0</ele><time>2026-04-09T09:32:35.947Z</time></trkpt><trkpt lat="44.27689" lon="11.1703817"><ele>474.0</ele><time>2026-04-09T09:32:36.947Z</time></trkpt><trkpt lat="44.2769467" lon="11.1703383"><ele>472.6</ele><time>2026-04-09T09:32:37.947Z</time></trkpt><trkpt lat="44.2770167" lon="11.17029"><ele>471.2</ele><time>2026-04-09T09:32:38.947Z</time></trkpt><trkpt lat="44.277095" lon="11.17023"><ele>469.80000000000007</ele><time>2026-04-09T09:32:39.947Z</time></trkpt><trkpt lat="44.2771817" lon="11.1701567"><ele>468.40000000000003</ele><time>2026-04-09T09:32:40.948Z</time></trkpt><trkpt lat="44.2772583" lon="11.1700833"><ele>467.0</ele><time>2026-04-09T09:32:41.948Z</time></trkpt><trkpt lat="44.2773133" lon="11.169975"><ele>469.6</ele><time>2026-04-09T09:32:42.948Z</time></trkpt><trkpt lat="44.2773567" lon="11.1698733"><ele>472.20000000000005</ele><time>2026-04-09T09:32:43.947Z</time></trkpt><trkpt lat="44.27737" lon="11.1697567"><ele>474.8</ele><time>2026-04-09T09:32:44.948Z</time></trkpt><trkpt lat="44.2773367" lon="11.169625"><ele>477.4</ele><time>2026-04-09T09:32:45.947Z</time></trkpt><trkpt lat="44.2772283" lon="11.1695033"><ele>480.0</ele><time>2026-04-09T09:32:46.947Z</time></trkpt><trkpt lat="44.277105" lon="11.1693917"><ele>480.0</ele><time>2026-04-09T09:32:47.948Z</time></trkpt><trkpt lat="44.27697" lon="11.16928"><ele>480.0</ele><time>2026-04-09T09:32:48.947Z</time></trkpt><trkpt lat="44.2768333" lon="11.1691917"><ele>480.0</ele><time>2026-04-09T09:32:49.947Z</time></trkpt><trkpt lat="44.2766883" lon="11.1691167"><ele>480.0</ele><time>2026-04-09T09:32:50.947Z</time></trkpt><trkpt lat="44.2765533" lon="11.1690533"><ele>480.0</ele><time>2026-04-09T09:32:51.947Z</time></trkpt><trkpt lat="44.2764417" lon="11.1689733"><ele>480.0</ele><time>2026-04-09T09:32:52.947Z</time></trkpt><trkpt lat="44.2763367" lon="11.16892"><ele>480.0</ele><time>2026-04-09T09:32:53.947Z</time></trkpt><trkpt lat="44.2762467" lon="11.1688517"><ele>482.6</ele><time>2026-04-09T09:32:54.947Z</time></trkpt><trkpt lat="44.2761567" lon="11.1688233"><ele>485.2</ele><time>2026-04-09T09:32:55.947Z</time></trkpt><trkpt lat="44.2760583" lon="11.1688167"><ele>487.79999999999995</ele><time>2026-04-09T09:32:56.947Z</time></trkpt><trkpt lat="44.2759583" lon="11.1688333"><ele>490.4</ele><time>2026-04-09T09:32:57.947Z</time></trkpt><trkpt lat="44.2758533" lon="11.1688433"><ele>493.0</ele><time>2026-04-09T09:32:58.947Z</time></trkpt><trkpt lat="44.2757433" lon="11.1688467"><ele>493.00000000000006</ele><time>2026-04-09T09:32:59.947Z</time></trkpt><trkpt lat="44.2756317" lon="11.16884"><ele>493.0</ele><time>2026-04-09T09:33:00.947Z</time></trkpt><trkpt lat="44.275545" lon="11.1688167"><ele>493.0</ele><time>2026-04-09T09:33:01.947Z</time></trkpt><trkpt lat="44.27546" lon="11.1687867"><ele>493.0</ele><time>2026-04-09T09:33:02.947Z</time></trkpt><trkpt lat="44.2753917" lon="11.1687483"><ele>493.00000000000006</ele><time>2026-04-09T09:33:03.947Z</time></trkpt><trkpt lat="44.2753583" lon="11.1686617"><ele>493.0</ele><time>2026-04-09T09:33:04.948Z</time></trkpt><trkpt lat="44.2752933" lon="11.1684883"><ele>490.25</ele><time>2026-04-09T09:33:06.947Z</time></trkpt><trkpt lat="44.2752767" lon="11.16836"><ele>487.5</ele><time>2026-04-09T09:33:07.947Z</time></trkpt><trkpt lat="44.2752483" lon="11.1682283"><ele>484.75</ele><time>2026-04-09T09:33:08.947Z</time></trkpt><trkpt lat="44.275225" lon="11.16805"><ele>482.0</ele><time>2026-04-09T09:33:09.947Z</time></trkpt><trkpt lat="44.2751783" lon="11.1678717"><ele>482.0</ele><time>2026-04-09T09:33:10.947Z</time></trkpt><trkpt lat="44.2751217" lon="11.16771"><ele>482.0</ele><time>2026-04-09T09:33:11.947Z</time></trkpt><trkpt lat="44.27507" lon="11.167575"><ele>482.0</ele><time>2026-04-09T09:33:12.947Z</time></trkpt><trkpt lat="44.2750133" lon="11.1674483"><ele>482.0</ele><time>2026-04-09T09:33:13.947Z</time></trkpt><trkpt lat="44.274965" lon="11.1673183"><ele>485.5</ele><time>2026-04-09T09:33:14.947Z</time></trkpt><trkpt lat="44.2749267" lon="11.16718"><ele>489.0</ele><time>2026-04-09T09:33:15.948Z</time></trkpt><trkpt lat="44.2748833" lon="11.1670283"><ele>492.5</ele><time>2026-04-09T09:33:16.947Z</time></trkpt><trkpt lat="44.27484" lon="11.166885"><ele>496.0</ele><time>2026-04-09T09:33:17.947Z</time></trkpt><trkpt lat="44.2748183" lon="11.1667217"><ele>496.0</ele><time>2026-04-09T09:33:18.947Z</time></trkpt><trkpt lat="44.27481" lon="11.1665633"><ele>496.0</ele><time>2026-04-09T09:33:19.947Z</time></trkpt><trkpt lat="44.274805" lon="11.1664317"><ele>496.0</ele><time>2026-04-09T09:33:20.947Z</time></trkpt><trkpt lat="44.2748" lon="11.1663083"><ele>496.0</ele><time>2026-04-09T09:33:21.947Z</time></trkpt><trkpt lat="44.274805" lon="11.1662"><ele>496.0</ele><time>2026-04-09T09:33:22.947Z</time></trkpt><trkpt lat="44.2748233" lon="11.16609"><ele>495.8</ele><time>2026-04-09T09:33:23.947Z</time></trkpt><trkpt lat="44.2748683" lon="11.16597"><ele>495.6</ele><time>2026-04-09T09:33:24.947Z</time></trkpt><trkpt lat="44.274905" lon="11.1658367"><ele>495.4</ele><time>2026-04-09T09:33:25.947Z</time></trkpt><trkpt lat="44.2749317" lon="11.1656967"><ele>495.2</ele><time>2026-04-09T09:33:26.947Z</time></trkpt><trkpt lat="44.2749167" lon="11.1655383"><ele>495.0</ele><time>2026-04-09T09:33:27.947Z</time></trkpt><trkpt lat="44.2748683" lon="11.165355"><ele>492.5</ele><time>2026-04-09T09:33:28.947Z</time></trkpt><trkpt lat="44.2748183" lon="11.165165"><ele>490.0</ele><time>2026-04-09T09:33:29.947Z</time></trkpt><trkpt lat="44.2747583" lon="11.164965"><ele>487.5</ele><time>2026-04-09T09:33:30.947Z</time></trkpt><trkpt lat="44.274705" lon="11.1647917"><ele>485.0</ele><time>2026-04-09T09:33:31.947Z</time></trkpt><trkpt lat="44.2746567" lon="11.1646433"><ele>492.4</ele><time>2026-04-09T09:33:32.947Z</time></trkpt><trkpt lat="44.2746283" lon="11.1645183"><ele>499.8</ele><time>2026-04-09T09:33:33.948Z</time></trkpt><trkpt lat="44.2746117" lon="11.1644133"><ele>507.20000000000005</ele><time>2026-04-09T09:33:34.948Z</time></trkpt><trkpt lat="44.2745967" lon="11.1643233"><ele>514.6</ele><time>2026-04-09T09:33:35.948Z</time></trkpt><trkpt lat="44.2745533" lon="11.1642133"><ele>522.0</ele><time>2026-04-09T09:33:37.947Z</time></trkpt><trkpt lat="44.27443" lon="11.1642383"><ele>522.0</ele><time>2026-04-09T09:33:39.947Z</time></trkpt><trkpt lat="44.2743433" lon="11.1642933"><ele>522.0</ele><time>2026-04-09T09:33:40.947Z</time></trkpt><trkpt lat="44.274245" lon="11.164345"><ele>522.0</ele><time>2026-04-09T09:33:41.947Z</time></trkpt><trkpt lat="44.2741283" lon="11.1643683"><ele>522.0</ele><time>2026-04-09T09:33:42.947Z</time></trkpt><trkpt lat="44.2739983" lon="11.1643483"><ele>522.0</ele><time>2026-04-09T09:33:43.947Z</time></trkpt><trkpt lat="44.27386" lon="11.1643183"><ele>522.25</ele><time>2026-04-09T09:33:44.947Z</time></trkpt><trkpt lat="44.273715" lon="11.1643267"><ele>522.5</ele><time>2026-04-09T09:33:45.947Z</time></trkpt><trkpt lat="44.2735717" lon="11.1643533"><ele>522.75</ele><time>2026-04-09T09:33:46.947Z</time></trkpt><trkpt lat="44.2734233" lon="11.1643683"><ele>523.0</ele><time>2026-04-09T09:33:47.947Z</time></trkpt><trkpt lat="44.27328" lon="11.1643933"><ele>523.0</ele><time>2026-04-09T09:33:48.947Z</time></trkpt><trkpt lat="44.2731467" lon="11.1644283"><ele>523.0</ele><time>2026-04-09T09:33:49.948Z</time></trkpt><trkpt lat="44.273025" lon="11.164475"><ele>523.0</ele><time>2026-04-09T09:33:50.947Z</time></trkpt><trkpt lat="44.2729167" lon="11.1645117"><ele>523.0</ele><time>2026-04-09T09:33:51.947Z</time></trkpt><trkpt lat="44.2728217" lon="11.16454"><ele>521.0</ele><time>2026-04-09T09:33:52.947Z</time></trkpt><trkpt lat="44.27274" lon="11.16455"><ele>519.0</ele><time>2026-04-09T09:33:53.947Z</time></trkpt><trkpt lat="44.2726683" lon="11.1645467"><ele>517.0</ele><time>2026-04-09T09:33:54.947Z</time></trkpt><trkpt lat="44.2726033" lon="11.1645117"><ele>515.0</ele><time>2026-04-09T09:33:55.947Z</time></trkpt><trkpt lat="44.2725533" lon="11.164445"><ele>513.0</ele><time>2026-04-09T09:33:56.947Z</time></trkpt><trkpt lat="44.272515" lon="11.1643433"><ele>511.0</ele><time>2026-04-09T09:33:57.947Z</time></trkpt><trkpt lat="44.2724817" lon="11.1642167"><ele>511.0</ele><time>2026-04-09T09:33:58.947Z</time></trkpt><trkpt lat="44.2724483" lon="11.16407"><ele>511.0</ele><time>2026-04-09T09:33:59.948Z</time></trkpt><trkpt lat="44.2724183" lon="11.1639283"><ele>511.0</ele><time>2026-04-09T09:34:00.947Z</time></trkpt><trkpt lat="44.2723917" lon="11.16379"><ele>511.0</ele><time>2026-04-09T09:34:01.947Z</time></trkpt><trkpt lat="44.27238" lon="11.1636483"><ele>511.0</ele><time>2026-04-09T09:34:02.948Z</time></trkpt><trkpt lat="44.272375" lon="11.1635117"><ele>514.5</ele><time>2026-04-09T09:34:03.947Z</time></trkpt><trkpt lat="44.2723833" lon="11.1633933"><ele>518.0</ele><time>2026-04-09T09:34:04.947Z</time></trkpt><trkpt lat="44.2723867" lon="11.1632817"><ele>521.5</ele><time>2026-04-09T09:34:05.948Z</time></trkpt><trkpt lat="44.2723767" lon="11.163175"><ele>525.0</ele><time>2026-04-09T09:34:06.947Z</time></trkpt><trkpt lat="44.2723033" lon="11.1630833"><ele>528.5</ele><time>2026-04-09T09:34:08.947Z</time></trkpt><trkpt lat="44.272225" lon="11.1630883"><ele>532.0</ele><time>2026-04-09T09:34:09.947Z</time></trkpt><trkpt lat="44.2721383" lon="11.16312"><ele>534.4</ele><time>2026-04-09T09:34:10.948Z</time></trkpt><trkpt lat="44.2720417" lon="11.1631683"><ele>536.8000000000001</ele><time>2026-04-09T09:34:11.947Z</time></trkpt><trkpt lat="44.2719567" lon="11.1632183"><ele>539.2</ele><time>2026-04-09T09:34:12.948Z</time></trkpt><trkpt lat="44.2718617" lon="11.1632533"><ele>541.6</ele><time>2026-04-09T09:34:13.948Z</time></trkpt><trkpt lat="44.27176" lon="11.16327"><ele>544.0</ele><time>2026-04-09T09:34:14.947Z</time></trkpt><trkpt lat="44.2716683" lon="11.1632717"><ele>541.8</ele><time>2026-04-09T09:34:15.947Z</time></trkpt><trkpt lat="44.271585" lon="11.1632633"><ele>539.5999999999999</ele><time>2026-04-09T09:34:16.947Z</time></trkpt><trkpt lat="44.2715017" lon="11.1632517"><ele>537.4</ele><time>2026-04-09T09:34:17.947Z</time></trkpt><trkpt lat="44.27141" lon="11.1632417"><ele>535.1999999999999</ele><time>2026-04-09T09:34:18.947Z</time></trkpt><trkpt lat="44.27131" lon="11.1632133"><ele>533.0</ele><time>2026-04-09T09:34:19.947Z</time></trkpt><trkpt lat="44.27121" lon="11.1631833"><ele>533.0</ele><time>2026-04-09T09:34:20.947Z</time></trkpt><trkpt lat="44.2711067" lon="11.16315"><ele>533.0</ele><time>2026-04-09T09:34:21.948Z</time></trkpt><trkpt lat="44.2710117" lon="11.1631067"><ele>533.0</ele><time>2026-04-09T09:34:22.947Z</time></trkpt><trkpt lat="44.2709267" lon="11.1630267"><ele>533.0</ele><time>2026-04-09T09:34:23.947Z</time></trkpt><trkpt lat="44.27081" lon="11.162975"><ele>533.0</ele><time>2026-04-09T09:34:24.947Z</time></trkpt><trkpt lat="44.2706783" lon="11.1629333"><ele>529.25</ele><time>2026-04-09T09:34:25.947Z</time></trkpt><trkpt lat="44.2705333" lon="11.1628883"><ele>525.5</ele><time>2026-04-09T09:34:26.947Z</time></trkpt><trkpt lat="44.2703833" lon="11.16286"><ele>521.75</ele><time>2026-04-09T09:34:27.947Z</time></trkpt><trkpt lat="44.2702517" lon="11.162835"><ele>518.0</ele><time>2026-04-09T09:34:28.947Z</time></trkpt><trkpt lat="44.2701233" lon="11.1628067"><ele>518.0</ele><time>2026-04-09T09:34:29.947Z</time></trkpt><trkpt lat="44.27" lon="11.1628033"><ele>518.0</ele><time>2026-04-09T09:34:30.947Z</time></trkpt><trkpt lat="44.2698833" lon="11.1628033"><ele>518.0</ele><time>2026-04-09T09:34:31.948Z</time></trkpt><trkpt lat="44.2697683" lon="11.1628067"><ele>518.0</ele><time>2026-04-09T09:34:32.947Z</time></trkpt><trkpt lat="44.2696633" lon="11.162795"><ele>519.75</ele><time>2026-04-09T09:34:33.948Z</time></trkpt><trkpt lat="44.2695467" lon="11.16279"><ele>521.5</ele><time>2026-04-09T09:34:34.947Z</time></trkpt><trkpt lat="44.269415" lon="11.162795"><ele>523.25</ele><time>2026-04-09T09:34:35.947Z</time></trkpt><trkpt lat="44.2692883" lon="11.1628133"><ele>525.0</ele><time>2026-04-09T09:34:36.947Z</time></trkpt><trkpt lat="44.2691717" lon="11.16284"><ele>525.0</ele><time>2026-04-09T09:34:37.947Z</time></trkpt><trkpt lat="44.2690567" lon="11.1628783"><ele>525.0</ele><time>2026-04-09T09:34:38.947Z</time></trkpt><trkpt lat="44.2689533" lon="11.162945"><ele>525.0</ele><time>2026-04-09T09:34:39.947Z</time></trkpt><trkpt lat="44.268855" lon="11.16304"><ele>525.0</ele><time>2026-04-09T09:34:40.946Z</time></trkpt><trkpt lat="44.26876" lon="11.1631717"><ele>525.2</ele><time>2026-04-09T09:34:41.946Z</time></trkpt><trkpt lat="44.26868" lon="11.1632917"><ele>525.4</ele><time>2026-04-09T09:34:42.947Z</time></trkpt><trkpt lat="44.2686083" lon="11.1634083"><ele>525.6</ele><time>2026-04-09T09:34:43.947Z</time></trkpt><trkpt lat="44.2685317" lon="11.1635067"><ele>525.8</ele><time>2026-04-09T09:34:44.946Z</time></trkpt><trkpt lat="44.268455" lon="11.1635717"><ele>526.0</ele><time>2026-04-09T09:34:45.946Z</time></trkpt><trkpt lat="44.2683617" lon="11.1636017"><ele>526.0</ele><time>2026-04-09T09:34:46.946Z</time></trkpt><trkpt lat="44.268255" lon="11.1636017"><ele>526.0</ele><time>2026-04-09T09:34:47.947Z</time></trkpt><trkpt lat="44.2681417" lon="11.1635783"><ele>526.0</ele><time>2026-04-09T09:34:48.946Z</time></trkpt><trkpt lat="44.2680283" lon="11.163545"><ele>526.0</ele><time>2026-04-09T09:34:49.946Z</time></trkpt><trkpt lat="44.2679233" lon="11.16352"><ele>526.0</ele><time>2026-04-09T09:34:50.946Z</time></trkpt><trkpt lat="44.267815" lon="11.1635233"><ele>528.6</ele><time>2026-04-09T09:34:51.946Z</time></trkpt><trkpt lat="44.2677117" lon="11.1635233"><ele>531.2</ele><time>2026-04-09T09:34:52.946Z</time></trkpt><trkpt lat="44.2676133" lon="11.1635117"><ele>533.8</ele><time>2026-04-09T09:34:53.946Z</time></trkpt><trkpt lat="44.2675133" lon="11.16348"><ele>536.4</ele><time>2026-04-09T09:34:54.946Z</time></trkpt><trkpt lat="44.2674117" lon="11.1634283"><ele>539.0</ele><time>2026-04-09T09:34:55.946Z</time></trkpt><trkpt lat="44.2673167" lon="11.1633567"><ele>537.5</ele><time>2026-04-09T09:34:56.946Z</time></trkpt><trkpt lat="44.26722" lon="11.1632633"><ele>536.0</ele><time>2026-04-09T09:34:57.946Z</time></trkpt><trkpt lat="44.2671183" lon="11.16318"><ele>534.5</ele><time>2026-04-09T09:34:58.946Z</time></trkpt><trkpt lat="44.2670117" lon="11.163115"><ele>533.0</ele><time>2026-04-09T09:34:59.946Z</time></trkpt><trkpt lat="44.2668917" lon="11.1630567"><ele>534.6</ele><time>2026-04-09T09:35:00.946Z</time></trkpt><trkpt lat="44.266775" lon="11.163005"><ele>536.1999999999999</ele><time>2026-04-09T09:35:01.946Z</time></trkpt><trkpt lat="44.2666683" lon="11.1629533"><ele>537.8</ele><time>2026-04-09T09:35:02.946Z</time></trkpt><trkpt lat="44.26657" lon="11.162895"><ele>539.4</ele><time>2026-04-09T09:35:03.946Z</time></trkpt><trkpt lat="44.2664767" lon="11.1628217"><ele>541.0</ele><time>2026-04-09T09:35:04.947Z</time></trkpt><trkpt lat="44.2663983" lon="11.1627417"><ele>541.0</ele><time>2026-04-09T09:35:05.946Z</time></trkpt><trkpt lat="44.26632" lon="11.1626683"><ele>541.0</ele><time>2026-04-09T09:35:06.947Z</time></trkpt><trkpt lat="44.2662233" lon="11.1626133"><ele>541.0</ele><time>2026-04-09T09:35:07.946Z</time></trkpt><trkpt lat="44.2661167" lon="11.1625533"><ele>541.0</ele><time>2026-04-09T09:35:08.946Z</time></trkpt><trkpt lat="44.26601" lon="11.1624983"><ele>541.0</ele><time>2026-04-09T09:35:09.946Z</time></trkpt><trkpt lat="44.2658983" lon="11.1624467"><ele>541.0</ele><time>2026-04-09T09:35:10.946Z</time></trkpt><trkpt lat="44.265785" lon="11.1624"><ele>541.0</ele><time>2026-04-09T09:35:11.946Z</time></trkpt><trkpt lat="44.2656933" lon="11.16236"><ele>541.0</ele><time>2026-04-09T09:35:12.946Z</time></trkpt><trkpt lat="44.2656267" lon="11.162315"><ele>541.0</ele><time>2026-04-09T09:35:13.947Z</time></trkpt><trkpt lat="44.2655883" lon="11.16223"><ele>541.0</ele><time>2026-04-09T09:35:14.946Z</time></trkpt><trkpt lat="44.26557" lon="11.1621183"><ele>541.0</ele><time>2026-04-09T09:35:15.947Z</time></trkpt><trkpt lat="44.2655733" lon="11.1619833"><ele>539.0</ele><time>2026-04-09T09:35:16.946Z</time></trkpt><trkpt lat="44.2655667" lon="11.1618283"><ele>537.0</ele><time>2026-04-09T09:35:17.947Z</time></trkpt><trkpt lat="44.26555" lon="11.1616667"><ele>535.0</ele><time>2026-04-09T09:35:18.946Z</time></trkpt><trkpt lat="44.26551" lon="11.1615333"><ele>533.0</ele><time>2026-04-09T09:35:19.946Z</time></trkpt><trkpt lat="44.26547" lon="11.1614267"><ele>531.0</ele><time>2026-04-09T09:35:20.946Z</time></trkpt><trkpt lat="44.2654517" lon="11.161335"><ele>535.1666666666666</ele><time>2026-04-09T09:35:21.946Z</time></trkpt><trkpt lat="44.265475" lon="11.1611617"><ele>539.3333333333334</ele><time>2026-04-09T09:35:23.946Z</time></trkpt><trkpt lat="44.265515" lon="11.1610583"><ele>543.5</ele><time>2026-04-09T09:35:24.946Z</time></trkpt><trkpt lat="44.2655517" lon="11.1609717"><ele>547.6666666666667</ele><time>2026-04-09T09:35:25.946Z</time></trkpt><trkpt lat="44.265575" lon="11.16087"><ele>551.8333333333334</ele><time>2026-04-09T09:35:26.946Z</time></trkpt><trkpt lat="44.2655983" lon="11.1607783"><ele>556.0</ele><time>2026-04-09T09:35:27.947Z</time></trkpt><trkpt lat="44.2656083" lon="11.1606833"><ele>560.2</ele><time>2026-04-09T09:35:28.946Z</time></trkpt><trkpt lat="44.265605" lon="11.1605933"><ele>564.4000000000001</ele><time>2026-04-09T09:35:29.946Z</time></trkpt><trkpt lat="44.2655767" lon="11.1605083"><ele>568.6</ele><time>2026-04-09T09:35:30.946Z</time></trkpt><trkpt lat="44.26545" lon="11.1604383"><ele>572.8000000000001</ele><time>2026-04-09T09:35:32.947Z</time></trkpt><trkpt lat="44.2653533" lon="11.1604317"><ele>577.0</ele><time>2026-04-09T09:35:33.946Z</time></trkpt><trkpt lat="44.2652333" lon="11.1604417"><ele>577.0</ele><time>2026-04-09T09:35:34.946Z</time></trkpt><trkpt lat="44.265085" lon="11.1604467"><ele>577.0</ele><time>2026-04-09T09:35:35.946Z</time></trkpt><trkpt lat="44.264935" lon="11.160445"><ele>577.0</ele><time>2026-04-09T09:35:36.946Z</time></trkpt><trkpt lat="44.2647933" lon="11.16042"><ele>577.0</ele><time>2026-04-09T09:35:37.946Z</time></trkpt><trkpt lat="44.2646717" lon="11.1604067"><ele>577.0</ele><time>2026-04-09T09:35:38.946Z</time></trkpt><trkpt lat="44.26456" lon="11.1604183"><ele>577.0</ele><time>2026-04-09T09:35:39.947Z</time></trkpt><trkpt lat="44.264455" lon="11.1604333"><ele>577.0</ele><time>2026-04-09T09:35:40.946Z</time></trkpt><trkpt lat="44.2643667" lon="11.1604333"><ele>577.0</ele><time>2026-04-09T09:35:41.946Z</time></trkpt><trkpt lat="44.2642867" lon="11.1604017"><ele>577.0</ele><time>2026-04-09T09:35:42.946Z</time></trkpt><trkpt lat="44.264205" lon="11.1603383"><ele>577.0</ele><time>2026-04-09T09:35:43.946Z</time></trkpt><trkpt lat="44.2641383" lon="11.1602367"><ele>577.0</ele><time>2026-04-09T09:35:44.946Z</time></trkpt><trkpt lat="44.2640567" lon="11.16012"><ele>577.0</ele><time>2026-04-09T09:35:45.947Z</time></trkpt><trkpt lat="44.2639583" lon="11.1600033"><ele>577.0</ele><time>2026-04-09T09:35:46.947Z</time></trkpt><trkpt lat="44.2638567" lon="11.1598833"><ele>577.0</ele><time>2026-04-09T09:35:47.947Z</time></trkpt><trkpt lat="44.263745" lon="11.1597533"><ele>577.0</ele><time>2026-04-09T09:35:48.947Z</time></trkpt><trkpt lat="44.2636267" lon="11.159635"><ele>577.0</ele><time>2026-04-09T09:35:49.947Z</time></trkpt><trkpt lat="44.2635033" lon="11.1595267"><ele>577.0</ele><time>2026-04-09T09:35:50.946Z</time></trkpt><trkpt lat="44.2633783" lon="11.1594283"><ele>577.0</ele><time>2026-04-09T09:35:51.946Z</time></trkpt><trkpt lat="44.2632617" lon="11.1593317"><ele>577.0</ele><time>2026-04-09T09:35:52.946Z</time></trkpt><trkpt lat="44.26315" lon="11.1592283"><ele>577.0</ele><time>2026-04-09T09:35:53.946Z</time></trkpt><trkpt lat="44.2630317" lon="11.159115"><ele>577.0</ele><time>2026-04-09T09:35:54.946Z</time></trkpt><trkpt lat="44.2629133" lon="11.1590033"><ele>576.75</ele><time>2026-04-09T09:35:55.946Z</time></trkpt><trkpt lat="44.2627983" lon="11.1588983"><ele>576.5</ele><time>2026-04-09T09:35:56.946Z</time></trkpt><trkpt lat="44.2626867" lon="11.1588017"><ele>576.25</ele><time>2026-04-09T09:35:57.947Z</time></trkpt><trkpt lat="44.2625733" lon="11.15872"><ele>576.0</ele><time>2026-04-09T09:35:58.947Z</time></trkpt><trkpt lat="44.2624633" lon="11.1586467"><ele>576.0</ele><time>2026-04-09T09:35:59.946Z</time></trkpt><trkpt lat="44.26237" lon="11.158555"><ele>576.0</ele><time>2026-04-09T09:36:00.946Z</time></trkpt><trkpt lat="44.26229" lon="11.1584483"><ele>576.0</ele><time>2026-04-09T09:36:01.946Z</time></trkpt><trkpt lat="44.2622117" lon="11.1583433"><ele>576.0</ele><time>2026-04-09T09:36:02.947Z</time></trkpt><trkpt lat="44.2621367" lon="11.1582533"><ele>576.0</ele><time>2026-04-09T09:36:03.946Z</time></trkpt><trkpt lat="44.26206" lon="11.1581833"><ele>574.6</ele><time>2026-04-09T09:36:04.946Z</time></trkpt><trkpt lat="44.2619817" lon="11.158145"><ele>573.2</ele><time>2026-04-09T09:36:05.946Z</time></trkpt><trkpt lat="44.26189" lon="11.1581517"><ele>571.8</ele><time>2026-04-09T09:36:06.946Z</time></trkpt><trkpt lat="44.26178" lon="11.1582017"><ele>570.4</ele><time>2026-04-09T09:36:07.946Z</time></trkpt><trkpt lat="44.2616533" lon="11.1582633"><ele>569.0</ele><time>2026-04-09T09:36:08.946Z</time></trkpt><trkpt lat="44.2615133" lon="11.1582867"><ele>570.75</ele><time>2026-04-09T09:36:09.946Z</time></trkpt><trkpt lat="44.2613683" lon="11.1582983"><ele>572.5</ele><time>2026-04-09T09:36:10.946Z</time></trkpt><trkpt lat="44.2612217" lon="11.1583033"><ele>574.25</ele><time>2026-04-09T09:36:11.946Z</time></trkpt><trkpt lat="44.26108" lon="11.1583067"><ele>576.0</ele><time>2026-04-09T09:36:12.946Z</time></trkpt><trkpt lat="44.260955" lon="11.15831"><ele>576.0</ele><time>2026-04-09T09:36:13.946Z</time></trkpt><trkpt lat="44.2608283" lon="11.1583217"><ele>576.0</ele><time>2026-04-09T09:36:14.947Z</time></trkpt><trkpt lat="44.2607117" lon="11.158335"><ele>576.0</ele><time>2026-04-09T09:36:15.946Z</time></trkpt><trkpt lat="44.26058" lon="11.1583533"><ele>576.0</ele><time>2026-04-09T09:36:16.946Z</time></trkpt><trkpt lat="44.2604617" lon="11.1583583"><ele>576.2</ele><time>2026-04-09T09:36:17.946Z</time></trkpt><trkpt lat="44.2603483" lon="11.1583633"><ele>576.4000000000001</ele><time>2026-04-09T09:36:18.946Z</time></trkpt><trkpt lat="44.2602417" lon="11.15837"><ele>576.6</ele><time>2026-04-09T09:36:19.946Z</time></trkpt><trkpt lat="44.2601267" lon="11.158375"><ele>576.8000000000001</ele><time>2026-04-09T09:36:20.946Z</time></trkpt><trkpt lat="44.26002" lon="11.158375"><ele>577.0</ele><time>2026-04-09T09:36:21.946Z</time></trkpt><trkpt lat="44.2599117" lon="11.1583817"><ele>577.0</ele><time>2026-04-09T09:36:22.946Z</time></trkpt><trkpt lat="44.2598067" lon="11.1583883"><ele>577.0</ele><time>2026-04-09T09:36:23.946Z</time></trkpt><trkpt lat="44.259705" lon="11.1583983"><ele>577.0</ele><time>2026-04-09T09:36:24.946Z</time></trkpt><trkpt lat="44.2596017" lon="11.1584117"><ele>577.0</ele><time>2026-04-09T09:36:25.946Z</time></trkpt><trkpt lat="44.2595033" lon="11.1584283"><ele>577.0</ele><time>2026-04-09T09:36:26.946Z</time></trkpt><trkpt lat="44.25941" lon="11.1584433"><ele>576.6666666666667</ele><time>2026-04-09T09:36:27.946Z</time></trkpt><trkpt lat="44.259315" lon="11.1584733"><ele>576.3333333333334</ele><time>2026-04-09T09:36:28.946Z</time></trkpt><trkpt lat="44.2592333" lon="11.1585067"><ele>576.0</ele><time>2026-04-09T09:36:29.946Z</time></trkpt><trkpt lat="44.2591517" lon="11.1585283"><ele>575.6666666666666</ele><time>2026-04-09T09:36:30.946Z</time></trkpt><trkpt lat="44.2590833" lon="11.1585267"><ele>575.3333333333333</ele><time>2026-04-09T09:36:31.946Z</time></trkpt><trkpt lat="44.25901" lon="11.1585083"><ele>575.0</ele><time>2026-04-09T09:36:32.946Z</time></trkpt><trkpt lat="44.2589533" lon="11.1584583"><ele>570.3333333333333</ele><time>2026-04-09T09:36:33.946Z</time></trkpt><trkpt lat="44.2588967" lon="11.158405"><ele>565.6666666666666</ele><time>2026-04-09T09:36:34.946Z</time></trkpt><trkpt lat="44.2588267" lon="11.1583583"><ele>561.0</ele><time>2026-04-09T09:36:35.946Z</time></trkpt><trkpt lat="44.25877" lon="11.1582717"><ele>556.3333333333334</ele><time>2026-04-09T09:36:36.946Z</time></trkpt><trkpt lat="44.2587267" lon="11.1581617"><ele>551.6666666666667</ele><time>2026-04-09T09:36:37.946Z</time></trkpt><trkpt lat="44.2586933" lon="11.1580333"><ele>547.0</ele><time>2026-04-09T09:36:38.946Z</time></trkpt><trkpt lat="44.2586617" lon="11.157905"><ele>546.6</ele><time>2026-04-09T09:36:39.947Z</time></trkpt><trkpt lat="44.2586333" lon="11.157775"><ele>546.2</ele><time>2026-04-09T09:36:40.946Z</time></trkpt><trkpt lat="44.2586083" lon="11.157645"><ele>545.8</ele><time>2026-04-09T09:36:41.946Z</time></trkpt><trkpt lat="44.2585917" lon="11.157525"><ele>545.4</ele><time>2026-04-09T09:36:42.946Z</time></trkpt><trkpt lat="44.2585817" lon="11.1574033"><ele>545.0</ele><time>2026-04-09T09:36:43.946Z</time></trkpt><trkpt lat="44.2585783" lon="11.15728"><ele>545.6666666666666</ele><time>2026-04-09T09:36:44.947Z</time></trkpt><trkpt lat="44.2585767" lon="11.1571633"><ele>546.3333333333333</ele><time>2026-04-09T09:36:45.946Z</time></trkpt><trkpt lat="44.2585783" lon="11.15705"><ele>547.0</ele><time>2026-04-09T09:36:46.946Z</time></trkpt><trkpt lat="44.25857" lon="11.1569417"><ele>547.6666666666666</ele><time>2026-04-09T09:36:47.946Z</time></trkpt><trkpt lat="44.2585583" lon="11.1568333"><ele>548.3333333333334</ele><time>2026-04-09T09:36:48.947Z</time></trkpt><trkpt lat="44.258535" lon="11.15672"><ele>549.0</ele><time>2026-04-09T09:36:49.946Z</time></trkpt><trkpt lat="44.2585017" lon="11.156595"><ele>550.3333333333334</ele><time>2026-04-09T09:36:50.946Z</time></trkpt><trkpt lat="44.258445" lon="11.1564867"><ele>551.6666666666666</ele><time>2026-04-09T09:36:51.946Z</time></trkpt><trkpt lat="44.2584117" lon="11.1563633"><ele>553.0</ele><time>2026-04-09T09:36:52.946Z</time></trkpt><trkpt lat="44.2583767" lon="11.1562683"><ele>554.3333333333333</ele><time>2026-04-09T09:36:53.947Z</time></trkpt><trkpt lat="44.2583333" lon="11.15618"><ele>555.6666666666666</ele><time>2026-04-09T09:36:54.946Z</time></trkpt><trkpt lat="44.2582667" lon="11.15608"><ele>557.0</ele><time>2026-04-09T09:36:56.947Z</time></trkpt><trkpt lat="44.2582183" lon="11.1559617"><ele>557.0</ele><time>2026-04-09T09:36:59.946Z</time></trkpt><trkpt lat="44.2581783" lon="11.1558033"><ele>557.0</ele><time>2026-04-09T09:37:01.947Z</time></trkpt><trkpt lat="44.2581667" lon="11.1557033"><ele>557.0</ele><time>2026-04-09T09:37:02.946Z</time></trkpt><trkpt lat="44.258145" lon="11.1555867"><ele>557.0</ele><time>2026-04-09T09:37:03.946Z</time></trkpt><trkpt lat="44.2581217" lon="11.1554533"><ele>557.0</ele><time>2026-04-09T09:37:04.947Z</time></trkpt><trkpt lat="44.2580967" lon="11.1553217"><ele>552.4</ele><time>2026-04-09T09:37:05.947Z</time></trkpt><trkpt lat="44.258065" lon="11.1552033"><ele>547.8000000000001</ele><time>2026-04-09T09:37:06.946Z</time></trkpt><trkpt lat="44.258025" lon="11.1550783"><ele>543.2</ele><time>2026-04-09T09:37:07.946Z</time></trkpt><trkpt lat="44.2579933" lon="11.154955"><ele>538.6</ele><time>2026-04-09T09:37:08.946Z</time></trkpt><trkpt lat="44.2579633" lon="11.1548267"><ele>534.0</ele><time>2026-04-09T09:37:09.946Z</time></trkpt><trkpt lat="44.2579317" lon="11.1546967"><ele>534.0</ele><time>2026-04-09T09:37:10.947Z</time></trkpt><trkpt lat="44.2579033" lon="11.15456"><ele>534.0</ele><time>2026-04-09T09:37:11.946Z</time></trkpt><trkpt lat="44.2578833" lon="11.1544233"><ele>534.0</ele><time>2026-04-09T09:37:12.946Z</time></trkpt><trkpt lat="44.2578633" lon="11.1542867"><ele>534.0</ele><time>2026-04-09T09:37:13.946Z</time></trkpt><trkpt lat="44.2578533" lon="11.154145"><ele>534.0</ele><time>2026-04-09T09:37:14.946Z</time></trkpt><trkpt lat="44.2578433" lon="11.1540033"><ele>535.8</ele><time>2026-04-09T09:37:15.946Z</time></trkpt><trkpt lat="44.2578283" lon="11.1538633"><ele>537.5999999999999</ele><time>2026-04-09T09:37:16.946Z</time></trkpt><trkpt lat="44.2578183" lon="11.153745"><ele>539.4</ele><time>2026-04-09T09:37:17.946Z</time></trkpt><trkpt lat="44.2578083" lon="11.15362"><ele>541.1999999999999</ele><time>2026-04-09T09:37:18.947Z</time></trkpt><trkpt lat="44.2577783" lon="11.1534833"><ele>543.0</ele><time>2026-04-09T09:37:19.946Z</time></trkpt><trkpt lat="44.25774" lon="11.15335"><ele>543.0</ele><time>2026-04-09T09:37:20.947Z</time></trkpt><trkpt lat="44.25769" lon="11.1532283"><ele>543.0</ele><time>2026-04-09T09:37:21.946Z</time></trkpt><trkpt lat="44.2576417" lon="11.1531183"><ele>543.0</ele><time>2026-04-09T09:37:22.946Z</time></trkpt><trkpt lat="44.25761" lon="11.15301"><ele>543.0</ele><time>2026-04-09T09:37:23.946Z</time></trkpt><trkpt lat="44.257585" lon="11.1529167"><ele>543.0</ele><time>2026-04-09T09:37:24.946Z</time></trkpt><trkpt lat="44.2575667" lon="11.152825"><ele>543.0</ele><time>2026-04-09T09:37:25.946Z</time></trkpt><trkpt lat="44.2575683" lon="11.1526883"><ele>543.3333333333334</ele><time>2026-04-09T09:37:27.946Z</time></trkpt><trkpt lat="44.2575817" lon="11.1525367"><ele>543.6666666666666</ele><time>2026-04-09T09:37:35.947Z</time></trkpt><trkpt lat="44.2575333" lon="11.15247"><ele>544.0</ele><time>2026-04-09T09:37:37.946Z</time></trkpt><trkpt lat="44.25745" lon="11.1523983"><ele>544.3333333333333</ele><time>2026-04-09T09:37:39.946Z</time></trkpt><trkpt lat="44.2573967" lon="11.1523417"><ele>544.6666666666666</ele><time>2026-04-09T09:37:40.946Z</time></trkpt><trkpt lat="44.2573383" lon="11.1522667"><ele>545.0</ele><time>2026-04-09T09:37:41.946Z</time></trkpt><trkpt lat="44.25727" lon="11.152195"><ele>545.0</ele><time>2026-04-09T09:37:42.947Z</time></trkpt><trkpt lat="44.2572033" lon="11.1521183"><ele>545.0</ele><time>2026-04-09T09:37:43.946Z</time></trkpt><trkpt lat="44.25713" lon="11.1520433"><ele>545.0</ele><time>2026-04-09T09:37:44.946Z</time></trkpt><trkpt lat="44.2570567" lon="11.151965"><ele>545.0</ele><time>2026-04-09T09:37:45.946Z</time></trkpt><trkpt lat="44.25698" lon="11.151875"><ele>545.0</ele><time>2026-04-09T09:37:46.947Z</time></trkpt><trkpt lat="44.2569133" lon="11.15179"><ele>545.0</ele><time>2026-04-09T09:37:47.946Z</time></trkpt><trkpt lat="44.2568433" lon="11.1517283"><ele>545.0</ele><time>2026-04-09T09:37:48.947Z</time></trkpt><trkpt lat="44.2567817" lon="11.1516633"><ele>545.0</ele><time>2026-04-09T09:37:49.946Z</time></trkpt><trkpt lat="44.2567283" lon="11.1515883"><ele>545.0</ele><time>2026-04-09T09:37:50.946Z</time></trkpt><trkpt lat="44.2566817" lon="11.1515067"><ele>545.0</ele><time>2026-04-09T09:37:51.947Z</time></trkpt><trkpt lat="44.2566317" lon="11.1514217"><ele>545.0</ele><time>2026-04-09T09:37:52.946Z</time></trkpt><trkpt lat="44.2565733" lon="11.1513183"><ele>544.2</ele><time>2026-04-09T09:37:53.947Z</time></trkpt><trkpt lat="44.256515" lon="11.1512067"><ele>543.4</ele><time>2026-04-09T09:37:54.946Z</time></trkpt><trkpt lat="44.2564617" lon="11.1510933"><ele>542.6</ele><time>2026-04-09T09:37:55.946Z</time></trkpt><trkpt lat="44.25639" lon="11.1509883"><ele>541.8</ele><time>2026-04-09T09:37:56.946Z</time></trkpt><trkpt lat="44.2563217" lon="11.1508783"><ele>541.0</ele><time>2026-04-09T09:37:57.946Z</time></trkpt><trkpt lat="44.2562417" lon="11.1507783"><ele>540.25</ele><time>2026-04-09T09:37:58.946Z</time></trkpt><trkpt lat="44.2561467" lon="11.1507017"><ele>539.5</ele><time>2026-04-09T09:37:59.947Z</time></trkpt><trkpt lat="44.2560233" lon="11.150635"><ele>538.75</ele><time>2026-04-09T09:38:00.946Z</time></trkpt><trkpt lat="44.2558967" lon="11.1505733"><ele>538.0</ele><time>2026-04-09T09:38:01.946Z</time></trkpt><trkpt lat="44.2557817" lon="11.1505233"><ele>538.0</ele><time>2026-04-09T09:38:02.946Z</time></trkpt><trkpt lat="44.2556667" lon="11.150485"><ele>538.0</ele><time>2026-04-09T09:38:03.946Z</time></trkpt><trkpt lat="44.255545" lon="11.150465"><ele>538.0</ele><time>2026-04-09T09:38:04.946Z</time></trkpt><trkpt lat="44.2554467" lon="11.1504433"><ele>538.0</ele><time>2026-04-09T09:38:05.947Z</time></trkpt><trkpt lat="44.25535" lon="11.15042"><ele>538.0</ele><time>2026-04-09T09:38:06.946Z</time></trkpt><trkpt lat="44.2552567" lon="11.1504083"><ele>538.8</ele><time>2026-04-09T09:38:07.947Z</time></trkpt><trkpt lat="44.25517" lon="11.150395"><ele>539.5999999999999</ele><time>2026-04-09T09:38:08.946Z</time></trkpt><trkpt lat="44.255075" lon="11.1503783"><ele>540.4000000000001</ele><time>2026-04-09T09:38:09.946Z</time></trkpt><trkpt lat="44.2549817" lon="11.1503467"><ele>541.2</ele><time>2026-04-09T09:38:10.946Z</time></trkpt><trkpt lat="44.2548917" lon="11.1503"><ele>542.0</ele><time>2026-04-09T09:38:11.946Z</time></trkpt><trkpt lat="44.2547867" lon="11.1502367"><ele>542.0</ele><time>2026-04-09T09:38:12.946Z</time></trkpt><trkpt lat="44.25468" lon="11.1501617"><ele>542.0</ele><time>2026-04-09T09:38:13.946Z</time></trkpt><trkpt lat="44.2545633" lon="11.1500667"><ele>542.0</ele><time>2026-04-09T09:38:14.946Z</time></trkpt><trkpt lat="44.254435" lon="11.1499733"><ele>542.0</ele><time>2026-04-09T09:38:15.946Z</time></trkpt><trkpt lat="44.2543017" lon="11.14988"><ele>542.5</ele><time>2026-04-09T09:38:16.947Z</time></trkpt><trkpt lat="44.254175" lon="11.1497867"><ele>543.0</ele><time>2026-04-09T09:38:17.947Z</time></trkpt><trkpt lat="44.25405" lon="11.1496933"><ele>543.5</ele><time>2026-04-09T09:38:18.946Z</time></trkpt><trkpt lat="44.25394" lon="11.149605"><ele>544.0</ele><time>2026-04-09T09:38:19.947Z</time></trkpt><trkpt lat="44.25384" lon="11.1495117"><ele>544.0</ele><time>2026-04-09T09:38:20.946Z</time></trkpt><trkpt lat="44.2537583" lon="11.14939"><ele>544.0</ele><time>2026-04-09T09:38:21.946Z</time></trkpt><trkpt lat="44.2537" lon="11.1492517"><ele>544.0</ele><time>2026-04-09T09:38:22.946Z</time></trkpt><trkpt lat="44.2536533" lon="11.1491"><ele>544.0</ele><time>2026-04-09T09:38:23.946Z</time></trkpt><trkpt lat="44.2536083" lon="11.1489617"><ele>543.5</ele><time>2026-04-09T09:38:24.946Z</time></trkpt><trkpt lat="44.25354" lon="11.148835"><ele>543.0</ele><time>2026-04-09T09:38:25.946Z</time></trkpt><trkpt lat="44.2534467" lon="11.1487167"><ele>542.5</ele><time>2026-04-09T09:38:26.946Z</time></trkpt><trkpt lat="44.25334" lon="11.1486033"><ele>542.0</ele><time>2026-04-09T09:38:27.946Z</time></trkpt><trkpt lat="44.2532383" lon="11.148475"><ele>542.0</ele><time>2026-04-09T09:38:28.946Z</time></trkpt><trkpt lat="44.2531583" lon="11.1483383"><ele>542.0</ele><time>2026-04-09T09:38:29.946Z</time></trkpt><trkpt lat="44.2531017" lon="11.1481817"><ele>542.0</ele><time>2026-04-09T09:38:30.947Z</time></trkpt><trkpt lat="44.253055" lon="11.148025"><ele>542.0</ele><time>2026-04-09T09:38:31.946Z</time></trkpt><trkpt lat="44.25303" lon="11.1478633"><ele>541.0</ele><time>2026-04-09T09:38:32.946Z</time></trkpt><trkpt lat="44.253025" lon="11.1477017"><ele>540.0</ele><time>2026-04-09T09:38:33.946Z</time></trkpt><trkpt lat="44.2530167" lon="11.1475383"><ele>539.0</ele><time>2026-04-09T09:38:34.946Z</time></trkpt><trkpt lat="44.253005" lon="11.14738"><ele>538.0</ele><time>2026-04-09T09:38:35.947Z</time></trkpt><trkpt lat="44.2529867" lon="11.1472317"><ele>541.5</ele><time>2026-04-09T09:38:36.946Z</time></trkpt><trkpt lat="44.2529567" lon="11.147075"><ele>545.0</ele><time>2026-04-09T09:38:37.947Z</time></trkpt><trkpt lat="44.25292" lon="11.14691"><ele>548.5</ele><time>2026-04-09T09:38:38.946Z</time></trkpt><trkpt lat="44.2528767" lon="11.14673"><ele>552.0</ele><time>2026-04-09T09:38:39.946Z</time></trkpt><trkpt lat="44.2528417" lon="11.146545"><ele>555.75</ele><time>2026-04-09T09:38:40.946Z</time></trkpt><trkpt lat="44.252805" lon="11.1463567"><ele>559.5</ele><time>2026-04-09T09:38:41.946Z</time></trkpt><trkpt lat="44.25277" lon="11.1461817"><ele>563.25</ele><time>2026-04-09T09:38:42.946Z</time></trkpt><trkpt lat="44.252735" lon="11.14601"><ele>567.0</ele><time>2026-04-09T09:38:43.946Z</time></trkpt><trkpt lat="44.2527017" lon="11.1458433"><ele>570.5</ele><time>2026-04-09T09:38:44.946Z</time></trkpt><trkpt lat="44.252675" lon="11.1456817"><ele>574.0</ele><time>2026-04-09T09:38:45.946Z</time></trkpt><trkpt lat="44.2526567" lon="11.1455083"><ele>577.5</ele><time>2026-04-09T09:38:46.946Z</time></trkpt><trkpt lat="44.2526533" lon="11.1453483"><ele>581.0</ele><time>2026-04-09T09:38:47.946Z</time></trkpt><trkpt lat="44.25265" lon="11.1451967"><ele>581.0</ele><time>2026-04-09T09:38:48.947Z</time></trkpt><trkpt lat="44.25264" lon="11.1450483"><ele>581.0</ele><time>2026-04-09T09:38:49.946Z</time></trkpt><trkpt lat="44.2526183" lon="11.1448933"><ele>581.0</ele><time>2026-04-09T09:38:50.947Z</time></trkpt><trkpt lat="44.25258" lon="11.1447517"><ele>581.0</ele><time>2026-04-09T09:38:51.946Z</time></trkpt><trkpt lat="44.25254" lon="11.14463"><ele>581.0</ele><time>2026-04-09T09:38:52.946Z</time></trkpt><trkpt lat="44.25248" lon="11.144525"><ele>581.25</ele><time>2026-04-09T09:38:53.946Z</time></trkpt><trkpt lat="44.2524017" lon="11.1444117"><ele>581.5</ele><time>2026-04-09T09:38:54.947Z</time></trkpt><trkpt lat="44.2523133" lon="11.1442933"><ele>581.75</ele><time>2026-04-09T09:38:55.946Z</time></trkpt><trkpt lat="44.2522233" lon="11.1441633"><ele>582.0</ele><time>2026-04-09T09:38:56.946Z</time></trkpt><trkpt lat="44.2521267" lon="11.1440283"><ele>585.75</ele><time>2026-04-09T09:38:57.946Z</time></trkpt><trkpt lat="44.2520267" lon="11.1438883"><ele>589.5</ele><time>2026-04-09T09:38:58.946Z</time></trkpt><trkpt lat="44.25192" lon="11.1437483"><ele>593.25</ele><time>2026-04-09T09:38:59.946Z</time></trkpt><trkpt lat="44.2518117" lon="11.1436133"><ele>597.0</ele><time>2026-04-09T09:39:00.946Z</time></trkpt><trkpt lat="44.25172" lon="11.1434767"><ele>597.0</ele><time>2026-04-09T09:39:01.946Z</time></trkpt><trkpt lat="44.2516267" lon="11.143345"><ele>597.0</ele><time>2026-04-09T09:39:02.946Z</time></trkpt><trkpt lat="44.2515367" lon="11.1432133"><ele>597.0</ele><time>2026-04-09T09:39:03.946Z</time></trkpt><trkpt lat="44.2514317" lon="11.14309"><ele>597.0</ele><time>2026-04-09T09:39:04.946Z</time></trkpt><trkpt lat="44.2513267" lon="11.1429767"><ele>598.0</ele><time>2026-04-09T09:39:05.946Z</time></trkpt><trkpt lat="44.2512317" lon="11.142875"><ele>599.0</ele><time>2026-04-09T09:39:06.946Z</time></trkpt><trkpt lat="44.2511467" lon="11.1427833"><ele>600.0</ele><time>2026-04-09T09:39:07.947Z</time></trkpt><trkpt lat="44.2510917" lon="11.1426967"><ele>601.0</ele><time>2026-04-09T09:39:08.947Z</time></trkpt><trkpt lat="44.2510467" lon="11.1426083"><ele>602.0</ele><time>2026-04-09T09:39:09.946Z</time></trkpt><trkpt lat="44.251005" lon="11.1425117"><ele>602.0</ele><time>2026-04-09T09:39:10.946Z</time></trkpt><trkpt lat="44.25097" lon="11.1424117"><ele>602.0</ele><time>2026-04-09T09:39:11.947Z</time></trkpt><trkpt lat="44.2509533" lon="11.1422817"><ele>602.0</ele><time>2026-04-09T09:39:12.946Z</time></trkpt><trkpt lat="44.2509567" lon="11.142125"><ele>602.0</ele><time>2026-04-09T09:39:13.946Z</time></trkpt><trkpt lat="44.25095" lon="11.141965"><ele>602.0</ele><time>2026-04-09T09:39:14.947Z</time></trkpt><trkpt lat="44.2509267" lon="11.1417983"><ele>605.0</ele><time>2026-04-09T09:39:15.946Z</time></trkpt><trkpt lat="44.250885" lon="11.141645"><ele>608.0</ele><time>2026-04-09T09:39:16.946Z</time></trkpt><trkpt lat="44.25082" lon="11.141515"><ele>611.0</ele><time>2026-04-09T09:39:17.946Z</time></trkpt><trkpt lat="44.250745" lon="11.1414083"><ele>614.0</ele><time>2026-04-09T09:39:18.946Z</time></trkpt><trkpt lat="44.2506583" lon="11.1413033"><ele>613.4</ele><time>2026-04-09T09:39:19.946Z</time></trkpt><trkpt lat="44.2505867" lon="11.1411867"><ele>612.8</ele><time>2026-04-09T09:39:20.946Z</time></trkpt><trkpt lat="44.2505217" lon="11.14106"><ele>612.2</ele><time>2026-04-09T09:39:21.947Z</time></trkpt><trkpt lat="44.2504617" lon="11.14092"><ele>611.6</ele><time>2026-04-09T09:39:22.946Z</time></trkpt><trkpt lat="44.2503867" lon="11.1408067"><ele>611.0</ele><time>2026-04-09T09:39:23.946Z</time></trkpt><trkpt lat="44.2502983" lon="11.1406983"><ele>611.0</ele><time>2026-04-09T09:39:24.947Z</time></trkpt><trkpt lat="44.250215" lon="11.140565"><ele>611.0</ele><time>2026-04-09T09:39:25.946Z</time></trkpt><trkpt lat="44.2501467" lon="11.14044"><ele>611.0</ele><time>2026-04-09T09:39:26.947Z</time></trkpt><trkpt lat="44.25008" lon="11.1403133"><ele>611.0</ele><time>2026-04-09T09:39:27.946Z</time></trkpt><trkpt lat="44.24999" lon="11.1401983"><ele>611.0</ele><time>2026-04-09T09:39:28.946Z</time></trkpt><trkpt lat="44.2499017" lon="11.1401117"><ele>611.0</ele><time>2026-04-09T09:39:29.946Z</time></trkpt><trkpt lat="44.2497983" lon="11.14004"><ele>611.0</ele><time>2026-04-09T09:39:30.946Z</time></trkpt><trkpt lat="44.249695" lon="11.1399733"><ele>611.0</ele><time>2026-04-09T09:39:31.946Z</time></trkpt><trkpt lat="44.2495917" lon="11.1398933"><ele>613.2</ele><time>2026-04-09T09:39:32.946Z</time></trkpt><trkpt lat="44.24949" lon="11.1398"><ele>615.4000000000001</ele><time>2026-04-09T09:39:33.946Z</time></trkpt><trkpt lat="44.249395" lon="11.13972"><ele>617.6</ele><time>2026-04-09T09:39:34.946Z</time></trkpt><trkpt lat="44.2493017" lon="11.1396517"><ele>619.8000000000001</ele><time>2026-04-09T09:39:35.946Z</time></trkpt><trkpt lat="44.2492167" lon="11.1395933"><ele>622.0</ele><time>2026-04-09T09:39:36.946Z</time></trkpt><trkpt lat="44.24913" lon="11.1395433"><ele>622.0</ele><time>2026-04-09T09:39:37.946Z</time></trkpt><trkpt lat="44.2490417" lon="11.13949"><ele>622.0</ele><time>2026-04-09T09:39:38.946Z</time></trkpt><trkpt lat="44.2489567" lon="11.1394383"><ele>622.0</ele><time>2026-04-09T09:39:39.947Z</time></trkpt><trkpt lat="44.2488833" lon="11.1393917"><ele>622.0</ele><time>2026-04-09T09:39:40.946Z</time></trkpt><trkpt lat="44.2488083" lon="11.1393417"><ele>622.0</ele><time>2026-04-09T09:39:41.947Z</time></trkpt><trkpt lat="44.2487233" lon="11.1393083"><ele>622.0</ele><time>2026-04-09T09:39:42.946Z</time></trkpt><trkpt lat="44.248635" lon="11.139295"><ele>622.0</ele><time>2026-04-09T09:39:43.946Z</time></trkpt><trkpt lat="44.2485383" lon="11.1393033"><ele>622.0</ele><time>2026-04-09T09:39:44.947Z</time></trkpt><trkpt lat="44.248445" lon="11.139315"><ele>622.0</ele><time>2026-04-09T09:39:45.946Z</time></trkpt><trkpt lat="44.24835" lon="11.139325"><ele>622.0</ele><time>2026-04-09T09:39:46.947Z</time></trkpt><trkpt lat="44.2482617" lon="11.1393283"><ele>622.0</ele><time>2026-04-09T09:39:47.946Z</time></trkpt><trkpt lat="44.2481783" lon="11.139305"><ele>621.1666666666667</ele><time>2026-04-09T09:39:48.946Z</time></trkpt><trkpt lat="44.248095" lon="11.1392867"><ele>620.3333333333334</ele><time>2026-04-09T09:39:49.946Z</time></trkpt><trkpt lat="44.2480067" lon="11.1392817"><ele>619.5</ele><time>2026-04-09T09:39:50.946Z</time></trkpt><trkpt lat="44.2479267" lon="11.1392983"><ele>618.6666666666666</ele><time>2026-04-09T09:39:51.946Z</time></trkpt><trkpt lat="44.2478633" lon="11.1393317"><ele>617.8333333333333</ele><time>2026-04-09T09:39:52.946Z</time></trkpt><trkpt lat="44.2477967" lon="11.1393817"><ele>617.0</ele><time>2026-04-09T09:39:53.946Z</time></trkpt><trkpt lat="44.2477367" lon="11.13943"><ele>617.0</ele><time>2026-04-09T09:39:54.946Z</time></trkpt><trkpt lat="44.247675" lon="11.1394783"><ele>617.0</ele><time>2026-04-09T09:39:55.946Z</time></trkpt><trkpt lat="44.247605" lon="11.1395183"><ele>617.0</ele><time>2026-04-09T09:39:56.947Z</time></trkpt><trkpt lat="44.247545" lon="11.1395467"><ele>617.0</ele><time>2026-04-09T09:39:57.946Z</time></trkpt><trkpt lat="44.2474433" lon="11.1395667"><ele>617.0</ele><time>2026-04-09T09:39:59.946Z</time></trkpt><trkpt lat="44.24734" lon="11.139595"><ele>617.0</ele><time>2026-04-09T09:40:01.946Z</time></trkpt><trkpt lat="44.2472683" lon="11.1396267"><ele>617.4</ele><time>2026-04-09T09:40:02.946Z</time></trkpt><trkpt lat="44.247175" lon="11.139675"><ele>617.8000000000001</ele><time>2026-04-09T09:40:03.947Z</time></trkpt><trkpt lat="44.24707" lon="11.1397267"><ele>618.2</ele><time>2026-04-09T09:40:04.946Z</time></trkpt><trkpt lat="44.2469567" lon="11.1397617"><ele>618.6</ele><time>2026-04-09T09:40:05.947Z</time></trkpt><trkpt lat="44.2468367" lon="11.13978"><ele>619.0</ele><time>2026-04-09T09:40:06.946Z</time></trkpt><trkpt lat="44.2467183" lon="11.1397717"><ele>619.0</ele><time>2026-04-09T09:40:07.946Z</time></trkpt><trkpt lat="44.2465933" lon="11.139745"><ele>619.0</ele><time>2026-04-09T09:40:08.946Z</time></trkpt><trkpt lat="44.246475" lon="11.1397117"><ele>619.0</ele><time>2026-04-09T09:40:09.946Z</time></trkpt><trkpt lat="44.2463767" lon="11.1396683"><ele>619.0</ele><time>2026-04-09T09:40:10.946Z</time></trkpt><trkpt lat="44.24628" lon="11.13961"><ele>622.8</ele><time>2026-04-09T09:40:11.946Z</time></trkpt><trkpt lat="44.2461983" lon="11.1395217"><ele>626.5999999999999</ele><time>2026-04-09T09:40:12.945Z</time></trkpt><trkpt lat="44.2461333" lon="11.1394117"><ele>630.4</ele><time>2026-04-09T09:40:13.945Z</time></trkpt><trkpt lat="44.2460717" lon="11.1393117"><ele>634.1999999999999</ele><time>2026-04-09T09:40:14.945Z</time></trkpt><trkpt lat="44.2460067" lon="11.139215"><ele>638.0</ele><time>2026-04-09T09:40:15.946Z</time></trkpt><trkpt lat="44.2459367" lon="11.1391317"><ele>638.0</ele><time>2026-04-09T09:40:16.945Z</time></trkpt><trkpt lat="44.24586" lon="11.1390917"><ele>638.0</ele><time>2026-04-09T09:40:17.946Z</time></trkpt><trkpt lat="44.2457683" lon="11.139085"><ele>638.0</ele><time>2026-04-09T09:40:18.945Z</time></trkpt><trkpt lat="44.2456633" lon="11.1391083"><ele>638.0</ele><time>2026-04-09T09:40:19.946Z</time></trkpt><trkpt lat="44.245555" lon="11.1391417"><ele>638.0</ele><time>2026-04-09T09:40:20.945Z</time></trkpt><trkpt lat="44.24543" lon="11.1391667"><ele>640.25</ele><time>2026-04-09T09:40:21.945Z</time></trkpt><trkpt lat="44.2453" lon="11.13918"><ele>642.5</ele><time>2026-04-09T09:40:22.945Z</time></trkpt><trkpt lat="44.2451733" lon="11.1391767"><ele>644.75</ele><time>2026-04-09T09:40:23.946Z</time></trkpt><trkpt lat="44.2450567" lon="11.1391333"><ele>647.0</ele><time>2026-04-09T09:40:24.945Z</time></trkpt><trkpt lat="44.2449383" lon="11.13908"><ele>646.25</ele><time>2026-04-09T09:40:25.945Z</time></trkpt><trkpt lat="44.2448167" lon="11.13899"><ele>645.5</ele><time>2026-04-09T09:40:26.945Z</time></trkpt><trkpt lat="44.244695" lon="11.1388883"><ele>644.75</ele><time>2026-04-09T09:40:27.945Z</time></trkpt><trkpt lat="44.244585" lon="11.1387917"><ele>644.0</ele><time>2026-04-09T09:40:28.946Z</time></trkpt><trkpt lat="44.2444883" lon="11.1386917"><ele>644.0</ele><time>2026-04-09T09:40:29.945Z</time></trkpt><trkpt lat="44.24441" lon="11.1385833"><ele>644.0</ele><time>2026-04-09T09:40:30.945Z</time></trkpt><trkpt lat="44.2443417" lon="11.1384717"><ele>644.0</ele><time>2026-04-09T09:40:31.945Z</time></trkpt><trkpt lat="44.2442833" lon="11.1383433"><ele>644.0</ele><time>2026-04-09T09:40:32.945Z</time></trkpt><trkpt lat="44.24422" lon="11.1382283"><ele>644.0</ele><time>2026-04-09T09:40:33.945Z</time></trkpt><trkpt lat="44.244155" lon="11.138125"><ele>643.0</ele><time>2026-04-09T09:40:34.945Z</time></trkpt><trkpt lat="44.2440717" lon="11.1380333"><ele>642.0</ele><time>2026-04-09T09:40:35.945Z</time></trkpt><trkpt lat="44.2439783" lon="11.1379467"><ele>641.0</ele><time>2026-04-09T09:40:36.945Z</time></trkpt><trkpt lat="44.24388" lon="11.1378633"><ele>640.0</ele><time>2026-04-09T09:40:37.945Z</time></trkpt><trkpt lat="44.24378" lon="11.1377767"><ele>640.0</ele><time>2026-04-09T09:40:38.946Z</time></trkpt><trkpt lat="44.243675" lon="11.1376867"><ele>640.0</ele><time>2026-04-09T09:40:39.945Z</time></trkpt><trkpt lat="44.24356" lon="11.1376067"><ele>640.0</ele><time>2026-04-09T09:40:40.945Z</time></trkpt><trkpt lat="44.2434367" lon="11.1375333"><ele>640.0</ele><time>2026-04-09T09:40:41.945Z</time></trkpt><trkpt lat="44.2433183" lon="11.1374733"><ele>640.0</ele><time>2026-04-09T09:40:42.945Z</time></trkpt><trkpt lat="44.2431967" lon="11.137415"><ele>640.0</ele><time>2026-04-09T09:40:43.946Z</time></trkpt><trkpt lat="44.2430683" lon="11.1373567"><ele>640.0</ele><time>2026-04-09T09:40:44.945Z</time></trkpt><trkpt lat="44.2429433" lon="11.1373"><ele>640.0</ele><time>2026-04-09T09:40:45.946Z</time></trkpt><trkpt lat="44.242825" lon="11.1372333"><ele>639.4</ele><time>2026-04-09T09:40:46.945Z</time></trkpt><trkpt lat="44.242705" lon="11.1371717"><ele>638.8</ele><time>2026-04-09T09:40:47.946Z</time></trkpt><trkpt lat="44.2426067" lon="11.1371067"><ele>638.2</ele><time>2026-04-09T09:40:48.945Z</time></trkpt><trkpt lat="44.2425133" lon="11.1370633"><ele>637.6</ele><time>2026-04-09T09:40:49.945Z</time></trkpt><trkpt lat="44.242415" lon="11.1370267"><ele>637.0</ele><time>2026-04-09T09:40:50.945Z</time></trkpt><trkpt lat="44.2423067" lon="11.1370067"><ele>640.8</ele><time>2026-04-09T09:40:51.945Z</time></trkpt><trkpt lat="44.2421967" lon="11.1369967"><ele>644.6</ele><time>2026-04-09T09:40:52.945Z</time></trkpt><trkpt lat="44.242075" lon="11.136995"><ele>648.4</ele><time>2026-04-09T09:40:53.945Z</time></trkpt><trkpt lat="44.2419617" lon="11.1369817"><ele>652.1999999999999</ele><time>2026-04-09T09:40:54.945Z</time></trkpt><trkpt lat="44.24186" lon="11.1369833"><ele>656.0</ele><time>2026-04-09T09:40:55.946Z</time></trkpt><trkpt lat="44.2417617" lon="11.1369767"><ele>656.0</ele><time>2026-04-09T09:40:56.945Z</time></trkpt><trkpt lat="44.2416517" lon="11.1369783"><ele>656.0</ele><time>2026-04-09T09:40:57.945Z</time></trkpt><trkpt lat="44.241555" lon="11.136955"><ele>656.0</ele><time>2026-04-09T09:40:58.946Z</time></trkpt><trkpt lat="44.2414433" lon="11.1369117"><ele>656.0</ele><time>2026-04-09T09:40:59.945Z</time></trkpt><trkpt lat="44.24133" lon="11.13682"><ele>655.5</ele><time>2026-04-09T09:41:00.946Z</time></trkpt><trkpt lat="44.2412067" lon="11.136715"><ele>655.0</ele><time>2026-04-09T09:41:01.946Z</time></trkpt><trkpt lat="44.241085" lon="11.13661"><ele>654.5</ele><time>2026-04-09T09:41:02.945Z</time></trkpt><trkpt lat="44.2409733" lon="11.1365167"><ele>654.0</ele><time>2026-04-09T09:41:03.945Z</time></trkpt><trkpt lat="44.2408667" lon="11.13642"><ele>657.0</ele><time>2026-04-09T09:41:04.945Z</time></trkpt><trkpt lat="44.2407767" lon="11.1363117"><ele>660.0</ele><time>2026-04-09T09:41:05.946Z</time></trkpt><trkpt lat="44.2406683" lon="11.1362167"><ele>663.0</ele><time>2026-04-09T09:41:06.945Z</time></trkpt><trkpt lat="44.2405383" lon="11.13616"><ele>666.0</ele><time>2026-04-09T09:41:07.946Z</time></trkpt><trkpt lat="44.240405" lon="11.1361033"><ele>666.0</ele><time>2026-04-09T09:41:08.945Z</time></trkpt><trkpt lat="44.2402867" lon="11.136035"><ele>666.0</ele><time>2026-04-09T09:41:09.945Z</time></trkpt><trkpt lat="44.24018" lon="11.1359517"><ele>666.0</ele><time>2026-04-09T09:41:10.945Z</time></trkpt><trkpt lat="44.2400683" lon="11.1358833"><ele>666.0</ele><time>2026-04-09T09:41:11.945Z</time></trkpt><trkpt lat="44.2399417" lon="11.135855"><ele>666.0</ele><time>2026-04-09T09:41:12.945Z</time></trkpt><trkpt lat="44.2398083" lon="11.1358767"><ele>666.0</ele><time>2026-04-09T09:41:13.945Z</time></trkpt><trkpt lat="44.2396733" lon="11.135925"><ele>666.0</ele><time>2026-04-09T09:41:14.945Z</time></trkpt><trkpt lat="44.2395517" lon="11.1359567"><ele>666.0</ele><time>2026-04-09T09:41:15.945Z</time></trkpt><trkpt lat="44.2394267" lon="11.135965"><ele>667.5</ele><time>2026-04-09T09:41:16.945Z</time></trkpt><trkpt lat="44.239295" lon="11.1359567"><ele>669.0</ele><time>2026-04-09T09:41:17.945Z</time></trkpt><trkpt lat="44.2391667" lon="11.135925"><ele>670.5</ele><time>2026-04-09T09:41:18.945Z</time></trkpt><trkpt lat="44.239045" lon="11.1358967"><ele>672.0</ele><time>2026-04-09T09:41:19.945Z</time></trkpt><trkpt lat="44.2389233" lon="11.1358533"><ele>671.25</ele><time>2026-04-09T09:41:20.946Z</time></trkpt><trkpt lat="44.2388" lon="11.1357867"><ele>670.5</ele><time>2026-04-09T09:41:21.946Z</time></trkpt><trkpt lat="44.23869" lon="11.1356817"><ele>669.75</ele><time>2026-04-09T09:41:22.945Z</time></trkpt><trkpt lat="44.23859" lon="11.1355767"><ele>669.0</ele><time>2026-04-09T09:41:23.945Z</time></trkpt><trkpt lat="44.2385117" lon="11.1354567"><ele>669.0</ele><time>2026-04-09T09:41:24.945Z</time></trkpt><trkpt lat="44.2384533" lon="11.1353183"><ele>669.0</ele><time>2026-04-09T09:41:25.945Z</time></trkpt><trkpt lat="44.238405" lon="11.1351683"><ele>669.0</ele><time>2026-04-09T09:41:26.945Z</time></trkpt><trkpt lat="44.2383617" lon="11.1350133"><ele>669.0</ele><time>2026-04-09T09:41:27.945Z</time></trkpt><trkpt lat="44.2383067" lon="11.1348817"><ele>668.25</ele><time>2026-04-09T09:41:28.945Z</time></trkpt><trkpt lat="44.2382233" lon="11.1347667"><ele>667.5</ele><time>2026-04-09T09:41:29.945Z</time></trkpt><trkpt lat="44.23812" lon="11.1346967"><ele>666.75</ele><time>2026-04-09T09:41:30.945Z</time></trkpt><trkpt lat="44.2379983" lon="11.1346467"><ele>666.0</ele><time>2026-04-09T09:41:31.945Z</time></trkpt><trkpt lat="44.2378633" lon="11.1346117"><ele>667.5</ele><time>2026-04-09T09:41:32.945Z</time></trkpt><trkpt lat="44.2377333" lon="11.13457"><ele>669.0</ele><time>2026-04-09T09:41:33.945Z</time></trkpt><trkpt lat="44.237605" lon="11.13453"><ele>670.5</ele><time>2026-04-09T09:41:34.945Z</time></trkpt><trkpt lat="44.2374633" lon="11.1345067"><ele>672.0</ele><time>2026-04-09T09:41:35.946Z</time></trkpt><trkpt lat="44.2373083" lon="11.13451"><ele>671.75</ele><time>2026-04-09T09:41:36.946Z</time></trkpt><trkpt lat="44.2371667" lon="11.1345283"><ele>671.5</ele><time>2026-04-09T09:41:37.945Z</time></trkpt><trkpt lat="44.2370383" lon="11.1345517"><ele>671.25</ele><time>2026-04-09T09:41:38.945Z</time></trkpt><trkpt lat="44.236915" lon="11.1345733"><ele>671.0</ele><time>2026-04-09T09:41:39.945Z</time></trkpt><trkpt lat="44.2368017" lon="11.13457"><ele>671.0</ele><time>2026-04-09T09:41:40.945Z</time></trkpt><trkpt lat="44.2366967" lon="11.134545"><ele>671.0</ele><time>2026-04-09T09:41:41.945Z</time></trkpt><trkpt lat="44.2365983" lon="11.1344983"><ele>671.0</ele><time>2026-04-09T09:41:42.945Z</time></trkpt><trkpt lat="44.2364983" lon="11.1344433"><ele>671.0</ele><time>2026-04-09T09:41:43.945Z</time></trkpt><trkpt lat="44.236395" lon="11.1344017"><ele>671.0</ele><time>2026-04-09T09:41:44.945Z</time></trkpt><trkpt lat="44.2362817" lon="11.1343617"><ele>671.25</ele><time>2026-04-09T09:41:45.945Z</time></trkpt><trkpt lat="44.2361567" lon="11.134315"><ele>671.5</ele><time>2026-04-09T09:41:46.945Z</time></trkpt><trkpt lat="44.236015" lon="11.1342583"><ele>671.75</ele><time>2026-04-09T09:41:47.945Z</time></trkpt><trkpt lat="44.23586" lon="11.1342067"><ele>672.0</ele><time>2026-04-09T09:41:48.945Z</time></trkpt><trkpt lat="44.2357033" lon="11.1341633"><ele>672.3333333333334</ele><time>2026-04-09T09:41:49.945Z</time></trkpt><trkpt lat="44.2355367" lon="11.1341467"><ele>672.6666666666667</ele><time>2026-04-09T09:41:50.945Z</time></trkpt><trkpt lat="44.235385" lon="11.134155"><ele>673.0</ele><time>2026-04-09T09:41:51.945Z</time></trkpt><trkpt lat="44.2352367" lon="11.134185"><ele>673.0</ele><time>2026-04-09T09:41:52.945Z</time></trkpt><trkpt lat="44.23509" lon="11.13423"><ele>673.0</ele><time>2026-04-09T09:41:53.945Z</time></trkpt><trkpt lat="44.23496" lon="11.1342883"><ele>673.0</ele><time>2026-04-09T09:41:54.945Z</time></trkpt><trkpt lat="44.2348433" lon="11.1343383"><ele>673.0</ele><time>2026-04-09T09:41:55.946Z</time></trkpt><trkpt lat="44.2347367" lon="11.134375"><ele>673.4</ele><time>2026-04-09T09:41:56.945Z</time></trkpt><trkpt lat="44.23463" lon="11.1343933"><ele>673.8</ele><time>2026-04-09T09:41:57.945Z</time></trkpt><trkpt lat="44.234525" lon="11.1343767"><ele>674.2</ele><time>2026-04-09T09:41:58.945Z</time></trkpt><trkpt lat="44.234415" lon="11.134345"><ele>674.6</ele><time>2026-04-09T09:41:59.945Z</time></trkpt><trkpt lat="44.2342967" lon="11.1342983"><ele>675.0</ele><time>2026-04-09T09:42:00.945Z</time></trkpt><trkpt lat="44.23416" lon="11.134255"><ele>675.0</ele><time>2026-04-09T09:42:01.945Z</time></trkpt><trkpt lat="44.2340183" lon="11.1342167"><ele>675.0</ele><time>2026-04-09T09:42:02.945Z</time></trkpt><trkpt lat="44.2338883" lon="11.13417"><ele>675.0</ele><time>2026-04-09T09:42:03.945Z</time></trkpt><trkpt lat="44.2337733" lon="11.13414"><ele>675.0</ele><time>2026-04-09T09:42:04.945Z</time></trkpt><trkpt lat="44.2336467" lon="11.134125"><ele>677.0</ele><time>2026-04-09T09:42:05.945Z</time></trkpt><trkpt lat="44.2335117" lon="11.1341533"><ele>679.0</ele><time>2026-04-09T09:42:06.945Z</time></trkpt><trkpt lat="44.2333717" lon="11.13421"><ele>681.0</ele><time>2026-04-09T09:42:07.945Z</time></trkpt><trkpt lat="44.233235" lon="11.13428"><ele>683.0</ele><time>2026-04-09T09:42:08.945Z</time></trkpt><trkpt lat="44.233095" lon="11.134355"><ele>687.5</ele><time>2026-04-09T09:42:09.945Z</time></trkpt><trkpt lat="44.23296" lon="11.13443"><ele>692.0</ele><time>2026-04-09T09:42:10.945Z</time></trkpt><trkpt lat="44.2328317" lon="11.1345033"><ele>696.5</ele><time>2026-04-09T09:42:11.946Z</time></trkpt><trkpt lat="44.2327033" lon="11.1345783"><ele>701.0</ele><time>2026-04-09T09:42:12.945Z</time></trkpt><trkpt lat="44.2325683" lon="11.1346733"><ele>701.0</ele><time>2026-04-09T09:42:13.946Z</time></trkpt><trkpt lat="44.2324383" lon="11.1347667"><ele>701.0</ele><time>2026-04-09T09:42:14.945Z</time></trkpt><trkpt lat="44.2323117" lon="11.1348567"><ele>701.0</ele><time>2026-04-09T09:42:15.946Z</time></trkpt><trkpt lat="44.232185" lon="11.1349683"><ele>701.0</ele><time>2026-04-09T09:42:16.945Z</time></trkpt><trkpt lat="44.2320617" lon="11.1350817"><ele>697.3333333333333</ele><time>2026-04-09T09:42:17.946Z</time></trkpt><trkpt lat="44.231935" lon="11.1352183"><ele>693.6666666666666</ele><time>2026-04-09T09:42:18.946Z</time></trkpt><trkpt lat="44.2318167" lon="11.1353683"><ele>690.0</ele><time>2026-04-09T09:42:19.945Z</time></trkpt><trkpt lat="44.231695" lon="11.135525"><ele>690.0</ele><time>2026-04-09T09:42:20.946Z</time></trkpt><trkpt lat="44.2315767" lon="11.1356867"><ele>690.0</ele><time>2026-04-09T09:42:21.945Z</time></trkpt><trkpt lat="44.231465" lon="11.135855"><ele>690.0</ele><time>2026-04-09T09:42:22.946Z</time></trkpt><trkpt lat="44.2313433" lon="11.1360283"><ele>688.0</ele><time>2026-04-09T09:42:23.945Z</time></trkpt><trkpt lat="44.2312417" lon="11.1361967"><ele>686.0</ele><time>2026-04-09T09:42:24.945Z</time></trkpt><trkpt lat="44.2311467" lon="11.136365"><ele>684.0</ele><time>2026-04-09T09:42:25.945Z</time></trkpt><trkpt lat="44.23106" lon="11.1365017"><ele>682.0</ele><time>2026-04-09T09:42:26.945Z</time></trkpt><trkpt lat="44.2309817" lon="11.136625"><ele>682.0</ele><time>2026-04-09T09:42:27.945Z</time></trkpt><trkpt lat="44.230905" lon="11.1367317"><ele>682.0</ele><time>2026-04-09T09:42:28.945Z</time></trkpt><trkpt lat="44.23083" lon="11.1368233"><ele>682.0</ele><time>2026-04-09T09:42:29.945Z</time></trkpt><trkpt lat="44.2307433" lon="11.1368967"><ele>682.0</ele><time>2026-04-09T09:42:30.945Z</time></trkpt><trkpt lat="44.2306433" lon="11.136945"><ele>682.0</ele><time>2026-04-09T09:42:31.945Z</time></trkpt><trkpt lat="44.2305367" lon="11.13698"><ele>688.4000000000001</ele><time>2026-04-09T09:42:32.945Z</time></trkpt><trkpt lat="44.23043" lon="11.1370167"><ele>694.8000000000001</ele><time>2026-04-09T09:42:33.945Z</time></trkpt><trkpt lat="44.2303283" lon="11.13707"><ele>701.2</ele><time>2026-04-09T09:42:34.945Z</time></trkpt><trkpt lat="44.2302283" lon="11.1371483"><ele>707.6</ele><time>2026-04-09T09:42:35.946Z</time></trkpt><trkpt lat="44.230135" lon="11.1372383"><ele>714.0</ele><time>2026-04-09T09:42:36.945Z</time></trkpt><trkpt lat="44.2300517" lon="11.137335"><ele>710.0</ele><time>2026-04-09T09:42:37.945Z</time></trkpt><trkpt lat="44.22997" lon="11.13742"><ele>706.0</ele><time>2026-04-09T09:42:38.945Z</time></trkpt><trkpt lat="44.2298717" lon="11.1374883"><ele>702.0</ele><time>2026-04-09T09:42:39.946Z</time></trkpt><trkpt lat="44.2297733" lon="11.1375383"><ele>698.0</ele><time>2026-04-09T09:42:40.945Z</time></trkpt><trkpt lat="44.2296767" lon="11.1375467"><ele>694.0</ele><time>2026-04-09T09:42:41.945Z</time></trkpt><trkpt lat="44.2295683" lon="11.137545"><ele>694.0</ele><time>2026-04-09T09:42:42.945Z</time></trkpt><trkpt lat="44.2294483" lon="11.1375283"><ele>694.0</ele><time>2026-04-09T09:42:43.945Z</time></trkpt><trkpt lat="44.229335" lon="11.1375067"><ele>694.0</ele><time>2026-04-09T09:42:44.945Z</time></trkpt><trkpt lat="44.229225" lon="11.1375033"><ele>694.0</ele><time>2026-04-09T09:42:45.946Z</time></trkpt><trkpt lat="44.22913" lon="11.137535"><ele>694.0</ele><time>2026-04-09T09:42:46.946Z</time></trkpt><trkpt lat="44.229035" lon="11.1375817"><ele>693.1666666666667</ele><time>2026-04-09T09:42:47.945Z</time></trkpt><trkpt lat="44.2289583" lon="11.1376283"><ele>692.3333333333334</ele><time>2026-04-09T09:42:48.945Z</time></trkpt><trkpt lat="44.2289017" lon="11.1377033"><ele>691.5</ele><time>2026-04-09T09:42:49.945Z</time></trkpt><trkpt lat="44.22888" lon="11.1378067"><ele>690.6666666666666</ele><time>2026-04-09T09:42:50.945Z</time></trkpt><trkpt lat="44.2288833" lon="11.13793"><ele>689.8333333333333</ele><time>2026-04-09T09:42:51.945Z</time></trkpt><trkpt lat="44.2289117" lon="11.13809"><ele>689.0</ele><time>2026-04-09T09:42:52.946Z</time></trkpt><trkpt lat="44.2289267" lon="11.1382667"><ele>685.5</ele><time>2026-04-09T09:42:53.945Z</time></trkpt><trkpt lat="44.22894" lon="11.1384617"><ele>682.0</ele><time>2026-04-09T09:42:54.945Z</time></trkpt><trkpt lat="44.2289517" lon="11.1386533"><ele>678.5</ele><time>2026-04-09T09:42:55.945Z</time></trkpt><trkpt lat="44.22896" lon="11.1388433"><ele>675.0</ele><time>2026-04-09T09:42:56.946Z</time></trkpt><trkpt lat="44.228975" lon="11.139025"><ele>675.25</ele><time>2026-04-09T09:42:57.946Z</time></trkpt><trkpt lat="44.228985" lon="11.1392"><ele>675.5</ele><time>2026-04-09T09:42:58.946Z</time></trkpt><trkpt lat="44.22899" lon="11.1393683"><ele>675.75</ele><time>2026-04-09T09:42:59.946Z</time></trkpt><trkpt lat="44.2289833" lon="11.1395217"><ele>676.0</ele><time>2026-04-09T09:43:00.945Z</time></trkpt><trkpt lat="44.2289683" lon="11.1396717"><ele>675.0</ele><time>2026-04-09T09:43:01.945Z</time></trkpt><trkpt lat="44.2289367" lon="11.1398233"><ele>674.0</ele><time>2026-04-09T09:43:02.945Z</time></trkpt><trkpt lat="44.2288817" lon="11.1399767"><ele>673.0</ele><time>2026-04-09T09:43:03.946Z</time></trkpt><trkpt lat="44.2288" lon="11.1401417"><ele>672.0</ele><time>2026-04-09T09:43:04.945Z</time></trkpt><trkpt lat="44.2287217" lon="11.14031"><ele>670.5</ele><time>2026-04-09T09:43:05.945Z</time></trkpt><trkpt lat="44.2286517" lon="11.1404767"><ele>669.0</ele><time>2026-04-09T09:43:06.945Z</time></trkpt><trkpt lat="44.2285733" lon="11.1406333"><ele>667.5</ele><time>2026-04-09T09:43:07.946Z</time></trkpt><trkpt lat="44.2284967" lon="11.140785"><ele>666.0</ele><time>2026-04-09T09:43:08.946Z</time></trkpt><trkpt lat="44.228415" lon="11.1409383"><ele>665.0</ele><time>2026-04-09T09:43:09.946Z</time></trkpt><trkpt lat="44.2283383" lon="11.1410817"><ele>664.0</ele><time>2026-04-09T09:43:10.945Z</time></trkpt><trkpt lat="44.2282517" lon="11.1412333"><ele>663.0</ele><time>2026-04-09T09:43:11.945Z</time></trkpt><trkpt lat="44.2281733" lon="11.1413867"><ele>662.0</ele><time>2026-04-09T09:43:12.945Z</time></trkpt><trkpt lat="44.2281017" lon="11.1415267"><ele>658.75</ele><time>2026-04-09T09:43:13.945Z</time></trkpt><trkpt lat="44.2280267" lon="11.1416667"><ele>655.5</ele><time>2026-04-09T09:43:14.945Z</time></trkpt><trkpt lat="44.2279367" lon="11.14179"><ele>652.25</ele><time>2026-04-09T09:43:15.945Z</time></trkpt><trkpt lat="44.2278417" lon="11.14191"><ele>649.0</ele><time>2026-04-09T09:43:16.945Z</time></trkpt><trkpt lat="44.2277633" lon="11.1420083"><ele>649.0</ele><time>2026-04-09T09:43:17.945Z</time></trkpt><trkpt lat="44.227685" lon="11.1421117"><ele>649.0</ele><time>2026-04-09T09:43:18.945Z</time></trkpt><trkpt lat="44.227615" lon="11.1421933"><ele>649.0</ele><time>2026-04-09T09:43:19.945Z</time></trkpt><trkpt lat="44.22755" lon="11.1422567"><ele>649.0</ele><time>2026-04-09T09:43:20.945Z</time></trkpt><trkpt lat="44.22749" lon="11.142295"><ele>649.0</ele><time>2026-04-09T09:43:21.945Z</time></trkpt><trkpt lat="44.2274167" lon="11.142315"><ele>649.0</ele><time>2026-04-09T09:43:22.945Z</time></trkpt><trkpt lat="44.2273467" lon="11.1423283"><ele>647.3333333333334</ele><time>2026-04-09T09:43:23.945Z</time></trkpt><trkpt lat="44.227275" lon="11.1422983"><ele>645.6666666666667</ele><time>2026-04-09T09:43:24.945Z</time></trkpt><trkpt lat="44.2272117" lon="11.14224"><ele>644.0</ele><time>2026-04-09T09:43:25.945Z</time></trkpt><trkpt lat="44.2271433" lon="11.1421617"><ele>642.3333333333334</ele><time>2026-04-09T09:43:26.945Z</time></trkpt><trkpt lat="44.227085" lon="11.142055"><ele>640.6666666666666</ele><time>2026-04-09T09:43:27.946Z</time></trkpt><trkpt lat="44.22704" lon="11.1419433"><ele>639.0</ele><time>2026-04-09T09:43:28.945Z</time></trkpt><trkpt lat="44.2269967" lon="11.1418383"><ele>639.0</ele><time>2026-04-09T09:43:29.945Z</time></trkpt><trkpt lat="44.226965" lon="11.141725"><ele>639.0</ele><time>2026-04-09T09:43:30.946Z</time></trkpt><trkpt lat="44.22694" lon="11.1416267"><ele>639.0</ele><time>2026-04-09T09:43:31.945Z</time></trkpt><trkpt lat="44.2269233" lon="11.1415317"><ele>639.0</ele><time>2026-04-09T09:43:32.945Z</time></trkpt><trkpt lat="44.2269333" lon="11.1413733"><ele>639.0</ele><time>2026-04-09T09:43:34.946Z</time></trkpt><trkpt lat="44.227" lon="11.1412217"><ele>637.0</ele><time>2026-04-09T09:43:36.945Z</time></trkpt><trkpt lat="44.2270617" lon="11.14112"><ele>635.0</ele><time>2026-04-09T09:43:37.945Z</time></trkpt><trkpt lat="44.22712" lon="11.1410033"><ele>633.0</ele><time>2026-04-09T09:43:38.945Z</time></trkpt><trkpt lat="44.227195" lon="11.1408567"><ele>631.0</ele><time>2026-04-09T09:43:39.945Z</time></trkpt><trkpt lat="44.2272667" lon="11.1407"><ele>632.5</ele><time>2026-04-09T09:43:40.945Z</time></trkpt><trkpt lat="44.2273483" lon="11.1405367"><ele>634.0</ele><time>2026-04-09T09:43:41.945Z</time></trkpt><trkpt lat="44.2274217" lon="11.1403917"><ele>635.5</ele><time>2026-04-09T09:43:42.945Z</time></trkpt><trkpt lat="44.2274967" lon="11.14025"><ele>637.0</ele><time>2026-04-09T09:43:43.945Z</time></trkpt><trkpt lat="44.2275617" lon="11.1401133"><ele>637.0</ele><time>2026-04-09T09:43:44.945Z</time></trkpt><trkpt lat="44.2276083" lon="11.1399783"><ele>637.0</ele><time>2026-04-09T09:43:45.945Z</time></trkpt><trkpt lat="44.2276333" lon="11.1398383"><ele>637.0</ele><time>2026-04-09T09:43:46.945Z</time></trkpt><trkpt lat="44.2276333" lon="11.1396917"><ele>637.0</ele><time>2026-04-09T09:43:47.946Z</time></trkpt><trkpt lat="44.2276033" lon="11.139535"><ele>637.0</ele><time>2026-04-09T09:43:48.945Z</time></trkpt><trkpt lat="44.227535" lon="11.13937"><ele>636.0</ele><time>2026-04-09T09:43:49.945Z</time></trkpt><trkpt lat="44.2274267" lon="11.139205"><ele>635.0</ele><time>2026-04-09T09:43:50.945Z</time></trkpt><trkpt lat="44.2273183" lon="11.139055"><ele>634.0</ele><time>2026-04-09T09:43:51.945Z</time></trkpt><trkpt lat="44.227215" lon="11.1389117"><ele>634.0</ele><time>2026-04-09T09:43:52.945Z</time></trkpt><trkpt lat="44.2271317" lon="11.1387617"><ele>634.0</ele><time>2026-04-09T09:43:53.945Z</time></trkpt><trkpt lat="44.2270633" lon="11.13862"><ele>634.0</ele><time>2026-04-09T09:43:54.946Z</time></trkpt><trkpt lat="44.2269917" lon="11.1384733"><ele>634.0</ele><time>2026-04-09T09:43:55.945Z</time></trkpt><trkpt lat="44.2269017" lon="11.1383467"><ele>634.0</ele><time>2026-04-09T09:43:56.945Z</time></trkpt><trkpt lat="44.2268117" lon="11.13823"><ele>634.0</ele><time>2026-04-09T09:43:57.946Z</time></trkpt><trkpt lat="44.2267133" lon="11.13813"><ele>634.0</ele><time>2026-04-09T09:43:58.945Z</time></trkpt><trkpt lat="44.22661" lon="11.1380617"><ele>634.0</ele><time>2026-04-09T09:43:59.945Z</time></trkpt><trkpt lat="44.226495" lon="11.1380533"><ele>634.5</ele><time>2026-04-09T09:44:00.946Z</time></trkpt><trkpt lat="44.2263667" lon="11.138075"><ele>635.0</ele><time>2026-04-09T09:44:01.945Z</time></trkpt><trkpt lat="44.226225" lon="11.1381183"><ele>635.5</ele><time>2026-04-09T09:44:02.946Z</time></trkpt><trkpt lat="44.2260983" lon="11.1381467"><ele>636.0</ele><time>2026-04-09T09:44:03.945Z</time></trkpt><trkpt lat="44.2259783" lon="11.1381733"><ele>636.0</ele><time>2026-04-09T09:44:04.945Z</time></trkpt><trkpt lat="44.2258767" lon="11.1381767"><ele>636.0</ele><time>2026-04-09T09:44:05.945Z</time></trkpt><trkpt lat="44.2257933" lon="11.1381633"><ele>636.0</ele><time>2026-04-09T09:44:06.946Z</time></trkpt><trkpt lat="44.225715" lon="11.138125"><ele>636.0</ele><time>2026-04-09T09:44:07.945Z</time></trkpt><trkpt lat="44.2256467" lon="11.1380683"><ele>636.0</ele><time>2026-04-09T09:44:08.945Z</time></trkpt><trkpt lat="44.2255833" lon="11.1379683"><ele>636.0</ele><time>2026-04-09T09:44:09.945Z</time></trkpt><trkpt lat="44.2255167" lon="11.137845"><ele>629.8</ele><time>2026-04-09T09:44:10.945Z</time></trkpt><trkpt lat="44.2254367" lon="11.1377383"><ele>623.6</ele><time>2026-04-09T09:44:11.945Z</time></trkpt><trkpt lat="44.2253867" lon="11.1376217"><ele>617.4</ele><time>2026-04-09T09:44:12.945Z</time></trkpt><trkpt lat="44.2253583" lon="11.1375017"><ele>611.2</ele><time>2026-04-09T09:44:13.945Z</time></trkpt><trkpt lat="44.2253683" lon="11.13736"><ele>605.0</ele><time>2026-04-09T09:44:14.946Z</time></trkpt><trkpt lat="44.2254" lon="11.1372033"><ele>605.0</ele><time>2026-04-09T09:44:15.946Z</time></trkpt><trkpt lat="44.2254367" lon="11.1370267"><ele>605.0</ele><time>2026-04-09T09:44:16.945Z</time></trkpt><trkpt lat="44.225485" lon="11.1368533"><ele>605.0</ele><time>2026-04-09T09:44:17.945Z</time></trkpt><trkpt lat="44.225535" lon="11.1366983"><ele>605.0</ele><time>2026-04-09T09:44:18.945Z</time></trkpt><trkpt lat="44.2255917" lon="11.1365617"><ele>607.1666666666666</ele><time>2026-04-09T09:44:19.945Z</time></trkpt><trkpt lat="44.2256267" lon="11.1364483"><ele>609.3333333333333</ele><time>2026-04-09T09:44:20.946Z</time></trkpt><trkpt lat="44.2256383" lon="11.1363617"><ele>611.5</ele><time>2026-04-09T09:44:21.945Z</time></trkpt><trkpt lat="44.225615" lon="11.1362717"><ele>613.6666666666666</ele><time>2026-04-09T09:44:22.945Z</time></trkpt><trkpt lat="44.2255417" lon="11.1362233"><ele>615.8333333333334</ele><time>2026-04-09T09:44:23.945Z</time></trkpt><trkpt lat="44.2254567" lon="11.1361917"><ele>618.0</ele><time>2026-04-09T09:44:24.946Z</time></trkpt><trkpt lat="44.2253683" lon="11.1361717"><ele>618.0</ele><time>2026-04-09T09:44:25.945Z</time></trkpt><trkpt lat="44.2252717" lon="11.136155"><ele>618.0</ele><time>2026-04-09T09:44:26.945Z</time></trkpt><trkpt lat="44.22518" lon="11.1361083"><ele>618.0</ele><time>2026-04-09T09:44:27.945Z</time></trkpt><trkpt lat="44.2250867" lon="11.136045"><ele>618.0</ele><time>2026-04-09T09:44:28.946Z</time></trkpt><trkpt lat="44.225" lon="11.1359367"><ele>618.0</ele><time>2026-04-09T09:44:29.945Z</time></trkpt><trkpt lat="44.22491" lon="11.1358133"><ele>621.0</ele><time>2026-04-09T09:44:30.945Z</time></trkpt><trkpt lat="44.2248183" lon="11.1356833"><ele>624.0</ele><time>2026-04-09T09:44:31.945Z</time></trkpt><trkpt lat="44.2247383" lon="11.135555"><ele>627.0</ele><time>2026-04-09T09:44:32.945Z</time></trkpt><trkpt lat="44.2246783" lon="11.135425"><ele>630.0</ele><time>2026-04-09T09:44:33.945Z</time></trkpt><trkpt lat="44.2246533" lon="11.1353"><ele>620.75</ele><time>2026-04-09T09:44:34.945Z</time></trkpt><trkpt lat="44.2246433" lon="11.1351583"><ele>611.5</ele><time>2026-04-09T09:44:35.945Z</time></trkpt><trkpt lat="44.22466" lon="11.135"><ele>602.25</ele><time>2026-04-09T09:44:36.945Z</time></trkpt><trkpt lat="44.2246833" lon="11.134835"><ele>593.0</ele><time>2026-04-09T09:44:37.945Z</time></trkpt><trkpt lat="44.2247083" lon="11.1346817"><ele>593.0</ele><time>2026-04-09T09:44:38.945Z</time></trkpt><trkpt lat="44.2247117" lon="11.134535"><ele>593.0</ele><time>2026-04-09T09:44:39.945Z</time></trkpt><trkpt lat="44.2246833" lon="11.1344017"><ele>593.0</ele><time>2026-04-09T09:44:40.945Z</time></trkpt><trkpt lat="44.2246283" lon="11.13428"><ele>593.0</ele><time>2026-04-09T09:44:41.945Z</time></trkpt><trkpt lat="44.2245583" lon="11.134145"><ele>593.0</ele><time>2026-04-09T09:44:42.946Z</time></trkpt><trkpt lat="44.2245033" lon="11.1340117"><ele>593.75</ele><time>2026-04-09T09:44:43.945Z</time></trkpt><trkpt lat="44.2244667" lon="11.1338583"><ele>594.5</ele><time>2026-04-09T09:44:44.945Z</time></trkpt><trkpt lat="44.2244533" lon="11.1337"><ele>595.25</ele><time>2026-04-09T09:44:45.946Z</time></trkpt><trkpt lat="44.2244467" lon="11.13354"><ele>596.0</ele><time>2026-04-09T09:44:46.945Z</time></trkpt><trkpt lat="44.224425" lon="11.1333767"><ele>596.5</ele><time>2026-04-09T09:44:47.946Z</time></trkpt><trkpt lat="44.2243817" lon="11.1332117"><ele>597.0</ele><time>2026-04-09T09:44:48.946Z</time></trkpt><trkpt lat="44.2243283" lon="11.1330467"><ele>597.5</ele><time>2026-04-09T09:44:49.946Z</time></trkpt><trkpt lat="44.2242717" lon="11.1328617"><ele>598.0</ele><time>2026-04-09T09:44:50.945Z</time></trkpt><trkpt lat="44.2242317" lon="11.13268"><ele>598.0</ele><time>2026-04-09T09:44:51.945Z</time></trkpt><trkpt lat="44.2242067" lon="11.1324983"><ele>598.0</ele><time>2026-04-09T09:44:52.945Z</time></trkpt><trkpt lat="44.2241983" lon="11.132325"><ele>598.0</ele><time>2026-04-09T09:44:53.945Z</time></trkpt><trkpt lat="44.2242" lon="11.1321583"><ele>598.0</ele><time>2026-04-09T09:44:54.946Z</time></trkpt><trkpt lat="44.22419" lon="11.1319967"><ele>598.1999999999999</ele><time>2026-04-09T09:44:55.946Z</time></trkpt><trkpt lat="44.2241717" lon="11.131855"><ele>598.4</ele><time>2026-04-09T09:44:56.945Z</time></trkpt><trkpt lat="44.2241383" lon="11.1317317"><ele>598.5999999999999</ele><time>2026-04-09T09:44:57.945Z</time></trkpt><trkpt lat="44.2240867" lon="11.1316333"><ele>598.8</ele><time>2026-04-09T09:44:58.946Z</time></trkpt><trkpt lat="44.22401" lon="11.1315467"><ele>599.0</ele><time>2026-04-09T09:44:59.945Z</time></trkpt><trkpt lat="44.22392" lon="11.1314833"><ele>596.75</ele><time>2026-04-09T09:45:00.945Z</time></trkpt><trkpt lat="44.223815" lon="11.1314417"><ele>594.5</ele><time>2026-04-09T09:45:01.945Z</time></trkpt><trkpt lat="44.22371" lon="11.1314017"><ele>592.25</ele><time>2026-04-09T09:45:02.945Z</time></trkpt><trkpt lat="44.2235883" lon="11.1313683"><ele>590.0</ele><time>2026-04-09T09:45:03.945Z</time></trkpt><trkpt lat="44.2234667" lon="11.1313333"><ele>590.0</ele><time>2026-04-09T09:45:04.945Z</time></trkpt><trkpt lat="44.223345" lon="11.13129"><ele>590.0</ele><time>2026-04-09T09:45:05.946Z</time></trkpt><trkpt lat="44.2232283" lon="11.131255"><ele>590.0</ele><time>2026-04-09T09:45:06.945Z</time></trkpt><trkpt lat="44.2231083" lon="11.1312117"><ele>590.0</ele><time>2026-04-09T09:45:07.945Z</time></trkpt><trkpt lat="44.2229917" lon="11.1311767"><ele>589.6</ele><time>2026-04-09T09:45:08.945Z</time></trkpt><trkpt lat="44.222875" lon="11.1311717"><ele>589.2</ele><time>2026-04-09T09:45:09.945Z</time></trkpt><trkpt lat="44.22276" lon="11.131185"><ele>588.8</ele><time>2026-04-09T09:45:10.945Z</time></trkpt><trkpt lat="44.2226567" lon="11.1312267"><ele>588.4</ele><time>2026-04-09T09:45:11.946Z</time></trkpt><trkpt lat="44.2225633" lon="11.1312833"><ele>588.0</ele><time>2026-04-09T09:45:12.945Z</time></trkpt><trkpt lat="44.22247" lon="11.13135"><ele>588.0</ele><time>2026-04-09T09:45:13.945Z</time></trkpt><trkpt lat="44.2223767" lon="11.1314233"><ele>588.0</ele><time>2026-04-09T09:45:14.945Z</time></trkpt><trkpt lat="44.2222817" lon="11.1315017"><ele>588.0</ele><time>2026-04-09T09:45:15.945Z</time></trkpt><trkpt lat="44.22218" lon="11.13158"><ele>588.0</ele><time>2026-04-09T09:45:16.946Z</time></trkpt><trkpt lat="44.22207" lon="11.1316583"><ele>588.75</ele><time>2026-04-09T09:45:17.945Z</time></trkpt><trkpt lat="44.2219567" lon="11.13174"><ele>589.5</ele><time>2026-04-09T09:45:18.945Z</time></trkpt><trkpt lat="44.22184" lon="11.1318333"><ele>590.25</ele><time>2026-04-09T09:45:19.946Z</time></trkpt><trkpt lat="44.22173" lon="11.1319367"><ele>591.0</ele><time>2026-04-09T09:45:20.946Z</time></trkpt><trkpt lat="44.2216233" lon="11.1320417"><ele>591.0</ele><time>2026-04-09T09:45:21.945Z</time></trkpt><trkpt lat="44.2215183" lon="11.1321617"><ele>591.0</ele><time>2026-04-09T09:45:22.945Z</time></trkpt><trkpt lat="44.221425" lon="11.132275"><ele>591.0</ele><time>2026-04-09T09:45:23.945Z</time></trkpt><trkpt lat="44.2213417" lon="11.13238"><ele>591.0</ele><time>2026-04-09T09:45:24.945Z</time></trkpt><trkpt lat="44.2212567" lon="11.132475"><ele>593.4</ele><time>2026-04-09T09:45:25.945Z</time></trkpt><trkpt lat="44.22118" lon="11.1325667"><ele>595.8</ele><time>2026-04-09T09:45:26.945Z</time></trkpt><trkpt lat="44.2210983" lon="11.1326567"><ele>598.1999999999999</ele><time>2026-04-09T09:45:27.945Z</time></trkpt><trkpt lat="44.2210083" lon="11.1327383"><ele>600.6</ele><time>2026-04-09T09:45:28.945Z</time></trkpt><trkpt lat="44.220915" lon="11.1328133"><ele>603.0</ele><time>2026-04-09T09:45:29.945Z</time></trkpt><trkpt lat="44.220815" lon="11.1328867"><ele>603.0</ele><time>2026-04-09T09:45:30.945Z</time></trkpt><trkpt lat="44.2207117" lon="11.13296"><ele>603.0</ele><time>2026-04-09T09:45:31.945Z</time></trkpt><trkpt lat="44.2206017" lon="11.1330217"><ele>603.0</ele><time>2026-04-09T09:45:32.945Z</time></trkpt><trkpt lat="44.2204917" lon="11.13308"><ele>603.0</ele><time>2026-04-09T09:45:33.946Z</time></trkpt><trkpt lat="44.2203783" lon="11.1331433"><ele>604.25</ele><time>2026-04-09T09:45:34.945Z</time></trkpt><trkpt lat="44.22027" lon="11.1332183"><ele>605.5</ele><time>2026-04-09T09:45:35.945Z</time></trkpt><trkpt lat="44.2201683" lon="11.133315"><ele>606.75</ele><time>2026-04-09T09:45:36.946Z</time></trkpt><trkpt lat="44.2200733" lon="11.1334117"><ele>608.0</ele><time>2026-04-09T09:45:37.945Z</time></trkpt><trkpt lat="44.2199883" lon="11.133505"><ele>606.5</ele><time>2026-04-09T09:45:38.946Z</time></trkpt><trkpt lat="44.2199183" lon="11.1335833"><ele>605.0</ele><time>2026-04-09T09:45:39.945Z</time></trkpt><trkpt lat="44.2198583" lon="11.1336517"><ele>603.5</ele><time>2026-04-09T09:45:40.945Z</time></trkpt><trkpt lat="44.2198017" lon="11.1337117"><ele>602.0</ele><time>2026-04-09T09:45:41.945Z</time></trkpt><trkpt lat="44.2197217" lon="11.133755"><ele>600.5</ele><time>2026-04-09T09:45:43.945Z</time></trkpt><trkpt lat="44.2196667" lon="11.1336733"><ele>599.0</ele><time>2026-04-09T09:45:46.945Z</time></trkpt><trkpt lat="44.2196983" lon="11.1335433"><ele>599.0</ele><time>2026-04-09T09:45:48.945Z</time></trkpt><trkpt lat="44.2197367" lon="11.13345"><ele>599.0</ele><time>2026-04-09T09:45:49.945Z</time></trkpt><trkpt lat="44.2197783" lon="11.1333433"><ele>599.0</ele><time>2026-04-09T09:45:50.946Z</time></trkpt><trkpt lat="44.2198333" lon="11.133245"><ele>599.0</ele><time>2026-04-09T09:45:51.945Z</time></trkpt><trkpt lat="44.219895" lon="11.1331733"><ele>599.0</ele><time>2026-04-09T09:45:52.945Z</time></trkpt><trkpt lat="44.2199533" lon="11.1331083"><ele>599.0</ele><time>2026-04-09T09:45:53.945Z</time></trkpt><trkpt lat="44.2200017" lon="11.1330467"><ele>600.2857142857143</ele><time>2026-04-09T09:45:54.945Z</time></trkpt><trkpt lat="44.2200267" lon="11.1329633"><ele>601.5714285714286</ele><time>2026-04-09T09:45:55.945Z</time></trkpt><trkpt lat="44.2200317" lon="11.1328717"><ele>602.8571428571429</ele><time>2026-04-09T09:45:56.946Z</time></trkpt><trkpt lat="44.2200017" lon="11.1327883"><ele>604.1428571428571</ele><time>2026-04-09T09:45:57.945Z</time></trkpt><trkpt lat="44.219945" lon="11.1327133"><ele>605.4285714285714</ele><time>2026-04-09T09:45:58.945Z</time></trkpt><trkpt lat="44.21986" lon="11.13267"><ele>606.7142857142857</ele><time>2026-04-09T09:45:59.945Z</time></trkpt><trkpt lat="44.21978" lon="11.1326383"><ele>608.0</ele><time>2026-04-09T09:46:00.945Z</time></trkpt><trkpt lat="44.2197067" lon="11.1325983"><ele>608.6</ele><time>2026-04-09T09:46:01.945Z</time></trkpt><trkpt lat="44.2196467" lon="11.1325433"><ele>609.1999999999999</ele><time>2026-04-09T09:46:02.945Z</time></trkpt><trkpt lat="44.2196033" lon="11.1324783"><ele>609.8</ele><time>2026-04-09T09:46:03.945Z</time></trkpt><trkpt lat="44.219615" lon="11.132335"><ele>610.4</ele><time>2026-04-09T09:46:05.945Z</time></trkpt><trkpt lat="44.2197533" lon="11.1322833"><ele>611.0</ele><time>2026-04-09T09:46:07.945Z</time></trkpt><trkpt lat="44.2198417" lon="11.1322967"><ele>612.6666666666666</ele><time>2026-04-09T09:46:08.945Z</time></trkpt><trkpt lat="44.2199317" lon="11.1323033"><ele>614.3333333333333</ele><time>2026-04-09T09:46:09.945Z</time></trkpt><trkpt lat="44.2200067" lon="11.1322767"><ele>616.0</ele><time>2026-04-09T09:46:10.945Z</time></trkpt><trkpt lat="44.2200733" lon="11.1322317"><ele>617.6666666666666</ele><time>2026-04-09T09:46:11.944Z</time></trkpt><trkpt lat="44.2201417" lon="11.1321533"><ele>619.3333333333334</ele><time>2026-04-09T09:46:12.944Z</time></trkpt><trkpt lat="44.2202033" lon="11.1320433"><ele>621.0</ele><time>2026-04-09T09:46:13.944Z</time></trkpt><trkpt lat="44.22027" lon="11.1319167"><ele>621.0</ele><time>2026-04-09T09:46:14.944Z</time></trkpt><trkpt lat="44.2203267" lon="11.1317917"><ele>621.0</ele><time>2026-04-09T09:46:15.944Z</time></trkpt><trkpt lat="44.2203767" lon="11.1316817"><ele>621.0</ele><time>2026-04-09T09:46:16.944Z</time></trkpt><trkpt lat="44.2204233" lon="11.1315783"><ele>621.0</ele><time>2026-04-09T09:46:17.944Z</time></trkpt><trkpt lat="44.2204533" lon="11.1314733"><ele>621.0</ele><time>2026-04-09T09:46:18.944Z</time></trkpt><trkpt lat="44.2204633" lon="11.131365"><ele>621.0</ele><time>2026-04-09T09:46:19.944Z</time></trkpt><trkpt lat="44.22045" lon="11.1312583"><ele>622.4</ele><time>2026-04-09T09:46:20.944Z</time></trkpt><trkpt lat="44.2203983" lon="11.1311467"><ele>623.8</ele><time>2026-04-09T09:46:21.945Z</time></trkpt><trkpt lat="44.2203167" lon="11.1310433"><ele>625.1999999999999</ele><time>2026-04-09T09:46:22.944Z</time></trkpt><trkpt lat="44.220225" lon="11.1309383"><ele>626.6</ele><time>2026-04-09T09:46:23.944Z</time></trkpt><trkpt lat="44.2201367" lon="11.1308317"><ele>628.0</ele><time>2026-04-09T09:46:24.944Z</time></trkpt><trkpt lat="44.2200783" lon="11.13072"><ele>629.25</ele><time>2026-04-09T09:46:25.944Z</time></trkpt><trkpt lat="44.2200617" lon="11.1305833"><ele>630.5</ele><time>2026-04-09T09:46:26.945Z</time></trkpt><trkpt lat="44.2200717" lon="11.1304283"><ele>631.75</ele><time>2026-04-09T09:46:27.945Z</time></trkpt><trkpt lat="44.2200833" lon="11.1302667"><ele>633.0</ele><time>2026-04-09T09:46:28.944Z</time></trkpt><trkpt lat="44.2201033" lon="11.1300917"><ele>633.0</ele><time>2026-04-09T09:46:29.944Z</time></trkpt><trkpt lat="44.220135" lon="11.1299017"><ele>633.0</ele><time>2026-04-09T09:46:30.944Z</time></trkpt><trkpt lat="44.2201633" lon="11.1297"><ele>633.0</ele><time>2026-04-09T09:46:31.944Z</time></trkpt><trkpt lat="44.220195" lon="11.1295"><ele>633.0</ele><time>2026-04-09T09:46:32.944Z</time></trkpt><trkpt lat="44.2202267" lon="11.129295"><ele>635.0</ele><time>2026-04-09T09:46:33.944Z</time></trkpt><trkpt lat="44.2202617" lon="11.1290867"><ele>637.0</ele><time>2026-04-09T09:46:34.944Z</time></trkpt><trkpt lat="44.2203" lon="11.1288767"><ele>639.0</ele><time>2026-04-09T09:46:35.944Z</time></trkpt><trkpt lat="44.220335" lon="11.1286683"><ele>641.5</ele><time>2026-04-09T09:46:36.944Z</time></trkpt><trkpt lat="44.220365" lon="11.1284733"><ele>644.0</ele><time>2026-04-09T09:46:37.944Z</time></trkpt><trkpt lat="44.2203983" lon="11.1282983"><ele>646.5</ele><time>2026-04-09T09:46:38.944Z</time></trkpt><trkpt lat="44.2204483" lon="11.12814"><ele>649.0</ele><time>2026-04-09T09:46:39.944Z</time></trkpt><trkpt lat="44.2205217" lon="11.128"><ele>650.0</ele><time>2026-04-09T09:46:40.944Z</time></trkpt><trkpt lat="44.22061" lon="11.1278783"><ele>651.0</ele><time>2026-04-09T09:46:41.944Z</time></trkpt><trkpt lat="44.2207117" lon="11.127765"><ele>652.0</ele><time>2026-04-09T09:46:42.944Z</time></trkpt><trkpt lat="44.2208067" lon="11.12765"><ele>653.0</ele><time>2026-04-09T09:46:43.944Z</time></trkpt><trkpt lat="44.2208933" lon="11.12753"><ele>653.0</ele><time>2026-04-09T09:46:44.945Z</time></trkpt><trkpt lat="44.22097" lon="11.12741"><ele>653.0</ele><time>2026-04-09T09:46:45.945Z</time></trkpt><trkpt lat="44.2210467" lon="11.1272917"><ele>653.0</ele><time>2026-04-09T09:46:46.944Z</time></trkpt><trkpt lat="44.2211283" lon="11.1271883"><ele>653.0</ele><time>2026-04-09T09:46:47.944Z</time></trkpt><trkpt lat="44.22122" lon="11.1271017"><ele>655.5999999999999</ele><time>2026-04-09T09:46:48.945Z</time></trkpt><trkpt lat="44.2213217" lon="11.1270467"><ele>658.1999999999999</ele><time>2026-04-09T09:46:49.944Z</time></trkpt><trkpt lat="44.2214283" lon="11.1270167"><ele>660.8</ele><time>2026-04-09T09:46:50.944Z</time></trkpt><trkpt lat="44.2215317" lon="11.127005"><ele>663.4</ele><time>2026-04-09T09:46:51.945Z</time></trkpt><trkpt lat="44.2216283" lon="11.1269883"><ele>666.0</ele><time>2026-04-09T09:46:52.944Z</time></trkpt><trkpt lat="44.2217217" lon="11.126945"><ele>666.1999999999999</ele><time>2026-04-09T09:46:53.944Z</time></trkpt><trkpt lat="44.2218117" lon="11.126865"><ele>666.4</ele><time>2026-04-09T09:46:54.944Z</time></trkpt><trkpt lat="44.2218967" lon="11.12676"><ele>666.6</ele><time>2026-04-09T09:46:55.944Z</time></trkpt><trkpt lat="44.2219583" lon="11.126645"><ele>666.8</ele><time>2026-04-09T09:46:56.944Z</time></trkpt><trkpt lat="44.2220017" lon="11.1265283"><ele>667.0</ele><time>2026-04-09T09:46:57.944Z</time></trkpt><trkpt lat="44.2220283" lon="11.1264167"><ele>670.6</ele><time>2026-04-09T09:46:58.944Z</time></trkpt><trkpt lat="44.22204" lon="11.1262967"><ele>674.2</ele><time>2026-04-09T09:46:59.944Z</time></trkpt><trkpt lat="44.2220383" lon="11.1261667"><ele>677.8</ele><time>2026-04-09T09:47:00.945Z</time></trkpt><trkpt lat="44.2220583" lon="11.1260233"><ele>681.4</ele><time>2026-04-09T09:47:01.944Z</time></trkpt><trkpt lat="44.2220883" lon="11.12588"><ele>685.0</ele><time>2026-04-09T09:47:02.944Z</time></trkpt><trkpt lat="44.2221483" lon="11.125745"><ele>684.5</ele><time>2026-04-09T09:47:03.944Z</time></trkpt><trkpt lat="44.2222133" lon="11.12561"><ele>684.0</ele><time>2026-04-09T09:47:04.945Z</time></trkpt><trkpt lat="44.222285" lon="11.1254733"><ele>683.5</ele><time>2026-04-09T09:47:05.944Z</time></trkpt><trkpt lat="44.2223583" lon="11.1253283"><ele>683.0</ele><time>2026-04-09T09:47:06.944Z</time></trkpt><trkpt lat="44.222435" lon="11.1251717"><ele>683.0</ele><time>2026-04-09T09:47:07.944Z</time></trkpt><trkpt lat="44.2225167" lon="11.1250183"><ele>683.0</ele><time>2026-04-09T09:47:08.944Z</time></trkpt><trkpt lat="44.222605" lon="11.1248717"><ele>683.0</ele><time>2026-04-09T09:47:09.945Z</time></trkpt><trkpt lat="44.2226933" lon="11.12473"><ele>683.0</ele><time>2026-04-09T09:47:10.944Z</time></trkpt><trkpt lat="44.2227817" lon="11.1245983"><ele>688.0</ele><time>2026-04-09T09:47:11.945Z</time></trkpt><trkpt lat="44.2228733" lon="11.124485"><ele>693.0</ele><time>2026-04-09T09:47:12.944Z</time></trkpt><trkpt lat="44.222965" lon="11.1243767"><ele>698.0</ele><time>2026-04-09T09:47:13.945Z</time></trkpt><trkpt lat="44.2230617" lon="11.12427"><ele>703.0</ele><time>2026-04-09T09:47:14.944Z</time></trkpt><trkpt lat="44.2231467" lon="11.1241783"><ele>703.5999999999999</ele><time>2026-04-09T09:47:15.944Z</time></trkpt><trkpt lat="44.2232283" lon="11.1241033"><ele>704.1999999999999</ele><time>2026-04-09T09:47:16.944Z</time></trkpt><trkpt lat="44.223305" lon="11.124035"><ele>704.8</ele><time>2026-04-09T09:47:17.945Z</time></trkpt><trkpt lat="44.223385" lon="11.1239683"><ele>705.4</ele><time>2026-04-09T09:47:18.944Z</time></trkpt><trkpt lat="44.2234683" lon="11.1239017"><ele>706.0</ele><time>2026-04-09T09:47:19.944Z</time></trkpt><trkpt lat="44.2235517" lon="11.1238383"><ele>706.0</ele><time>2026-04-09T09:47:20.944Z</time></trkpt><trkpt lat="44.223635" lon="11.123775"><ele>706.0</ele><time>2026-04-09T09:47:21.944Z</time></trkpt><trkpt lat="44.2237117" lon="11.1237117"><ele>706.0</ele><time>2026-04-09T09:47:22.944Z</time></trkpt><trkpt lat="44.223785" lon="11.1236533"><ele>706.0</ele><time>2026-04-09T09:47:23.944Z</time></trkpt><trkpt lat="44.223855" lon="11.1236017"><ele>706.0</ele><time>2026-04-09T09:47:24.945Z</time></trkpt><trkpt lat="44.2239183" lon="11.12356"><ele>706.0</ele><time>2026-04-09T09:47:25.945Z</time></trkpt><trkpt lat="44.22401" lon="11.1234733"><ele>704.0</ele><time>2026-04-09T09:47:27.944Z</time></trkpt><trkpt lat="44.2241133" lon="11.12342"><ele>702.0</ele><time>2026-04-09T09:47:29.944Z</time></trkpt><trkpt lat="44.2242017" lon="11.1233567"><ele>700.0</ele><time>2026-04-09T09:47:31.944Z</time></trkpt><trkpt lat="44.2242417" lon="11.1232567"><ele>698.0</ele><time>2026-04-09T09:47:33.944Z</time></trkpt><trkpt lat="44.22422" lon="11.123145"><ele>696.0</ele><time>2026-04-09T09:47:35.944Z</time></trkpt><trkpt lat="44.224135" lon="11.123035"><ele>696.0</ele><time>2026-04-09T09:47:37.944Z</time></trkpt><trkpt lat="44.2240767" lon="11.12298"><ele>696.0</ele><time>2026-04-09T09:47:38.945Z</time></trkpt><trkpt lat="44.224015" lon="11.1229367"><ele>696.0</ele><time>2026-04-09T09:47:39.944Z</time></trkpt><trkpt lat="44.223955" lon="11.1229017"><ele>696.0</ele><time>2026-04-09T09:47:40.944Z</time></trkpt><trkpt lat="44.2238833" lon="11.122865"><ele>696.0</ele><time>2026-04-09T09:47:41.944Z</time></trkpt><trkpt lat="44.2238017" lon="11.1228283"><ele>696.0</ele><time>2026-04-09T09:47:42.944Z</time></trkpt><trkpt lat="44.2237283" lon="11.1227933"><ele>696.0</ele><time>2026-04-09T09:47:43.944Z</time></trkpt><trkpt lat="44.2236533" lon="11.122755"><ele>696.0</ele><time>2026-04-09T09:47:44.944Z</time></trkpt><trkpt lat="44.2235767" lon="11.1226967"><ele>696.0</ele><time>2026-04-09T09:47:45.945Z</time></trkpt><trkpt lat="44.223505" lon="11.1226367"><ele>696.0</ele><time>2026-04-09T09:47:46.944Z</time></trkpt><trkpt lat="44.2234317" lon="11.1225617"><ele>696.0</ele><time>2026-04-09T09:47:47.944Z</time></trkpt><trkpt lat="44.223365" lon="11.12248"><ele>696.0</ele><time>2026-04-09T09:47:48.944Z</time></trkpt><trkpt lat="44.2233067" lon="11.1223767"><ele>696.0</ele><time>2026-04-09T09:47:49.944Z</time></trkpt><trkpt lat="44.2232533" lon="11.1222783"><ele>695.5999999999999</ele><time>2026-04-09T09:47:50.945Z</time></trkpt><trkpt lat="44.2232133" lon="11.1221733"><ele>695.2</ele><time>2026-04-09T09:47:51.944Z</time></trkpt><trkpt lat="44.2231867" lon="11.1220533"><ele>694.8</ele><time>2026-04-09T09:47:52.944Z</time></trkpt><trkpt lat="44.2231833" lon="11.1219317"><ele>694.4000000000001</ele><time>2026-04-09T09:47:53.944Z</time></trkpt><trkpt lat="44.2232067" lon="11.1218017"><ele>694.0</ele><time>2026-04-09T09:47:54.945Z</time></trkpt><trkpt lat="44.2232483" lon="11.1216733"><ele>694.8000000000001</ele><time>2026-04-09T09:47:55.944Z</time></trkpt><trkpt lat="44.2233017" lon="11.1215533"><ele>695.6</ele><time>2026-04-09T09:47:56.944Z</time></trkpt><trkpt lat="44.2233633" lon="11.1214417"><ele>696.4</ele><time>2026-04-09T09:47:57.944Z</time></trkpt><trkpt lat="44.2234433" lon="11.1213567"><ele>697.2</ele><time>2026-04-09T09:47:58.944Z</time></trkpt><trkpt lat="44.223555" lon="11.1213"><ele>698.0</ele><time>2026-04-09T09:47:59.944Z</time></trkpt><trkpt lat="44.223675" lon="11.1212517"><ele>698.0</ele><time>2026-04-09T09:48:00.944Z</time></trkpt><trkpt lat="44.2238" lon="11.1212117"><ele>698.0</ele><time>2026-04-09T09:48:01.944Z</time></trkpt><trkpt lat="44.2239233" lon="11.121175"><ele>698.0</ele><time>2026-04-09T09:48:02.945Z</time></trkpt><trkpt lat="44.2240233" lon="11.12112"><ele>698.0</ele><time>2026-04-09T09:48:03.944Z</time></trkpt><trkpt lat="44.2241067" lon="11.1210567"><ele>695.4</ele><time>2026-04-09T09:48:04.944Z</time></trkpt><trkpt lat="44.2241767" lon="11.1209633"><ele>692.8</ele><time>2026-04-09T09:48:05.945Z</time></trkpt><trkpt lat="44.2242383" lon="11.120845"><ele>690.2</ele><time>2026-04-09T09:48:06.944Z</time></trkpt><trkpt lat="44.2242933" lon="11.1207067"><ele>687.6</ele><time>2026-04-09T09:48:07.944Z</time></trkpt><trkpt lat="44.2243217" lon="11.120575"><ele>685.0</ele><time>2026-04-09T09:48:08.944Z</time></trkpt><trkpt lat="44.2243367" lon="11.1204417"><ele>684.2</ele><time>2026-04-09T09:48:09.944Z</time></trkpt><trkpt lat="44.22433" lon="11.1203117"><ele>683.4</ele><time>2026-04-09T09:48:10.944Z</time></trkpt><trkpt lat="44.2242867" lon="11.1202033"><ele>682.5999999999999</ele><time>2026-04-09T09:48:11.944Z</time></trkpt><trkpt lat="44.22421" lon="11.1201017"><ele>681.8</ele><time>2026-04-09T09:48:12.944Z</time></trkpt><trkpt lat="44.2240917" lon="11.120015"><ele>681.0</ele><time>2026-04-09T09:48:13.945Z</time></trkpt><trkpt lat="44.223965" lon="11.1199167"><ele>678.6666666666666</ele><time>2026-04-09T09:48:14.944Z</time></trkpt><trkpt lat="44.22384" lon="11.1198133"><ele>676.3333333333333</ele><time>2026-04-09T09:48:15.944Z</time></trkpt><trkpt lat="44.2237033" lon="11.1197217"><ele>674.0</ele><time>2026-04-09T09:48:16.944Z</time></trkpt><trkpt lat="44.2235567" lon="11.1196417"><ele>674.0</ele><time>2026-04-09T09:48:17.945Z</time></trkpt><trkpt lat="44.22341" lon="11.11957"><ele>674.0</ele><time>2026-04-09T09:48:18.944Z</time></trkpt><trkpt lat="44.223275" lon="11.1195"><ele>674.0</ele><time>2026-04-09T09:48:19.944Z</time></trkpt><trkpt lat="44.2231417" lon="11.119425"><ele>674.0</ele><time>2026-04-09T09:48:20.944Z</time></trkpt><trkpt lat="44.2230167" lon="11.1193383"><ele>676.25</ele><time>2026-04-09T09:48:21.944Z</time></trkpt><trkpt lat="44.2228967" lon="11.119245"><ele>678.5</ele><time>2026-04-09T09:48:22.944Z</time></trkpt><trkpt lat="44.2227583" lon="11.1191683"><ele>680.75</ele><time>2026-04-09T09:48:23.945Z</time></trkpt><trkpt lat="44.2226133" lon="11.119115"><ele>683.0</ele><time>2026-04-09T09:48:24.944Z</time></trkpt><trkpt lat="44.2224833" lon="11.1190717"><ele>683.75</ele><time>2026-04-09T09:48:25.944Z</time></trkpt><trkpt lat="44.2223683" lon="11.1190183"><ele>684.5</ele><time>2026-04-09T09:48:26.944Z</time></trkpt><trkpt lat="44.2222733" lon="11.11894"><ele>685.25</ele><time>2026-04-09T09:48:27.944Z</time></trkpt><trkpt lat="44.2221933" lon="11.1188367"><ele>686.0</ele><time>2026-04-09T09:48:28.944Z</time></trkpt><trkpt lat="44.2221183" lon="11.11871"><ele>686.0</ele><time>2026-04-09T09:48:29.944Z</time></trkpt><trkpt lat="44.2220433" lon="11.1185717"><ele>686.0</ele><time>2026-04-09T09:48:30.944Z</time></trkpt><trkpt lat="44.22196" lon="11.1184283"><ele>686.0</ele><time>2026-04-09T09:48:31.944Z</time></trkpt><trkpt lat="44.22188" lon="11.1182833"><ele>686.0</ele><time>2026-04-09T09:48:32.944Z</time></trkpt><trkpt lat="44.221795" lon="11.11814"><ele>684.75</ele><time>2026-04-09T09:48:33.944Z</time></trkpt><trkpt lat="44.2217083" lon="11.1179967"><ele>683.5</ele><time>2026-04-09T09:48:34.944Z</time></trkpt><trkpt lat="44.221605" lon="11.1178683"><ele>682.25</ele><time>2026-04-09T09:48:35.944Z</time></trkpt><trkpt lat="44.2214917" lon="11.1177483"><ele>681.0</ele><time>2026-04-09T09:48:36.944Z</time></trkpt><trkpt lat="44.2213733" lon="11.1176367"><ele>681.0</ele><time>2026-04-09T09:48:37.944Z</time></trkpt><trkpt lat="44.2212633" lon="11.1175233"><ele>681.0</ele><time>2026-04-09T09:48:38.944Z</time></trkpt><trkpt lat="44.22116" lon="11.1174167"><ele>681.0</ele><time>2026-04-09T09:48:39.944Z</time></trkpt><trkpt lat="44.221065" lon="11.1173217"><ele>681.0</ele><time>2026-04-09T09:48:40.945Z</time></trkpt><trkpt lat="44.22098" lon="11.1172533"><ele>678.1999999999999</ele><time>2026-04-09T09:48:41.944Z</time></trkpt><trkpt lat="44.2208983" lon="11.1172017"><ele>675.4</ele><time>2026-04-09T09:48:42.944Z</time></trkpt><trkpt lat="44.22081" lon="11.11719"><ele>672.6</ele><time>2026-04-09T09:48:43.944Z</time></trkpt><trkpt lat="44.2207217" lon="11.11721"><ele>669.8</ele><time>2026-04-09T09:48:44.944Z</time></trkpt><trkpt lat="44.22063" lon="11.117255"><ele>667.0</ele><time>2026-04-09T09:48:45.944Z</time></trkpt><trkpt lat="44.220535" lon="11.1173"><ele>667.0</ele><time>2026-04-09T09:48:46.944Z</time></trkpt><trkpt lat="44.2204283" lon="11.117325"><ele>667.0</ele><time>2026-04-09T09:48:47.945Z</time></trkpt><trkpt lat="44.22031" lon="11.1173267"><ele>667.0</ele><time>2026-04-09T09:48:48.944Z</time></trkpt><trkpt lat="44.2201917" lon="11.1172967"><ele>667.0</ele><time>2026-04-09T09:48:49.944Z</time></trkpt><trkpt lat="44.220065" lon="11.117245"><ele>667.0</ele><time>2026-04-09T09:48:50.945Z</time></trkpt><trkpt lat="44.21993" lon="11.117185"><ele>667.0</ele><time>2026-04-09T09:48:51.944Z</time></trkpt><trkpt lat="44.219795" lon="11.1171317"><ele>667.0</ele><time>2026-04-09T09:48:52.945Z</time></trkpt><trkpt lat="44.2196533" lon="11.1170917"><ele>667.0</ele><time>2026-04-09T09:48:53.944Z</time></trkpt><trkpt lat="44.21951" lon="11.1170667"><ele>667.0</ele><time>2026-04-09T09:48:54.944Z</time></trkpt><trkpt lat="44.2193683" lon="11.11704"><ele>667.0</ele><time>2026-04-09T09:48:55.944Z</time></trkpt><trkpt lat="44.2192267" lon="11.1170317"><ele>667.0</ele><time>2026-04-09T09:48:56.944Z</time></trkpt><trkpt lat="44.219085" lon="11.1170283"><ele>667.0</ele><time>2026-04-09T09:48:57.944Z</time></trkpt><trkpt lat="44.218955" lon="11.1170183"><ele>667.75</ele><time>2026-04-09T09:48:58.944Z</time></trkpt><trkpt lat="44.2188317" lon="11.1169833"><ele>668.5</ele><time>2026-04-09T09:48:59.944Z</time></trkpt><trkpt lat="44.2187083" lon="11.1169267"><ele>669.25</ele><time>2026-04-09T09:49:00.944Z</time></trkpt><trkpt lat="44.2185917" lon="11.116835"><ele>670.0</ele><time>2026-04-09T09:49:01.944Z</time></trkpt><trkpt lat="44.21847" lon="11.1167517"><ele>670.0</ele><time>2026-04-09T09:49:02.944Z</time></trkpt><trkpt lat="44.218345" lon="11.1166817"><ele>670.0</ele><time>2026-04-09T09:49:03.944Z</time></trkpt><trkpt lat="44.2182117" lon="11.1166333"><ele>670.0</ele><time>2026-04-09T09:49:04.944Z</time></trkpt><trkpt lat="44.2180733" lon="11.1166017"><ele>670.0</ele><time>2026-04-09T09:49:05.944Z</time></trkpt><trkpt lat="44.2179383" lon="11.1165817"><ele>667.0</ele><time>2026-04-09T09:49:06.944Z</time></trkpt><trkpt lat="44.217815" lon="11.116555"><ele>664.0</ele><time>2026-04-09T09:49:07.944Z</time></trkpt><trkpt lat="44.2176917" lon="11.1165217"><ele>661.0</ele><time>2026-04-09T09:49:08.944Z</time></trkpt><trkpt lat="44.2175683" lon="11.1164733"><ele>658.0</ele><time>2026-04-09T09:49:09.944Z</time></trkpt><trkpt lat="44.2174417" lon="11.1164233"><ele>660.5</ele><time>2026-04-09T09:49:10.945Z</time></trkpt><trkpt lat="44.2173117" lon="11.1163717"><ele>663.0</ele><time>2026-04-09T09:49:11.945Z</time></trkpt><trkpt lat="44.2171867" lon="11.116305"><ele>665.5</ele><time>2026-04-09T09:49:12.944Z</time></trkpt><trkpt lat="44.2170733" lon="11.1162183"><ele>668.0</ele><time>2026-04-09T09:49:13.944Z</time></trkpt><trkpt lat="44.2169667" lon="11.116115"><ele>668.0</ele><time>2026-04-09T09:49:14.945Z</time></trkpt><trkpt lat="44.2168667" lon="11.11598"><ele>668.0</ele><time>2026-04-09T09:49:15.944Z</time></trkpt><trkpt lat="44.216765" lon="11.11584"><ele>668.0</ele><time>2026-04-09T09:49:16.944Z</time></trkpt><trkpt lat="44.2166717" lon="11.115705"><ele>668.0</ele><time>2026-04-09T09:49:17.945Z</time></trkpt><trkpt lat="44.216595" lon="11.11557"><ele>666.5999999999999</ele><time>2026-04-09T09:49:18.944Z</time></trkpt><trkpt lat="44.2165417" lon="11.1154483"><ele>665.1999999999999</ele><time>2026-04-09T09:49:19.944Z</time></trkpt><trkpt lat="44.2164867" lon="11.1153317"><ele>663.8</ele><time>2026-04-09T09:49:20.944Z</time></trkpt><trkpt lat="44.216435" lon="11.115225"><ele>662.4</ele><time>2026-04-09T09:49:21.944Z</time></trkpt><trkpt lat="44.21637" lon="11.115145"><ele>661.0</ele><time>2026-04-09T09:49:22.944Z</time></trkpt><trkpt lat="44.2162817" lon="11.1151117"><ele>661.0</ele><time>2026-04-09T09:49:23.944Z</time></trkpt><trkpt lat="44.2161833" lon="11.1150983"><ele>661.0</ele><time>2026-04-09T09:49:24.945Z</time></trkpt><trkpt lat="44.2160783" lon="11.11508"><ele>661.0</ele><time>2026-04-09T09:49:25.944Z</time></trkpt><trkpt lat="44.2159767" lon="11.115025"><ele>661.0</ele><time>2026-04-09T09:49:26.944Z</time></trkpt><trkpt lat="44.215875" lon="11.1149383"><ele>661.0</ele><time>2026-04-09T09:49:27.944Z</time></trkpt><trkpt lat="44.21578" lon="11.1148217"><ele>660.25</ele><time>2026-04-09T09:49:28.944Z</time></trkpt><trkpt lat="44.2156733" lon="11.1147067"><ele>659.5</ele><time>2026-04-09T09:49:29.944Z</time></trkpt><trkpt lat="44.2155617" lon="11.114585"><ele>658.75</ele><time>2026-04-09T09:49:30.944Z</time></trkpt><trkpt lat="44.2154617" lon="11.114455"><ele>658.0</ele><time>2026-04-09T09:49:31.944Z</time></trkpt><trkpt lat="44.2153767" lon="11.11432"><ele>662.0</ele><time>2026-04-09T09:49:32.944Z</time></trkpt><trkpt lat="44.2153117" lon="11.11418"><ele>666.0</ele><time>2026-04-09T09:49:33.944Z</time></trkpt><trkpt lat="44.2152667" lon="11.1140283"><ele>670.0</ele><time>2026-04-09T09:49:34.944Z</time></trkpt><trkpt lat="44.215235" lon="11.1138633"><ele>674.0</ele><time>2026-04-09T09:49:35.944Z</time></trkpt><trkpt lat="44.2152167" lon="11.1136933"><ele>674.8000000000001</ele><time>2026-04-09T09:49:36.944Z</time></trkpt><trkpt lat="44.2152083" lon="11.1135367"><ele>675.6</ele><time>2026-04-09T09:49:37.945Z</time></trkpt><trkpt lat="44.2152167" lon="11.1133967"><ele>676.4</ele><time>2026-04-09T09:49:38.944Z</time></trkpt><trkpt lat="44.2152517" lon="11.1132717"><ele>677.2</ele><time>2026-04-09T09:49:39.944Z</time></trkpt><trkpt lat="44.2153133" lon="11.1131617"><ele>678.0</ele><time>2026-04-09T09:49:40.944Z</time></trkpt><trkpt lat="44.2153833" lon="11.1130633"><ele>678.2</ele><time>2026-04-09T09:49:41.944Z</time></trkpt><trkpt lat="44.2154433" lon="11.11296"><ele>678.4</ele><time>2026-04-09T09:49:42.944Z</time></trkpt><trkpt lat="44.2154817" lon="11.11284"><ele>678.6</ele><time>2026-04-09T09:49:43.945Z</time></trkpt><trkpt lat="44.2155" lon="11.1127033"><ele>678.8000000000001</ele><time>2026-04-09T09:49:44.945Z</time></trkpt><trkpt lat="44.2154833" lon="11.1125533"><ele>679.0</ele><time>2026-04-09T09:49:45.944Z</time></trkpt><trkpt lat="44.2154383" lon="11.1123917"><ele>678.0</ele><time>2026-04-09T09:49:46.944Z</time></trkpt><trkpt lat="44.2153883" lon="11.1122317"><ele>677.0</ele><time>2026-04-09T09:49:47.944Z</time></trkpt><trkpt lat="44.2153333" lon="11.1120783"><ele>676.0</ele><time>2026-04-09T09:49:48.944Z</time></trkpt><trkpt lat="44.215295" lon="11.1119417"><ele>675.0</ele><time>2026-04-09T09:49:49.944Z</time></trkpt><trkpt lat="44.2152717" lon="11.1118183"><ele>674.0</ele><time>2026-04-09T09:49:50.944Z</time></trkpt><trkpt lat="44.2152633" lon="11.1117017"><ele>674.0</ele><time>2026-04-09T09:49:51.944Z</time></trkpt><trkpt lat="44.21526" lon="11.1116033"><ele>674.0</ele><time>2026-04-09T09:49:52.944Z</time></trkpt><trkpt lat="44.2152833" lon="11.1114583"><ele>674.0</ele><time>2026-04-09T09:49:54.945Z</time></trkpt><trkpt lat="44.2153167" lon="11.1113383"><ele>674.0</ele><time>2026-04-09T09:49:56.944Z</time></trkpt><trkpt lat="44.2153417" lon="11.1112033"><ele>674.0</ele><time>2026-04-09T09:49:58.944Z</time></trkpt><trkpt lat="44.2153717" lon="11.1110867"><ele>672.5</ele><time>2026-04-09T09:50:00.945Z</time></trkpt><trkpt lat="44.2154017" lon="11.1109817"><ele>671.0</ele><time>2026-04-09T09:50:03.944Z</time></trkpt><trkpt lat="44.215365" lon="11.110895"><ele>669.5</ele><time>2026-04-09T09:50:08.944Z</time></trkpt><trkpt lat="44.21534" lon="11.110995"><ele>668.0</ele><time>2026-04-09T09:50:11.944Z</time></trkpt><trkpt lat="44.2153317" lon="11.1111667"><ele>666.5</ele><time>2026-04-09T09:50:13.944Z</time></trkpt><trkpt lat="44.2153067" lon="11.1112767"><ele>665.0</ele><time>2026-04-09T09:50:14.944Z</time></trkpt><trkpt lat="44.21528" lon="11.1113967"><ele>665.0</ele><time>2026-04-09T09:50:15.944Z</time></trkpt><trkpt lat="44.2152517" lon="11.1115283"><ele>665.0</ele><time>2026-04-09T09:50:16.945Z</time></trkpt><trkpt lat="44.21524" lon="11.111655"><ele>665.0</ele><time>2026-04-09T09:50:17.944Z</time></trkpt><trkpt lat="44.215245" lon="11.1117917"><ele>665.0</ele><time>2026-04-09T09:50:18.944Z</time></trkpt><trkpt lat="44.215265" lon="11.1119217"><ele>665.0</ele><time>2026-04-09T09:50:19.944Z</time></trkpt><trkpt lat="44.2152967" lon="11.1120433"><ele>666.5</ele><time>2026-04-09T09:50:20.944Z</time></trkpt><trkpt lat="44.2153317" lon="11.112165"><ele>668.0</ele><time>2026-04-09T09:50:21.944Z</time></trkpt><trkpt lat="44.21537" lon="11.1122767"><ele>669.5</ele><time>2026-04-09T09:50:22.944Z</time></trkpt><trkpt lat="44.2154083" lon="11.11238"><ele>671.0</ele><time>2026-04-09T09:50:23.944Z</time></trkpt><trkpt lat="44.215445" lon="11.112475"><ele>672.5</ele><time>2026-04-09T09:50:24.945Z</time></trkpt><trkpt lat="44.2154783" lon="11.1125683"><ele>674.0</ele><time>2026-04-09T09:50:25.944Z</time></trkpt><trkpt lat="44.215495" lon="11.1126633"><ele>674.8333333333333</ele><time>2026-04-09T09:50:26.944Z</time></trkpt><trkpt lat="44.2154967" lon="11.112765"><ele>675.6666666666666</ele><time>2026-04-09T09:50:27.944Z</time></trkpt><trkpt lat="44.2154817" lon="11.1128717"><ele>676.5</ele><time>2026-04-09T09:50:28.944Z</time></trkpt><trkpt lat="44.215445" lon="11.1129717"><ele>677.3333333333334</ele><time>2026-04-09T09:50:29.945Z</time></trkpt><trkpt lat="44.21539" lon="11.1130617"><ele>678.1666666666667</ele><time>2026-04-09T09:50:30.944Z</time></trkpt><trkpt lat="44.2153233" lon="11.113145"><ele>679.0</ele><time>2026-04-09T09:50:31.945Z</time></trkpt><trkpt lat="44.2152633" lon="11.1132233"><ele>678.8333333333334</ele><time>2026-04-09T09:50:32.944Z</time></trkpt><trkpt lat="44.21522" lon="11.1133133"><ele>678.6666666666667</ele><time>2026-04-09T09:50:33.944Z</time></trkpt><trkpt lat="44.2151967" lon="11.1134117"><ele>678.5</ele><time>2026-04-09T09:50:34.944Z</time></trkpt><trkpt lat="44.2151917" lon="11.1135133"><ele>678.3333333333334</ele><time>2026-04-09T09:50:35.944Z</time></trkpt><trkpt lat="44.2151983" lon="11.1136033"><ele>678.1666666666666</ele><time>2026-04-09T09:50:36.944Z</time></trkpt><trkpt lat="44.21522" lon="11.11374"><ele>678.0</ele><time>2026-04-09T09:50:38.944Z</time></trkpt><trkpt lat="44.2152167" lon="11.1138367"><ele>678.0</ele><time>2026-04-09T09:50:41.944Z</time></trkpt><trkpt lat="44.215165" lon="11.113775"><ele>678.0</ele><time>2026-04-09T09:50:51.945Z</time></trkpt><trkpt lat="44.2151583" lon="11.113685"><ele>678.0</ele><time>2026-04-09T09:50:53.944Z</time></trkpt><trkpt lat="44.215145" lon="11.1135883"><ele>678.0</ele><time>2026-04-09T09:50:55.944Z</time></trkpt><trkpt lat="44.2151283" lon="11.1134583"><ele>678.0</ele><time>2026-04-09T09:50:57.944Z</time></trkpt><trkpt lat="44.215115" lon="11.113295"><ele>678.0</ele><time>2026-04-09T09:50:59.945Z</time></trkpt><trkpt lat="44.2151083" lon="11.1132033"><ele>678.1666666666666</ele><time>2026-04-09T09:51:00.944Z</time></trkpt><trkpt lat="44.2151033" lon="11.1131067"><ele>678.3333333333334</ele><time>2026-04-09T09:51:01.944Z</time></trkpt><trkpt lat="44.2151" lon="11.1130167"><ele>678.5</ele><time>2026-04-09T09:51:02.944Z</time></trkpt><trkpt lat="44.2151033" lon="11.1129283"><ele>678.6666666666667</ele><time>2026-04-09T09:51:03.944Z</time></trkpt><trkpt lat="44.215095" lon="11.11277"><ele>678.8333333333334</ele><time>2026-04-09T09:51:05.944Z</time></trkpt><trkpt lat="44.215055" lon="11.1126517"><ele>679.0</ele><time>2026-04-09T09:51:07.945Z</time></trkpt><trkpt lat="44.2149633" lon="11.11259"><ele>679.0</ele><time>2026-04-09T09:51:09.945Z</time></trkpt><trkpt lat="44.2148433" lon="11.1126"><ele>679.0</ele><time>2026-04-09T09:51:11.944Z</time></trkpt><trkpt lat="44.2147267" lon="11.1126283"><ele>679.0</ele><time>2026-04-09T09:51:13.944Z</time></trkpt><trkpt lat="44.2146017" lon="11.11262"><ele>679.0</ele><time>2026-04-09T09:51:15.945Z</time></trkpt><trkpt lat="44.2145283" lon="11.1126017"><ele>679.0</ele><time>2026-04-09T09:51:16.944Z</time></trkpt><trkpt lat="44.2144567" lon="11.11259"><ele>680.8333333333334</ele><time>2026-04-09T09:51:17.944Z</time></trkpt><trkpt lat="44.214385" lon="11.112575"><ele>682.6666666666667</ele><time>2026-04-09T09:51:18.944Z</time></trkpt><trkpt lat="44.2143233" lon="11.11255"><ele>684.5</ele><time>2026-04-09T09:51:19.944Z</time></trkpt><trkpt lat="44.214265" lon="11.1125117"><ele>686.3333333333334</ele><time>2026-04-09T09:51:20.944Z</time></trkpt><trkpt lat="44.2141617" lon="11.1124283"><ele>688.1666666666666</ele><time>2026-04-09T09:51:22.944Z</time></trkpt><trkpt lat="44.214065" lon="11.1123283"><ele>690.0</ele><time>2026-04-09T09:51:24.944Z</time></trkpt><trkpt lat="44.2139717" lon="11.112245"><ele>690.8</ele><time>2026-04-09T09:51:26.944Z</time></trkpt><trkpt lat="44.213845" lon="11.11221"><ele>691.6</ele><time>2026-04-09T09:51:28.944Z</time></trkpt><trkpt lat="44.213775" lon="11.1122083"><ele>692.4000000000001</ele><time>2026-04-09T09:51:29.944Z</time></trkpt><trkpt lat="44.2136967" lon="11.1122017"><ele>693.2</ele><time>2026-04-09T09:51:30.944Z</time></trkpt><trkpt lat="44.2136133" lon="11.1121883"><ele>694.0</ele><time>2026-04-09T09:51:31.945Z</time></trkpt><trkpt lat="44.213525" lon="11.1121733"><ele>694.0</ele><time>2026-04-09T09:51:32.944Z</time></trkpt><trkpt lat="44.21343" lon="11.1121533"><ele>694.0</ele><time>2026-04-09T09:51:33.945Z</time></trkpt><trkpt lat="44.2133417" lon="11.112135"><ele>694.0</ele><time>2026-04-09T09:51:34.944Z</time></trkpt><trkpt lat="44.2132567" lon="11.1121183"><ele>694.0</ele><time>2026-04-09T09:51:35.944Z</time></trkpt><trkpt lat="44.2131767" lon="11.1121017"><ele>694.0</ele><time>2026-04-09T09:51:36.945Z</time></trkpt><trkpt lat="44.213095" lon="11.1120667"><ele>694.0</ele><time>2026-04-09T09:51:37.944Z</time></trkpt><trkpt lat="44.21301" lon="11.112035"><ele>694.2</ele><time>2026-04-09T09:51:38.944Z</time></trkpt><trkpt lat="44.21292" lon="11.1120117"><ele>694.4000000000001</ele><time>2026-04-09T09:51:39.944Z</time></trkpt><trkpt lat="44.2128283" lon="11.112005"><ele>694.6</ele><time>2026-04-09T09:51:40.944Z</time></trkpt><trkpt lat="44.2127367" lon="11.1120033"><ele>694.8</ele><time>2026-04-09T09:51:41.944Z</time></trkpt><trkpt lat="44.212645" lon="11.1120117"><ele>695.0</ele><time>2026-04-09T09:51:42.944Z</time></trkpt><trkpt lat="44.2125633" lon="11.1120383"><ele>695.0</ele><time>2026-04-09T09:51:43.944Z</time></trkpt><trkpt lat="44.2124833" lon="11.112085"><ele>695.0</ele><time>2026-04-09T09:51:44.944Z</time></trkpt><trkpt lat="44.2124017" lon="11.1121317"><ele>695.0</ele><time>2026-04-09T09:51:45.944Z</time></trkpt><trkpt lat="44.21232" lon="11.112175"><ele>695.0</ele><time>2026-04-09T09:51:46.945Z</time></trkpt><trkpt lat="44.2122383" lon="11.1122117"><ele>695.0</ele><time>2026-04-09T09:51:47.943Z</time></trkpt><trkpt lat="44.212155" lon="11.1122333"><ele>695.0</ele><time>2026-04-09T09:51:48.944Z</time></trkpt><trkpt lat="44.2120717" lon="11.1122417"><ele>696.3333333333333</ele><time>2026-04-09T09:51:49.943Z</time></trkpt><trkpt lat="44.2119917" lon="11.11225"><ele>697.6666666666666</ele><time>2026-04-09T09:51:50.943Z</time></trkpt><trkpt lat="44.211915" lon="11.11225"><ele>699.0</ele><time>2026-04-09T09:51:51.943Z</time></trkpt><trkpt lat="44.2118333" lon="11.1122417"><ele>700.3333333333334</ele><time>2026-04-09T09:51:52.943Z</time></trkpt><trkpt lat="44.211755" lon="11.11222"><ele>701.6666666666667</ele><time>2026-04-09T09:51:53.943Z</time></trkpt><trkpt lat="44.2116767" lon="11.112195"><ele>703.0</ele><time>2026-04-09T09:51:54.943Z</time></trkpt><trkpt lat="44.2116033" lon="11.112165"><ele>703.0</ele><time>2026-04-09T09:51:55.943Z</time></trkpt><trkpt lat="44.211535" lon="11.1121333"><ele>703.0</ele><time>2026-04-09T09:51:56.944Z</time></trkpt><trkpt lat="44.21147" lon="11.1121067"><ele>703.0</ele><time>2026-04-09T09:51:57.944Z</time></trkpt><trkpt lat="44.2114083" lon="11.11208"><ele>703.0</ele><time>2026-04-09T09:51:58.943Z</time></trkpt><trkpt lat="44.21129" lon="11.1120483"><ele>703.0</ele><time>2026-04-09T09:52:00.943Z</time></trkpt><trkpt lat="44.21118" lon="11.1120233"><ele>703.0</ele><time>2026-04-09T09:52:02.943Z</time></trkpt><trkpt lat="44.2110667" lon="11.1119867"><ele>706.25</ele><time>2026-04-09T09:52:04.944Z</time></trkpt><trkpt lat="44.2109483" lon="11.11196"><ele>709.5</ele><time>2026-04-09T09:52:06.943Z</time></trkpt><trkpt lat="44.210835" lon="11.1119217"><ele>712.75</ele><time>2026-04-09T09:52:08.943Z</time></trkpt><trkpt lat="44.21073" lon="11.1118883"><ele>716.0</ele><time>2026-04-09T09:52:10.943Z</time></trkpt><trkpt lat="44.210625" lon="11.11191"><ele>717.1999999999999</ele><time>2026-04-09T09:52:12.943Z</time></trkpt><trkpt lat="44.2105233" lon="11.11195"><ele>718.4</ele><time>2026-04-09T09:52:14.943Z</time></trkpt><trkpt lat="44.2104183" lon="11.1119483"><ele>719.6</ele><time>2026-04-09T09:52:16.943Z</time></trkpt><trkpt lat="44.21031" lon="11.11196"><ele>720.8</ele><time>2026-04-09T09:52:18.944Z</time></trkpt><trkpt lat="44.210205" lon="11.1119783"><ele>722.0</ele><time>2026-04-09T09:52:20.943Z</time></trkpt><trkpt lat="44.2100883" lon="11.112"><ele>722.0</ele><time>2026-04-09T09:52:22.943Z</time></trkpt><trkpt lat="44.2099733" lon="11.1120133"><ele>722.0</ele><time>2026-04-09T09:52:24.944Z</time></trkpt><trkpt lat="44.20991" lon="11.1120233"><ele>722.0</ele><time>2026-04-09T09:52:25.944Z</time></trkpt><trkpt lat="44.2098433" lon="11.112035"><ele>722.0</ele><time>2026-04-09T09:52:26.943Z</time></trkpt><trkpt lat="44.20973" lon="11.1120517"><ele>722.0</ele><time>2026-04-09T09:52:28.943Z</time></trkpt><trkpt lat="44.2096383" lon="11.1120717"><ele>722.6</ele><time>2026-04-09T09:52:30.943Z</time></trkpt><trkpt lat="44.2095467" lon="11.1120867"><ele>723.2</ele><time>2026-04-09T09:52:32.943Z</time></trkpt><trkpt lat="44.2094317" lon="11.1120933"><ele>723.8</ele><time>2026-04-09T09:52:34.943Z</time></trkpt><trkpt lat="44.2093417" lon="11.11208"><ele>724.4</ele><time>2026-04-09T09:52:36.943Z</time></trkpt><trkpt lat="44.209285" lon="11.1120183"><ele>725.0</ele><time>2026-04-09T09:52:38.944Z</time></trkpt><trkpt lat="44.2092717" lon="11.1119017"><ele>725.0</ele><time>2026-04-09T09:52:41.944Z</time></trkpt><trkpt lat="44.209235" lon="11.1118233"><ele>725.0</ele><time>2026-04-09T09:52:44.943Z</time></trkpt><trkpt lat="44.209215" lon="11.11173"><ele>725.0</ele><time>2026-04-09T09:52:46.943Z</time></trkpt><trkpt lat="44.2092067" lon="11.1116333"><ele>725.0</ele><time>2026-04-09T09:52:49.943Z</time></trkpt><trkpt lat="44.2092283" lon="11.11172"><ele>725.0</ele><time>2026-04-09T09:55:01.944Z</time></trkpt><trkpt lat="44.2092333" lon="11.11181"><ele>725.0</ele><time>2026-04-09T09:55:03.944Z</time></trkpt><trkpt lat="44.209255" lon="11.1119233"><ele>725.0</ele><time>2026-04-09T09:55:05.943Z</time></trkpt><trkpt lat="44.209295" lon="11.112015"><ele>725.0</ele><time>2026-04-09T09:55:07.943Z</time></trkpt><trkpt lat="44.20936" lon="11.1120783"><ele>725.0</ele><time>2026-04-09T09:55:09.943Z</time></trkpt><trkpt lat="44.2094383" lon="11.1120817"><ele>725.0</ele><time>2026-04-09T09:55:11.943Z</time></trkpt><trkpt lat="44.20951" lon="11.1120717"><ele>725.0</ele><time>2026-04-09T09:55:13.943Z</time></trkpt><trkpt lat="44.2095783" lon="11.1120733"><ele>725.0</ele><time>2026-04-09T09:55:15.943Z</time></trkpt><trkpt lat="44.209645" lon="11.1120667"><ele>725.0</ele><time>2026-04-09T09:55:17.944Z</time></trkpt><trkpt lat="44.2097183" lon="11.1120433"><ele>725.0</ele><time>2026-04-09T09:55:19.943Z</time></trkpt><trkpt lat="44.2097883" lon="11.1120217"><ele>724.5</ele><time>2026-04-09T09:55:21.943Z</time></trkpt><trkpt lat="44.2098617" lon="11.11201"><ele>724.0</ele><time>2026-04-09T09:55:23.943Z</time></trkpt><trkpt lat="44.2099467" lon="11.1119967"><ele>723.5</ele><time>2026-04-09T09:55:25.944Z</time></trkpt><trkpt lat="44.21004" lon="11.11198"><ele>723.0</ele><time>2026-04-09T09:55:27.944Z</time></trkpt><trkpt lat="44.2101267" lon="11.11198"><ele>722.5</ele><time>2026-04-09T09:55:29.943Z</time></trkpt><trkpt lat="44.21021" lon="11.1119833"><ele>722.0</ele><time>2026-04-09T09:55:31.943Z</time></trkpt><trkpt lat="44.2102817" lon="11.1119567"><ele>722.0</ele><time>2026-04-09T09:55:33.943Z</time></trkpt><trkpt lat="44.2103467" lon="11.1119367"><ele>722.0</ele><time>2026-04-09T09:55:35.944Z</time></trkpt><trkpt lat="44.2104367" lon="11.11193"><ele>722.0</ele><time>2026-04-09T09:55:38.943Z</time></trkpt><trkpt lat="44.2105" lon="11.11194"><ele>722.0</ele><time>2026-04-09T09:55:40.943Z</time></trkpt><trkpt lat="44.2105683" lon="11.1119433"><ele>722.0</ele><time>2026-04-09T09:55:42.943Z</time></trkpt><trkpt lat="44.2106467" lon="11.1119267"><ele>722.0</ele><time>2026-04-09T09:55:44.943Z</time></trkpt><trkpt lat="44.210725" lon="11.111905"><ele>722.0</ele><time>2026-04-09T09:55:46.944Z</time></trkpt><trkpt lat="44.2108083" lon="11.1119067"><ele>721.0</ele><time>2026-04-09T09:55:48.943Z</time></trkpt><trkpt lat="44.2109" lon="11.11193"><ele>720.0</ele><time>2026-04-09T09:55:50.943Z</time></trkpt><trkpt lat="44.21098" lon="11.11195"><ele>719.0</ele><time>2026-04-09T09:55:52.944Z</time></trkpt><trkpt lat="44.2110517" lon="11.1119617"><ele>718.0</ele><time>2026-04-09T09:55:54.944Z</time></trkpt><trkpt lat="44.2111283" lon="11.1119783"><ele>717.0</ele><time>2026-04-09T09:55:56.943Z</time></trkpt><trkpt lat="44.2112067" lon="11.1120067"><ele>716.0</ele><time>2026-04-09T09:55:58.944Z</time></trkpt><trkpt lat="44.2112817" lon="11.1120317"><ele>716.0</ele><time>2026-04-09T09:56:00.943Z</time></trkpt><trkpt lat="44.2113533" lon="11.1120583"><ele>716.0</ele><time>2026-04-09T09:56:02.943Z</time></trkpt><trkpt lat="44.21143" lon="11.1120917"><ele>716.0</ele><time>2026-04-09T09:56:04.943Z</time></trkpt><trkpt lat="44.211525" lon="11.112135"><ele>716.0</ele><time>2026-04-09T09:56:06.943Z</time></trkpt><trkpt lat="44.211645" lon="11.1121883"><ele>716.0</ele><time>2026-04-09T09:56:08.944Z</time></trkpt><trkpt lat="44.2117117" lon="11.112215"><ele>714.1428571428572</ele><time>2026-04-09T09:56:09.943Z</time></trkpt><trkpt lat="44.21178" lon="11.11224"><ele>712.2857142857143</ele><time>2026-04-09T09:56:10.943Z</time></trkpt><trkpt lat="44.2118467" lon="11.1122583"><ele>710.4285714285714</ele><time>2026-04-09T09:56:11.943Z</time></trkpt><trkpt lat="44.211915" lon="11.1122683"><ele>708.5714285714287</ele><time>2026-04-09T09:56:12.943Z</time></trkpt><trkpt lat="44.2119833" lon="11.11227"><ele>706.7142857142858</ele><time>2026-04-09T09:56:13.943Z</time></trkpt><trkpt lat="44.2120567" lon="11.1122733"><ele>704.8571428571429</ele><time>2026-04-09T09:56:14.944Z</time></trkpt><trkpt lat="44.2121283" lon="11.112265"><ele>703.0</ele><time>2026-04-09T09:56:15.943Z</time></trkpt><trkpt lat="44.2122017" lon="11.1122517"><ele>703.0</ele><time>2026-04-09T09:56:16.944Z</time></trkpt><trkpt lat="44.212275" lon="11.1122217"><ele>703.0</ele><time>2026-04-09T09:56:17.943Z</time></trkpt><trkpt lat="44.2123433" lon="11.112195"><ele>703.0</ele><time>2026-04-09T09:56:18.944Z</time></trkpt><trkpt lat="44.21242" lon="11.1121583"><ele>703.0</ele><time>2026-04-09T09:56:19.944Z</time></trkpt><trkpt lat="44.21249" lon="11.1121167"><ele>703.0</ele><time>2026-04-09T09:56:20.943Z</time></trkpt><trkpt lat="44.2125617" lon="11.1120767"><ele>703.0</ele><time>2026-04-09T09:56:21.944Z</time></trkpt><trkpt lat="44.2126317" lon="11.1120367"><ele>701.8571428571429</ele><time>2026-04-09T09:56:22.943Z</time></trkpt><trkpt lat="44.2126967" lon="11.11202"><ele>700.7142857142858</ele><time>2026-04-09T09:56:23.943Z</time></trkpt><trkpt lat="44.2127633" lon="11.112"><ele>699.5714285714287</ele><time>2026-04-09T09:56:24.943Z</time></trkpt><trkpt lat="44.2128333" lon="11.1119833"><ele>698.4285714285714</ele><time>2026-04-09T09:56:25.943Z</time></trkpt><trkpt lat="44.2128967" lon="11.1119817"><ele>697.2857142857143</ele><time>2026-04-09T09:56:26.943Z</time></trkpt><trkpt lat="44.2129667" lon="11.1119817"><ele>696.1428571428572</ele><time>2026-04-09T09:56:27.943Z</time></trkpt><trkpt lat="44.213035" lon="11.1119983"><ele>695.0</ele><time>2026-04-09T09:56:28.944Z</time></trkpt><trkpt lat="44.21311" lon="11.1120233"><ele>694.8333333333333</ele><time>2026-04-09T09:56:29.944Z</time></trkpt><trkpt lat="44.21318" lon="11.1120617"><ele>694.6666666666666</ele><time>2026-04-09T09:56:30.944Z</time></trkpt><trkpt lat="44.2132633" lon="11.112085"><ele>694.5</ele><time>2026-04-09T09:56:31.943Z</time></trkpt><trkpt lat="44.2133467" lon="11.1121"><ele>694.3333333333334</ele><time>2026-04-09T09:56:32.944Z</time></trkpt><trkpt lat="44.2134217" lon="11.11211"><ele>694.1666666666667</ele><time>2026-04-09T09:56:33.943Z</time></trkpt><trkpt lat="44.21349" lon="11.1121217"><ele>694.0</ele><time>2026-04-09T09:56:34.944Z</time></trkpt><trkpt lat="44.213555" lon="11.112135"><ele>694.0</ele><time>2026-04-09T09:56:35.944Z</time></trkpt><trkpt lat="44.2136233" lon="11.11214"><ele>694.0</ele><time>2026-04-09T09:56:36.943Z</time></trkpt><trkpt lat="44.2137383" lon="11.11213"><ele>694.0</ele><time>2026-04-09T09:56:38.944Z</time></trkpt><trkpt lat="44.2138233" lon="11.112125"><ele>694.0</ele><time>2026-04-09T09:56:40.943Z</time></trkpt><trkpt lat="44.2139083" lon="11.1121417"><ele>694.0</ele><time>2026-04-09T09:56:42.943Z</time></trkpt><trkpt lat="44.2139933" lon="11.1121983"><ele>694.0</ele><time>2026-04-09T09:56:44.943Z</time></trkpt><trkpt lat="44.2140683" lon="11.112295"><ele>694.8333333333334</ele><time>2026-04-09T09:56:46.943Z</time></trkpt><trkpt lat="44.2141483" lon="11.1124067"><ele>695.6666666666667</ele><time>2026-04-09T09:56:48.944Z</time></trkpt><trkpt lat="44.2142083" lon="11.1124517"><ele>696.5</ele><time>2026-04-09T09:56:49.943Z</time></trkpt><trkpt lat="44.2142817" lon="11.1124883"><ele>697.3333333333334</ele><time>2026-04-09T09:56:50.942Z</time></trkpt><trkpt lat="44.21436" lon="11.1125217"><ele>698.1666666666666</ele><time>2026-04-09T09:56:51.942Z</time></trkpt><trkpt lat="44.2144367" lon="11.112545"><ele>699.0</ele><time>2026-04-09T09:56:52.942Z</time></trkpt><trkpt lat="44.2145033" lon="11.1125717"><ele>699.0</ele><time>2026-04-09T09:56:53.942Z</time></trkpt><trkpt lat="44.2145667" lon="11.1125933"><ele>699.0</ele><time>2026-04-09T09:56:54.942Z</time></trkpt><trkpt lat="44.2146333" lon="11.11261"><ele>699.0</ele><time>2026-04-09T09:56:55.942Z</time></trkpt><trkpt lat="44.21476" lon="11.1126283"><ele>699.0</ele><time>2026-04-09T09:56:57.942Z</time></trkpt><trkpt lat="44.2148733" lon="11.1126133"><ele>699.0</ele><time>2026-04-09T09:56:59.942Z</time></trkpt><trkpt lat="44.2149667" lon="11.1125883"><ele>695.0</ele><time>2026-04-09T09:57:01.942Z</time></trkpt><trkpt lat="44.21505" lon="11.1125983"><ele>691.0</ele><time>2026-04-09T09:57:03.942Z</time></trkpt><trkpt lat="44.21511" lon="11.1126783"><ele>687.0</ele><time>2026-04-09T09:57:05.943Z</time></trkpt><trkpt lat="44.2151233" lon="11.1128117"><ele>683.0</ele><time>2026-04-09T09:57:07.942Z</time></trkpt><trkpt lat="44.2151083" lon="11.1129867"><ele>679.0</ele><time>2026-04-09T09:57:09.942Z</time></trkpt><trkpt lat="44.2151017" lon="11.1130883"><ele>679.0</ele><time>2026-04-09T09:57:10.943Z</time></trkpt><trkpt lat="44.2151" lon="11.1131933"><ele>679.0</ele><time>2026-04-09T09:57:11.942Z</time></trkpt><trkpt lat="44.2151067" lon="11.113295"><ele>679.0</ele><time>2026-04-09T09:57:12.942Z</time></trkpt><trkpt lat="44.21512" lon="11.1133917"><ele>679.0</ele><time>2026-04-09T09:57:13.942Z</time></trkpt><trkpt lat="44.21513" lon="11.1134867"><ele>679.0</ele><time>2026-04-09T09:57:14.942Z</time></trkpt><trkpt lat="44.2151417" lon="11.113645"><ele>679.0</ele><time>2026-04-09T09:57:16.942Z</time></trkpt><trkpt lat="44.2151517" lon="11.1137683"><ele>678.8333333333334</ele><time>2026-04-09T09:57:18.943Z</time></trkpt><trkpt lat="44.2151783" lon="11.1138567"><ele>678.6666666666667</ele><time>2026-04-09T09:57:21.942Z</time></trkpt><trkpt lat="44.2152067" lon="11.1137083"><ele>678.5</ele><time>2026-04-09T09:57:29.942Z</time></trkpt><trkpt lat="44.21521" lon="11.1135383"><ele>678.3333333333334</ele><time>2026-04-09T09:57:31.943Z</time></trkpt><trkpt lat="44.2152217" lon="11.11345"><ele>678.1666666666666</ele><time>2026-04-09T09:57:32.942Z</time></trkpt><trkpt lat="44.2152417" lon="11.11336"><ele>678.0</ele><time>2026-04-09T09:57:33.943Z</time></trkpt><trkpt lat="44.2152767" lon="11.11328"><ele>678.1428571428571</ele><time>2026-04-09T09:57:34.942Z</time></trkpt><trkpt lat="44.2153217" lon="11.1132083"><ele>678.2857142857143</ele><time>2026-04-09T09:57:35.943Z</time></trkpt><trkpt lat="44.2153733" lon="11.1131417"><ele>678.4285714285714</ele><time>2026-04-09T09:57:36.942Z</time></trkpt><trkpt lat="44.2154267" lon="11.1130717"><ele>678.5714285714286</ele><time>2026-04-09T09:57:37.942Z</time></trkpt><trkpt lat="44.2154717" lon="11.1129933"><ele>678.7142857142858</ele><time>2026-04-09T09:57:38.942Z</time></trkpt><trkpt lat="44.2155033" lon="11.1129017"><ele>678.8571428571429</ele><time>2026-04-09T09:57:39.942Z</time></trkpt><trkpt lat="44.2155217" lon="11.1128083"><ele>679.0</ele><time>2026-04-09T09:57:40.943Z</time></trkpt><trkpt lat="44.21552" lon="11.1127033"><ele>679.0</ele><time>2026-04-09T09:57:41.942Z</time></trkpt><trkpt lat="44.2155" lon="11.11259"><ele>679.0</ele><time>2026-04-09T09:57:42.942Z</time></trkpt><trkpt lat="44.215465" lon="11.1124667"><ele>679.0</ele><time>2026-04-09T09:57:43.942Z</time></trkpt><trkpt lat="44.21542" lon="11.112335"><ele>679.0</ele><time>2026-04-09T09:57:44.942Z</time></trkpt><trkpt lat="44.2153717" lon="11.1121967"><ele>679.0</ele><time>2026-04-09T09:57:45.942Z</time></trkpt><trkpt lat="44.2153217" lon="11.1120533"><ele>677.75</ele><time>2026-04-09T09:57:46.943Z</time></trkpt><trkpt lat="44.21528" lon="11.111895"><ele>676.5</ele><time>2026-04-09T09:57:47.943Z</time></trkpt><trkpt lat="44.2152633" lon="11.1117483"><ele>675.25</ele><time>2026-04-09T09:57:48.942Z</time></trkpt><trkpt lat="44.2152583" lon="11.1115867"><ele>674.0</ele><time>2026-04-09T09:57:49.942Z</time></trkpt><trkpt lat="44.2152783" lon="11.1114133"><ele>672.2</ele><time>2026-04-09T09:57:50.942Z</time></trkpt><trkpt lat="44.2153117" lon="11.1112483"><ele>670.4000000000001</ele><time>2026-04-09T09:57:51.942Z</time></trkpt><trkpt lat="44.2153417" lon="11.1111017"><ele>668.6</ele><time>2026-04-09T09:57:52.943Z</time></trkpt><trkpt lat="44.2153517" lon="11.1109717"><ele>666.8</ele><time>2026-04-09T09:57:53.942Z</time></trkpt><trkpt lat="44.21534" lon="11.1108517"><ele>665.0</ele><time>2026-04-09T09:57:54.943Z</time></trkpt><trkpt lat="44.2153" lon="11.1107233"><ele>662.25</ele><time>2026-04-09T09:57:55.942Z</time></trkpt><trkpt lat="44.2152367" lon="11.1105867"><ele>659.5</ele><time>2026-04-09T09:57:56.942Z</time></trkpt><trkpt lat="44.21517" lon="11.110435"><ele>656.75</ele><time>2026-04-09T09:57:57.942Z</time></trkpt><trkpt lat="44.2151083" lon="11.1102817"><ele>654.0</ele><time>2026-04-09T09:57:58.943Z</time></trkpt><trkpt lat="44.21505" lon="11.1101317"><ele>654.0</ele><time>2026-04-09T09:57:59.942Z</time></trkpt><trkpt lat="44.215005" lon="11.1100017"><ele>654.0</ele><time>2026-04-09T09:58:00.942Z</time></trkpt><trkpt lat="44.214955" lon="11.109895"><ele>654.0</ele><time>2026-04-09T09:58:01.942Z</time></trkpt><trkpt lat="44.214885" lon="11.1098133"><ele>654.0</ele><time>2026-04-09T09:58:02.943Z</time></trkpt><trkpt lat="44.2147983" lon="11.1097767"><ele>654.0</ele><time>2026-04-09T09:58:03.942Z</time></trkpt><trkpt lat="44.2147033" lon="11.10977"><ele>651.0</ele><time>2026-04-09T09:58:04.943Z</time></trkpt><trkpt lat="44.2145917" lon="11.1097883"><ele>648.0</ele><time>2026-04-09T09:58:05.943Z</time></trkpt><trkpt lat="44.2144733" lon="11.10982"><ele>645.0</ele><time>2026-04-09T09:58:06.942Z</time></trkpt><trkpt lat="44.2143583" lon="11.1098617"><ele>642.0</ele><time>2026-04-09T09:58:07.943Z</time></trkpt><trkpt lat="44.214245" lon="11.1098983"><ele>642.0</ele><time>2026-04-09T09:58:08.943Z</time></trkpt><trkpt lat="44.2141383" lon="11.109915"><ele>642.0</ele><time>2026-04-09T09:58:09.942Z</time></trkpt><trkpt lat="44.2140433" lon="11.1099033"><ele>642.0</ele><time>2026-04-09T09:58:10.943Z</time></trkpt><trkpt lat="44.2139533" lon="11.1098533"><ele>642.0</ele><time>2026-04-09T09:58:11.942Z</time></trkpt><trkpt lat="44.2138633" lon="11.1097767"><ele>642.0</ele><time>2026-04-09T09:58:12.943Z</time></trkpt><trkpt lat="44.2137767" lon="11.109665"><ele>643.25</ele><time>2026-04-09T09:58:13.942Z</time></trkpt><trkpt lat="44.21368" lon="11.1095617"><ele>644.5</ele><time>2026-04-09T09:58:14.943Z</time></trkpt><trkpt lat="44.213575" lon="11.109485"><ele>645.75</ele><time>2026-04-09T09:58:15.943Z</time></trkpt><trkpt lat="44.213465" lon="11.1094383"><ele>647.0</ele><time>2026-04-09T09:58:16.942Z</time></trkpt><trkpt lat="44.21336" lon="11.1094017"><ele>647.0</ele><time>2026-04-09T09:58:17.942Z</time></trkpt><trkpt lat="44.213255" lon="11.1093717"><ele>647.0</ele><time>2026-04-09T09:58:18.942Z</time></trkpt><trkpt lat="44.2131533" lon="11.1093517"><ele>647.0</ele><time>2026-04-09T09:58:19.942Z</time></trkpt><trkpt lat="44.21298" lon="11.1093233"><ele>647.0</ele><time>2026-04-09T09:58:21.942Z</time></trkpt><trkpt lat="44.2129067" lon="11.1092883"><ele>650.75</ele><time>2026-04-09T09:58:22.942Z</time></trkpt><trkpt lat="44.2128617" lon="11.1092267"><ele>654.5</ele><time>2026-04-09T09:58:23.942Z</time></trkpt><trkpt lat="44.2128483" lon="11.1089533"><ele>658.25</ele><time>2026-04-09T09:58:26.942Z</time></trkpt><trkpt lat="44.21293" lon="11.10874"><ele>662.0</ele><time>2026-04-09T09:58:28.942Z</time></trkpt><trkpt lat="44.21302" lon="11.108545"><ele>662.5</ele><time>2026-04-09T09:58:30.942Z</time></trkpt><trkpt lat="44.2130617" lon="11.1084417"><ele>663.0</ele><time>2026-04-09T09:58:31.942Z</time></trkpt><trkpt lat="44.2131083" lon="11.1083233"><ele>663.5</ele><time>2026-04-09T09:58:32.942Z</time></trkpt><trkpt lat="44.213155" lon="11.1081917"><ele>664.0</ele><time>2026-04-09T09:58:33.942Z</time></trkpt><trkpt lat="44.213255" lon="11.1079067"><ele>653.5</ele><time>2026-04-09T09:58:35.942Z</time></trkpt><trkpt lat="44.2133733" lon="11.1076217"><ele>643.0</ele><time>2026-04-09T09:58:37.942Z</time></trkpt><trkpt lat="44.213485" lon="11.1073483"><ele>642.5999999999999</ele><time>2026-04-09T09:58:39.942Z</time></trkpt><trkpt lat="44.2135217" lon="11.107225"><ele>642.1999999999999</ele><time>2026-04-09T09:58:40.943Z</time></trkpt><trkpt lat="44.2135433" lon="11.107105"><ele>641.8</ele><time>2026-04-09T09:58:41.942Z</time></trkpt><trkpt lat="44.2135417" lon="11.1069833"><ele>641.4</ele><time>2026-04-09T09:58:42.942Z</time></trkpt><trkpt lat="44.2135217" lon="11.106855"><ele>641.0</ele><time>2026-04-09T09:58:43.942Z</time></trkpt><trkpt lat="44.2134717" lon="11.1067"><ele>638.75</ele><time>2026-04-09T09:58:44.942Z</time></trkpt><trkpt lat="44.2134233" lon="11.1065533"><ele>636.5</ele><time>2026-04-09T09:58:45.942Z</time></trkpt><trkpt lat="44.2133683" lon="11.1064117"><ele>634.25</ele><time>2026-04-09T09:58:46.943Z</time></trkpt><trkpt lat="44.2132983" lon="11.10627"><ele>632.0</ele><time>2026-04-09T09:58:47.942Z</time></trkpt><trkpt lat="44.213225" lon="11.10614"><ele>633.25</ele><time>2026-04-09T09:58:48.943Z</time></trkpt><trkpt lat="44.2131533" lon="11.1060167"><ele>634.5</ele><time>2026-04-09T09:58:49.942Z</time></trkpt><trkpt lat="44.2130783" lon="11.105905"><ele>635.75</ele><time>2026-04-09T09:58:50.942Z</time></trkpt><trkpt lat="44.213015" lon="11.1058017"><ele>637.0</ele><time>2026-04-09T09:58:51.942Z</time></trkpt><trkpt lat="44.212875" lon="11.10559"><ele>637.0</ele><time>2026-04-09T09:58:53.942Z</time></trkpt><trkpt lat="44.212775" lon="11.1053283"><ele>637.0</ele><time>2026-04-09T09:58:55.942Z</time></trkpt><trkpt lat="44.2127317" lon="11.1050417"><ele>637.0</ele><time>2026-04-09T09:58:57.942Z</time></trkpt><trkpt lat="44.21274" lon="11.1048833"><ele>637.25</ele><time>2026-04-09T09:58:58.942Z</time></trkpt><trkpt lat="44.2127683" lon="11.1047233"><ele>637.5</ele><time>2026-04-09T09:58:59.942Z</time></trkpt><trkpt lat="44.2127817" lon="11.10457"><ele>637.75</ele><time>2026-04-09T09:59:00.943Z</time></trkpt><trkpt lat="44.2127933" lon="11.1042767"><ele>638.0</ele><time>2026-04-09T09:59:02.942Z</time></trkpt><trkpt lat="44.2128333" lon="11.1040217"><ele>639.75</ele><time>2026-04-09T09:59:04.942Z</time></trkpt><trkpt lat="44.2128817" lon="11.1038967"><ele>641.5</ele><time>2026-04-09T09:59:05.942Z</time></trkpt><trkpt lat="44.2129483" lon="11.1037783"><ele>643.25</ele><time>2026-04-09T09:59:06.942Z</time></trkpt><trkpt lat="44.2130133" lon="11.1036567"><ele>645.0</ele><time>2026-04-09T09:59:07.942Z</time></trkpt><trkpt lat="44.2131633" lon="11.1034283"><ele>643.25</ele><time>2026-04-09T09:59:09.943Z</time></trkpt><trkpt lat="44.2133217" lon="11.1032383"><ele>641.5</ele><time>2026-04-09T09:59:11.942Z</time></trkpt><trkpt lat="44.213395" lon="11.1031317"><ele>639.75</ele><time>2026-04-09T09:59:12.943Z</time></trkpt><trkpt lat="44.2134567" lon="11.103035"><ele>638.0</ele><time>2026-04-09T09:59:13.942Z</time></trkpt><trkpt lat="44.2135117" lon="11.10294"><ele>638.0</ele><time>2026-04-09T09:59:14.943Z</time></trkpt><trkpt lat="44.2135633" lon="11.1028583"><ele>638.0</ele><time>2026-04-09T09:59:15.942Z</time></trkpt><trkpt lat="44.21368" lon="11.1027783"><ele>638.0</ele><time>2026-04-09T09:59:17.942Z</time></trkpt><trkpt lat="44.2137833" lon="11.1029167"><ele>638.0</ele><time>2026-04-09T09:59:19.942Z</time></trkpt><trkpt lat="44.2138017" lon="11.1031367"><ele>635.75</ele><time>2026-04-09T09:59:21.942Z</time></trkpt><trkpt lat="44.2138217" lon="11.103255"><ele>633.5</ele><time>2026-04-09T09:59:22.942Z</time></trkpt><trkpt lat="44.2138667" lon="11.1033683"><ele>631.25</ele><time>2026-04-09T09:59:23.942Z</time></trkpt><trkpt lat="44.21394" lon="11.10347"><ele>629.0</ele><time>2026-04-09T09:59:24.943Z</time></trkpt><trkpt lat="44.2141233" lon="11.1036517"><ele>625.75</ele><time>2026-04-09T09:59:26.943Z</time></trkpt><trkpt lat="44.2143267" lon="11.1037583"><ele>622.5</ele><time>2026-04-09T09:59:28.942Z</time></trkpt><trkpt lat="44.2144267" lon="11.10376"><ele>619.25</ele><time>2026-04-09T09:59:29.942Z</time></trkpt><trkpt lat="44.214525" lon="11.10374"><ele>616.0</ele><time>2026-04-09T09:59:30.942Z</time></trkpt><trkpt lat="44.21462" lon="11.1036767"><ele>616.0</ele><time>2026-04-09T09:59:31.942Z</time></trkpt><trkpt lat="44.2147033" lon="11.1035567"><ele>616.0</ele><time>2026-04-09T09:59:32.942Z</time></trkpt><trkpt lat="44.2147833" lon="11.1034067"><ele>616.0</ele><time>2026-04-09T09:59:33.942Z</time></trkpt><trkpt lat="44.2148617" lon="11.10325"><ele>616.0</ele><time>2026-04-09T09:59:34.943Z</time></trkpt><trkpt lat="44.2149367" lon="11.1030783"><ele>619.0</ele><time>2026-04-09T09:59:35.942Z</time></trkpt><trkpt lat="44.2150717" lon="11.1027367"><ele>622.0</ele><time>2026-04-09T09:59:37.943Z</time></trkpt><trkpt lat="44.215185" lon="11.102455"><ele>630.0</ele><time>2026-04-09T09:59:39.942Z</time></trkpt><trkpt lat="44.2153083" lon="11.1022683"><ele>638.0</ele><time>2026-04-09T09:59:41.942Z</time></trkpt><trkpt lat="44.2153883" lon="11.1022183"><ele>646.0</ele><time>2026-04-09T09:59:42.942Z</time></trkpt><trkpt lat="44.215495" lon="11.1021983"><ele>654.0</ele><time>2026-04-09T09:59:43.942Z</time></trkpt><trkpt lat="44.2156217" lon="11.1022217"><ele>645.6666666666666</ele><time>2026-04-09T09:59:44.942Z</time></trkpt><trkpt lat="44.215845" lon="11.1022717"><ele>637.3333333333333</ele><time>2026-04-09T09:59:46.942Z</time></trkpt><trkpt lat="44.2160133" lon="11.1023067"><ele>629.0</ele><time>2026-04-09T09:59:48.942Z</time></trkpt><trkpt lat="44.2161517" lon="11.102285"><ele>629.0</ele><time>2026-04-09T09:59:50.942Z</time></trkpt><trkpt lat="44.216225" lon="11.10226"><ele>629.0</ele><time>2026-04-09T09:59:51.943Z</time></trkpt><trkpt lat="44.2163783" lon="11.1021917"><ele>629.0</ele><time>2026-04-09T09:59:53.942Z</time></trkpt><trkpt lat="44.2164617" lon="11.1021483"><ele>629.0</ele><time>2026-04-09T09:59:54.942Z</time></trkpt><trkpt lat="44.2165417" lon="11.1020883"><ele>629.0</ele><time>2026-04-09T09:59:55.942Z</time></trkpt><trkpt lat="44.2166117" lon="11.101995"><ele>623.6666666666666</ele><time>2026-04-09T09:59:56.942Z</time></trkpt><trkpt lat="44.2167383" lon="11.1017517"><ele>618.3333333333334</ele><time>2026-04-09T09:59:58.942Z</time></trkpt><trkpt lat="44.2167967" lon="11.1016083"><ele>613.0</ele><time>2026-04-09T09:59:59.943Z</time></trkpt><trkpt lat="44.21686" lon="11.1014583"><ele>613.0</ele><time>2026-04-09T10:00:00.942Z</time></trkpt><trkpt lat="44.2169283" lon="11.1012967"><ele>613.0</ele><time>2026-04-09T10:00:01.942Z</time></trkpt><trkpt lat="44.2169883" lon="11.1011383"><ele>613.0</ele><time>2026-04-09T10:00:02.943Z</time></trkpt><trkpt lat="44.21705" lon="11.1010033"><ele>613.0</ele><time>2026-04-09T10:00:03.942Z</time></trkpt><trkpt lat="44.217105" lon="11.10088"><ele>613.0</ele><time>2026-04-09T10:00:04.942Z</time></trkpt><trkpt lat="44.2171533" lon="11.1007733"><ele>613.0</ele><time>2026-04-09T10:00:05.942Z</time></trkpt><trkpt lat="44.2172667" lon="11.1006133"><ele>613.0</ele><time>2026-04-09T10:00:07.942Z</time></trkpt><trkpt lat="44.2174117" lon="11.1005317"><ele>613.0</ele><time>2026-04-09T10:00:09.943Z</time></trkpt><trkpt lat="44.2175017" lon="11.1005533"><ele>613.3333333333334</ele><time>2026-04-09T10:00:10.942Z</time></trkpt><trkpt lat="44.2175933" lon="11.1005917"><ele>613.6666666666667</ele><time>2026-04-09T10:00:11.942Z</time></trkpt><trkpt lat="44.2176867" lon="11.10062"><ele>614.0</ele><time>2026-04-09T10:00:12.942Z</time></trkpt><trkpt lat="44.2177767" lon="11.1006317"><ele>614.3333333333334</ele><time>2026-04-09T10:00:13.942Z</time></trkpt><trkpt lat="44.2178617" lon="11.1006283"><ele>614.6666666666666</ele><time>2026-04-09T10:00:14.942Z</time></trkpt><trkpt lat="44.2178617" lon="11.1006283"><ele>615.0</ele><time>2026-04-09T10:00:14.942Z</time></trkpt><trkpt lat="44.2197967" lon="11.09926"><ele>615.3333333333334</ele><time>2026-04-09T10:01:01.942Z</time></trkpt><trkpt lat="44.2197917" lon="11.099115"><ele>615.6666666666666</ele><time>2026-04-09T10:01:19.941Z</time></trkpt><trkpt lat="44.219805" lon="11.0990267"><ele>616.0</ele><time>2026-04-09T10:01:20.941Z</time></trkpt><trkpt lat="44.21982" lon="11.0989283"><ele>616.3333333333333</ele><time>2026-04-09T10:01:21.941Z</time></trkpt><trkpt lat="44.219855" lon="11.09883"><ele>616.6666666666666</ele><time>2026-04-09T10:01:22.941Z</time></trkpt><trkpt lat="44.2199083" lon="11.09875"><ele>617.0</ele><time>2026-04-09T10:01:23.941Z</time></trkpt><trkpt lat="44.2199783" lon="11.0986833"><ele>610.4</ele><time>2026-04-09T10:01:24.942Z</time></trkpt><trkpt lat="44.2200683" lon="11.0986467"><ele>603.8000000000001</ele><time>2026-04-09T10:01:25.941Z</time></trkpt><trkpt lat="44.22017" lon="11.0986483"><ele>597.2</ele><time>2026-04-09T10:01:26.941Z</time></trkpt><trkpt lat="44.22028" lon="11.0986733"><ele>590.6</ele><time>2026-04-09T10:01:27.941Z</time></trkpt><trkpt lat="44.2203833" lon="11.0986967"><ele>584.0</ele><time>2026-04-09T10:01:28.941Z</time></trkpt><trkpt lat="44.2204917" lon="11.0987333"><ele>584.0</ele><time>2026-04-09T10:01:29.941Z</time></trkpt><trkpt lat="44.2206017" lon="11.09878"><ele>584.0</ele><time>2026-04-09T10:01:30.941Z</time></trkpt><trkpt lat="44.220705" lon="11.0988417"><ele>584.0</ele><time>2026-04-09T10:01:31.942Z</time></trkpt><trkpt lat="44.2208" lon="11.098915"><ele>584.0</ele><time>2026-04-09T10:01:32.941Z</time></trkpt><trkpt lat="44.2208883" lon="11.098985"><ele>584.0</ele><time>2026-04-09T10:01:33.941Z</time></trkpt><trkpt lat="44.2209667" lon="11.0990317"><ele>579.8</ele><time>2026-04-09T10:01:34.941Z</time></trkpt><trkpt lat="44.2210383" lon="11.0990467"><ele>575.5999999999999</ele><time>2026-04-09T10:01:35.941Z</time></trkpt><trkpt lat="44.2211333" lon="11.0989683"><ele>571.4</ele><time>2026-04-09T10:01:37.942Z</time></trkpt><trkpt lat="44.221155" lon="11.0988617"><ele>567.1999999999999</ele><time>2026-04-09T10:01:38.941Z</time></trkpt><trkpt lat="44.2211517" lon="11.0987167"><ele>563.0</ele><time>2026-04-09T10:01:39.941Z</time></trkpt><trkpt lat="44.22113" lon="11.098555"><ele>563.0</ele><time>2026-04-09T10:01:40.941Z</time></trkpt><trkpt lat="44.2211017" lon="11.0983717"><ele>563.0</ele><time>2026-04-09T10:01:41.941Z</time></trkpt><trkpt lat="44.221085" lon="11.0982083"><ele>563.0</ele><time>2026-04-09T10:01:42.941Z</time></trkpt><trkpt lat="44.22108" lon="11.09806"><ele>563.0</ele><time>2026-04-09T10:01:43.941Z</time></trkpt><trkpt lat="44.2210783" lon="11.0979217"><ele>565.4</ele><time>2026-04-09T10:01:44.941Z</time></trkpt><trkpt lat="44.2210883" lon="11.097785"><ele>567.8</ele><time>2026-04-09T10:01:45.941Z</time></trkpt><trkpt lat="44.221115" lon="11.0976467"><ele>570.2</ele><time>2026-04-09T10:01:46.941Z</time></trkpt><trkpt lat="44.221155" lon="11.0974983"><ele>572.6</ele><time>2026-04-09T10:01:47.941Z</time></trkpt><trkpt lat="44.2211983" lon="11.0973617"><ele>575.0</ele><time>2026-04-09T10:01:48.942Z</time></trkpt><trkpt lat="44.2212483" lon="11.0972367"><ele>571.8</ele><time>2026-04-09T10:01:49.941Z</time></trkpt><trkpt lat="44.221305" lon="11.0971117"><ele>568.6</ele><time>2026-04-09T10:01:50.941Z</time></trkpt><trkpt lat="44.2213783" lon="11.0970067"><ele>565.4</ele><time>2026-04-09T10:01:51.941Z</time></trkpt><trkpt lat="44.2214683" lon="11.0969183"><ele>562.2</ele><time>2026-04-09T10:01:52.942Z</time></trkpt><trkpt lat="44.22156" lon="11.0968317"><ele>559.0</ele><time>2026-04-09T10:01:53.941Z</time></trkpt><trkpt lat="44.22165" lon="11.0967233"><ele>559.0</ele><time>2026-04-09T10:01:54.942Z</time></trkpt><trkpt lat="44.2217433" lon="11.09659"><ele>559.0</ele><time>2026-04-09T10:01:55.942Z</time></trkpt><trkpt lat="44.2218367" lon="11.09646"><ele>559.0</ele><time>2026-04-09T10:01:56.941Z</time></trkpt><trkpt lat="44.2219383" lon="11.0963517"><ele>559.0</ele><time>2026-04-09T10:01:57.941Z</time></trkpt><trkpt lat="44.22205" lon="11.0962583"><ele>558.75</ele><time>2026-04-09T10:01:58.941Z</time></trkpt><trkpt lat="44.2221683" lon="11.096175"><ele>558.5</ele><time>2026-04-09T10:01:59.942Z</time></trkpt><trkpt lat="44.222295" lon="11.0960967"><ele>558.25</ele><time>2026-04-09T10:02:00.941Z</time></trkpt><trkpt lat="44.2224267" lon="11.0960283"><ele>558.0</ele><time>2026-04-09T10:02:01.941Z</time></trkpt><trkpt lat="44.2225533" lon="11.0959733"><ele>558.0</ele><time>2026-04-09T10:02:02.941Z</time></trkpt><trkpt lat="44.2226867" lon="11.09594"><ele>558.0</ele><time>2026-04-09T10:02:03.942Z</time></trkpt><trkpt lat="44.22282" lon="11.095935"><ele>558.0</ele><time>2026-04-09T10:02:04.941Z</time></trkpt><trkpt lat="44.2229567" lon="11.0959517"><ele>558.0</ele><time>2026-04-09T10:02:05.941Z</time></trkpt><trkpt lat="44.2230883" lon="11.0959683"><ele>556.6</ele><time>2026-04-09T10:02:06.941Z</time></trkpt><trkpt lat="44.223205" lon="11.0959767"><ele>555.1999999999999</ele><time>2026-04-09T10:02:07.941Z</time></trkpt><trkpt lat="44.2233067" lon="11.0959767"><ele>553.8</ele><time>2026-04-09T10:02:08.941Z</time></trkpt><trkpt lat="44.2234017" lon="11.0959633"><ele>552.4</ele><time>2026-04-09T10:02:09.942Z</time></trkpt><trkpt lat="44.2234867" lon="11.09592"><ele>551.0</ele><time>2026-04-09T10:02:10.941Z</time></trkpt><trkpt lat="44.223565" lon="11.0958583"><ele>551.0</ele><time>2026-04-09T10:02:11.941Z</time></trkpt><trkpt lat="44.22364" lon="11.0957633"><ele>551.0</ele><time>2026-04-09T10:02:12.941Z</time></trkpt><trkpt lat="44.2237183" lon="11.0956417"><ele>551.0</ele><time>2026-04-09T10:02:13.942Z</time></trkpt><trkpt lat="44.2238083" lon="11.095515"><ele>551.0</ele><time>2026-04-09T10:02:14.941Z</time></trkpt><trkpt lat="44.2239117" lon="11.0953983"><ele>551.75</ele><time>2026-04-09T10:02:15.941Z</time></trkpt><trkpt lat="44.2240333" lon="11.0952933"><ele>552.5</ele><time>2026-04-09T10:02:16.941Z</time></trkpt><trkpt lat="44.224165" lon="11.0951967"><ele>553.25</ele><time>2026-04-09T10:02:17.941Z</time></trkpt><trkpt lat="44.2243017" lon="11.095105"><ele>554.0</ele><time>2026-04-09T10:02:18.942Z</time></trkpt><trkpt lat="44.224435" lon="11.0950267"><ele>554.0</ele><time>2026-04-09T10:02:19.941Z</time></trkpt><trkpt lat="44.22456" lon="11.0949617"><ele>554.0</ele><time>2026-04-09T10:02:20.941Z</time></trkpt><trkpt lat="44.224665" lon="11.0949183"><ele>554.0</ele><time>2026-04-09T10:02:21.941Z</time></trkpt><trkpt lat="44.2247483" lon="11.0948717"><ele>554.0</ele><time>2026-04-09T10:02:22.942Z</time></trkpt><trkpt lat="44.22482" lon="11.0948183"><ele>554.0</ele><time>2026-04-09T10:02:23.941Z</time></trkpt><trkpt lat="44.2248867" lon="11.09476"><ele>554.0</ele><time>2026-04-09T10:02:24.941Z</time></trkpt><trkpt lat="44.224955" lon="11.0947"><ele>554.0</ele><time>2026-04-09T10:02:25.942Z</time></trkpt><trkpt lat="44.225035" lon="11.0946317"><ele>554.0</ele><time>2026-04-09T10:02:26.942Z</time></trkpt><trkpt lat="44.2251183" lon="11.0945667"><ele>554.0</ele><time>2026-04-09T10:02:27.941Z</time></trkpt><trkpt lat="44.225205" lon="11.0944933"><ele>554.0</ele><time>2026-04-09T10:02:28.942Z</time></trkpt><trkpt lat="44.2252917" lon="11.094405"><ele>554.0</ele><time>2026-04-09T10:02:29.941Z</time></trkpt><trkpt lat="44.2253833" lon="11.0943183"><ele>554.0</ele><time>2026-04-09T10:02:30.941Z</time></trkpt><trkpt lat="44.2254767" lon="11.094235"><ele>554.0</ele><time>2026-04-09T10:02:31.941Z</time></trkpt><trkpt lat="44.225575" lon="11.09416"><ele>554.0</ele><time>2026-04-09T10:02:32.941Z</time></trkpt><trkpt lat="44.22568" lon="11.0940933"><ele>554.0</ele><time>2026-04-09T10:02:33.941Z</time></trkpt><trkpt lat="44.2257867" lon="11.09405"><ele>554.0</ele><time>2026-04-09T10:02:34.941Z</time></trkpt><trkpt lat="44.2258983" lon="11.0940333"><ele>554.0</ele><time>2026-04-09T10:02:35.941Z</time></trkpt><trkpt lat="44.2260067" lon="11.0940383"><ele>554.0</ele><time>2026-04-09T10:02:36.941Z</time></trkpt><trkpt lat="44.2261067" lon="11.0940467"><ele>554.0</ele><time>2026-04-09T10:02:37.941Z</time></trkpt><trkpt lat="44.2261967" lon="11.09404"><ele>554.0</ele><time>2026-04-09T10:02:38.941Z</time></trkpt><trkpt lat="44.22628" lon="11.0939967"><ele>554.0</ele><time>2026-04-09T10:02:39.941Z</time></trkpt><trkpt lat="44.2263633" lon="11.0939233"><ele>554.0</ele><time>2026-04-09T10:02:40.941Z</time></trkpt><trkpt lat="44.2264467" lon="11.0938183"><ele>554.0</ele><time>2026-04-09T10:02:41.942Z</time></trkpt><trkpt lat="44.2265333" lon="11.0936933"><ele>554.0</ele><time>2026-04-09T10:02:42.941Z</time></trkpt><trkpt lat="44.2266133" lon="11.0935717"><ele>552.6</ele><time>2026-04-09T10:02:43.941Z</time></trkpt><trkpt lat="44.226695" lon="11.0934567"><ele>551.2</ele><time>2026-04-09T10:02:44.941Z</time></trkpt><trkpt lat="44.226775" lon="11.09335"><ele>549.8000000000001</ele><time>2026-04-09T10:02:45.941Z</time></trkpt><trkpt lat="44.2268533" lon="11.09325"><ele>548.4</ele><time>2026-04-09T10:02:46.941Z</time></trkpt><trkpt lat="44.2269283" lon="11.0931517"><ele>547.0</ele><time>2026-04-09T10:02:47.941Z</time></trkpt><trkpt lat="44.2269933" lon="11.0930583"><ele>547.0</ele><time>2026-04-09T10:02:48.941Z</time></trkpt><trkpt lat="44.22705" lon="11.0929533"><ele>547.0</ele><time>2026-04-09T10:02:49.942Z</time></trkpt><trkpt lat="44.2270967" lon="11.0928317"><ele>547.0</ele><time>2026-04-09T10:02:50.941Z</time></trkpt><trkpt lat="44.2271333" lon="11.0926917"><ele>547.0</ele><time>2026-04-09T10:02:51.941Z</time></trkpt><trkpt lat="44.22716" lon="11.0925433"><ele>547.0</ele><time>2026-04-09T10:02:52.942Z</time></trkpt><trkpt lat="44.2271833" lon="11.0924017"><ele>548.6</ele><time>2026-04-09T10:02:53.941Z</time></trkpt><trkpt lat="44.22721" lon="11.092275"><ele>550.2</ele><time>2026-04-09T10:02:54.941Z</time></trkpt><trkpt lat="44.2272433" lon="11.09215"><ele>551.8</ele><time>2026-04-09T10:02:55.941Z</time></trkpt><trkpt lat="44.2272967" lon="11.0920433"><ele>553.4</ele><time>2026-04-09T10:02:56.941Z</time></trkpt><trkpt lat="44.2273633" lon="11.0919633"><ele>555.0</ele><time>2026-04-09T10:02:57.941Z</time></trkpt><trkpt lat="44.22745" lon="11.0919083"><ele>551.6</ele><time>2026-04-09T10:02:58.941Z</time></trkpt><trkpt lat="44.2275583" lon="11.0918783"><ele>548.2</ele><time>2026-04-09T10:02:59.942Z</time></trkpt><trkpt lat="44.22768" lon="11.0918633"><ele>544.8</ele><time>2026-04-09T10:03:00.941Z</time></trkpt><trkpt lat="44.2277917" lon="11.0918383"><ele>541.4</ele><time>2026-04-09T10:03:01.941Z</time></trkpt><trkpt lat="44.2278917" lon="11.0918"><ele>538.0</ele><time>2026-04-09T10:03:02.941Z</time></trkpt><trkpt lat="44.22798" lon="11.091745"><ele>538.0</ele><time>2026-04-09T10:03:03.941Z</time></trkpt><trkpt lat="44.2280533" lon="11.0916833"><ele>538.0</ele><time>2026-04-09T10:03:04.941Z</time></trkpt><trkpt lat="44.2281233" lon="11.091605"><ele>538.0</ele><time>2026-04-09T10:03:05.941Z</time></trkpt><trkpt lat="44.2281733" lon="11.091505"><ele>538.0</ele><time>2026-04-09T10:03:06.941Z</time></trkpt><trkpt lat="44.2282133" lon="11.09138"><ele>538.0</ele><time>2026-04-09T10:03:07.941Z</time></trkpt><trkpt lat="44.2282433" lon="11.0912267"><ele>533.6</ele><time>2026-04-09T10:03:08.941Z</time></trkpt><trkpt lat="44.2282717" lon="11.09108"><ele>529.1999999999999</ele><time>2026-04-09T10:03:09.941Z</time></trkpt><trkpt lat="44.228295" lon="11.09094"><ele>524.8</ele><time>2026-04-09T10:03:10.941Z</time></trkpt><trkpt lat="44.2283083" lon="11.0908"><ele>520.4</ele><time>2026-04-09T10:03:11.941Z</time></trkpt><trkpt lat="44.2283133" lon="11.090655"><ele>516.0</ele><time>2026-04-09T10:03:12.941Z</time></trkpt><trkpt lat="44.2283017" lon="11.0905067"><ele>516.0</ele><time>2026-04-09T10:03:13.941Z</time></trkpt><trkpt lat="44.2282883" lon="11.0903633"><ele>516.0</ele><time>2026-04-09T10:03:14.941Z</time></trkpt><trkpt lat="44.2282833" lon="11.0902283"><ele>516.0</ele><time>2026-04-09T10:03:15.942Z</time></trkpt><trkpt lat="44.22829" lon="11.0901017"><ele>516.0</ele><time>2026-04-09T10:03:16.941Z</time></trkpt><trkpt lat="44.22832" lon="11.0899783"><ele>516.0</ele><time>2026-04-09T10:03:17.941Z</time></trkpt><trkpt lat="44.2283783" lon="11.0898583"><ele>516.5</ele><time>2026-04-09T10:03:18.942Z</time></trkpt><trkpt lat="44.2284533" lon="11.0897233"><ele>517.0</ele><time>2026-04-09T10:03:19.941Z</time></trkpt><trkpt lat="44.2285283" lon="11.0895733"><ele>517.5</ele><time>2026-04-09T10:03:20.941Z</time></trkpt><trkpt lat="44.2286033" lon="11.08941"><ele>518.0</ele><time>2026-04-09T10:03:21.941Z</time></trkpt><trkpt lat="44.2286733" lon="11.0892317"><ele>518.0</ele><time>2026-04-09T10:03:22.942Z</time></trkpt><trkpt lat="44.2287367" lon="11.0890483"><ele>518.0</ele><time>2026-04-09T10:03:23.942Z</time></trkpt><trkpt lat="44.2288" lon="11.0888717"><ele>518.0</ele><time>2026-04-09T10:03:24.941Z</time></trkpt><trkpt lat="44.2288633" lon="11.0887033"><ele>518.0</ele><time>2026-04-09T10:03:25.941Z</time></trkpt><trkpt lat="44.2289283" lon="11.0885483"><ele>513.6</ele><time>2026-04-09T10:03:26.941Z</time></trkpt><trkpt lat="44.2289833" lon="11.0884017"><ele>509.19999999999993</ele><time>2026-04-09T10:03:27.941Z</time></trkpt><trkpt lat="44.2290233" lon="11.0882633"><ele>504.8</ele><time>2026-04-09T10:03:28.941Z</time></trkpt><trkpt lat="44.2290433" lon="11.0881317"><ele>500.4</ele><time>2026-04-09T10:03:29.942Z</time></trkpt><trkpt lat="44.2290433" lon="11.088"><ele>496.0</ele><time>2026-04-09T10:03:30.941Z</time></trkpt><trkpt lat="44.2290233" lon="11.0878717"><ele>496.0</ele><time>2026-04-09T10:03:31.941Z</time></trkpt><trkpt lat="44.22899" lon="11.0877417"><ele>496.0</ele><time>2026-04-09T10:03:32.941Z</time></trkpt><trkpt lat="44.228945" lon="11.0876117"><ele>496.0</ele><time>2026-04-09T10:03:33.942Z</time></trkpt><trkpt lat="44.2288917" lon="11.0874867"><ele>496.0</ele><time>2026-04-09T10:03:34.941Z</time></trkpt><trkpt lat="44.2288233" lon="11.0873617"><ele>496.0</ele><time>2026-04-09T10:03:35.941Z</time></trkpt><trkpt lat="44.2287417" lon="11.0872383"><ele>495.6</ele><time>2026-04-09T10:03:36.941Z</time></trkpt><trkpt lat="44.2286533" lon="11.0871233"><ele>495.20000000000005</ele><time>2026-04-09T10:03:37.941Z</time></trkpt><trkpt lat="44.2285667" lon="11.0870183"><ele>494.79999999999995</ele><time>2026-04-09T10:03:38.941Z</time></trkpt><trkpt lat="44.2284783" lon="11.086935"><ele>494.4</ele><time>2026-04-09T10:03:39.941Z</time></trkpt><trkpt lat="44.228385" lon="11.0868667"><ele>494.0</ele><time>2026-04-09T10:03:40.942Z</time></trkpt><trkpt lat="44.2282783" lon="11.0868233"><ele>494.0</ele><time>2026-04-09T10:03:41.941Z</time></trkpt><trkpt lat="44.2281617" lon="11.0867917"><ele>494.0</ele><time>2026-04-09T10:03:42.942Z</time></trkpt><trkpt lat="44.2280417" lon="11.08676"><ele>494.0</ele><time>2026-04-09T10:03:43.941Z</time></trkpt><trkpt lat="44.22792" lon="11.0867267"><ele>494.0</ele><time>2026-04-09T10:03:44.942Z</time></trkpt><trkpt lat="44.2277967" lon="11.0866633"><ele>493.5</ele><time>2026-04-09T10:03:45.941Z</time></trkpt><trkpt lat="44.2276833" lon="11.0865717"><ele>493.0</ele><time>2026-04-09T10:03:46.941Z</time></trkpt><trkpt lat="44.2275833" lon="11.086465"><ele>492.5</ele><time>2026-04-09T10:03:47.942Z</time></trkpt><trkpt lat="44.2274917" lon="11.0863517"><ele>492.0</ele><time>2026-04-09T10:03:48.942Z</time></trkpt><trkpt lat="44.227405" lon="11.0862367"><ele>492.0</ele><time>2026-04-09T10:03:49.941Z</time></trkpt><trkpt lat="44.227325" lon="11.0861083"><ele>492.0</ele><time>2026-04-09T10:03:50.941Z</time></trkpt><trkpt lat="44.227255" lon="11.0859717"><ele>492.0</ele><time>2026-04-09T10:03:51.941Z</time></trkpt><trkpt lat="44.2272" lon="11.0858183"><ele>492.0</ele><time>2026-04-09T10:03:52.942Z</time></trkpt><trkpt lat="44.2271617" lon="11.0856533"><ele>500.75</ele><time>2026-04-09T10:03:53.942Z</time></trkpt><trkpt lat="44.227135" lon="11.08548"><ele>509.5</ele><time>2026-04-09T10:03:54.941Z</time></trkpt><trkpt lat="44.2271167" lon="11.0853"><ele>518.25</ele><time>2026-04-09T10:03:55.941Z</time></trkpt><trkpt lat="44.2271" lon="11.0851233"><ele>527.0</ele><time>2026-04-09T10:03:56.942Z</time></trkpt><trkpt lat="44.2270733" lon="11.0849517"><ele>521.0</ele><time>2026-04-09T10:03:57.941Z</time></trkpt><trkpt lat="44.227025" lon="11.084785"><ele>515.0</ele><time>2026-04-09T10:03:58.942Z</time></trkpt><trkpt lat="44.2269633" lon="11.0846183"><ele>509.0</ele><time>2026-04-09T10:03:59.941Z</time></trkpt><trkpt lat="44.2268833" lon="11.0844683"><ele>503.0</ele><time>2026-04-09T10:04:00.941Z</time></trkpt><trkpt lat="44.2268017" lon="11.0843317"><ele>503.0</ele><time>2026-04-09T10:04:01.942Z</time></trkpt><trkpt lat="44.22672" lon="11.0841983"><ele>503.0</ele><time>2026-04-09T10:04:02.941Z</time></trkpt><trkpt lat="44.2266417" lon="11.0840733"><ele>503.0</ele><time>2026-04-09T10:04:03.941Z</time></trkpt><trkpt lat="44.22656" lon="11.0839633"><ele>503.0</ele><time>2026-04-09T10:04:04.941Z</time></trkpt><trkpt lat="44.226495" lon="11.08386"><ele>501.66666666666663</ele><time>2026-04-09T10:04:05.941Z</time></trkpt><trkpt lat="44.226435" lon="11.083765"><ele>500.3333333333333</ele><time>2026-04-09T10:04:06.941Z</time></trkpt><trkpt lat="44.22638" lon="11.0836767"><ele>499.0</ele><time>2026-04-09T10:04:07.941Z</time></trkpt><trkpt lat="44.226325" lon="11.0835967"><ele>497.66666666666663</ele><time>2026-04-09T10:04:08.942Z</time></trkpt><trkpt lat="44.226275" lon="11.08352"><ele>496.3333333333333</ele><time>2026-04-09T10:04:09.941Z</time></trkpt><trkpt lat="44.226225" lon="11.0834583"><ele>495.0</ele><time>2026-04-09T10:04:10.941Z</time></trkpt><trkpt lat="44.2261583" lon="11.0834083"><ele>495.0</ele><time>2026-04-09T10:04:11.941Z</time></trkpt><trkpt lat="44.2260733" lon="11.0833833"><ele>495.0</ele><time>2026-04-09T10:04:12.941Z</time></trkpt><trkpt lat="44.2259783" lon="11.08338"><ele>495.0</ele><time>2026-04-09T10:04:13.941Z</time></trkpt><trkpt lat="44.2258833" lon="11.0833783"><ele>495.0</ele><time>2026-04-09T10:04:14.941Z</time></trkpt><trkpt lat="44.22579" lon="11.0833633"><ele>495.0</ele><time>2026-04-09T10:04:15.941Z</time></trkpt><trkpt lat="44.2256883" lon="11.08333"><ele>496.0</ele><time>2026-04-09T10:04:16.941Z</time></trkpt><trkpt lat="44.2255883" lon="11.0832667"><ele>497.0</ele><time>2026-04-09T10:04:17.941Z</time></trkpt><trkpt lat="44.2254867" lon="11.0831833"><ele>498.0</ele><time>2026-04-09T10:04:18.941Z</time></trkpt><trkpt lat="44.22539" lon="11.083105"><ele>499.0</ele><time>2026-04-09T10:04:19.941Z</time></trkpt><trkpt lat="44.22531" lon="11.08303"><ele>500.0</ele><time>2026-04-09T10:04:20.941Z</time></trkpt><trkpt lat="44.225225" lon="11.082965"><ele>500.0</ele><time>2026-04-09T10:04:21.941Z</time></trkpt><trkpt lat="44.2251467" lon="11.082895"><ele>500.0</ele><time>2026-04-09T10:04:22.941Z</time></trkpt><trkpt lat="44.22508" lon="11.082815"><ele>500.0</ele><time>2026-04-09T10:04:23.941Z</time></trkpt><trkpt lat="44.2250367" lon="11.082705"><ele>500.0</ele><time>2026-04-09T10:04:24.941Z</time></trkpt><trkpt lat="44.2250183" lon="11.08258"><ele>500.0</ele><time>2026-04-09T10:04:25.941Z</time></trkpt><trkpt lat="44.2250083" lon="11.0824483"><ele>499.25</ele><time>2026-04-09T10:04:26.941Z</time></trkpt><trkpt lat="44.2250067" lon="11.082315"><ele>498.5</ele><time>2026-04-09T10:04:27.941Z</time></trkpt><trkpt lat="44.22499" lon="11.08216"><ele>497.75</ele><time>2026-04-09T10:04:28.941Z</time></trkpt><trkpt lat="44.2249567" lon="11.082005"><ele>497.0</ele><time>2026-04-09T10:04:29.941Z</time></trkpt><trkpt lat="44.224905" lon="11.081845"><ele>497.0</ele><time>2026-04-09T10:04:30.941Z</time></trkpt><trkpt lat="44.2248417" lon="11.0816867"><ele>497.0</ele><time>2026-04-09T10:04:31.941Z</time></trkpt><trkpt lat="44.2247667" lon="11.0815233"><ele>497.0</ele><time>2026-04-09T10:04:32.941Z</time></trkpt><trkpt lat="44.2246883" lon="11.0813633"><ele>497.0</ele><time>2026-04-09T10:04:33.941Z</time></trkpt><trkpt lat="44.224605" lon="11.08121"><ele>495.5</ele><time>2026-04-09T10:04:34.942Z</time></trkpt><trkpt lat="44.2245217" lon="11.0810717"><ele>494.0</ele><time>2026-04-09T10:04:35.941Z</time></trkpt><trkpt lat="44.2244333" lon="11.08094"><ele>492.5</ele><time>2026-04-09T10:04:36.942Z</time></trkpt><trkpt lat="44.2243433" lon="11.0808133"><ele>491.0</ele><time>2026-04-09T10:04:37.941Z</time></trkpt><trkpt lat="44.2242533" lon="11.0806833"><ele>491.0</ele><time>2026-04-09T10:04:38.941Z</time></trkpt><trkpt lat="44.2241683" lon="11.08055"><ele>491.0</ele><time>2026-04-09T10:04:39.941Z</time></trkpt><trkpt lat="44.224095" lon="11.0803983"><ele>491.0</ele><time>2026-04-09T10:04:40.941Z</time></trkpt><trkpt lat="44.224045" lon="11.0802367"><ele>491.0</ele><time>2026-04-09T10:04:41.941Z</time></trkpt><trkpt lat="44.2240067" lon="11.08006"><ele>491.8</ele><time>2026-04-09T10:04:42.941Z</time></trkpt><trkpt lat="44.2239817" lon="11.0798967"><ele>492.6</ele><time>2026-04-09T10:04:43.941Z</time></trkpt><trkpt lat="44.22396" lon="11.0797517"><ele>493.4</ele><time>2026-04-09T10:04:44.942Z</time></trkpt><trkpt lat="44.2239617" lon="11.079605"><ele>494.2</ele><time>2026-04-09T10:04:45.942Z</time></trkpt><trkpt lat="44.2239867" lon="11.079465"><ele>495.0</ele><time>2026-04-09T10:04:46.942Z</time></trkpt><trkpt lat="44.224015" lon="11.0793283"><ele>495.0</ele><time>2026-04-09T10:04:47.941Z</time></trkpt><trkpt lat="44.224035" lon="11.0791867"><ele>495.0</ele><time>2026-04-09T10:04:48.941Z</time></trkpt><trkpt lat="44.2240533" lon="11.0790467"><ele>495.0</ele><time>2026-04-09T10:04:49.941Z</time></trkpt><trkpt lat="44.22404" lon="11.0788867"><ele>495.0</ele><time>2026-04-09T10:04:50.942Z</time></trkpt><trkpt lat="44.2240133" lon="11.0787167"><ele>495.0</ele><time>2026-04-09T10:04:51.941Z</time></trkpt><trkpt lat="44.2239783" lon="11.0785467"><ele>495.75</ele><time>2026-04-09T10:04:52.941Z</time></trkpt><trkpt lat="44.22394" lon="11.0783733"><ele>496.5</ele><time>2026-04-09T10:04:53.941Z</time></trkpt><trkpt lat="44.2238983" lon="11.0781967"><ele>497.25</ele><time>2026-04-09T10:04:54.941Z</time></trkpt><trkpt lat="44.2238517" lon="11.07802"><ele>498.0</ele><time>2026-04-09T10:04:55.941Z</time></trkpt><trkpt lat="44.2237983" lon="11.0778483"><ele>498.0</ele><time>2026-04-09T10:04:56.941Z</time></trkpt><trkpt lat="44.2237283" lon="11.077685"><ele>498.0</ele><time>2026-04-09T10:04:57.941Z</time></trkpt><trkpt lat="44.2236417" lon="11.07753"><ele>498.0</ele><time>2026-04-09T10:04:58.942Z</time></trkpt><trkpt lat="44.2235467" lon="11.0773733"><ele>498.0</ele><time>2026-04-09T10:04:59.941Z</time></trkpt><trkpt lat="44.2234533" lon="11.07722"><ele>496.0</ele><time>2026-04-09T10:05:00.941Z</time></trkpt><trkpt lat="44.2233683" lon="11.0770683"><ele>494.0</ele><time>2026-04-09T10:05:01.941Z</time></trkpt><trkpt lat="44.2233" lon="11.076925"><ele>492.0</ele><time>2026-04-09T10:05:02.941Z</time></trkpt><trkpt lat="44.22324" lon="11.0767983"><ele>490.0</ele><time>2026-04-09T10:05:03.941Z</time></trkpt><trkpt lat="44.2231683" lon="11.0766883"><ele>490.25</ele><time>2026-04-09T10:05:04.942Z</time></trkpt><trkpt lat="44.2230833" lon="11.076585"><ele>490.5</ele><time>2026-04-09T10:05:05.941Z</time></trkpt><trkpt lat="44.22299" lon="11.0764833"><ele>490.75</ele><time>2026-04-09T10:05:06.941Z</time></trkpt><trkpt lat="44.22289" lon="11.076385"><ele>491.0</ele><time>2026-04-09T10:05:07.941Z</time></trkpt><trkpt lat="44.2227983" lon="11.0762967"><ele>491.0</ele><time>2026-04-09T10:05:08.941Z</time></trkpt><trkpt lat="44.222705" lon="11.0762117"><ele>491.0</ele><time>2026-04-09T10:05:09.941Z</time></trkpt><trkpt lat="44.2226183" lon="11.0761383"><ele>491.0</ele><time>2026-04-09T10:05:10.942Z</time></trkpt><trkpt lat="44.2225317" lon="11.0760833"><ele>491.0</ele><time>2026-04-09T10:05:11.941Z</time></trkpt><trkpt lat="44.2224417" lon="11.0760433"><ele>491.0</ele><time>2026-04-09T10:05:12.941Z</time></trkpt><trkpt lat="44.2223567" lon="11.07601"><ele>489.16666666666663</ele><time>2026-04-09T10:05:13.941Z</time></trkpt><trkpt lat="44.2222717" lon="11.0759933"><ele>487.3333333333333</ele><time>2026-04-09T10:05:14.941Z</time></trkpt><trkpt lat="44.222195" lon="11.07599"><ele>485.5</ele><time>2026-04-09T10:05:15.941Z</time></trkpt><trkpt lat="44.2221083" lon="11.0760183"><ele>483.66666666666663</ele><time>2026-04-09T10:05:16.941Z</time></trkpt><trkpt lat="44.2220167" lon="11.076055"><ele>481.8333333333333</ele><time>2026-04-09T10:05:17.941Z</time></trkpt><trkpt lat="44.2219233" lon="11.07611"><ele>480.0</ele><time>2026-04-09T10:05:18.941Z</time></trkpt><trkpt lat="44.2218317" lon="11.076165"><ele>480.0</ele><time>2026-04-09T10:05:19.941Z</time></trkpt><trkpt lat="44.2217417" lon="11.0762217"><ele>480.0</ele><time>2026-04-09T10:05:20.941Z</time></trkpt><trkpt lat="44.221655" lon="11.076275"><ele>480.0</ele><time>2026-04-09T10:05:21.942Z</time></trkpt><trkpt lat="44.2215833" lon="11.0763167"><ele>480.0</ele><time>2026-04-09T10:05:22.941Z</time></trkpt><trkpt lat="44.2215183" lon="11.0763583"><ele>480.0</ele><time>2026-04-09T10:05:23.94Z</time></trkpt><trkpt lat="44.221415" lon="11.0764083"><ele>480.2</ele><time>2026-04-09T10:05:25.94Z</time></trkpt><trkpt lat="44.2213333" lon="11.07646"><ele>480.4</ele><time>2026-04-09T10:05:27.94Z</time></trkpt><trkpt lat="44.2212483" lon="11.0765217"><ele>480.6</ele><time>2026-04-09T10:05:29.94Z</time></trkpt><trkpt lat="44.221125" lon="11.076535"><ele>480.8</ele><time>2026-04-09T10:05:31.94Z</time></trkpt><trkpt lat="44.22105" lon="11.0765017"><ele>481.0</ele><time>2026-04-09T10:05:32.94Z</time></trkpt><trkpt lat="44.2209683" lon="11.0764417"><ele>481.00000000000006</ele><time>2026-04-09T10:05:33.94Z</time></trkpt><trkpt lat="44.2208883" lon="11.0763983"><ele>481.0</ele><time>2026-04-09T10:05:34.941Z</time></trkpt><trkpt lat="44.2208083" lon="11.076385"><ele>481.0</ele><time>2026-04-09T10:05:35.94Z</time></trkpt><trkpt lat="44.2207217" lon="11.076405"><ele>481.0</ele><time>2026-04-09T10:05:36.94Z</time></trkpt><trkpt lat="44.2206383" lon="11.0764617"><ele>481.00000000000006</ele><time>2026-04-09T10:05:37.94Z</time></trkpt><trkpt lat="44.2205567" lon="11.0765117"><ele>481.0</ele><time>2026-04-09T10:05:38.94Z</time></trkpt><trkpt lat="44.2204917" lon="11.0765467"><ele>482.50000000000006</ele><time>2026-04-09T10:05:39.94Z</time></trkpt><trkpt lat="44.2204167" lon="11.0765583"><ele>484.0</ele><time>2026-04-09T10:05:40.94Z</time></trkpt><trkpt lat="44.2203433" lon="11.0765383"><ele>485.5</ele><time>2026-04-09T10:05:41.94Z</time></trkpt><trkpt lat="44.2202783" lon="11.0764917"><ele>487.0</ele><time>2026-04-09T10:05:42.94Z</time></trkpt><trkpt lat="44.220225" lon="11.0764083"><ele>488.50000000000006</ele><time>2026-04-09T10:05:43.94Z</time></trkpt><trkpt lat="44.2201717" lon="11.0763267"><ele>490.0</ele><time>2026-04-09T10:05:44.941Z</time></trkpt><trkpt lat="44.220115" lon="11.0762467"><ele>490.0</ele><time>2026-04-09T10:05:45.94Z</time></trkpt><trkpt lat="44.2200233" lon="11.0761683"><ele>490.0</ele><time>2026-04-09T10:05:46.94Z</time></trkpt><trkpt lat="44.2199317" lon="11.0761067"><ele>490.0</ele><time>2026-04-09T10:05:47.94Z</time></trkpt><trkpt lat="44.2198233" lon="11.0760367"><ele>490.0</ele><time>2026-04-09T10:05:48.94Z</time></trkpt><trkpt lat="44.2197067" lon="11.07597"><ele>492.25</ele><time>2026-04-09T10:05:49.94Z</time></trkpt><trkpt lat="44.2195933" lon="11.0759033"><ele>494.5</ele><time>2026-04-09T10:05:50.94Z</time></trkpt><trkpt lat="44.2194883" lon="11.0758367"><ele>496.75</ele><time>2026-04-09T10:05:51.941Z</time></trkpt><trkpt lat="44.2193883" lon="11.0757683"><ele>499.0</ele><time>2026-04-09T10:05:52.94Z</time></trkpt><trkpt lat="44.219295" lon="11.0756967"><ele>499.0</ele><time>2026-04-09T10:05:53.94Z</time></trkpt><trkpt lat="44.2192017" lon="11.0756033"><ele>499.0</ele><time>2026-04-09T10:05:54.94Z</time></trkpt><trkpt lat="44.2191067" lon="11.075505"><ele>499.0</ele><time>2026-04-09T10:05:55.94Z</time></trkpt><trkpt lat="44.2190283" lon="11.0753983"><ele>499.0</ele><time>2026-04-09T10:05:56.94Z</time></trkpt><trkpt lat="44.2189583" lon="11.0752767"><ele>500.0</ele><time>2026-04-09T10:05:57.94Z</time></trkpt><trkpt lat="44.218895" lon="11.0751567"><ele>501.0</ele><time>2026-04-09T10:05:58.94Z</time></trkpt><trkpt lat="44.2188267" lon="11.0750517"><ele>502.0</ele><time>2026-04-09T10:05:59.94Z</time></trkpt><trkpt lat="44.218755" lon="11.0749467"><ele>503.0</ele><time>2026-04-09T10:06:00.94Z</time></trkpt><trkpt lat="44.21868" lon="11.0748483"><ele>504.0</ele><time>2026-04-09T10:06:01.941Z</time></trkpt><trkpt lat="44.218605" lon="11.074755"><ele>504.0</ele><time>2026-04-09T10:06:02.94Z</time></trkpt><trkpt lat="44.21852" lon="11.074665"><ele>504.0</ele><time>2026-04-09T10:06:03.94Z</time></trkpt><trkpt lat="44.2184317" lon="11.074575"><ele>504.0</ele><time>2026-04-09T10:06:04.94Z</time></trkpt><trkpt lat="44.2183283" lon="11.0745117"><ele>504.0</ele><time>2026-04-09T10:06:05.94Z</time></trkpt><trkpt lat="44.218215" lon="11.0744717"><ele>504.0</ele><time>2026-04-09T10:06:06.941Z</time></trkpt><trkpt lat="44.2181017" lon="11.07445"><ele>508.0</ele><time>2026-04-09T10:06:07.94Z</time></trkpt><trkpt lat="44.2180017" lon="11.0744233"><ele>512.0</ele><time>2026-04-09T10:06:08.94Z</time></trkpt><trkpt lat="44.2179083" lon="11.0744067"><ele>516.0</ele><time>2026-04-09T10:06:09.94Z</time></trkpt><trkpt lat="44.21783" lon="11.07437"><ele>520.0</ele><time>2026-04-09T10:06:10.94Z</time></trkpt><trkpt lat="44.2177533" lon="11.0742933"><ele>524.0</ele><time>2026-04-09T10:06:11.94Z</time></trkpt><trkpt lat="44.217695" lon="11.0741833"><ele>522.6</ele><time>2026-04-09T10:06:12.941Z</time></trkpt><trkpt lat="44.217645" lon="11.0740733"><ele>521.2</ele><time>2026-04-09T10:06:13.94Z</time></trkpt><trkpt lat="44.2175833" lon="11.07396"><ele>519.8000000000001</ele><time>2026-04-09T10:06:14.941Z</time></trkpt><trkpt lat="44.2175217" lon="11.0738533"><ele>518.4</ele><time>2026-04-09T10:06:15.941Z</time></trkpt><trkpt lat="44.2174483" lon="11.0737517"><ele>517.0</ele><time>2026-04-09T10:06:16.94Z</time></trkpt><trkpt lat="44.2173733" lon="11.07369"><ele>516.6666666666667</ele><time>2026-04-09T10:06:17.94Z</time></trkpt><trkpt lat="44.2173083" lon="11.07366"><ele>516.3333333333334</ele><time>2026-04-09T10:06:18.94Z</time></trkpt><trkpt lat="44.2172333" lon="11.07367"><ele>516.0</ele><time>2026-04-09T10:06:19.94Z</time></trkpt><trkpt lat="44.21717" lon="11.0737183"><ele>515.6666666666666</ele><time>2026-04-09T10:06:20.94Z</time></trkpt><trkpt lat="44.2171267" lon="11.0738017"><ele>515.3333333333333</ele><time>2026-04-09T10:06:21.94Z</time></trkpt><trkpt lat="44.217125" lon="11.07394"><ele>515.0</ele><time>2026-04-09T10:06:22.94Z</time></trkpt><trkpt lat="44.2171517" lon="11.0740517"><ele>515.8</ele><time>2026-04-09T10:06:23.94Z</time></trkpt><trkpt lat="44.217205" lon="11.0741567"><ele>516.6</ele><time>2026-04-09T10:06:24.941Z</time></trkpt><trkpt lat="44.217285" lon="11.0742267"><ele>517.4</ele><time>2026-04-09T10:06:25.94Z</time></trkpt><trkpt lat="44.217375" lon="11.0742833"><ele>518.2</ele><time>2026-04-09T10:06:26.94Z</time></trkpt><trkpt lat="44.2174483" lon="11.07436"><ele>519.0</ele><time>2026-04-09T10:06:27.94Z</time></trkpt><trkpt lat="44.217505" lon="11.07446"><ele>520.0</ele><time>2026-04-09T10:06:28.94Z</time></trkpt><trkpt lat="44.217565" lon="11.0745917"><ele>521.0</ele><time>2026-04-09T10:06:29.941Z</time></trkpt><trkpt lat="44.2176167" lon="11.074725"><ele>522.0</ele><time>2026-04-09T10:06:30.94Z</time></trkpt><trkpt lat="44.217655" lon="11.074855"><ele>523.0</ele><time>2026-04-09T10:06:31.94Z</time></trkpt><trkpt lat="44.21768" lon="11.0749833"><ele>524.0</ele><time>2026-04-09T10:06:32.941Z</time></trkpt><trkpt lat="44.2176983" lon="11.0751117"><ele>525.5</ele><time>2026-04-09T10:06:33.94Z</time></trkpt><trkpt lat="44.2177167" lon="11.0752533"><ele>527.0</ele><time>2026-04-09T10:06:34.94Z</time></trkpt><trkpt lat="44.2177283" lon="11.07541"><ele>528.5</ele><time>2026-04-09T10:06:35.94Z</time></trkpt><trkpt lat="44.217735" lon="11.0755767"><ele>530.0</ele><time>2026-04-09T10:06:36.941Z</time></trkpt><trkpt lat="44.217745" lon="11.0757433"><ele>530.6</ele><time>2026-04-09T10:06:37.941Z</time></trkpt><trkpt lat="44.2177567" lon="11.0759017"><ele>531.2</ele><time>2026-04-09T10:06:38.941Z</time></trkpt><trkpt lat="44.2177667" lon="11.0760433"><ele>531.8</ele><time>2026-04-09T10:06:39.94Z</time></trkpt><trkpt lat="44.2177633" lon="11.076185"><ele>532.4</ele><time>2026-04-09T10:06:40.94Z</time></trkpt><trkpt lat="44.2177483" lon="11.0763233"><ele>533.0</ele><time>2026-04-09T10:06:41.94Z</time></trkpt><trkpt lat="44.2177117" lon="11.07647"><ele>534.8</ele><time>2026-04-09T10:06:42.94Z</time></trkpt><trkpt lat="44.21766" lon="11.0766117"><ele>536.5999999999999</ele><time>2026-04-09T10:06:43.94Z</time></trkpt><trkpt lat="44.2176067" lon="11.076745"><ele>538.4000000000001</ele><time>2026-04-09T10:06:44.94Z</time></trkpt><trkpt lat="44.2175583" lon="11.0768617"><ele>540.2</ele><time>2026-04-09T10:06:45.94Z</time></trkpt><trkpt lat="44.2175183" lon="11.0769667"><ele>542.0</ele><time>2026-04-09T10:06:46.94Z</time></trkpt><trkpt lat="44.2174967" lon="11.0770633"><ele>542.0</ele><time>2026-04-09T10:06:47.941Z</time></trkpt><trkpt lat="44.217485" lon="11.0771633"><ele>542.0</ele><time>2026-04-09T10:06:48.94Z</time></trkpt><trkpt lat="44.2175183" lon="11.077305"><ele>542.0</ele><time>2026-04-09T10:06:50.94Z</time></trkpt><trkpt lat="44.2175517" lon="11.07738"><ele>542.0</ele><time>2026-04-09T10:06:51.941Z</time></trkpt><trkpt lat="44.2175867" lon="11.0774733"><ele>542.0</ele><time>2026-04-09T10:06:52.94Z</time></trkpt><trkpt lat="44.217625" lon="11.0775767"><ele>542.0</ele><time>2026-04-09T10:06:53.941Z</time></trkpt><trkpt lat="44.2176583" lon="11.077685"><ele>545.2</ele><time>2026-04-09T10:06:54.94Z</time></trkpt><trkpt lat="44.2176867" lon="11.0778167"><ele>548.4000000000001</ele><time>2026-04-09T10:06:55.94Z</time></trkpt><trkpt lat="44.2177117" lon="11.0779567"><ele>551.5999999999999</ele><time>2026-04-09T10:06:56.94Z</time></trkpt><trkpt lat="44.2177317" lon="11.078095"><ele>554.8</ele><time>2026-04-09T10:06:57.94Z</time></trkpt><trkpt lat="44.2177483" lon="11.0782367"><ele>558.0</ele><time>2026-04-09T10:06:58.94Z</time></trkpt><trkpt lat="44.2177667" lon="11.078345"><ele>558.0</ele><time>2026-04-09T10:06:59.94Z</time></trkpt><trkpt lat="44.2177817" lon="11.0784367"><ele>558.0</ele><time>2026-04-09T10:07:00.94Z</time></trkpt><trkpt lat="44.2177717" lon="11.0785667"><ele>558.0</ele><time>2026-04-09T10:07:02.94Z</time></trkpt><trkpt lat="44.2176783" lon="11.0785267"><ele>558.0</ele><time>2026-04-09T10:07:05.94Z</time></trkpt><trkpt lat="44.2176533" lon="11.0784317"><ele>558.0</ele><time>2026-04-09T10:07:06.94Z</time></trkpt><trkpt lat="44.21763" lon="11.0783133"><ele>558.0</ele><time>2026-04-09T10:07:07.94Z</time></trkpt><trkpt lat="44.2176083" lon="11.07818"><ele>558.0</ele><time>2026-04-09T10:07:08.94Z</time></trkpt><trkpt lat="44.2175883" lon="11.0780517"><ele>558.0</ele><time>2026-04-09T10:07:09.94Z</time></trkpt><trkpt lat="44.2175783" lon="11.07793"><ele>558.0</ele><time>2026-04-09T10:07:10.94Z</time></trkpt><trkpt lat="44.21754" lon="11.07781"><ele>558.0</ele><time>2026-04-09T10:07:11.94Z</time></trkpt><trkpt lat="44.2174833" lon="11.07771"><ele>558.0</ele><time>2026-04-09T10:07:12.94Z</time></trkpt><trkpt lat="44.2174117" lon="11.0776367"><ele>558.0</ele><time>2026-04-09T10:07:13.94Z</time></trkpt><trkpt lat="44.217335" lon="11.0776083"><ele>558.0</ele><time>2026-04-09T10:07:14.941Z</time></trkpt><trkpt lat="44.2172533" lon="11.077615"><ele>558.0</ele><time>2026-04-09T10:07:15.94Z</time></trkpt><trkpt lat="44.2171617" lon="11.0776533"><ele>558.0</ele><time>2026-04-09T10:07:16.941Z</time></trkpt><trkpt lat="44.2170717" lon="11.0777117"><ele>558.0</ele><time>2026-04-09T10:07:17.94Z</time></trkpt><trkpt lat="44.216975" lon="11.0778017"><ele>556.5</ele><time>2026-04-09T10:07:18.941Z</time></trkpt><trkpt lat="44.2168933" lon="11.0779233"><ele>555.0</ele><time>2026-04-09T10:07:19.94Z</time></trkpt><trkpt lat="44.2168233" lon="11.0780883"><ele>553.5</ele><time>2026-04-09T10:07:20.94Z</time></trkpt><trkpt lat="44.2167683" lon="11.07828"><ele>552.0</ele><time>2026-04-09T10:07:21.94Z</time></trkpt><trkpt lat="44.21672" lon="11.0784233"><ele>556.4</ele><time>2026-04-09T10:07:22.94Z</time></trkpt><trkpt lat="44.2166667" lon="11.0785533"><ele>560.8000000000001</ele><time>2026-04-09T10:07:23.94Z</time></trkpt><trkpt lat="44.2166117" lon="11.0786767"><ele>565.2</ele><time>2026-04-09T10:07:24.94Z</time></trkpt><trkpt lat="44.2165567" lon="11.0787917"><ele>569.6</ele><time>2026-04-09T10:07:25.94Z</time></trkpt><trkpt lat="44.2165017" lon="11.0789117"><ele>574.0</ele><time>2026-04-09T10:07:26.94Z</time></trkpt><trkpt lat="44.2164567" lon="11.0790333"><ele>577.0</ele><time>2026-04-09T10:07:27.94Z</time></trkpt><trkpt lat="44.2164" lon="11.0791433"><ele>580.0</ele><time>2026-04-09T10:07:28.94Z</time></trkpt><trkpt lat="44.2163333" lon="11.0792283"><ele>583.0</ele><time>2026-04-09T10:07:29.94Z</time></trkpt><trkpt lat="44.2162567" lon="11.0793033"><ele>586.0</ele><time>2026-04-09T10:07:30.94Z</time></trkpt><trkpt lat="44.2161583" lon="11.0793533"><ele>589.0</ele><time>2026-04-09T10:07:31.94Z</time></trkpt><trkpt lat="44.2160667" lon="11.0793883"><ele>589.0</ele><time>2026-04-09T10:07:32.941Z</time></trkpt><trkpt lat="44.2159733" lon="11.0794167"><ele>589.0</ele><time>2026-04-09T10:07:33.941Z</time></trkpt><trkpt lat="44.2158733" lon="11.0794067"><ele>589.0</ele><time>2026-04-09T10:07:34.94Z</time></trkpt><trkpt lat="44.2157817" lon="11.079365"><ele>589.0</ele><time>2026-04-09T10:07:35.94Z</time></trkpt><trkpt lat="44.215705" lon="11.07933"><ele>589.0</ele><time>2026-04-09T10:07:36.941Z</time></trkpt><trkpt lat="44.2156" lon="11.0793417"><ele>589.0</ele><time>2026-04-09T10:07:38.94Z</time></trkpt><trkpt lat="44.2155617" lon="11.0794717"><ele>589.0</ele><time>2026-04-09T10:07:40.941Z</time></trkpt><trkpt lat="44.21558" lon="11.0795583"><ele>589.0</ele><time>2026-04-09T10:07:41.94Z</time></trkpt><trkpt lat="44.21566" lon="11.0796067"><ele>589.0</ele><time>2026-04-09T10:07:42.94Z</time></trkpt><trkpt lat="44.2157483" lon="11.07963"><ele>589.0</ele><time>2026-04-09T10:07:43.941Z</time></trkpt><trkpt lat="44.2158383" lon="11.079645"><ele>589.0</ele><time>2026-04-09T10:07:44.941Z</time></trkpt><trkpt lat="44.2159283" lon="11.07965"><ele>589.0</ele><time>2026-04-09T10:07:45.94Z</time></trkpt><trkpt lat="44.216015" lon="11.0796517"><ele>589.0</ele><time>2026-04-09T10:07:46.941Z</time></trkpt><trkpt lat="44.2160867" lon="11.0796533"><ele>589.0</ele><time>2026-04-09T10:07:47.94Z</time></trkpt><trkpt lat="44.2161533" lon="11.079645"><ele>589.0</ele><time>2026-04-09T10:07:48.94Z</time></trkpt><trkpt lat="44.2162183" lon="11.0796217"><ele>589.0</ele><time>2026-04-09T10:07:49.94Z</time></trkpt><trkpt lat="44.2162783" lon="11.0795933"><ele>589.0</ele><time>2026-04-09T10:07:50.94Z</time></trkpt><trkpt lat="44.2163983" lon="11.0795867"><ele>590.0</ele><time>2026-04-09T10:07:52.941Z</time></trkpt><trkpt lat="44.2164883" lon="11.0796833"><ele>591.0</ele><time>2026-04-09T10:07:54.94Z</time></trkpt><trkpt lat="44.2165367" lon="11.0798367"><ele>592.0</ele><time>2026-04-09T10:07:56.941Z</time></trkpt><trkpt lat="44.2165083" lon="11.079995"><ele>593.0</ele><time>2026-04-09T10:07:58.94Z</time></trkpt><trkpt lat="44.2164633" lon="11.0800583"><ele>594.0</ele><time>2026-04-09T10:07:59.94Z</time></trkpt><trkpt lat="44.2164117" lon="11.0801117"><ele>594.1666666666666</ele><time>2026-04-09T10:08:00.94Z</time></trkpt><trkpt lat="44.2163567" lon="11.08016"><ele>594.3333333333334</ele><time>2026-04-09T10:08:01.94Z</time></trkpt><trkpt lat="44.2162717" lon="11.0802233"><ele>594.5</ele><time>2026-04-09T10:08:03.94Z</time></trkpt><trkpt lat="44.216185" lon="11.0802717"><ele>594.6666666666667</ele><time>2026-04-09T10:08:05.941Z</time></trkpt><trkpt lat="44.2160983" lon="11.0802983"><ele>594.8333333333334</ele><time>2026-04-09T10:08:07.94Z</time></trkpt><trkpt lat="44.216005" lon="11.0803217"><ele>595.0</ele><time>2026-04-09T10:08:09.941Z</time></trkpt><trkpt lat="44.2158883" lon="11.0803133"><ele>595.0</ele><time>2026-04-09T10:08:11.941Z</time></trkpt><trkpt lat="44.2158267" lon="11.08029"><ele>595.0</ele><time>2026-04-09T10:08:12.94Z</time></trkpt><trkpt lat="44.2157667" lon="11.0802617"><ele>595.0</ele><time>2026-04-09T10:08:13.94Z</time></trkpt><trkpt lat="44.2157" lon="11.0802367"><ele>595.0</ele><time>2026-04-09T10:08:14.94Z</time></trkpt><trkpt lat="44.215635" lon="11.0802117"><ele>595.0</ele><time>2026-04-09T10:08:15.94Z</time></trkpt><trkpt lat="44.215565" lon="11.0801933"><ele>595.0</ele><time>2026-04-09T10:08:16.941Z</time></trkpt><trkpt lat="44.2154983" lon="11.080195"><ele>595.0</ele><time>2026-04-09T10:08:17.94Z</time></trkpt><trkpt lat="44.21544" lon="11.0802283"><ele>594.1666666666667</ele><time>2026-04-09T10:08:18.94Z</time></trkpt><trkpt lat="44.2153733" lon="11.0803367"><ele>593.3333333333334</ele><time>2026-04-09T10:08:20.94Z</time></trkpt><trkpt lat="44.21536" lon="11.0804383"><ele>592.5</ele><time>2026-04-09T10:08:21.94Z</time></trkpt><trkpt lat="44.2153583" lon="11.0805533"><ele>591.6666666666666</ele><time>2026-04-09T10:08:22.941Z</time></trkpt><trkpt lat="44.2153617" lon="11.08066"><ele>590.8333333333333</ele><time>2026-04-09T10:08:23.94Z</time></trkpt><trkpt lat="44.215365" lon="11.08076"><ele>590.0</ele><time>2026-04-09T10:08:24.94Z</time></trkpt><trkpt lat="44.215365" lon="11.080945"><ele>589.6666666666666</ele><time>2026-04-09T10:08:26.94Z</time></trkpt><trkpt lat="44.2153533" lon="11.0810567"><ele>589.3333333333333</ele><time>2026-04-09T10:08:27.94Z</time></trkpt><trkpt lat="44.2153367" lon="11.0811667"><ele>589.0</ele><time>2026-04-09T10:08:28.94Z</time></trkpt><trkpt lat="44.21531" lon="11.081275"><ele>588.6666666666666</ele><time>2026-04-09T10:08:29.94Z</time></trkpt><trkpt lat="44.2152567" lon="11.081375"><ele>588.3333333333334</ele><time>2026-04-09T10:08:30.94Z</time></trkpt><trkpt lat="44.2151933" lon="11.0814517"><ele>588.0</ele><time>2026-04-09T10:08:31.94Z</time></trkpt><trkpt lat="44.2151067" lon="11.0815117"><ele>588.0</ele><time>2026-04-09T10:08:32.94Z</time></trkpt><trkpt lat="44.2149967" lon="11.0815583"><ele>588.0</ele><time>2026-04-09T10:08:33.94Z</time></trkpt><trkpt lat="44.21488" lon="11.081615"><ele>588.0</ele><time>2026-04-09T10:08:34.94Z</time></trkpt><trkpt lat="44.21476" lon="11.0816833"><ele>588.0</ele><time>2026-04-09T10:08:35.94Z</time></trkpt><trkpt lat="44.2146517" lon="11.081765"><ele>587.5</ele><time>2026-04-09T10:08:36.94Z</time></trkpt><trkpt lat="44.2145467" lon="11.0818517"><ele>587.0</ele><time>2026-04-09T10:08:37.94Z</time></trkpt><trkpt lat="44.2144483" lon="11.0819633"><ele>586.5</ele><time>2026-04-09T10:08:38.941Z</time></trkpt><trkpt lat="44.2143533" lon="11.0820817"><ele>586.0</ele><time>2026-04-09T10:08:39.941Z</time></trkpt><trkpt lat="44.2142617" lon="11.0821867"><ele>586.0</ele><time>2026-04-09T10:08:40.94Z</time></trkpt><trkpt lat="44.2141733" lon="11.0822817"><ele>586.0</ele><time>2026-04-09T10:08:41.94Z</time></trkpt><trkpt lat="44.214085" lon="11.0823583"><ele>586.0</ele><time>2026-04-09T10:08:42.94Z</time></trkpt><trkpt lat="44.2139983" lon="11.0824017"><ele>586.0</ele><time>2026-04-09T10:08:43.941Z</time></trkpt><trkpt lat="44.2138883" lon="11.08241"><ele>586.0</ele><time>2026-04-09T10:08:44.941Z</time></trkpt><trkpt lat="44.2137817" lon="11.0823883"><ele>587.6</ele><time>2026-04-09T10:08:45.94Z</time></trkpt><trkpt lat="44.2136767" lon="11.0823567"><ele>589.2</ele><time>2026-04-09T10:08:46.94Z</time></trkpt><trkpt lat="44.21358" lon="11.08231"><ele>590.8</ele><time>2026-04-09T10:08:47.94Z</time></trkpt><trkpt lat="44.213495" lon="11.0822417"><ele>592.4</ele><time>2026-04-09T10:08:48.941Z</time></trkpt><trkpt lat="44.2134183" lon="11.082135"><ele>594.0</ele><time>2026-04-09T10:08:49.94Z</time></trkpt><trkpt lat="44.2133583" lon="11.0820117"><ele>594.0</ele><time>2026-04-09T10:08:50.941Z</time></trkpt><trkpt lat="44.2132933" lon="11.08188"><ele>594.0</ele><time>2026-04-09T10:08:51.941Z</time></trkpt><trkpt lat="44.2132233" lon="11.0817667"><ele>594.0</ele><time>2026-04-09T10:08:52.94Z</time></trkpt><trkpt lat="44.2131517" lon="11.0816883"><ele>594.0</ele><time>2026-04-09T10:08:53.94Z</time></trkpt><trkpt lat="44.2130717" lon="11.0816567"><ele>594.0</ele><time>2026-04-09T10:08:54.94Z</time></trkpt><trkpt lat="44.21298" lon="11.0816667"><ele>595.5</ele><time>2026-04-09T10:08:55.94Z</time></trkpt><trkpt lat="44.2128783" lon="11.08172"><ele>597.0</ele><time>2026-04-09T10:08:56.94Z</time></trkpt><trkpt lat="44.212765" lon="11.0817833"><ele>598.5</ele><time>2026-04-09T10:08:57.94Z</time></trkpt><trkpt lat="44.212645" lon="11.081845"><ele>600.0</ele><time>2026-04-09T10:08:58.94Z</time></trkpt><trkpt lat="44.2125217" lon="11.0819033"><ele>600.0</ele><time>2026-04-09T10:08:59.94Z</time></trkpt><trkpt lat="44.2124117" lon="11.0819367"><ele>600.0</ele><time>2026-04-09T10:09:00.94Z</time></trkpt><trkpt lat="44.2123017" lon="11.081955"><ele>600.0</ele><time>2026-04-09T10:09:01.94Z</time></trkpt><trkpt lat="44.2121833" lon="11.0819267"><ele>600.0</ele><time>2026-04-09T10:09:02.94Z</time></trkpt><trkpt lat="44.2120717" lon="11.0818933"><ele>602.6</ele><time>2026-04-09T10:09:03.941Z</time></trkpt><trkpt lat="44.2119617" lon="11.0818717"><ele>605.2</ele><time>2026-04-09T10:09:04.941Z</time></trkpt><trkpt lat="44.2118567" lon="11.0818633"><ele>607.8</ele><time>2026-04-09T10:09:05.941Z</time></trkpt><trkpt lat="44.211755" lon="11.0818717"><ele>610.4</ele><time>2026-04-09T10:09:06.94Z</time></trkpt><trkpt lat="44.2116433" lon="11.081895"><ele>613.0</ele><time>2026-04-09T10:09:07.94Z</time></trkpt><trkpt lat="44.2115467" lon="11.08193"><ele>616.0</ele><time>2026-04-09T10:09:08.94Z</time></trkpt><trkpt lat="44.2114233" lon="11.0819483"><ele>619.0</ele><time>2026-04-09T10:09:09.94Z</time></trkpt><trkpt lat="44.21131" lon="11.0819633"><ele>622.0</ele><time>2026-04-09T10:09:10.94Z</time></trkpt><trkpt lat="44.2111933" lon="11.0819517"><ele>625.0</ele><time>2026-04-09T10:09:11.941Z</time></trkpt><trkpt lat="44.2110767" lon="11.081905"><ele>625.0</ele><time>2026-04-09T10:09:12.94Z</time></trkpt><trkpt lat="44.21097" lon="11.0818167"><ele>625.0</ele><time>2026-04-09T10:09:13.94Z</time></trkpt><trkpt lat="44.2108733" lon="11.0817017"><ele>625.0</ele><time>2026-04-09T10:09:14.94Z</time></trkpt><trkpt lat="44.21079" lon="11.0815933"><ele>625.0</ele><time>2026-04-09T10:09:15.941Z</time></trkpt><trkpt lat="44.2107" lon="11.0814917"><ele>628.8</ele><time>2026-04-09T10:09:16.94Z</time></trkpt><trkpt lat="44.2106267" lon="11.0814"><ele>632.6</ele><time>2026-04-09T10:09:17.94Z</time></trkpt><trkpt lat="44.2105733" lon="11.0812867"><ele>636.4000000000001</ele><time>2026-04-09T10:09:18.94Z</time></trkpt><trkpt lat="44.21054" lon="11.08117"><ele>640.2</ele><time>2026-04-09T10:09:19.94Z</time></trkpt><trkpt lat="44.210525" lon="11.08103"><ele>644.0</ele><time>2026-04-09T10:09:20.941Z</time></trkpt><trkpt lat="44.2105167" lon="11.0808883"><ele>641.0</ele><time>2026-04-09T10:09:21.94Z</time></trkpt><trkpt lat="44.2104867" lon="11.0807467"><ele>638.0</ele><time>2026-04-09T10:09:22.94Z</time></trkpt><trkpt lat="44.2104267" lon="11.08061"><ele>635.0</ele><time>2026-04-09T10:09:23.94Z</time></trkpt><trkpt lat="44.2103417" lon="11.08049"><ele>632.0</ele><time>2026-04-09T10:09:24.94Z</time></trkpt><trkpt lat="44.2102383" lon="11.0803767"><ele>632.0</ele><time>2026-04-09T10:09:25.94Z</time></trkpt><trkpt lat="44.2101483" lon="11.08025"><ele>632.0</ele><time>2026-04-09T10:09:26.94Z</time></trkpt><trkpt lat="44.2100717" lon="11.0801083"><ele>632.0</ele><time>2026-04-09T10:09:27.94Z</time></trkpt><trkpt lat="44.21001" lon="11.07997"><ele>632.0</ele><time>2026-04-09T10:09:28.941Z</time></trkpt><trkpt lat="44.2099833" lon="11.07983"><ele>629.4</ele><time>2026-04-09T10:09:29.94Z</time></trkpt><trkpt lat="44.2099767" lon="11.0796817"><ele>626.8000000000001</ele><time>2026-04-09T10:09:30.941Z</time></trkpt><trkpt lat="44.20997" lon="11.0795567"><ele>624.2</ele><time>2026-04-09T10:09:31.94Z</time></trkpt><trkpt lat="44.20994" lon="11.07944"><ele>621.6</ele><time>2026-04-09T10:09:32.94Z</time></trkpt><trkpt lat="44.2098967" lon="11.0793317"><ele>619.0</ele><time>2026-04-09T10:09:33.94Z</time></trkpt><trkpt lat="44.2098267" lon="11.0792633"><ele>620.6</ele><time>2026-04-09T10:09:34.941Z</time></trkpt><trkpt lat="44.209735" lon="11.079245"><ele>622.2</ele><time>2026-04-09T10:09:35.94Z</time></trkpt><trkpt lat="44.20964" lon="11.079285"><ele>623.8000000000001</ele><time>2026-04-09T10:09:36.941Z</time></trkpt><trkpt lat="44.20956" lon="11.07936"><ele>625.4</ele><time>2026-04-09T10:09:37.94Z</time></trkpt><trkpt lat="44.20948" lon="11.0794217"><ele>627.0</ele><time>2026-04-09T10:09:38.94Z</time></trkpt><trkpt lat="44.20939" lon="11.07946"><ele>627.0</ele><time>2026-04-09T10:09:39.94Z</time></trkpt><trkpt lat="44.20929" lon="11.0794583"><ele>627.0</ele><time>2026-04-09T10:09:40.94Z</time></trkpt><trkpt lat="44.2091867" lon="11.0794417"><ele>627.0</ele><time>2026-04-09T10:09:41.94Z</time></trkpt><trkpt lat="44.209085" lon="11.07944"><ele>627.0</ele><time>2026-04-09T10:09:42.94Z</time></trkpt><trkpt lat="44.20899" lon="11.0794567"><ele>627.0</ele><time>2026-04-09T10:09:43.94Z</time></trkpt><trkpt lat="44.2089083" lon="11.0794883"><ele>625.8000000000001</ele><time>2026-04-09T10:09:44.94Z</time></trkpt><trkpt lat="44.2088283" lon="11.0795317"><ele>624.6</ele><time>2026-04-09T10:09:45.941Z</time></trkpt><trkpt lat="44.2087567" lon="11.0796017"><ele>623.4000000000001</ele><time>2026-04-09T10:09:46.94Z</time></trkpt><trkpt lat="44.2086717" lon="11.0796583"><ele>622.2</ele><time>2026-04-09T10:09:47.94Z</time></trkpt><trkpt lat="44.2085717" lon="11.079705"><ele>621.0</ele><time>2026-04-09T10:09:48.94Z</time></trkpt><trkpt lat="44.208485" lon="11.0797433"><ele>621.0</ele><time>2026-04-09T10:09:49.94Z</time></trkpt><trkpt lat="44.2084017" lon="11.0797883"><ele>621.0</ele><time>2026-04-09T10:09:50.94Z</time></trkpt><trkpt lat="44.2083283" lon="11.0798683"><ele>621.0</ele><time>2026-04-09T10:09:51.941Z</time></trkpt><trkpt lat="44.2082733" lon="11.0800083"><ele>621.0</ele><time>2026-04-09T10:09:52.94Z</time></trkpt><trkpt lat="44.2082317" lon="11.0801533"><ele>621.0</ele><time>2026-04-09T10:09:53.94Z</time></trkpt><trkpt lat="44.2081867" lon="11.0802783"><ele>625.5</ele><time>2026-04-09T10:09:54.94Z</time></trkpt><trkpt lat="44.208135" lon="11.0803583"><ele>630.0</ele><time>2026-04-09T10:09:55.94Z</time></trkpt><trkpt lat="44.208075" lon="11.0804067"><ele>634.5</ele><time>2026-04-09T10:09:56.94Z</time></trkpt><trkpt lat="44.2079967" lon="11.0804117"><ele>639.0</ele><time>2026-04-09T10:09:57.94Z</time></trkpt><trkpt lat="44.207905" lon="11.0803717"><ele>643.5</ele><time>2026-04-09T10:09:58.94Z</time></trkpt><trkpt lat="44.2078183" lon="11.080305"><ele>648.0</ele><time>2026-04-09T10:09:59.94Z</time></trkpt><trkpt lat="44.20772" lon="11.080235"><ele>648.0</ele><time>2026-04-09T10:10:00.941Z</time></trkpt><trkpt lat="44.20762" lon="11.0802"><ele>648.0</ele><time>2026-04-09T10:10:01.94Z</time></trkpt><trkpt lat="44.2075167" lon="11.08018"><ele>648.0</ele><time>2026-04-09T10:10:02.94Z</time></trkpt><trkpt lat="44.207415" lon="11.08016"><ele>648.0</ele><time>2026-04-09T10:10:03.939Z</time></trkpt><trkpt lat="44.2073167" lon="11.0801067"><ele>648.0</ele><time>2026-04-09T10:10:04.939Z</time></trkpt><trkpt lat="44.2072083" lon="11.08006"><ele>649.2</ele><time>2026-04-09T10:10:05.939Z</time></trkpt><trkpt lat="44.207095" lon="11.08001"><ele>650.4</ele><time>2026-04-09T10:10:06.939Z</time></trkpt><trkpt lat="44.2069817" lon="11.0799717"><ele>651.6</ele><time>2026-04-09T10:10:07.94Z</time></trkpt><trkpt lat="44.2068783" lon="11.0799533"><ele>652.8000000000001</ele><time>2026-04-09T10:10:08.939Z</time></trkpt><trkpt lat="44.2067733" lon="11.07996"><ele>654.0</ele><time>2026-04-09T10:10:09.94Z</time></trkpt><trkpt lat="44.2066733" lon="11.0799917"><ele>654.0</ele><time>2026-04-09T10:10:10.939Z</time></trkpt><trkpt lat="44.20657" lon="11.0800333"><ele>654.0</ele><time>2026-04-09T10:10:11.939Z</time></trkpt><trkpt lat="44.2064867" lon="11.0800933"><ele>654.0</ele><time>2026-04-09T10:10:12.939Z</time></trkpt><trkpt lat="44.2064067" lon="11.08016"><ele>654.0</ele><time>2026-04-09T10:10:13.939Z</time></trkpt><trkpt lat="44.206345" lon="11.0802317"><ele>654.0</ele><time>2026-04-09T10:10:14.939Z</time></trkpt><trkpt lat="44.2062817" lon="11.0803117"><ele>654.8000000000001</ele><time>2026-04-09T10:10:15.939Z</time></trkpt><trkpt lat="44.206215" lon="11.0803917"><ele>655.6</ele><time>2026-04-09T10:10:16.939Z</time></trkpt><trkpt lat="44.20614" lon="11.080485"><ele>656.4</ele><time>2026-04-09T10:10:17.939Z</time></trkpt><trkpt lat="44.2060633" lon="11.080575"><ele>657.2</ele><time>2026-04-09T10:10:18.939Z</time></trkpt><trkpt lat="44.205985" lon="11.0806467"><ele>658.0</ele><time>2026-04-09T10:10:19.939Z</time></trkpt><trkpt lat="44.205885" lon="11.0807"><ele>658.0</ele><time>2026-04-09T10:10:20.939Z</time></trkpt><trkpt lat="44.2057717" lon="11.08073"><ele>658.0</ele><time>2026-04-09T10:10:21.939Z</time></trkpt><trkpt lat="44.2056617" lon="11.0807433"><ele>658.0</ele><time>2026-04-09T10:10:22.939Z</time></trkpt><trkpt lat="44.2055483" lon="11.0807483"><ele>658.0</ele><time>2026-04-09T10:10:23.939Z</time></trkpt><trkpt lat="44.2054467" lon="11.08074"><ele>658.0</ele><time>2026-04-09T10:10:24.939Z</time></trkpt><trkpt lat="44.205355" lon="11.0807283"><ele>659.2</ele><time>2026-04-09T10:10:25.939Z</time></trkpt><trkpt lat="44.20527" lon="11.0807267"><ele>660.4</ele><time>2026-04-09T10:10:26.939Z</time></trkpt><trkpt lat="44.2051833" lon="11.0807517"><ele>661.6</ele><time>2026-04-09T10:10:27.94Z</time></trkpt><trkpt lat="44.2050967" lon="11.0808183"><ele>662.8000000000001</ele><time>2026-04-09T10:10:28.939Z</time></trkpt><trkpt lat="44.2049983" lon="11.0808667"><ele>664.0</ele><time>2026-04-09T10:10:29.939Z</time></trkpt><trkpt lat="44.2048917" lon="11.0808833"><ele>666.4000000000001</ele><time>2026-04-09T10:10:30.939Z</time></trkpt><trkpt lat="44.20479" lon="11.080895"><ele>668.8</ele><time>2026-04-09T10:10:31.939Z</time></trkpt><trkpt lat="44.2046917" lon="11.0809267"><ele>671.2</ele><time>2026-04-09T10:10:32.939Z</time></trkpt><trkpt lat="44.2046017" lon="11.080985"><ele>673.5999999999999</ele><time>2026-04-09T10:10:33.939Z</time></trkpt><trkpt lat="44.204515" lon="11.0810617"><ele>676.0</ele><time>2026-04-09T10:10:34.939Z</time></trkpt><trkpt lat="44.2044283" lon="11.08116"><ele>676.0</ele><time>2026-04-09T10:10:35.939Z</time></trkpt><trkpt lat="44.204345" lon="11.0812583"><ele>676.0</ele><time>2026-04-09T10:10:36.94Z</time></trkpt><trkpt lat="44.2042583" lon="11.0813467"><ele>676.0</ele><time>2026-04-09T10:10:37.94Z</time></trkpt><trkpt lat="44.2041767" lon="11.0813917"><ele>676.0</ele><time>2026-04-09T10:10:38.939Z</time></trkpt><trkpt lat="44.2040867" lon="11.0814083"><ele>676.0</ele><time>2026-04-09T10:10:39.939Z</time></trkpt><trkpt lat="44.2040017" lon="11.0814"><ele>675.0</ele><time>2026-04-09T10:10:40.939Z</time></trkpt><trkpt lat="44.2039217" lon="11.0813833"><ele>674.0</ele><time>2026-04-09T10:10:41.939Z</time></trkpt><trkpt lat="44.2038567" lon="11.081365"><ele>673.0</ele><time>2026-04-09T10:10:42.939Z</time></trkpt><trkpt lat="44.2037633" lon="11.0813483"><ele>672.0</ele><time>2026-04-09T10:10:44.939Z</time></trkpt><trkpt lat="44.20368" lon="11.0813967"><ele>671.0</ele><time>2026-04-09T10:10:46.939Z</time></trkpt><trkpt lat="44.203595" lon="11.0814983"><ele>670.0</ele><time>2026-04-09T10:10:48.94Z</time></trkpt><trkpt lat="44.20355" lon="11.0815783"><ele>671.8333333333334</ele><time>2026-04-09T10:10:49.939Z</time></trkpt><trkpt lat="44.203505" lon="11.0816667"><ele>673.6666666666667</ele><time>2026-04-09T10:10:50.939Z</time></trkpt><trkpt lat="44.2034683" lon="11.08176"><ele>675.5</ele><time>2026-04-09T10:10:51.939Z</time></trkpt><trkpt lat="44.2034367" lon="11.081865"><ele>677.3333333333334</ele><time>2026-04-09T10:10:52.939Z</time></trkpt><trkpt lat="44.2034133" lon="11.0819667"><ele>679.1666666666666</ele><time>2026-04-09T10:10:53.939Z</time></trkpt><trkpt lat="44.2033933" lon="11.0820717"><ele>681.0</ele><time>2026-04-09T10:10:54.939Z</time></trkpt><trkpt lat="44.2033617" lon="11.0821767"><ele>681.0</ele><time>2026-04-09T10:10:55.939Z</time></trkpt><trkpt lat="44.2033367" lon="11.0822783"><ele>681.0</ele><time>2026-04-09T10:10:56.939Z</time></trkpt><trkpt lat="44.2033083" lon="11.0823867"><ele>681.0</ele><time>2026-04-09T10:10:57.939Z</time></trkpt><trkpt lat="44.20328" lon="11.0825033"><ele>681.0</ele><time>2026-04-09T10:10:58.94Z</time></trkpt><trkpt lat="44.2032683" lon="11.0826367"><ele>681.0</ele><time>2026-04-09T10:10:59.939Z</time></trkpt><trkpt lat="44.20325" lon="11.0827783"><ele>681.0</ele><time>2026-04-09T10:11:00.939Z</time></trkpt><trkpt lat="44.2032333" lon="11.0829083"><ele>679.5999999999999</ele><time>2026-04-09T10:11:01.94Z</time></trkpt><trkpt lat="44.20322" lon="11.083045"><ele>678.2</ele><time>2026-04-09T10:11:02.94Z</time></trkpt><trkpt lat="44.2031967" lon="11.083185"><ele>676.8</ele><time>2026-04-09T10:11:03.939Z</time></trkpt><trkpt lat="44.2031717" lon="11.0833317"><ele>675.4000000000001</ele><time>2026-04-09T10:11:04.939Z</time></trkpt><trkpt lat="44.2031333" lon="11.0834733"><ele>674.0</ele><time>2026-04-09T10:11:05.939Z</time></trkpt><trkpt lat="44.203085" lon="11.0835983"><ele>674.0</ele><time>2026-04-09T10:11:06.939Z</time></trkpt><trkpt lat="44.2030467" lon="11.0837167"><ele>674.0</ele><time>2026-04-09T10:11:07.939Z</time></trkpt><trkpt lat="44.2030183" lon="11.08382"><ele>674.0</ele><time>2026-04-09T10:11:08.939Z</time></trkpt><trkpt lat="44.2029967" lon="11.0839083"><ele>674.0</ele><time>2026-04-09T10:11:09.939Z</time></trkpt><trkpt lat="44.2029683" lon="11.0840367"><ele>674.0</ele><time>2026-04-09T10:11:11.939Z</time></trkpt><trkpt lat="44.202935" lon="11.0841483"><ele>674.0</ele><time>2026-04-09T10:11:13.939Z</time></trkpt><trkpt lat="44.2028683" lon="11.084205"><ele>677.4000000000001</ele><time>2026-04-09T10:11:15.939Z</time></trkpt><trkpt lat="44.2027967" lon="11.0842867"><ele>680.8</ele><time>2026-04-09T10:11:17.939Z</time></trkpt><trkpt lat="44.2027133" lon="11.0844017"><ele>684.2</ele><time>2026-04-09T10:11:19.939Z</time></trkpt><trkpt lat="44.20264" lon="11.0845283"><ele>687.5999999999999</ele><time>2026-04-09T10:11:21.94Z</time></trkpt><trkpt lat="44.2026067" lon="11.0846033"><ele>691.0</ele><time>2026-04-09T10:11:22.939Z</time></trkpt><trkpt lat="44.2025333" lon="11.0847383"><ele>690.9999999999999</ele><time>2026-04-09T10:11:24.94Z</time></trkpt><trkpt lat="44.2024933" lon="11.0848083"><ele>691.0</ele><time>2026-04-09T10:11:25.94Z</time></trkpt><trkpt lat="44.202445" lon="11.0848817"><ele>691.0</ele><time>2026-04-09T10:11:26.939Z</time></trkpt><trkpt lat="44.2023933" lon="11.084945"><ele>691.0</ele><time>2026-04-09T10:11:27.939Z</time></trkpt><trkpt lat="44.2023383" lon="11.08501"><ele>691.0</ele><time>2026-04-09T10:11:28.939Z</time></trkpt><trkpt lat="44.2022933" lon="11.0850867"><ele>690.9999999999999</ele><time>2026-04-09T10:11:29.939Z</time></trkpt><trkpt lat="44.2022333" lon="11.0851533"><ele>691.0</ele><time>2026-04-09T10:11:30.939Z</time></trkpt><trkpt lat="44.20217" lon="11.0852283"><ele>690.5</ele><time>2026-04-09T10:11:31.94Z</time></trkpt><trkpt lat="44.2021083" lon="11.0853183"><ele>690.0</ele><time>2026-04-09T10:11:32.939Z</time></trkpt><trkpt lat="44.202055" lon="11.0854283"><ele>689.5</ele><time>2026-04-09T10:11:33.939Z</time></trkpt><trkpt lat="44.2020033" lon="11.0855267"><ele>689.0</ele><time>2026-04-09T10:11:34.939Z</time></trkpt><trkpt lat="44.2019533" lon="11.0856283"><ele>688.5</ele><time>2026-04-09T10:11:35.94Z</time></trkpt><trkpt lat="44.2019067" lon="11.0857083"><ele>688.0</ele><time>2026-04-09T10:11:36.939Z</time></trkpt><trkpt lat="44.201875" lon="11.085785"><ele>690.8</ele><time>2026-04-09T10:11:37.94Z</time></trkpt><trkpt lat="44.20185" lon="11.085945"><ele>693.5999999999999</ele><time>2026-04-09T10:11:39.939Z</time></trkpt><trkpt lat="44.201865" lon="11.086045"><ele>696.4000000000001</ele><time>2026-04-09T10:11:40.939Z</time></trkpt><trkpt lat="44.2019017" lon="11.08616"><ele>699.2</ele><time>2026-04-09T10:11:41.939Z</time></trkpt><trkpt lat="44.2019317" lon="11.0862883"><ele>702.0</ele><time>2026-04-09T10:11:42.939Z</time></trkpt><trkpt lat="44.2019433" lon="11.08643"><ele>702.0</ele><time>2026-04-09T10:11:43.94Z</time></trkpt><trkpt lat="44.20194" lon="11.086575"><ele>702.0</ele><time>2026-04-09T10:11:44.939Z</time></trkpt><trkpt lat="44.2019233" lon="11.0867367"><ele>702.0</ele><time>2026-04-09T10:11:45.939Z</time></trkpt><trkpt lat="44.2018967" lon="11.0869217"><ele>702.0</ele><time>2026-04-09T10:11:46.939Z</time></trkpt><trkpt lat="44.2018533" lon="11.0870983"><ele>704.2</ele><time>2026-04-09T10:11:47.939Z</time></trkpt><trkpt lat="44.20181" lon="11.08725"><ele>706.4000000000001</ele><time>2026-04-09T10:11:48.939Z</time></trkpt><trkpt lat="44.2017683" lon="11.0873783"><ele>708.5999999999999</ele><time>2026-04-09T10:11:49.939Z</time></trkpt><trkpt lat="44.20172" lon="11.087475"><ele>710.8</ele><time>2026-04-09T10:11:50.939Z</time></trkpt><trkpt lat="44.20165" lon="11.0875483"><ele>713.0</ele><time>2026-04-09T10:11:51.94Z</time></trkpt><trkpt lat="44.2015733" lon="11.0875883"><ele>712.3333333333333</ele><time>2026-04-09T10:11:52.939Z</time></trkpt><trkpt lat="44.20148" lon="11.08758"><ele>711.6666666666666</ele><time>2026-04-09T10:11:53.939Z</time></trkpt><trkpt lat="44.2014" lon="11.08757"><ele>711.0</ele><time>2026-04-09T10:11:54.939Z</time></trkpt><trkpt lat="44.2013317" lon="11.0875867"><ele>710.3333333333334</ele><time>2026-04-09T10:11:55.939Z</time></trkpt><trkpt lat="44.20124" lon="11.0876983"><ele>709.6666666666667</ele><time>2026-04-09T10:11:57.939Z</time></trkpt><trkpt lat="44.20122" lon="11.0878"><ele>709.0</ele><time>2026-04-09T10:11:58.939Z</time></trkpt><trkpt lat="44.2012483" lon="11.0879767"><ele>709.0</ele><time>2026-04-09T10:12:00.939Z</time></trkpt><trkpt lat="44.20131" lon="11.0880483"><ele>709.0</ele><time>2026-04-09T10:12:01.939Z</time></trkpt><trkpt lat="44.201405" lon="11.088085"><ele>709.0</ele><time>2026-04-09T10:12:02.939Z</time></trkpt><trkpt lat="44.201515" lon="11.0881067"><ele>709.0</ele><time>2026-04-09T10:12:03.939Z</time></trkpt><trkpt lat="44.2016033" lon="11.0881383"><ele>709.0</ele><time>2026-04-09T10:12:04.939Z</time></trkpt><trkpt lat="44.20167" lon="11.0882"><ele>711.0</ele><time>2026-04-09T10:12:05.939Z</time></trkpt><trkpt lat="44.2016833" lon="11.0882883"><ele>713.0</ele><time>2026-04-09T10:12:06.939Z</time></trkpt><trkpt lat="44.2016717" lon="11.0883767"><ele>715.0</ele><time>2026-04-09T10:12:07.939Z</time></trkpt><trkpt lat="44.2016183" lon="11.0884533"><ele>717.0</ele><time>2026-04-09T10:12:08.94Z</time></trkpt><trkpt lat="44.2015417" lon="11.0885167"><ele>719.0</ele><time>2026-04-09T10:12:09.939Z</time></trkpt><trkpt lat="44.20146" lon="11.0885683"><ele>721.0</ele><time>2026-04-09T10:12:10.939Z</time></trkpt><trkpt lat="44.20138" lon="11.088605"><ele>721.0</ele><time>2026-04-09T10:12:11.939Z</time></trkpt><trkpt lat="44.2013133" lon="11.0886617"><ele>721.0</ele><time>2026-04-09T10:12:12.939Z</time></trkpt><trkpt lat="44.2012467" lon="11.088805"><ele>721.0</ele><time>2026-04-09T10:12:14.939Z</time></trkpt><trkpt lat="44.201245" lon="11.0889017"><ele>721.0</ele><time>2026-04-09T10:12:15.939Z</time></trkpt><trkpt lat="44.2012783" lon="11.0890283"><ele>721.0</ele><time>2026-04-09T10:12:16.94Z</time></trkpt><trkpt lat="44.2013267" lon="11.0891567"><ele>723.4</ele><time>2026-04-09T10:12:17.939Z</time></trkpt><trkpt lat="44.2013783" lon="11.089295"><ele>725.8</ele><time>2026-04-09T10:12:18.939Z</time></trkpt><trkpt lat="44.20142" lon="11.08944"><ele>728.1999999999999</ele><time>2026-04-09T10:12:19.939Z</time></trkpt><trkpt lat="44.2014383" lon="11.0895867"><ele>730.5999999999999</ele><time>2026-04-09T10:12:20.939Z</time></trkpt><trkpt lat="44.20144" lon="11.0897183"><ele>733.0</ele><time>2026-04-09T10:12:21.939Z</time></trkpt><trkpt lat="44.2014167" lon="11.0898467"><ele>734.8</ele><time>2026-04-09T10:12:22.939Z</time></trkpt><trkpt lat="44.201385" lon="11.089965"><ele>736.5999999999999</ele><time>2026-04-09T10:12:23.939Z</time></trkpt><trkpt lat="44.2013383" lon="11.0900717"><ele>738.4000000000001</ele><time>2026-04-09T10:12:24.939Z</time></trkpt><trkpt lat="44.2012817" lon="11.0901867"><ele>740.2</ele><time>2026-04-09T10:12:25.939Z</time></trkpt><trkpt lat="44.2012117" lon="11.0903117"><ele>742.0</ele><time>2026-04-09T10:12:26.94Z</time></trkpt><trkpt lat="44.2011383" lon="11.0904433"><ele>742.0</ele><time>2026-04-09T10:12:27.94Z</time></trkpt><trkpt lat="44.2010617" lon="11.090595"><ele>742.0</ele><time>2026-04-09T10:12:28.939Z</time></trkpt><trkpt lat="44.2009867" lon="11.0907683"><ele>742.0</ele><time>2026-04-09T10:12:29.939Z</time></trkpt><trkpt lat="44.2009167" lon="11.09096"><ele>742.0</ele><time>2026-04-09T10:12:30.939Z</time></trkpt><trkpt lat="44.2008533" lon="11.0911517"><ele>742.25</ele><time>2026-04-09T10:12:31.939Z</time></trkpt><trkpt lat="44.2007983" lon="11.091325"><ele>742.5</ele><time>2026-04-09T10:12:32.939Z</time></trkpt><trkpt lat="44.2007383" lon="11.0914917"><ele>742.75</ele><time>2026-04-09T10:12:33.939Z</time></trkpt><trkpt lat="44.2006667" lon="11.0916483"><ele>743.0</ele><time>2026-04-09T10:12:34.939Z</time></trkpt><trkpt lat="44.2005767" lon="11.09179"><ele>743.0</ele><time>2026-04-09T10:12:35.939Z</time></trkpt><trkpt lat="44.20047" lon="11.0919233"><ele>743.0</ele><time>2026-04-09T10:12:36.94Z</time></trkpt><trkpt lat="44.2003417" lon="11.0920467"><ele>743.0</ele><time>2026-04-09T10:12:37.939Z</time></trkpt><trkpt lat="44.2002067" lon="11.09216"><ele>743.0</ele><time>2026-04-09T10:12:38.94Z</time></trkpt><trkpt lat="44.200075" lon="11.0922717"><ele>743.0</ele><time>2026-04-09T10:12:39.939Z</time></trkpt><trkpt lat="44.1999517" lon="11.0923733"><ele>743.0</ele><time>2026-04-09T10:12:40.939Z</time></trkpt><trkpt lat="44.1998317" lon="11.0924533"><ele>743.0</ele><time>2026-04-09T10:12:41.939Z</time></trkpt><trkpt lat="44.1997283" lon="11.09254"><ele>745.8</ele><time>2026-04-09T10:12:42.939Z</time></trkpt><trkpt lat="44.1996483" lon="11.092635"><ele>748.5999999999999</ele><time>2026-04-09T10:12:43.939Z</time></trkpt><trkpt lat="44.19957" lon="11.09274"><ele>751.4000000000001</ele><time>2026-04-09T10:12:44.939Z</time></trkpt><trkpt lat="44.1994917" lon="11.0928283"><ele>754.2</ele><time>2026-04-09T10:12:45.939Z</time></trkpt><trkpt lat="44.19942" lon="11.0929133"><ele>757.0</ele><time>2026-04-09T10:12:46.939Z</time></trkpt><trkpt lat="44.1993533" lon="11.0929833"><ele>757.0</ele><time>2026-04-09T10:12:47.94Z</time></trkpt><trkpt lat="44.19929" lon="11.0930583"><ele>757.0</ele><time>2026-04-09T10:12:48.939Z</time></trkpt><trkpt lat="44.1992333" lon="11.0931183"><ele>757.0</ele><time>2026-04-09T10:12:49.94Z</time></trkpt><trkpt lat="44.19918" lon="11.0931817"><ele>757.0</ele><time>2026-04-09T10:12:50.939Z</time></trkpt><trkpt lat="44.199125" lon="11.0932483"><ele>757.0</ele><time>2026-04-09T10:12:51.94Z</time></trkpt><trkpt lat="44.1990717" lon="11.0933267"><ele>757.0</ele><time>2026-04-09T10:12:52.939Z</time></trkpt><trkpt lat="44.19901" lon="11.093405"><ele>757.3333333333334</ele><time>2026-04-09T10:12:53.94Z</time></trkpt><trkpt lat="44.1989583" lon="11.0934867"><ele>757.6666666666667</ele><time>2026-04-09T10:12:54.939Z</time></trkpt><trkpt lat="44.1989033" lon="11.0935583"><ele>758.0</ele><time>2026-04-09T10:12:55.94Z</time></trkpt><trkpt lat="44.1988517" lon="11.09364"><ele>758.3333333333334</ele><time>2026-04-09T10:12:56.939Z</time></trkpt><trkpt lat="44.1988" lon="11.093725"><ele>758.6666666666666</ele><time>2026-04-09T10:12:57.939Z</time></trkpt><trkpt lat="44.1987533" lon="11.0938067"><ele>759.0</ele><time>2026-04-09T10:12:58.939Z</time></trkpt><trkpt lat="44.1987133" lon="11.0939067"><ele>759.0</ele><time>2026-04-09T10:12:59.939Z</time></trkpt><trkpt lat="44.1986833" lon="11.094035"><ele>759.0</ele><time>2026-04-09T10:13:00.939Z</time></trkpt><trkpt lat="44.1986567" lon="11.09417"><ele>759.0</ele><time>2026-04-09T10:13:01.939Z</time></trkpt><trkpt lat="44.1986333" lon="11.0943133"><ele>759.0</ele><time>2026-04-09T10:13:02.939Z</time></trkpt><trkpt lat="44.1985967" lon="11.0944617"><ele>759.0</ele><time>2026-04-09T10:13:03.939Z</time></trkpt><trkpt lat="44.19856" lon="11.0945983"><ele>760.75</ele><time>2026-04-09T10:13:04.94Z</time></trkpt><trkpt lat="44.1985117" lon="11.0947283"><ele>762.5</ele><time>2026-04-09T10:13:05.939Z</time></trkpt><trkpt lat="44.19845" lon="11.0948667"><ele>764.25</ele><time>2026-04-09T10:13:06.939Z</time></trkpt><trkpt lat="44.1983933" lon="11.0950133"><ele>766.0</ele><time>2026-04-09T10:13:07.94Z</time></trkpt><trkpt lat="44.1983383" lon="11.0951717"><ele>764.75</ele><time>2026-04-09T10:13:08.939Z</time></trkpt><trkpt lat="44.1982867" lon="11.0953267"><ele>763.5</ele><time>2026-04-09T10:13:09.939Z</time></trkpt><trkpt lat="44.19824" lon="11.0954883"><ele>762.25</ele><time>2026-04-09T10:13:10.939Z</time></trkpt><trkpt lat="44.1982017" lon="11.095655"><ele>761.0</ele><time>2026-04-09T10:13:11.939Z</time></trkpt><trkpt lat="44.1981667" lon="11.095815"><ele>761.0</ele><time>2026-04-09T10:13:12.939Z</time></trkpt><trkpt lat="44.1981333" lon="11.0959667"><ele>761.0</ele><time>2026-04-09T10:13:13.939Z</time></trkpt><trkpt lat="44.198095" lon="11.0961217"><ele>761.0</ele><time>2026-04-09T10:13:14.939Z</time></trkpt><trkpt lat="44.1980533" lon="11.096265"><ele>761.0</ele><time>2026-04-09T10:13:15.939Z</time></trkpt><trkpt lat="44.1979983" lon="11.0964067"><ele>761.0</ele><time>2026-04-09T10:13:16.939Z</time></trkpt><trkpt lat="44.1979233" lon="11.09654"><ele>761.0</ele><time>2026-04-09T10:13:17.939Z</time></trkpt><trkpt lat="44.1978433" lon="11.0966817"><ele>761.0</ele><time>2026-04-09T10:13:18.939Z</time></trkpt><trkpt lat="44.1977583" lon="11.0968417"><ele>761.0</ele><time>2026-04-09T10:13:19.939Z</time></trkpt><trkpt lat="44.1976767" lon="11.0970167"><ele>763.3333333333333</ele><time>2026-04-09T10:13:20.939Z</time></trkpt><trkpt lat="44.1975983" lon="11.0972083"><ele>765.6666666666666</ele><time>2026-04-09T10:13:21.939Z</time></trkpt><trkpt lat="44.1975233" lon="11.097395"><ele>768.0</ele><time>2026-04-09T10:13:22.939Z</time></trkpt><trkpt lat="44.197445" lon="11.0975667"><ele>769.25</ele><time>2026-04-09T10:13:23.939Z</time></trkpt><trkpt lat="44.19735" lon="11.097725"><ele>770.5</ele><time>2026-04-09T10:13:24.939Z</time></trkpt><trkpt lat="44.1972433" lon="11.0978567"><ele>771.75</ele><time>2026-04-09T10:13:25.94Z</time></trkpt><trkpt lat="44.1971333" lon="11.0979683"><ele>773.0</ele><time>2026-04-09T10:13:26.939Z</time></trkpt><trkpt lat="44.19702" lon="11.09805"><ele>770.5</ele><time>2026-04-09T10:13:27.939Z</time></trkpt><trkpt lat="44.196905" lon="11.0981"><ele>768.0</ele><time>2026-04-09T10:13:28.939Z</time></trkpt><trkpt lat="44.1967783" lon="11.098135"><ele>765.5</ele><time>2026-04-09T10:13:29.939Z</time></trkpt><trkpt lat="44.196635" lon="11.098145"><ele>763.0</ele><time>2026-04-09T10:13:30.939Z</time></trkpt><trkpt lat="44.1965" lon="11.0981367"><ele>763.0</ele><time>2026-04-09T10:13:31.939Z</time></trkpt><trkpt lat="44.1963767" lon="11.0981267"><ele>763.0</ele><time>2026-04-09T10:13:32.939Z</time></trkpt><trkpt lat="44.1962483" lon="11.0981433"><ele>763.0</ele><time>2026-04-09T10:13:33.939Z</time></trkpt><trkpt lat="44.196115" lon="11.0981783"><ele>763.0</ele><time>2026-04-09T10:13:34.939Z</time></trkpt><trkpt lat="44.195985" lon="11.0982267"><ele>763.5</ele><time>2026-04-09T10:13:35.94Z</time></trkpt><trkpt lat="44.1958583" lon="11.0982817"><ele>764.0</ele><time>2026-04-09T10:13:36.939Z</time></trkpt><trkpt lat="44.195735" lon="11.0983317"><ele>764.5</ele><time>2026-04-09T10:13:37.939Z</time></trkpt><trkpt lat="44.1956233" lon="11.0983783"><ele>765.0</ele><time>2026-04-09T10:13:38.939Z</time></trkpt><trkpt lat="44.1955167" lon="11.0984283"><ele>765.0</ele><time>2026-04-09T10:13:39.94Z</time></trkpt><trkpt lat="44.195425" lon="11.09849"><ele>765.0</ele><time>2026-04-09T10:13:40.939Z</time></trkpt><trkpt lat="44.1953483" lon="11.0985683"><ele>765.0</ele><time>2026-04-09T10:13:41.939Z</time></trkpt><trkpt lat="44.1952833" lon="11.0986733"><ele>765.0</ele><time>2026-04-09T10:13:42.939Z</time></trkpt><trkpt lat="44.1952283" lon="11.098805"><ele>765.0</ele><time>2026-04-09T10:13:43.939Z</time></trkpt><trkpt lat="44.19519" lon="11.09895"><ele>766.0</ele><time>2026-04-09T10:13:44.94Z</time></trkpt><trkpt lat="44.1951567" lon="11.099105"><ele>767.0</ele><time>2026-04-09T10:13:45.94Z</time></trkpt><trkpt lat="44.1951283" lon="11.0992767"><ele>768.0</ele><time>2026-04-09T10:13:46.94Z</time></trkpt><trkpt lat="44.1950967" lon="11.0994617"><ele>769.0</ele><time>2026-04-09T10:13:47.939Z</time></trkpt><trkpt lat="44.19506" lon="11.0996567"><ele>769.0</ele><time>2026-04-09T10:13:48.939Z</time></trkpt><trkpt lat="44.1950217" lon="11.0998617"><ele>769.0</ele><time>2026-04-09T10:13:49.939Z</time></trkpt><trkpt lat="44.1949833" lon="11.1000633"><ele>769.0</ele><time>2026-04-09T10:13:50.94Z</time></trkpt><trkpt lat="44.194945" lon="11.1002633"><ele>770.0</ele><time>2026-04-09T10:13:51.939Z</time></trkpt><trkpt lat="44.1949067" lon="11.1004617"><ele>771.0</ele><time>2026-04-09T10:13:52.939Z</time></trkpt><trkpt lat="44.1948667" lon="11.100655"><ele>772.0</ele><time>2026-04-09T10:13:53.94Z</time></trkpt><trkpt lat="44.1948267" lon="11.1008467"><ele>773.0</ele><time>2026-04-09T10:13:54.939Z</time></trkpt><trkpt lat="44.1947883" lon="11.1010417"><ele>771.25</ele><time>2026-04-09T10:13:55.939Z</time></trkpt><trkpt lat="44.1947517" lon="11.10123"><ele>769.5</ele><time>2026-04-09T10:13:56.939Z</time></trkpt><trkpt lat="44.1947233" lon="11.1013967"><ele>767.75</ele><time>2026-04-09T10:13:57.939Z</time></trkpt><trkpt lat="44.1947017" lon="11.1015367"><ele>766.0</ele><time>2026-04-09T10:13:58.939Z</time></trkpt><trkpt lat="44.1946867" lon="11.1016583"><ele>766.0</ele><time>2026-04-09T10:13:59.939Z</time></trkpt><trkpt lat="44.1946783" lon="11.1017617"><ele>766.0</ele><time>2026-04-09T10:14:00.939Z</time></trkpt><trkpt lat="44.194665" lon="11.1019217"><ele>766.0</ele><time>2026-04-09T10:14:02.939Z</time></trkpt><trkpt lat="44.1946183" lon="11.1020567"><ele>766.0</ele><time>2026-04-09T10:14:04.939Z</time></trkpt><trkpt lat="44.19458" lon="11.1021333"><ele>766.0</ele><time>2026-04-09T10:14:05.94Z</time></trkpt><trkpt lat="44.1945317" lon="11.1022217"><ele>766.0</ele><time>2026-04-09T10:14:06.94Z</time></trkpt><trkpt lat="44.1944733" lon="11.102315"><ele>767.0</ele><time>2026-04-09T10:14:07.939Z</time></trkpt><trkpt lat="44.1944083" lon="11.1024183"><ele>768.0</ele><time>2026-04-09T10:14:08.94Z</time></trkpt><trkpt lat="44.1943383" lon="11.1025183"><ele>769.0</ele><time>2026-04-09T10:14:09.94Z</time></trkpt><trkpt lat="44.1942633" lon="11.1026167"><ele>770.0</ele><time>2026-04-09T10:14:10.939Z</time></trkpt><trkpt lat="44.19418" lon="11.102715"><ele>771.0</ele><time>2026-04-09T10:14:11.939Z</time></trkpt><trkpt lat="44.19409" lon="11.1028017"><ele>770.4</ele><time>2026-04-09T10:14:12.939Z</time></trkpt><trkpt lat="44.1939933" lon="11.1028817"><ele>769.8</ele><time>2026-04-09T10:14:13.94Z</time></trkpt><trkpt lat="44.193895" lon="11.10295"><ele>769.1999999999999</ele><time>2026-04-09T10:14:14.939Z</time></trkpt><trkpt lat="44.1937967" lon="11.1030133"><ele>768.5999999999999</ele><time>2026-04-09T10:14:15.939Z</time></trkpt><trkpt lat="44.1937017" lon="11.1030733"><ele>768.0</ele><time>2026-04-09T10:14:16.939Z</time></trkpt><trkpt lat="44.1936067" lon="11.1031317"><ele>768.0</ele><time>2026-04-09T10:14:17.939Z</time></trkpt><trkpt lat="44.19351" lon="11.1031933"><ele>768.0</ele><time>2026-04-09T10:14:18.94Z</time></trkpt><trkpt lat="44.1934083" lon="11.10326"><ele>768.0</ele><time>2026-04-09T10:14:19.939Z</time></trkpt><trkpt lat="44.1933083" lon="11.10333"><ele>768.0</ele><time>2026-04-09T10:14:20.939Z</time></trkpt><trkpt lat="44.1932067" lon="11.1034"><ele>768.0</ele><time>2026-04-09T10:14:21.939Z</time></trkpt><trkpt lat="44.1931067" lon="11.103475"><ele>768.0</ele><time>2026-04-09T10:14:22.939Z</time></trkpt><trkpt lat="44.193005" lon="11.1035517"><ele>768.0</ele><time>2026-04-09T10:14:23.94Z</time></trkpt><trkpt lat="44.192905" lon="11.10363"><ele>768.0</ele><time>2026-04-09T10:14:24.939Z</time></trkpt><trkpt lat="44.1928033" lon="11.1037133"><ele>768.0</ele><time>2026-04-09T10:14:25.94Z</time></trkpt><trkpt lat="44.1927017" lon="11.1037983"><ele>768.0</ele><time>2026-04-09T10:14:26.939Z</time></trkpt><trkpt lat="44.1926033" lon="11.1038883"><ele>768.0</ele><time>2026-04-09T10:14:27.939Z</time></trkpt><trkpt lat="44.1924933" lon="11.1039983"><ele>768.0</ele><time>2026-04-09T10:14:28.94Z</time></trkpt><trkpt lat="44.1923883" lon="11.1041167"><ele>768.0</ele><time>2026-04-09T10:14:29.939Z</time></trkpt><trkpt lat="44.19228" lon="11.1042233"><ele>767.75</ele><time>2026-04-09T10:14:30.939Z</time></trkpt><trkpt lat="44.192175" lon="11.10432"><ele>767.5</ele><time>2026-04-09T10:14:31.939Z</time></trkpt><trkpt lat="44.192075" lon="11.104415"><ele>767.25</ele><time>2026-04-09T10:14:32.939Z</time></trkpt><trkpt lat="44.191975" lon="11.1045233"><ele>767.0</ele><time>2026-04-09T10:14:33.939Z</time></trkpt><trkpt lat="44.1918733" lon="11.1046517"><ele>767.0</ele><time>2026-04-09T10:14:34.939Z</time></trkpt><trkpt lat="44.1917733" lon="11.1048067"><ele>767.0</ele><time>2026-04-09T10:14:35.939Z</time></trkpt><trkpt lat="44.191675" lon="11.1049683"><ele>767.0</ele><time>2026-04-09T10:14:36.939Z</time></trkpt><trkpt lat="44.1915783" lon="11.1051317"><ele>766.25</ele><time>2026-04-09T10:14:37.939Z</time></trkpt><trkpt lat="44.191485" lon="11.1052883"><ele>765.5</ele><time>2026-04-09T10:14:38.94Z</time></trkpt><trkpt lat="44.1914" lon="11.105445"><ele>764.75</ele><time>2026-04-09T10:14:39.939Z</time></trkpt><trkpt lat="44.1913133" lon="11.1056"><ele>764.0</ele><time>2026-04-09T10:14:40.939Z</time></trkpt><trkpt lat="44.1912283" lon="11.10575"><ele>766.0</ele><time>2026-04-09T10:14:41.939Z</time></trkpt><trkpt lat="44.1911367" lon="11.1058933"><ele>768.0</ele><time>2026-04-09T10:14:42.939Z</time></trkpt><trkpt lat="44.1910367" lon="11.1060217"><ele>770.0</ele><time>2026-04-09T10:14:43.939Z</time></trkpt><trkpt lat="44.19093" lon="11.1061283"><ele>772.0</ele><time>2026-04-09T10:14:44.939Z</time></trkpt><trkpt lat="44.1908217" lon="11.10622"><ele>772.0</ele><time>2026-04-09T10:14:45.939Z</time></trkpt><trkpt lat="44.1907033" lon="11.106285"><ele>772.0</ele><time>2026-04-09T10:14:46.939Z</time></trkpt><trkpt lat="44.1905717" lon="11.1063317"><ele>772.0</ele><time>2026-04-09T10:14:47.939Z</time></trkpt><trkpt lat="44.1904383" lon="11.1063683"><ele>772.0</ele><time>2026-04-09T10:14:48.939Z</time></trkpt><trkpt lat="44.1903133" lon="11.1063983"><ele>771.5</ele><time>2026-04-09T10:14:49.939Z</time></trkpt><trkpt lat="44.19019" lon="11.1064217"><ele>771.0</ele><time>2026-04-09T10:14:50.939Z</time></trkpt><trkpt lat="44.190065" lon="11.106435"><ele>770.5</ele><time>2026-04-09T10:14:51.939Z</time></trkpt><trkpt lat="44.1899317" lon="11.1064433"><ele>770.0</ele><time>2026-04-09T10:14:52.939Z</time></trkpt><trkpt lat="44.18979" lon="11.1064383"><ele>770.0</ele><time>2026-04-09T10:14:53.939Z</time></trkpt><trkpt lat="44.18965" lon="11.1064417"><ele>770.0</ele><time>2026-04-09T10:14:54.939Z</time></trkpt><trkpt lat="44.1895167" lon="11.1064683"><ele>770.0</ele><time>2026-04-09T10:14:55.939Z</time></trkpt><trkpt lat="44.1893867" lon="11.1065133"><ele>770.0</ele><time>2026-04-09T10:14:56.939Z</time></trkpt><trkpt lat="44.1892633" lon="11.1065567"><ele>770.25</ele><time>2026-04-09T10:14:57.939Z</time></trkpt><trkpt lat="44.1891417" lon="11.1065833"><ele>770.5</ele><time>2026-04-09T10:14:58.94Z</time></trkpt><trkpt lat="44.1890183" lon="11.10659"><ele>770.75</ele><time>2026-04-09T10:14:59.939Z</time></trkpt><trkpt lat="44.188895" lon="11.10658"><ele>771.0</ele><time>2026-04-09T10:15:00.939Z</time></trkpt><trkpt lat="44.1887717" lon="11.1065583"><ele>771.25</ele><time>2026-04-09T10:15:01.939Z</time></trkpt><trkpt lat="44.18865" lon="11.106525"><ele>771.5</ele><time>2026-04-09T10:15:02.939Z</time></trkpt><trkpt lat="44.1885333" lon="11.106485"><ele>771.75</ele><time>2026-04-09T10:15:03.939Z</time></trkpt><trkpt lat="44.18842" lon="11.1064483"><ele>772.0</ele><time>2026-04-09T10:15:04.938Z</time></trkpt><trkpt lat="44.1883133" lon="11.106415"><ele>772.0</ele><time>2026-04-09T10:15:05.938Z</time></trkpt><trkpt lat="44.1882117" lon="11.106385"><ele>772.0</ele><time>2026-04-09T10:15:06.938Z</time></trkpt><trkpt lat="44.1881133" lon="11.1063633"><ele>772.0</ele><time>2026-04-09T10:15:07.939Z</time></trkpt><trkpt lat="44.1880117" lon="11.106345"><ele>772.0</ele><time>2026-04-09T10:15:08.938Z</time></trkpt><trkpt lat="44.187905" lon="11.1063333"><ele>772.0</ele><time>2026-04-09T10:15:09.938Z</time></trkpt><trkpt lat="44.1877967" lon="11.1063233"><ele>773.6</ele><time>2026-04-09T10:15:10.938Z</time></trkpt><trkpt lat="44.1876817" lon="11.1063117"><ele>775.2</ele><time>2026-04-09T10:15:11.939Z</time></trkpt><trkpt lat="44.1875683" lon="11.1062983"><ele>776.8</ele><time>2026-04-09T10:15:12.938Z</time></trkpt><trkpt lat="44.18746" lon="11.10628"><ele>778.4</ele><time>2026-04-09T10:15:13.938Z</time></trkpt><trkpt lat="44.187355" lon="11.1062633"><ele>780.0</ele><time>2026-04-09T10:15:14.938Z</time></trkpt><trkpt lat="44.1872583" lon="11.1062467"><ele>781.8</ele><time>2026-04-09T10:15:15.938Z</time></trkpt><trkpt lat="44.187165" lon="11.10623"><ele>783.6</ele><time>2026-04-09T10:15:16.938Z</time></trkpt><trkpt lat="44.1870717" lon="11.1062167"><ele>785.4000000000001</ele><time>2026-04-09T10:15:17.939Z</time></trkpt><trkpt lat="44.1869733" lon="11.106205"><ele>787.2</ele><time>2026-04-09T10:15:18.938Z</time></trkpt><trkpt lat="44.1868683" lon="11.1061967"><ele>789.0</ele><time>2026-04-09T10:15:19.939Z</time></trkpt><trkpt lat="44.1867617" lon="11.1061917"><ele>789.0</ele><time>2026-04-09T10:15:20.938Z</time></trkpt><trkpt lat="44.1866617" lon="11.1061867"><ele>789.0</ele><time>2026-04-09T10:15:21.939Z</time></trkpt><trkpt lat="44.1865733" lon="11.1061717"><ele>789.0</ele><time>2026-04-09T10:15:22.939Z</time></trkpt><trkpt lat="44.1864933" lon="11.1061433"><ele>789.0</ele><time>2026-04-09T10:15:23.938Z</time></trkpt><trkpt lat="44.1864133" lon="11.106105"><ele>789.0</ele><time>2026-04-09T10:15:24.938Z</time></trkpt><trkpt lat="44.18634" lon="11.106045"><ele>789.0</ele><time>2026-04-09T10:15:25.938Z</time></trkpt><trkpt lat="44.186275" lon="11.1059633"><ele>790.6666666666666</ele><time>2026-04-09T10:15:26.938Z</time></trkpt><trkpt lat="44.1862233" lon="11.10586"><ele>792.3333333333333</ele><time>2026-04-09T10:15:27.938Z</time></trkpt><trkpt lat="44.1861917" lon="11.105745"><ele>794.0</ele><time>2026-04-09T10:15:28.938Z</time></trkpt><trkpt lat="44.1861633" lon="11.1056267"><ele>795.6666666666666</ele><time>2026-04-09T10:15:29.939Z</time></trkpt><trkpt lat="44.1861333" lon="11.1055167"><ele>797.3333333333333</ele><time>2026-04-09T10:15:30.938Z</time></trkpt><trkpt lat="44.1860933" lon="11.1054117"><ele>799.0</ele><time>2026-04-09T10:15:31.938Z</time></trkpt><trkpt lat="44.1860367" lon="11.10532"><ele>799.0</ele><time>2026-04-09T10:15:32.938Z</time></trkpt><trkpt lat="44.1859633" lon="11.1052483"><ele>799.0</ele><time>2026-04-09T10:15:33.938Z</time></trkpt><trkpt lat="44.1858833" lon="11.1051967"><ele>799.0</ele><time>2026-04-09T10:15:34.938Z</time></trkpt><trkpt lat="44.1857933" lon="11.1051633"><ele>799.0</ele><time>2026-04-09T10:15:35.939Z</time></trkpt><trkpt lat="44.185685" lon="11.1051683"><ele>799.0</ele><time>2026-04-09T10:15:36.939Z</time></trkpt><trkpt lat="44.1855617" lon="11.10519"><ele>799.5</ele><time>2026-04-09T10:15:37.938Z</time></trkpt><trkpt lat="44.1854433" lon="11.1052433"><ele>800.0</ele><time>2026-04-09T10:15:38.938Z</time></trkpt><trkpt lat="44.1853283" lon="11.1052883"><ele>800.5</ele><time>2026-04-09T10:15:39.938Z</time></trkpt><trkpt lat="44.1852217" lon="11.1053333"><ele>801.0</ele><time>2026-04-09T10:15:40.938Z</time></trkpt><trkpt lat="44.1851083" lon="11.1053767"><ele>801.0</ele><time>2026-04-09T10:15:41.938Z</time></trkpt><trkpt lat="44.1849883" lon="11.1054217"><ele>801.0</ele><time>2026-04-09T10:15:42.938Z</time></trkpt><trkpt lat="44.1848567" lon="11.105465"><ele>801.0</ele><time>2026-04-09T10:15:43.939Z</time></trkpt><trkpt lat="44.1847067" lon="11.1054933"><ele>801.0</ele><time>2026-04-09T10:15:44.938Z</time></trkpt><trkpt lat="44.1845617" lon="11.1055117"><ele>800.25</ele><time>2026-04-09T10:15:45.938Z</time></trkpt><trkpt lat="44.184435" lon="11.1055317"><ele>799.5</ele><time>2026-04-09T10:15:46.939Z</time></trkpt><trkpt lat="44.1843217" lon="11.1055567"><ele>798.75</ele><time>2026-04-09T10:15:47.939Z</time></trkpt><trkpt lat="44.1842233" lon="11.105595"><ele>798.0</ele><time>2026-04-09T10:15:48.939Z</time></trkpt><trkpt lat="44.184125" lon="11.1056667"><ele>801.0</ele><time>2026-04-09T10:15:49.938Z</time></trkpt><trkpt lat="44.18404" lon="11.105755"><ele>804.0</ele><time>2026-04-09T10:15:50.938Z</time></trkpt><trkpt lat="44.18396" lon="11.1058517"><ele>807.0</ele><time>2026-04-09T10:15:51.938Z</time></trkpt><trkpt lat="44.18388" lon="11.1059533"><ele>810.0</ele><time>2026-04-09T10:15:52.938Z</time></trkpt><trkpt lat="44.18379" lon="11.10605"><ele>813.0</ele><time>2026-04-09T10:15:53.938Z</time></trkpt><trkpt lat="44.1836967" lon="11.1061167"><ele>813.0</ele><time>2026-04-09T10:15:54.938Z</time></trkpt><trkpt lat="44.1835983" lon="11.1061667"><ele>813.0</ele><time>2026-04-09T10:15:55.939Z</time></trkpt><trkpt lat="44.1835083" lon="11.1061967"><ele>813.0</ele><time>2026-04-09T10:15:56.939Z</time></trkpt><trkpt lat="44.1834283" lon="11.10621"><ele>813.0</ele><time>2026-04-09T10:15:57.938Z</time></trkpt><trkpt lat="44.1833233" lon="11.1062183"><ele>813.0</ele><time>2026-04-09T10:15:59.938Z</time></trkpt><trkpt lat="44.1832433" lon="11.106245"><ele>813.8</ele><time>2026-04-09T10:16:02.938Z</time></trkpt><trkpt lat="44.1831667" lon="11.1062383"><ele>814.5999999999999</ele><time>2026-04-09T10:16:07.938Z</time></trkpt><trkpt lat="44.183105" lon="11.1061983"><ele>815.4000000000001</ele><time>2026-04-09T10:16:09.939Z</time></trkpt><trkpt lat="44.1829967" lon="11.1061583"><ele>816.2</ele><time>2026-04-09T10:16:11.938Z</time></trkpt><trkpt lat="44.1828783" lon="11.1061217"><ele>817.0</ele><time>2026-04-09T10:16:13.939Z</time></trkpt><trkpt lat="44.1827617" lon="11.106075"><ele>816.9999999999999</ele><time>2026-04-09T10:16:15.938Z</time></trkpt><trkpt lat="44.18267" lon="11.10603"><ele>817.0</ele><time>2026-04-09T10:16:17.938Z</time></trkpt><trkpt lat="44.18261" lon="11.1060033"><ele>817.0</ele><time>2026-04-09T10:16:19.938Z</time></trkpt><trkpt lat="44.18254" lon="11.1059567"><ele>817.0</ele><time>2026-04-09T10:16:26.938Z</time></trkpt><trkpt lat="44.1824767" lon="11.10595"><ele>816.9999999999999</ele><time>2026-04-09T10:16:28.939Z</time></trkpt><trkpt lat="44.1823867" lon="11.105955"><ele>817.0</ele><time>2026-04-09T10:16:30.939Z</time></trkpt><trkpt lat="44.1823083" lon="11.1059667"><ele>817.0</ele><time>2026-04-09T10:16:32.938Z</time></trkpt><trkpt lat="44.1822367" lon="11.1059817"><ele>817.0</ele><time>2026-04-09T10:16:34.939Z</time></trkpt><trkpt lat="44.18217" lon="11.1059867"><ele>817.0</ele><time>2026-04-09T10:16:36.938Z</time></trkpt><trkpt lat="44.18228" lon="11.105995"><ele>817.0</ele><time>2026-04-09T10:17:00.938Z</time></trkpt><trkpt lat="44.1823917" lon="11.1059833"><ele>817.0</ele><time>2026-04-09T10:17:02.938Z</time></trkpt><trkpt lat="44.1824917" lon="11.1059767"><ele>816.9999999999999</ele><time>2026-04-09T10:17:04.938Z</time></trkpt><trkpt lat="44.1825583" lon="11.1059783"><ele>817.0</ele><time>2026-04-09T10:17:06.938Z</time></trkpt><trkpt lat="44.1826317" lon="11.1060183"><ele>817.0</ele><time>2026-04-09T10:17:12.938Z</time></trkpt><trkpt lat="44.1827033" lon="11.1060567"><ele>817.0</ele><time>2026-04-09T10:17:14.938Z</time></trkpt><trkpt lat="44.1827983" lon="11.1061017"><ele>816.9999999999999</ele><time>2026-04-09T10:17:16.938Z</time></trkpt><trkpt lat="44.1829" lon="11.1061383"><ele>817.0</ele><time>2026-04-09T10:17:18.938Z</time></trkpt><trkpt lat="44.1830017" lon="11.106165"><ele>816.9999999999999</ele><time>2026-04-09T10:17:20.938Z</time></trkpt><trkpt lat="44.18309" lon="11.1061783"><ele>817.0</ele><time>2026-04-09T10:17:22.939Z</time></trkpt><trkpt lat="44.18316" lon="11.10621"><ele>817.0</ele><time>2026-04-09T10:17:24.939Z</time></trkpt><trkpt lat="44.1832317" lon="11.1062417"><ele>817.0</ele><time>2026-04-09T10:17:28.938Z</time></trkpt><trkpt lat="44.1833083" lon="11.10622"><ele>816.9999999999999</ele><time>2026-04-09T10:17:31.938Z</time></trkpt><trkpt lat="44.183425" lon="11.106205"><ele>817.0</ele><time>2026-04-09T10:17:33.938Z</time></trkpt><trkpt lat="44.1835133" lon="11.1061917"><ele>816.2</ele><time>2026-04-09T10:17:34.938Z</time></trkpt><trkpt lat="44.18361" lon="11.10616"><ele>815.4000000000001</ele><time>2026-04-09T10:17:35.939Z</time></trkpt><trkpt lat="44.1837033" lon="11.10611"><ele>814.5999999999999</ele><time>2026-04-09T10:17:36.939Z</time></trkpt><trkpt lat="44.183795" lon="11.106035"><ele>813.8</ele><time>2026-04-09T10:17:37.939Z</time></trkpt><trkpt lat="44.183875" lon="11.10596"><ele>813.0</ele><time>2026-04-09T10:17:38.938Z</time></trkpt><trkpt lat="44.1839533" lon="11.1058783"><ele>813.0</ele><time>2026-04-09T10:17:39.938Z</time></trkpt><trkpt lat="44.1840317" lon="11.1057933"><ele>813.0</ele><time>2026-04-09T10:17:40.938Z</time></trkpt><trkpt lat="44.18411" lon="11.10571"><ele>813.0</ele><time>2026-04-09T10:17:41.938Z</time></trkpt><trkpt lat="44.1842" lon="11.1056367"><ele>813.0</ele><time>2026-04-09T10:17:42.938Z</time></trkpt><trkpt lat="44.1842983" lon="11.1055867"><ele>813.0</ele><time>2026-04-09T10:17:43.938Z</time></trkpt><trkpt lat="44.1843983" lon="11.1055567"><ele>810.0</ele><time>2026-04-09T10:17:44.938Z</time></trkpt><trkpt lat="44.1845183" lon="11.105545"><ele>807.0</ele><time>2026-04-09T10:17:45.938Z</time></trkpt><trkpt lat="44.18464" lon="11.10554"><ele>804.0</ele><time>2026-04-09T10:17:46.938Z</time></trkpt><trkpt lat="44.184775" lon="11.10552"><ele>801.0</ele><time>2026-04-09T10:17:47.938Z</time></trkpt><trkpt lat="44.184905" lon="11.1055"><ele>801.0</ele><time>2026-04-09T10:17:48.938Z</time></trkpt><trkpt lat="44.18503" lon="11.10548"><ele>801.0</ele><time>2026-04-09T10:17:49.938Z</time></trkpt><trkpt lat="44.185145" lon="11.1054483"><ele>801.0</ele><time>2026-04-09T10:17:50.938Z</time></trkpt><trkpt lat="44.1852533" lon="11.1054067"><ele>801.0</ele><time>2026-04-09T10:17:51.938Z</time></trkpt><trkpt lat="44.1853383" lon="11.1053533"><ele>801.0</ele><time>2026-04-09T10:17:52.938Z</time></trkpt><trkpt lat="44.1854383" lon="11.105305"><ele>801.0</ele><time>2026-04-09T10:17:53.938Z</time></trkpt><trkpt lat="44.1855517" lon="11.1052683"><ele>801.0</ele><time>2026-04-09T10:17:54.938Z</time></trkpt><trkpt lat="44.185675" lon="11.10524"><ele>801.0</ele><time>2026-04-09T10:17:55.939Z</time></trkpt><trkpt lat="44.1857867" lon="11.1052367"><ele>801.0</ele><time>2026-04-09T10:17:56.939Z</time></trkpt><trkpt lat="44.18589" lon="11.10526"><ele>800.5999999999999</ele><time>2026-04-09T10:17:57.939Z</time></trkpt><trkpt lat="44.1859833" lon="11.1053183"><ele>800.2</ele><time>2026-04-09T10:17:58.938Z</time></trkpt><trkpt lat="44.1860667" lon="11.105395"><ele>799.8</ele><time>2026-04-09T10:17:59.939Z</time></trkpt><trkpt lat="44.1861367" lon="11.1054867"><ele>799.4000000000001</ele><time>2026-04-09T10:18:00.938Z</time></trkpt><trkpt lat="44.1861883" lon="11.1055917"><ele>799.0</ele><time>2026-04-09T10:18:01.938Z</time></trkpt><trkpt lat="44.186225" lon="11.1057017"><ele>800.6666666666666</ele><time>2026-04-09T10:18:02.938Z</time></trkpt><trkpt lat="44.18626" lon="11.1058167"><ele>802.3333333333333</ele><time>2026-04-09T10:18:03.938Z</time></trkpt><trkpt lat="44.1862983" lon="11.1059333"><ele>804.0</ele><time>2026-04-09T10:18:04.938Z</time></trkpt><trkpt lat="44.1863383" lon="11.10603"><ele>805.6666666666667</ele><time>2026-04-09T10:18:05.938Z</time></trkpt><trkpt lat="44.186385" lon="11.1061083"><ele>807.3333333333334</ele><time>2026-04-09T10:18:06.939Z</time></trkpt><trkpt lat="44.1864433" lon="11.1061667"><ele>809.0</ele><time>2026-04-09T10:18:07.938Z</time></trkpt><trkpt lat="44.1865283" lon="11.1062"><ele>805.0</ele><time>2026-04-09T10:18:08.938Z</time></trkpt><trkpt lat="44.1866233" lon="11.1062167"><ele>801.0</ele><time>2026-04-09T10:18:09.939Z</time></trkpt><trkpt lat="44.18673" lon="11.1062183"><ele>797.0</ele><time>2026-04-09T10:18:10.938Z</time></trkpt><trkpt lat="44.18683" lon="11.1062217"><ele>793.0</ele><time>2026-04-09T10:18:11.938Z</time></trkpt><trkpt lat="44.1869267" lon="11.1062317"><ele>789.0</ele><time>2026-04-09T10:18:12.938Z</time></trkpt><trkpt lat="44.187015" lon="11.106245"><ele>789.0</ele><time>2026-04-09T10:18:13.938Z</time></trkpt><trkpt lat="44.1871" lon="11.1062583"><ele>789.0</ele><time>2026-04-09T10:18:14.939Z</time></trkpt><trkpt lat="44.1871817" lon="11.1062717"><ele>789.0</ele><time>2026-04-09T10:18:15.939Z</time></trkpt><trkpt lat="44.18726" lon="11.1062867"><ele>789.0</ele><time>2026-04-09T10:18:16.938Z</time></trkpt><trkpt lat="44.1873433" lon="11.1062983"><ele>789.0</ele><time>2026-04-09T10:18:17.938Z</time></trkpt><trkpt lat="44.1874333" lon="11.1063067"><ele>789.0</ele><time>2026-04-09T10:18:18.938Z</time></trkpt><trkpt lat="44.1875267" lon="11.1063167"><ele>787.5</ele><time>2026-04-09T10:18:19.938Z</time></trkpt><trkpt lat="44.18762" lon="11.1063317"><ele>786.0</ele><time>2026-04-09T10:18:20.938Z</time></trkpt><trkpt lat="44.1877083" lon="11.1063433"><ele>784.5</ele><time>2026-04-09T10:18:21.938Z</time></trkpt><trkpt lat="44.187785" lon="11.1063517"><ele>783.0</ele><time>2026-04-09T10:18:22.938Z</time></trkpt><trkpt lat="44.1878883" lon="11.106355"><ele>781.5</ele><time>2026-04-09T10:18:24.939Z</time></trkpt><trkpt lat="44.1879467" lon="11.1063217"><ele>780.0</ele><time>2026-04-09T10:18:26.939Z</time></trkpt><trkpt lat="44.1879217" lon="11.1062033"><ele>780.0</ele><time>2026-04-09T10:18:29.938Z</time></trkpt><trkpt lat="44.1878317" lon="11.106085"><ele>780.0</ele><time>2026-04-09T10:18:31.938Z</time></trkpt><trkpt lat="44.1877733" lon="11.10601"><ele>780.0</ele><time>2026-04-09T10:18:32.938Z</time></trkpt><trkpt lat="44.1877067" lon="11.1059283"><ele>780.0</ele><time>2026-04-09T10:18:33.938Z</time></trkpt><trkpt lat="44.1876233" lon="11.10582"><ele>780.0</ele><time>2026-04-09T10:18:34.938Z</time></trkpt><trkpt lat="44.1875217" lon="11.1057017"><ele>780.25</ele><time>2026-04-09T10:18:35.938Z</time></trkpt><trkpt lat="44.187415" lon="11.1055817"><ele>780.5</ele><time>2026-04-09T10:18:36.938Z</time></trkpt><trkpt lat="44.1873033" lon="11.105465"><ele>780.75</ele><time>2026-04-09T10:18:37.938Z</time></trkpt><trkpt lat="44.1871917" lon="11.1053483"><ele>781.0</ele><time>2026-04-09T10:18:38.938Z</time></trkpt><trkpt lat="44.1870817" lon="11.1052367"><ele>781.0</ele><time>2026-04-09T10:18:39.938Z</time></trkpt><trkpt lat="44.1869733" lon="11.1051283"><ele>781.0</ele><time>2026-04-09T10:18:40.938Z</time></trkpt><trkpt lat="44.1868667" lon="11.1050217"><ele>781.0</ele><time>2026-04-09T10:18:41.939Z</time></trkpt><trkpt lat="44.186765" lon="11.10492"><ele>781.0</ele><time>2026-04-09T10:18:42.938Z</time></trkpt><trkpt lat="44.18667" lon="11.1048183"><ele>782.0</ele><time>2026-04-09T10:18:43.938Z</time></trkpt><trkpt lat="44.1865883" lon="11.10472"><ele>783.0</ele><time>2026-04-09T10:18:44.938Z</time></trkpt><trkpt lat="44.186525" lon="11.1046067"><ele>784.0</ele><time>2026-04-09T10:18:45.938Z</time></trkpt><trkpt lat="44.18648" lon="11.1044883"><ele>785.0</ele><time>2026-04-09T10:18:46.938Z</time></trkpt><trkpt lat="44.1864467" lon="11.1043533"><ele>786.0</ele><time>2026-04-09T10:18:47.938Z</time></trkpt><trkpt lat="44.1864217" lon="11.104195"><ele>783.4</ele><time>2026-04-09T10:18:48.938Z</time></trkpt><trkpt lat="44.186405" lon="11.1040417"><ele>780.8</ele><time>2026-04-09T10:18:49.938Z</time></trkpt><trkpt lat="44.18639" lon="11.1038867"><ele>778.1999999999999</ele><time>2026-04-09T10:18:50.939Z</time></trkpt><trkpt lat="44.1863883" lon="11.1037467"><ele>775.5999999999999</ele><time>2026-04-09T10:18:51.938Z</time></trkpt><trkpt lat="44.1863883" lon="11.1035967"><ele>773.0</ele><time>2026-04-09T10:18:52.938Z</time></trkpt><trkpt lat="44.1864033" lon="11.1034517"><ele>773.0000000000001</ele><time>2026-04-09T10:18:53.938Z</time></trkpt><trkpt lat="44.1864217" lon="11.1033133"><ele>773.0</ele><time>2026-04-09T10:18:54.938Z</time></trkpt><trkpt lat="44.18643" lon="11.10318"><ele>773.0</ele><time>2026-04-09T10:18:55.938Z</time></trkpt><trkpt lat="44.1864267" lon="11.10306"><ele>773.0</ele><time>2026-04-09T10:18:56.939Z</time></trkpt><trkpt lat="44.18642" lon="11.1029533"><ele>773.0000000000001</ele><time>2026-04-09T10:18:57.938Z</time></trkpt><trkpt lat="44.1864017" lon="11.1028583"><ele>773.0</ele><time>2026-04-09T10:18:58.938Z</time></trkpt><trkpt lat="44.1863717" lon="11.10277"><ele>770.6666666666667</ele><time>2026-04-09T10:18:59.938Z</time></trkpt><trkpt lat="44.1863167" lon="11.1027033"><ele>768.3333333333334</ele><time>2026-04-09T10:19:00.938Z</time></trkpt><trkpt lat="44.1862383" lon="11.1026467"><ele>766.0</ele><time>2026-04-09T10:19:01.938Z</time></trkpt><trkpt lat="44.186145" lon="11.1026017"><ele>763.6666666666667</ele><time>2026-04-09T10:19:02.938Z</time></trkpt><trkpt lat="44.18606" lon="11.1025783"><ele>761.3333333333334</ele><time>2026-04-09T10:19:03.938Z</time></trkpt><trkpt lat="44.1859867" lon="11.102585"><ele>759.0</ele><time>2026-04-09T10:19:04.938Z</time></trkpt><trkpt lat="44.1859067" lon="11.1026133"><ele>759.0</ele><time>2026-04-09T10:19:05.938Z</time></trkpt><trkpt lat="44.1858217" lon="11.1026583"><ele>759.0</ele><time>2026-04-09T10:19:06.938Z</time></trkpt><trkpt lat="44.1857217" lon="11.1027167"><ele>759.0</ele><time>2026-04-09T10:19:07.938Z</time></trkpt><trkpt lat="44.1856233" lon="11.1027683"><ele>759.0</ele><time>2026-04-09T10:19:08.938Z</time></trkpt><trkpt lat="44.185525" lon="11.1027967"><ele>759.0</ele><time>2026-04-09T10:19:09.938Z</time></trkpt><trkpt lat="44.1854367" lon="11.1028067"><ele>758.2</ele><time>2026-04-09T10:19:10.938Z</time></trkpt><trkpt lat="44.18535" lon="11.1027833"><ele>757.4000000000001</ele><time>2026-04-09T10:19:11.938Z</time></trkpt><trkpt lat="44.1852667" lon="11.1027183"><ele>756.6</ele><time>2026-04-09T10:19:12.938Z</time></trkpt><trkpt lat="44.1851767" lon="11.1026317"><ele>755.8</ele><time>2026-04-09T10:19:13.938Z</time></trkpt><trkpt lat="44.185085" lon="11.10253"><ele>755.0</ele><time>2026-04-09T10:19:14.938Z</time></trkpt><trkpt lat="44.1849983" lon="11.10245"><ele>753.4</ele><time>2026-04-09T10:19:15.938Z</time></trkpt><trkpt lat="44.18491" lon="11.1023817"><ele>751.8</ele><time>2026-04-09T10:19:16.938Z</time></trkpt><trkpt lat="44.184805" lon="11.102315"><ele>750.2</ele><time>2026-04-09T10:19:17.938Z</time></trkpt><trkpt lat="44.1847133" lon="11.1022567"><ele>748.6</ele><time>2026-04-09T10:19:18.938Z</time></trkpt><trkpt lat="44.18463" lon="11.1022083"><ele>747.0</ele><time>2026-04-09T10:19:19.938Z</time></trkpt><trkpt lat="44.184565" lon="11.10215"><ele>747.8333333333334</ele><time>2026-04-09T10:19:20.938Z</time></trkpt><trkpt lat="44.1845183" lon="11.102075"><ele>748.6666666666666</ele><time>2026-04-09T10:19:21.938Z</time></trkpt><trkpt lat="44.184505" lon="11.1019867"><ele>749.5</ele><time>2026-04-09T10:19:22.938Z</time></trkpt><trkpt lat="44.1845217" lon="11.1018717"><ele>750.3333333333333</ele><time>2026-04-09T10:19:23.938Z</time></trkpt><trkpt lat="44.1845467" lon="11.1017533"><ele>751.1666666666666</ele><time>2026-04-09T10:19:24.938Z</time></trkpt><trkpt lat="44.18457" lon="11.1016283"><ele>752.0</ele><time>2026-04-09T10:19:25.938Z</time></trkpt><trkpt lat="44.1845817" lon="11.1015133"><ele>752.0</ele><time>2026-04-09T10:19:26.938Z</time></trkpt><trkpt lat="44.1845767" lon="11.1014083"><ele>752.0</ele><time>2026-04-09T10:19:27.938Z</time></trkpt><trkpt lat="44.1845417" lon="11.101305"><ele>752.0</ele><time>2026-04-09T10:19:28.938Z</time></trkpt><trkpt lat="44.1844783" lon="11.10121"><ele>752.0</ele><time>2026-04-09T10:19:29.938Z</time></trkpt><trkpt lat="44.1843933" lon="11.1011117"><ele>752.0</ele><time>2026-04-09T10:19:30.938Z</time></trkpt><trkpt lat="44.18431" lon="11.10101"><ele>752.0</ele><time>2026-04-09T10:19:31.938Z</time></trkpt><trkpt lat="44.184225" lon="11.1009067"><ele>752.0</ele><time>2026-04-09T10:19:32.938Z</time></trkpt><trkpt lat="44.1841533" lon="11.1008067"><ele>752.0</ele><time>2026-04-09T10:19:33.938Z</time></trkpt><trkpt lat="44.18407" lon="11.1007367"><ele>752.0</ele><time>2026-04-09T10:19:34.938Z</time></trkpt><trkpt lat="44.1839717" lon="11.100685"><ele>752.0</ele><time>2026-04-09T10:19:35.938Z</time></trkpt><trkpt lat="44.18387" lon="11.10065"><ele>752.0</ele><time>2026-04-09T10:19:36.938Z</time></trkpt><trkpt lat="44.1837883" lon="11.100595"><ele>752.0</ele><time>2026-04-09T10:19:37.938Z</time></trkpt><trkpt lat="44.1837133" lon="11.1005067"><ele>752.0</ele><time>2026-04-09T10:19:38.938Z</time></trkpt><trkpt lat="44.1836617" lon="11.1003933"><ele>752.0</ele><time>2026-04-09T10:19:39.938Z</time></trkpt><trkpt lat="44.18363" lon="11.1002733"><ele>752.0</ele><time>2026-04-09T10:19:40.938Z</time></trkpt><trkpt lat="44.1836267" lon="11.1001317"><ele>752.0</ele><time>2026-04-09T10:19:41.938Z</time></trkpt><trkpt lat="44.1836283" lon="11.0999917"><ele>752.0</ele><time>2026-04-09T10:19:42.938Z</time></trkpt><trkpt lat="44.183635" lon="11.09985"><ele>752.0</ele><time>2026-04-09T10:19:43.938Z</time></trkpt><trkpt lat="44.1836183" lon="11.09969"><ele>752.0</ele><time>2026-04-09T10:19:44.938Z</time></trkpt><trkpt lat="44.1835917" lon="11.09953"><ele>752.0</ele><time>2026-04-09T10:19:45.938Z</time></trkpt><trkpt lat="44.183565" lon="11.09939"><ele>750.8</ele><time>2026-04-09T10:19:46.938Z</time></trkpt><trkpt lat="44.1835367" lon="11.09927"><ele>749.6</ele><time>2026-04-09T10:19:47.938Z</time></trkpt><trkpt lat="44.1834867" lon="11.0991583"><ele>748.4</ele><time>2026-04-09T10:19:48.938Z</time></trkpt><trkpt lat="44.1834033" lon="11.09906"><ele>747.1999999999999</ele><time>2026-04-09T10:19:49.938Z</time></trkpt><trkpt lat="44.18331" lon="11.0989633"><ele>746.0</ele><time>2026-04-09T10:19:50.938Z</time></trkpt><trkpt lat="44.183225" lon="11.098875"><ele>746.0</ele><time>2026-04-09T10:19:51.938Z</time></trkpt><trkpt lat="44.1831567" lon="11.0987917"><ele>746.0</ele><time>2026-04-09T10:19:52.938Z</time></trkpt><trkpt lat="44.1830983" lon="11.098705"><ele>746.0</ele><time>2026-04-09T10:19:53.938Z</time></trkpt><trkpt lat="44.18304" lon="11.0986033"><ele>746.0</ele><time>2026-04-09T10:19:54.938Z</time></trkpt><trkpt lat="44.1829767" lon="11.0984817"><ele>746.0</ele><time>2026-04-09T10:19:55.938Z</time></trkpt><trkpt lat="44.182905" lon="11.0983517"><ele>744.5999999999999</ele><time>2026-04-09T10:19:56.938Z</time></trkpt><trkpt lat="44.1828333" lon="11.0982233"><ele>743.2</ele><time>2026-04-09T10:19:57.938Z</time></trkpt><trkpt lat="44.1827633" lon="11.0981017"><ele>741.8</ele><time>2026-04-09T10:19:58.938Z</time></trkpt><trkpt lat="44.1827" lon="11.0979867"><ele>740.4000000000001</ele><time>2026-04-09T10:19:59.938Z</time></trkpt><trkpt lat="44.1826367" lon="11.0978733"><ele>739.0</ele><time>2026-04-09T10:20:00.938Z</time></trkpt><trkpt lat="44.182565" lon="11.0977617"><ele>739.0</ele><time>2026-04-09T10:20:01.938Z</time></trkpt><trkpt lat="44.18249" lon="11.09765"><ele>739.0</ele><time>2026-04-09T10:20:02.938Z</time></trkpt><trkpt lat="44.1824117" lon="11.0975483"><ele>739.0</ele><time>2026-04-09T10:20:03.938Z</time></trkpt><trkpt lat="44.1823233" lon="11.09746"><ele>739.0</ele><time>2026-04-09T10:20:04.938Z</time></trkpt><trkpt lat="44.1822317" lon="11.0973883"><ele>739.0</ele><time>2026-04-09T10:20:05.938Z</time></trkpt><trkpt lat="44.1821417" lon="11.0973233"><ele>742.0</ele><time>2026-04-09T10:20:06.938Z</time></trkpt><trkpt lat="44.1820583" lon="11.0972617"><ele>745.0</ele><time>2026-04-09T10:20:07.938Z</time></trkpt><trkpt lat="44.18199" lon="11.0972033"><ele>748.0</ele><time>2026-04-09T10:20:08.938Z</time></trkpt><trkpt lat="44.181935" lon="11.0971483"><ele>751.0</ele><time>2026-04-09T10:20:09.938Z</time></trkpt><trkpt lat="44.181865" lon="11.0970717"><ele>754.0</ele><time>2026-04-09T10:20:11.938Z</time></trkpt><trkpt lat="44.1819517" lon="11.097115"><ele>757.0</ele><time>2026-04-09T10:31:52.935Z</time></trkpt><trkpt lat="44.182005" lon="11.09718"><ele>757.0</ele><time>2026-04-09T10:31:54.935Z</time></trkpt><trkpt lat="44.1820533" lon="11.0972367"><ele>757.0</ele><time>2026-04-09T10:31:56.935Z</time></trkpt><trkpt lat="44.1821083" lon="11.0973067"><ele>757.0</ele><time>2026-04-09T10:31:59.935Z</time></trkpt><trkpt lat="44.1821683" lon="11.0973517"><ele>757.0</ele><time>2026-04-09T10:32:02.936Z</time></trkpt><trkpt lat="44.1822433" lon="11.0974083"><ele>757.0</ele><time>2026-04-09T10:32:05.935Z</time></trkpt><trkpt lat="44.1823033" lon="11.0974533"><ele>757.0</ele><time>2026-04-09T10:32:07.936Z</time></trkpt><trkpt lat="44.1823983" lon="11.0975317"><ele>754.0</ele><time>2026-04-09T10:32:09.935Z</time></trkpt><trkpt lat="44.1824533" lon="11.0975917"><ele>751.0</ele><time>2026-04-09T10:32:10.935Z</time></trkpt><trkpt lat="44.1825117" lon="11.0976717"><ele>748.0</ele><time>2026-04-09T10:32:11.935Z</time></trkpt><trkpt lat="44.1825683" lon="11.09776"><ele>745.0</ele><time>2026-04-09T10:32:12.936Z</time></trkpt><trkpt lat="44.1826183" lon="11.097845"><ele>742.0</ele><time>2026-04-09T10:32:13.936Z</time></trkpt><trkpt lat="44.1826517" lon="11.0979233"><ele>739.0</ele><time>2026-04-09T10:32:14.935Z</time></trkpt><trkpt lat="44.18272" lon="11.098055"><ele>739.0</ele><time>2026-04-09T10:32:16.935Z</time></trkpt><trkpt lat="44.18276" lon="11.098145"><ele>739.0</ele><time>2026-04-09T10:32:18.935Z</time></trkpt><trkpt lat="44.1827817" lon="11.0980567"><ele>739.0</ele><time>2026-04-09T10:32:24.935Z</time></trkpt><trkpt lat="44.1827167" lon="11.0979767"><ele>739.0</ele><time>2026-04-09T10:32:26.935Z</time></trkpt><trkpt lat="44.1826633" lon="11.09791"><ele>739.0</ele><time>2026-04-09T10:32:27.935Z</time></trkpt><trkpt lat="44.1826133" lon="11.09783"><ele>739.0</ele><time>2026-04-09T10:32:28.935Z</time></trkpt><trkpt lat="44.1825533" lon="11.0977317"><ele>739.0</ele><time>2026-04-09T10:32:29.935Z</time></trkpt><trkpt lat="44.1824717" lon="11.0976183"><ele>739.0</ele><time>2026-04-09T10:32:30.935Z</time></trkpt><trkpt lat="44.1823833" lon="11.09752"><ele>739.0</ele><time>2026-04-09T10:32:31.936Z</time></trkpt><trkpt lat="44.1822767" lon="11.0974367"><ele>739.0</ele><time>2026-04-09T10:32:32.935Z</time></trkpt><trkpt lat="44.1821683" lon="11.0973617"><ele>742.0</ele><time>2026-04-09T10:32:33.936Z</time></trkpt><trkpt lat="44.1820733" lon="11.0972883"><ele>745.0</ele><time>2026-04-09T10:32:34.935Z</time></trkpt><trkpt lat="44.182005" lon="11.0972083"><ele>748.0</ele><time>2026-04-09T10:32:35.935Z</time></trkpt><trkpt lat="44.1819317" lon="11.0971317"><ele>751.0</ele><time>2026-04-09T10:32:36.935Z</time></trkpt><trkpt lat="44.1818683" lon="11.0970617"><ele>754.0</ele><time>2026-04-09T10:32:37.936Z</time></trkpt><trkpt lat="44.1818133" lon="11.09701"><ele>757.0</ele><time>2026-04-09T10:32:38.935Z</time></trkpt><trkpt lat="44.181705" lon="11.0969467"><ele>757.0</ele><time>2026-04-09T10:32:40.935Z</time></trkpt><trkpt lat="44.18159" lon="11.0968833"><ele>757.0</ele><time>2026-04-09T10:32:42.936Z</time></trkpt><trkpt lat="44.1815283" lon="11.0968283"><ele>757.0</ele><time>2026-04-09T10:32:43.936Z</time></trkpt><trkpt lat="44.18147" lon="11.09674"><ele>757.0</ele><time>2026-04-09T10:32:44.935Z</time></trkpt><trkpt lat="44.1814217" lon="11.0966383"><ele>757.0</ele><time>2026-04-09T10:32:45.935Z</time></trkpt><trkpt lat="44.18139" lon="11.096525"><ele>762.6</ele><time>2026-04-09T10:32:46.936Z</time></trkpt><trkpt lat="44.1813667" lon="11.0963867"><ele>768.2</ele><time>2026-04-09T10:32:47.935Z</time></trkpt><trkpt lat="44.181355" lon="11.0962433"><ele>773.8</ele><time>2026-04-09T10:32:48.935Z</time></trkpt><trkpt lat="44.181345" lon="11.0960967"><ele>779.4</ele><time>2026-04-09T10:32:49.935Z</time></trkpt><trkpt lat="44.1813367" lon="11.0959517"><ele>785.0</ele><time>2026-04-09T10:32:50.935Z</time></trkpt><trkpt lat="44.1813267" lon="11.0958167"><ele>783.2</ele><time>2026-04-09T10:32:51.936Z</time></trkpt><trkpt lat="44.18131" lon="11.09569"><ele>781.4</ele><time>2026-04-09T10:32:52.935Z</time></trkpt><trkpt lat="44.1812867" lon="11.09557"><ele>779.5999999999999</ele><time>2026-04-09T10:32:53.935Z</time></trkpt><trkpt lat="44.1812533" lon="11.095445"><ele>777.8</ele><time>2026-04-09T10:32:54.935Z</time></trkpt><trkpt lat="44.1812033" lon="11.09531"><ele>776.0</ele><time>2026-04-09T10:32:55.935Z</time></trkpt><trkpt lat="44.18114" lon="11.0951617"><ele>776.0</ele><time>2026-04-09T10:32:56.935Z</time></trkpt><trkpt lat="44.18108" lon="11.0950183"><ele>776.0</ele><time>2026-04-09T10:32:57.935Z</time></trkpt><trkpt lat="44.18103" lon="11.094875"><ele>776.0</ele><time>2026-04-09T10:32:58.935Z</time></trkpt><trkpt lat="44.1809933" lon="11.094725"><ele>776.0</ele><time>2026-04-09T10:32:59.936Z</time></trkpt><trkpt lat="44.1809633" lon="11.094575"><ele>774.8333333333334</ele><time>2026-04-09T10:33:00.935Z</time></trkpt><trkpt lat="44.1809367" lon="11.09443"><ele>773.6666666666667</ele><time>2026-04-09T10:33:01.936Z</time></trkpt><trkpt lat="44.1809117" lon="11.094295"><ele>772.5</ele><time>2026-04-09T10:33:02.935Z</time></trkpt><trkpt lat="44.1808883" lon="11.094185"><ele>771.3333333333333</ele><time>2026-04-09T10:33:03.935Z</time></trkpt><trkpt lat="44.1808733" lon="11.094085"><ele>770.1666666666666</ele><time>2026-04-09T10:33:04.935Z</time></trkpt><trkpt lat="44.1808533" lon="11.093985"><ele>769.0</ele><time>2026-04-09T10:33:05.935Z</time></trkpt><trkpt lat="44.1808333" lon="11.0938867"><ele>769.2</ele><time>2026-04-09T10:33:06.935Z</time></trkpt><trkpt lat="44.1808067" lon="11.0937817"><ele>769.4000000000001</ele><time>2026-04-09T10:33:07.936Z</time></trkpt><trkpt lat="44.1807733" lon="11.09366"><ele>769.6</ele><time>2026-04-09T10:33:08.934Z</time></trkpt><trkpt lat="44.180725" lon="11.0935183"><ele>769.8</ele><time>2026-04-09T10:33:09.934Z</time></trkpt><trkpt lat="44.180665" lon="11.0933817"><ele>770.0</ele><time>2026-04-09T10:33:10.935Z</time></trkpt><trkpt lat="44.1805967" lon="11.0932583"><ele>767.8</ele><time>2026-04-09T10:33:11.934Z</time></trkpt><trkpt lat="44.1805217" lon="11.09314"><ele>765.6</ele><time>2026-04-09T10:33:12.934Z</time></trkpt><trkpt lat="44.180455" lon="11.0930333"><ele>763.4000000000001</ele><time>2026-04-09T10:33:13.934Z</time></trkpt><trkpt lat="44.180395" lon="11.09292"><ele>761.2</ele><time>2026-04-09T10:33:14.934Z</time></trkpt><trkpt lat="44.1803583" lon="11.0928167"><ele>759.0</ele><time>2026-04-09T10:33:15.934Z</time></trkpt><trkpt lat="44.1803017" lon="11.092725"><ele>759.0</ele><time>2026-04-09T10:33:16.934Z</time></trkpt><trkpt lat="44.180245" lon="11.092645"><ele>759.0</ele><time>2026-04-09T10:33:17.934Z</time></trkpt><trkpt lat="44.1801633" lon="11.09259"><ele>759.0</ele><time>2026-04-09T10:33:18.934Z</time></trkpt><trkpt lat="44.1800567" lon="11.0925583"><ele>759.0</ele><time>2026-04-09T10:33:19.934Z</time></trkpt><trkpt lat="44.1799433" lon="11.092545"><ele>759.0</ele><time>2026-04-09T10:33:20.935Z</time></trkpt><trkpt lat="44.1798333" lon="11.09253"><ele>757.8000000000001</ele><time>2026-04-09T10:33:21.934Z</time></trkpt><trkpt lat="44.1797217" lon="11.0925217"><ele>756.6</ele><time>2026-04-09T10:33:22.935Z</time></trkpt><trkpt lat="44.1796117" lon="11.0925133"><ele>755.4</ele><time>2026-04-09T10:33:23.934Z</time></trkpt><trkpt lat="44.179505" lon="11.0925133"><ele>754.2</ele><time>2026-04-09T10:33:24.934Z</time></trkpt><trkpt lat="44.1793917" lon="11.0925317"><ele>753.0</ele><time>2026-04-09T10:33:25.934Z</time></trkpt><trkpt lat="44.179285" lon="11.092565"><ele>753.0</ele><time>2026-04-09T10:33:26.934Z</time></trkpt><trkpt lat="44.17919" lon="11.0926267"><ele>753.0</ele><time>2026-04-09T10:33:27.935Z</time></trkpt><trkpt lat="44.1790933" lon="11.09271"><ele>753.0</ele><time>2026-04-09T10:33:28.934Z</time></trkpt><trkpt lat="44.1789983" lon="11.0928167"><ele>753.0</ele><time>2026-04-09T10:33:29.934Z</time></trkpt><trkpt lat="44.1789017" lon="11.092955"><ele>751.25</ele><time>2026-04-09T10:33:30.935Z</time></trkpt><trkpt lat="44.1788033" lon="11.0930867"><ele>749.5</ele><time>2026-04-09T10:33:31.934Z</time></trkpt><trkpt lat="44.1786983" lon="11.09321"><ele>747.75</ele><time>2026-04-09T10:33:32.934Z</time></trkpt><trkpt lat="44.178605" lon="11.0933133"><ele>746.0</ele><time>2026-04-09T10:33:33.934Z</time></trkpt><trkpt lat="44.1785133" lon="11.09341"><ele>749.1999999999999</ele><time>2026-04-09T10:33:34.934Z</time></trkpt><trkpt lat="44.1784317" lon="11.09351"><ele>752.4</ele><time>2026-04-09T10:33:35.935Z</time></trkpt><trkpt lat="44.1783283" lon="11.0935733"><ele>755.6</ele><time>2026-04-09T10:33:36.934Z</time></trkpt><trkpt lat="44.17822" lon="11.0936183"><ele>758.8</ele><time>2026-04-09T10:33:37.934Z</time></trkpt><trkpt lat="44.17811" lon="11.0936517"><ele>762.0</ele><time>2026-04-09T10:33:38.934Z</time></trkpt><trkpt lat="44.17801" lon="11.093675"><ele>762.6666666666666</ele><time>2026-04-09T10:33:39.934Z</time></trkpt><trkpt lat="44.1779183" lon="11.0936933"><ele>763.3333333333334</ele><time>2026-04-09T10:33:40.934Z</time></trkpt><trkpt lat="44.17784" lon="11.0936933"><ele>764.0</ele><time>2026-04-09T10:33:41.934Z</time></trkpt><trkpt lat="44.1777633" lon="11.0936867"><ele>764.6666666666667</ele><time>2026-04-09T10:33:42.934Z</time></trkpt><trkpt lat="44.1776817" lon="11.0936717"><ele>765.3333333333334</ele><time>2026-04-09T10:33:43.934Z</time></trkpt><trkpt lat="44.1776017" lon="11.0936583"><ele>766.0</ele><time>2026-04-09T10:33:44.934Z</time></trkpt><trkpt lat="44.1775133" lon="11.0936567"><ele>766.0</ele><time>2026-04-09T10:33:45.934Z</time></trkpt><trkpt lat="44.1774167" lon="11.0936467"><ele>766.0</ele><time>2026-04-09T10:33:46.934Z</time></trkpt><trkpt lat="44.1773283" lon="11.09364"><ele>766.0</ele><time>2026-04-09T10:33:47.934Z</time></trkpt><trkpt lat="44.177245" lon="11.0936333"><ele>766.0</ele><time>2026-04-09T10:33:48.935Z</time></trkpt><trkpt lat="44.1771633" lon="11.0936217"><ele>766.0</ele><time>2026-04-09T10:33:49.935Z</time></trkpt><trkpt lat="44.177085" lon="11.0935817"><ele>766.0</ele><time>2026-04-09T10:33:50.934Z</time></trkpt><trkpt lat="44.177005" lon="11.09352"><ele>766.6666666666667</ele><time>2026-04-09T10:33:51.934Z</time></trkpt><trkpt lat="44.176935" lon="11.0934617"><ele>767.3333333333334</ele><time>2026-04-09T10:33:52.935Z</time></trkpt><trkpt lat="44.1768467" lon="11.0934083"><ele>768.0</ele><time>2026-04-09T10:33:54.935Z</time></trkpt><trkpt lat="44.1767767" lon="11.0933883"><ele>768.6666666666667</ele><time>2026-04-09T10:33:56.934Z</time></trkpt><trkpt lat="44.1767017" lon="11.0933717"><ele>769.3333333333334</ele><time>2026-04-09T10:33:58.934Z</time></trkpt><trkpt lat="44.1765967" lon="11.093345"><ele>770.0</ele><time>2026-04-09T10:34:00.934Z</time></trkpt><trkpt lat="44.1765283" lon="11.0933383"><ele>770.5000000000001</ele><time>2026-04-09T10:34:01.934Z</time></trkpt><trkpt lat="44.176455" lon="11.09333"><ele>771.0</ele><time>2026-04-09T10:34:02.934Z</time></trkpt><trkpt lat="44.1763833" lon="11.093325"><ele>771.5</ele><time>2026-04-09T10:34:03.935Z</time></trkpt><trkpt lat="44.176305" lon="11.09332"><ele>772.0</ele><time>2026-04-09T10:34:04.934Z</time></trkpt><trkpt lat="44.17621" lon="11.09331"><ele>772.5000000000001</ele><time>2026-04-09T10:34:05.934Z</time></trkpt><trkpt lat="44.1761217" lon="11.09329"><ele>773.0</ele><time>2026-04-09T10:34:06.934Z</time></trkpt><trkpt lat="44.176035" lon="11.093275"><ele>773.0000000000001</ele><time>2026-04-09T10:34:07.934Z</time></trkpt><trkpt lat="44.1759567" lon="11.0932717"><ele>773.0</ele><time>2026-04-09T10:34:08.935Z</time></trkpt><trkpt lat="44.1758783" lon="11.093275"><ele>773.0</ele><time>2026-04-09T10:34:09.934Z</time></trkpt><trkpt lat="44.175815" lon="11.0933017"><ele>773.0</ele><time>2026-04-09T10:34:10.934Z</time></trkpt><trkpt lat="44.1757517" lon="11.0933433"><ele>773.0000000000001</ele><time>2026-04-09T10:34:11.934Z</time></trkpt><trkpt lat="44.17569" lon="11.0934017"><ele>773.0</ele><time>2026-04-09T10:34:12.935Z</time></trkpt><trkpt lat="44.1756167" lon="11.0934867"><ele>774.3333333333334</ele><time>2026-04-09T10:34:13.934Z</time></trkpt><trkpt lat="44.175535" lon="11.09358"><ele>775.6666666666667</ele><time>2026-04-09T10:34:14.934Z</time></trkpt><trkpt lat="44.175455" lon="11.0936633"><ele>777.0</ele><time>2026-04-09T10:34:15.934Z</time></trkpt><trkpt lat="44.1753867" lon="11.0937483"><ele>778.3333333333333</ele><time>2026-04-09T10:34:16.934Z</time></trkpt><trkpt lat="44.1753217" lon="11.09381"><ele>779.6666666666666</ele><time>2026-04-09T10:34:17.934Z</time></trkpt><trkpt lat="44.1752633" lon="11.0938567"><ele>781.0</ele><time>2026-04-09T10:34:18.935Z</time></trkpt><trkpt lat="44.1751983" lon="11.0938867"><ele>780.9999999999999</ele><time>2026-04-09T10:34:19.934Z</time></trkpt><trkpt lat="44.1751283" lon="11.093905"><ele>781.0</ele><time>2026-04-09T10:34:20.934Z</time></trkpt><trkpt lat="44.1750383" lon="11.0938783"><ele>781.0</ele><time>2026-04-09T10:34:21.934Z</time></trkpt><trkpt lat="44.174955" lon="11.093835"><ele>781.0</ele><time>2026-04-09T10:34:22.934Z</time></trkpt><trkpt lat="44.1748733" lon="11.0937917"><ele>780.9999999999999</ele><time>2026-04-09T10:34:23.934Z</time></trkpt><trkpt lat="44.1747883" lon="11.0937633"><ele>781.0</ele><time>2026-04-09T10:34:24.934Z</time></trkpt><trkpt lat="44.1746867" lon="11.0937433"><ele>780.1999999999999</ele><time>2026-04-09T10:34:25.934Z</time></trkpt><trkpt lat="44.174585" lon="11.0937417"><ele>779.4</ele><time>2026-04-09T10:34:26.935Z</time></trkpt><trkpt lat="44.1744833" lon="11.0937383"><ele>778.6</ele><time>2026-04-09T10:34:27.935Z</time></trkpt><trkpt lat="44.1743817" lon="11.093725"><ele>777.8</ele><time>2026-04-09T10:34:28.934Z</time></trkpt><trkpt lat="44.1742867" lon="11.0937033"><ele>777.0</ele><time>2026-04-09T10:34:29.935Z</time></trkpt><trkpt lat="44.174195" lon="11.0936783"><ele>777.0</ele><time>2026-04-09T10:34:30.934Z</time></trkpt><trkpt lat="44.1741033" lon="11.093655"><ele>777.0</ele><time>2026-04-09T10:34:31.934Z</time></trkpt><trkpt lat="44.1740067" lon="11.093625"><ele>777.0</ele><time>2026-04-09T10:34:32.934Z</time></trkpt><trkpt lat="44.1739133" lon="11.0935983"><ele>777.0</ele><time>2026-04-09T10:34:33.934Z</time></trkpt><trkpt lat="44.17382" lon="11.0935817"><ele>777.0</ele><time>2026-04-09T10:34:34.935Z</time></trkpt><trkpt lat="44.1737267" lon="11.09358"><ele>775.0</ele><time>2026-04-09T10:34:35.934Z</time></trkpt><trkpt lat="44.1736317" lon="11.0935667"><ele>773.0</ele><time>2026-04-09T10:34:36.934Z</time></trkpt><trkpt lat="44.1735433" lon="11.093535"><ele>771.0</ele><time>2026-04-09T10:34:37.935Z</time></trkpt><trkpt lat="44.173455" lon="11.09349"><ele>769.0</ele><time>2026-04-09T10:34:38.934Z</time></trkpt><trkpt lat="44.17337" lon="11.0934433"><ele>767.0</ele><time>2026-04-09T10:34:39.934Z</time></trkpt><trkpt lat="44.1732883" lon="11.0933983"><ele>767.0</ele><time>2026-04-09T10:34:40.934Z</time></trkpt><trkpt lat="44.173215" lon="11.093365"><ele>767.0</ele><time>2026-04-09T10:34:41.934Z</time></trkpt><trkpt lat="44.1731467" lon="11.0933383"><ele>767.0</ele><time>2026-04-09T10:34:42.934Z</time></trkpt><trkpt lat="44.1730717" lon="11.0933417"><ele>767.0</ele><time>2026-04-09T10:34:43.934Z</time></trkpt><trkpt lat="44.17296" lon="11.0934267"><ele>767.0</ele><time>2026-04-09T10:34:45.935Z</time></trkpt><trkpt lat="44.1729167" lon="11.09352"><ele>767.0</ele><time>2026-04-09T10:34:46.934Z</time></trkpt><trkpt lat="44.1728833" lon="11.0936367"><ele>765.2</ele><time>2026-04-09T10:34:47.934Z</time></trkpt><trkpt lat="44.1728633" lon="11.09377"><ele>763.4000000000001</ele><time>2026-04-09T10:34:48.934Z</time></trkpt><trkpt lat="44.1728483" lon="11.093905"><ele>761.5999999999999</ele><time>2026-04-09T10:34:49.934Z</time></trkpt><trkpt lat="44.1728317" lon="11.09403"><ele>759.8</ele><time>2026-04-09T10:34:50.934Z</time></trkpt><trkpt lat="44.172825" lon="11.0941583"><ele>758.0</ele><time>2026-04-09T10:34:51.935Z</time></trkpt><trkpt lat="44.1728217" lon="11.09429"><ele>758.0</ele><time>2026-04-09T10:34:52.934Z</time></trkpt><trkpt lat="44.172825" lon="11.0944183"><ele>758.0</ele><time>2026-04-09T10:34:53.934Z</time></trkpt><trkpt lat="44.1728383" lon="11.0945383"><ele>758.0</ele><time>2026-04-09T10:34:54.935Z</time></trkpt><trkpt lat="44.1728617" lon="11.0946567"><ele>758.0</ele><time>2026-04-09T10:34:55.934Z</time></trkpt><trkpt lat="44.1728967" lon="11.0947717"><ele>758.0</ele><time>2026-04-09T10:34:56.934Z</time></trkpt><trkpt lat="44.1729433" lon="11.094895"><ele>757.0</ele><time>2026-04-09T10:34:57.934Z</time></trkpt><trkpt lat="44.1730017" lon="11.0950283"><ele>756.0</ele><time>2026-04-09T10:34:58.935Z</time></trkpt><trkpt lat="44.1730583" lon="11.0951483"><ele>755.0</ele><time>2026-04-09T10:34:59.934Z</time></trkpt><trkpt lat="44.1731133" lon="11.09526"><ele>754.0</ele><time>2026-04-09T10:35:00.934Z</time></trkpt><trkpt lat="44.1731467" lon="11.0953583"><ele>753.0</ele><time>2026-04-09T10:35:01.935Z</time></trkpt><trkpt lat="44.1731667" lon="11.0954633"><ele>753.0</ele><time>2026-04-09T10:35:02.934Z</time></trkpt><trkpt lat="44.1731617" lon="11.095565"><ele>753.0</ele><time>2026-04-09T10:35:03.934Z</time></trkpt><trkpt lat="44.1731533" lon="11.0956783"><ele>753.0</ele><time>2026-04-09T10:35:04.934Z</time></trkpt><trkpt lat="44.1731417" lon="11.0957883"><ele>753.0</ele><time>2026-04-09T10:35:05.934Z</time></trkpt><trkpt lat="44.17313" lon="11.0958883"><ele>753.0</ele><time>2026-04-09T10:35:06.934Z</time></trkpt><trkpt lat="44.1731217" lon="11.0959867"><ele>753.0</ele><time>2026-04-09T10:35:07.935Z</time></trkpt><trkpt lat="44.1730933" lon="11.0960733"><ele>753.0</ele><time>2026-04-09T10:35:08.934Z</time></trkpt><trkpt lat="44.173045" lon="11.096155"><ele>750.3333333333334</ele><time>2026-04-09T10:35:09.935Z</time></trkpt><trkpt lat="44.1729833" lon="11.09621"><ele>747.6666666666666</ele><time>2026-04-09T10:35:10.934Z</time></trkpt><trkpt lat="44.172915" lon="11.096265"><ele>745.0</ele><time>2026-04-09T10:35:11.934Z</time></trkpt><trkpt lat="44.1728517" lon="11.0963283"><ele>742.3333333333333</ele><time>2026-04-09T10:35:12.935Z</time></trkpt><trkpt lat="44.1727767" lon="11.0963683"><ele>739.6666666666666</ele><time>2026-04-09T10:35:13.935Z</time></trkpt><trkpt lat="44.1727117" lon="11.09638"><ele>737.0</ele><time>2026-04-09T10:35:14.935Z</time></trkpt><trkpt lat="44.172595" lon="11.09641"><ele>737.0</ele><time>2026-04-09T10:35:16.935Z</time></trkpt><trkpt lat="44.1724867" lon="11.0964367"><ele>737.0</ele><time>2026-04-09T10:35:18.934Z</time></trkpt><trkpt lat="44.1723767" lon="11.0964717"><ele>737.0</ele><time>2026-04-09T10:35:20.934Z</time></trkpt><trkpt lat="44.1722867" lon="11.0965033"><ele>737.0</ele><time>2026-04-09T10:35:22.934Z</time></trkpt><trkpt lat="44.1722067" lon="11.0964883"><ele>737.0</ele><time>2026-04-09T10:35:25.934Z</time></trkpt><trkpt lat="44.1721367" lon="11.096475"><ele>734.5</ele><time>2026-04-09T10:35:29.934Z</time></trkpt><trkpt lat="44.1720867" lon="11.0965533"><ele>732.0</ele><time>2026-04-09T10:35:39.934Z</time></trkpt><trkpt lat="44.1720783" lon="11.0967083"><ele>729.5</ele><time>2026-04-09T10:35:41.934Z</time></trkpt><trkpt lat="44.1720833" lon="11.0968117"><ele>727.0</ele><time>2026-04-09T10:35:42.934Z</time></trkpt><trkpt lat="44.1720883" lon="11.09692"><ele>724.5</ele><time>2026-04-09T10:35:43.934Z</time></trkpt><trkpt lat="44.1720933" lon="11.0970417"><ele>722.0</ele><time>2026-04-09T10:35:44.934Z</time></trkpt><trkpt lat="44.1721033" lon="11.0971683"><ele>721.4000000000001</ele><time>2026-04-09T10:35:45.934Z</time></trkpt><trkpt lat="44.1721083" lon="11.0973117"><ele>720.8000000000001</ele><time>2026-04-09T10:35:46.934Z</time></trkpt><trkpt lat="44.1721183" lon="11.0974567"><ele>720.2</ele><time>2026-04-09T10:35:47.934Z</time></trkpt><trkpt lat="44.1721217" lon="11.097605"><ele>719.6</ele><time>2026-04-09T10:35:48.934Z</time></trkpt><trkpt lat="44.1721233" lon="11.0977583"><ele>719.0</ele><time>2026-04-09T10:35:49.934Z</time></trkpt><trkpt lat="44.1721283" lon="11.0979083"><ele>719.0</ele><time>2026-04-09T10:35:50.934Z</time></trkpt><trkpt lat="44.1721333" lon="11.0980583"><ele>719.0</ele><time>2026-04-09T10:35:51.934Z</time></trkpt><trkpt lat="44.1721367" lon="11.09819"><ele>719.0</ele><time>2026-04-09T10:35:52.934Z</time></trkpt><trkpt lat="44.17213" lon="11.0983083"><ele>719.0</ele><time>2026-04-09T10:35:53.934Z</time></trkpt><trkpt lat="44.17211" lon="11.0984217"><ele>719.0</ele><time>2026-04-09T10:35:54.935Z</time></trkpt><trkpt lat="44.1720717" lon="11.098535"><ele>719.8000000000001</ele><time>2026-04-09T10:35:55.934Z</time></trkpt><trkpt lat="44.172015" lon="11.098645"><ele>720.6</ele><time>2026-04-09T10:35:56.935Z</time></trkpt><trkpt lat="44.1719433" lon="11.098755"><ele>721.4</ele><time>2026-04-09T10:35:57.934Z</time></trkpt><trkpt lat="44.17187" lon="11.09887"><ele>722.2</ele><time>2026-04-09T10:35:58.934Z</time></trkpt><trkpt lat="44.171795" lon="11.0989883"><ele>723.0</ele><time>2026-04-09T10:35:59.934Z</time></trkpt><trkpt lat="44.1717283" lon="11.099105"><ele>724.2</ele><time>2026-04-09T10:36:00.935Z</time></trkpt><trkpt lat="44.171665" lon="11.0992167"><ele>725.4</ele><time>2026-04-09T10:36:01.934Z</time></trkpt><trkpt lat="44.1716083" lon="11.099325"><ele>726.6</ele><time>2026-04-09T10:36:02.934Z</time></trkpt><trkpt lat="44.1715767" lon="11.0994417"><ele>727.8000000000001</ele><time>2026-04-09T10:36:03.935Z</time></trkpt><trkpt lat="44.1715667" lon="11.0995617"><ele>729.0</ele><time>2026-04-09T10:36:04.934Z</time></trkpt><trkpt lat="44.1715733" lon="11.0996883"><ele>729.0</ele><time>2026-04-09T10:36:05.934Z</time></trkpt><trkpt lat="44.1715967" lon="11.0998167"><ele>729.0</ele><time>2026-04-09T10:36:06.934Z</time></trkpt><trkpt lat="44.1716283" lon="11.0999517"><ele>729.0</ele><time>2026-04-09T10:36:07.934Z</time></trkpt><trkpt lat="44.171665" lon="11.100085"><ele>729.0</ele><time>2026-04-09T10:36:08.934Z</time></trkpt><trkpt lat="44.1716967" lon="11.1002267"><ele>729.0</ele><time>2026-04-09T10:36:09.934Z</time></trkpt><trkpt lat="44.1717317" lon="11.1003767"><ele>729.8000000000001</ele><time>2026-04-09T10:36:10.934Z</time></trkpt><trkpt lat="44.1717517" lon="11.10053"><ele>730.6</ele><time>2026-04-09T10:36:11.934Z</time></trkpt><trkpt lat="44.171765" lon="11.1006933"><ele>731.4</ele><time>2026-04-09T10:36:12.935Z</time></trkpt><trkpt lat="44.1717717" lon="11.1008483"><ele>732.2</ele><time>2026-04-09T10:36:13.934Z</time></trkpt><trkpt lat="44.171755" lon="11.10098"><ele>733.0</ele><time>2026-04-09T10:36:14.934Z</time></trkpt><trkpt lat="44.17172" lon="11.101105"><ele>733.4</ele><time>2026-04-09T10:36:15.935Z</time></trkpt><trkpt lat="44.1716683" lon="11.1012283"><ele>733.8</ele><time>2026-04-09T10:36:16.934Z</time></trkpt><trkpt lat="44.1715967" lon="11.1013467"><ele>734.2</ele><time>2026-04-09T10:36:17.935Z</time></trkpt><trkpt lat="44.1715233" lon="11.10146"><ele>734.6</ele><time>2026-04-09T10:36:18.934Z</time></trkpt><trkpt lat="44.1714567" lon="11.1015617"><ele>735.0</ele><time>2026-04-09T10:36:19.934Z</time></trkpt><trkpt lat="44.1713967" lon="11.1016617"><ele>734.4285714285714</ele><time>2026-04-09T10:36:20.935Z</time></trkpt><trkpt lat="44.1713383" lon="11.1017533"><ele>733.8571428571429</ele><time>2026-04-09T10:36:21.934Z</time></trkpt><trkpt lat="44.1712867" lon="11.10184"><ele>733.2857142857142</ele><time>2026-04-09T10:36:22.934Z</time></trkpt><trkpt lat="44.17124" lon="11.1019283"><ele>732.7142857142858</ele><time>2026-04-09T10:36:23.934Z</time></trkpt><trkpt lat="44.1712" lon="11.102005"><ele>732.1428571428571</ele><time>2026-04-09T10:36:24.934Z</time></trkpt><trkpt lat="44.1711583" lon="11.1020717"><ele>731.5714285714286</ele><time>2026-04-09T10:36:25.934Z</time></trkpt><trkpt lat="44.171135" lon="11.10216"><ele>731.0</ele><time>2026-04-09T10:36:26.934Z</time></trkpt><trkpt lat="44.17112" lon="11.1022483"><ele>733.8</ele><time>2026-04-09T10:36:27.935Z</time></trkpt><trkpt lat="44.1711183" lon="11.1024233"><ele>736.5999999999999</ele><time>2026-04-09T10:36:29.934Z</time></trkpt><trkpt lat="44.17111" lon="11.1025933"><ele>739.4</ele><time>2026-04-09T10:36:31.934Z</time></trkpt><trkpt lat="44.1710983" lon="11.1026817"><ele>742.2</ele><time>2026-04-09T10:36:32.934Z</time></trkpt><trkpt lat="44.1710783" lon="11.102765"><ele>745.0</ele><time>2026-04-09T10:36:33.934Z</time></trkpt><trkpt lat="44.1710033" lon="11.1029"><ele>745.0</ele><time>2026-04-09T10:36:35.935Z</time></trkpt><trkpt lat="44.1709567" lon="11.10296"><ele>745.0</ele><time>2026-04-09T10:36:36.934Z</time></trkpt><trkpt lat="44.170855" lon="11.1030233"><ele>745.0</ele><time>2026-04-09T10:36:38.934Z</time></trkpt><trkpt lat="44.1707767" lon="11.103125"><ele>745.0</ele><time>2026-04-09T10:36:40.934Z</time></trkpt><trkpt lat="44.1707333" lon="11.1031917"><ele>745.0</ele><time>2026-04-09T10:36:41.934Z</time></trkpt><trkpt lat="44.1707" lon="11.10328"><ele>745.0</ele><time>2026-04-09T10:36:42.934Z</time></trkpt><trkpt lat="44.17068" lon="11.1033733"><ele>744.1666666666667</ele><time>2026-04-09T10:36:43.934Z</time></trkpt><trkpt lat="44.170665" lon="11.10347"><ele>743.3333333333334</ele><time>2026-04-09T10:36:44.935Z</time></trkpt><trkpt lat="44.1706567" lon="11.1035583"><ele>742.5</ele><time>2026-04-09T10:36:45.934Z</time></trkpt><trkpt lat="44.1706467" lon="11.1036467"><ele>741.6666666666666</ele><time>2026-04-09T10:36:46.934Z</time></trkpt><trkpt lat="44.17064" lon="11.1037433"><ele>740.8333333333333</ele><time>2026-04-09T10:36:47.934Z</time></trkpt><trkpt lat="44.170635" lon="11.10384"><ele>740.0</ele><time>2026-04-09T10:36:48.934Z</time></trkpt><trkpt lat="44.1706183" lon="11.104005"><ele>740.0</ele><time>2026-04-09T10:36:50.934Z</time></trkpt><trkpt lat="44.1706017" lon="11.1041517"><ele>740.0</ele><time>2026-04-09T10:36:52.934Z</time></trkpt><trkpt lat="44.1705933" lon="11.1042483"><ele>740.0</ele><time>2026-04-09T10:36:54.935Z</time></trkpt><trkpt lat="44.170655" lon="11.1042283"><ele>740.0</ele><time>2026-04-09T10:37:51.933Z</time></trkpt><trkpt lat="44.1706633" lon="11.104045"><ele>740.0</ele><time>2026-04-09T10:37:53.933Z</time></trkpt><trkpt lat="44.1706717" lon="11.1039067"><ele>740.0</ele><time>2026-04-09T10:37:54.933Z</time></trkpt><trkpt lat="44.17068" lon="11.10376"><ele>740.0</ele><time>2026-04-09T10:37:55.933Z</time></trkpt><trkpt lat="44.1706933" lon="11.1036167"><ele>740.0</ele><time>2026-04-09T10:37:56.933Z</time></trkpt><trkpt lat="44.1707083" lon="11.10348"><ele>740.0</ele><time>2026-04-09T10:37:57.934Z</time></trkpt><trkpt lat="44.17073" lon="11.1033583"><ele>740.0</ele><time>2026-04-09T10:37:58.933Z</time></trkpt><trkpt lat="44.1707583" lon="11.1032467"><ele>741.0</ele><time>2026-04-09T10:37:59.933Z</time></trkpt><trkpt lat="44.1708067" lon="11.1031467"><ele>742.0</ele><time>2026-04-09T10:38:00.934Z</time></trkpt><trkpt lat="44.1708717" lon="11.1030633"><ele>743.0</ele><time>2026-04-09T10:38:01.933Z</time></trkpt><trkpt lat="44.1709533" lon="11.103005"><ele>744.0</ele><time>2026-04-09T10:38:02.933Z</time></trkpt><trkpt lat="44.1710367" lon="11.1029133"><ele>745.0</ele><time>2026-04-09T10:38:03.933Z</time></trkpt><trkpt lat="44.1710967" lon="11.1028"><ele>745.0</ele><time>2026-04-09T10:38:04.934Z</time></trkpt><trkpt lat="44.1711367" lon="11.1026567"><ele>745.0</ele><time>2026-04-09T10:38:05.934Z</time></trkpt><trkpt lat="44.17115" lon="11.1025"><ele>745.0</ele><time>2026-04-09T10:38:06.933Z</time></trkpt><trkpt lat="44.17116" lon="11.10235"><ele>745.0</ele><time>2026-04-09T10:38:07.934Z</time></trkpt><trkpt lat="44.17118" lon="11.1021967"><ele>745.0</ele><time>2026-04-09T10:38:08.933Z</time></trkpt><trkpt lat="44.1712217" lon="11.1020517"><ele>741.5</ele><time>2026-04-09T10:38:09.933Z</time></trkpt><trkpt lat="44.1712733" lon="11.1019283"><ele>738.0</ele><time>2026-04-09T10:38:10.934Z</time></trkpt><trkpt lat="44.171345" lon="11.10181"><ele>734.5</ele><time>2026-04-09T10:38:11.934Z</time></trkpt><trkpt lat="44.1714167" lon="11.1016717"><ele>731.0</ele><time>2026-04-09T10:38:12.933Z</time></trkpt><trkpt lat="44.17149" lon="11.101545"><ele>732.0</ele><time>2026-04-09T10:38:13.933Z</time></trkpt><trkpt lat="44.17157" lon="11.10142"><ele>733.0</ele><time>2026-04-09T10:38:14.933Z</time></trkpt><trkpt lat="44.1716467" lon="11.1012983"><ele>734.0</ele><time>2026-04-09T10:38:15.933Z</time></trkpt><trkpt lat="44.1717167" lon="11.1011783"><ele>735.0</ele><time>2026-04-09T10:38:16.933Z</time></trkpt><trkpt lat="44.1717683" lon="11.1010533"><ele>735.0</ele><time>2026-04-09T10:38:17.933Z</time></trkpt><trkpt lat="44.1717967" lon="11.1009083"><ele>735.0</ele><time>2026-04-09T10:38:18.933Z</time></trkpt><trkpt lat="44.1717983" lon="11.1007533"><ele>735.0</ele><time>2026-04-09T10:38:19.934Z</time></trkpt><trkpt lat="44.17179" lon="11.10059"><ele>735.0</ele><time>2026-04-09T10:38:20.933Z</time></trkpt><trkpt lat="44.17177" lon="11.1004283"><ele>734.5</ele><time>2026-04-09T10:38:21.933Z</time></trkpt><trkpt lat="44.1717383" lon="11.1002683"><ele>734.0</ele><time>2026-04-09T10:38:22.933Z</time></trkpt><trkpt lat="44.17171" lon="11.1001133"><ele>733.5</ele><time>2026-04-09T10:38:23.933Z</time></trkpt><trkpt lat="44.171675" lon="11.0999633"><ele>733.0</ele><time>2026-04-09T10:38:24.933Z</time></trkpt><trkpt lat="44.1716417" lon="11.099815"><ele>732.2</ele><time>2026-04-09T10:38:25.934Z</time></trkpt><trkpt lat="44.1716183" lon="11.0996833"><ele>731.4</ele><time>2026-04-09T10:38:26.933Z</time></trkpt><trkpt lat="44.171615" lon="11.09956"><ele>730.6</ele><time>2026-04-09T10:38:27.933Z</time></trkpt><trkpt lat="44.1716367" lon="11.0994383"><ele>729.8000000000001</ele><time>2026-04-09T10:38:28.933Z</time></trkpt><trkpt lat="44.17167" lon="11.09932"><ele>729.0</ele><time>2026-04-09T10:38:29.934Z</time></trkpt><trkpt lat="44.171725" lon="11.099205"><ele>729.0</ele><time>2026-04-09T10:38:30.933Z</time></trkpt><trkpt lat="44.17178" lon="11.09909"><ele>729.0</ele><time>2026-04-09T10:38:31.934Z</time></trkpt><trkpt lat="44.1718483" lon="11.0989767"><ele>729.0</ele><time>2026-04-09T10:38:32.933Z</time></trkpt><trkpt lat="44.171915" lon="11.098865"><ele>729.0</ele><time>2026-04-09T10:38:33.933Z</time></trkpt><trkpt lat="44.1719833" lon="11.098755"><ele>729.0</ele><time>2026-04-09T10:38:34.934Z</time></trkpt><trkpt lat="44.1720533" lon="11.0986417"><ele>727.8000000000001</ele><time>2026-04-09T10:38:35.933Z</time></trkpt><trkpt lat="44.1721067" lon="11.0985167"><ele>726.6</ele><time>2026-04-09T10:38:36.934Z</time></trkpt><trkpt lat="44.17215" lon="11.0983933"><ele>725.4</ele><time>2026-04-09T10:38:37.934Z</time></trkpt><trkpt lat="44.17217" lon="11.098255"><ele>724.2</ele><time>2026-04-09T10:38:38.933Z</time></trkpt><trkpt lat="44.1721867" lon="11.09814"><ele>723.0</ele><time>2026-04-09T10:38:39.933Z</time></trkpt><trkpt lat="44.1721717" lon="11.0979367"><ele>722.0</ele><time>2026-04-09T10:38:40.933Z</time></trkpt><trkpt lat="44.1721617" lon="11.0977383"><ele>721.0</ele><time>2026-04-09T10:38:41.933Z</time></trkpt><trkpt lat="44.1721533" lon="11.097535"><ele>720.0</ele><time>2026-04-09T10:38:42.933Z</time></trkpt><trkpt lat="44.1721483" lon="11.0973317"><ele>719.0</ele><time>2026-04-09T10:38:43.933Z</time></trkpt><trkpt lat="44.1721383" lon="11.09713"><ele>718.5</ele><time>2026-04-09T10:38:44.933Z</time></trkpt><trkpt lat="44.1721283" lon="11.0969283"><ele>718.0</ele><time>2026-04-09T10:38:45.933Z</time></trkpt><trkpt lat="44.17212" lon="11.09673"><ele>717.5</ele><time>2026-04-09T10:38:46.934Z</time></trkpt><trkpt lat="44.1721017" lon="11.0965417"><ele>717.0</ele><time>2026-04-09T10:38:47.933Z</time></trkpt><trkpt lat="44.17208" lon="11.0963633"><ele>718.25</ele><time>2026-04-09T10:38:48.933Z</time></trkpt><trkpt lat="44.1720483" lon="11.096195"><ele>719.5</ele><time>2026-04-09T10:38:49.934Z</time></trkpt><trkpt lat="44.171995" lon="11.09606"><ele>720.75</ele><time>2026-04-09T10:38:50.934Z</time></trkpt><trkpt lat="44.1719133" lon="11.0959433"><ele>722.0</ele><time>2026-04-09T10:38:51.934Z</time></trkpt><trkpt lat="44.1718117" lon="11.0958533"><ele>722.0</ele><time>2026-04-09T10:38:52.933Z</time></trkpt><trkpt lat="44.1716867" lon="11.0957817"><ele>722.0</ele><time>2026-04-09T10:38:53.933Z</time></trkpt><trkpt lat="44.171555" lon="11.0957033"><ele>722.0</ele><time>2026-04-09T10:38:54.933Z</time></trkpt><trkpt lat="44.1714283" lon="11.0956333"><ele>722.0</ele><time>2026-04-09T10:38:55.933Z</time></trkpt><trkpt lat="44.1713117" lon="11.09555"><ele>721.0</ele><time>2026-04-09T10:38:56.933Z</time></trkpt><trkpt lat="44.1712067" lon="11.095475"><ele>720.0</ele><time>2026-04-09T10:38:57.933Z</time></trkpt><trkpt lat="44.1711083" lon="11.095385"><ele>719.0</ele><time>2026-04-09T10:38:58.933Z</time></trkpt><trkpt lat="44.171015" lon="11.0952833"><ele>718.0</ele><time>2026-04-09T10:38:59.933Z</time></trkpt><trkpt lat="44.1709317" lon="11.09515"><ele>718.0</ele><time>2026-04-09T10:39:00.934Z</time></trkpt><trkpt lat="44.170835" lon="11.09502"><ele>718.0</ele><time>2026-04-09T10:39:01.933Z</time></trkpt><trkpt lat="44.1707283" lon="11.0949083"><ele>718.0</ele><time>2026-04-09T10:39:02.933Z</time></trkpt><trkpt lat="44.1706183" lon="11.094815"><ele>718.0</ele><time>2026-04-09T10:39:03.933Z</time></trkpt><trkpt lat="44.17052" lon="11.0947267"><ele>714.5</ele><time>2026-04-09T10:39:04.933Z</time></trkpt><trkpt lat="44.17043" lon="11.09463"><ele>711.0</ele><time>2026-04-09T10:39:05.933Z</time></trkpt><trkpt lat="44.17035" lon="11.09453"><ele>707.5</ele><time>2026-04-09T10:39:06.933Z</time></trkpt><trkpt lat="44.1702783" lon="11.094405"><ele>704.0</ele><time>2026-04-09T10:39:07.934Z</time></trkpt><trkpt lat="44.1702117" lon="11.0942733"><ele>704.0</ele><time>2026-04-09T10:39:08.933Z</time></trkpt><trkpt lat="44.1701533" lon="11.094125"><ele>704.0</ele><time>2026-04-09T10:39:09.933Z</time></trkpt><trkpt lat="44.1701133" lon="11.0939733"><ele>704.0</ele><time>2026-04-09T10:39:10.933Z</time></trkpt><trkpt lat="44.170075" lon="11.09383"><ele>704.0</ele><time>2026-04-09T10:39:11.933Z</time></trkpt><trkpt lat="44.17005" lon="11.0936733"><ele>704.5</ele><time>2026-04-09T10:39:12.933Z</time></trkpt><trkpt lat="44.1700367" lon="11.0935067"><ele>705.0</ele><time>2026-04-09T10:39:13.933Z</time></trkpt><trkpt lat="44.1700267" lon="11.09333"><ele>705.5</ele><time>2026-04-09T10:39:14.933Z</time></trkpt><trkpt lat="44.17002" lon="11.0931567"><ele>706.0</ele><time>2026-04-09T10:39:15.933Z</time></trkpt><trkpt lat="44.170015" lon="11.09299"><ele>706.0</ele><time>2026-04-09T10:39:16.933Z</time></trkpt><trkpt lat="44.170005" lon="11.09282"><ele>706.0</ele><time>2026-04-09T10:39:17.933Z</time></trkpt><trkpt lat="44.16996" lon="11.0926483"><ele>706.0</ele><time>2026-04-09T10:39:18.934Z</time></trkpt><trkpt lat="44.1699033" lon="11.0924683"><ele>706.0</ele><time>2026-04-09T10:39:19.933Z</time></trkpt><trkpt lat="44.1698167" lon="11.0922967"><ele>702.25</ele><time>2026-04-09T10:39:20.933Z</time></trkpt><trkpt lat="44.169725" lon="11.0921283"><ele>698.5</ele><time>2026-04-09T10:39:21.934Z</time></trkpt><trkpt lat="44.169635" lon="11.0919633"><ele>694.75</ele><time>2026-04-09T10:39:22.933Z</time></trkpt><trkpt lat="44.1695517" lon="11.091795"><ele>691.0</ele><time>2026-04-09T10:39:23.933Z</time></trkpt><trkpt lat="44.1694633" lon="11.0916333"><ele>692.5</ele><time>2026-04-09T10:39:24.933Z</time></trkpt><trkpt lat="44.169375" lon="11.0914733"><ele>694.0</ele><time>2026-04-09T10:39:25.933Z</time></trkpt><trkpt lat="44.1692917" lon="11.09132"><ele>695.5</ele><time>2026-04-09T10:39:26.933Z</time></trkpt><trkpt lat="44.1692167" lon="11.091185"><ele>697.0</ele><time>2026-04-09T10:39:27.933Z</time></trkpt><trkpt lat="44.1691483" lon="11.0910633"><ele>697.0</ele><time>2026-04-09T10:39:28.933Z</time></trkpt><trkpt lat="44.1690983" lon="11.0909483"><ele>697.0</ele><time>2026-04-09T10:39:29.934Z</time></trkpt><trkpt lat="44.16907" lon="11.0908333"><ele>697.0</ele><time>2026-04-09T10:39:30.933Z</time></trkpt><trkpt lat="44.169055" lon="11.090715"><ele>697.0</ele><time>2026-04-09T10:39:31.933Z</time></trkpt><trkpt lat="44.169055" lon="11.090595"><ele>697.0</ele><time>2026-04-09T10:39:32.933Z</time></trkpt><trkpt lat="44.1690667" lon="11.0904767"><ele>697.0</ele><time>2026-04-09T10:39:33.933Z</time></trkpt><trkpt lat="44.1690867" lon="11.090355"><ele>697.0</ele><time>2026-04-09T10:39:34.933Z</time></trkpt><trkpt lat="44.1691133" lon="11.09023"><ele>697.0</ele><time>2026-04-09T10:39:35.934Z</time></trkpt><trkpt lat="44.16913" lon="11.090105"><ele>697.0</ele><time>2026-04-09T10:39:36.934Z</time></trkpt><trkpt lat="44.1691467" lon="11.0899733"><ele>697.0</ele><time>2026-04-09T10:39:37.933Z</time></trkpt><trkpt lat="44.16916" lon="11.08984"><ele>697.0</ele><time>2026-04-09T10:39:38.933Z</time></trkpt><trkpt lat="44.1691733" lon="11.089715"><ele>695.6666666666667</ele><time>2026-04-09T10:39:39.933Z</time></trkpt><trkpt lat="44.1691867" lon="11.0896183"><ele>694.3333333333334</ele><time>2026-04-09T10:39:40.933Z</time></trkpt><trkpt lat="44.1692" lon="11.0894783"><ele>693.0</ele><time>2026-04-09T10:39:42.933Z</time></trkpt><trkpt lat="44.16921" lon="11.08937"><ele>691.6666666666666</ele><time>2026-04-09T10:39:44.933Z</time></trkpt><trkpt lat="44.1692167" lon="11.089225"><ele>690.3333333333333</ele><time>2026-04-09T10:40:16.933Z</time></trkpt><trkpt lat="44.16922" lon="11.0891"><ele>689.0</ele><time>2026-04-09T10:40:20.933Z</time></trkpt><trkpt lat="44.1691917" lon="11.0889983"><ele>688.6</ele><time>2026-04-09T10:40:22.933Z</time></trkpt><trkpt lat="44.1691333" lon="11.0888933"><ele>688.2</ele><time>2026-04-09T10:40:24.933Z</time></trkpt><trkpt lat="44.1690283" lon="11.0888167"><ele>687.8000000000001</ele><time>2026-04-09T10:40:26.934Z</time></trkpt><trkpt lat="44.1688933" lon="11.0887867"><ele>687.4000000000001</ele><time>2026-04-09T10:40:28.933Z</time></trkpt><trkpt lat="44.1688167" lon="11.0887967"><ele>687.0</ele><time>2026-04-09T10:40:29.933Z</time></trkpt><trkpt lat="44.16874" lon="11.0888333"><ele>687.0</ele><time>2026-04-09T10:40:30.933Z</time></trkpt><trkpt lat="44.1686617" lon="11.08888"><ele>687.0</ele><time>2026-04-09T10:40:31.933Z</time></trkpt><trkpt lat="44.1686183" lon="11.0889467"><ele>687.0</ele><time>2026-04-09T10:40:32.933Z</time></trkpt><trkpt lat="44.1685767" lon="11.08903"><ele>687.0</ele><time>2026-04-09T10:40:33.933Z</time></trkpt><trkpt lat="44.1685283" lon="11.08912"><ele>687.0</ele><time>2026-04-09T10:40:34.933Z</time></trkpt><trkpt lat="44.168475" lon="11.0891967"><ele>687.0</ele><time>2026-04-09T10:40:35.933Z</time></trkpt><trkpt lat="44.1684117" lon="11.089255"><ele>687.0</ele><time>2026-04-09T10:40:36.933Z</time></trkpt><trkpt lat="44.168335" lon="11.0892983"><ele>687.0</ele><time>2026-04-09T10:40:37.934Z</time></trkpt><trkpt lat="44.168255" lon="11.0893217"><ele>687.0</ele><time>2026-04-09T10:40:38.933Z</time></trkpt><trkpt lat="44.1681783" lon="11.0893317"><ele>687.0</ele><time>2026-04-09T10:40:39.933Z</time></trkpt><trkpt lat="44.1680967" lon="11.0893283"><ele>687.0</ele><time>2026-04-09T10:40:40.933Z</time></trkpt><trkpt lat="44.1680167" lon="11.089305"><ele>687.0</ele><time>2026-04-09T10:40:41.934Z</time></trkpt><trkpt lat="44.1679417" lon="11.0892583"><ele>684.1666666666666</ele><time>2026-04-09T10:40:42.933Z</time></trkpt><trkpt lat="44.16787" lon="11.0892083"><ele>681.3333333333334</ele><time>2026-04-09T10:40:43.933Z</time></trkpt><trkpt lat="44.1678033" lon="11.0891417"><ele>678.5</ele><time>2026-04-09T10:40:44.933Z</time></trkpt><trkpt lat="44.16775" lon="11.0890433"><ele>675.6666666666667</ele><time>2026-04-09T10:40:45.934Z</time></trkpt><trkpt lat="44.1677133" lon="11.0889233"><ele>672.8333333333334</ele><time>2026-04-09T10:40:46.933Z</time></trkpt><trkpt lat="44.16769" lon="11.088795"><ele>670.0</ele><time>2026-04-09T10:40:47.933Z</time></trkpt><trkpt lat="44.1676833" lon="11.0886683"><ele>670.0</ele><time>2026-04-09T10:40:48.933Z</time></trkpt><trkpt lat="44.1677033" lon="11.08855"><ele>670.0</ele><time>2026-04-09T10:40:49.933Z</time></trkpt><trkpt lat="44.1677383" lon="11.0884367"><ele>670.0</ele><time>2026-04-09T10:40:50.933Z</time></trkpt><trkpt lat="44.1677867" lon="11.0883333"><ele>670.0</ele><time>2026-04-09T10:40:51.933Z</time></trkpt><trkpt lat="44.1678483" lon="11.0882517"><ele>670.0</ele><time>2026-04-09T10:40:52.933Z</time></trkpt><trkpt lat="44.1679183" lon="11.0881883"><ele>670.0</ele><time>2026-04-09T10:40:53.933Z</time></trkpt><trkpt lat="44.1679917" lon="11.08813"><ele>669.5</ele><time>2026-04-09T10:40:54.933Z</time></trkpt><trkpt lat="44.1680617" lon="11.088075"><ele>669.0</ele><time>2026-04-09T10:40:55.933Z</time></trkpt><trkpt lat="44.1681317" lon="11.08802"><ele>668.5</ele><time>2026-04-09T10:40:56.933Z</time></trkpt><trkpt lat="44.1682033" lon="11.0879683"><ele>668.0</ele><time>2026-04-09T10:40:57.934Z</time></trkpt><trkpt lat="44.1682583" lon="11.0878917"><ele>667.5</ele><time>2026-04-09T10:40:58.933Z</time></trkpt><trkpt lat="44.16831" lon="11.0878117"><ele>667.0</ele><time>2026-04-09T10:40:59.933Z</time></trkpt><trkpt lat="44.16835" lon="11.0877217"><ele>667.0</ele><time>2026-04-09T10:41:00.933Z</time></trkpt><trkpt lat="44.1683817" lon="11.08763"><ele>667.0</ele><time>2026-04-09T10:41:01.933Z</time></trkpt><trkpt lat="44.1684117" lon="11.0875417"><ele>667.0</ele><time>2026-04-09T10:41:02.933Z</time></trkpt><trkpt lat="44.1684583" lon="11.0873967"><ele>667.0</ele><time>2026-04-09T10:41:04.933Z</time></trkpt><trkpt lat="44.1684967" lon="11.0872817"><ele>667.0</ele><time>2026-04-09T10:41:06.934Z</time></trkpt><trkpt lat="44.1685867" lon="11.08718"><ele>665.0</ele><time>2026-04-09T10:41:08.933Z</time></trkpt><trkpt lat="44.16865" lon="11.0871217"><ele>663.0</ele><time>2026-04-09T10:41:09.933Z</time></trkpt><trkpt lat="44.168715" lon="11.0870567"><ele>661.0</ele><time>2026-04-09T10:41:10.933Z</time></trkpt><trkpt lat="44.16878" lon="11.086985"><ele>659.0</ele><time>2026-04-09T10:41:11.933Z</time></trkpt><trkpt lat="44.1688383" lon="11.08692"><ele>657.0</ele><time>2026-04-09T10:41:12.933Z</time></trkpt><trkpt lat="44.1688983" lon="11.0868683"><ele>655.0</ele><time>2026-04-09T10:41:13.934Z</time></trkpt><trkpt lat="44.1689533" lon="11.0868017"><ele>655.0</ele><time>2026-04-09T10:41:14.933Z</time></trkpt><trkpt lat="44.1690133" lon="11.08673"><ele>655.0</ele><time>2026-04-09T10:41:15.933Z</time></trkpt><trkpt lat="44.16907" lon="11.086665"><ele>655.0</ele><time>2026-04-09T10:41:16.934Z</time></trkpt><trkpt lat="44.16913" lon="11.0865967"><ele>655.0</ele><time>2026-04-09T10:41:17.933Z</time></trkpt><trkpt lat="44.1692017" lon="11.0865033"><ele>655.0</ele><time>2026-04-09T10:41:19.933Z</time></trkpt><trkpt lat="44.1693067" lon="11.0864867"><ele>655.0</ele><time>2026-04-09T10:41:35.933Z</time></trkpt><trkpt lat="44.1693583" lon="11.0864117"><ele>654.1666666666667</ele><time>2026-04-09T10:41:39.933Z</time></trkpt><trkpt lat="44.1694" lon="11.08633"><ele>653.3333333333334</ele><time>2026-04-09T10:41:43.933Z</time></trkpt><trkpt lat="44.1693633" lon="11.08642"><ele>652.5</ele><time>2026-04-09T10:41:51.932Z</time></trkpt><trkpt lat="44.1693767" lon="11.08656"><ele>651.6666666666666</ele><time>2026-04-09T10:53:06.929Z</time></trkpt><trkpt lat="44.1692983" lon="11.08651"><ele>650.8333333333333</ele><time>2026-04-09T10:53:48.93Z</time></trkpt><trkpt lat="44.1691933" lon="11.0864883"><ele>650.0</ele><time>2026-04-09T10:53:54.929Z</time></trkpt><trkpt lat="44.1691183" lon="11.0865417"><ele>650.0</ele><time>2026-04-09T10:53:56.929Z</time></trkpt><trkpt lat="44.169065" lon="11.0865933"><ele>650.0</ele><time>2026-04-09T10:53:57.929Z</time></trkpt><trkpt lat="44.1690133" lon="11.08666"><ele>650.0</ele><time>2026-04-09T10:53:58.929Z</time></trkpt><trkpt lat="44.1689483" lon="11.0867283"><ele>650.0</ele><time>2026-04-09T10:53:59.93Z</time></trkpt><trkpt lat="44.1688817" lon="11.0868117"><ele>650.0</ele><time>2026-04-09T10:54:00.93Z</time></trkpt><trkpt lat="44.1688183" lon="11.0868933"><ele>650.0</ele><time>2026-04-09T10:54:01.929Z</time></trkpt><trkpt lat="44.16876" lon="11.08697"><ele>650.8333333333333</ele><time>2026-04-09T10:54:02.929Z</time></trkpt><trkpt lat="44.1686967" lon="11.087045"><ele>651.6666666666666</ele><time>2026-04-09T10:54:03.929Z</time></trkpt><trkpt lat="44.1686417" lon="11.087125"><ele>652.5</ele><time>2026-04-09T10:54:04.929Z</time></trkpt><trkpt lat="44.16859" lon="11.0872033"><ele>653.3333333333334</ele><time>2026-04-09T10:54:05.929Z</time></trkpt><trkpt lat="44.16853" lon="11.0872733"><ele>654.1666666666667</ele><time>2026-04-09T10:54:06.93Z</time></trkpt><trkpt lat="44.168475" lon="11.0873433"><ele>655.0</ele><time>2026-04-09T10:54:07.929Z</time></trkpt><trkpt lat="44.1684283" lon="11.0874283"><ele>654.8333333333334</ele><time>2026-04-09T10:54:08.929Z</time></trkpt><trkpt lat="44.1683867" lon="11.0875117"><ele>654.6666666666667</ele><time>2026-04-09T10:54:09.929Z</time></trkpt><trkpt lat="44.1683533" lon="11.0876083"><ele>654.5</ele><time>2026-04-09T10:54:10.929Z</time></trkpt><trkpt lat="44.168325" lon="11.0877067"><ele>654.3333333333334</ele><time>2026-04-09T10:54:11.929Z</time></trkpt><trkpt lat="44.168285" lon="11.0878"><ele>654.1666666666666</ele><time>2026-04-09T10:54:12.929Z</time></trkpt><trkpt lat="44.1682217" lon="11.0879"><ele>654.0</ele><time>2026-04-09T10:54:13.929Z</time></trkpt><trkpt lat="44.1681533" lon="11.0879867"><ele>654.0</ele><time>2026-04-09T10:54:14.929Z</time></trkpt><trkpt lat="44.1680717" lon="11.0880517"><ele>654.0</ele><time>2026-04-09T10:54:15.929Z</time></trkpt><trkpt lat="44.167985" lon="11.088135"><ele>654.0</ele><time>2026-04-09T10:54:16.929Z</time></trkpt><trkpt lat="44.1678983" lon="11.0882067"><ele>654.0</ele><time>2026-04-09T10:54:17.929Z</time></trkpt><trkpt lat="44.1678217" lon="11.0882767"><ele>654.0</ele><time>2026-04-09T10:54:18.929Z</time></trkpt><trkpt lat="44.167755" lon="11.0883733"><ele>657.2</ele><time>2026-04-09T10:54:19.929Z</time></trkpt><trkpt lat="44.1677033" lon="11.08849"><ele>660.4000000000001</ele><time>2026-04-09T10:54:20.929Z</time></trkpt><trkpt lat="44.1676783" lon="11.0886317"><ele>663.6</ele><time>2026-04-09T10:54:21.929Z</time></trkpt><trkpt lat="44.1676683" lon="11.08877"><ele>666.8</ele><time>2026-04-09T10:54:22.929Z</time></trkpt><trkpt lat="44.1676833" lon="11.0889233"><ele>670.0</ele><time>2026-04-09T10:54:23.929Z</time></trkpt><trkpt lat="44.1677217" lon="11.0890517"><ele>669.8</ele><time>2026-04-09T10:54:24.929Z</time></trkpt><trkpt lat="44.1677833" lon="11.08916"><ele>669.6</ele><time>2026-04-09T10:54:25.929Z</time></trkpt><trkpt lat="44.1678617" lon="11.0892467"><ele>669.4000000000001</ele><time>2026-04-09T10:54:26.929Z</time></trkpt><trkpt lat="44.167955" lon="11.0893117"><ele>669.2</ele><time>2026-04-09T10:54:27.929Z</time></trkpt><trkpt lat="44.1680567" lon="11.089355"><ele>669.0</ele><time>2026-04-09T10:54:28.929Z</time></trkpt><trkpt lat="44.16816" lon="11.0893767"><ele>672.6</ele><time>2026-04-09T10:54:29.93Z</time></trkpt><trkpt lat="44.1682617" lon="11.0893733"><ele>676.2</ele><time>2026-04-09T10:54:30.929Z</time></trkpt><trkpt lat="44.1683583" lon="11.0893417"><ele>679.8000000000001</ele><time>2026-04-09T10:54:31.929Z</time></trkpt><trkpt lat="44.16845" lon="11.0892783"><ele>683.4000000000001</ele><time>2026-04-09T10:54:32.93Z</time></trkpt><trkpt lat="44.1685317" lon="11.0891917"><ele>687.0</ele><time>2026-04-09T10:54:33.929Z</time></trkpt><trkpt lat="44.1686" lon="11.089095"><ele>687.0</ele><time>2026-04-09T10:54:34.93Z</time></trkpt><trkpt lat="44.168655" lon="11.0890033"><ele>687.0</ele><time>2026-04-09T10:54:35.93Z</time></trkpt><trkpt lat="44.1687033" lon="11.0889267"><ele>687.0</ele><time>2026-04-09T10:54:36.929Z</time></trkpt><trkpt lat="44.16876" lon="11.0888733"><ele>687.0</ele><time>2026-04-09T10:54:37.929Z</time></trkpt><trkpt lat="44.1688767" lon="11.0888533"><ele>687.0</ele><time>2026-04-09T10:54:39.929Z</time></trkpt><trkpt lat="44.16894" lon="11.0888633"><ele>687.0</ele><time>2026-04-09T10:54:40.93Z</time></trkpt><trkpt lat="44.1690533" lon="11.0889117"><ele>686.8333333333334</ele><time>2026-04-09T10:54:42.929Z</time></trkpt><trkpt lat="44.1691367" lon="11.0890333"><ele>686.6666666666666</ele><time>2026-04-09T10:54:44.929Z</time></trkpt><trkpt lat="44.16917" lon="11.0891117"><ele>686.5</ele><time>2026-04-09T10:54:45.929Z</time></trkpt><trkpt lat="44.16919" lon="11.0891983"><ele>686.3333333333333</ele><time>2026-04-09T10:54:46.93Z</time></trkpt><trkpt lat="44.1691983" lon="11.089295"><ele>686.1666666666666</ele><time>2026-04-09T10:54:47.929Z</time></trkpt><trkpt lat="44.1691833" lon="11.0894083"><ele>686.0</ele><time>2026-04-09T10:54:48.929Z</time></trkpt><trkpt lat="44.169155" lon="11.0895367"><ele>686.75</ele><time>2026-04-09T10:54:49.929Z</time></trkpt><trkpt lat="44.1691383" lon="11.0896767"><ele>687.5</ele><time>2026-04-09T10:54:50.929Z</time></trkpt><trkpt lat="44.1691267" lon="11.0898333"><ele>688.25</ele><time>2026-04-09T10:54:51.929Z</time></trkpt><trkpt lat="44.1691117" lon="11.09001"><ele>689.0</ele><time>2026-04-09T10:54:52.929Z</time></trkpt><trkpt lat="44.1691" lon="11.0901933"><ele>691.0</ele><time>2026-04-09T10:54:53.929Z</time></trkpt><trkpt lat="44.16909" lon="11.090375"><ele>693.0</ele><time>2026-04-09T10:54:54.929Z</time></trkpt><trkpt lat="44.1690683" lon="11.0905367"><ele>695.0</ele><time>2026-04-09T10:54:55.929Z</time></trkpt><trkpt lat="44.1690617" lon="11.0906883"><ele>697.0</ele><time>2026-04-09T10:54:56.929Z</time></trkpt><trkpt lat="44.1690783" lon="11.090835"><ele>697.0</ele><time>2026-04-09T10:54:57.929Z</time></trkpt><trkpt lat="44.169115" lon="11.0909833"><ele>697.0</ele><time>2026-04-09T10:54:58.93Z</time></trkpt><trkpt lat="44.1691767" lon="11.0911317"><ele>697.0</ele><time>2026-04-09T10:54:59.93Z</time></trkpt><trkpt lat="44.1692517" lon="11.0912917"><ele>697.0</ele><time>2026-04-09T10:55:00.93Z</time></trkpt><trkpt lat="44.169335" lon="11.09145"><ele>695.5</ele><time>2026-04-09T10:55:01.929Z</time></trkpt><trkpt lat="44.1694233" lon="11.09161"><ele>694.0</ele><time>2026-04-09T10:55:02.929Z</time></trkpt><trkpt lat="44.1695133" lon="11.0917783"><ele>692.5</ele><time>2026-04-09T10:55:03.929Z</time></trkpt><trkpt lat="44.1695933" lon="11.0919467"><ele>691.0</ele><time>2026-04-09T10:55:04.929Z</time></trkpt><trkpt lat="44.16967" lon="11.0921067"><ele>691.0</ele><time>2026-04-09T10:55:05.929Z</time></trkpt><trkpt lat="44.169745" lon="11.09226"><ele>691.0</ele><time>2026-04-09T10:55:06.929Z</time></trkpt><trkpt lat="44.1698167" lon="11.0924117"><ele>691.0</ele><time>2026-04-09T10:55:07.929Z</time></trkpt><trkpt lat="44.169885" lon="11.092565"><ele>691.0</ele><time>2026-04-09T10:55:08.929Z</time></trkpt><trkpt lat="44.169925" lon="11.0927267"><ele>694.75</ele><time>2026-04-09T10:55:09.929Z</time></trkpt><trkpt lat="44.169965" lon="11.0928933"><ele>698.5</ele><time>2026-04-09T10:55:10.929Z</time></trkpt><trkpt lat="44.16999" lon="11.09307"><ele>702.25</ele><time>2026-04-09T10:55:11.929Z</time></trkpt><trkpt lat="44.17" lon="11.0932617"><ele>706.0</ele><time>2026-04-09T10:55:12.929Z</time></trkpt><trkpt lat="44.1700117" lon="11.0934533"><ele>706.0</ele><time>2026-04-09T10:55:13.929Z</time></trkpt><trkpt lat="44.17003" lon="11.093645"><ele>706.0</ele><time>2026-04-09T10:55:14.929Z</time></trkpt><trkpt lat="44.1700533" lon="11.0938267"><ele>706.0</ele><time>2026-04-09T10:55:15.929Z</time></trkpt><trkpt lat="44.17009" lon="11.09401"><ele>706.0</ele><time>2026-04-09T10:55:16.929Z</time></trkpt><trkpt lat="44.1701483" lon="11.094185"><ele>705.5</ele><time>2026-04-09T10:55:17.929Z</time></trkpt><trkpt lat="44.1702067" lon="11.09435"><ele>705.0</ele><time>2026-04-09T10:55:18.93Z</time></trkpt><trkpt lat="44.1702883" lon="11.0945017"><ele>704.5</ele><time>2026-04-09T10:55:19.929Z</time></trkpt><trkpt lat="44.17037" lon="11.0946433"><ele>704.0</ele><time>2026-04-09T10:55:20.929Z</time></trkpt><trkpt lat="44.1704717" lon="11.0947617"><ele>704.0</ele><time>2026-04-09T10:55:21.929Z</time></trkpt><trkpt lat="44.1705917" lon="11.09486"><ele>704.0</ele><time>2026-04-09T10:55:22.929Z</time></trkpt><trkpt lat="44.1707183" lon="11.0949667"><ele>704.0</ele><time>2026-04-09T10:55:23.929Z</time></trkpt><trkpt lat="44.1708267" lon="11.0950917"><ele>704.0</ele><time>2026-04-09T10:55:24.93Z</time></trkpt><trkpt lat="44.170925" lon="11.0952333"><ele>707.5</ele><time>2026-04-09T10:55:25.929Z</time></trkpt><trkpt lat="44.1710317" lon="11.095355"><ele>711.0</ele><time>2026-04-09T10:55:26.929Z</time></trkpt><trkpt lat="44.1711517" lon="11.0954817"><ele>714.5</ele><time>2026-04-09T10:55:27.929Z</time></trkpt><trkpt lat="44.17129" lon="11.0955767"><ele>718.0</ele><time>2026-04-09T10:55:28.929Z</time></trkpt><trkpt lat="44.1714267" lon="11.095675"><ele>719.0</ele><time>2026-04-09T10:55:29.929Z</time></trkpt><trkpt lat="44.1715683" lon="11.09575"><ele>720.0</ele><time>2026-04-09T10:55:30.93Z</time></trkpt><trkpt lat="44.171695" lon="11.0958233"><ele>721.0</ele><time>2026-04-09T10:55:31.929Z</time></trkpt><trkpt lat="44.1718067" lon="11.0959"><ele>722.0</ele><time>2026-04-09T10:55:32.929Z</time></trkpt><trkpt lat="44.1718983" lon="11.0959983"><ele>722.0</ele><time>2026-04-09T10:55:33.93Z</time></trkpt><trkpt lat="44.17197" lon="11.096105"><ele>722.0</ele><time>2026-04-09T10:55:34.929Z</time></trkpt><trkpt lat="44.172025" lon="11.0962283"><ele>722.0</ele><time>2026-04-09T10:55:35.929Z</time></trkpt><trkpt lat="44.1720717" lon="11.0963717"><ele>722.0</ele><time>2026-04-09T10:55:36.929Z</time></trkpt><trkpt lat="44.1720967" lon="11.0965367"><ele>722.0</ele><time>2026-04-09T10:55:37.929Z</time></trkpt><trkpt lat="44.172105" lon="11.0967083"><ele>721.25</ele><time>2026-04-09T10:55:38.929Z</time></trkpt><trkpt lat="44.1721117" lon="11.0969067"><ele>720.5</ele><time>2026-04-09T10:55:39.93Z</time></trkpt><trkpt lat="44.1721133" lon="11.0971067"><ele>719.75</ele><time>2026-04-09T10:55:40.929Z</time></trkpt><trkpt lat="44.1721233" lon="11.0973117"><ele>719.0</ele><time>2026-04-09T10:55:41.93Z</time></trkpt><trkpt lat="44.1721317" lon="11.0975283"><ele>719.0</ele><time>2026-04-09T10:55:42.93Z</time></trkpt><trkpt lat="44.17214" lon="11.0977433"><ele>719.0</ele><time>2026-04-09T10:55:43.929Z</time></trkpt><trkpt lat="44.1721467" lon="11.0979333"><ele>719.0</ele><time>2026-04-09T10:55:44.929Z</time></trkpt><trkpt lat="44.172155" lon="11.0981083"><ele>719.0</ele><time>2026-04-09T10:55:45.929Z</time></trkpt><trkpt lat="44.17215" lon="11.098275"><ele>720.0</ele><time>2026-04-09T10:55:46.929Z</time></trkpt><trkpt lat="44.1721333" lon="11.0984217"><ele>721.0</ele><time>2026-04-09T10:55:47.929Z</time></trkpt><trkpt lat="44.1720783" lon="11.0985633"><ele>722.0</ele><time>2026-04-09T10:55:48.929Z</time></trkpt><trkpt lat="44.172" lon="11.0987"><ele>723.0</ele><time>2026-04-09T10:55:49.929Z</time></trkpt><trkpt lat="44.17191" lon="11.0988317"><ele>723.0</ele><time>2026-04-09T10:55:50.929Z</time></trkpt><trkpt lat="44.1718167" lon="11.0989767"><ele>723.0</ele><time>2026-04-09T10:55:51.929Z</time></trkpt><trkpt lat="44.1717383" lon="11.0991133"><ele>723.0</ele><time>2026-04-09T10:55:52.93Z</time></trkpt><trkpt lat="44.171675" lon="11.09925"><ele>723.0</ele><time>2026-04-09T10:55:53.929Z</time></trkpt><trkpt lat="44.1716217" lon="11.0993817"><ele>724.5</ele><time>2026-04-09T10:55:54.929Z</time></trkpt><trkpt lat="44.1715967" lon="11.0995433"><ele>726.0</ele><time>2026-04-09T10:55:55.929Z</time></trkpt><trkpt lat="44.17159" lon="11.0997017"><ele>727.5</ele><time>2026-04-09T10:55:56.929Z</time></trkpt><trkpt lat="44.17161" lon="11.0998583"><ele>729.0</ele><time>2026-04-09T10:55:57.929Z</time></trkpt><trkpt lat="44.171655" lon="11.1000367"><ele>730.0</ele><time>2026-04-09T10:55:58.929Z</time></trkpt><trkpt lat="44.171705" lon="11.1002317"><ele>731.0</ele><time>2026-04-09T10:55:59.929Z</time></trkpt><trkpt lat="44.171745" lon="11.1004183"><ele>732.0</ele><time>2026-04-09T10:56:00.929Z</time></trkpt><trkpt lat="44.1717667" lon="11.100605"><ele>733.0</ele><time>2026-04-09T10:56:01.929Z</time></trkpt><trkpt lat="44.1717733" lon="11.1007833"><ele>733.5</ele><time>2026-04-09T10:56:02.929Z</time></trkpt><trkpt lat="44.1717667" lon="11.1009533"><ele>734.0</ele><time>2026-04-09T10:56:03.929Z</time></trkpt><trkpt lat="44.17174" lon="11.1011033"><ele>734.5</ele><time>2026-04-09T10:56:04.93Z</time></trkpt><trkpt lat="44.1716767" lon="11.1012533"><ele>735.0</ele><time>2026-04-09T10:56:05.929Z</time></trkpt><trkpt lat="44.171585" lon="11.1013933"><ele>734.0</ele><time>2026-04-09T10:56:06.929Z</time></trkpt><trkpt lat="44.1714883" lon="11.1015433"><ele>733.0</ele><time>2026-04-09T10:56:07.93Z</time></trkpt><trkpt lat="44.1713933" lon="11.1016933"><ele>732.0</ele><time>2026-04-09T10:56:08.929Z</time></trkpt><trkpt lat="44.171305" lon="11.1018367"><ele>731.0</ele><time>2026-04-09T10:56:09.929Z</time></trkpt><trkpt lat="44.1712267" lon="11.1019783"><ele>731.0</ele><time>2026-04-09T10:56:10.929Z</time></trkpt><trkpt lat="44.17117" lon="11.1021317"><ele>731.0</ele><time>2026-04-09T10:56:11.929Z</time></trkpt><trkpt lat="44.1711383" lon="11.1023"><ele>731.0</ele><time>2026-04-09T10:56:12.929Z</time></trkpt><trkpt lat="44.1711233" lon="11.10248"><ele>731.0</ele><time>2026-04-09T10:56:13.929Z</time></trkpt><trkpt lat="44.1711117" lon="11.10266"><ele>734.5</ele><time>2026-04-09T10:56:14.929Z</time></trkpt><trkpt lat="44.1710683" lon="11.1028117"><ele>738.0</ele><time>2026-04-09T10:56:15.929Z</time></trkpt><trkpt lat="44.170995" lon="11.1029417"><ele>741.5</ele><time>2026-04-09T10:56:16.929Z</time></trkpt><trkpt lat="44.1709017" lon="11.1030367"><ele>745.0</ele><time>2026-04-09T10:56:17.93Z</time></trkpt><trkpt lat="44.1708233" lon="11.1031383"><ele>746.25</ele><time>2026-04-09T10:56:18.93Z</time></trkpt><trkpt lat="44.170745" lon="11.1032567"><ele>747.5</ele><time>2026-04-09T10:56:19.929Z</time></trkpt><trkpt lat="44.1706933" lon="11.1034133"><ele>748.75</ele><time>2026-04-09T10:56:20.93Z</time></trkpt><trkpt lat="44.170665" lon="11.1035933"><ele>750.0</ele><time>2026-04-09T10:56:21.929Z</time></trkpt><trkpt lat="44.1706483" lon="11.1037867"><ele>748.25</ele><time>2026-04-09T10:56:22.929Z</time></trkpt><trkpt lat="44.170635" lon="11.1039833"><ele>746.5</ele><time>2026-04-09T10:56:23.929Z</time></trkpt><trkpt lat="44.1706283" lon="11.1041883"><ele>744.75</ele><time>2026-04-09T10:56:24.928Z</time></trkpt><trkpt lat="44.17062" lon="11.1044"><ele>743.0</ele><time>2026-04-09T10:56:25.928Z</time></trkpt><trkpt lat="44.1706017" lon="11.104615"><ele>743.0</ele><time>2026-04-09T10:56:26.929Z</time></trkpt><trkpt lat="44.1705767" lon="11.104825"><ele>743.0</ele><time>2026-04-09T10:56:27.929Z</time></trkpt><trkpt lat="44.1705567" lon="11.10503"><ele>743.0</ele><time>2026-04-09T10:56:28.928Z</time></trkpt><trkpt lat="44.1705417" lon="11.10523"><ele>743.0</ele><time>2026-04-09T10:56:29.928Z</time></trkpt><trkpt lat="44.170525" lon="11.1054267"><ele>744.0</ele><time>2026-04-09T10:56:30.929Z</time></trkpt><trkpt lat="44.170505" lon="11.105605"><ele>745.0</ele><time>2026-04-09T10:56:31.928Z</time></trkpt><trkpt lat="44.1704817" lon="11.1057717"><ele>746.0</ele><time>2026-04-09T10:56:32.928Z</time></trkpt><trkpt lat="44.1704467" lon="11.105935"><ele>747.0</ele><time>2026-04-09T10:56:33.928Z</time></trkpt><trkpt lat="44.1704" lon="11.1060867"><ele>748.8</ele><time>2026-04-09T10:56:34.928Z</time></trkpt><trkpt lat="44.170335" lon="11.106215"><ele>750.6</ele><time>2026-04-09T10:56:35.928Z</time></trkpt><trkpt lat="44.1702633" lon="11.1063"><ele>752.4</ele><time>2026-04-09T10:56:36.928Z</time></trkpt><trkpt lat="44.1701767" lon="11.1063367"><ele>754.1999999999999</ele><time>2026-04-09T10:56:37.928Z</time></trkpt><trkpt lat="44.1700667" lon="11.10633"><ele>756.0</ele><time>2026-04-09T10:56:38.928Z</time></trkpt><trkpt lat="44.169955" lon="11.1062883"><ele>755.4</ele><time>2026-04-09T10:56:39.928Z</time></trkpt><trkpt lat="44.1698533" lon="11.106245"><ele>754.8</ele><time>2026-04-09T10:56:40.928Z</time></trkpt><trkpt lat="44.1697433" lon="11.1062417"><ele>754.1999999999999</ele><time>2026-04-09T10:56:41.928Z</time></trkpt><trkpt lat="44.16963" lon="11.1062717"><ele>753.5999999999999</ele><time>2026-04-09T10:56:42.928Z</time></trkpt><trkpt lat="44.1695267" lon="11.1063467"><ele>753.0</ele><time>2026-04-09T10:56:43.928Z</time></trkpt><trkpt lat="44.1694417" lon="11.1064483"><ele>753.0</ele><time>2026-04-09T10:56:44.928Z</time></trkpt><trkpt lat="44.16936" lon="11.10654"><ele>753.0</ele><time>2026-04-09T10:56:45.928Z</time></trkpt><trkpt lat="44.1692867" lon="11.10662"><ele>753.0</ele><time>2026-04-09T10:56:46.929Z</time></trkpt><trkpt lat="44.1692017" lon="11.10666"><ele>753.0</ele><time>2026-04-09T10:56:47.928Z</time></trkpt><trkpt lat="44.1691017" lon="11.1066633"><ele>753.0</ele><time>2026-04-09T10:56:48.928Z</time></trkpt><trkpt lat="44.16899" lon="11.106615"><ele>752.75</ele><time>2026-04-09T10:56:49.928Z</time></trkpt><trkpt lat="44.1688717" lon="11.1065483"><ele>752.5</ele><time>2026-04-09T10:56:50.928Z</time></trkpt><trkpt lat="44.1687567" lon="11.1064833"><ele>752.25</ele><time>2026-04-09T10:56:51.928Z</time></trkpt><trkpt lat="44.1686333" lon="11.1064517"><ele>752.0</ele><time>2026-04-09T10:56:52.928Z</time></trkpt><trkpt lat="44.1685033" lon="11.1064783"><ele>752.0</ele><time>2026-04-09T10:56:53.928Z</time></trkpt><trkpt lat="44.1683783" lon="11.10654"><ele>752.0</ele><time>2026-04-09T10:56:54.929Z</time></trkpt><trkpt lat="44.1682633" lon="11.1066267"><ele>752.0</ele><time>2026-04-09T10:56:55.928Z</time></trkpt><trkpt lat="44.1681433" lon="11.1066883"><ele>752.0</ele><time>2026-04-09T10:56:56.928Z</time></trkpt><trkpt lat="44.1680233" lon="11.1066917"><ele>755.25</ele><time>2026-04-09T10:56:57.928Z</time></trkpt><trkpt lat="44.1679067" lon="11.10667"><ele>758.5</ele><time>2026-04-09T10:56:58.929Z</time></trkpt><trkpt lat="44.1677867" lon="11.1066617"><ele>761.75</ele><time>2026-04-09T10:56:59.928Z</time></trkpt><trkpt lat="44.1676617" lon="11.106695"><ele>765.0</ele><time>2026-04-09T10:57:00.928Z</time></trkpt><trkpt lat="44.1675317" lon="11.1067417"><ele>765.0</ele><time>2026-04-09T10:57:01.928Z</time></trkpt><trkpt lat="44.1673967" lon="11.1067633"><ele>765.0</ele><time>2026-04-09T10:57:02.928Z</time></trkpt><trkpt lat="44.1672717" lon="11.106745"><ele>765.0</ele><time>2026-04-09T10:57:03.928Z</time></trkpt><trkpt lat="44.16715" lon="11.1067"><ele>765.0</ele><time>2026-04-09T10:57:04.928Z</time></trkpt><trkpt lat="44.167025" lon="11.1066083"><ele>763.5</ele><time>2026-04-09T10:57:05.928Z</time></trkpt><trkpt lat="44.1668967" lon="11.10652"><ele>762.0</ele><time>2026-04-09T10:57:06.928Z</time></trkpt><trkpt lat="44.1667633" lon="11.10645"><ele>760.5</ele><time>2026-04-09T10:57:07.928Z</time></trkpt><trkpt lat="44.1666183" lon="11.1064217"><ele>759.0</ele><time>2026-04-09T10:57:08.928Z</time></trkpt><trkpt lat="44.1664633" lon="11.1064183"><ele>759.0</ele><time>2026-04-09T10:57:09.928Z</time></trkpt><trkpt lat="44.1663017" lon="11.1064267"><ele>759.0</ele><time>2026-04-09T10:57:10.929Z</time></trkpt><trkpt lat="44.166145" lon="11.1064283"><ele>759.0</ele><time>2026-04-09T10:57:11.928Z</time></trkpt><trkpt lat="44.1659867" lon="11.10643"><ele>759.0</ele><time>2026-04-09T10:57:12.928Z</time></trkpt><trkpt lat="44.1658367" lon="11.106435"><ele>759.0</ele><time>2026-04-09T10:57:13.929Z</time></trkpt><trkpt lat="44.1656933" lon="11.1064467"><ele>759.0</ele><time>2026-04-09T10:57:14.929Z</time></trkpt><trkpt lat="44.1655583" lon="11.1064767"><ele>759.0</ele><time>2026-04-09T10:57:15.928Z</time></trkpt><trkpt lat="44.1654267" lon="11.106535"><ele>761.0</ele><time>2026-04-09T10:57:16.928Z</time></trkpt><trkpt lat="44.1652933" lon="11.1066283"><ele>763.0</ele><time>2026-04-09T10:57:17.928Z</time></trkpt><trkpt lat="44.1651733" lon="11.106725"><ele>765.0</ele><time>2026-04-09T10:57:18.928Z</time></trkpt><trkpt lat="44.1650717" lon="11.1068183"><ele>767.0</ele><time>2026-04-09T10:57:19.928Z</time></trkpt><trkpt lat="44.16497" lon="11.1068567"><ele>767.0</ele><time>2026-04-09T10:57:20.928Z</time></trkpt><trkpt lat="44.1648667" lon="11.1068417"><ele>767.0</ele><time>2026-04-09T10:57:21.928Z</time></trkpt><trkpt lat="44.1647517" lon="11.1067867"><ele>767.0</ele><time>2026-04-09T10:57:22.929Z</time></trkpt><trkpt lat="44.1646283" lon="11.10671"><ele>767.0</ele><time>2026-04-09T10:57:23.928Z</time></trkpt><trkpt lat="44.16449" lon="11.1066183"><ele>765.5</ele><time>2026-04-09T10:57:24.928Z</time></trkpt><trkpt lat="44.1643533" lon="11.1065367"><ele>764.0</ele><time>2026-04-09T10:57:25.928Z</time></trkpt><trkpt lat="44.164215" lon="11.1064517"><ele>762.5</ele><time>2026-04-09T10:57:26.929Z</time></trkpt><trkpt lat="44.1640867" lon="11.10637"><ele>761.0</ele><time>2026-04-09T10:57:27.928Z</time></trkpt><trkpt lat="44.1639667" lon="11.1062983"><ele>761.0</ele><time>2026-04-09T10:57:28.928Z</time></trkpt><trkpt lat="44.16385" lon="11.10624"><ele>761.0</ele><time>2026-04-09T10:57:29.928Z</time></trkpt><trkpt lat="44.1637417" lon="11.1062117"><ele>761.0</ele><time>2026-04-09T10:57:30.929Z</time></trkpt><trkpt lat="44.16363" lon="11.1062267"><ele>761.0</ele><time>2026-04-09T10:57:31.928Z</time></trkpt><trkpt lat="44.1635317" lon="11.1062983"><ele>761.0</ele><time>2026-04-09T10:57:32.928Z</time></trkpt><trkpt lat="44.1634383" lon="11.1064117"><ele>761.0</ele><time>2026-04-09T10:57:33.928Z</time></trkpt><trkpt lat="44.16334" lon="11.1065467"><ele>761.0</ele><time>2026-04-09T10:57:34.928Z</time></trkpt><trkpt lat="44.1632367" lon="11.106645"><ele>761.0</ele><time>2026-04-09T10:57:35.928Z</time></trkpt><trkpt lat="44.1631167" lon="11.1066983"><ele>763.5</ele><time>2026-04-09T10:57:36.928Z</time></trkpt><trkpt lat="44.1629833" lon="11.10671"><ele>766.0</ele><time>2026-04-09T10:57:37.928Z</time></trkpt><trkpt lat="44.162835" lon="11.1067033"><ele>768.5</ele><time>2026-04-09T10:57:38.929Z</time></trkpt><trkpt lat="44.1626817" lon="11.1066867"><ele>771.0</ele><time>2026-04-09T10:57:39.928Z</time></trkpt><trkpt lat="44.162525" lon="11.106665"><ele>772.3333333333333</ele><time>2026-04-09T10:57:40.928Z</time></trkpt><trkpt lat="44.1623633" lon="11.10664"><ele>773.6666666666666</ele><time>2026-04-09T10:57:41.928Z</time></trkpt><trkpt lat="44.1621933" lon="11.106615"><ele>775.0</ele><time>2026-04-09T10:57:42.928Z</time></trkpt><trkpt lat="44.1620283" lon="11.106585"><ele>771.6666666666666</ele><time>2026-04-09T10:57:43.928Z</time></trkpt><trkpt lat="44.1618667" lon="11.1065583"><ele>768.3333333333333</ele><time>2026-04-09T10:57:44.928Z</time></trkpt><trkpt lat="44.1617083" lon="11.1065233"><ele>765.0</ele><time>2026-04-09T10:57:45.928Z</time></trkpt><trkpt lat="44.1615583" lon="11.1064883"><ele>767.0</ele><time>2026-04-09T10:57:46.928Z</time></trkpt><trkpt lat="44.1614183" lon="11.1064533"><ele>769.0</ele><time>2026-04-09T10:57:47.928Z</time></trkpt><trkpt lat="44.1612717" lon="11.1064233"><ele>771.0</ele><time>2026-04-09T10:57:48.929Z</time></trkpt><trkpt lat="44.16112" lon="11.1063983"><ele>773.0</ele><time>2026-04-09T10:57:49.929Z</time></trkpt><trkpt lat="44.1609783" lon="11.1063717"><ele>773.0</ele><time>2026-04-09T10:57:50.928Z</time></trkpt><trkpt lat="44.1608417" lon="11.106345"><ele>773.0</ele><time>2026-04-09T10:57:51.928Z</time></trkpt><trkpt lat="44.1607183" lon="11.10631"><ele>773.0</ele><time>2026-04-09T10:57:52.928Z</time></trkpt><trkpt lat="44.1605983" lon="11.1062833"><ele>773.0</ele><time>2026-04-09T10:57:53.928Z</time></trkpt><trkpt lat="44.1604767" lon="11.1062867"><ele>772.25</ele><time>2026-04-09T10:57:54.928Z</time></trkpt><trkpt lat="44.1603433" lon="11.1063317"><ele>771.5</ele><time>2026-04-09T10:57:55.928Z</time></trkpt><trkpt lat="44.160205" lon="11.1064"><ele>770.75</ele><time>2026-04-09T10:57:56.928Z</time></trkpt><trkpt lat="44.1600667" lon="11.106475"><ele>770.0</ele><time>2026-04-09T10:57:57.929Z</time></trkpt><trkpt lat="44.1599283" lon="11.1065433"><ele>774.0</ele><time>2026-04-09T10:57:58.928Z</time></trkpt><trkpt lat="44.1597783" lon="11.1066233"><ele>778.0</ele><time>2026-04-09T10:57:59.929Z</time></trkpt><trkpt lat="44.1596283" lon="11.106705"><ele>782.0</ele><time>2026-04-09T10:58:00.928Z</time></trkpt><trkpt lat="44.1594867" lon="11.1067883"><ele>782.0</ele><time>2026-04-09T10:58:01.929Z</time></trkpt><trkpt lat="44.1593483" lon="11.1068883"><ele>782.0</ele><time>2026-04-09T10:58:02.928Z</time></trkpt><trkpt lat="44.1592117" lon="11.107005"><ele>782.0</ele><time>2026-04-09T10:58:03.928Z</time></trkpt><trkpt lat="44.159085" lon="11.1071183"><ele>782.25</ele><time>2026-04-09T10:58:04.929Z</time></trkpt><trkpt lat="44.1589633" lon="11.1072217"><ele>782.5</ele><time>2026-04-09T10:58:05.928Z</time></trkpt><trkpt lat="44.1588433" lon="11.1073183"><ele>782.75</ele><time>2026-04-09T10:58:06.928Z</time></trkpt><trkpt lat="44.1587233" lon="11.1073983"><ele>783.0</ele><time>2026-04-09T10:58:07.928Z</time></trkpt><trkpt lat="44.1586117" lon="11.1074683"><ele>785.0</ele><time>2026-04-09T10:58:08.928Z</time></trkpt><trkpt lat="44.1585" lon="11.1075067"><ele>787.0</ele><time>2026-04-09T10:58:09.928Z</time></trkpt><trkpt lat="44.15839" lon="11.1075233"><ele>789.0</ele><time>2026-04-09T10:58:10.929Z</time></trkpt><trkpt lat="44.15828" lon="11.10751"><ele>791.0</ele><time>2026-04-09T10:58:11.929Z</time></trkpt><trkpt lat="44.1581767" lon="11.107465"><ele>793.0</ele><time>2026-04-09T10:58:12.928Z</time></trkpt><trkpt lat="44.1580867" lon="11.1073733"><ele>793.0</ele><time>2026-04-09T10:58:13.929Z</time></trkpt><trkpt lat="44.158025" lon="11.10724"><ele>793.0</ele><time>2026-04-09T10:58:14.929Z</time></trkpt><trkpt lat="44.1579583" lon="11.107105"><ele>793.0</ele><time>2026-04-09T10:58:15.928Z</time></trkpt><trkpt lat="44.157875" lon="11.1069883"><ele>793.0</ele><time>2026-04-09T10:58:16.928Z</time></trkpt><trkpt lat="44.157765" lon="11.10691"><ele>793.0</ele><time>2026-04-09T10:58:17.928Z</time></trkpt><trkpt lat="44.1576283" lon="11.1068733"><ele>793.0</ele><time>2026-04-09T10:58:18.928Z</time></trkpt><trkpt lat="44.1574883" lon="11.1068317"><ele>793.0</ele><time>2026-04-09T10:58:19.928Z</time></trkpt><trkpt lat="44.157345" lon="11.1067717"><ele>793.0</ele><time>2026-04-09T10:58:20.928Z</time></trkpt><trkpt lat="44.1572067" lon="11.1066933"><ele>794.25</ele><time>2026-04-09T10:58:21.928Z</time></trkpt><trkpt lat="44.1570783" lon="11.1066217"><ele>795.5</ele><time>2026-04-09T10:58:22.928Z</time></trkpt><trkpt lat="44.1569617" lon="11.1065833"><ele>796.75</ele><time>2026-04-09T10:58:23.928Z</time></trkpt><trkpt lat="44.1568383" lon="11.1065967"><ele>798.0</ele><time>2026-04-09T10:58:24.928Z</time></trkpt><trkpt lat="44.156715" lon="11.106655"><ele>798.0</ele><time>2026-04-09T10:58:25.928Z</time></trkpt><trkpt lat="44.1565917" lon="11.106745"><ele>798.0</ele><time>2026-04-09T10:58:26.928Z</time></trkpt><trkpt lat="44.156465" lon="11.1068183"><ele>798.0</ele><time>2026-04-09T10:58:27.928Z</time></trkpt><trkpt lat="44.1563333" lon="11.1068583"><ele>798.0</ele><time>2026-04-09T10:58:28.928Z</time></trkpt><trkpt lat="44.1561933" lon="11.10687"><ele>798.6666666666667</ele><time>2026-04-09T10:58:29.929Z</time></trkpt><trkpt lat="44.1560467" lon="11.1068867"><ele>799.3333333333334</ele><time>2026-04-09T10:58:30.929Z</time></trkpt><trkpt lat="44.1558933" lon="11.106915"><ele>800.0</ele><time>2026-04-09T10:58:31.929Z</time></trkpt><trkpt lat="44.1557433" lon="11.1069633"><ele>799.6666666666667</ele><time>2026-04-09T10:58:32.928Z</time></trkpt><trkpt lat="44.1555933" lon="11.107015"><ele>799.3333333333333</ele><time>2026-04-09T10:58:33.928Z</time></trkpt><trkpt lat="44.1554417" lon="11.1070583"><ele>799.0</ele><time>2026-04-09T10:58:34.928Z</time></trkpt><trkpt lat="44.1552933" lon="11.1071033"><ele>799.0</ele><time>2026-04-09T10:58:35.928Z</time></trkpt><trkpt lat="44.1551433" lon="11.1071517"><ele>799.0</ele><time>2026-04-09T10:58:36.928Z</time></trkpt><trkpt lat="44.155005" lon="11.10719"><ele>799.0</ele><time>2026-04-09T10:58:37.928Z</time></trkpt><trkpt lat="44.1548733" lon="11.1072167"><ele>799.0</ele><time>2026-04-09T10:58:38.928Z</time></trkpt><trkpt lat="44.1547383" lon="11.1072433"><ele>802.75</ele><time>2026-04-09T10:58:39.928Z</time></trkpt><trkpt lat="44.154615" lon="11.107255"><ele>806.5</ele><time>2026-04-09T10:58:40.928Z</time></trkpt><trkpt lat="44.1544983" lon="11.107245"><ele>810.25</ele><time>2026-04-09T10:58:41.929Z</time></trkpt><trkpt lat="44.1543867" lon="11.1072167"><ele>814.0</ele><time>2026-04-09T10:58:42.929Z</time></trkpt><trkpt lat="44.154295" lon="11.107145"><ele>814.0</ele><time>2026-04-09T10:58:43.928Z</time></trkpt><trkpt lat="44.15423" lon="11.1070217"><ele>814.0</ele><time>2026-04-09T10:58:44.928Z</time></trkpt><trkpt lat="44.1541817" lon="11.1068717"><ele>814.0</ele><time>2026-04-09T10:58:45.928Z</time></trkpt><trkpt lat="44.15414" lon="11.10673"><ele>814.0</ele><time>2026-04-09T10:58:46.929Z</time></trkpt><trkpt lat="44.154075" lon="11.1065983"><ele>812.0</ele><time>2026-04-09T10:58:47.928Z</time></trkpt><trkpt lat="44.153985" lon="11.1064933"><ele>810.0</ele><time>2026-04-09T10:58:48.928Z</time></trkpt><trkpt lat="44.153875" lon="11.1064133"><ele>808.0</ele><time>2026-04-09T10:58:49.928Z</time></trkpt><trkpt lat="44.1537517" lon="11.1063667"><ele>806.0</ele><time>2026-04-09T10:58:50.928Z</time></trkpt><trkpt lat="44.153625" lon="11.1063717"><ele>806.0</ele><time>2026-04-09T10:58:51.929Z</time></trkpt><trkpt lat="44.1535067" lon="11.106435"><ele>806.0</ele><time>2026-04-09T10:58:52.929Z</time></trkpt><trkpt lat="44.1533883" lon="11.1065417"><ele>806.0</ele><time>2026-04-09T10:58:53.928Z</time></trkpt><trkpt lat="44.15328" lon="11.106665"><ele>806.0</ele><time>2026-04-09T10:58:54.928Z</time></trkpt><trkpt lat="44.1531683" lon="11.1067667"><ele>810.0</ele><time>2026-04-09T10:58:55.929Z</time></trkpt><trkpt lat="44.15306" lon="11.10684"><ele>814.0</ele><time>2026-04-09T10:58:56.928Z</time></trkpt><trkpt lat="44.1529367" lon="11.1068817"><ele>818.0</ele><time>2026-04-09T10:58:57.929Z</time></trkpt><trkpt lat="44.1528083" lon="11.1068883"><ele>822.0</ele><time>2026-04-09T10:58:58.928Z</time></trkpt><trkpt lat="44.1526683" lon="11.1068617"><ele>822.0</ele><time>2026-04-09T10:58:59.928Z</time></trkpt><trkpt lat="44.1525317" lon="11.1067983"><ele>822.0</ele><time>2026-04-09T10:59:00.928Z</time></trkpt><trkpt lat="44.152385" lon="11.1067217"><ele>822.0</ele><time>2026-04-09T10:59:01.929Z</time></trkpt><trkpt lat="44.15223" lon="11.1066533"><ele>823.3333333333333</ele><time>2026-04-09T10:59:02.928Z</time></trkpt><trkpt lat="44.1520717" lon="11.1065967"><ele>824.6666666666666</ele><time>2026-04-09T10:59:03.928Z</time></trkpt><trkpt lat="44.1519283" lon="11.10653"><ele>826.0</ele><time>2026-04-09T10:59:04.928Z</time></trkpt><trkpt lat="44.1517933" lon="11.1064483"><ele>826.0</ele><time>2026-04-09T10:59:05.929Z</time></trkpt><trkpt lat="44.151665" lon="11.106335"><ele>826.0</ele><time>2026-04-09T10:59:06.928Z</time></trkpt><trkpt lat="44.1515533" lon="11.10621"><ele>826.0</ele><time>2026-04-09T10:59:07.929Z</time></trkpt><trkpt lat="44.15144" lon="11.106065"><ele>826.0</ele><time>2026-04-09T10:59:08.928Z</time></trkpt><trkpt lat="44.1513433" lon="11.10589"><ele>827.75</ele><time>2026-04-09T10:59:09.928Z</time></trkpt><trkpt lat="44.1512617" lon="11.1057183"><ele>829.5</ele><time>2026-04-09T10:59:10.929Z</time></trkpt><trkpt lat="44.1511917" lon="11.1055583"><ele>831.25</ele><time>2026-04-09T10:59:11.929Z</time></trkpt><trkpt lat="44.1511033" lon="11.10541"><ele>833.0</ele><time>2026-04-09T10:59:12.928Z</time></trkpt><trkpt lat="44.1509933" lon="11.1052883"><ele>833.0</ele><time>2026-04-09T10:59:13.929Z</time></trkpt><trkpt lat="44.15088" lon="11.1051917"><ele>833.0</ele><time>2026-04-09T10:59:14.929Z</time></trkpt><trkpt lat="44.15079" lon="11.10509"><ele>833.0</ele><time>2026-04-09T10:59:15.928Z</time></trkpt><trkpt lat="44.1507133" lon="11.104955"><ele>833.0</ele><time>2026-04-09T10:59:16.928Z</time></trkpt><trkpt lat="44.15066" lon="11.1048"><ele>837.0</ele><time>2026-04-09T10:59:17.928Z</time></trkpt><trkpt lat="44.15063" lon="11.104625"><ele>841.0</ele><time>2026-04-09T10:59:18.929Z</time></trkpt><trkpt lat="44.1506117" lon="11.10445"><ele>845.0</ele><time>2026-04-09T10:59:19.928Z</time></trkpt><trkpt lat="44.150585" lon="11.1042633"><ele>849.0</ele><time>2026-04-09T10:59:20.928Z</time></trkpt><trkpt lat="44.1505317" lon="11.1040817"><ele>847.25</ele><time>2026-04-09T10:59:21.928Z</time></trkpt><trkpt lat="44.1504667" lon="11.1039"><ele>845.5</ele><time>2026-04-09T10:59:22.928Z</time></trkpt><trkpt lat="44.150405" lon="11.10373"><ele>843.75</ele><time>2026-04-09T10:59:23.928Z</time></trkpt><trkpt lat="44.15034" lon="11.1035633"><ele>842.0</ele><time>2026-04-09T10:59:24.928Z</time></trkpt><trkpt lat="44.1503033" lon="11.1034083"><ele>842.0</ele><time>2026-04-09T10:59:25.928Z</time></trkpt><trkpt lat="44.150265" lon="11.1032617"><ele>842.0</ele><time>2026-04-09T10:59:26.929Z</time></trkpt><trkpt lat="44.150195" lon="11.10314"><ele>842.0</ele><time>2026-04-09T10:59:27.928Z</time></trkpt><trkpt lat="44.1501033" lon="11.1030417"><ele>842.0</ele><time>2026-04-09T10:59:28.928Z</time></trkpt><trkpt lat="44.1499833" lon="11.1029783"><ele>842.5</ele><time>2026-04-09T10:59:29.928Z</time></trkpt><trkpt lat="44.1498433" lon="11.1029383"><ele>843.0</ele><time>2026-04-09T10:59:30.929Z</time></trkpt><trkpt lat="44.1497117" lon="11.1029033"><ele>843.5</ele><time>2026-04-09T10:59:31.928Z</time></trkpt><trkpt lat="44.149575" lon="11.1028583"><ele>844.0</ele><time>2026-04-09T10:59:32.929Z</time></trkpt><trkpt lat="44.1494467" lon="11.1027883"><ele>844.0</ele><time>2026-04-09T10:59:33.928Z</time></trkpt><trkpt lat="44.1493267" lon="11.10269"><ele>844.0</ele><time>2026-04-09T10:59:34.928Z</time></trkpt><trkpt lat="44.14923" lon="11.1025633"><ele>844.0</ele><time>2026-04-09T10:59:35.928Z</time></trkpt><trkpt lat="44.149145" lon="11.1024167"><ele>844.0</ele><time>2026-04-09T10:59:36.928Z</time></trkpt><trkpt lat="44.1490733" lon="11.1022667"><ele>843.2</ele><time>2026-04-09T10:59:37.928Z</time></trkpt><trkpt lat="44.1489983" lon="11.1021417"><ele>842.4000000000001</ele><time>2026-04-09T10:59:38.928Z</time></trkpt><trkpt lat="44.14891" lon="11.1020567"><ele>841.6</ele><time>2026-04-09T10:59:39.929Z</time></trkpt><trkpt lat="44.1488133" lon="11.1020183"><ele>840.8</ele><time>2026-04-09T10:59:40.928Z</time></trkpt><trkpt lat="44.148705" lon="11.102035"><ele>840.0</ele><time>2026-04-09T10:59:41.928Z</time></trkpt><trkpt lat="44.148605" lon="11.102105"><ele>840.0</ele><time>2026-04-09T10:59:42.929Z</time></trkpt><trkpt lat="44.1485083" lon="11.1022033"><ele>840.0</ele><time>2026-04-09T10:59:43.928Z</time></trkpt><trkpt lat="44.1484" lon="11.10232"><ele>840.0</ele><time>2026-04-09T10:59:44.928Z</time></trkpt><trkpt lat="44.1482833" lon="11.1024083"><ele>840.0</ele><time>2026-04-09T10:59:45.928Z</time></trkpt><trkpt lat="44.1481533" lon="11.10247"><ele>844.0</ele><time>2026-04-09T10:59:46.928Z</time></trkpt><trkpt lat="44.148015" lon="11.1024983"><ele>848.0</ele><time>2026-04-09T10:59:47.929Z</time></trkpt><trkpt lat="44.1478667" lon="11.1025267"><ele>852.0</ele><time>2026-04-09T10:59:48.928Z</time></trkpt><trkpt lat="44.14771" lon="11.1025517"><ele>856.0</ele><time>2026-04-09T10:59:49.928Z</time></trkpt><trkpt lat="44.1475533" lon="11.1025833"><ele>856.0</ele><time>2026-04-09T10:59:50.929Z</time></trkpt><trkpt lat="44.1473933" lon="11.10262"><ele>856.0</ele><time>2026-04-09T10:59:51.929Z</time></trkpt><trkpt lat="44.147235" lon="11.1026517"><ele>856.0</ele><time>2026-04-09T10:59:52.928Z</time></trkpt><trkpt lat="44.147085" lon="11.1026667"><ele>857.75</ele><time>2026-04-09T10:59:53.928Z</time></trkpt><trkpt lat="44.1469433" lon="11.10266"><ele>859.5</ele><time>2026-04-09T10:59:54.928Z</time></trkpt><trkpt lat="44.1468133" lon="11.10264"><ele>861.25</ele><time>2026-04-09T10:59:55.928Z</time></trkpt><trkpt lat="44.146695" lon="11.1025883"><ele>863.0</ele><time>2026-04-09T10:59:56.928Z</time></trkpt><trkpt lat="44.1465767" lon="11.1025217"><ele>863.2</ele><time>2026-04-09T10:59:57.928Z</time></trkpt><trkpt lat="44.146475" lon="11.1024467"><ele>863.4</ele><time>2026-04-09T10:59:58.928Z</time></trkpt><trkpt lat="44.14637" lon="11.1023867"><ele>863.6000000000001</ele><time>2026-04-09T10:59:59.929Z</time></trkpt><trkpt lat="44.1462717" lon="11.10234"><ele>863.8000000000001</ele><time>2026-04-09T11:00:00.928Z</time></trkpt><trkpt lat="44.146175" lon="11.1023067"><ele>864.0</ele><time>2026-04-09T11:00:01.928Z</time></trkpt><trkpt lat="44.146075" lon="11.10228"><ele>864.6</ele><time>2026-04-09T11:00:02.928Z</time></trkpt><trkpt lat="44.1459683" lon="11.1022667"><ele>865.2</ele><time>2026-04-09T11:00:03.928Z</time></trkpt><trkpt lat="44.1458567" lon="11.102265"><ele>865.8000000000001</ele><time>2026-04-09T11:00:04.928Z</time></trkpt><trkpt lat="44.1457533" lon="11.1022833"><ele>866.4000000000001</ele><time>2026-04-09T11:00:05.928Z</time></trkpt><trkpt lat="44.1456517" lon="11.1023083"><ele>867.0</ele><time>2026-04-09T11:00:06.928Z</time></trkpt><trkpt lat="44.145555" lon="11.1023333"><ele>867.0</ele><time>2026-04-09T11:00:07.928Z</time></trkpt><trkpt lat="44.145455" lon="11.1023317"><ele>867.0</ele><time>2026-04-09T11:00:08.928Z</time></trkpt><trkpt lat="44.1453567" lon="11.1022917"><ele>867.0</ele><time>2026-04-09T11:00:09.928Z</time></trkpt><trkpt lat="44.14527" lon="11.1022067"><ele>867.0</ele><time>2026-04-09T11:00:10.928Z</time></trkpt><trkpt lat="44.145185" lon="11.10209"><ele>867.0</ele><time>2026-04-09T11:00:11.928Z</time></trkpt><trkpt lat="44.1450967" lon="11.101965"><ele>867.0</ele><time>2026-04-09T11:00:12.929Z</time></trkpt><trkpt lat="44.145005" lon="11.1018417"><ele>867.0</ele><time>2026-04-09T11:00:13.928Z</time></trkpt><trkpt lat="44.1449" lon="11.1017367"><ele>867.0</ele><time>2026-04-09T11:00:14.929Z</time></trkpt><trkpt lat="44.1447917" lon="11.1016667"><ele>867.0</ele><time>2026-04-09T11:00:15.928Z</time></trkpt><trkpt lat="44.1446767" lon="11.1016367"><ele>866.2</ele><time>2026-04-09T11:00:16.928Z</time></trkpt><trkpt lat="44.1445583" lon="11.101625"><ele>865.4000000000001</ele><time>2026-04-09T11:00:17.928Z</time></trkpt><trkpt lat="44.144445" lon="11.1016283"><ele>864.5999999999999</ele><time>2026-04-09T11:00:18.928Z</time></trkpt><trkpt lat="44.1443367" lon="11.1016417"><ele>863.8</ele><time>2026-04-09T11:00:19.929Z</time></trkpt><trkpt lat="44.1442317" lon="11.1016583"><ele>863.0</ele><time>2026-04-09T11:00:20.928Z</time></trkpt><trkpt lat="44.14413" lon="11.1016683"><ele>865.0</ele><time>2026-04-09T11:00:21.927Z</time></trkpt><trkpt lat="44.1440317" lon="11.1016833"><ele>867.0</ele><time>2026-04-09T11:00:22.927Z</time></trkpt><trkpt lat="44.1439283" lon="11.10171"><ele>869.0</ele><time>2026-04-09T11:00:23.927Z</time></trkpt><trkpt lat="44.1438267" lon="11.1017467"><ele>871.0</ele><time>2026-04-09T11:00:24.927Z</time></trkpt><trkpt lat="44.14373" lon="11.1018033"><ele>873.0</ele><time>2026-04-09T11:00:25.927Z</time></trkpt><trkpt lat="44.143635" lon="11.1019067"><ele>873.0</ele><time>2026-04-09T11:00:26.928Z</time></trkpt><trkpt lat="44.1435467" lon="11.1020233"><ele>873.0</ele><time>2026-04-09T11:00:27.928Z</time></trkpt><trkpt lat="44.1434683" lon="11.102155"><ele>873.0</ele><time>2026-04-09T11:00:28.927Z</time></trkpt><trkpt lat="44.143395" lon="11.1022967"><ele>873.0</ele><time>2026-04-09T11:00:29.927Z</time></trkpt><trkpt lat="44.1433317" lon="11.1024233"><ele>872.8</ele><time>2026-04-09T11:00:30.928Z</time></trkpt><trkpt lat="44.1432717" lon="11.1025383"><ele>872.5999999999999</ele><time>2026-04-09T11:00:31.927Z</time></trkpt><trkpt lat="44.1432" lon="11.102625"><ele>872.4000000000001</ele><time>2026-04-09T11:00:32.927Z</time></trkpt><trkpt lat="44.1431267" lon="11.1026967"><ele>872.2</ele><time>2026-04-09T11:00:33.928Z</time></trkpt><trkpt lat="44.1430383" lon="11.1027367"><ele>872.0</ele><time>2026-04-09T11:00:34.927Z</time></trkpt><trkpt lat="44.1429433" lon="11.1027483"><ele>872.75</ele><time>2026-04-09T11:00:35.928Z</time></trkpt><trkpt lat="44.14284" lon="11.1027317"><ele>873.5</ele><time>2026-04-09T11:00:36.927Z</time></trkpt><trkpt lat="44.1427267" lon="11.102685"><ele>874.25</ele><time>2026-04-09T11:00:37.927Z</time></trkpt><trkpt lat="44.142615" lon="11.10261"><ele>875.0</ele><time>2026-04-09T11:00:38.928Z</time></trkpt><trkpt lat="44.1424933" lon="11.1025417"><ele>874.0</ele><time>2026-04-09T11:00:39.927Z</time></trkpt><trkpt lat="44.1423533" lon="11.102505"><ele>873.0</ele><time>2026-04-09T11:00:40.927Z</time></trkpt><trkpt lat="44.142205" lon="11.1024817"><ele>872.0</ele><time>2026-04-09T11:00:41.927Z</time></trkpt><trkpt lat="44.1420583" lon="11.102465"><ele>871.0</ele><time>2026-04-09T11:00:42.927Z</time></trkpt><trkpt lat="44.1419183" lon="11.1024333"><ele>874.5</ele><time>2026-04-09T11:00:43.927Z</time></trkpt><trkpt lat="44.14179" lon="11.1023767"><ele>878.0</ele><time>2026-04-09T11:00:44.927Z</time></trkpt><trkpt lat="44.1416733" lon="11.1023017"><ele>881.5</ele><time>2026-04-09T11:00:45.927Z</time></trkpt><trkpt lat="44.1415667" lon="11.1022133"><ele>885.0</ele><time>2026-04-09T11:00:46.927Z</time></trkpt><trkpt lat="44.1414633" lon="11.1021267"><ele>885.0</ele><time>2026-04-09T11:00:47.927Z</time></trkpt><trkpt lat="44.1413617" lon="11.1020633"><ele>885.0</ele><time>2026-04-09T11:00:48.927Z</time></trkpt><trkpt lat="44.1412517" lon="11.1020483"><ele>885.0</ele><time>2026-04-09T11:00:49.927Z</time></trkpt><trkpt lat="44.1411317" lon="11.1020767"><ele>885.0</ele><time>2026-04-09T11:00:50.927Z</time></trkpt><trkpt lat="44.14101" lon="11.1021133"><ele>885.0</ele><time>2026-04-09T11:00:51.927Z</time></trkpt><trkpt lat="44.1408867" lon="11.1021433"><ele>885.0</ele><time>2026-04-09T11:00:52.927Z</time></trkpt><trkpt lat="44.1407817" lon="11.102145"><ele>885.0</ele><time>2026-04-09T11:00:53.927Z</time></trkpt><trkpt lat="44.1406817" lon="11.10212"><ele>885.0</ele><time>2026-04-09T11:00:54.927Z</time></trkpt><trkpt lat="44.1405867" lon="11.102035"><ele>885.0</ele><time>2026-04-09T11:00:55.927Z</time></trkpt><trkpt lat="44.1405" lon="11.1019267"><ele>883.5</ele><time>2026-04-09T11:00:56.927Z</time></trkpt><trkpt lat="44.14042" lon="11.1018017"><ele>882.0</ele><time>2026-04-09T11:00:57.927Z</time></trkpt><trkpt lat="44.1403333" lon="11.101695"><ele>880.5</ele><time>2026-04-09T11:00:58.927Z</time></trkpt><trkpt lat="44.1402233" lon="11.1016333"><ele>879.0</ele><time>2026-04-09T11:00:59.927Z</time></trkpt><trkpt lat="44.1400917" lon="11.1016"><ele>879.0</ele><time>2026-04-09T11:01:00.927Z</time></trkpt><trkpt lat="44.139945" lon="11.1015867"><ele>879.0</ele><time>2026-04-09T11:01:01.927Z</time></trkpt><trkpt lat="44.1398117" lon="11.101565"><ele>879.0</ele><time>2026-04-09T11:01:02.927Z</time></trkpt><trkpt lat="44.1396833" lon="11.1015583"><ele>879.0</ele><time>2026-04-09T11:01:03.927Z</time></trkpt><trkpt lat="44.1395533" lon="11.101575"><ele>880.25</ele><time>2026-04-09T11:01:04.927Z</time></trkpt><trkpt lat="44.139415" lon="11.1016167"><ele>881.5</ele><time>2026-04-09T11:01:05.928Z</time></trkpt><trkpt lat="44.139285" lon="11.101685"><ele>882.75</ele><time>2026-04-09T11:01:06.927Z</time></trkpt><trkpt lat="44.13916" lon="11.1018"><ele>884.0</ele><time>2026-04-09T11:01:07.927Z</time></trkpt><trkpt lat="44.13905" lon="11.101945"><ele>884.5</ele><time>2026-04-09T11:01:08.928Z</time></trkpt><trkpt lat="44.138945" lon="11.1020833"><ele>885.0</ele><time>2026-04-09T11:01:09.927Z</time></trkpt><trkpt lat="44.1388433" lon="11.1022133"><ele>885.5</ele><time>2026-04-09T11:01:10.927Z</time></trkpt><trkpt lat="44.1387417" lon="11.1023267"><ele>886.0</ele><time>2026-04-09T11:01:11.927Z</time></trkpt><trkpt lat="44.1386317" lon="11.1024333"><ele>886.0</ele><time>2026-04-09T11:01:12.927Z</time></trkpt><trkpt lat="44.13851" lon="11.1025333"><ele>886.0</ele><time>2026-04-09T11:01:13.927Z</time></trkpt><trkpt lat="44.138375" lon="11.102615"><ele>886.0</ele><time>2026-04-09T11:01:14.927Z</time></trkpt><trkpt lat="44.1382367" lon="11.1027017"><ele>886.0</ele><time>2026-04-09T11:01:15.928Z</time></trkpt><trkpt lat="44.1380967" lon="11.1027733"><ele>889.25</ele><time>2026-04-09T11:01:16.927Z</time></trkpt><trkpt lat="44.1379633" lon="11.1028433"><ele>892.5</ele><time>2026-04-09T11:01:17.927Z</time></trkpt><trkpt lat="44.1378483" lon="11.1029117"><ele>895.75</ele><time>2026-04-09T11:01:18.927Z</time></trkpt><trkpt lat="44.1377567" lon="11.1029733"><ele>899.0</ele><time>2026-04-09T11:01:19.927Z</time></trkpt><trkpt lat="44.1376817" lon="11.1030733"><ele>899.0</ele><time>2026-04-09T11:01:20.927Z</time></trkpt><trkpt lat="44.1376333" lon="11.10321"><ele>899.0</ele><time>2026-04-09T11:01:21.927Z</time></trkpt><trkpt lat="44.1376" lon="11.1033767"><ele>899.0</ele><time>2026-04-09T11:01:22.927Z</time></trkpt><trkpt lat="44.1375983" lon="11.103565"><ele>899.0</ele><time>2026-04-09T11:01:23.927Z</time></trkpt><trkpt lat="44.1376117" lon="11.1037467"><ele>896.8000000000001</ele><time>2026-04-09T11:01:24.927Z</time></trkpt><trkpt lat="44.1376367" lon="11.10392"><ele>894.6000000000001</ele><time>2026-04-09T11:01:25.928Z</time></trkpt><trkpt lat="44.1376583" lon="11.1040683"><ele>892.4</ele><time>2026-04-09T11:01:26.927Z</time></trkpt><trkpt lat="44.1376567" lon="11.10421"><ele>890.2</ele><time>2026-04-09T11:01:27.927Z</time></trkpt><trkpt lat="44.1376267" lon="11.1043433"><ele>888.0</ele><time>2026-04-09T11:01:28.927Z</time></trkpt><trkpt lat="44.137565" lon="11.10446"><ele>887.5</ele><time>2026-04-09T11:01:29.927Z</time></trkpt><trkpt lat="44.1374733" lon="11.1045633"><ele>887.0</ele><time>2026-04-09T11:01:30.927Z</time></trkpt><trkpt lat="44.1373617" lon="11.104655"><ele>886.5</ele><time>2026-04-09T11:01:31.927Z</time></trkpt><trkpt lat="44.1372467" lon="11.1047333"><ele>886.0</ele><time>2026-04-09T11:01:32.927Z</time></trkpt><trkpt lat="44.137135" lon="11.1047867"><ele>889.5</ele><time>2026-04-09T11:01:33.927Z</time></trkpt><trkpt lat="44.1370233" lon="11.1048017"><ele>893.0</ele><time>2026-04-09T11:01:34.927Z</time></trkpt><trkpt lat="44.1369" lon="11.1047667"><ele>896.5</ele><time>2026-04-09T11:01:35.928Z</time></trkpt><trkpt lat="44.1367683" lon="11.10471"><ele>900.0</ele><time>2026-04-09T11:01:36.927Z</time></trkpt><trkpt lat="44.1366333" lon="11.1046617"><ele>902.25</ele><time>2026-04-09T11:01:37.927Z</time></trkpt><trkpt lat="44.1365067" lon="11.1046367"><ele>904.5</ele><time>2026-04-09T11:01:38.927Z</time></trkpt><trkpt lat="44.136375" lon="11.1046367"><ele>906.75</ele><time>2026-04-09T11:01:39.928Z</time></trkpt><trkpt lat="44.1362317" lon="11.104685"><ele>909.0</ele><time>2026-04-09T11:01:40.927Z</time></trkpt><trkpt lat="44.1360833" lon="11.10476"><ele>909.0</ele><time>2026-04-09T11:01:41.927Z</time></trkpt><trkpt lat="44.13593" lon="11.1048183"><ele>909.0</ele><time>2026-04-09T11:01:42.927Z</time></trkpt><trkpt lat="44.1357733" lon="11.1048733"><ele>909.0</ele><time>2026-04-09T11:01:43.928Z</time></trkpt><trkpt lat="44.1356183" lon="11.1049233"><ele>906.5</ele><time>2026-04-09T11:01:44.927Z</time></trkpt><trkpt lat="44.13547" lon="11.1049833"><ele>904.0</ele><time>2026-04-09T11:01:45.927Z</time></trkpt><trkpt lat="44.1353333" lon="11.1050567"><ele>901.5</ele><time>2026-04-09T11:01:46.927Z</time></trkpt><trkpt lat="44.1352067" lon="11.1051583"><ele>899.0</ele><time>2026-04-09T11:01:47.927Z</time></trkpt><trkpt lat="44.1350917" lon="11.1052767"><ele>899.0</ele><time>2026-04-09T11:01:48.927Z</time></trkpt><trkpt lat="44.1349833" lon="11.10539"><ele>899.0</ele><time>2026-04-09T11:01:49.927Z</time></trkpt><trkpt lat="44.134865" lon="11.1054817"><ele>899.0</ele><time>2026-04-09T11:01:50.927Z</time></trkpt><trkpt lat="44.1347383" lon="11.1055233"><ele>899.0</ele><time>2026-04-09T11:01:51.928Z</time></trkpt><trkpt lat="44.1346" lon="11.1055567"><ele>901.0</ele><time>2026-04-09T11:01:52.927Z</time></trkpt><trkpt lat="44.1344733" lon="11.105595"><ele>903.0</ele><time>2026-04-09T11:01:53.927Z</time></trkpt><trkpt lat="44.1343633" lon="11.1056367"><ele>905.0</ele><time>2026-04-09T11:01:54.927Z</time></trkpt><trkpt lat="44.134265" lon="11.1057083"><ele>907.0</ele><time>2026-04-09T11:01:55.928Z</time></trkpt><trkpt lat="44.1341733" lon="11.105825"><ele>907.0</ele><time>2026-04-09T11:01:56.928Z</time></trkpt><trkpt lat="44.134105" lon="11.10598"><ele>907.0</ele><time>2026-04-09T11:01:57.928Z</time></trkpt><trkpt lat="44.1340383" lon="11.1061583"><ele>907.0</ele><time>2026-04-09T11:01:58.927Z</time></trkpt><trkpt lat="44.133985" lon="11.1063233"><ele>907.0</ele><time>2026-04-09T11:01:59.927Z</time></trkpt><trkpt lat="44.1339383" lon="11.1065083"><ele>906.0</ele><time>2026-04-09T11:02:00.928Z</time></trkpt><trkpt lat="44.1339167" lon="11.1066983"><ele>905.0</ele><time>2026-04-09T11:02:01.927Z</time></trkpt><trkpt lat="44.1339417" lon="11.1068767"><ele>904.0</ele><time>2026-04-09T11:02:02.928Z</time></trkpt><trkpt lat="44.1339933" lon="11.10703"><ele>903.0</ele><time>2026-04-09T11:02:03.927Z</time></trkpt><trkpt lat="44.1340583" lon="11.1071783"><ele>899.25</ele><time>2026-04-09T11:02:04.928Z</time></trkpt><trkpt lat="44.1341183" lon="11.1073283"><ele>895.5</ele><time>2026-04-09T11:02:05.927Z</time></trkpt><trkpt lat="44.1341467" lon="11.1074867"><ele>891.75</ele><time>2026-04-09T11:02:06.927Z</time></trkpt><trkpt lat="44.1341483" lon="11.1076417"><ele>888.0</ele><time>2026-04-09T11:02:07.927Z</time></trkpt><trkpt lat="44.1341267" lon="11.1078167"><ele>888.0</ele><time>2026-04-09T11:02:08.928Z</time></trkpt><trkpt lat="44.1341033" lon="11.1079867"><ele>888.0</ele><time>2026-04-09T11:02:09.927Z</time></trkpt><trkpt lat="44.1341067" lon="11.10816"><ele>888.0</ele><time>2026-04-09T11:02:10.928Z</time></trkpt><trkpt lat="44.134125" lon="11.1083517"><ele>888.0</ele><time>2026-04-09T11:02:11.928Z</time></trkpt><trkpt lat="44.13416" lon="11.1085433"><ele>889.25</ele><time>2026-04-09T11:02:12.927Z</time></trkpt><trkpt lat="44.1341967" lon="11.1087233"><ele>890.5</ele><time>2026-04-09T11:02:13.927Z</time></trkpt><trkpt lat="44.1342367" lon="11.108895"><ele>891.75</ele><time>2026-04-09T11:02:14.927Z</time></trkpt><trkpt lat="44.1342833" lon="11.1090567"><ele>893.0</ele><time>2026-04-09T11:02:15.928Z</time></trkpt><trkpt lat="44.1343617" lon="11.1091883"><ele>895.25</ele><time>2026-04-09T11:02:16.927Z</time></trkpt><trkpt lat="44.1344667" lon="11.109295"><ele>897.5</ele><time>2026-04-09T11:02:17.928Z</time></trkpt><trkpt lat="44.1345733" lon="11.1093933"><ele>899.75</ele><time>2026-04-09T11:02:18.927Z</time></trkpt><trkpt lat="44.1346783" lon="11.1095067"><ele>902.0</ele><time>2026-04-09T11:02:19.927Z</time></trkpt><trkpt lat="44.1347683" lon="11.1096483"><ele>902.0</ele><time>2026-04-09T11:02:20.927Z</time></trkpt><trkpt lat="44.1348333" lon="11.1098233"><ele>902.0</ele><time>2026-04-09T11:02:21.927Z</time></trkpt><trkpt lat="44.134885" lon="11.1100167"><ele>902.0</ele><time>2026-04-09T11:02:22.927Z</time></trkpt><trkpt lat="44.1349283" lon="11.1101967"><ele>902.0</ele><time>2026-04-09T11:02:23.927Z</time></trkpt><trkpt lat="44.1349667" lon="11.1103467"><ele>902.8</ele><time>2026-04-09T11:02:24.927Z</time></trkpt><trkpt lat="44.1349767" lon="11.110495"><ele>903.6</ele><time>2026-04-09T11:02:25.927Z</time></trkpt><trkpt lat="44.13495" lon="11.110645"><ele>904.3999999999999</ele><time>2026-04-09T11:02:26.927Z</time></trkpt><trkpt lat="44.1348917" lon="11.1107767"><ele>905.1999999999999</ele><time>2026-04-09T11:02:27.927Z</time></trkpt><trkpt lat="44.134805" lon="11.1108883"><ele>906.0</ele><time>2026-04-09T11:02:28.927Z</time></trkpt><trkpt lat="44.1347" lon="11.1109683"><ele>906.0</ele><time>2026-04-09T11:02:29.927Z</time></trkpt><trkpt lat="44.1345683" lon="11.11104"><ele>906.0</ele><time>2026-04-09T11:02:30.928Z</time></trkpt><trkpt lat="44.13446" lon="11.1111217"><ele>906.0</ele><time>2026-04-09T11:02:31.927Z</time></trkpt><trkpt lat="44.1343633" lon="11.111225"><ele>906.0</ele><time>2026-04-09T11:02:32.927Z</time></trkpt><trkpt lat="44.13428" lon="11.111365"><ele>906.0</ele><time>2026-04-09T11:02:33.927Z</time></trkpt><trkpt lat="44.1342367" lon="11.1115317"><ele>906.0</ele><time>2026-04-09T11:02:34.927Z</time></trkpt><trkpt lat="44.134225" lon="11.1117217"><ele>906.0</ele><time>2026-04-09T11:02:35.927Z</time></trkpt><trkpt lat="44.13422" lon="11.1119183"><ele>906.0</ele><time>2026-04-09T11:02:36.927Z</time></trkpt><trkpt lat="44.1342333" lon="11.11211"><ele>905.0</ele><time>2026-04-09T11:02:37.927Z</time></trkpt><trkpt lat="44.13426" lon="11.1122867"><ele>904.0</ele><time>2026-04-09T11:02:38.927Z</time></trkpt><trkpt lat="44.1343233" lon="11.1124583"><ele>903.0</ele><time>2026-04-09T11:02:39.927Z</time></trkpt><trkpt lat="44.13442" lon="11.1126017"><ele>902.0</ele><time>2026-04-09T11:02:40.927Z</time></trkpt><trkpt lat="44.1345283" lon="11.1127317"><ele>902.0</ele><time>2026-04-09T11:02:41.927Z</time></trkpt><trkpt lat="44.1346383" lon="11.11288"><ele>902.0</ele><time>2026-04-09T11:02:42.927Z</time></trkpt><trkpt lat="44.13474" lon="11.113045"><ele>902.0</ele><time>2026-04-09T11:02:43.928Z</time></trkpt><trkpt lat="44.1348217" lon="11.1132217"><ele>900.5</ele><time>2026-04-09T11:02:44.927Z</time></trkpt><trkpt lat="44.1348817" lon="11.1134033"><ele>899.0</ele><time>2026-04-09T11:02:45.928Z</time></trkpt><trkpt lat="44.1349267" lon="11.1135817"><ele>897.5</ele><time>2026-04-09T11:02:46.927Z</time></trkpt><trkpt lat="44.13496" lon="11.1137567"><ele>896.0</ele><time>2026-04-09T11:02:47.927Z</time></trkpt><trkpt lat="44.1349767" lon="11.113925"><ele>897.25</ele><time>2026-04-09T11:02:48.927Z</time></trkpt><trkpt lat="44.1349683" lon="11.1140883"><ele>898.5</ele><time>2026-04-09T11:02:49.927Z</time></trkpt><trkpt lat="44.1349317" lon="11.11424"><ele>899.75</ele><time>2026-04-09T11:02:50.927Z</time></trkpt><trkpt lat="44.1348683" lon="11.1143783"><ele>901.0</ele><time>2026-04-09T11:02:51.927Z</time></trkpt><trkpt lat="44.1347783" lon="11.11449"><ele>903.25</ele><time>2026-04-09T11:02:52.928Z</time></trkpt><trkpt lat="44.1346633" lon="11.1145667"><ele>905.5</ele><time>2026-04-09T11:02:53.927Z</time></trkpt><trkpt lat="44.13453" lon="11.1146067"><ele>907.75</ele><time>2026-04-09T11:02:54.927Z</time></trkpt><trkpt lat="44.1343867" lon="11.114605"><ele>910.0</ele><time>2026-04-09T11:02:55.927Z</time></trkpt><trkpt lat="44.1342283" lon="11.1146"><ele>910.0</ele><time>2026-04-09T11:02:56.927Z</time></trkpt><trkpt lat="44.1340617" lon="11.114585"><ele>910.0</ele><time>2026-04-09T11:02:57.927Z</time></trkpt><trkpt lat="44.13389" lon="11.1145733"><ele>910.0</ele><time>2026-04-09T11:02:58.927Z</time></trkpt><trkpt lat="44.1337217" lon="11.1145567"><ele>908.0</ele><time>2026-04-09T11:02:59.928Z</time></trkpt><trkpt lat="44.1335633" lon="11.1145433"><ele>906.0</ele><time>2026-04-09T11:03:00.928Z</time></trkpt><trkpt lat="44.1334283" lon="11.1145333"><ele>904.0</ele><time>2026-04-09T11:03:01.927Z</time></trkpt><trkpt lat="44.1333117" lon="11.1144933"><ele>902.0</ele><time>2026-04-09T11:03:02.927Z</time></trkpt><trkpt lat="44.1332133" lon="11.1144133"><ele>903.0</ele><time>2026-04-09T11:03:03.927Z</time></trkpt><trkpt lat="44.1331233" lon="11.1143083"><ele>904.0</ele><time>2026-04-09T11:03:04.927Z</time></trkpt><trkpt lat="44.1330333" lon="11.1142067"><ele>905.0</ele><time>2026-04-09T11:03:05.927Z</time></trkpt><trkpt lat="44.1329483" lon="11.114115"><ele>906.0</ele><time>2026-04-09T11:03:06.927Z</time></trkpt><trkpt lat="44.1328567" lon="11.1140617"><ele>907.0</ele><time>2026-04-09T11:03:07.927Z</time></trkpt><trkpt lat="44.13276" lon="11.1140633"><ele>905.0</ele><time>2026-04-09T11:03:08.927Z</time></trkpt><trkpt lat="44.1326533" lon="11.1141267"><ele>903.0</ele><time>2026-04-09T11:03:09.927Z</time></trkpt><trkpt lat="44.1325483" lon="11.1142283"><ele>901.0</ele><time>2026-04-09T11:03:10.928Z</time></trkpt><trkpt lat="44.1324383" lon="11.1143333"><ele>899.0</ele><time>2026-04-09T11:03:11.927Z</time></trkpt><trkpt lat="44.13232" lon="11.1144183"><ele>899.0</ele><time>2026-04-09T11:03:12.927Z</time></trkpt><trkpt lat="44.132205" lon="11.1144733"><ele>899.0</ele><time>2026-04-09T11:03:13.928Z</time></trkpt><trkpt lat="44.1320883" lon="11.114495"><ele>899.0</ele><time>2026-04-09T11:03:14.927Z</time></trkpt><trkpt lat="44.1319517" lon="11.1145017"><ele>899.0</ele><time>2026-04-09T11:03:15.928Z</time></trkpt><trkpt lat="44.131805" lon="11.1144933"><ele>899.0</ele><time>2026-04-09T11:03:16.927Z</time></trkpt><trkpt lat="44.1316483" lon="11.1144783"><ele>899.0</ele><time>2026-04-09T11:03:17.927Z</time></trkpt><trkpt lat="44.1315017" lon="11.1144867"><ele>899.0</ele><time>2026-04-09T11:03:18.928Z</time></trkpt><trkpt lat="44.1313567" lon="11.1144967"><ele>899.0</ele><time>2026-04-09T11:03:19.927Z</time></trkpt><trkpt lat="44.1312117" lon="11.1145033"><ele>898.5</ele><time>2026-04-09T11:03:20.927Z</time></trkpt><trkpt lat="44.1310817" lon="11.1145433"><ele>898.0</ele><time>2026-04-09T11:03:21.927Z</time></trkpt><trkpt lat="44.1309617" lon="11.1146033"><ele>897.5</ele><time>2026-04-09T11:03:22.927Z</time></trkpt><trkpt lat="44.1308533" lon="11.1146767"><ele>897.0</ele><time>2026-04-09T11:03:23.927Z</time></trkpt><trkpt lat="44.13074" lon="11.1147517"><ele>895.25</ele><time>2026-04-09T11:03:24.928Z</time></trkpt><trkpt lat="44.1306117" lon="11.1148067"><ele>893.5</ele><time>2026-04-09T11:03:25.927Z</time></trkpt><trkpt lat="44.1304767" lon="11.114825"><ele>891.75</ele><time>2026-04-09T11:03:26.927Z</time></trkpt><trkpt lat="44.1303333" lon="11.1148133"><ele>890.0</ele><time>2026-04-09T11:03:27.927Z</time></trkpt><trkpt lat="44.1301867" lon="11.1148"><ele>890.0</ele><time>2026-04-09T11:03:28.927Z</time></trkpt><trkpt lat="44.1300433" lon="11.114775"><ele>890.0</ele><time>2026-04-09T11:03:29.927Z</time></trkpt><trkpt lat="44.1299033" lon="11.11475"><ele>890.0</ele><time>2026-04-09T11:03:30.927Z</time></trkpt><trkpt lat="44.1297667" lon="11.1147017"><ele>890.0</ele><time>2026-04-09T11:03:31.927Z</time></trkpt><trkpt lat="44.1296483" lon="11.1146367"><ele>885.0</ele><time>2026-04-09T11:03:32.927Z</time></trkpt><trkpt lat="44.1295383" lon="11.1145817"><ele>880.0</ele><time>2026-04-09T11:03:33.927Z</time></trkpt><trkpt lat="44.1294433" lon="11.114515"><ele>875.0</ele><time>2026-04-09T11:03:34.927Z</time></trkpt><trkpt lat="44.1293533" lon="11.1144367"><ele>870.0</ele><time>2026-04-09T11:03:35.927Z</time></trkpt><trkpt lat="44.1292883" lon="11.1143183"><ele>865.0</ele><time>2026-04-09T11:03:36.927Z</time></trkpt><trkpt lat="44.1292433" lon="11.114195"><ele>866.0</ele><time>2026-04-09T11:03:37.928Z</time></trkpt><trkpt lat="44.1292167" lon="11.11403"><ele>867.0</ele><time>2026-04-09T11:03:38.927Z</time></trkpt><trkpt lat="44.1291783" lon="11.113865"><ele>868.0</ele><time>2026-04-09T11:03:39.927Z</time></trkpt><trkpt lat="44.129135" lon="11.113705"><ele>869.0</ele><time>2026-04-09T11:03:40.928Z</time></trkpt><trkpt lat="44.1290933" lon="11.1135583"><ele>869.0</ele><time>2026-04-09T11:03:41.927Z</time></trkpt><trkpt lat="44.1290733" lon="11.1134033"><ele>869.0000000000001</ele><time>2026-04-09T11:03:42.927Z</time></trkpt><trkpt lat="44.1290867" lon="11.11325"><ele>869.0000000000001</ele><time>2026-04-09T11:03:43.927Z</time></trkpt><trkpt lat="44.1291217" lon="11.1131233"><ele>869.0</ele><time>2026-04-09T11:03:44.927Z</time></trkpt><trkpt lat="44.1291417" lon="11.1130083"><ele>869.0</ele><time>2026-04-09T11:03:45.928Z</time></trkpt><trkpt lat="44.1291283" lon="11.1128967"><ele>869.5000000000001</ele><time>2026-04-09T11:03:46.927Z</time></trkpt><trkpt lat="44.12908" lon="11.112805"><ele>870.0</ele><time>2026-04-09T11:03:47.928Z</time></trkpt><trkpt lat="44.1290067" lon="11.1127467"><ele>870.5</ele><time>2026-04-09T11:03:48.927Z</time></trkpt><trkpt lat="44.128925" lon="11.1127333"><ele>871.0</ele><time>2026-04-09T11:03:49.927Z</time></trkpt><trkpt lat="44.12885" lon="11.1127667"><ele>871.5000000000001</ele><time>2026-04-09T11:03:50.928Z</time></trkpt><trkpt lat="44.1287867" lon="11.1128567"><ele>872.0</ele><time>2026-04-09T11:03:51.927Z</time></trkpt><trkpt lat="44.1287583" lon="11.113025"><ele>869.0</ele><time>2026-04-09T11:03:52.927Z</time></trkpt><trkpt lat="44.1287633" lon="11.11319"><ele>866.0</ele><time>2026-04-09T11:03:53.927Z</time></trkpt><trkpt lat="44.1287817" lon="11.113365"><ele>863.0</ele><time>2026-04-09T11:03:54.927Z</time></trkpt><trkpt lat="44.1287983" lon="11.113545"><ele>860.0</ele><time>2026-04-09T11:03:55.927Z</time></trkpt><trkpt lat="44.1288" lon="11.11373"><ele>859.5</ele><time>2026-04-09T11:03:56.927Z</time></trkpt><trkpt lat="44.1287867" lon="11.1139017"><ele>859.0</ele><time>2026-04-09T11:03:57.927Z</time></trkpt><trkpt lat="44.12877" lon="11.114075"><ele>858.5</ele><time>2026-04-09T11:03:58.928Z</time></trkpt><trkpt lat="44.12875" lon="11.1142433"><ele>858.0</ele><time>2026-04-09T11:03:59.927Z</time></trkpt><trkpt lat="44.1287433" lon="11.1143917"><ele>856.8</ele><time>2026-04-09T11:04:00.927Z</time></trkpt><trkpt lat="44.1287583" lon="11.11454"><ele>855.5999999999999</ele><time>2026-04-09T11:04:01.927Z</time></trkpt><trkpt lat="44.1288017" lon="11.1146767"><ele>854.4000000000001</ele><time>2026-04-09T11:04:02.927Z</time></trkpt><trkpt lat="44.1288583" lon="11.1148017"><ele>853.2</ele><time>2026-04-09T11:04:03.927Z</time></trkpt><trkpt lat="44.1289417" lon="11.1149133"><ele>852.0</ele><time>2026-04-09T11:04:04.927Z</time></trkpt><trkpt lat="44.12904" lon="11.1150117"><ele>852.4000000000001</ele><time>2026-04-09T11:04:05.928Z</time></trkpt><trkpt lat="44.1291417" lon="11.115095"><ele>852.8000000000001</ele><time>2026-04-09T11:04:06.928Z</time></trkpt><trkpt lat="44.1292433" lon="11.1151567"><ele>853.2</ele><time>2026-04-09T11:04:07.927Z</time></trkpt><trkpt lat="44.12934" lon="11.11521"><ele>853.6</ele><time>2026-04-09T11:04:08.927Z</time></trkpt><trkpt lat="44.1294333" lon="11.1152517"><ele>854.0</ele><time>2026-04-09T11:04:09.927Z</time></trkpt><trkpt lat="44.129515" lon="11.1153017"><ele>854.0000000000001</ele><time>2026-04-09T11:04:10.928Z</time></trkpt><trkpt lat="44.1295883" lon="11.1153467"><ele>854.0</ele><time>2026-04-09T11:04:11.927Z</time></trkpt><trkpt lat="44.1296783" lon="11.115385"><ele>854.0</ele><time>2026-04-09T11:04:12.927Z</time></trkpt><trkpt lat="44.1297583" lon="11.11542"><ele>854.0</ele><time>2026-04-09T11:04:13.927Z</time></trkpt><trkpt lat="44.1298267" lon="11.1154883"><ele>854.0000000000001</ele><time>2026-04-09T11:04:14.927Z</time></trkpt><trkpt lat="44.1298783" lon="11.1155767"><ele>854.0</ele><time>2026-04-09T11:04:15.928Z</time></trkpt><trkpt lat="44.1299117" lon="11.1156917"><ele>854.5000000000001</ele><time>2026-04-09T11:04:16.928Z</time></trkpt><trkpt lat="44.12992" lon="11.115835"><ele>855.0</ele><time>2026-04-09T11:04:17.927Z</time></trkpt><trkpt lat="44.1299233" lon="11.1159633"><ele>855.5</ele><time>2026-04-09T11:04:18.927Z</time></trkpt><trkpt lat="44.1299283" lon="11.1160817"><ele>856.0</ele><time>2026-04-09T11:04:19.927Z</time></trkpt><trkpt lat="44.1299267" lon="11.1162"><ele>856.5000000000001</ele><time>2026-04-09T11:04:20.927Z</time></trkpt><trkpt lat="44.1299083" lon="11.1162967"><ele>857.0</ele><time>2026-04-09T11:04:21.927Z</time></trkpt><trkpt lat="44.1298767" lon="11.1163733"><ele>855.1428571428571</ele><time>2026-04-09T11:04:22.927Z</time></trkpt><trkpt lat="44.1298283" lon="11.116435"><ele>853.2857142857142</ele><time>2026-04-09T11:04:23.927Z</time></trkpt><trkpt lat="44.1297617" lon="11.1164817"><ele>851.4285714285714</ele><time>2026-04-09T11:04:24.928Z</time></trkpt><trkpt lat="44.12969" lon="11.11648"><ele>849.5714285714286</ele><time>2026-04-09T11:04:25.927Z</time></trkpt><trkpt lat="44.1296233" lon="11.11645"><ele>847.7142857142858</ele><time>2026-04-09T11:04:26.927Z</time></trkpt><trkpt lat="44.1295567" lon="11.1164167"><ele>845.8571428571429</ele><time>2026-04-09T11:04:27.927Z</time></trkpt><trkpt lat="44.12949" lon="11.1163917"><ele>844.0</ele><time>2026-04-09T11:04:28.927Z</time></trkpt><trkpt lat="44.1294183" lon="11.11638"><ele>843.9999999999999</ele><time>2026-04-09T11:04:29.928Z</time></trkpt><trkpt lat="44.129345" lon="11.1163783"><ele>844.0</ele><time>2026-04-09T11:04:30.927Z</time></trkpt><trkpt lat="44.12927" lon="11.116395"><ele>844.0</ele><time>2026-04-09T11:04:31.927Z</time></trkpt><trkpt lat="44.1291917" lon="11.1164233"><ele>844.0</ele><time>2026-04-09T11:04:32.928Z</time></trkpt><trkpt lat="44.1291183" lon="11.1164617"><ele>843.9999999999999</ele><time>2026-04-09T11:04:33.927Z</time></trkpt><trkpt lat="44.1290467" lon="11.11651"><ele>844.0</ele><time>2026-04-09T11:04:34.927Z</time></trkpt><trkpt lat="44.128985" lon="11.1165683"><ele>843.4285714285714</ele><time>2026-04-09T11:04:35.927Z</time></trkpt><trkpt lat="44.12893" lon="11.116635"><ele>842.8571428571429</ele><time>2026-04-09T11:04:36.927Z</time></trkpt><trkpt lat="44.12888" lon="11.116705"><ele>842.2857142857142</ele><time>2026-04-09T11:04:37.928Z</time></trkpt><trkpt lat="44.1288417" lon="11.1167867"><ele>841.7142857142858</ele><time>2026-04-09T11:04:38.928Z</time></trkpt><trkpt lat="44.12881" lon="11.1168733"><ele>841.1428571428571</ele><time>2026-04-09T11:04:39.927Z</time></trkpt><trkpt lat="44.1287833" lon="11.1169683"><ele>840.5714285714286</ele><time>2026-04-09T11:04:40.927Z</time></trkpt><trkpt lat="44.1287617" lon="11.1170717"><ele>840.0</ele><time>2026-04-09T11:04:41.927Z</time></trkpt><trkpt lat="44.1287483" lon="11.11717"><ele>840.0</ele><time>2026-04-09T11:04:42.927Z</time></trkpt><trkpt lat="44.12874" lon="11.1172683"><ele>840.0</ele><time>2026-04-09T11:04:43.928Z</time></trkpt><trkpt lat="44.12874" lon="11.117365"><ele>840.0</ele><time>2026-04-09T11:04:44.927Z</time></trkpt><trkpt lat="44.12875" lon="11.1175317"><ele>840.0</ele><time>2026-04-09T11:04:46.927Z</time></trkpt><trkpt lat="44.1287733" lon="11.11765"><ele>840.0</ele><time>2026-04-09T11:04:48.927Z</time></trkpt><trkpt lat="44.1287867" lon="11.1177667"><ele>840.0</ele><time>2026-04-09T11:04:51.927Z</time></trkpt><trkpt lat="44.12885" lon="11.1178717"><ele>840.2</ele><time>2026-04-09T11:04:54.927Z</time></trkpt><trkpt lat="44.128935" lon="11.1179467"><ele>840.4</ele><time>2026-04-09T11:04:56.927Z</time></trkpt><trkpt lat="44.1290617" lon="11.1179633"><ele>840.5999999999999</ele><time>2026-04-09T11:04:58.927Z</time></trkpt><trkpt lat="44.129145" lon="11.1179267"><ele>840.8</ele><time>2026-04-09T11:04:59.928Z</time></trkpt><trkpt lat="44.1292367" lon="11.1178717"><ele>841.0</ele><time>2026-04-09T11:05:00.926Z</time></trkpt><trkpt lat="44.1293417" lon="11.1178267"><ele>840.1999999999999</ele><time>2026-04-09T11:05:01.926Z</time></trkpt><trkpt lat="44.1294433" lon="11.117805"><ele>839.4</ele><time>2026-04-09T11:05:02.926Z</time></trkpt><trkpt lat="44.1295383" lon="11.117825"><ele>838.6</ele><time>2026-04-09T11:05:03.926Z</time></trkpt><trkpt lat="44.1296467" lon="11.11788"><ele>837.8</ele><time>2026-04-09T11:05:04.926Z</time></trkpt><trkpt lat="44.12975" lon="11.1179533"><ele>837.0</ele><time>2026-04-09T11:05:05.926Z</time></trkpt><trkpt lat="44.1298433" lon="11.1180417"><ele>835.0</ele><time>2026-04-09T11:05:06.926Z</time></trkpt><trkpt lat="44.1299383" lon="11.1181117"><ele>833.0</ele><time>2026-04-09T11:05:07.926Z</time></trkpt><trkpt lat="44.1300467" lon="11.1181617"><ele>831.0</ele><time>2026-04-09T11:05:08.926Z</time></trkpt><trkpt lat="44.1301717" lon="11.1181683"><ele>829.0</ele><time>2026-04-09T11:05:09.926Z</time></trkpt><trkpt lat="44.1303083" lon="11.1181433"><ele>829.0</ele><time>2026-04-09T11:05:10.926Z</time></trkpt><trkpt lat="44.1304517" lon="11.1180833"><ele>829.0</ele><time>2026-04-09T11:05:11.926Z</time></trkpt><trkpt lat="44.1305983" lon="11.1179967"><ele>829.0</ele><time>2026-04-09T11:05:12.926Z</time></trkpt><trkpt lat="44.13075" lon="11.1178917"><ele>829.6666666666666</ele><time>2026-04-09T11:05:13.926Z</time></trkpt><trkpt lat="44.13089" lon="11.11779"><ele>830.3333333333333</ele><time>2026-04-09T11:05:14.926Z</time></trkpt><trkpt lat="44.13102" lon="11.1176717"><ele>831.0</ele><time>2026-04-09T11:05:15.926Z</time></trkpt><trkpt lat="44.1311567" lon="11.1175467"><ele>831.0</ele><time>2026-04-09T11:05:16.926Z</time></trkpt><trkpt lat="44.131275" lon="11.1174117"><ele>831.0</ele><time>2026-04-09T11:05:17.926Z</time></trkpt><trkpt lat="44.13138" lon="11.117275"><ele>831.0</ele><time>2026-04-09T11:05:18.926Z</time></trkpt><trkpt lat="44.1314833" lon="11.1171567"><ele>831.0</ele><time>2026-04-09T11:05:19.926Z</time></trkpt><trkpt lat="44.1315717" lon="11.1170733"><ele>827.75</ele><time>2026-04-09T11:05:20.926Z</time></trkpt><trkpt lat="44.13168" lon="11.1170267"><ele>824.5</ele><time>2026-04-09T11:05:21.926Z</time></trkpt><trkpt lat="44.1317933" lon="11.11701"><ele>821.25</ele><time>2026-04-09T11:05:22.926Z</time></trkpt><trkpt lat="44.1319117" lon="11.1169933"><ele>818.0</ele><time>2026-04-09T11:05:23.926Z</time></trkpt><trkpt lat="44.13203" lon="11.1169967"><ele>818.0</ele><time>2026-04-09T11:05:24.927Z</time></trkpt><trkpt lat="44.1321433" lon="11.11702"><ele>818.0</ele><time>2026-04-09T11:05:25.927Z</time></trkpt><trkpt lat="44.1322617" lon="11.1170933"><ele>818.0</ele><time>2026-04-09T11:05:26.926Z</time></trkpt><trkpt lat="44.1323933" lon="11.1172"><ele>818.0</ele><time>2026-04-09T11:05:27.927Z</time></trkpt><trkpt lat="44.1325283" lon="11.117315"><ele>822.6666666666667</ele><time>2026-04-09T11:05:28.926Z</time></trkpt><trkpt lat="44.1326467" lon="11.1174267"><ele>827.3333333333333</ele><time>2026-04-09T11:05:29.926Z</time></trkpt><trkpt lat="44.1327917" lon="11.1175167"><ele>832.0</ele><time>2026-04-09T11:05:30.926Z</time></trkpt><trkpt lat="44.1329333" lon="11.1175967"><ele>832.0</ele><time>2026-04-09T11:05:31.926Z</time></trkpt><trkpt lat="44.1330733" lon="11.1176783"><ele>832.0</ele><time>2026-04-09T11:05:32.926Z</time></trkpt><trkpt lat="44.13322" lon="11.1177883"><ele>832.0</ele><time>2026-04-09T11:05:33.927Z</time></trkpt><trkpt lat="44.1333567" lon="11.1179167"><ele>833.6666666666666</ele><time>2026-04-09T11:05:34.926Z</time></trkpt><trkpt lat="44.13348" lon="11.1180667"><ele>835.3333333333333</ele><time>2026-04-09T11:05:35.926Z</time></trkpt><trkpt lat="44.1335983" lon="11.1182217"><ele>837.0</ele><time>2026-04-09T11:05:36.926Z</time></trkpt><trkpt lat="44.1337133" lon="11.118375"><ele>837.0</ele><time>2026-04-09T11:05:37.926Z</time></trkpt><trkpt lat="44.13384" lon="11.1185233"><ele>837.0</ele><time>2026-04-09T11:05:38.926Z</time></trkpt><trkpt lat="44.133985" lon="11.1186617"><ele>837.0</ele><time>2026-04-09T11:05:39.926Z</time></trkpt><trkpt lat="44.1341383" lon="11.11878"><ele>836.5</ele><time>2026-04-09T11:05:40.927Z</time></trkpt><trkpt lat="44.134295" lon="11.1188683"><ele>836.0</ele><time>2026-04-09T11:05:41.926Z</time></trkpt><trkpt lat="44.134415" lon="11.118965"><ele>835.5</ele><time>2026-04-09T11:05:42.926Z</time></trkpt><trkpt lat="44.13452" lon="11.1190567"><ele>835.0</ele><time>2026-04-09T11:05:43.926Z</time></trkpt><trkpt lat="44.1346167" lon="11.1191717"><ele>835.0</ele><time>2026-04-09T11:05:44.926Z</time></trkpt><trkpt lat="44.1347017" lon="11.11927"><ele>835.0</ele><time>2026-04-09T11:05:45.926Z</time></trkpt><trkpt lat="44.1347933" lon="11.119345"><ele>835.0</ele><time>2026-04-09T11:05:46.926Z</time></trkpt><trkpt lat="44.1349017" lon="11.1194"><ele>835.0</ele><time>2026-04-09T11:05:47.926Z</time></trkpt><trkpt lat="44.1350167" lon="11.1194367"><ele>827.0</ele><time>2026-04-09T11:05:48.927Z</time></trkpt><trkpt lat="44.1351383" lon="11.119445"><ele>819.0</ele><time>2026-04-09T11:05:49.926Z</time></trkpt><trkpt lat="44.1352733" lon="11.1194483"><ele>811.0</ele><time>2026-04-09T11:05:50.926Z</time></trkpt><trkpt lat="44.135405" lon="11.1194517"><ele>803.0</ele><time>2026-04-09T11:05:51.926Z</time></trkpt><trkpt lat="44.1355467" lon="11.1194533"><ele>803.0</ele><time>2026-04-09T11:05:52.926Z</time></trkpt><trkpt lat="44.13569" lon="11.119495"><ele>803.0</ele><time>2026-04-09T11:05:53.926Z</time></trkpt><trkpt lat="44.1358367" lon="11.1195283"><ele>803.0</ele><time>2026-04-09T11:05:54.927Z</time></trkpt><trkpt lat="44.135975" lon="11.1195283"><ele>803.0</ele><time>2026-04-09T11:05:55.926Z</time></trkpt><trkpt lat="44.13611" lon="11.1195117"><ele>801.0</ele><time>2026-04-09T11:05:56.926Z</time></trkpt><trkpt lat="44.1362267" lon="11.119505"><ele>799.0</ele><time>2026-04-09T11:05:57.926Z</time></trkpt><trkpt lat="44.1363333" lon="11.1195283"><ele>797.0</ele><time>2026-04-09T11:05:58.926Z</time></trkpt><trkpt lat="44.1364217" lon="11.1196033"><ele>795.0</ele><time>2026-04-09T11:05:59.926Z</time></trkpt><trkpt lat="44.1364983" lon="11.1197283"><ele>793.0</ele><time>2026-04-09T11:06:00.926Z</time></trkpt><trkpt lat="44.1365633" lon="11.1198767"><ele>795.75</ele><time>2026-04-09T11:06:01.926Z</time></trkpt><trkpt lat="44.1366417" lon="11.1200267"><ele>798.5</ele><time>2026-04-09T11:06:02.926Z</time></trkpt><trkpt lat="44.13674" lon="11.1201617"><ele>801.25</ele><time>2026-04-09T11:06:03.927Z</time></trkpt><trkpt lat="44.13685" lon="11.1202817"><ele>804.0</ele><time>2026-04-09T11:06:04.927Z</time></trkpt><trkpt lat="44.1369733" lon="11.1203933"><ele>804.0</ele><time>2026-04-09T11:06:05.927Z</time></trkpt><trkpt lat="44.137115" lon="11.1204817"><ele>804.0</ele><time>2026-04-09T11:06:06.926Z</time></trkpt><trkpt lat="44.137245" lon="11.1205733"><ele>804.0</ele><time>2026-04-09T11:06:07.926Z</time></trkpt><trkpt lat="44.1373683" lon="11.1206767"><ele>804.0</ele><time>2026-04-09T11:06:08.926Z</time></trkpt><trkpt lat="44.1374733" lon="11.1208033"><ele>800.6666666666667</ele><time>2026-04-09T11:06:09.926Z</time></trkpt><trkpt lat="44.1375817" lon="11.1209467"><ele>797.3333333333334</ele><time>2026-04-09T11:06:10.927Z</time></trkpt><trkpt lat="44.1376767" lon="11.1211133"><ele>794.0</ele><time>2026-04-09T11:06:11.927Z</time></trkpt><trkpt lat="44.13777" lon="11.12131"><ele>794.0</ele><time>2026-04-09T11:06:12.926Z</time></trkpt><trkpt lat="44.1378533" lon="11.121525"><ele>794.0</ele><time>2026-04-09T11:06:13.926Z</time></trkpt><trkpt lat="44.1379267" lon="11.1217433"><ele>794.0</ele><time>2026-04-09T11:06:14.926Z</time></trkpt><trkpt lat="44.1380017" lon="11.1219533"><ele>795.0</ele><time>2026-04-09T11:06:15.926Z</time></trkpt><trkpt lat="44.1380933" lon="11.122145"><ele>796.0</ele><time>2026-04-09T11:06:16.926Z</time></trkpt><trkpt lat="44.1381733" lon="11.122315"><ele>797.0</ele><time>2026-04-09T11:06:17.926Z</time></trkpt><trkpt lat="44.1382867" lon="11.1224383"><ele>797.0</ele><time>2026-04-09T11:06:18.927Z</time></trkpt><trkpt lat="44.138395" lon="11.1225217"><ele>797.0</ele><time>2026-04-09T11:06:19.926Z</time></trkpt><trkpt lat="44.1385217" lon="11.1225767"><ele>797.0</ele><time>2026-04-09T11:06:20.926Z</time></trkpt><trkpt lat="44.13866" lon="11.1226083"><ele>797.0</ele><time>2026-04-09T11:06:21.926Z</time></trkpt><trkpt lat="44.1388183" lon="11.12265"><ele>797.0</ele><time>2026-04-09T11:06:22.927Z</time></trkpt><trkpt lat="44.1389767" lon="11.1227067"><ele>797.0</ele><time>2026-04-09T11:06:23.926Z</time></trkpt><trkpt lat="44.13913" lon="11.1227717"><ele>797.0</ele><time>2026-04-09T11:06:24.926Z</time></trkpt><trkpt lat="44.1392917" lon="11.12286"><ele>789.6666666666667</ele><time>2026-04-09T11:06:25.926Z</time></trkpt><trkpt lat="44.1394517" lon="11.1229567"><ele>782.3333333333333</ele><time>2026-04-09T11:06:26.926Z</time></trkpt><trkpt lat="44.1396017" lon="11.1230467"><ele>775.0</ele><time>2026-04-09T11:06:27.926Z</time></trkpt><trkpt lat="44.1397483" lon="11.1231333"><ele>775.0</ele><time>2026-04-09T11:06:28.926Z</time></trkpt><trkpt lat="44.1398817" lon="11.123225"><ele>775.0</ele><time>2026-04-09T11:06:29.926Z</time></trkpt><trkpt lat="44.1400017" lon="11.1233167"><ele>775.0</ele><time>2026-04-09T11:06:30.927Z</time></trkpt><trkpt lat="44.140105" lon="11.1234333"><ele>775.0</ele><time>2026-04-09T11:06:31.926Z</time></trkpt><trkpt lat="44.1402033" lon="11.1235667"><ele>776.25</ele><time>2026-04-09T11:06:32.926Z</time></trkpt><trkpt lat="44.1403017" lon="11.12373"><ele>777.5</ele><time>2026-04-09T11:06:33.926Z</time></trkpt><trkpt lat="44.1403783" lon="11.1239067"><ele>778.75</ele><time>2026-04-09T11:06:34.926Z</time></trkpt><trkpt lat="44.140445" lon="11.1240733"><ele>780.0</ele><time>2026-04-09T11:06:35.926Z</time></trkpt><trkpt lat="44.1405217" lon="11.12422"><ele>777.0</ele><time>2026-04-09T11:06:36.927Z</time></trkpt><trkpt lat="44.1406217" lon="11.12433"><ele>774.0</ele><time>2026-04-09T11:06:37.926Z</time></trkpt><trkpt lat="44.1407417" lon="11.1244183"><ele>771.0</ele><time>2026-04-09T11:06:38.926Z</time></trkpt><trkpt lat="44.1408633" lon="11.124495"><ele>768.0</ele><time>2026-04-09T11:06:39.926Z</time></trkpt><trkpt lat="44.1409717" lon="11.12458"><ele>768.0</ele><time>2026-04-09T11:06:40.927Z</time></trkpt><trkpt lat="44.1410533" lon="11.124685"><ele>768.0</ele><time>2026-04-09T11:06:41.926Z</time></trkpt><trkpt lat="44.141105" lon="11.12482"><ele>768.0</ele><time>2026-04-09T11:06:42.927Z</time></trkpt><trkpt lat="44.1411267" lon="11.1249867"><ele>768.0</ele><time>2026-04-09T11:06:43.926Z</time></trkpt><trkpt lat="44.14115" lon="11.1251683"><ele>772.75</ele><time>2026-04-09T11:06:44.926Z</time></trkpt><trkpt lat="44.1411867" lon="11.1253583"><ele>777.5</ele><time>2026-04-09T11:06:45.926Z</time></trkpt><trkpt lat="44.1412317" lon="11.12555"><ele>782.25</ele><time>2026-04-09T11:06:46.926Z</time></trkpt><trkpt lat="44.141295" lon="11.1257233"><ele>787.0</ele><time>2026-04-09T11:06:47.926Z</time></trkpt><trkpt lat="44.1413833" lon="11.1258833"><ele>793.0</ele><time>2026-04-09T11:06:48.926Z</time></trkpt><trkpt lat="44.1414933" lon="11.1260233"><ele>799.0</ele><time>2026-04-09T11:06:49.926Z</time></trkpt><trkpt lat="44.141615" lon="11.1261433"><ele>805.0</ele><time>2026-04-09T11:06:50.926Z</time></trkpt><trkpt lat="44.141735" lon="11.12625"><ele>811.0</ele><time>2026-04-09T11:06:51.926Z</time></trkpt><trkpt lat="44.141845" lon="11.126355"><ele>804.25</ele><time>2026-04-09T11:06:52.926Z</time></trkpt><trkpt lat="44.14193" lon="11.1264683"><ele>797.5</ele><time>2026-04-09T11:06:53.926Z</time></trkpt><trkpt lat="44.142" lon="11.1266017"><ele>790.75</ele><time>2026-04-09T11:06:54.926Z</time></trkpt><trkpt lat="44.14205" lon="11.126755"><ele>784.0</ele><time>2026-04-09T11:06:55.926Z</time></trkpt><trkpt lat="44.1420867" lon="11.126925"><ele>784.0</ele><time>2026-04-09T11:06:56.927Z</time></trkpt><trkpt lat="44.1421283" lon="11.127085"><ele>784.0</ele><time>2026-04-09T11:06:57.926Z</time></trkpt><trkpt lat="44.1421867" lon="11.127235"><ele>784.0</ele><time>2026-04-09T11:06:58.926Z</time></trkpt><trkpt lat="44.1422533" lon="11.1273783"><ele>784.0</ele><time>2026-04-09T11:06:59.926Z</time></trkpt><trkpt lat="44.1423317" lon="11.1274933"><ele>779.25</ele><time>2026-04-09T11:07:00.927Z</time></trkpt><trkpt lat="44.1424317" lon="11.12759"><ele>774.5</ele><time>2026-04-09T11:07:01.926Z</time></trkpt><trkpt lat="44.1425533" lon="11.127665"><ele>769.75</ele><time>2026-04-09T11:07:02.926Z</time></trkpt><trkpt lat="44.1426733" lon="11.1277517"><ele>765.0</ele><time>2026-04-09T11:07:03.926Z</time></trkpt><trkpt lat="44.1427833" lon="11.1278433"><ele>765.0</ele><time>2026-04-09T11:07:04.926Z</time></trkpt><trkpt lat="44.1428883" lon="11.1279667"><ele>765.0</ele><time>2026-04-09T11:07:05.926Z</time></trkpt><trkpt lat="44.1429717" lon="11.12812"><ele>765.0</ele><time>2026-04-09T11:07:06.926Z</time></trkpt><trkpt lat="44.143045" lon="11.1282967"><ele>765.0</ele><time>2026-04-09T11:07:07.926Z</time></trkpt><trkpt lat="44.1431083" lon="11.1284967"><ele>760.6666666666666</ele><time>2026-04-09T11:07:08.926Z</time></trkpt><trkpt lat="44.1431817" lon="11.1286883"><ele>756.3333333333333</ele><time>2026-04-09T11:07:09.926Z</time></trkpt><trkpt lat="44.143275" lon="11.1288667"><ele>752.0</ele><time>2026-04-09T11:07:10.926Z</time></trkpt><trkpt lat="44.1433683" lon="11.129015"><ele>756.0</ele><time>2026-04-09T11:07:11.926Z</time></trkpt><trkpt lat="44.143455" lon="11.1291417"><ele>760.0</ele><time>2026-04-09T11:07:12.926Z</time></trkpt><trkpt lat="44.14353" lon="11.12927"><ele>764.0</ele><time>2026-04-09T11:07:13.926Z</time></trkpt><trkpt lat="44.1435833" lon="11.1294033"><ele>768.0</ele><time>2026-04-09T11:07:14.927Z</time></trkpt><trkpt lat="44.1436183" lon="11.12956"><ele>768.0</ele><time>2026-04-09T11:07:15.926Z</time></trkpt><trkpt lat="44.1436383" lon="11.1297467"><ele>768.0</ele><time>2026-04-09T11:07:16.926Z</time></trkpt><trkpt lat="44.14366" lon="11.1299433"><ele>768.0</ele><time>2026-04-09T11:07:17.926Z</time></trkpt><trkpt lat="44.1436833" lon="11.1301417"><ele>768.0</ele><time>2026-04-09T11:07:18.926Z</time></trkpt><trkpt lat="44.14371" lon="11.1303317"><ele>770.0</ele><time>2026-04-09T11:07:19.926Z</time></trkpt><trkpt lat="44.14373" lon="11.130525"><ele>772.0</ele><time>2026-04-09T11:07:20.926Z</time></trkpt><trkpt lat="44.1437383" lon="11.13071"><ele>774.0</ele><time>2026-04-09T11:07:21.927Z</time></trkpt><trkpt lat="44.14374" lon="11.13086"><ele>776.0</ele><time>2026-04-09T11:07:22.926Z</time></trkpt><trkpt lat="44.1437633" lon="11.1310083"><ele>777.25</ele><time>2026-04-09T11:07:23.926Z</time></trkpt><trkpt lat="44.14382" lon="11.1311467"><ele>778.5</ele><time>2026-04-09T11:07:24.927Z</time></trkpt><trkpt lat="44.1438917" lon="11.1312883"><ele>779.75</ele><time>2026-04-09T11:07:25.927Z</time></trkpt><trkpt lat="44.1439567" lon="11.1314467"><ele>781.0</ele><time>2026-04-09T11:07:26.926Z</time></trkpt><trkpt lat="44.14402" lon="11.1315983"><ele>775.25</ele><time>2026-04-09T11:07:27.926Z</time></trkpt><trkpt lat="44.144095" lon="11.1317267"><ele>769.5</ele><time>2026-04-09T11:07:28.927Z</time></trkpt><trkpt lat="44.1442033" lon="11.13183"><ele>763.75</ele><time>2026-04-09T11:07:29.926Z</time></trkpt><trkpt lat="44.1443117" lon="11.1319283"><ele>758.0</ele><time>2026-04-09T11:07:30.926Z</time></trkpt><trkpt lat="44.1444083" lon="11.1320433"><ele>758.0</ele><time>2026-04-09T11:07:31.926Z</time></trkpt><trkpt lat="44.144475" lon="11.1321717"><ele>758.0</ele><time>2026-04-09T11:07:32.926Z</time></trkpt><trkpt lat="44.1445033" lon="11.1323083"><ele>758.0</ele><time>2026-04-09T11:07:33.926Z</time></trkpt><trkpt lat="44.1445083" lon="11.13247"><ele>758.0</ele><time>2026-04-09T11:07:34.926Z</time></trkpt><trkpt lat="44.1444983" lon="11.1326417"><ele>761.75</ele><time>2026-04-09T11:07:35.927Z</time></trkpt><trkpt lat="44.1444867" lon="11.1328217"><ele>765.5</ele><time>2026-04-09T11:07:36.926Z</time></trkpt><trkpt lat="44.1444867" lon="11.1330083"><ele>769.25</ele><time>2026-04-09T11:07:37.926Z</time></trkpt><trkpt lat="44.14451" lon="11.1332067"><ele>773.0</ele><time>2026-04-09T11:07:38.927Z</time></trkpt><trkpt lat="44.1445667" lon="11.1334083"><ele>774.0</ele><time>2026-04-09T11:07:39.926Z</time></trkpt><trkpt lat="44.1446267" lon="11.1336183"><ele>775.0</ele><time>2026-04-09T11:07:40.926Z</time></trkpt><trkpt lat="44.144695" lon="11.1338117"><ele>776.0</ele><time>2026-04-09T11:07:41.926Z</time></trkpt><trkpt lat="44.14475" lon="11.1339917"><ele>777.5</ele><time>2026-04-09T11:07:42.926Z</time></trkpt><trkpt lat="44.1447933" lon="11.13416"><ele>779.0</ele><time>2026-04-09T11:07:43.926Z</time></trkpt><trkpt lat="44.144815" lon="11.1343117"><ele>780.5</ele><time>2026-04-09T11:07:44.926Z</time></trkpt><trkpt lat="44.1448083" lon="11.1344667"><ele>782.0</ele><time>2026-04-09T11:07:45.926Z</time></trkpt><trkpt lat="44.1447733" lon="11.1346267"><ele>782.0</ele><time>2026-04-09T11:07:46.926Z</time></trkpt><trkpt lat="44.1447283" lon="11.1348033"><ele>782.0</ele><time>2026-04-09T11:07:47.926Z</time></trkpt><trkpt lat="44.1446783" lon="11.1349917"><ele>782.0</ele><time>2026-04-09T11:07:48.926Z</time></trkpt><trkpt lat="44.144655" lon="11.1351983"><ele>782.0</ele><time>2026-04-09T11:07:49.926Z</time></trkpt><trkpt lat="44.1446417" lon="11.135405"><ele>782.0</ele><time>2026-04-09T11:07:50.927Z</time></trkpt><trkpt lat="44.1446267" lon="11.1356167"><ele>782.0</ele><time>2026-04-09T11:07:51.926Z</time></trkpt><trkpt lat="44.144615" lon="11.135825"><ele>782.0</ele><time>2026-04-09T11:07:52.926Z</time></trkpt><trkpt lat="44.1446233" lon="11.136035"><ele>782.0</ele><time>2026-04-09T11:07:53.926Z</time></trkpt><trkpt lat="44.14464" lon="11.1362467"><ele>782.0</ele><time>2026-04-09T11:07:54.926Z</time></trkpt><trkpt lat="44.144665" lon="11.1364517"><ele>782.0</ele><time>2026-04-09T11:07:55.926Z</time></trkpt><trkpt lat="44.1446867" lon="11.1366433"><ele>782.0</ele><time>2026-04-09T11:07:56.926Z</time></trkpt><trkpt lat="44.144715" lon="11.136835"><ele>781.75</ele><time>2026-04-09T11:07:57.926Z</time></trkpt><trkpt lat="44.1447333" lon="11.137035"><ele>781.5</ele><time>2026-04-09T11:07:58.926Z</time></trkpt><trkpt lat="44.144745" lon="11.13723"><ele>781.25</ele><time>2026-04-09T11:07:59.926Z</time></trkpt><trkpt lat="44.1447567" lon="11.1374283"><ele>781.0</ele><time>2026-04-09T11:08:00.926Z</time></trkpt><trkpt lat="44.144775" lon="11.1376117"><ele>781.0</ele><time>2026-04-09T11:08:01.926Z</time></trkpt><trkpt lat="44.1448167" lon="11.1377883"><ele>781.0</ele><time>2026-04-09T11:08:02.926Z</time></trkpt><trkpt lat="44.1448817" lon="11.1379683"><ele>781.0</ele><time>2026-04-09T11:08:03.926Z</time></trkpt><trkpt lat="44.14495" lon="11.1381317"><ele>781.0</ele><time>2026-04-09T11:08:04.926Z</time></trkpt><trkpt lat="44.1450017" lon="11.138295"><ele>770.25</ele><time>2026-04-09T11:08:05.926Z</time></trkpt><trkpt lat="44.1450467" lon="11.1384667"><ele>759.5</ele><time>2026-04-09T11:08:06.927Z</time></trkpt><trkpt lat="44.1450667" lon="11.1386567"><ele>748.75</ele><time>2026-04-09T11:08:07.927Z</time></trkpt><trkpt lat="44.1450633" lon="11.1388617"><ele>738.0</ele><time>2026-04-09T11:08:08.926Z</time></trkpt><trkpt lat="44.1450467" lon="11.1390667"><ele>738.0</ele><time>2026-04-09T11:08:09.926Z</time></trkpt><trkpt lat="44.14502" lon="11.1392683"><ele>738.0</ele><time>2026-04-09T11:08:10.927Z</time></trkpt><trkpt lat="44.1449967" lon="11.13946"><ele>738.0</ele><time>2026-04-09T11:08:11.927Z</time></trkpt><trkpt lat="44.1449683" lon="11.1396433"><ele>738.0</ele><time>2026-04-09T11:08:12.926Z</time></trkpt><trkpt lat="44.1449417" lon="11.1398167"><ele>737.0</ele><time>2026-04-09T11:08:13.926Z</time></trkpt><trkpt lat="44.1449417" lon="11.1399783"><ele>736.0</ele><time>2026-04-09T11:08:14.926Z</time></trkpt><trkpt lat="44.1449633" lon="11.1401333"><ele>735.0</ele><time>2026-04-09T11:08:15.926Z</time></trkpt><trkpt lat="44.1449817" lon="11.1402817"><ele>734.0</ele><time>2026-04-09T11:08:16.926Z</time></trkpt><trkpt lat="44.144995" lon="11.1404167"><ele>733.0</ele><time>2026-04-09T11:08:17.926Z</time></trkpt><trkpt lat="44.144985" lon="11.14054"><ele>733.0</ele><time>2026-04-09T11:08:18.926Z</time></trkpt><trkpt lat="44.14495" lon="11.140655"><ele>733.0</ele><time>2026-04-09T11:08:19.927Z</time></trkpt><trkpt lat="44.1448983" lon="11.140755"><ele>733.0</ele><time>2026-04-09T11:08:20.926Z</time></trkpt><trkpt lat="44.144805" lon="11.1408233"><ele>733.0</ele><time>2026-04-09T11:08:21.927Z</time></trkpt><trkpt lat="44.1446983" lon="11.1409"><ele>733.0</ele><time>2026-04-09T11:08:22.926Z</time></trkpt><trkpt lat="44.1445867" lon="11.140995"><ele>737.25</ele><time>2026-04-09T11:08:23.926Z</time></trkpt><trkpt lat="44.14447" lon="11.1411167"><ele>741.5</ele><time>2026-04-09T11:08:24.926Z</time></trkpt><trkpt lat="44.1443567" lon="11.1412367"><ele>745.75</ele><time>2026-04-09T11:08:25.926Z</time></trkpt><trkpt lat="44.1442467" lon="11.141365"><ele>750.0</ele><time>2026-04-09T11:08:26.926Z</time></trkpt><trkpt lat="44.1441517" lon="11.1414717"><ele>754.75</ele><time>2026-04-09T11:08:27.926Z</time></trkpt><trkpt lat="44.1440667" lon="11.141575"><ele>759.5</ele><time>2026-04-09T11:08:28.927Z</time></trkpt><trkpt lat="44.143985" lon="11.1417"><ele>764.25</ele><time>2026-04-09T11:08:29.926Z</time></trkpt><trkpt lat="44.1439117" lon="11.1418617"><ele>769.0</ele><time>2026-04-09T11:08:30.926Z</time></trkpt><trkpt lat="44.1438633" lon="11.1420317"><ele>769.0</ele><time>2026-04-09T11:08:31.926Z</time></trkpt><trkpt lat="44.1438217" lon="11.1422033"><ele>769.0</ele><time>2026-04-09T11:08:32.926Z</time></trkpt><trkpt lat="44.143795" lon="11.14235"><ele>769.0</ele><time>2026-04-09T11:08:33.926Z</time></trkpt><trkpt lat="44.14379" lon="11.1425367"><ele>769.0</ele><time>2026-04-09T11:08:34.927Z</time></trkpt><trkpt lat="44.1437867" lon="11.1427233"><ele>765.25</ele><time>2026-04-09T11:08:35.926Z</time></trkpt><trkpt lat="44.1438017" lon="11.1429117"><ele>761.5</ele><time>2026-04-09T11:08:36.926Z</time></trkpt><trkpt lat="44.1438167" lon="11.14309"><ele>757.75</ele><time>2026-04-09T11:08:37.926Z</time></trkpt><trkpt lat="44.1438283" lon="11.143265"><ele>754.0</ele><time>2026-04-09T11:08:38.926Z</time></trkpt><trkpt lat="44.1438367" lon="11.143445"><ele>751.5</ele><time>2026-04-09T11:08:39.926Z</time></trkpt><trkpt lat="44.1438433" lon="11.1436067"><ele>749.0</ele><time>2026-04-09T11:08:40.926Z</time></trkpt><trkpt lat="44.14381" lon="11.1437717"><ele>746.5</ele><time>2026-04-09T11:08:41.926Z</time></trkpt><trkpt lat="44.14376" lon="11.1439467"><ele>744.0</ele><time>2026-04-09T11:08:42.926Z</time></trkpt><trkpt lat="44.1437183" lon="11.1441317"><ele>741.75</ele><time>2026-04-09T11:08:43.926Z</time></trkpt><trkpt lat="44.14368" lon="11.1443233"><ele>739.5</ele><time>2026-04-09T11:08:44.926Z</time></trkpt><trkpt lat="44.143645" lon="11.1445183"><ele>737.25</ele><time>2026-04-09T11:08:45.926Z</time></trkpt><trkpt lat="44.1435967" lon="11.144715"><ele>735.0</ele><time>2026-04-09T11:08:46.926Z</time></trkpt><trkpt lat="44.1435483" lon="11.1449167"><ele>733.0</ele><time>2026-04-09T11:08:47.926Z</time></trkpt><trkpt lat="44.14349" lon="11.14511"><ele>731.0</ele><time>2026-04-09T11:08:48.926Z</time></trkpt><trkpt lat="44.14343" lon="11.1452933"><ele>729.0</ele><time>2026-04-09T11:08:49.926Z</time></trkpt><trkpt lat="44.1433667" lon="11.1454733"><ele>727.0</ele><time>2026-04-09T11:08:50.927Z</time></trkpt><trkpt lat="44.14331" lon="11.14564"><ele>724.0</ele><time>2026-04-09T11:08:51.926Z</time></trkpt><trkpt lat="44.143255" lon="11.1458017"><ele>721.0</ele><time>2026-04-09T11:08:52.926Z</time></trkpt><trkpt lat="44.1432117" lon="11.1459583"><ele>718.0</ele><time>2026-04-09T11:08:53.926Z</time></trkpt><trkpt lat="44.1431817" lon="11.1461283"><ele>715.0</ele><time>2026-04-09T11:08:54.927Z</time></trkpt><trkpt lat="44.1431633" lon="11.146305"><ele>721.25</ele><time>2026-04-09T11:08:55.926Z</time></trkpt><trkpt lat="44.1431383" lon="11.14647"><ele>727.5</ele><time>2026-04-09T11:08:56.927Z</time></trkpt><trkpt lat="44.1431" lon="11.1466383"><ele>733.75</ele><time>2026-04-09T11:08:57.926Z</time></trkpt><trkpt lat="44.1430683" lon="11.1467883"><ele>740.0</ele><time>2026-04-09T11:08:58.926Z</time></trkpt><trkpt lat="44.1430283" lon="11.1469317"><ele>740.0</ele><time>2026-04-09T11:08:59.926Z</time></trkpt><trkpt lat="44.1429833" lon="11.1470717"><ele>740.0</ele><time>2026-04-09T11:09:00.926Z</time></trkpt><trkpt lat="44.1429317" lon="11.1472"><ele>740.0</ele><time>2026-04-09T11:09:01.926Z</time></trkpt><trkpt lat="44.14287" lon="11.1473233"><ele>740.0</ele><time>2026-04-09T11:09:02.926Z</time></trkpt><trkpt lat="44.1427783" lon="11.14742"><ele>740.0</ele><time>2026-04-09T11:09:03.926Z</time></trkpt><trkpt lat="44.1426717" lon="11.1474983"><ele>743.0</ele><time>2026-04-09T11:09:04.926Z</time></trkpt><trkpt lat="44.14255" lon="11.1475533"><ele>746.0</ele><time>2026-04-09T11:09:05.926Z</time></trkpt><trkpt lat="44.1424283" lon="11.1476083"><ele>749.0</ele><time>2026-04-09T11:09:06.926Z</time></trkpt><trkpt lat="44.142305" lon="11.1476617"><ele>752.0</ele><time>2026-04-09T11:09:07.926Z</time></trkpt><trkpt lat="44.1421917" lon="11.147745"><ele>752.0</ele><time>2026-04-09T11:09:08.926Z</time></trkpt><trkpt lat="44.1420933" lon="11.1478483"><ele>752.0</ele><time>2026-04-09T11:09:09.926Z</time></trkpt><trkpt lat="44.1419967" lon="11.147965"><ele>752.0</ele><time>2026-04-09T11:09:10.927Z</time></trkpt><trkpt lat="44.1419067" lon="11.1480783"><ele>752.0</ele><time>2026-04-09T11:09:11.926Z</time></trkpt><trkpt lat="44.141825" lon="11.1481917"><ele>746.4000000000001</ele><time>2026-04-09T11:09:12.927Z</time></trkpt><trkpt lat="44.1417533" lon="11.1483167"><ele>740.8000000000001</ele><time>2026-04-09T11:09:13.926Z</time></trkpt><trkpt lat="44.1417217" lon="11.1484717"><ele>735.2</ele><time>2026-04-09T11:09:14.926Z</time></trkpt><trkpt lat="44.141735" lon="11.148595"><ele>729.6</ele><time>2026-04-09T11:09:15.926Z</time></trkpt><trkpt lat="44.14178" lon="11.148705"><ele>724.0</ele><time>2026-04-09T11:09:16.926Z</time></trkpt><trkpt lat="44.141835" lon="11.1487917"><ele>724.0</ele><time>2026-04-09T11:09:17.926Z</time></trkpt><trkpt lat="44.1419133" lon="11.1488383"><ele>724.0</ele><time>2026-04-09T11:09:18.926Z</time></trkpt><trkpt lat="44.142015" lon="11.148845"><ele>724.0</ele><time>2026-04-09T11:09:19.926Z</time></trkpt><trkpt lat="44.1421233" lon="11.1488267"><ele>724.0</ele><time>2026-04-09T11:09:20.926Z</time></trkpt><trkpt lat="44.142235" lon="11.1488133"><ele>724.0</ele><time>2026-04-09T11:09:21.927Z</time></trkpt><trkpt lat="44.1423367" lon="11.148805"><ele>719.3333333333334</ele><time>2026-04-09T11:09:22.926Z</time></trkpt><trkpt lat="44.1424183" lon="11.1488483"><ele>714.6666666666667</ele><time>2026-04-09T11:09:23.926Z</time></trkpt><trkpt lat="44.1424817" lon="11.148925"><ele>710.0</ele><time>2026-04-09T11:09:24.926Z</time></trkpt><trkpt lat="44.1425167" lon="11.149015"><ele>705.3333333333334</ele><time>2026-04-09T11:09:25.927Z</time></trkpt><trkpt lat="44.1425267" lon="11.149125"><ele>700.6666666666666</ele><time>2026-04-09T11:09:26.926Z</time></trkpt><trkpt lat="44.1425333" lon="11.1492217"><ele>696.0</ele><time>2026-04-09T11:09:27.926Z</time></trkpt><trkpt lat="44.1425333" lon="11.1493217"><ele>696.0</ele><time>2026-04-09T11:09:28.926Z</time></trkpt><trkpt lat="44.1425083" lon="11.14944"><ele>696.0</ele><time>2026-04-09T11:09:29.926Z</time></trkpt><trkpt lat="44.1424683" lon="11.1495767"><ele>696.0</ele><time>2026-04-09T11:09:30.926Z</time></trkpt><trkpt lat="44.142425" lon="11.14971"><ele>696.0</ele><time>2026-04-09T11:09:31.926Z</time></trkpt><trkpt lat="44.1423783" lon="11.14985"><ele>696.0</ele><time>2026-04-09T11:09:32.926Z</time></trkpt><trkpt lat="44.142325" lon="11.1499833"><ele>701.4</ele><time>2026-04-09T11:09:33.926Z</time></trkpt><trkpt lat="44.1422733" lon="11.1501117"><ele>706.8</ele><time>2026-04-09T11:09:34.926Z</time></trkpt><trkpt lat="44.1422183" lon="11.150235"><ele>712.1999999999999</ele><time>2026-04-09T11:09:35.926Z</time></trkpt><trkpt lat="44.1421533" lon="11.150355"><ele>717.5999999999999</ele><time>2026-04-09T11:09:36.926Z</time></trkpt><trkpt lat="44.142085" lon="11.15046"><ele>723.0</ele><time>2026-04-09T11:09:37.927Z</time></trkpt><trkpt lat="44.1420117" lon="11.1505633"><ele>723.0</ele><time>2026-04-09T11:09:38.926Z</time></trkpt><trkpt lat="44.1419417" lon="11.1506617"><ele>723.0</ele><time>2026-04-09T11:09:39.926Z</time></trkpt><trkpt lat="44.1418617" lon="11.1507617"><ele>723.0</ele><time>2026-04-09T11:09:40.926Z</time></trkpt><trkpt lat="44.1417933" lon="11.15085"><ele>723.0</ele><time>2026-04-09T11:09:41.926Z</time></trkpt><trkpt lat="44.1417333" lon="11.150935"><ele>723.0</ele><time>2026-04-09T11:09:42.926Z</time></trkpt><trkpt lat="44.1416933" lon="11.15103"><ele>720.3333333333334</ele><time>2026-04-09T11:09:43.926Z</time></trkpt><trkpt lat="44.14167" lon="11.1511333"><ele>717.6666666666666</ele><time>2026-04-09T11:09:44.926Z</time></trkpt><trkpt lat="44.1416617" lon="11.1512417"><ele>715.0</ele><time>2026-04-09T11:09:45.926Z</time></trkpt><trkpt lat="44.1416567" lon="11.1513383"><ele>712.3333333333333</ele><time>2026-04-09T11:09:46.926Z</time></trkpt><trkpt lat="44.1416483" lon="11.1514383"><ele>709.6666666666666</ele><time>2026-04-09T11:09:47.925Z</time></trkpt><trkpt lat="44.1416433" lon="11.1515283"><ele>707.0</ele><time>2026-04-09T11:09:48.925Z</time></trkpt><trkpt lat="44.1416467" lon="11.1517"><ele>705.4000000000001</ele><time>2026-04-09T11:09:50.925Z</time></trkpt><trkpt lat="44.1416367" lon="11.1518283"><ele>703.8000000000001</ele><time>2026-04-09T11:09:52.926Z</time></trkpt><trkpt lat="44.1416433" lon="11.1519483"><ele>702.2</ele><time>2026-04-09T11:09:54.925Z</time></trkpt><trkpt lat="44.1416667" lon="11.1521033"><ele>700.6</ele><time>2026-04-09T11:09:56.925Z</time></trkpt><trkpt lat="44.1416717" lon="11.1521933"><ele>699.0</ele><time>2026-04-09T11:09:57.925Z</time></trkpt><trkpt lat="44.141675" lon="11.1523417"><ele>699.0</ele><time>2026-04-09T11:09:59.925Z</time></trkpt><trkpt lat="44.1416467" lon="11.1524967"><ele>699.0</ele><time>2026-04-09T11:10:01.925Z</time></trkpt><trkpt lat="44.14163" lon="11.152665"><ele>699.0</ele><time>2026-04-09T11:10:03.925Z</time></trkpt><trkpt lat="44.1416183" lon="11.1528117"><ele>699.0</ele><time>2026-04-09T11:10:05.926Z</time></trkpt><trkpt lat="44.1415783" lon="11.15291"><ele>699.0</ele><time>2026-04-09T11:10:07.925Z</time></trkpt><trkpt lat="44.1415467" lon="11.1530183"><ele>703.0</ele><time>2026-04-09T11:10:09.925Z</time></trkpt><trkpt lat="44.1415233" lon="11.1531567"><ele>707.0</ele><time>2026-04-09T11:10:11.925Z</time></trkpt><trkpt lat="44.141495" lon="11.1532783"><ele>711.0</ele><time>2026-04-09T11:10:13.925Z</time></trkpt><trkpt lat="44.1414667" lon="11.1533917"><ele>715.0</ele><time>2026-04-09T11:10:15.925Z</time></trkpt><trkpt lat="44.14145" lon="11.1534817"><ele>719.0</ele><time>2026-04-09T11:10:17.925Z</time></trkpt><trkpt lat="44.1414483" lon="11.1535717"><ele>723.0</ele><time>2026-04-09T11:10:19.925Z</time></trkpt><trkpt lat="44.1414767" lon="11.1536533"><ele>723.0</ele><time>2026-04-09T11:10:22.925Z</time></trkpt><trkpt lat="44.1414567" lon="11.1538233"><ele>723.0</ele><time>2026-04-09T11:10:39.926Z</time></trkpt><trkpt lat="44.1414467" lon="11.15391"><ele>723.0</ele><time>2026-04-09T11:10:44.925Z</time></trkpt><trkpt lat="44.1414233" lon="11.1540033"><ele>723.0</ele><time>2026-04-09T11:10:48.925Z</time></trkpt><trkpt lat="44.14142" lon="11.153905"><ele>723.0</ele><time>2026-04-09T11:11:20.925Z</time></trkpt><trkpt lat="44.1439517" lon="11.16152"><ele>716.5999999999999</ele><time>2026-04-09T12:26:47.906Z</time></trkpt><trkpt lat="44.1439317" lon="11.1616717"><ele>710.1999999999999</ele><time>2026-04-09T12:26:48.906Z</time></trkpt><trkpt lat="44.1439" lon="11.1617967"><ele>703.8</ele><time>2026-04-09T12:26:49.907Z</time></trkpt><trkpt lat="44.143845" lon="11.1619083"><ele>697.4</ele><time>2026-04-09T12:26:50.906Z</time></trkpt><trkpt lat="44.1437617" lon="11.1620033"><ele>691.0</ele><time>2026-04-09T12:26:51.906Z</time></trkpt><trkpt lat="44.143655" lon="11.1620833"><ele>691.0</ele><time>2026-04-09T12:26:52.907Z</time></trkpt><trkpt lat="44.1435417" lon="11.1621567"><ele>691.0</ele><time>2026-04-09T12:26:53.906Z</time></trkpt><trkpt lat="44.14344" lon="11.1622367"><ele>691.0</ele><time>2026-04-09T12:26:54.906Z</time></trkpt><trkpt lat="44.1433433" lon="11.162315"><ele>691.0</ele><time>2026-04-09T12:26:55.906Z</time></trkpt><trkpt lat="44.1432617" lon="11.1624"><ele>691.5</ele><time>2026-04-09T12:26:56.906Z</time></trkpt><trkpt lat="44.143185" lon="11.1625067"><ele>692.0</ele><time>2026-04-09T12:26:57.906Z</time></trkpt><trkpt lat="44.14314" lon="11.1626533"><ele>692.5</ele><time>2026-04-09T12:26:58.906Z</time></trkpt><trkpt lat="44.1431267" lon="11.1628267"><ele>693.0</ele><time>2026-04-09T12:26:59.906Z</time></trkpt><trkpt lat="44.143135" lon="11.163"><ele>693.0</ele><time>2026-04-09T12:27:00.906Z</time></trkpt><trkpt lat="44.1431267" lon="11.1631833"><ele>693.0</ele><time>2026-04-09T12:27:01.906Z</time></trkpt><trkpt lat="44.1431183" lon="11.163365"><ele>693.0</ele><time>2026-04-09T12:27:02.906Z</time></trkpt><trkpt lat="44.1431167" lon="11.1635417"><ele>693.0</ele><time>2026-04-09T12:27:03.906Z</time></trkpt><trkpt lat="44.1431133" lon="11.1637133"><ele>691.0</ele><time>2026-04-09T12:27:04.907Z</time></trkpt><trkpt lat="44.1431067" lon="11.1638817"><ele>689.0</ele><time>2026-04-09T12:27:05.906Z</time></trkpt><trkpt lat="44.1431067" lon="11.164215"><ele>687.0</ele><time>2026-04-09T12:27:07.906Z</time></trkpt><trkpt lat="44.1431067" lon="11.1643683"><ele>687.0</ele><time>2026-04-09T12:27:08.906Z</time></trkpt><trkpt lat="44.1431" lon="11.1645133"><ele>687.0</ele><time>2026-04-09T12:27:09.906Z</time></trkpt><trkpt lat="44.1430983" lon="11.1646633"><ele>687.0</ele><time>2026-04-09T12:27:10.907Z</time></trkpt><trkpt lat="44.1430967" lon="11.1647983"><ele>687.0</ele><time>2026-04-09T12:27:11.906Z</time></trkpt><trkpt lat="44.1430983" lon="11.1649283"><ele>687.0</ele><time>2026-04-09T12:27:12.906Z</time></trkpt><trkpt lat="44.1431117" lon="11.1650567"><ele>686.2</ele><time>2026-04-09T12:27:13.906Z</time></trkpt><trkpt lat="44.1431217" lon="11.1651767"><ele>685.4000000000001</ele><time>2026-04-09T12:27:14.907Z</time></trkpt><trkpt lat="44.14315" lon="11.1653017"><ele>684.5999999999999</ele><time>2026-04-09T12:27:15.906Z</time></trkpt><trkpt lat="44.14318" lon="11.165425"><ele>683.8</ele><time>2026-04-09T12:27:16.906Z</time></trkpt><trkpt lat="44.1432117" lon="11.1655433"><ele>683.0</ele><time>2026-04-09T12:27:17.906Z</time></trkpt><trkpt lat="44.14324" lon="11.1656583"><ele>681.3333333333333</ele><time>2026-04-09T12:27:18.906Z</time></trkpt><trkpt lat="44.1432667" lon="11.1657617"><ele>679.6666666666666</ele><time>2026-04-09T12:27:19.907Z</time></trkpt><trkpt lat="44.1432883" lon="11.1658617"><ele>678.0</ele><time>2026-04-09T12:27:20.907Z</time></trkpt><trkpt lat="44.1432967" lon="11.16596"><ele>676.3333333333334</ele><time>2026-04-09T12:27:21.907Z</time></trkpt><trkpt lat="44.1432983" lon="11.16605"><ele>674.6666666666667</ele><time>2026-04-09T12:27:22.906Z</time></trkpt><trkpt lat="44.1433267" lon="11.1661917"><ele>673.0</ele><time>2026-04-09T12:27:24.906Z</time></trkpt><trkpt lat="44.1433767" lon="11.1662667"><ele>673.0</ele><time>2026-04-09T12:27:26.906Z</time></trkpt><trkpt lat="44.1435317" lon="11.1663367"><ele>673.0</ele><time>2026-04-09T12:27:29.906Z</time></trkpt><trkpt lat="44.14359" lon="11.1663933"><ele>673.0</ele><time>2026-04-09T12:27:30.907Z</time></trkpt><trkpt lat="44.1436367" lon="11.1664867"><ele>673.0</ele><time>2026-04-09T12:27:31.906Z</time></trkpt><trkpt lat="44.1437" lon="11.16658"><ele>673.0</ele><time>2026-04-09T12:27:32.906Z</time></trkpt><trkpt lat="44.143765" lon="11.1666883"><ele>672.25</ele><time>2026-04-09T12:27:33.906Z</time></trkpt><trkpt lat="44.14384" lon="11.1667867"><ele>671.5</ele><time>2026-04-09T12:27:34.906Z</time></trkpt><trkpt lat="44.1439433" lon="11.1668783"><ele>670.75</ele><time>2026-04-09T12:27:35.906Z</time></trkpt><trkpt lat="44.1440767" lon="11.1669517"><ele>670.0</ele><time>2026-04-09T12:27:36.906Z</time></trkpt><trkpt lat="44.144225" lon="11.16701"><ele>670.0</ele><time>2026-04-09T12:27:37.906Z</time></trkpt><trkpt lat="44.1443833" lon="11.167085"><ele>670.0</ele><time>2026-04-09T12:27:38.907Z</time></trkpt><trkpt lat="44.14456" lon="11.1671367"><ele>670.0</ele><time>2026-04-09T12:27:39.906Z</time></trkpt><trkpt lat="44.1447333" lon="11.1671667"><ele>668.0</ele><time>2026-04-09T12:27:40.906Z</time></trkpt><trkpt lat="44.144905" lon="11.16718"><ele>666.0</ele><time>2026-04-09T12:27:41.907Z</time></trkpt><trkpt lat="44.1450683" lon="11.1671717"><ele>664.0</ele><time>2026-04-09T12:27:42.906Z</time></trkpt><trkpt lat="44.1452183" lon="11.1671433"><ele>664.0</ele><time>2026-04-09T12:27:43.906Z</time></trkpt><trkpt lat="44.1453567" lon="11.16709"><ele>664.0</ele><time>2026-04-09T12:27:44.907Z</time></trkpt><trkpt lat="44.14547" lon="11.1670233"><ele>664.0</ele><time>2026-04-09T12:27:45.906Z</time></trkpt><trkpt lat="44.1455717" lon="11.166975"><ele>664.0</ele><time>2026-04-09T12:27:46.906Z</time></trkpt><trkpt lat="44.145665" lon="11.1669417"><ele>663.75</ele><time>2026-04-09T12:27:47.906Z</time></trkpt><trkpt lat="44.1458633" lon="11.166985"><ele>663.5</ele><time>2026-04-09T12:27:49.906Z</time></trkpt><trkpt lat="44.14596" lon="11.16707"><ele>663.25</ele><time>2026-04-09T12:27:50.907Z</time></trkpt><trkpt lat="44.1460517" lon="11.1671917"><ele>663.0</ele><time>2026-04-09T12:27:51.906Z</time></trkpt><trkpt lat="44.146145" lon="11.1673233"><ele>665.25</ele><time>2026-04-09T12:27:52.906Z</time></trkpt><trkpt lat="44.1462467" lon="11.1674517"><ele>667.5</ele><time>2026-04-09T12:27:53.906Z</time></trkpt><trkpt lat="44.1463467" lon="11.167585"><ele>669.75</ele><time>2026-04-09T12:27:54.906Z</time></trkpt><trkpt lat="44.1464483" lon="11.1677183"><ele>672.0</ele><time>2026-04-09T12:27:55.906Z</time></trkpt><trkpt lat="44.1465433" lon="11.1678417"><ele>669.5</ele><time>2026-04-09T12:27:56.906Z</time></trkpt><trkpt lat="44.1466483" lon="11.1679567"><ele>667.0</ele><time>2026-04-09T12:27:57.907Z</time></trkpt><trkpt lat="44.1467517" lon="11.1680467"><ele>664.5</ele><time>2026-04-09T12:27:58.906Z</time></trkpt><trkpt lat="44.1468767" lon="11.1681067"><ele>662.0</ele><time>2026-04-09T12:27:59.906Z</time></trkpt><trkpt lat="44.146995" lon="11.1681483"><ele>662.0</ele><time>2026-04-09T12:28:00.906Z</time></trkpt><trkpt lat="44.14712" lon="11.1681633"><ele>662.0</ele><time>2026-04-09T12:28:01.906Z</time></trkpt><trkpt lat="44.1472533" lon="11.1681517"><ele>662.0</ele><time>2026-04-09T12:28:02.906Z</time></trkpt><trkpt lat="44.1473833" lon="11.1681217"><ele>662.0</ele><time>2026-04-09T12:28:03.906Z</time></trkpt><trkpt lat="44.147515" lon="11.1680967"><ele>662.0</ele><time>2026-04-09T12:28:04.906Z</time></trkpt><trkpt lat="44.1476317" lon="11.168075"><ele>662.0</ele><time>2026-04-09T12:28:05.906Z</time></trkpt><trkpt lat="44.1477283" lon="11.1681"><ele>662.0</ele><time>2026-04-09T12:28:06.906Z</time></trkpt><trkpt lat="44.1478183" lon="11.1681567"><ele>662.0</ele><time>2026-04-09T12:28:07.907Z</time></trkpt><trkpt lat="44.1478833" lon="11.168265"><ele>662.0</ele><time>2026-04-09T12:28:08.906Z</time></trkpt><trkpt lat="44.1479717" lon="11.1685417"><ele>662.0</ele><time>2026-04-09T12:28:10.906Z</time></trkpt><trkpt lat="44.14803" lon="11.16867"><ele>662.0</ele><time>2026-04-09T12:28:11.907Z</time></trkpt><trkpt lat="44.1481233" lon="11.168765"><ele>662.0</ele><time>2026-04-09T12:28:12.906Z</time></trkpt><trkpt lat="44.1482367" lon="11.1688433"><ele>662.0</ele><time>2026-04-09T12:28:13.906Z</time></trkpt><trkpt lat="44.148345" lon="11.1689217"><ele>660.0</ele><time>2026-04-09T12:28:14.906Z</time></trkpt><trkpt lat="44.1484417" lon="11.1690233"><ele>658.0</ele><time>2026-04-09T12:28:15.906Z</time></trkpt><trkpt lat="44.1485033" lon="11.1691717"><ele>656.0</ele><time>2026-04-09T12:28:16.906Z</time></trkpt><trkpt lat="44.1485483" lon="11.1693383"><ele>654.0</ele><time>2026-04-09T12:28:17.907Z</time></trkpt><trkpt lat="44.1485867" lon="11.1695083"><ele>654.0</ele><time>2026-04-09T12:28:18.906Z</time></trkpt><trkpt lat="44.1486417" lon="11.1696633"><ele>654.0</ele><time>2026-04-09T12:28:19.906Z</time></trkpt><trkpt lat="44.148725" lon="11.169775"><ele>654.0</ele><time>2026-04-09T12:28:20.907Z</time></trkpt><trkpt lat="44.1488417" lon="11.169855"><ele>654.0</ele><time>2026-04-09T12:28:21.906Z</time></trkpt><trkpt lat="44.1489833" lon="11.169875"><ele>653.0</ele><time>2026-04-09T12:28:22.907Z</time></trkpt><trkpt lat="44.149135" lon="11.16986"><ele>652.0</ele><time>2026-04-09T12:28:23.906Z</time></trkpt><trkpt lat="44.1492933" lon="11.1698267"><ele>651.0</ele><time>2026-04-09T12:28:24.907Z</time></trkpt><trkpt lat="44.149455" lon="11.1698"><ele>646.6666666666666</ele><time>2026-04-09T12:28:25.906Z</time></trkpt><trkpt lat="44.1496183" lon="11.1697917"><ele>642.3333333333333</ele><time>2026-04-09T12:28:26.906Z</time></trkpt><trkpt lat="44.149775" lon="11.1698017"><ele>638.0</ele><time>2026-04-09T12:28:27.906Z</time></trkpt><trkpt lat="44.1499217" lon="11.1698367"><ele>639.6666666666666</ele><time>2026-04-09T12:28:28.906Z</time></trkpt><trkpt lat="44.1500667" lon="11.1698767"><ele>641.3333333333334</ele><time>2026-04-09T12:28:29.906Z</time></trkpt><trkpt lat="44.15033" lon="11.1699433"><ele>643.0</ele><time>2026-04-09T12:28:31.906Z</time></trkpt><trkpt lat="44.1504567" lon="11.169925"><ele>643.0</ele><time>2026-04-09T12:28:32.906Z</time></trkpt><trkpt lat="44.1505683" lon="11.1698617"><ele>643.0</ele><time>2026-04-09T12:28:33.906Z</time></trkpt><trkpt lat="44.1506733" lon="11.1697867"><ele>643.0</ele><time>2026-04-09T12:28:34.906Z</time></trkpt><trkpt lat="44.1507667" lon="11.1697517"><ele>643.0</ele><time>2026-04-09T12:28:35.906Z</time></trkpt><trkpt lat="44.1508633" lon="11.16976"><ele>643.0</ele><time>2026-04-09T12:28:36.907Z</time></trkpt><trkpt lat="44.1509433" lon="11.1698117"><ele>642.4</ele><time>2026-04-09T12:28:37.906Z</time></trkpt><trkpt lat="44.151" lon="11.1699167"><ele>641.8</ele><time>2026-04-09T12:28:38.906Z</time></trkpt><trkpt lat="44.1510417" lon="11.1700317"><ele>641.2</ele><time>2026-04-09T12:28:39.906Z</time></trkpt><trkpt lat="44.1510917" lon="11.1701533"><ele>640.6</ele><time>2026-04-09T12:28:40.906Z</time></trkpt><trkpt lat="44.15115" lon="11.170275"><ele>640.0</ele><time>2026-04-09T12:28:41.907Z</time></trkpt><trkpt lat="44.151225" lon="11.1703583"><ele>640.0</ele><time>2026-04-09T12:28:42.906Z</time></trkpt><trkpt lat="44.151325" lon="11.1704033"><ele>640.0</ele><time>2026-04-09T12:28:43.906Z</time></trkpt><trkpt lat="44.151445" lon="11.1704033"><ele>640.0</ele><time>2026-04-09T12:28:44.906Z</time></trkpt><trkpt lat="44.1515617" lon="11.1703383"><ele>640.0</ele><time>2026-04-09T12:28:45.906Z</time></trkpt><trkpt lat="44.151675" lon="11.170215"><ele>639.0</ele><time>2026-04-09T12:28:46.906Z</time></trkpt><trkpt lat="44.1517717" lon="11.1700617"><ele>638.0</ele><time>2026-04-09T12:28:47.907Z</time></trkpt><trkpt lat="44.1518567" lon="11.1699133"><ele>637.0</ele><time>2026-04-09T12:28:48.906Z</time></trkpt><trkpt lat="44.1519417" lon="11.1697833"><ele>636.0</ele><time>2026-04-09T12:28:49.906Z</time></trkpt><trkpt lat="44.1520317" lon="11.1696833"><ele>632.3333333333334</ele><time>2026-04-09T12:28:50.906Z</time></trkpt><trkpt lat="44.15225" lon="11.1695983"><ele>628.6666666666667</ele><time>2026-04-09T12:28:52.906Z</time></trkpt><trkpt lat="44.152385" lon="11.1696"><ele>625.0</ele><time>2026-04-09T12:28:53.906Z</time></trkpt><trkpt lat="44.152535" lon="11.1696083"><ele>625.0</ele><time>2026-04-09T12:28:54.906Z</time></trkpt><trkpt lat="44.1526883" lon="11.1695917"><ele>625.0</ele><time>2026-04-09T12:28:55.906Z</time></trkpt><trkpt lat="44.1528467" lon="11.1695333"><ele>625.0</ele><time>2026-04-09T12:28:56.906Z</time></trkpt><trkpt lat="44.1529983" lon="11.1694717"><ele>625.0</ele><time>2026-04-09T12:28:57.906Z</time></trkpt><trkpt lat="44.15314" lon="11.169415"><ele>625.0</ele><time>2026-04-09T12:28:58.906Z</time></trkpt><trkpt lat="44.1532683" lon="11.16938"><ele>625.0</ele><time>2026-04-09T12:28:59.906Z</time></trkpt><trkpt lat="44.1533983" lon="11.1693617"><ele>625.0</ele><time>2026-04-09T12:29:00.907Z</time></trkpt><trkpt lat="44.1535367" lon="11.1693733"><ele>625.0</ele><time>2026-04-09T12:29:01.906Z</time></trkpt><trkpt lat="44.15367" lon="11.1693967"><ele>625.0</ele><time>2026-04-09T12:29:02.906Z</time></trkpt><trkpt lat="44.1538" lon="11.1694317"><ele>625.0</ele><time>2026-04-09T12:29:03.906Z</time></trkpt><trkpt lat="44.1539317" lon="11.1694667"><ele>625.0</ele><time>2026-04-09T12:29:04.906Z</time></trkpt><trkpt lat="44.15405" lon="11.1694783"><ele>625.0</ele><time>2026-04-09T12:29:05.906Z</time></trkpt><trkpt lat="44.1541717" lon="11.1694583"><ele>625.0</ele><time>2026-04-09T12:29:06.907Z</time></trkpt><trkpt lat="44.15429" lon="11.1694083"><ele>625.0</ele><time>2026-04-09T12:29:07.906Z</time></trkpt><trkpt lat="44.154405" lon="11.1693683"><ele>625.0</ele><time>2026-04-09T12:29:08.906Z</time></trkpt><trkpt lat="44.1545267" lon="11.1693483"><ele>625.0</ele><time>2026-04-09T12:29:09.906Z</time></trkpt><trkpt lat="44.1546583" lon="11.169365"><ele>625.0</ele><time>2026-04-09T12:29:10.906Z</time></trkpt><trkpt lat="44.154795" lon="11.1694017"><ele>625.0</ele><time>2026-04-09T12:29:11.906Z</time></trkpt><trkpt lat="44.15507" lon="11.1694933"><ele>624.5</ele><time>2026-04-09T12:29:13.906Z</time></trkpt><trkpt lat="44.1552067" lon="11.1695533"><ele>624.0</ele><time>2026-04-09T12:29:14.906Z</time></trkpt><trkpt lat="44.1553217" lon="11.1696433"><ele>623.5</ele><time>2026-04-09T12:29:15.907Z</time></trkpt><trkpt lat="44.155415" lon="11.1697617"><ele>623.0</ele><time>2026-04-09T12:29:16.906Z</time></trkpt><trkpt lat="44.1554933" lon="11.1698767"><ele>623.25</ele><time>2026-04-09T12:29:17.907Z</time></trkpt><trkpt lat="44.15558" lon="11.1699683"><ele>623.5</ele><time>2026-04-09T12:29:18.906Z</time></trkpt><trkpt lat="44.1556817" lon="11.170025"><ele>623.75</ele><time>2026-04-09T12:29:19.906Z</time></trkpt><trkpt lat="44.1558017" lon="11.1700383"><ele>624.0</ele><time>2026-04-09T12:29:20.906Z</time></trkpt><trkpt lat="44.1559417" lon="11.1699933"><ele>624.0</ele><time>2026-04-09T12:29:21.906Z</time></trkpt><trkpt lat="44.1560883" lon="11.1699117"><ele>624.0</ele><time>2026-04-09T12:29:22.907Z</time></trkpt><trkpt lat="44.1562267" lon="11.1698183"><ele>624.0</ele><time>2026-04-09T12:29:23.906Z</time></trkpt><trkpt lat="44.1563533" lon="11.1697333"><ele>621.75</ele><time>2026-04-09T12:29:24.906Z</time></trkpt><trkpt lat="44.15647" lon="11.169655"><ele>619.5</ele><time>2026-04-09T12:29:25.907Z</time></trkpt><trkpt lat="44.1565733" lon="11.1695833"><ele>617.25</ele><time>2026-04-09T12:29:26.906Z</time></trkpt><trkpt lat="44.1566783" lon="11.1695183"><ele>615.0</ele><time>2026-04-09T12:29:27.906Z</time></trkpt><trkpt lat="44.156785" lon="11.1694967"><ele>614.8</ele><time>2026-04-09T12:29:28.906Z</time></trkpt><trkpt lat="44.1568917" lon="11.16952"><ele>614.6</ele><time>2026-04-09T12:29:29.907Z</time></trkpt><trkpt lat="44.157" lon="11.16957"><ele>614.4</ele><time>2026-04-09T12:29:30.906Z</time></trkpt><trkpt lat="44.157105" lon="11.1696083"><ele>614.2</ele><time>2026-04-09T12:29:31.906Z</time></trkpt><trkpt lat="44.157215" lon="11.1696067"><ele>614.0</ele><time>2026-04-09T12:29:32.906Z</time></trkpt><trkpt lat="44.15742" lon="11.1694767"><ele>614.0</ele><time>2026-04-09T12:29:34.906Z</time></trkpt><trkpt lat="44.1574983" lon="11.1693317"><ele>614.0</ele><time>2026-04-09T12:29:35.906Z</time></trkpt><trkpt lat="44.1575733" lon="11.1691533"><ele>614.0</ele><time>2026-04-09T12:29:36.906Z</time></trkpt><trkpt lat="44.157655" lon="11.1689633"><ele>614.0</ele><time>2026-04-09T12:29:37.906Z</time></trkpt><trkpt lat="44.1577433" lon="11.1687717"><ele>612.3333333333333</ele><time>2026-04-09T12:29:38.906Z</time></trkpt><trkpt lat="44.157835" lon="11.1685967"><ele>610.6666666666666</ele><time>2026-04-09T12:29:39.906Z</time></trkpt><trkpt lat="44.1579367" lon="11.1684317"><ele>609.0</ele><time>2026-04-09T12:29:40.906Z</time></trkpt><trkpt lat="44.158035" lon="11.1682867"><ele>608.5</ele><time>2026-04-09T12:29:41.907Z</time></trkpt><trkpt lat="44.1581333" lon="11.168175"><ele>608.0</ele><time>2026-04-09T12:29:42.906Z</time></trkpt><trkpt lat="44.1582333" lon="11.168075"><ele>607.5</ele><time>2026-04-09T12:29:43.906Z</time></trkpt><trkpt lat="44.1583317" lon="11.1679833"><ele>607.0</ele><time>2026-04-09T12:29:44.906Z</time></trkpt><trkpt lat="44.15843" lon="11.16791"><ele>607.8000000000001</ele><time>2026-04-09T12:29:45.906Z</time></trkpt><trkpt lat="44.1585233" lon="11.1678483"><ele>608.6</ele><time>2026-04-09T12:29:46.906Z</time></trkpt><trkpt lat="44.1586183" lon="11.1677983"><ele>609.4000000000001</ele><time>2026-04-09T12:29:47.906Z</time></trkpt><trkpt lat="44.1587167" lon="11.1677467"><ele>610.2</ele><time>2026-04-09T12:29:48.907Z</time></trkpt><trkpt lat="44.158815" lon="11.1677067"><ele>611.0</ele><time>2026-04-09T12:29:49.906Z</time></trkpt><trkpt lat="44.158915" lon="11.1676767"><ele>611.0</ele><time>2026-04-09T12:29:50.906Z</time></trkpt><trkpt lat="44.1590233" lon="11.1676517"><ele>611.0</ele><time>2026-04-09T12:29:51.906Z</time></trkpt><trkpt lat="44.1591233" lon="11.1676283"><ele>611.0</ele><time>2026-04-09T12:29:52.906Z</time></trkpt><trkpt lat="44.1592133" lon="11.1676183"><ele>611.0</ele><time>2026-04-09T12:29:53.907Z</time></trkpt><trkpt lat="44.1593717" lon="11.16762"><ele>611.3333333333333</ele><time>2026-04-09T12:29:55.907Z</time></trkpt><trkpt lat="44.15944" lon="11.16762"><ele>611.6666666666666</ele><time>2026-04-09T12:29:56.907Z</time></trkpt><trkpt lat="44.1595117" lon="11.1676233"><ele>612.0</ele><time>2026-04-09T12:29:57.906Z</time></trkpt><trkpt lat="44.15959" lon="11.16763"><ele>612.3333333333334</ele><time>2026-04-09T12:29:58.907Z</time></trkpt><trkpt lat="44.15968" lon="11.1676333"><ele>612.6666666666667</ele><time>2026-04-09T12:29:59.906Z</time></trkpt><trkpt lat="44.1597883" lon="11.167645"><ele>613.0</ele><time>2026-04-09T12:30:00.906Z</time></trkpt><trkpt lat="44.1599417" lon="11.1676667"><ele>611.3333333333334</ele><time>2026-04-09T12:30:01.907Z</time></trkpt><trkpt lat="44.16013" lon="11.1676883"><ele>609.6666666666666</ele><time>2026-04-09T12:30:02.907Z</time></trkpt><trkpt lat="44.16033" lon="11.16772"><ele>608.0</ele><time>2026-04-09T12:30:03.906Z</time></trkpt><trkpt lat="44.1605183" lon="11.1677517"><ele>608.0</ele><time>2026-04-09T12:30:04.907Z</time></trkpt><trkpt lat="44.160685" lon="11.1677817"><ele>608.0</ele><time>2026-04-09T12:30:05.906Z</time></trkpt><trkpt lat="44.1608583" lon="11.1678067"><ele>608.0</ele><time>2026-04-09T12:30:06.907Z</time></trkpt><trkpt lat="44.16103" lon="11.1678233"><ele>606.3333333333333</ele><time>2026-04-09T12:30:07.906Z</time></trkpt><trkpt lat="44.1611917" lon="11.167835"><ele>604.6666666666666</ele><time>2026-04-09T12:30:08.906Z</time></trkpt><trkpt lat="44.1613467" lon="11.167835"><ele>603.0</ele><time>2026-04-09T12:30:09.906Z</time></trkpt><trkpt lat="44.161505" lon="11.1678133"><ele>600.3333333333334</ele><time>2026-04-09T12:30:10.907Z</time></trkpt><trkpt lat="44.1616683" lon="11.16776"><ele>597.6666666666667</ele><time>2026-04-09T12:30:11.906Z</time></trkpt><trkpt lat="44.1618383" lon="11.16768"><ele>595.0</ele><time>2026-04-09T12:30:12.906Z</time></trkpt><trkpt lat="44.1620167" lon="11.1675767"><ele>595.0</ele><time>2026-04-09T12:30:13.906Z</time></trkpt><trkpt lat="44.1621983" lon="11.16746"><ele>595.0</ele><time>2026-04-09T12:30:14.906Z</time></trkpt><trkpt lat="44.1625333" lon="11.1672233"><ele>590.0</ele><time>2026-04-09T12:30:16.906Z</time></trkpt><trkpt lat="44.16269" lon="11.1671133"><ele>585.0</ele><time>2026-04-09T12:30:17.906Z</time></trkpt><trkpt lat="44.16284" lon="11.1670083"><ele>580.0</ele><time>2026-04-09T12:30:18.906Z</time></trkpt><trkpt lat="44.1629733" lon="11.166915"><ele>580.0</ele><time>2026-04-09T12:30:19.907Z</time></trkpt><trkpt lat="44.1630983" lon="11.16684"><ele>580.0</ele><time>2026-04-09T12:30:20.906Z</time></trkpt><trkpt lat="44.1632267" lon="11.1667867"><ele>580.0</ele><time>2026-04-09T12:30:21.906Z</time></trkpt><trkpt lat="44.16337" lon="11.1667767"><ele>580.0</ele><time>2026-04-09T12:30:22.906Z</time></trkpt><trkpt lat="44.1635117" lon="11.16679"><ele>580.25</ele><time>2026-04-09T12:30:23.906Z</time></trkpt><trkpt lat="44.1636583" lon="11.1667933"><ele>580.5</ele><time>2026-04-09T12:30:24.907Z</time></trkpt><trkpt lat="44.1638017" lon="11.1667683"><ele>580.75</ele><time>2026-04-09T12:30:25.906Z</time></trkpt><trkpt lat="44.1639467" lon="11.1667233"><ele>581.0</ele><time>2026-04-09T12:30:26.906Z</time></trkpt><trkpt lat="44.1640817" lon="11.1666567"><ele>580.4</ele><time>2026-04-09T12:30:27.906Z</time></trkpt><trkpt lat="44.1641983" lon="11.1665867"><ele>579.8</ele><time>2026-04-09T12:30:28.906Z</time></trkpt><trkpt lat="44.16429" lon="11.1665333"><ele>579.1999999999999</ele><time>2026-04-09T12:30:29.906Z</time></trkpt><trkpt lat="44.1643783" lon="11.1665217"><ele>578.6</ele><time>2026-04-09T12:30:30.906Z</time></trkpt><trkpt lat="44.1644633" lon="11.16655"><ele>578.0</ele><time>2026-04-09T12:30:31.906Z</time></trkpt><trkpt lat="44.1645367" lon="11.166625"><ele>578.0</ele><time>2026-04-09T12:30:32.906Z</time></trkpt><trkpt lat="44.164595" lon="11.16674"><ele>578.0</ele><time>2026-04-09T12:30:33.906Z</time></trkpt><trkpt lat="44.164645" lon="11.1668867"><ele>578.0</ele><time>2026-04-09T12:30:34.906Z</time></trkpt><trkpt lat="44.1647017" lon="11.167035"><ele>578.0</ele><time>2026-04-09T12:30:35.906Z</time></trkpt><trkpt lat="44.1648467" lon="11.1672517"><ele>574.4</ele><time>2026-04-09T12:30:37.906Z</time></trkpt><trkpt lat="44.16493" lon="11.1673117"><ele>570.8</ele><time>2026-04-09T12:30:38.906Z</time></trkpt><trkpt lat="44.1650283" lon="11.16733"><ele>567.2</ele><time>2026-04-09T12:30:39.906Z</time></trkpt><trkpt lat="44.1651333" lon="11.1673283"><ele>563.6</ele><time>2026-04-09T12:30:40.905Z</time></trkpt><trkpt lat="44.1652483" lon="11.167295"><ele>560.0</ele><time>2026-04-09T12:30:41.905Z</time></trkpt><trkpt lat="44.1653683" lon="11.1672367"><ele>560.0</ele><time>2026-04-09T12:30:42.905Z</time></trkpt><trkpt lat="44.16548" lon="11.1671383"><ele>560.0</ele><time>2026-04-09T12:30:43.905Z</time></trkpt><trkpt lat="44.16558" lon="11.1669933"><ele>560.0</ele><time>2026-04-09T12:30:44.905Z</time></trkpt><trkpt lat="44.165665" lon="11.1668"><ele>560.0</ele><time>2026-04-09T12:30:45.905Z</time></trkpt><trkpt lat="44.1657467" lon="11.1666033"><ele>558.25</ele><time>2026-04-09T12:30:46.905Z</time></trkpt><trkpt lat="44.1658217" lon="11.16641"><ele>556.5</ele><time>2026-04-09T12:30:47.905Z</time></trkpt><trkpt lat="44.1658867" lon="11.16623"><ele>554.75</ele><time>2026-04-09T12:30:48.906Z</time></trkpt><trkpt lat="44.1659567" lon="11.166065"><ele>553.0</ele><time>2026-04-09T12:30:49.905Z</time></trkpt><trkpt lat="44.1660233" lon="11.1659533"><ele>553.0</ele><time>2026-04-09T12:30:50.905Z</time></trkpt><trkpt lat="44.1661033" lon="11.1658683"><ele>553.0</ele><time>2026-04-09T12:30:51.905Z</time></trkpt><trkpt lat="44.1662117" lon="11.1658417"><ele>553.0</ele><time>2026-04-09T12:30:52.905Z</time></trkpt><trkpt lat="44.166345" lon="11.1658417"><ele>553.0</ele><time>2026-04-09T12:30:53.905Z</time></trkpt><trkpt lat="44.1664917" lon="11.1658467"><ele>552.6666666666667</ele><time>2026-04-09T12:30:54.905Z</time></trkpt><trkpt lat="44.1666483" lon="11.165865"><ele>552.3333333333334</ele><time>2026-04-09T12:30:55.905Z</time></trkpt><trkpt lat="44.1668117" lon="11.165875"><ele>552.0</ele><time>2026-04-09T12:30:56.905Z</time></trkpt><trkpt lat="44.1671217" lon="11.1658833"><ele>552.0</ele><time>2026-04-09T12:30:58.905Z</time></trkpt><trkpt lat="44.1672617" lon="11.1658883"><ele>552.0</ele><time>2026-04-09T12:30:59.905Z</time></trkpt><trkpt lat="44.1673783" lon="11.165915"><ele>552.0</ele><time>2026-04-09T12:31:00.905Z</time></trkpt><trkpt lat="44.1674917" lon="11.16598"><ele>552.0</ele><time>2026-04-09T12:31:01.905Z</time></trkpt><trkpt lat="44.1675717" lon="11.16609"><ele>553.0</ele><time>2026-04-09T12:31:02.905Z</time></trkpt><trkpt lat="44.1676317" lon="11.16622"><ele>554.0</ele><time>2026-04-09T12:31:03.905Z</time></trkpt><trkpt lat="44.1676967" lon="11.1663533"><ele>555.0</ele><time>2026-04-09T12:31:04.905Z</time></trkpt><trkpt lat="44.167765" lon="11.1664717"><ele>556.0</ele><time>2026-04-09T12:31:05.905Z</time></trkpt><trkpt lat="44.1678583" lon="11.1665517"><ele>557.0</ele><time>2026-04-09T12:31:06.905Z</time></trkpt><trkpt lat="44.1679733" lon="11.166605"><ele>557.0</ele><time>2026-04-09T12:31:07.905Z</time></trkpt><trkpt lat="44.16809" lon="11.1666267"><ele>557.0</ele><time>2026-04-09T12:31:08.905Z</time></trkpt><trkpt lat="44.1682117" lon="11.1666217"><ele>557.0</ele><time>2026-04-09T12:31:09.905Z</time></trkpt><trkpt lat="44.1683333" lon="11.1665717"><ele>557.0</ele><time>2026-04-09T12:31:10.905Z</time></trkpt><trkpt lat="44.1684533" lon="11.16652"><ele>555.25</ele><time>2026-04-09T12:31:11.905Z</time></trkpt><trkpt lat="44.1685717" lon="11.1665033"><ele>553.5</ele><time>2026-04-09T12:31:12.905Z</time></trkpt><trkpt lat="44.168695" lon="11.16652"><ele>551.75</ele><time>2026-04-09T12:31:13.905Z</time></trkpt><trkpt lat="44.1688233" lon="11.1665717"><ele>550.0</ele><time>2026-04-09T12:31:14.906Z</time></trkpt><trkpt lat="44.168955" lon="11.1666483"><ele>547.3333333333334</ele><time>2026-04-09T12:31:15.906Z</time></trkpt><trkpt lat="44.16907" lon="11.1667517"><ele>544.6666666666666</ele><time>2026-04-09T12:31:16.906Z</time></trkpt><trkpt lat="44.16918" lon="11.1668683"><ele>542.0</ele><time>2026-04-09T12:31:17.905Z</time></trkpt><trkpt lat="44.16942" lon="11.1670317"><ele>542.0</ele><time>2026-04-09T12:31:19.906Z</time></trkpt><trkpt lat="44.1695817" lon="11.1670383"><ele>542.0</ele><time>2026-04-09T12:31:20.905Z</time></trkpt><trkpt lat="44.1697517" lon="11.1670367"><ele>542.0</ele><time>2026-04-09T12:31:21.905Z</time></trkpt><trkpt lat="44.1699233" lon="11.1670433"><ele>539.5</ele><time>2026-04-09T12:31:22.905Z</time></trkpt><trkpt lat="44.1700767" lon="11.1670717"><ele>537.0</ele><time>2026-04-09T12:31:23.906Z</time></trkpt><trkpt lat="44.170205" lon="11.1671"><ele>534.5</ele><time>2026-04-09T12:31:24.905Z</time></trkpt><trkpt lat="44.17031" lon="11.1671417"><ele>532.0</ele><time>2026-04-09T12:31:25.905Z</time></trkpt><trkpt lat="44.1704017" lon="11.1672117"><ele>532.0</ele><time>2026-04-09T12:31:26.905Z</time></trkpt><trkpt lat="44.1704667" lon="11.1673283"><ele>532.0</ele><time>2026-04-09T12:31:27.905Z</time></trkpt><trkpt lat="44.1705183" lon="11.1674583"><ele>532.0</ele><time>2026-04-09T12:31:28.906Z</time></trkpt><trkpt lat="44.1705983" lon="11.16757"><ele>532.0</ele><time>2026-04-09T12:31:29.905Z</time></trkpt><trkpt lat="44.1706917" lon="11.1676367"><ele>532.0</ele><time>2026-04-09T12:31:30.905Z</time></trkpt><trkpt lat="44.170825" lon="11.16767"><ele>532.5</ele><time>2026-04-09T12:31:31.905Z</time></trkpt><trkpt lat="44.1709667" lon="11.1676833"><ele>533.0</ele><time>2026-04-09T12:31:32.905Z</time></trkpt><trkpt lat="44.1711133" lon="11.1676967"><ele>533.5</ele><time>2026-04-09T12:31:33.905Z</time></trkpt><trkpt lat="44.171265" lon="11.1677267"><ele>534.0</ele><time>2026-04-09T12:31:34.905Z</time></trkpt><trkpt lat="44.17142" lon="11.1677917"><ele>530.0</ele><time>2026-04-09T12:31:35.905Z</time></trkpt><trkpt lat="44.1715583" lon="11.16787"><ele>526.0</ele><time>2026-04-09T12:31:36.905Z</time></trkpt><trkpt lat="44.1717017" lon="11.1679583"><ele>522.0</ele><time>2026-04-09T12:31:37.905Z</time></trkpt><trkpt lat="44.1718367" lon="11.1680367"><ele>524.6666666666666</ele><time>2026-04-09T12:31:38.905Z</time></trkpt><trkpt lat="44.1720667" lon="11.1682167"><ele>527.3333333333333</ele><time>2026-04-09T12:31:40.905Z</time></trkpt><trkpt lat="44.172155" lon="11.16835"><ele>530.0</ele><time>2026-04-09T12:31:41.905Z</time></trkpt><trkpt lat="44.1722267" lon="11.1684833"><ele>530.0</ele><time>2026-04-09T12:31:42.905Z</time></trkpt><trkpt lat="44.1723067" lon="11.1686033"><ele>530.0</ele><time>2026-04-09T12:31:43.905Z</time></trkpt><trkpt lat="44.1724033" lon="11.16868"><ele>530.0</ele><time>2026-04-09T12:31:44.905Z</time></trkpt><trkpt lat="44.172515" lon="11.1687183"><ele>530.0</ele><time>2026-04-09T12:31:45.906Z</time></trkpt><trkpt lat="44.17264" lon="11.1687183"><ele>528.0</ele><time>2026-04-09T12:31:46.906Z</time></trkpt><trkpt lat="44.17277" lon="11.1686917"><ele>526.0</ele><time>2026-04-09T12:31:47.905Z</time></trkpt><trkpt lat="44.1728867" lon="11.16868"><ele>524.0</ele><time>2026-04-09T12:31:48.905Z</time></trkpt><trkpt lat="44.1730017" lon="11.1686717"><ele>522.0</ele><time>2026-04-09T12:31:49.905Z</time></trkpt><trkpt lat="44.1730983" lon="11.1686917"><ele>522.0</ele><time>2026-04-09T12:31:50.905Z</time></trkpt><trkpt lat="44.1731783" lon="11.1687467"><ele>522.0</ele><time>2026-04-09T12:31:51.905Z</time></trkpt><trkpt lat="44.1732183" lon="11.1688467"><ele>522.0</ele><time>2026-04-09T12:31:52.905Z</time></trkpt><trkpt lat="44.1732367" lon="11.1689667"><ele>522.0</ele><time>2026-04-09T12:31:53.905Z</time></trkpt><trkpt lat="44.1732267" lon="11.1691133"><ele>522.0</ele><time>2026-04-09T12:31:54.905Z</time></trkpt><trkpt lat="44.1732167" lon="11.169285"><ele>521.25</ele><time>2026-04-09T12:31:55.905Z</time></trkpt><trkpt lat="44.1732233" lon="11.1694667"><ele>520.5</ele><time>2026-04-09T12:31:56.905Z</time></trkpt><trkpt lat="44.1732783" lon="11.1696167"><ele>519.75</ele><time>2026-04-09T12:31:57.905Z</time></trkpt><trkpt lat="44.1733733" lon="11.1697333"><ele>519.0</ele><time>2026-04-09T12:31:58.905Z</time></trkpt><trkpt lat="44.1735" lon="11.1698167"><ele>519.5</ele><time>2026-04-09T12:31:59.906Z</time></trkpt><trkpt lat="44.173805" lon="11.1699233"><ele>520.0</ele><time>2026-04-09T12:32:01.905Z</time></trkpt><trkpt lat="44.1739567" lon="11.16997"><ele>518.3333333333334</ele><time>2026-04-09T12:32:02.905Z</time></trkpt><trkpt lat="44.1741167" lon="11.170005"><ele>516.6666666666666</ele><time>2026-04-09T12:32:03.906Z</time></trkpt><trkpt lat="44.1742783" lon="11.1700333"><ele>515.0</ele><time>2026-04-09T12:32:04.905Z</time></trkpt><trkpt lat="44.1744383" lon="11.1700617"><ele>515.0</ele><time>2026-04-09T12:32:05.905Z</time></trkpt><trkpt lat="44.1745983" lon="11.170095"><ele>515.0</ele><time>2026-04-09T12:32:06.905Z</time></trkpt><trkpt lat="44.17475" lon="11.170135"><ele>515.0</ele><time>2026-04-09T12:32:07.905Z</time></trkpt><trkpt lat="44.174895" lon="11.170185"><ele>514.3333333333333</ele><time>2026-04-09T12:32:08.906Z</time></trkpt><trkpt lat="44.17504" lon="11.1702617"><ele>513.6666666666666</ele><time>2026-04-09T12:32:09.906Z</time></trkpt><trkpt lat="44.17518" lon="11.1703617"><ele>513.0</ele><time>2026-04-09T12:32:10.906Z</time></trkpt><trkpt lat="44.1753133" lon="11.17049"><ele>513.0</ele><time>2026-04-09T12:32:11.906Z</time></trkpt><trkpt lat="44.1754517" lon="11.1706367"><ele>513.0</ele><time>2026-04-09T12:32:12.905Z</time></trkpt><trkpt lat="44.17559" lon="11.1707833"><ele>513.0</ele><time>2026-04-09T12:32:13.905Z</time></trkpt><trkpt lat="44.17572" lon="11.17093"><ele>512.0</ele><time>2026-04-09T12:32:14.905Z</time></trkpt><trkpt lat="44.1758417" lon="11.1710683"><ele>511.0</ele><time>2026-04-09T12:32:15.905Z</time></trkpt><trkpt lat="44.175955" lon="11.1711983"><ele>510.0</ele><time>2026-04-09T12:32:16.905Z</time></trkpt><trkpt lat="44.1760683" lon="11.171315"><ele>509.0</ele><time>2026-04-09T12:32:17.905Z</time></trkpt><trkpt lat="44.1761883" lon="11.1714067"><ele>509.0</ele><time>2026-04-09T12:32:18.905Z</time></trkpt><trkpt lat="44.176315" lon="11.171455"><ele>509.0</ele><time>2026-04-09T12:32:19.905Z</time></trkpt><trkpt lat="44.176445" lon="11.1714683"><ele>509.0</ele><time>2026-04-09T12:32:20.906Z</time></trkpt><trkpt lat="44.1767267" lon="11.1713333"><ele>507.3333333333333</ele><time>2026-04-09T12:32:22.905Z</time></trkpt><trkpt lat="44.17687" lon="11.1712417"><ele>505.66666666666663</ele><time>2026-04-09T12:32:23.905Z</time></trkpt><trkpt lat="44.17701" lon="11.1711583"><ele>504.0</ele><time>2026-04-09T12:32:24.905Z</time></trkpt><trkpt lat="44.1771433" lon="11.171065"><ele>504.0</ele><time>2026-04-09T12:32:25.906Z</time></trkpt><trkpt lat="44.1772683" lon="11.17095"><ele>504.0</ele><time>2026-04-09T12:32:26.906Z</time></trkpt><trkpt lat="44.17737" lon="11.1708"><ele>504.0</ele><time>2026-04-09T12:32:27.905Z</time></trkpt><trkpt lat="44.17745" lon="11.1705933"><ele>505.0</ele><time>2026-04-09T12:32:28.905Z</time></trkpt><trkpt lat="44.1775233" lon="11.1703783"><ele>506.0</ele><time>2026-04-09T12:32:29.905Z</time></trkpt><trkpt lat="44.1775967" lon="11.1701633"><ele>507.0</ele><time>2026-04-09T12:32:30.906Z</time></trkpt><trkpt lat="44.17767" lon="11.1699617"><ele>504.75</ele><time>2026-04-09T12:32:31.906Z</time></trkpt><trkpt lat="44.1777467" lon="11.16979"><ele>502.5</ele><time>2026-04-09T12:32:32.905Z</time></trkpt><trkpt lat="44.1778417" lon="11.1696483"><ele>500.25</ele><time>2026-04-09T12:32:33.905Z</time></trkpt><trkpt lat="44.1779633" lon="11.16952"><ele>498.0</ele><time>2026-04-09T12:32:34.905Z</time></trkpt><trkpt lat="44.1781" lon="11.1694067"><ele>502.33333333333337</ele><time>2026-04-09T12:32:35.905Z</time></trkpt><trkpt lat="44.1782483" lon="11.169295"><ele>506.6666666666667</ele><time>2026-04-09T12:32:36.906Z</time></trkpt><trkpt lat="44.1783967" lon="11.1691717"><ele>511.0</ele><time>2026-04-09T12:32:37.906Z</time></trkpt><trkpt lat="44.1785433" lon="11.1690567"><ele>509.25</ele><time>2026-04-09T12:32:38.906Z</time></trkpt><trkpt lat="44.1786767" lon="11.1689533"><ele>507.5</ele><time>2026-04-09T12:32:39.905Z</time></trkpt><trkpt lat="44.1788083" lon="11.1688633"><ele>505.75</ele><time>2026-04-09T12:32:40.905Z</time></trkpt><trkpt lat="44.1789483" lon="11.1688017"><ele>504.0</ele><time>2026-04-09T12:32:41.905Z</time></trkpt><trkpt lat="44.1792467" lon="11.1687433"><ele>504.0</ele><time>2026-04-09T12:32:43.905Z</time></trkpt><trkpt lat="44.1794067" lon="11.1687217"><ele>504.0</ele><time>2026-04-09T12:32:44.905Z</time></trkpt><trkpt lat="44.1795617" lon="11.1687017"><ele>504.0</ele><time>2026-04-09T12:32:45.905Z</time></trkpt><trkpt lat="44.17972" lon="11.1686617"><ele>506.33333333333337</ele><time>2026-04-09T12:32:46.905Z</time></trkpt><trkpt lat="44.179865" lon="11.168585"><ele>508.6666666666667</ele><time>2026-04-09T12:32:47.905Z</time></trkpt><trkpt lat="44.1800033" lon="11.168475"><ele>511.0</ele><time>2026-04-09T12:32:48.905Z</time></trkpt><trkpt lat="44.1801317" lon="11.1683717"><ele>511.0</ele><time>2026-04-09T12:32:49.905Z</time></trkpt><trkpt lat="44.1802617" lon="11.1682933"><ele>511.0</ele><time>2026-04-09T12:32:50.905Z</time></trkpt><trkpt lat="44.1803967" lon="11.1682283"><ele>511.0</ele><time>2026-04-09T12:32:51.905Z</time></trkpt><trkpt lat="44.180535" lon="11.1681867"><ele>511.0</ele><time>2026-04-09T12:32:52.905Z</time></trkpt><trkpt lat="44.1806767" lon="11.1681583"><ele>512.25</ele><time>2026-04-09T12:32:53.905Z</time></trkpt><trkpt lat="44.1808167" lon="11.1681567"><ele>513.5</ele><time>2026-04-09T12:32:54.905Z</time></trkpt><trkpt lat="44.18096" lon="11.1681883"><ele>514.75</ele><time>2026-04-09T12:32:55.906Z</time></trkpt><trkpt lat="44.1810983" lon="11.1682533"><ele>516.0</ele><time>2026-04-09T12:32:56.905Z</time></trkpt><trkpt lat="44.1812333" lon="11.1683533"><ele>516.0</ele><time>2026-04-09T12:32:57.905Z</time></trkpt><trkpt lat="44.1813583" lon="11.1684833"><ele>516.0</ele><time>2026-04-09T12:32:58.905Z</time></trkpt><trkpt lat="44.1814867" lon="11.16861"><ele>516.0</ele><time>2026-04-09T12:32:59.905Z</time></trkpt><trkpt lat="44.1816167" lon="11.1687067"><ele>513.6666666666666</ele><time>2026-04-09T12:33:00.906Z</time></trkpt><trkpt lat="44.1817667" lon="11.1687683"><ele>511.3333333333333</ele><time>2026-04-09T12:33:01.905Z</time></trkpt><trkpt lat="44.18192" lon="11.1688083"><ele>509.0</ele><time>2026-04-09T12:33:02.906Z</time></trkpt><trkpt lat="44.1822017" lon="11.1688567"><ele>509.0</ele><time>2026-04-09T12:33:04.906Z</time></trkpt><trkpt lat="44.1823183" lon="11.1688967"><ele>509.0</ele><time>2026-04-09T12:33:05.905Z</time></trkpt><trkpt lat="44.1824133" lon="11.1689617"><ele>509.0</ele><time>2026-04-09T12:33:06.905Z</time></trkpt><trkpt lat="44.18248" lon="11.1690683"><ele>509.0</ele><time>2026-04-09T12:33:07.906Z</time></trkpt><trkpt lat="44.18252" lon="11.169215"><ele>509.0</ele><time>2026-04-09T12:33:08.905Z</time></trkpt><trkpt lat="44.1825533" lon="11.1693817"><ele>511.0</ele><time>2026-04-09T12:33:09.905Z</time></trkpt><trkpt lat="44.1825967" lon="11.1695483"><ele>513.0</ele><time>2026-04-09T12:33:10.905Z</time></trkpt><trkpt lat="44.1826717" lon="11.1696983"><ele>515.0</ele><time>2026-04-09T12:33:11.905Z</time></trkpt><trkpt lat="44.182765" lon="11.1698117"><ele>517.0</ele><time>2026-04-09T12:33:12.905Z</time></trkpt><trkpt lat="44.1828833" lon="11.1698717"><ele>518.75</ele><time>2026-04-09T12:33:13.905Z</time></trkpt><trkpt lat="44.183025" lon="11.1699"><ele>520.5</ele><time>2026-04-09T12:33:14.905Z</time></trkpt><trkpt lat="44.18318" lon="11.1698883"><ele>522.25</ele><time>2026-04-09T12:33:15.905Z</time></trkpt><trkpt lat="44.183325" lon="11.1698583"><ele>524.0</ele><time>2026-04-09T12:33:16.906Z</time></trkpt><trkpt lat="44.1834717" lon="11.169825"><ele>523.25</ele><time>2026-04-09T12:33:17.905Z</time></trkpt><trkpt lat="44.18361" lon="11.1698133"><ele>522.5</ele><time>2026-04-09T12:33:18.905Z</time></trkpt><trkpt lat="44.1837467" lon="11.1698317"><ele>521.75</ele><time>2026-04-09T12:33:19.905Z</time></trkpt><trkpt lat="44.1838917" lon="11.1698883"><ele>521.0</ele><time>2026-04-09T12:33:20.906Z</time></trkpt><trkpt lat="44.1840467" lon="11.1699467"><ele>521.0</ele><time>2026-04-09T12:33:21.905Z</time></trkpt><trkpt lat="44.184205" lon="11.1699717"><ele>521.0</ele><time>2026-04-09T12:33:22.905Z</time></trkpt><trkpt lat="44.184365" lon="11.16997"><ele>521.0</ele><time>2026-04-09T12:33:23.905Z</time></trkpt><trkpt lat="44.1846567" lon="11.1700017"><ele>521.0</ele><time>2026-04-09T12:33:25.905Z</time></trkpt><trkpt lat="44.184795" lon="11.17006"><ele>521.0</ele><time>2026-04-09T12:33:26.905Z</time></trkpt><trkpt lat="44.18494" lon="11.17013"><ele>521.0</ele><time>2026-04-09T12:33:27.905Z</time></trkpt><trkpt lat="44.1850833" lon="11.1702033"><ele>520.0</ele><time>2026-04-09T12:33:28.905Z</time></trkpt><trkpt lat="44.18522" lon="11.1702683"><ele>519.0</ele><time>2026-04-09T12:33:29.906Z</time></trkpt><trkpt lat="44.1853617" lon="11.17035"><ele>518.0</ele><time>2026-04-09T12:33:30.905Z</time></trkpt><trkpt lat="44.1854867" lon="11.1704067"><ele>517.0</ele><time>2026-04-09T12:33:31.905Z</time></trkpt><trkpt lat="44.1856067" lon="11.1704767"><ele>518.25</ele><time>2026-04-09T12:33:32.905Z</time></trkpt><trkpt lat="44.1857183" lon="11.1705567"><ele>519.5</ele><time>2026-04-09T12:33:33.905Z</time></trkpt><trkpt lat="44.1858167" lon="11.1706517"><ele>520.75</ele><time>2026-04-09T12:33:34.905Z</time></trkpt><trkpt lat="44.1859033" lon="11.1707783"><ele>522.0</ele><time>2026-04-09T12:33:35.905Z</time></trkpt><trkpt lat="44.186" lon="11.1709433"><ele>522.0</ele><time>2026-04-09T12:33:36.906Z</time></trkpt><trkpt lat="44.1861033" lon="11.171135"><ele>522.0</ele><time>2026-04-09T12:33:37.905Z</time></trkpt><trkpt lat="44.18621" lon="11.1713217"><ele>522.0</ele><time>2026-04-09T12:33:38.905Z</time></trkpt><trkpt lat="44.18633" lon="11.1714917"><ele>521.75</ele><time>2026-04-09T12:33:39.905Z</time></trkpt><trkpt lat="44.186445" lon="11.171635"><ele>521.5</ele><time>2026-04-09T12:33:40.905Z</time></trkpt><trkpt lat="44.186555" lon="11.1717467"><ele>521.25</ele><time>2026-04-09T12:33:41.905Z</time></trkpt><trkpt lat="44.1866533" lon="11.1718167"><ele>521.0</ele><time>2026-04-09T12:33:42.905Z</time></trkpt><trkpt lat="44.1867617" lon="11.1718367"><ele>521.0</ele><time>2026-04-09T12:33:43.905Z</time></trkpt><trkpt lat="44.1868817" lon="11.1718183"><ele>521.0</ele><time>2026-04-09T12:33:44.905Z</time></trkpt><trkpt lat="44.18715" lon="11.1717317"><ele>521.0</ele><time>2026-04-09T12:33:46.905Z</time></trkpt><trkpt lat="44.1872983" lon="11.1717017"><ele>519.3333333333333</ele><time>2026-04-09T12:33:47.905Z</time></trkpt><trkpt lat="44.1874567" lon="11.171685"><ele>517.6666666666666</ele><time>2026-04-09T12:33:48.905Z</time></trkpt><trkpt lat="44.187625" lon="11.171685"><ele>516.0</ele><time>2026-04-09T12:33:49.905Z</time></trkpt><trkpt lat="44.1877933" lon="11.1716933"><ele>516.0</ele><time>2026-04-09T12:33:50.905Z</time></trkpt><trkpt lat="44.18795" lon="11.1716883"><ele>516.0</ele><time>2026-04-09T12:33:51.905Z</time></trkpt><trkpt lat="44.1881067" lon="11.1716483"><ele>516.0</ele><time>2026-04-09T12:33:52.905Z</time></trkpt><trkpt lat="44.1882567" lon="11.17158"><ele>513.0</ele><time>2026-04-09T12:33:53.905Z</time></trkpt><trkpt lat="44.1883817" lon="11.171465"><ele>510.0</ele><time>2026-04-09T12:33:54.905Z</time></trkpt><trkpt lat="44.188505" lon="11.171325"><ele>507.0</ele><time>2026-04-09T12:33:55.905Z</time></trkpt><trkpt lat="44.18862" lon="11.17118"><ele>507.0</ele><time>2026-04-09T12:33:56.905Z</time></trkpt><trkpt lat="44.1887283" lon="11.1710583"><ele>507.0</ele><time>2026-04-09T12:33:57.905Z</time></trkpt><trkpt lat="44.18883" lon="11.170975"><ele>507.0</ele><time>2026-04-09T12:33:58.905Z</time></trkpt><trkpt lat="44.18894" lon="11.1709117"><ele>507.0</ele><time>2026-04-09T12:33:59.906Z</time></trkpt><trkpt lat="44.1890667" lon="11.170885"><ele>507.5</ele><time>2026-04-09T12:34:00.905Z</time></trkpt><trkpt lat="44.1891933" lon="11.1708633"><ele>508.0</ele><time>2026-04-09T12:34:01.906Z</time></trkpt><trkpt lat="44.18932" lon="11.1708367"><ele>508.5</ele><time>2026-04-09T12:34:02.906Z</time></trkpt><trkpt lat="44.1894467" lon="11.170835"><ele>509.0</ele><time>2026-04-09T12:34:03.906Z</time></trkpt><trkpt lat="44.1895717" lon="11.1708567"><ele>509.0</ele><time>2026-04-09T12:34:04.906Z</time></trkpt><trkpt lat="44.1896917" lon="11.1709117"><ele>509.0</ele><time>2026-04-09T12:34:05.905Z</time></trkpt><trkpt lat="44.189925" lon="11.17108"><ele>509.0</ele><time>2026-04-09T12:34:07.905Z</time></trkpt><trkpt lat="44.190035" lon="11.1712"><ele>507.3333333333333</ele><time>2026-04-09T12:34:08.905Z</time></trkpt><trkpt lat="44.190155" lon="11.1713283"><ele>505.66666666666663</ele><time>2026-04-09T12:34:09.905Z</time></trkpt><trkpt lat="44.19028" lon="11.1714633"><ele>504.0</ele><time>2026-04-09T12:34:10.905Z</time></trkpt><trkpt lat="44.1904117" lon="11.1716083"><ele>503.0</ele><time>2026-04-09T12:34:11.905Z</time></trkpt><trkpt lat="44.1905367" lon="11.1717517"><ele>502.0</ele><time>2026-04-09T12:34:12.905Z</time></trkpt><trkpt lat="44.1906583" lon="11.1718867"><ele>501.0</ele><time>2026-04-09T12:34:13.905Z</time></trkpt><trkpt lat="44.1907717" lon="11.1720167"><ele>501.0</ele><time>2026-04-09T12:34:14.906Z</time></trkpt><trkpt lat="44.19088" lon="11.1721283"><ele>501.0</ele><time>2026-04-09T12:34:15.905Z</time></trkpt><trkpt lat="44.1909867" lon="11.1722067"><ele>501.0</ele><time>2026-04-09T12:34:16.906Z</time></trkpt><trkpt lat="44.191095" lon="11.1722333"><ele>501.0</ele><time>2026-04-09T12:34:17.905Z</time></trkpt><trkpt lat="44.191215" lon="11.172215"><ele>501.0</ele><time>2026-04-09T12:34:18.905Z</time></trkpt><trkpt lat="44.191335" lon="11.17215"><ele>501.0</ele><time>2026-04-09T12:34:19.905Z</time></trkpt><trkpt lat="44.1914583" lon="11.1720517"><ele>501.0</ele><time>2026-04-09T12:34:20.905Z</time></trkpt><trkpt lat="44.1915833" lon="11.1719517"><ele>501.0</ele><time>2026-04-09T12:34:21.905Z</time></trkpt><trkpt lat="44.1917133" lon="11.1718617"><ele>502.0</ele><time>2026-04-09T12:34:22.905Z</time></trkpt><trkpt lat="44.19184" lon="11.1717733"><ele>503.0</ele><time>2026-04-09T12:34:23.906Z</time></trkpt><trkpt lat="44.1919667" lon="11.1717067"><ele>504.0</ele><time>2026-04-09T12:34:24.905Z</time></trkpt><trkpt lat="44.1920883" lon="11.171645"><ele>505.0</ele><time>2026-04-09T12:34:25.906Z</time></trkpt><trkpt lat="44.1922133" lon="11.1715883"><ele>505.33333333333337</ele><time>2026-04-09T12:34:26.906Z</time></trkpt><trkpt lat="44.1924567" lon="11.1715417"><ele>505.66666666666663</ele><time>2026-04-09T12:34:28.906Z</time></trkpt><trkpt lat="44.1925733" lon="11.1715633"><ele>506.0</ele><time>2026-04-09T12:34:29.905Z</time></trkpt><trkpt lat="44.1927" lon="11.171605"><ele>506.0</ele><time>2026-04-09T12:34:30.905Z</time></trkpt><trkpt lat="44.1928383" lon="11.1716483"><ele>506.0</ele><time>2026-04-09T12:34:31.905Z</time></trkpt><trkpt lat="44.1929717" lon="11.17169"><ele>506.0</ele><time>2026-04-09T12:34:32.905Z</time></trkpt><trkpt lat="44.19311" lon="11.17171"><ele>506.0</ele><time>2026-04-09T12:34:33.904Z</time></trkpt><trkpt lat="44.1932533" lon="11.1716783"><ele>506.0</ele><time>2026-04-09T12:34:34.904Z</time></trkpt><trkpt lat="44.1933933" lon="11.171625"><ele>506.0</ele><time>2026-04-09T12:34:35.905Z</time></trkpt><trkpt lat="44.1935367" lon="11.1715483"><ele>506.0</ele><time>2026-04-09T12:34:36.904Z</time></trkpt><trkpt lat="44.1936617" lon="11.1714483"><ele>506.0</ele><time>2026-04-09T12:34:37.904Z</time></trkpt><trkpt lat="44.1937783" lon="11.17131"><ele>505.3333333333333</ele><time>2026-04-09T12:34:38.904Z</time></trkpt><trkpt lat="44.1938967" lon="11.171155"><ele>504.66666666666663</ele><time>2026-04-09T12:34:39.904Z</time></trkpt><trkpt lat="44.1940133" lon="11.1709883"><ele>504.0</ele><time>2026-04-09T12:34:40.905Z</time></trkpt><trkpt lat="44.194125" lon="11.1708033"><ele>500.0</ele><time>2026-04-09T12:34:41.904Z</time></trkpt><trkpt lat="44.19424" lon="11.17063"><ele>496.0</ele><time>2026-04-09T12:34:42.904Z</time></trkpt><trkpt lat="44.1943433" lon="11.1704683"><ele>492.0</ele><time>2026-04-09T12:34:43.904Z</time></trkpt><trkpt lat="44.1944333" lon="11.17032"><ele>492.0</ele><time>2026-04-09T12:34:44.904Z</time></trkpt><trkpt lat="44.1945167" lon="11.1701983"><ele>492.0</ele><time>2026-04-09T12:34:45.905Z</time></trkpt><trkpt lat="44.1945883" lon="11.1700833"><ele>492.0</ele><time>2026-04-09T12:34:46.905Z</time></trkpt><trkpt lat="44.1946717" lon="11.170005"><ele>492.0</ele><time>2026-04-09T12:34:47.904Z</time></trkpt><trkpt lat="44.1949033" lon="11.1699183"><ele>494.33333333333337</ele><time>2026-04-09T12:34:49.904Z</time></trkpt><trkpt lat="44.19505" lon="11.1698867"><ele>496.6666666666667</ele><time>2026-04-09T12:34:50.904Z</time></trkpt><trkpt lat="44.1952117" lon="11.169855"><ele>499.0</ele><time>2026-04-09T12:34:51.905Z</time></trkpt><trkpt lat="44.19536" lon="11.169815"><ele>497.5</ele><time>2026-04-09T12:34:52.904Z</time></trkpt><trkpt lat="44.1954983" lon="11.1697517"><ele>496.0</ele><time>2026-04-09T12:34:53.904Z</time></trkpt><trkpt lat="44.1956283" lon="11.16968"><ele>494.5</ele><time>2026-04-09T12:34:54.905Z</time></trkpt><trkpt lat="44.1957533" lon="11.16959"><ele>493.0</ele><time>2026-04-09T12:34:55.904Z</time></trkpt><trkpt lat="44.1958867" lon="11.1695133"><ele>493.0</ele><time>2026-04-09T12:34:56.904Z</time></trkpt><trkpt lat="44.19602" lon="11.1694483"><ele>493.0</ele><time>2026-04-09T12:34:57.904Z</time></trkpt><trkpt lat="44.1961417" lon="11.1694067"><ele>493.0</ele><time>2026-04-09T12:34:58.904Z</time></trkpt><trkpt lat="44.196275" lon="11.1694"><ele>493.0</ele><time>2026-04-09T12:34:59.904Z</time></trkpt><trkpt lat="44.19642" lon="11.1694067"><ele>494.0</ele><time>2026-04-09T12:35:00.904Z</time></trkpt><trkpt lat="44.1965633" lon="11.1694433"><ele>495.0</ele><time>2026-04-09T12:35:01.904Z</time></trkpt><trkpt lat="44.1966967" lon="11.1694917"><ele>496.0</ele><time>2026-04-09T12:35:02.904Z</time></trkpt><trkpt lat="44.196815" lon="11.169525"><ele>497.0</ele><time>2026-04-09T12:35:03.904Z</time></trkpt><trkpt lat="44.1969367" lon="11.1695283"><ele>497.0</ele><time>2026-04-09T12:35:04.904Z</time></trkpt><trkpt lat="44.197045" lon="11.1694933"><ele>497.0</ele><time>2026-04-09T12:35:05.904Z</time></trkpt><trkpt lat="44.1971267" lon="11.1693917"><ele>497.0</ele><time>2026-04-09T12:35:06.904Z</time></trkpt><trkpt lat="44.1972033" lon="11.1692483"><ele>497.0</ele><time>2026-04-09T12:35:07.905Z</time></trkpt><trkpt lat="44.1972683" lon="11.16908"><ele>497.0</ele><time>2026-04-09T12:35:08.904Z</time></trkpt><trkpt lat="44.1974583" lon="11.1687983"><ele>497.0</ele><time>2026-04-09T12:35:10.904Z</time></trkpt><trkpt lat="44.19758" lon="11.1686667"><ele>497.0</ele><time>2026-04-09T12:35:11.904Z</time></trkpt><trkpt lat="44.197705" lon="11.168555"><ele>497.0</ele><time>2026-04-09T12:35:12.904Z</time></trkpt><trkpt lat="44.1978267" lon="11.16845"><ele>497.0</ele><time>2026-04-09T12:35:13.904Z</time></trkpt><trkpt lat="44.1979433" lon="11.1683617"><ele>497.0</ele><time>2026-04-09T12:35:14.904Z</time></trkpt><trkpt lat="44.1980583" lon="11.168295"><ele>497.0</ele><time>2026-04-09T12:35:15.904Z</time></trkpt><trkpt lat="44.1981817" lon="11.168245"><ele>499.0</ele><time>2026-04-09T12:35:16.904Z</time></trkpt><trkpt lat="44.1983017" lon="11.168205"><ele>501.0</ele><time>2026-04-09T12:35:17.905Z</time></trkpt><trkpt lat="44.1984167" lon="11.1681667"><ele>503.0</ele><time>2026-04-09T12:35:18.904Z</time></trkpt><trkpt lat="44.1985283" lon="11.1681267"><ele>505.0</ele><time>2026-04-09T12:35:19.904Z</time></trkpt><trkpt lat="44.198635" lon="11.1681"><ele>504.0</ele><time>2026-04-09T12:35:20.904Z</time></trkpt><trkpt lat="44.1987467" lon="11.16808"><ele>503.0</ele><time>2026-04-09T12:35:21.904Z</time></trkpt><trkpt lat="44.1988567" lon="11.1680717"><ele>502.0</ele><time>2026-04-09T12:35:22.904Z</time></trkpt><trkpt lat="44.1989617" lon="11.168095"><ele>501.0</ele><time>2026-04-09T12:35:23.905Z</time></trkpt><trkpt lat="44.199065" lon="11.168135"><ele>500.0</ele><time>2026-04-09T12:35:24.904Z</time></trkpt><trkpt lat="44.19917" lon="11.1682067"><ele>500.0</ele><time>2026-04-09T12:35:25.904Z</time></trkpt><trkpt lat="44.199285" lon="11.1683017"><ele>500.0</ele><time>2026-04-09T12:35:26.905Z</time></trkpt><trkpt lat="44.1994083" lon="11.1684167"><ele>500.0</ele><time>2026-04-09T12:35:27.904Z</time></trkpt><trkpt lat="44.1995317" lon="11.1685583"><ele>500.0</ele><time>2026-04-09T12:35:28.904Z</time></trkpt><trkpt lat="44.19965" lon="11.1686983"><ele>500.0</ele><time>2026-04-09T12:35:29.905Z</time></trkpt><trkpt lat="44.1998267" lon="11.1689467"><ele>500.0</ele><time>2026-04-09T12:35:31.904Z</time></trkpt><trkpt lat="44.1999083" lon="11.1690417"><ele>500.0</ele><time>2026-04-09T12:35:32.905Z</time></trkpt><trkpt lat="44.1999983" lon="11.1691467"><ele>501.66666666666663</ele><time>2026-04-09T12:35:33.904Z</time></trkpt><trkpt lat="44.2001183" lon="11.1692517"><ele>503.33333333333337</ele><time>2026-04-09T12:35:34.905Z</time></trkpt><trkpt lat="44.2002483" lon="11.1693633"><ele>505.0</ele><time>2026-04-09T12:35:35.904Z</time></trkpt><trkpt lat="44.20039" lon="11.1694717"><ele>505.0</ele><time>2026-04-09T12:35:36.905Z</time></trkpt><trkpt lat="44.20053" lon="11.1695917"><ele>505.0</ele><time>2026-04-09T12:35:37.904Z</time></trkpt><trkpt lat="44.200685" lon="11.1697033"><ele>505.0</ele><time>2026-04-09T12:35:38.904Z</time></trkpt><trkpt lat="44.2008317" lon="11.169805"><ele>506.6666666666667</ele><time>2026-04-09T12:35:39.905Z</time></trkpt><trkpt lat="44.2009717" lon="11.1699067"><ele>508.33333333333337</ele><time>2026-04-09T12:35:40.904Z</time></trkpt><trkpt lat="44.2011167" lon="11.1699867"><ele>510.0</ele><time>2026-04-09T12:35:41.904Z</time></trkpt><trkpt lat="44.201265" lon="11.1700517"><ele>510.0</ele><time>2026-04-09T12:35:42.904Z</time></trkpt><trkpt lat="44.2014133" lon="11.17009"><ele>510.0</ele><time>2026-04-09T12:35:43.904Z</time></trkpt><trkpt lat="44.201565" lon="11.1700983"><ele>510.0</ele><time>2026-04-09T12:35:44.905Z</time></trkpt><trkpt lat="44.2017217" lon="11.17008"><ele>503.66666666666663</ele><time>2026-04-09T12:35:45.904Z</time></trkpt><trkpt lat="44.2018683" lon="11.170025"><ele>497.3333333333333</ele><time>2026-04-09T12:35:46.905Z</time></trkpt><trkpt lat="44.2020133" lon="11.16994"><ele>491.0</ele><time>2026-04-09T12:35:47.904Z</time></trkpt><trkpt lat="44.2021367" lon="11.1698333"><ele>489.0</ele><time>2026-04-09T12:35:48.904Z</time></trkpt><trkpt lat="44.20225" lon="11.1697167"><ele>487.0</ele><time>2026-04-09T12:35:49.904Z</time></trkpt><trkpt lat="44.20235" lon="11.1695833"><ele>485.0</ele><time>2026-04-09T12:35:50.905Z</time></trkpt><trkpt lat="44.2025517" lon="11.1694"><ele>485.0</ele><time>2026-04-09T12:35:52.904Z</time></trkpt><trkpt lat="44.2026617" lon="11.1693583"><ele>485.0</ele><time>2026-04-09T12:35:53.904Z</time></trkpt><trkpt lat="44.2027817" lon="11.1693583"><ele>485.0</ele><time>2026-04-09T12:35:54.904Z</time></trkpt><trkpt lat="44.20291" lon="11.1693783"><ele>485.0</ele><time>2026-04-09T12:35:55.905Z</time></trkpt><trkpt lat="44.203045" lon="11.169425"><ele>485.5</ele><time>2026-04-09T12:35:56.905Z</time></trkpt><trkpt lat="44.2031767" lon="11.1694583"><ele>486.0</ele><time>2026-04-09T12:35:57.904Z</time></trkpt><trkpt lat="44.2033" lon="11.16946"><ele>486.5</ele><time>2026-04-09T12:35:58.905Z</time></trkpt><trkpt lat="44.2034217" lon="11.169435"><ele>487.0</ele><time>2026-04-09T12:35:59.904Z</time></trkpt><trkpt lat="44.2035367" lon="11.1693617"><ele>487.0</ele><time>2026-04-09T12:36:00.904Z</time></trkpt><trkpt lat="44.20364" lon="11.16923"><ele>487.0</ele><time>2026-04-09T12:36:01.904Z</time></trkpt><trkpt lat="44.20375" lon="11.16906"><ele>487.0</ele><time>2026-04-09T12:36:02.905Z</time></trkpt><trkpt lat="44.203855" lon="11.1688833"><ele>487.0</ele><time>2026-04-09T12:36:03.904Z</time></trkpt><trkpt lat="44.2039517" lon="11.1687217"><ele>487.0</ele><time>2026-04-09T12:36:04.904Z</time></trkpt><trkpt lat="44.204045" lon="11.1685583"><ele>487.0</ele><time>2026-04-09T12:36:05.904Z</time></trkpt><trkpt lat="44.2041417" lon="11.1683917"><ele>487.0</ele><time>2026-04-09T12:36:06.905Z</time></trkpt><trkpt lat="44.204235" lon="11.1682283"><ele>487.0</ele><time>2026-04-09T12:36:07.904Z</time></trkpt><trkpt lat="44.2043283" lon="11.16807"><ele>487.0</ele><time>2026-04-09T12:36:08.904Z</time></trkpt><trkpt lat="44.204425" lon="11.16795"><ele>487.0</ele><time>2026-04-09T12:36:09.904Z</time></trkpt><trkpt lat="44.20453" lon="11.1678683"><ele>484.0</ele><time>2026-04-09T12:36:10.904Z</time></trkpt><trkpt lat="44.2046517" lon="11.167835"><ele>481.0</ele><time>2026-04-09T12:36:11.904Z</time></trkpt><trkpt lat="44.2049367" lon="11.1678883"><ele>478.0</ele><time>2026-04-09T12:36:13.904Z</time></trkpt><trkpt lat="44.2050867" lon="11.16793"><ele>476.75</ele><time>2026-04-09T12:36:14.904Z</time></trkpt><trkpt lat="44.2052317" lon="11.1679467"><ele>475.5</ele><time>2026-04-09T12:36:15.904Z</time></trkpt><trkpt lat="44.205375" lon="11.1679433"><ele>474.25</ele><time>2026-04-09T12:36:16.904Z</time></trkpt><trkpt lat="44.2055083" lon="11.16791"><ele>473.0</ele><time>2026-04-09T12:36:17.904Z</time></trkpt><trkpt lat="44.2056317" lon="11.167855"><ele>473.5</ele><time>2026-04-09T12:36:18.904Z</time></trkpt><trkpt lat="44.2057533" lon="11.16779"><ele>474.0</ele><time>2026-04-09T12:36:19.905Z</time></trkpt><trkpt lat="44.2058717" lon="11.16771"><ele>474.5</ele><time>2026-04-09T12:36:20.904Z</time></trkpt><trkpt lat="44.20599" lon="11.167625"><ele>475.0</ele><time>2026-04-09T12:36:21.905Z</time></trkpt><trkpt lat="44.2061033" lon="11.16755"><ele>475.0</ele><time>2026-04-09T12:36:22.904Z</time></trkpt><trkpt lat="44.2062267" lon="11.1674733"><ele>475.0</ele><time>2026-04-09T12:36:23.904Z</time></trkpt><trkpt lat="44.2063533" lon="11.16738"><ele>475.0</ele><time>2026-04-09T12:36:24.904Z</time></trkpt><trkpt lat="44.206485" lon="11.1672717"><ele>475.0</ele><time>2026-04-09T12:36:25.904Z</time></trkpt><trkpt lat="44.206605" lon="11.167145"><ele>472.5</ele><time>2026-04-09T12:36:26.905Z</time></trkpt><trkpt lat="44.2067183" lon="11.1670183"><ele>470.0</ele><time>2026-04-09T12:36:27.904Z</time></trkpt><trkpt lat="44.206825" lon="11.1668967"><ele>467.5</ele><time>2026-04-09T12:36:28.905Z</time></trkpt><trkpt lat="44.2069283" lon="11.1667717"><ele>465.0</ele><time>2026-04-09T12:36:29.904Z</time></trkpt><trkpt lat="44.2070167" lon="11.1666333"><ele>467.33333333333337</ele><time>2026-04-09T12:36:30.904Z</time></trkpt><trkpt lat="44.20711" lon="11.166515"><ele>469.6666666666667</ele><time>2026-04-09T12:36:31.904Z</time></trkpt><trkpt lat="44.2071933" lon="11.1663883"><ele>472.0</ele><time>2026-04-09T12:36:32.904Z</time></trkpt><trkpt lat="44.2073333" lon="11.16611"><ele>472.0</ele><time>2026-04-09T12:36:34.904Z</time></trkpt><trkpt lat="44.207385" lon="11.1659717"><ele>472.00000000000006</ele><time>2026-04-09T12:36:35.904Z</time></trkpt><trkpt lat="44.2074167" lon="11.1658267"><ele>472.00000000000006</ele><time>2026-04-09T12:36:36.905Z</time></trkpt><trkpt lat="44.2074567" lon="11.1656933"><ele>472.0</ele><time>2026-04-09T12:36:37.904Z</time></trkpt><trkpt lat="44.20751" lon="11.1655683"><ele>472.0</ele><time>2026-04-09T12:36:38.905Z</time></trkpt><trkpt lat="44.20758" lon="11.1654633"><ele>465.25</ele><time>2026-04-09T12:36:39.904Z</time></trkpt><trkpt lat="44.20767" lon="11.1653833"><ele>458.5</ele><time>2026-04-09T12:36:40.904Z</time></trkpt><trkpt lat="44.2077833" lon="11.1653133"><ele>451.75</ele><time>2026-04-09T12:36:41.904Z</time></trkpt><trkpt lat="44.2079233" lon="11.1652767"><ele>445.0</ele><time>2026-04-09T12:36:42.905Z</time></trkpt><trkpt lat="44.2081" lon="11.1652867"><ele>448.33333333333337</ele><time>2026-04-09T12:36:43.905Z</time></trkpt><trkpt lat="44.208305" lon="11.165285"><ele>451.66666666666663</ele><time>2026-04-09T12:36:44.904Z</time></trkpt><trkpt lat="44.2085267" lon="11.16528"><ele>455.0</ele><time>2026-04-09T12:36:45.904Z</time></trkpt><trkpt lat="44.2087317" lon="11.1652683"><ele>455.0</ele><time>2026-04-09T12:36:46.904Z</time></trkpt><trkpt lat="44.2089117" lon="11.165255"><ele>455.0</ele><time>2026-04-09T12:36:47.904Z</time></trkpt><trkpt lat="44.2090633" lon="11.165265"><ele>455.0</ele><time>2026-04-09T12:36:48.904Z</time></trkpt><trkpt lat="44.209195" lon="11.1653"><ele>454.75</ele><time>2026-04-09T12:36:49.905Z</time></trkpt><trkpt lat="44.2093267" lon="11.1653667"><ele>454.5</ele><time>2026-04-09T12:36:50.904Z</time></trkpt><trkpt lat="44.2094367" lon="11.1654633"><ele>454.25</ele><time>2026-04-09T12:36:51.904Z</time></trkpt><trkpt lat="44.2095217" lon="11.1656067"><ele>454.0</ele><time>2026-04-09T12:36:52.904Z</time></trkpt><trkpt lat="44.2096" lon="11.1657783"><ele>462.6666666666667</ele><time>2026-04-09T12:36:53.904Z</time></trkpt><trkpt lat="44.2096983" lon="11.1661717"><ele>471.33333333333337</ele><time>2026-04-09T12:36:55.904Z</time></trkpt><trkpt lat="44.2097433" lon="11.1663717"><ele>480.0</ele><time>2026-04-09T12:36:56.904Z</time></trkpt><trkpt lat="44.2097933" lon="11.1665617"><ele>472.0</ele><time>2026-04-09T12:36:57.904Z</time></trkpt><trkpt lat="44.2098783" lon="11.16673"><ele>464.0</ele><time>2026-04-09T12:36:58.904Z</time></trkpt><trkpt lat="44.209985" lon="11.1668817"><ele>456.0</ele><time>2026-04-09T12:36:59.905Z</time></trkpt><trkpt lat="44.21012" lon="11.1670067"><ele>456.0</ele><time>2026-04-09T12:37:00.904Z</time></trkpt><trkpt lat="44.2102583" lon="11.1671233"><ele>456.0</ele><time>2026-04-09T12:37:01.905Z</time></trkpt><trkpt lat="44.2104133" lon="11.1672317"><ele>456.0</ele><time>2026-04-09T12:37:02.904Z</time></trkpt><trkpt lat="44.2105783" lon="11.16733"><ele>453.66666666666663</ele><time>2026-04-09T12:37:03.904Z</time></trkpt><trkpt lat="44.2107517" lon="11.167415"><ele>451.3333333333333</ele><time>2026-04-09T12:37:04.904Z</time></trkpt><trkpt lat="44.2109233" lon="11.1674883"><ele>449.0</ele><time>2026-04-09T12:37:05.904Z</time></trkpt><trkpt lat="44.21109" lon="11.167555"><ele>449.0</ele><time>2026-04-09T12:37:06.904Z</time></trkpt><trkpt lat="44.2112517" lon="11.167625"><ele>449.0</ele><time>2026-04-09T12:37:07.904Z</time></trkpt><trkpt lat="44.2113983" lon="11.1676917"><ele>449.0</ele><time>2026-04-09T12:37:08.904Z</time></trkpt><trkpt lat="44.2115317" lon="11.16775"><ele>447.2</ele><time>2026-04-09T12:37:09.904Z</time></trkpt><trkpt lat="44.2116367" lon="11.1677917"><ele>445.4</ele><time>2026-04-09T12:37:10.905Z</time></trkpt><trkpt lat="44.21173" lon="11.167805"><ele>443.6</ele><time>2026-04-09T12:37:11.904Z</time></trkpt><trkpt lat="44.2118217" lon="11.1677817"><ele>441.8</ele><time>2026-04-09T12:37:12.904Z</time></trkpt><trkpt lat="44.2118867" lon="11.1676967"><ele>440.0</ele><time>2026-04-09T12:37:13.904Z</time></trkpt><trkpt lat="44.2119167" lon="11.1675883"><ele>440.0</ele><time>2026-04-09T12:37:14.904Z</time></trkpt><trkpt lat="44.2118317" lon="11.167375"><ele>440.0</ele><time>2026-04-09T12:37:16.904Z</time></trkpt><trkpt lat="44.211715" lon="11.1672833"><ele>440.0</ele><time>2026-04-09T12:37:17.904Z</time></trkpt><trkpt lat="44.211585" lon="11.1671933"><ele>439.0</ele><time>2026-04-09T12:37:18.905Z</time></trkpt><trkpt lat="44.2114383" lon="11.1671"><ele>438.0</ele><time>2026-04-09T12:37:19.904Z</time></trkpt><trkpt lat="44.2112817" lon="11.1669983"><ele>437.0</ele><time>2026-04-09T12:37:20.904Z</time></trkpt><trkpt lat="44.2111183" lon="11.166895"><ele>437.0</ele><time>2026-04-09T12:37:21.904Z</time></trkpt><trkpt lat="44.2109667" lon="11.1667967"><ele>437.0</ele><time>2026-04-09T12:37:22.904Z</time></trkpt><trkpt lat="44.21082" lon="11.1666933"><ele>437.0</ele><time>2026-04-09T12:37:23.904Z</time></trkpt><trkpt lat="44.2106833" lon="11.16659"><ele>440.0</ele><time>2026-04-09T12:37:24.904Z</time></trkpt><trkpt lat="44.2105617" lon="11.1665"><ele>443.0</ele><time>2026-04-09T12:37:25.904Z</time></trkpt><trkpt lat="44.2104517" lon="11.166415"><ele>446.0</ele><time>2026-04-09T12:37:26.904Z</time></trkpt><trkpt lat="44.2103667" lon="11.1663183"><ele>449.0</ele><time>2026-04-09T12:37:27.904Z</time></trkpt><trkpt lat="44.21031" lon="11.1662117"><ele>449.0</ele><time>2026-04-09T12:37:28.904Z</time></trkpt><trkpt lat="44.210275" lon="11.1660767"><ele>449.0</ele><time>2026-04-09T12:37:29.904Z</time></trkpt><trkpt lat="44.2102733" lon="11.1659467"><ele>449.0</ele><time>2026-04-09T12:37:30.905Z</time></trkpt><trkpt lat="44.2103067" lon="11.1658183"><ele>449.0</ele><time>2026-04-09T12:37:31.905Z</time></trkpt><trkpt lat="44.2103633" lon="11.165705"><ele>449.0</ele><time>2026-04-09T12:37:32.904Z</time></trkpt><trkpt lat="44.2104467" lon="11.1656317"><ele>445.0</ele><time>2026-04-09T12:37:33.905Z</time></trkpt><trkpt lat="44.21055" lon="11.1656067"><ele>441.0</ele><time>2026-04-09T12:37:34.904Z</time></trkpt><trkpt lat="44.210665" lon="11.1656217"><ele>437.0</ele><time>2026-04-09T12:37:35.904Z</time></trkpt><trkpt lat="44.2109367" lon="11.1657267"><ele>435.66666666666663</ele><time>2026-04-09T12:37:37.904Z</time></trkpt><trkpt lat="44.211075" lon="11.1657983"><ele>434.33333333333337</ele><time>2026-04-09T12:37:38.904Z</time></trkpt><trkpt lat="44.2112167" lon="11.1658717"><ele>433.0</ele><time>2026-04-09T12:37:39.904Z</time></trkpt><trkpt lat="44.2113617" lon="11.165935"><ele>431.5</ele><time>2026-04-09T12:37:40.904Z</time></trkpt><trkpt lat="44.211505" lon="11.1659917"><ele>430.0</ele><time>2026-04-09T12:37:41.904Z</time></trkpt><trkpt lat="44.2116367" lon="11.1660367"><ele>428.5</ele><time>2026-04-09T12:37:42.904Z</time></trkpt><trkpt lat="44.21176" lon="11.1660517"><ele>427.0</ele><time>2026-04-09T12:37:43.904Z</time></trkpt><trkpt lat="44.211865" lon="11.1660417"><ele>427.0</ele><time>2026-04-09T12:37:44.904Z</time></trkpt><trkpt lat="44.2119483" lon="11.16597"><ele>427.00000000000006</ele><time>2026-04-09T12:37:45.904Z</time></trkpt><trkpt lat="44.2120017" lon="11.1658533"><ele>427.00000000000006</ele><time>2026-04-09T12:37:46.904Z</time></trkpt><trkpt lat="44.2120217" lon="11.1657017"><ele>427.0</ele><time>2026-04-09T12:37:47.904Z</time></trkpt><trkpt lat="44.2120017" lon="11.1655333"><ele>427.0</ele><time>2026-04-09T12:37:48.905Z</time></trkpt><trkpt lat="44.2119517" lon="11.16535"><ele>424.5</ele><time>2026-04-09T12:37:49.904Z</time></trkpt><trkpt lat="44.21189" lon="11.16517"><ele>422.0</ele><time>2026-04-09T12:37:50.904Z</time></trkpt><trkpt lat="44.2118333" lon="11.1649883"><ele>419.5</ele><time>2026-04-09T12:37:51.904Z</time></trkpt><trkpt lat="44.2117917" lon="11.1648167"><ele>417.0</ele><time>2026-04-09T12:37:52.904Z</time></trkpt><trkpt lat="44.2117767" lon="11.1646617"><ele>414.25</ele><time>2026-04-09T12:37:53.904Z</time></trkpt><trkpt lat="44.2117933" lon="11.1645267"><ele>411.5</ele><time>2026-04-09T12:37:54.904Z</time></trkpt><trkpt lat="44.2118383" lon="11.1644183"><ele>408.75</ele><time>2026-04-09T12:37:55.904Z</time></trkpt><trkpt lat="44.2119117" lon="11.1643567"><ele>406.0</ele><time>2026-04-09T12:37:56.904Z</time></trkpt><trkpt lat="44.2120883" lon="11.1643817"><ele>406.0</ele><time>2026-04-09T12:37:58.904Z</time></trkpt><trkpt lat="44.2121617" lon="11.1644867"><ele>406.0</ele><time>2026-04-09T12:37:59.905Z</time></trkpt><trkpt lat="44.21221" lon="11.16463"><ele>406.0</ele><time>2026-04-09T12:38:00.904Z</time></trkpt><trkpt lat="44.2122417" lon="11.1647967"><ele>406.0</ele><time>2026-04-09T12:38:01.904Z</time></trkpt><trkpt lat="44.2122683" lon="11.1649783"><ele>405.75</ele><time>2026-04-09T12:38:02.904Z</time></trkpt><trkpt lat="44.2123067" lon="11.1651533"><ele>405.5</ele><time>2026-04-09T12:38:03.904Z</time></trkpt><trkpt lat="44.21237" lon="11.165325"><ele>405.25</ele><time>2026-04-09T12:38:04.904Z</time></trkpt><trkpt lat="44.2124683" lon="11.1654783"><ele>405.0</ele><time>2026-04-09T12:38:05.904Z</time></trkpt><trkpt lat="44.2125783" lon="11.1656133"><ele>406.0</ele><time>2026-04-09T12:38:06.904Z</time></trkpt><trkpt lat="44.2126833" lon="11.1657433"><ele>407.0</ele><time>2026-04-09T12:38:07.905Z</time></trkpt><trkpt lat="44.21277" lon="11.1658817"><ele>408.0</ele><time>2026-04-09T12:38:08.904Z</time></trkpt><trkpt lat="44.212825" lon="11.166035"><ele>409.0</ele><time>2026-04-09T12:38:09.904Z</time></trkpt><trkpt lat="44.2128633" lon="11.1662033"><ele>409.0</ele><time>2026-04-09T12:38:10.904Z</time></trkpt><trkpt lat="44.2128833" lon="11.1663733"><ele>409.0</ele><time>2026-04-09T12:38:11.905Z</time></trkpt><trkpt lat="44.2129017" lon="11.1665333"><ele>409.0</ele><time>2026-04-09T12:38:12.905Z</time></trkpt><trkpt lat="44.2129383" lon="11.16667"><ele>409.0</ele><time>2026-04-09T12:38:13.904Z</time></trkpt><trkpt lat="44.2129917" lon="11.16679"><ele>409.0</ele><time>2026-04-09T12:38:14.904Z</time></trkpt><trkpt lat="44.2130617" lon="11.16688"><ele>411.5</ele><time>2026-04-09T12:38:15.904Z</time></trkpt><trkpt lat="44.213155" lon="11.1669167"><ele>414.0</ele><time>2026-04-09T12:38:16.904Z</time></trkpt><trkpt lat="44.2132483" lon="11.1669033"><ele>416.5</ele><time>2026-04-09T12:38:17.905Z</time></trkpt><trkpt lat="44.2133817" lon="11.1666967"><ele>419.0</ele><time>2026-04-09T12:38:19.904Z</time></trkpt><trkpt lat="44.2134017" lon="11.166545"><ele>410.5</ele><time>2026-04-09T12:38:20.904Z</time></trkpt><trkpt lat="44.2133733" lon="11.1663767"><ele>402.0</ele><time>2026-04-09T12:38:21.904Z</time></trkpt><trkpt lat="44.2133283" lon="11.1662067"><ele>393.5</ele><time>2026-04-09T12:38:22.903Z</time></trkpt><trkpt lat="44.2132683" lon="11.1660317"><ele>385.0</ele><time>2026-04-09T12:38:23.903Z</time></trkpt><trkpt lat="44.213215" lon="11.1658633"><ele>385.0</ele><time>2026-04-09T12:38:24.903Z</time></trkpt><trkpt lat="44.2131717" lon="11.1656967"><ele>385.0</ele><time>2026-04-09T12:38:25.903Z</time></trkpt><trkpt lat="44.2131533" lon="11.16553"><ele>385.0</ele><time>2026-04-09T12:38:26.903Z</time></trkpt><trkpt lat="44.2131567" lon="11.1653583"><ele>385.0</ele><time>2026-04-09T12:38:27.903Z</time></trkpt><trkpt lat="44.2131783" lon="11.16519"><ele>384.8</ele><time>2026-04-09T12:38:28.903Z</time></trkpt><trkpt lat="44.21321" lon="11.1650317"><ele>384.6</ele><time>2026-04-09T12:38:29.904Z</time></trkpt><trkpt lat="44.213255" lon="11.1648867"><ele>384.4</ele><time>2026-04-09T12:38:30.903Z</time></trkpt><trkpt lat="44.2133133" lon="11.1647667"><ele>384.2</ele><time>2026-04-09T12:38:31.904Z</time></trkpt><trkpt lat="44.21339" lon="11.1647033"><ele>384.0</ele><time>2026-04-09T12:38:32.904Z</time></trkpt><trkpt lat="44.2134817" lon="11.16469"><ele>384.0</ele><time>2026-04-09T12:38:33.903Z</time></trkpt><trkpt lat="44.213575" lon="11.1647267"><ele>384.0</ele><time>2026-04-09T12:38:34.903Z</time></trkpt><trkpt lat="44.2136617" lon="11.1648183"><ele>384.0</ele><time>2026-04-09T12:38:35.903Z</time></trkpt><trkpt lat="44.2137033" lon="11.1649683"><ele>384.0</ele><time>2026-04-09T12:38:36.903Z</time></trkpt><trkpt lat="44.2137133" lon="11.1651683"><ele>384.0</ele><time>2026-04-09T12:38:37.903Z</time></trkpt><trkpt lat="44.213715" lon="11.1653883"><ele>384.0</ele><time>2026-04-09T12:38:38.903Z</time></trkpt><trkpt lat="44.2137933" lon="11.1658117"><ele>384.33333333333337</ele><time>2026-04-09T12:38:40.903Z</time></trkpt><trkpt lat="44.213865" lon="11.16603"><ele>384.6666666666667</ele><time>2026-04-09T12:38:41.903Z</time></trkpt><trkpt lat="44.2139483" lon="11.16624"><ele>385.0</ele><time>2026-04-09T12:38:42.903Z</time></trkpt><trkpt lat="44.2140333" lon="11.1664383"><ele>381.0</ele><time>2026-04-09T12:38:43.903Z</time></trkpt><trkpt lat="44.2141133" lon="11.16663"><ele>377.0</ele><time>2026-04-09T12:38:44.903Z</time></trkpt><trkpt lat="44.2141867" lon="11.16681"><ele>373.0</ele><time>2026-04-09T12:38:45.903Z</time></trkpt><trkpt lat="44.214255" lon="11.1669633"><ele>369.0</ele><time>2026-04-09T12:38:46.903Z</time></trkpt><trkpt lat="44.2143167" lon="11.1671067"><ele>369.0</ele><time>2026-04-09T12:38:47.904Z</time></trkpt><trkpt lat="44.2143733" lon="11.1672267"><ele>369.0</ele><time>2026-04-09T12:38:48.903Z</time></trkpt><trkpt lat="44.2144167" lon="11.16733"><ele>369.0</ele><time>2026-04-09T12:38:49.904Z</time></trkpt><trkpt lat="44.2144533" lon="11.167415"><ele>369.0</ele><time>2026-04-09T12:38:50.903Z</time></trkpt><trkpt lat="44.2144817" lon="11.1675017"><ele>369.0</ele><time>2026-04-09T12:38:51.904Z</time></trkpt><trkpt lat="44.2145383" lon="11.1676567"><ele>367.6666666666667</ele><time>2026-04-09T12:38:53.903Z</time></trkpt><trkpt lat="44.2145917" lon="11.1677267"><ele>366.3333333333333</ele><time>2026-04-09T12:38:54.903Z</time></trkpt><trkpt lat="44.214665" lon="11.1677617"><ele>365.0</ele><time>2026-04-09T12:38:55.903Z</time></trkpt><trkpt lat="44.2147517" lon="11.1677817"><ele>363.66666666666663</ele><time>2026-04-09T12:38:56.903Z</time></trkpt><trkpt lat="44.214845" lon="11.1678067"><ele>362.3333333333333</ele><time>2026-04-09T12:38:57.904Z</time></trkpt><trkpt lat="44.21495" lon="11.1678667"><ele>361.0</ele><time>2026-04-09T12:38:58.904Z</time></trkpt><trkpt lat="44.2150683" lon="11.167955"><ele>361.0</ele><time>2026-04-09T12:38:59.903Z</time></trkpt><trkpt lat="44.2152983" lon="11.1681683"><ele>361.0</ele><time>2026-04-09T12:39:01.903Z</time></trkpt><trkpt lat="44.2154017" lon="11.1683"><ele>361.0</ele><time>2026-04-09T12:39:02.904Z</time></trkpt><trkpt lat="44.2154883" lon="11.1684633"><ele>360.0</ele><time>2026-04-09T12:39:03.903Z</time></trkpt><trkpt lat="44.2155717" lon="11.1686583"><ele>359.0</ele><time>2026-04-09T12:39:04.903Z</time></trkpt><trkpt lat="44.2156567" lon="11.1688733"><ele>358.0</ele><time>2026-04-09T12:39:05.903Z</time></trkpt><trkpt lat="44.215735" lon="11.169105"><ele>358.0</ele><time>2026-04-09T12:39:06.904Z</time></trkpt><trkpt lat="44.215815" lon="11.1693517"><ele>358.0</ele><time>2026-04-09T12:39:07.903Z</time></trkpt><trkpt lat="44.2159033" lon="11.1695967"><ele>358.0</ele><time>2026-04-09T12:39:08.903Z</time></trkpt><trkpt lat="44.2160033" lon="11.169845"><ele>360.66666666666663</ele><time>2026-04-09T12:39:09.904Z</time></trkpt><trkpt lat="44.2161083" lon="11.170085"><ele>363.3333333333333</ele><time>2026-04-09T12:39:10.903Z</time></trkpt><trkpt lat="44.2162167" lon="11.1703233"><ele>366.0</ele><time>2026-04-09T12:39:11.903Z</time></trkpt><trkpt lat="44.216335" lon="11.1705483"><ele>369.0</ele><time>2026-04-09T12:39:12.904Z</time></trkpt><trkpt lat="44.2164533" lon="11.17078"><ele>372.0</ele><time>2026-04-09T12:39:13.903Z</time></trkpt><trkpt lat="44.21658" lon="11.1710217"><ele>375.0</ele><time>2026-04-09T12:39:14.903Z</time></trkpt><trkpt lat="44.216715" lon="11.17127"><ele>370.0</ele><time>2026-04-09T12:39:15.903Z</time></trkpt><trkpt lat="44.216845" lon="11.17152"><ele>365.0</ele><time>2026-04-09T12:39:16.903Z</time></trkpt><trkpt lat="44.2169717" lon="11.1717583"><ele>360.0</ele><time>2026-04-09T12:39:17.903Z</time></trkpt><trkpt lat="44.2170967" lon="11.1719833"><ele>360.0</ele><time>2026-04-09T12:39:18.903Z</time></trkpt><trkpt lat="44.2172233" lon="11.1722017"><ele>360.0</ele><time>2026-04-09T12:39:19.903Z</time></trkpt><trkpt lat="44.2173383" lon="11.1724167"><ele>360.0</ele><time>2026-04-09T12:39:20.903Z</time></trkpt><trkpt lat="44.2175883" lon="11.1728217"><ele>358.3333333333333</ele><time>2026-04-09T12:39:22.903Z</time></trkpt><trkpt lat="44.2177433" lon="11.1730083"><ele>356.66666666666663</ele><time>2026-04-09T12:39:23.904Z</time></trkpt><trkpt lat="44.2179083" lon="11.1731917"><ele>355.0</ele><time>2026-04-09T12:39:24.903Z</time></trkpt><trkpt lat="44.2180617" lon="11.1733783"><ele>348.0</ele><time>2026-04-09T12:39:25.903Z</time></trkpt><trkpt lat="44.218205" lon="11.173555"><ele>341.0</ele><time>2026-04-09T12:39:26.903Z</time></trkpt><trkpt lat="44.2183283" lon="11.1737333"><ele>334.0</ele><time>2026-04-09T12:39:27.903Z</time></trkpt><trkpt lat="44.2184433" lon="11.17393"><ele>338.3333333333333</ele><time>2026-04-09T12:39:28.903Z</time></trkpt><trkpt lat="44.2185433" lon="11.1741317"><ele>342.6666666666667</ele><time>2026-04-09T12:39:29.903Z</time></trkpt><trkpt lat="44.2186283" lon="11.1743567"><ele>347.0</ele><time>2026-04-09T12:39:30.903Z</time></trkpt><trkpt lat="44.2187" lon="11.1745917"><ele>347.0</ele><time>2026-04-09T12:39:31.904Z</time></trkpt><trkpt lat="44.2187617" lon="11.17483"><ele>347.0</ele><time>2026-04-09T12:39:32.904Z</time></trkpt><trkpt lat="44.2188233" lon="11.1750633"><ele>347.0</ele><time>2026-04-09T12:39:33.903Z</time></trkpt><trkpt lat="44.2188783" lon="11.1752883"><ele>348.0</ele><time>2026-04-09T12:39:34.903Z</time></trkpt><trkpt lat="44.21893" lon="11.1755017"><ele>349.0</ele><time>2026-04-09T12:39:35.903Z</time></trkpt><trkpt lat="44.2189817" lon="11.175705"><ele>350.0</ele><time>2026-04-09T12:39:36.903Z</time></trkpt><trkpt lat="44.219035" lon="11.1758983"><ele>347.6666666666667</ele><time>2026-04-09T12:39:37.903Z</time></trkpt><trkpt lat="44.219085" lon="11.1760967"><ele>345.3333333333333</ele><time>2026-04-09T12:39:38.903Z</time></trkpt><trkpt lat="44.2191367" lon="11.1763"><ele>343.0</ele><time>2026-04-09T12:39:39.903Z</time></trkpt><trkpt lat="44.21918" lon="11.176495"><ele>343.3333333333333</ele><time>2026-04-09T12:39:40.903Z</time></trkpt><trkpt lat="44.219235" lon="11.1766817"><ele>343.6666666666667</ele><time>2026-04-09T12:39:41.903Z</time></trkpt><trkpt lat="44.2193667" lon="11.177065"><ele>344.0</ele><time>2026-04-09T12:39:43.903Z</time></trkpt><trkpt lat="44.2194533" lon="11.1772533"><ele>346.33333333333337</ele><time>2026-04-09T12:39:44.903Z</time></trkpt><trkpt lat="44.21956" lon="11.1774317"><ele>348.6666666666667</ele><time>2026-04-09T12:39:45.903Z</time></trkpt><trkpt lat="44.2196867" lon="11.1775983"><ele>351.0</ele><time>2026-04-09T12:39:46.903Z</time></trkpt><trkpt lat="44.219815" lon="11.177765"><ele>346.6666666666667</ele><time>2026-04-09T12:39:47.903Z</time></trkpt><trkpt lat="44.2199467" lon="11.1779233"><ele>342.33333333333337</ele><time>2026-04-09T12:39:48.903Z</time></trkpt><trkpt lat="44.2200667" lon="11.1781"><ele>338.0</ele><time>2026-04-09T12:39:49.903Z</time></trkpt><trkpt lat="44.2201767" lon="11.1782733"><ele>338.0</ele><time>2026-04-09T12:39:50.903Z</time></trkpt><trkpt lat="44.2202767" lon="11.17846"><ele>338.0</ele><time>2026-04-09T12:39:51.903Z</time></trkpt><trkpt lat="44.2203633" lon="11.1786467"><ele>338.0</ele><time>2026-04-09T12:39:52.904Z</time></trkpt><trkpt lat="44.2204417" lon="11.178825"><ele>338.0</ele><time>2026-04-09T12:39:53.903Z</time></trkpt><trkpt lat="44.2205133" lon="11.178985"><ele>338.0</ele><time>2026-04-09T12:39:54.903Z</time></trkpt><trkpt lat="44.2205733" lon="11.1791217"><ele>338.0</ele><time>2026-04-09T12:39:55.903Z</time></trkpt><trkpt lat="44.220635" lon="11.1792433"><ele>338.0</ele><time>2026-04-09T12:39:56.903Z</time></trkpt><trkpt lat="44.2207117" lon="11.1793633"><ele>333.33333333333337</ele><time>2026-04-09T12:39:57.903Z</time></trkpt><trkpt lat="44.220825" lon="11.1794633"><ele>328.6666666666667</ele><time>2026-04-09T12:39:58.903Z</time></trkpt><trkpt lat="44.2209617" lon="11.1795667"><ele>324.0</ele><time>2026-04-09T12:39:59.903Z</time></trkpt><trkpt lat="44.2211" lon="11.1796867"><ele>324.0</ele><time>2026-04-09T12:40:00.904Z</time></trkpt><trkpt lat="44.221245" lon="11.179825"><ele>324.0</ele><time>2026-04-09T12:40:01.903Z</time></trkpt><trkpt lat="44.22139" lon="11.179975"><ele>324.0</ele><time>2026-04-09T12:40:02.903Z</time></trkpt><trkpt lat="44.2216817" lon="11.1802167"><ele>323.75</ele><time>2026-04-09T12:40:04.903Z</time></trkpt><trkpt lat="44.22182" lon="11.180325"><ele>323.5</ele><time>2026-04-09T12:40:05.903Z</time></trkpt><trkpt lat="44.22195" lon="11.1804317"><ele>323.25</ele><time>2026-04-09T12:40:06.903Z</time></trkpt><trkpt lat="44.2220667" lon="11.1805267"><ele>323.0</ele><time>2026-04-09T12:40:07.903Z</time></trkpt><trkpt lat="44.222185" lon="11.1805783"><ele>323.0</ele><time>2026-04-09T12:40:08.904Z</time></trkpt><trkpt lat="44.2223133" lon="11.18057"><ele>323.0</ele><time>2026-04-09T12:40:09.903Z</time></trkpt><trkpt lat="44.222455" lon="11.1805133"><ele>323.0</ele><time>2026-04-09T12:40:10.903Z</time></trkpt><trkpt lat="44.2225833" lon="11.1804167"><ele>323.0</ele><time>2026-04-09T12:40:11.904Z</time></trkpt><trkpt lat="44.22271" lon="11.1803167"><ele>321.0</ele><time>2026-04-09T12:40:12.903Z</time></trkpt><trkpt lat="44.2228333" lon="11.1802333"><ele>319.0</ele><time>2026-04-09T12:40:13.904Z</time></trkpt><trkpt lat="44.2229567" lon="11.180175"><ele>317.0</ele><time>2026-04-09T12:40:14.903Z</time></trkpt><trkpt lat="44.2230767" lon="11.1801417"><ele>315.0</ele><time>2026-04-09T12:40:15.903Z</time></trkpt><trkpt lat="44.2231967" lon="11.180155"><ele>313.75</ele><time>2026-04-09T12:40:16.904Z</time></trkpt><trkpt lat="44.2233117" lon="11.1802017"><ele>312.5</ele><time>2026-04-09T12:40:17.903Z</time></trkpt><trkpt lat="44.2234267" lon="11.18028"><ele>311.25</ele><time>2026-04-09T12:40:18.903Z</time></trkpt><trkpt lat="44.2235383" lon="11.1803983"><ele>310.0</ele><time>2026-04-09T12:40:19.903Z</time></trkpt><trkpt lat="44.2236383" lon="11.18054"><ele>310.0</ele><time>2026-04-09T12:40:20.904Z</time></trkpt><trkpt lat="44.2237333" lon="11.1806817"><ele>310.0</ele><time>2026-04-09T12:40:21.903Z</time></trkpt><trkpt lat="44.2238267" lon="11.18082"><ele>310.0</ele><time>2026-04-09T12:40:22.903Z</time></trkpt><trkpt lat="44.2239183" lon="11.1809467"><ele>310.0</ele><time>2026-04-09T12:40:23.903Z</time></trkpt><trkpt lat="44.2241017" lon="11.1811017"><ele>309.0</ele><time>2026-04-09T12:40:25.903Z</time></trkpt><trkpt lat="44.22421" lon="11.1810983"><ele>308.0</ele><time>2026-04-09T12:40:26.904Z</time></trkpt><trkpt lat="44.22434" lon="11.18106"><ele>307.0</ele><time>2026-04-09T12:40:27.903Z</time></trkpt><trkpt lat="44.2244783" lon="11.1810183"><ele>306.0</ele><time>2026-04-09T12:40:28.903Z</time></trkpt><trkpt lat="44.22461" lon="11.1810033"><ele>306.0</ele><time>2026-04-09T12:40:29.903Z</time></trkpt><trkpt lat="44.2247583" lon="11.1809883"><ele>306.0</ele><time>2026-04-09T12:40:30.903Z</time></trkpt><trkpt lat="44.2249083" lon="11.1809717"><ele>306.0</ele><time>2026-04-09T12:40:31.904Z</time></trkpt><trkpt lat="44.22505" lon="11.18096"><ele>306.0</ele><time>2026-04-09T12:40:32.904Z</time></trkpt><trkpt lat="44.2251917" lon="11.1809483"><ele>303.5</ele><time>2026-04-09T12:40:33.904Z</time></trkpt><trkpt lat="44.2253367" lon="11.1809617"><ele>301.0</ele><time>2026-04-09T12:40:34.903Z</time></trkpt><trkpt lat="44.22548" lon="11.1809933"><ele>298.5</ele><time>2026-04-09T12:40:35.903Z</time></trkpt><trkpt lat="44.2256333" lon="11.181035"><ele>296.0</ele><time>2026-04-09T12:40:36.904Z</time></trkpt><trkpt lat="44.2257817" lon="11.18109"><ele>294.33333333333337</ele><time>2026-04-09T12:40:37.903Z</time></trkpt><trkpt lat="44.2259317" lon="11.181175"><ele>292.6666666666667</ele><time>2026-04-09T12:40:38.903Z</time></trkpt><trkpt lat="44.2260867" lon="11.18127"><ele>291.0</ele><time>2026-04-09T12:40:39.903Z</time></trkpt><trkpt lat="44.2262433" lon="11.1813767"><ele>291.0</ele><time>2026-04-09T12:40:40.903Z</time></trkpt><trkpt lat="44.226395" lon="11.181485"><ele>291.0</ele><time>2026-04-09T12:40:41.903Z</time></trkpt><trkpt lat="44.2265367" lon="11.1815767"><ele>291.0</ele><time>2026-04-09T12:40:42.903Z</time></trkpt><trkpt lat="44.226655" lon="11.1816383"><ele>291.5</ele><time>2026-04-09T12:40:43.903Z</time></trkpt><trkpt lat="44.22676" lon="11.18167"><ele>292.0</ele><time>2026-04-09T12:40:44.903Z</time></trkpt><trkpt lat="44.2269417" lon="11.18162"><ele>292.5</ele><time>2026-04-09T12:40:46.903Z</time></trkpt><trkpt lat="44.2270317" lon="11.1815383"><ele>293.0</ele><time>2026-04-09T12:40:47.903Z</time></trkpt><trkpt lat="44.2271233" lon="11.1814333"><ele>293.0</ele><time>2026-04-09T12:40:48.903Z</time></trkpt><trkpt lat="44.2272133" lon="11.18132"><ele>293.0</ele><time>2026-04-09T12:40:49.904Z</time></trkpt><trkpt lat="44.2273133" lon="11.1812133"><ele>293.0</ele><time>2026-04-09T12:40:50.903Z</time></trkpt><trkpt lat="44.227405" lon="11.1811017"><ele>293.0</ele><time>2026-04-09T12:40:51.903Z</time></trkpt><trkpt lat="44.2274917" lon="11.1810183"><ele>295.25</ele><time>2026-04-09T12:40:52.904Z</time></trkpt><trkpt lat="44.2275817" lon="11.18096"><ele>297.5</ele><time>2026-04-09T12:40:53.903Z</time></trkpt><trkpt lat="44.2276917" lon="11.1809517"><ele>299.75</ele><time>2026-04-09T12:40:54.903Z</time></trkpt><trkpt lat="44.2278117" lon="11.1809867"><ele>302.0</ele><time>2026-04-09T12:40:55.903Z</time></trkpt><trkpt lat="44.2279317" lon="11.1810533"><ele>302.0</ele><time>2026-04-09T12:40:56.903Z</time></trkpt><trkpt lat="44.2280583" lon="11.1811267"><ele>302.0</ele><time>2026-04-09T12:40:57.903Z</time></trkpt><trkpt lat="44.2281733" lon="11.181205"><ele>302.0</ele><time>2026-04-09T12:40:58.903Z</time></trkpt><trkpt lat="44.2282933" lon="11.1812567"><ele>302.0</ele><time>2026-04-09T12:40:59.904Z</time></trkpt><trkpt lat="44.2284417" lon="11.181285"><ele>304.0</ele><time>2026-04-09T12:41:00.903Z</time></trkpt><trkpt lat="44.2285983" lon="11.1813017"><ele>306.0</ele><time>2026-04-09T12:41:01.904Z</time></trkpt><trkpt lat="44.2287583" lon="11.18131"><ele>308.0</ele><time>2026-04-09T12:41:02.904Z</time></trkpt><trkpt lat="44.2289183" lon="11.1813133"><ele>309.33333333333337</ele><time>2026-04-09T12:41:03.903Z</time></trkpt><trkpt lat="44.2290683" lon="11.181315"><ele>310.6666666666667</ele><time>2026-04-09T12:41:04.903Z</time></trkpt><trkpt lat="44.2292217" lon="11.1813033"><ele>312.0</ele><time>2026-04-09T12:41:05.903Z</time></trkpt><trkpt lat="44.22952" lon="11.1812433"><ele>312.0</ele><time>2026-04-09T12:41:07.903Z</time></trkpt><trkpt lat="44.22966" lon="11.1812167"><ele>312.0</ele><time>2026-04-09T12:41:08.904Z</time></trkpt><trkpt lat="44.2298" lon="11.1812083"><ele>312.0</ele><time>2026-04-09T12:41:09.904Z</time></trkpt><trkpt lat="44.22994" lon="11.1812117"><ele>312.0</ele><time>2026-04-09T12:41:10.903Z</time></trkpt><trkpt lat="44.23009" lon="11.181235"><ele>312.6666666666667</ele><time>2026-04-09T12:41:11.904Z</time></trkpt><trkpt lat="44.2302383" lon="11.1812733"><ele>313.33333333333337</ele><time>2026-04-09T12:41:12.903Z</time></trkpt><trkpt lat="44.2303883" lon="11.181315"><ele>314.0</ele><time>2026-04-09T12:41:13.903Z</time></trkpt><trkpt lat="44.2305417" lon="11.1813583"><ele>313.0</ele><time>2026-04-09T12:41:14.903Z</time></trkpt><trkpt lat="44.2307017" lon="11.18139"><ele>312.0</ele><time>2026-04-09T12:41:15.904Z</time></trkpt><trkpt lat="44.2308483" lon="11.18142"><ele>311.0</ele><time>2026-04-09T12:41:16.903Z</time></trkpt><trkpt lat="44.2309917" lon="11.1814483"><ele>311.0</ele><time>2026-04-09T12:41:17.903Z</time></trkpt><trkpt lat="44.2311417" lon="11.181465"><ele>311.0</ele><time>2026-04-09T12:41:18.903Z</time></trkpt><trkpt lat="44.231295" lon="11.1814617"><ele>311.0</ele><time>2026-04-09T12:41:19.904Z</time></trkpt><trkpt lat="44.231445" lon="11.18142"><ele>311.0</ele><time>2026-04-09T12:41:20.903Z</time></trkpt><trkpt lat="44.2316033" lon="11.1813383"><ele>311.0</ele><time>2026-04-09T12:41:21.904Z</time></trkpt><trkpt lat="44.2317433" lon="11.1812233"><ele>311.0</ele><time>2026-04-09T12:41:22.903Z</time></trkpt><trkpt lat="44.2318817" lon="11.1811133"><ele>311.0</ele><time>2026-04-09T12:41:23.903Z</time></trkpt><trkpt lat="44.2320217" lon="11.1810117"><ele>311.0</ele><time>2026-04-09T12:41:24.904Z</time></trkpt><trkpt lat="44.232155" lon="11.1809283"><ele>311.0</ele><time>2026-04-09T12:41:25.903Z</time></trkpt><trkpt lat="44.2322833" lon="11.1808883"><ele>311.0</ele><time>2026-04-09T12:41:26.903Z</time></trkpt><trkpt lat="44.2325567" lon="11.1808883"><ele>310.33333333333337</ele><time>2026-04-09T12:41:28.903Z</time></trkpt><trkpt lat="44.2327" lon="11.180925"><ele>309.6666666666667</ele><time>2026-04-09T12:41:29.903Z</time></trkpt><trkpt lat="44.232845" lon="11.1809467"><ele>309.0</ele><time>2026-04-09T12:41:30.904Z</time></trkpt><trkpt lat="44.2330083" lon="11.1809517"><ele>308.0</ele><time>2026-04-09T12:41:31.904Z</time></trkpt><trkpt lat="44.2331767" lon="11.1809533"><ele>307.0</ele><time>2026-04-09T12:41:32.903Z</time></trkpt><trkpt lat="44.23334" lon="11.1809567"><ele>306.0</ele><time>2026-04-09T12:41:33.903Z</time></trkpt><trkpt lat="44.233495" lon="11.1809517"><ele>306.0</ele><time>2026-04-09T12:41:34.903Z</time></trkpt><trkpt lat="44.2336367" lon="11.1809533"><ele>306.0</ele><time>2026-04-09T12:41:35.903Z</time></trkpt><trkpt lat="44.233765" lon="11.1809733"><ele>306.0</ele><time>2026-04-09T12:41:36.903Z</time></trkpt><trkpt lat="44.2338917" lon="11.1810317"><ele>306.0</ele><time>2026-04-09T12:41:37.903Z</time></trkpt><trkpt lat="44.2340083" lon="11.1810867"><ele>307.5</ele><time>2026-04-09T12:41:38.904Z</time></trkpt><trkpt lat="44.2341333" lon="11.1811167"><ele>309.0</ele><time>2026-04-09T12:41:39.903Z</time></trkpt><trkpt lat="44.2342733" lon="11.1811133"><ele>310.5</ele><time>2026-04-09T12:41:40.903Z</time></trkpt><trkpt lat="44.2344183" lon="11.1811"><ele>312.0</ele><time>2026-04-09T12:41:41.903Z</time></trkpt><trkpt lat="44.234565" lon="11.1811083"><ele>312.0</ele><time>2026-04-09T12:41:42.903Z</time></trkpt><trkpt lat="44.2347233" lon="11.181125"><ele>312.0</ele><time>2026-04-09T12:41:43.903Z</time></trkpt><trkpt lat="44.234875" lon="11.1811633"><ele>312.0</ele><time>2026-04-09T12:41:44.903Z</time></trkpt><trkpt lat="44.2350233" lon="11.181205"><ele>313.6666666666667</ele><time>2026-04-09T12:41:45.903Z</time></trkpt><trkpt lat="44.2351633" lon="11.18127"><ele>315.33333333333337</ele><time>2026-04-09T12:41:46.903Z</time></trkpt><trkpt lat="44.23528" lon="11.18137"><ele>317.0</ele><time>2026-04-09T12:41:47.903Z</time></trkpt><trkpt lat="44.2354883" lon="11.1815683"><ele>315.0</ele><time>2026-04-09T12:41:49.903Z</time></trkpt><trkpt lat="44.235585" lon="11.18163"><ele>313.0</ele><time>2026-04-09T12:41:50.903Z</time></trkpt><trkpt lat="44.2357017" lon="11.1816533"><ele>311.0</ele><time>2026-04-09T12:41:51.903Z</time></trkpt><trkpt lat="44.2358367" lon="11.1816233"><ele>309.0</ele><time>2026-04-09T12:41:52.903Z</time></trkpt><trkpt lat="44.2359783" lon="11.1815733"><ele>309.0</ele><time>2026-04-09T12:41:53.904Z</time></trkpt><trkpt lat="44.2361167" lon="11.1815217"><ele>309.0</ele><time>2026-04-09T12:41:54.903Z</time></trkpt><trkpt lat="44.236245" lon="11.1814383"><ele>309.0</ele><time>2026-04-09T12:41:55.903Z</time></trkpt><trkpt lat="44.2363383" lon="11.181335"><ele>309.0</ele><time>2026-04-09T12:41:56.904Z</time></trkpt><trkpt lat="44.23642" lon="11.1812083"><ele>311.0</ele><time>2026-04-09T12:41:57.904Z</time></trkpt><trkpt lat="44.2365033" lon="11.18111"><ele>313.0</ele><time>2026-04-09T12:41:58.904Z</time></trkpt><trkpt lat="44.236595" lon="11.1810517"><ele>315.0</ele><time>2026-04-09T12:41:59.903Z</time></trkpt><trkpt lat="44.2366933" lon="11.1810517"><ele>317.0</ele><time>2026-04-09T12:42:00.903Z</time></trkpt><trkpt lat="44.236805" lon="11.181105"><ele>319.0</ele><time>2026-04-09T12:42:01.903Z</time></trkpt><trkpt lat="44.2369183" lon="11.181185"><ele>319.0</ele><time>2026-04-09T12:42:02.903Z</time></trkpt><trkpt lat="44.2370367" lon="11.181285"><ele>319.0</ele><time>2026-04-09T12:42:03.904Z</time></trkpt><trkpt lat="44.2371633" lon="11.181405"><ele>319.0</ele><time>2026-04-09T12:42:04.904Z</time></trkpt><trkpt lat="44.2372783" lon="11.18155"><ele>319.0</ele><time>2026-04-09T12:42:05.903Z</time></trkpt><trkpt lat="44.2373883" lon="11.1817"><ele>317.66666666666663</ele><time>2026-04-09T12:42:06.903Z</time></trkpt><trkpt lat="44.2374833" lon="11.18186"><ele>316.3333333333333</ele><time>2026-04-09T12:42:07.903Z</time></trkpt><trkpt lat="44.2376" lon="11.1820233"><ele>315.0</ele><time>2026-04-09T12:42:08.903Z</time></trkpt><trkpt lat="44.2378333" lon="11.1823467"><ele>313.6666666666667</ele><time>2026-04-09T12:42:10.903Z</time></trkpt><trkpt lat="44.237955" lon="11.182495"><ele>312.33333333333337</ele><time>2026-04-09T12:42:11.903Z</time></trkpt><trkpt lat="44.2380733" lon="11.182635"><ele>311.0</ele><time>2026-04-09T12:42:12.903Z</time></trkpt><trkpt lat="44.2381883" lon="11.18277"><ele>311.0</ele><time>2026-04-09T12:42:13.903Z</time></trkpt><trkpt lat="44.238295" lon="11.1829"><ele>311.0</ele><time>2026-04-09T12:42:14.904Z</time></trkpt><trkpt lat="44.238385" lon="11.1830367"><ele>311.0</ele><time>2026-04-09T12:42:15.902Z</time></trkpt><trkpt lat="44.2384567" lon="11.1831617"><ele>311.0</ele><time>2026-04-09T12:42:16.903Z</time></trkpt><trkpt lat="44.2385267" lon="11.1832683"><ele>309.0</ele><time>2026-04-09T12:42:17.902Z</time></trkpt><trkpt lat="44.2386167" lon="11.18334"><ele>307.0</ele><time>2026-04-09T12:42:18.903Z</time></trkpt><trkpt lat="44.23873" lon="11.1833733"><ele>305.0</ele><time>2026-04-09T12:42:19.903Z</time></trkpt><trkpt lat="44.2388567" lon="11.183375"><ele>303.0</ele><time>2026-04-09T12:42:20.902Z</time></trkpt><trkpt lat="44.2389833" lon="11.1833417"><ele>303.0</ele><time>2026-04-09T12:42:21.903Z</time></trkpt><trkpt lat="44.2391183" lon="11.183295"><ele>303.0</ele><time>2026-04-09T12:42:22.902Z</time></trkpt><trkpt lat="44.23924" lon="11.18329"><ele>303.0</ele><time>2026-04-09T12:42:23.902Z</time></trkpt><trkpt lat="44.2393433" lon="11.1833033"><ele>303.0</ele><time>2026-04-09T12:42:24.902Z</time></trkpt><trkpt lat="44.2394333" lon="11.1833533"><ele>303.0</ele><time>2026-04-09T12:42:25.902Z</time></trkpt><trkpt lat="44.2395017" lon="11.1834567"><ele>303.0</ele><time>2026-04-09T12:42:26.902Z</time></trkpt><trkpt lat="44.2395717" lon="11.1835933"><ele>303.0</ele><time>2026-04-09T12:42:27.902Z</time></trkpt><trkpt lat="44.2396467" lon="11.1837467"><ele>303.0</ele><time>2026-04-09T12:42:28.902Z</time></trkpt><trkpt lat="44.2397183" lon="11.1838867"><ele>299.6666666666667</ele><time>2026-04-09T12:42:29.902Z</time></trkpt><trkpt lat="44.239905" lon="11.1840733"><ele>296.33333333333337</ele><time>2026-04-09T12:42:31.903Z</time></trkpt><trkpt lat="44.2400317" lon="11.1841283"><ele>293.0</ele><time>2026-04-09T12:42:32.902Z</time></trkpt><trkpt lat="44.240175" lon="11.1841667"><ele>293.0</ele><time>2026-04-09T12:42:33.902Z</time></trkpt><trkpt lat="44.2403367" lon="11.1841967"><ele>293.0</ele><time>2026-04-09T12:42:34.902Z</time></trkpt><trkpt lat="44.24049" lon="11.18422"><ele>293.0</ele><time>2026-04-09T12:42:35.902Z</time></trkpt><trkpt lat="44.2406333" lon="11.1842483"><ele>293.25</ele><time>2026-04-09T12:42:36.902Z</time></trkpt><trkpt lat="44.2407667" lon="11.1843017"><ele>293.5</ele><time>2026-04-09T12:42:37.902Z</time></trkpt><trkpt lat="44.2408983" lon="11.184375"><ele>293.75</ele><time>2026-04-09T12:42:38.902Z</time></trkpt><trkpt lat="44.241025" lon="11.1844867"><ele>294.0</ele><time>2026-04-09T12:42:39.903Z</time></trkpt><trkpt lat="44.24115" lon="11.1846117"><ele>294.0</ele><time>2026-04-09T12:42:40.902Z</time></trkpt><trkpt lat="44.24128" lon="11.184735"><ele>294.0</ele><time>2026-04-09T12:42:41.902Z</time></trkpt><trkpt lat="44.2413983" lon="11.18485"><ele>294.0</ele><time>2026-04-09T12:42:42.902Z</time></trkpt><trkpt lat="44.241505" lon="11.18496"><ele>294.0</ele><time>2026-04-09T12:42:43.903Z</time></trkpt><trkpt lat="44.241615" lon="11.1850567"><ele>292.25</ele><time>2026-04-09T12:42:44.903Z</time></trkpt><trkpt lat="44.2417217" lon="11.1850967"><ele>290.5</ele><time>2026-04-09T12:42:45.902Z</time></trkpt><trkpt lat="44.2418433" lon="11.1851"><ele>288.75</ele><time>2026-04-09T12:42:46.903Z</time></trkpt><trkpt lat="44.241965" lon="11.1850883"><ele>287.0</ele><time>2026-04-09T12:42:47.902Z</time></trkpt><trkpt lat="44.2420867" lon="11.18511"><ele>287.0</ele><time>2026-04-09T12:42:48.902Z</time></trkpt><trkpt lat="44.2421983" lon="11.1851717"><ele>287.0</ele><time>2026-04-09T12:42:49.903Z</time></trkpt><trkpt lat="44.2423017" lon="11.1852417"><ele>287.0</ele><time>2026-04-09T12:42:50.902Z</time></trkpt><trkpt lat="44.2425533" lon="11.1852933"><ele>287.25</ele><time>2026-04-09T12:42:52.902Z</time></trkpt><trkpt lat="44.24269" lon="11.18528"><ele>287.5</ele><time>2026-04-09T12:42:53.902Z</time></trkpt><trkpt lat="44.2428317" lon="11.1852617"><ele>287.75</ele><time>2026-04-09T12:42:54.902Z</time></trkpt><trkpt lat="44.2429617" lon="11.18526"><ele>288.0</ele><time>2026-04-09T12:42:55.902Z</time></trkpt><trkpt lat="44.243085" lon="11.1852933"><ele>288.0</ele><time>2026-04-09T12:42:56.902Z</time></trkpt><trkpt lat="44.2431933" lon="11.185365"><ele>288.0</ele><time>2026-04-09T12:42:57.902Z</time></trkpt><trkpt lat="44.2433" lon="11.1854683"><ele>288.0</ele><time>2026-04-09T12:42:58.902Z</time></trkpt><trkpt lat="44.2434083" lon="11.1855567"><ele>288.0</ele><time>2026-04-09T12:42:59.902Z</time></trkpt><trkpt lat="44.2435333" lon="11.1856033"><ele>288.0</ele><time>2026-04-09T12:43:00.903Z</time></trkpt><trkpt lat="44.2436867" lon="11.1856233"><ele>288.0</ele><time>2026-04-09T12:43:01.902Z</time></trkpt><trkpt lat="44.2438283" lon="11.1856417"><ele>288.0</ele><time>2026-04-09T12:43:02.902Z</time></trkpt><trkpt lat="44.24396" lon="11.1856967"><ele>288.0</ele><time>2026-04-09T12:43:03.903Z</time></trkpt><trkpt lat="44.2440817" lon="11.1857833"><ele>285.75</ele><time>2026-04-09T12:43:04.902Z</time></trkpt><trkpt lat="44.2441833" lon="11.1858817"><ele>283.5</ele><time>2026-04-09T12:43:05.903Z</time></trkpt><trkpt lat="44.24431" lon="11.1859617"><ele>281.25</ele><time>2026-04-09T12:43:06.903Z</time></trkpt><trkpt lat="44.24445" lon="11.1860083"><ele>279.0</ele><time>2026-04-09T12:43:07.902Z</time></trkpt><trkpt lat="44.2446067" lon="11.1860283"><ele>279.0</ele><time>2026-04-09T12:43:08.902Z</time></trkpt><trkpt lat="44.2447633" lon="11.1860233"><ele>279.0</ele><time>2026-04-09T12:43:09.902Z</time></trkpt><trkpt lat="44.2449133" lon="11.1859933"><ele>279.0</ele><time>2026-04-09T12:43:10.902Z</time></trkpt><trkpt lat="44.2450433" lon="11.18592"><ele>279.0</ele><time>2026-04-09T12:43:11.902Z</time></trkpt><trkpt lat="44.2452533" lon="11.1857033"><ele>277.0</ele><time>2026-04-09T12:43:13.902Z</time></trkpt><trkpt lat="44.24535" lon="11.185565"><ele>275.0</ele><time>2026-04-09T12:43:14.902Z</time></trkpt><trkpt lat="44.2454483" lon="11.1854367"><ele>273.0</ele><time>2026-04-09T12:43:15.903Z</time></trkpt><trkpt lat="44.2455467" lon="11.1853217"><ele>271.0</ele><time>2026-04-09T12:43:16.902Z</time></trkpt><trkpt lat="44.2456367" lon="11.185225"><ele>271.0</ele><time>2026-04-09T12:43:17.903Z</time></trkpt><trkpt lat="44.245715" lon="11.1851633"><ele>271.0</ele><time>2026-04-09T12:43:18.903Z</time></trkpt><trkpt lat="44.245795" lon="11.1851483"><ele>271.0</ele><time>2026-04-09T12:43:19.903Z</time></trkpt><trkpt lat="44.2458617" lon="11.18517"><ele>271.0</ele><time>2026-04-09T12:43:20.902Z</time></trkpt><trkpt lat="44.245935" lon="11.1852067"><ele>271.0</ele><time>2026-04-09T12:43:21.902Z</time></trkpt><trkpt lat="44.24601" lon="11.1852783"><ele>271.0</ele><time>2026-04-09T12:43:22.902Z</time></trkpt><trkpt lat="44.2460917" lon="11.18539"><ele>271.0</ele><time>2026-04-09T12:43:23.902Z</time></trkpt><trkpt lat="44.2461817" lon="11.1855033"><ele>271.0</ele><time>2026-04-09T12:43:24.902Z</time></trkpt><trkpt lat="44.2462817" lon="11.1856167"><ele>271.0</ele><time>2026-04-09T12:43:25.902Z</time></trkpt><trkpt lat="44.2463867" lon="11.185735"><ele>271.0</ele><time>2026-04-09T12:43:26.902Z</time></trkpt><trkpt lat="44.2464967" lon="11.18587"><ele>266.66666666666663</ele><time>2026-04-09T12:43:27.902Z</time></trkpt><trkpt lat="44.2466083" lon="11.1860117"><ele>262.3333333333333</ele><time>2026-04-09T12:43:28.903Z</time></trkpt><trkpt lat="44.2467367" lon="11.186165"><ele>258.0</ele><time>2026-04-09T12:43:29.902Z</time></trkpt><trkpt lat="44.2468583" lon="11.18631"><ele>258.0</ele><time>2026-04-09T12:43:30.902Z</time></trkpt><trkpt lat="44.246965" lon="11.1864383"><ele>258.0</ele><time>2026-04-09T12:43:31.902Z</time></trkpt><trkpt lat="44.2470567" lon="11.1865517"><ele>258.0</ele><time>2026-04-09T12:43:32.902Z</time></trkpt><trkpt lat="44.2472317" lon="11.18675"><ele>258.4</ele><time>2026-04-09T12:43:34.902Z</time></trkpt><trkpt lat="44.24731" lon="11.1868483"><ele>258.8</ele><time>2026-04-09T12:43:35.903Z</time></trkpt><trkpt lat="44.2473867" lon="11.1869567"><ele>259.2</ele><time>2026-04-09T12:43:36.902Z</time></trkpt><trkpt lat="44.24746" lon="11.18706"><ele>259.6</ele><time>2026-04-09T12:43:37.902Z</time></trkpt><trkpt lat="44.247545" lon="11.1871717"><ele>260.0</ele><time>2026-04-09T12:43:38.902Z</time></trkpt><trkpt lat="44.2476367" lon="11.1872833"><ele>261.5</ele><time>2026-04-09T12:43:39.902Z</time></trkpt><trkpt lat="44.2477317" lon="11.1873867"><ele>263.0</ele><time>2026-04-09T12:43:40.902Z</time></trkpt><trkpt lat="44.2478183" lon="11.187495"><ele>264.5</ele><time>2026-04-09T12:43:41.902Z</time></trkpt><trkpt lat="44.2479083" lon="11.187605"><ele>266.0</ele><time>2026-04-09T12:43:42.902Z</time></trkpt><trkpt lat="44.2479983" lon="11.18771"><ele>266.0</ele><time>2026-04-09T12:43:43.902Z</time></trkpt><trkpt lat="44.24808" lon="11.18782"><ele>266.0</ele><time>2026-04-09T12:43:44.902Z</time></trkpt><trkpt lat="44.2481667" lon="11.1879317"><ele>266.0</ele><time>2026-04-09T12:43:45.902Z</time></trkpt><trkpt lat="44.2482533" lon="11.1880417"><ele>266.0</ele><time>2026-04-09T12:43:46.903Z</time></trkpt><trkpt lat="44.2483433" lon="11.1881483"><ele>266.0</ele><time>2026-04-09T12:43:47.903Z</time></trkpt><trkpt lat="44.248435" lon="11.1882617"><ele>266.0</ele><time>2026-04-09T12:43:48.902Z</time></trkpt><trkpt lat="44.2485317" lon="11.188365"><ele>266.0</ele><time>2026-04-09T12:43:49.902Z</time></trkpt><trkpt lat="44.2486333" lon="11.1884617"><ele>266.0</ele><time>2026-04-09T12:43:50.902Z</time></trkpt><trkpt lat="44.2487367" lon="11.1885483"><ele>266.0</ele><time>2026-04-09T12:43:51.903Z</time></trkpt><trkpt lat="44.248855" lon="11.18862"><ele>266.0</ele><time>2026-04-09T12:43:52.903Z</time></trkpt><trkpt lat="44.2489783" lon="11.18867"><ele>266.0</ele><time>2026-04-09T12:43:53.902Z</time></trkpt><trkpt lat="44.249245" lon="11.1887033"><ele>265.0</ele><time>2026-04-09T12:43:55.903Z</time></trkpt><trkpt lat="44.2493817" lon="11.1887067"><ele>264.0</ele><time>2026-04-09T12:43:56.902Z</time></trkpt><trkpt lat="44.24953" lon="11.1886833"><ele>263.0</ele><time>2026-04-09T12:43:57.902Z</time></trkpt><trkpt lat="44.2496917" lon="11.1886333"><ele>263.33333333333337</ele><time>2026-04-09T12:43:58.902Z</time></trkpt><trkpt lat="44.2498517" lon="11.188545"><ele>263.6666666666667</ele><time>2026-04-09T12:43:59.902Z</time></trkpt><trkpt lat="44.250005" lon="11.1884533"><ele>264.0</ele><time>2026-04-09T12:44:00.903Z</time></trkpt><trkpt lat="44.25015" lon="11.18837"><ele>264.0</ele><time>2026-04-09T12:44:01.902Z</time></trkpt><trkpt lat="44.25029" lon="11.18833"><ele>264.0</ele><time>2026-04-09T12:44:02.902Z</time></trkpt><trkpt lat="44.25044" lon="11.1883217"><ele>264.0</ele><time>2026-04-09T12:44:03.902Z</time></trkpt><trkpt lat="44.2506033" lon="11.188295"><ele>265.6666666666667</ele><time>2026-04-09T12:44:04.902Z</time></trkpt><trkpt lat="44.2507517" lon="11.1882733"><ele>267.33333333333337</ele><time>2026-04-09T12:44:05.902Z</time></trkpt><trkpt lat="44.2509083" lon="11.1882483"><ele>269.0</ele><time>2026-04-09T12:44:06.902Z</time></trkpt><trkpt lat="44.251065" lon="11.1882567"><ele>269.0</ele><time>2026-04-09T12:44:07.902Z</time></trkpt><trkpt lat="44.25123" lon="11.1882767"><ele>269.0</ele><time>2026-04-09T12:44:08.903Z</time></trkpt><trkpt lat="44.2513933" lon="11.18829"><ele>269.0</ele><time>2026-04-09T12:44:09.902Z</time></trkpt><trkpt lat="44.2515567" lon="11.1883"><ele>269.0</ele><time>2026-04-09T12:44:10.902Z</time></trkpt><trkpt lat="44.2517133" lon="11.18829"><ele>269.0</ele><time>2026-04-09T12:44:11.902Z</time></trkpt><trkpt lat="44.251875" lon="11.18827"><ele>269.0</ele><time>2026-04-09T12:44:12.902Z</time></trkpt><trkpt lat="44.2520217" lon="11.1882183"><ele>266.6666666666667</ele><time>2026-04-09T12:44:13.902Z</time></trkpt><trkpt lat="44.2521667" lon="11.1881317"><ele>264.3333333333333</ele><time>2026-04-09T12:44:14.902Z</time></trkpt><trkpt lat="44.2523983" lon="11.187905"><ele>262.0</ele><time>2026-04-09T12:44:16.902Z</time></trkpt><trkpt lat="44.2524983" lon="11.187805"><ele>262.0</ele><time>2026-04-09T12:44:17.902Z</time></trkpt><trkpt lat="44.2526233" lon="11.1877517"><ele>262.0</ele><time>2026-04-09T12:44:18.902Z</time></trkpt><trkpt lat="44.2527483" lon="11.1877517"><ele>262.0</ele><time>2026-04-09T12:44:19.902Z</time></trkpt><trkpt lat="44.25288" lon="11.1877867"><ele>262.0</ele><time>2026-04-09T12:44:20.902Z</time></trkpt><trkpt lat="44.253015" lon="11.1878517"><ele>262.3333333333333</ele><time>2026-04-09T12:44:21.902Z</time></trkpt><trkpt lat="44.2531617" lon="11.1879167"><ele>262.6666666666667</ele><time>2026-04-09T12:44:22.901Z</time></trkpt><trkpt lat="44.25331" lon="11.18798"><ele>263.0</ele><time>2026-04-09T12:44:23.902Z</time></trkpt><trkpt lat="44.253445" lon="11.1880467"><ele>263.0</ele><time>2026-04-09T12:44:24.902Z</time></trkpt><trkpt lat="44.2535867" lon="11.1881333"><ele>263.0</ele><time>2026-04-09T12:44:25.902Z</time></trkpt><trkpt lat="44.2537333" lon="11.1882167"><ele>263.0</ele><time>2026-04-09T12:44:26.902Z</time></trkpt><trkpt lat="44.2539017" lon="11.18828"><ele>265.0</ele><time>2026-04-09T12:44:27.903Z</time></trkpt><trkpt lat="44.2540733" lon="11.1883367"><ele>267.0</ele><time>2026-04-09T12:44:28.903Z</time></trkpt><trkpt lat="44.254245" lon="11.1883817"><ele>269.0</ele><time>2026-04-09T12:44:29.902Z</time></trkpt><trkpt lat="44.254415" lon="11.188425"><ele>269.0</ele><time>2026-04-09T12:44:30.902Z</time></trkpt><trkpt lat="44.2545767" lon="11.1884717"><ele>269.0</ele><time>2026-04-09T12:44:31.902Z</time></trkpt><trkpt lat="44.2547317" lon="11.1885067"><ele>269.0</ele><time>2026-04-09T12:44:32.903Z</time></trkpt><trkpt lat="44.25489" lon="11.18853"><ele>267.0</ele><time>2026-04-09T12:44:33.903Z</time></trkpt><trkpt lat="44.2550567" lon="11.1885233"><ele>265.0</ele><time>2026-04-09T12:44:34.902Z</time></trkpt><trkpt lat="44.2552217" lon="11.18848"><ele>263.0</ele><time>2026-04-09T12:44:35.902Z</time></trkpt><trkpt lat="44.2555533" lon="11.18837"><ele>263.25</ele><time>2026-04-09T12:44:37.903Z</time></trkpt><trkpt lat="44.2557017" lon="11.1883283"><ele>263.5</ele><time>2026-04-09T12:44:38.902Z</time></trkpt><trkpt lat="44.2558433" lon="11.188305"><ele>263.75</ele><time>2026-04-09T12:44:39.902Z</time></trkpt><trkpt lat="44.2559833" lon="11.188325"><ele>264.0</ele><time>2026-04-09T12:44:40.903Z</time></trkpt><trkpt lat="44.25612" lon="11.188375"><ele>264.0</ele><time>2026-04-09T12:44:41.903Z</time></trkpt><trkpt lat="44.256255" lon="11.188455"><ele>264.0</ele><time>2026-04-09T12:44:42.902Z</time></trkpt><trkpt lat="44.2564" lon="11.1885517"><ele>264.0</ele><time>2026-04-09T12:44:43.903Z</time></trkpt><trkpt lat="44.2565467" lon="11.1886567"><ele>263.3333333333333</ele><time>2026-04-09T12:44:44.902Z</time></trkpt><trkpt lat="44.2566867" lon="11.1887683"><ele>262.66666666666663</ele><time>2026-04-09T12:44:45.902Z</time></trkpt><trkpt lat="44.256825" lon="11.1888983"><ele>262.0</ele><time>2026-04-09T12:44:46.902Z</time></trkpt><trkpt lat="44.2569533" lon="11.1890517"><ele>262.66666666666663</ele><time>2026-04-09T12:44:47.902Z</time></trkpt><trkpt lat="44.2570783" lon="11.1892133"><ele>263.3333333333333</ele><time>2026-04-09T12:44:48.902Z</time></trkpt><trkpt lat="44.2571983" lon="11.18936"><ele>264.0</ele><time>2026-04-09T12:44:49.902Z</time></trkpt><trkpt lat="44.2573117" lon="11.1895"><ele>264.0</ele><time>2026-04-09T12:44:50.902Z</time></trkpt><trkpt lat="44.257435" lon="11.18962"><ele>264.0</ele><time>2026-04-09T12:44:51.902Z</time></trkpt><trkpt lat="44.2575633" lon="11.1896817"><ele>264.0</ele><time>2026-04-09T12:44:52.902Z</time></trkpt><trkpt lat="44.2577083" lon="11.1897083"><ele>264.0</ele><time>2026-04-09T12:44:53.902Z</time></trkpt><trkpt lat="44.257875" lon="11.1896833"><ele>264.0</ele><time>2026-04-09T12:44:54.903Z</time></trkpt><trkpt lat="44.2580283" lon="11.1896517"><ele>264.0</ele><time>2026-04-09T12:44:55.902Z</time></trkpt><trkpt lat="44.2581817" lon="11.1896517"><ele>264.0</ele><time>2026-04-09T12:44:56.902Z</time></trkpt><trkpt lat="44.2584283" lon="11.1897383"><ele>265.5</ele><time>2026-04-09T12:44:58.902Z</time></trkpt><trkpt lat="44.2585283" lon="11.1898467"><ele>267.0</ele><time>2026-04-09T12:44:59.903Z</time></trkpt><trkpt lat="44.25862" lon="11.1899917"><ele>268.5</ele><time>2026-04-09T12:45:00.902Z</time></trkpt><trkpt lat="44.2587083" lon="11.1901583"><ele>270.0</ele><time>2026-04-09T12:45:01.902Z</time></trkpt><trkpt lat="44.258805" lon="11.19033"><ele>270.0</ele><time>2026-04-09T12:45:02.902Z</time></trkpt><trkpt lat="44.2589083" lon="11.1904967"><ele>270.0</ele><time>2026-04-09T12:45:03.902Z</time></trkpt><trkpt lat="44.2590283" lon="11.1906433"><ele>270.0</ele><time>2026-04-09T12:45:04.902Z</time></trkpt><trkpt lat="44.2591583" lon="11.190775"><ele>270.6666666666667</ele><time>2026-04-09T12:45:05.902Z</time></trkpt><trkpt lat="44.259295" lon="11.1908917"><ele>271.33333333333337</ele><time>2026-04-09T12:45:06.902Z</time></trkpt><trkpt lat="44.259465" lon="11.1909683"><ele>272.0</ele><time>2026-04-09T12:45:07.902Z</time></trkpt><trkpt lat="44.25962" lon="11.1910517"><ele>272.0</ele><time>2026-04-09T12:45:08.902Z</time></trkpt><trkpt lat="44.2597817" lon="11.1911333"><ele>272.0</ele><time>2026-04-09T12:45:09.902Z</time></trkpt><trkpt lat="44.2599417" lon="11.1911817"><ele>272.0</ele><time>2026-04-09T12:45:10.903Z</time></trkpt><trkpt lat="44.26011" lon="11.1912133"><ele>268.6666666666667</ele><time>2026-04-09T12:45:11.902Z</time></trkpt><trkpt lat="44.2602917" lon="11.1912017"><ele>265.3333333333333</ele><time>2026-04-09T12:45:12.903Z</time></trkpt><trkpt lat="44.26046" lon="11.19118"><ele>262.0</ele><time>2026-04-09T12:45:13.902Z</time></trkpt><trkpt lat="44.2606317" lon="11.19117"><ele>260.66666666666663</ele><time>2026-04-09T12:45:14.902Z</time></trkpt><trkpt lat="44.2607933" lon="11.191185"><ele>259.3333333333333</ele><time>2026-04-09T12:45:15.902Z</time></trkpt><trkpt lat="44.2609567" lon="11.19124"><ele>258.0</ele><time>2026-04-09T12:45:16.902Z</time></trkpt><trkpt lat="44.2611283" lon="11.19132"><ele>256.0</ele><time>2026-04-09T12:45:17.902Z</time></trkpt><trkpt lat="44.2614667" lon="11.1914967"><ele>254.0</ele><time>2026-04-09T12:45:19.902Z</time></trkpt><trkpt lat="44.2616467" lon="11.19155"><ele>257.33333333333337</ele><time>2026-04-09T12:45:20.902Z</time></trkpt><trkpt lat="44.261835" lon="11.191595"><ele>260.6666666666667</ele><time>2026-04-09T12:45:21.902Z</time></trkpt><trkpt lat="44.2620167" lon="11.1916083"><ele>264.0</ele><time>2026-04-09T12:45:22.903Z</time></trkpt><trkpt lat="44.2621917" lon="11.191605"><ele>264.3333333333333</ele><time>2026-04-09T12:45:23.902Z</time></trkpt><trkpt lat="44.2623533" lon="11.1916017"><ele>264.66666666666663</ele><time>2026-04-09T12:45:24.902Z</time></trkpt><trkpt lat="44.26252" lon="11.1915867"><ele>265.0</ele><time>2026-04-09T12:45:25.902Z</time></trkpt><trkpt lat="44.2626617" lon="11.1915867"><ele>265.0</ele><time>2026-04-09T12:45:26.902Z</time></trkpt><trkpt lat="44.2627867" lon="11.1916167"><ele>265.0</ele><time>2026-04-09T12:45:27.902Z</time></trkpt><trkpt lat="44.2628983" lon="11.1916583"><ele>265.0</ele><time>2026-04-09T12:45:28.902Z</time></trkpt><trkpt lat="44.263" lon="11.1917533"><ele>265.0</ele><time>2026-04-09T12:45:29.903Z</time></trkpt><trkpt lat="44.2630883" lon="11.1919017"><ele>264.66666666666663</ele><time>2026-04-09T12:45:30.902Z</time></trkpt><trkpt lat="44.263165" lon="11.1920783"><ele>264.3333333333333</ele><time>2026-04-09T12:45:31.902Z</time></trkpt><trkpt lat="44.2632533" lon="11.1922633"><ele>264.0</ele><time>2026-04-09T12:45:32.902Z</time></trkpt><trkpt lat="44.26334" lon="11.192445"><ele>264.0</ele><time>2026-04-09T12:45:33.903Z</time></trkpt><trkpt lat="44.263435" lon="11.1926067"><ele>264.0</ele><time>2026-04-09T12:45:34.902Z</time></trkpt><trkpt lat="44.2635483" lon="11.1927567"><ele>264.0</ele><time>2026-04-09T12:45:35.902Z</time></trkpt><trkpt lat="44.263675" lon="11.19288"><ele>264.0</ele><time>2026-04-09T12:45:36.902Z</time></trkpt><trkpt lat="44.2638167" lon="11.1929817"><ele>264.0</ele><time>2026-04-09T12:45:37.902Z</time></trkpt><trkpt lat="44.263955" lon="11.193075"><ele>264.0</ele><time>2026-04-09T12:45:38.902Z</time></trkpt><trkpt lat="44.2641983" lon="11.193305"><ele>264.0</ele><time>2026-04-09T12:45:40.902Z</time></trkpt><trkpt lat="44.2642917" lon="11.19346"><ele>264.0</ele><time>2026-04-09T12:45:41.903Z</time></trkpt><trkpt lat="44.2643917" lon="11.1936017"><ele>264.0</ele><time>2026-04-09T12:45:42.902Z</time></trkpt><trkpt lat="44.264505" lon="11.1937133"><ele>264.0</ele><time>2026-04-09T12:45:43.902Z</time></trkpt><trkpt lat="44.2646367" lon="11.1937933"><ele>263.6666666666667</ele><time>2026-04-09T12:45:44.902Z</time></trkpt><trkpt lat="44.2647817" lon="11.1938633"><ele>263.33333333333337</ele><time>2026-04-09T12:45:45.902Z</time></trkpt><trkpt lat="44.2649267" lon="11.1939467"><ele>263.0</ele><time>2026-04-09T12:45:46.902Z</time></trkpt><trkpt lat="44.2650633" lon="11.1940633"><ele>263.0</ele><time>2026-04-09T12:45:47.902Z</time></trkpt><trkpt lat="44.2651933" lon="11.194185"><ele>263.0</ele><time>2026-04-09T12:45:48.903Z</time></trkpt><trkpt lat="44.26531" lon="11.1943217"><ele>263.0</ele><time>2026-04-09T12:45:49.903Z</time></trkpt><trkpt lat="44.2654133" lon="11.194455"><ele>263.0</ele><time>2026-04-09T12:45:50.902Z</time></trkpt><trkpt lat="44.265515" lon="11.1945833"><ele>261.0</ele><time>2026-04-09T12:45:51.902Z</time></trkpt><trkpt lat="44.2656183" lon="11.1946883"><ele>259.0</ele><time>2026-04-09T12:45:52.902Z</time></trkpt><trkpt lat="44.26573" lon="11.194765"><ele>257.0</ele><time>2026-04-09T12:45:53.902Z</time></trkpt><trkpt lat="44.265855" lon="11.1948067"><ele>255.0</ele><time>2026-04-09T12:45:54.902Z</time></trkpt><trkpt lat="44.266" lon="11.1948117"><ele>255.0</ele><time>2026-04-09T12:45:55.902Z</time></trkpt><trkpt lat="44.2661467" lon="11.1947917"><ele>255.0</ele><time>2026-04-09T12:45:56.902Z</time></trkpt><trkpt lat="44.266295" lon="11.1947633"><ele>255.0</ele><time>2026-04-09T12:45:57.903Z</time></trkpt><trkpt lat="44.2664467" lon="11.1947267"><ele>253.5</ele><time>2026-04-09T12:45:58.902Z</time></trkpt><trkpt lat="44.2666" lon="11.1946683"><ele>252.0</ele><time>2026-04-09T12:45:59.902Z</time></trkpt><trkpt lat="44.26691" lon="11.194545"><ele>252.0</ele><time>2026-04-09T12:46:01.902Z</time></trkpt><trkpt lat="44.2670617" lon="11.1944983"><ele>252.0</ele><time>2026-04-09T12:46:02.902Z</time></trkpt><trkpt lat="44.2672067" lon="11.1944617"><ele>252.0</ele><time>2026-04-09T12:46:03.901Z</time></trkpt><trkpt lat="44.2673467" lon="11.1944517"><ele>252.0</ele><time>2026-04-09T12:46:04.901Z</time></trkpt><trkpt lat="44.2674733" lon="11.1944533"><ele>252.75</ele><time>2026-04-09T12:46:05.901Z</time></trkpt><trkpt lat="44.267575" lon="11.1944917"><ele>253.5</ele><time>2026-04-09T12:46:06.901Z</time></trkpt><trkpt lat="44.26766" lon="11.1945767"><ele>254.25</ele><time>2026-04-09T12:46:07.901Z</time></trkpt><trkpt lat="44.267735" lon="11.1947067"><ele>255.0</ele><time>2026-04-09T12:46:08.901Z</time></trkpt><trkpt lat="44.2678" lon="11.1948717"><ele>257.0</ele><time>2026-04-09T12:46:09.901Z</time></trkpt><trkpt lat="44.2678667" lon="11.195055"><ele>259.0</ele><time>2026-04-09T12:46:10.901Z</time></trkpt><trkpt lat="44.2679283" lon="11.195245"><ele>261.0</ele><time>2026-04-09T12:46:11.901Z</time></trkpt><trkpt lat="44.2679967" lon="11.19545"><ele>261.0</ele><time>2026-04-09T12:46:12.901Z</time></trkpt><trkpt lat="44.2680533" lon="11.19565"><ele>261.0</ele><time>2026-04-09T12:46:13.901Z</time></trkpt><trkpt lat="44.2681083" lon="11.195835"><ele>261.0</ele><time>2026-04-09T12:46:14.901Z</time></trkpt><trkpt lat="44.2681733" lon="11.195995"><ele>261.0</ele><time>2026-04-09T12:46:15.901Z</time></trkpt><trkpt lat="44.2682483" lon="11.1961467"><ele>260.0</ele><time>2026-04-09T12:46:16.901Z</time></trkpt><trkpt lat="44.2683383" lon="11.1962833"><ele>259.0</ele><time>2026-04-09T12:46:17.902Z</time></trkpt><trkpt lat="44.2684467" lon="11.1963983"><ele>258.0</ele><time>2026-04-09T12:46:18.901Z</time></trkpt><trkpt lat="44.2685817" lon="11.1964633"><ele>257.0</ele><time>2026-04-09T12:46:19.901Z</time></trkpt><trkpt lat="44.2687317" lon="11.1964917"><ele>257.0</ele><time>2026-04-09T12:46:20.902Z</time></trkpt><trkpt lat="44.2690467" lon="11.196475"><ele>257.0</ele><time>2026-04-09T12:46:22.901Z</time></trkpt><trkpt lat="44.2691933" lon="11.1964783"><ele>257.0</ele><time>2026-04-09T12:46:23.902Z</time></trkpt><trkpt lat="44.2693333" lon="11.1964817"><ele>257.0</ele><time>2026-04-09T12:46:24.901Z</time></trkpt><trkpt lat="44.269465" lon="11.1964917"><ele>257.0</ele><time>2026-04-09T12:46:25.901Z</time></trkpt><trkpt lat="44.2695933" lon="11.1965083"><ele>257.0</ele><time>2026-04-09T12:46:26.901Z</time></trkpt><trkpt lat="44.26972" lon="11.1965383"><ele>256.75</ele><time>2026-04-09T12:46:27.901Z</time></trkpt><trkpt lat="44.2698517" lon="11.19658"><ele>256.5</ele><time>2026-04-09T12:46:28.901Z</time></trkpt><trkpt lat="44.2699767" lon="11.196625"><ele>256.25</ele><time>2026-04-09T12:46:29.902Z</time></trkpt><trkpt lat="44.2701017" lon="11.19667"><ele>256.0</ele><time>2026-04-09T12:46:30.901Z</time></trkpt><trkpt lat="44.2702233" lon="11.1967167"><ele>256.0</ele><time>2026-04-09T12:46:31.901Z</time></trkpt><trkpt lat="44.2703417" lon="11.1967783"><ele>256.0</ele><time>2026-04-09T12:46:32.901Z</time></trkpt><trkpt lat="44.27046" lon="11.1968267"><ele>256.0</ele><time>2026-04-09T12:46:33.901Z</time></trkpt><trkpt lat="44.2705817" lon="11.1968733"><ele>256.0</ele><time>2026-04-09T12:46:34.901Z</time></trkpt><trkpt lat="44.2707017" lon="11.1969217"><ele>255.25</ele><time>2026-04-09T12:46:35.901Z</time></trkpt><trkpt lat="44.270815" lon="11.196975"><ele>254.5</ele><time>2026-04-09T12:46:36.901Z</time></trkpt><trkpt lat="44.27093" lon="11.197025"><ele>253.75</ele><time>2026-04-09T12:46:37.902Z</time></trkpt><trkpt lat="44.2710483" lon="11.1970667"><ele>253.0</ele><time>2026-04-09T12:46:38.901Z</time></trkpt><trkpt lat="44.2711667" lon="11.1971083"><ele>253.0</ele><time>2026-04-09T12:46:39.901Z</time></trkpt><trkpt lat="44.27128" lon="11.1971467"><ele>253.0</ele><time>2026-04-09T12:46:40.901Z</time></trkpt><trkpt lat="44.2713967" lon="11.1971717"><ele>253.0</ele><time>2026-04-09T12:46:41.901Z</time></trkpt><trkpt lat="44.2716233" lon="11.197225"><ele>251.75</ele><time>2026-04-09T12:46:43.902Z</time></trkpt><trkpt lat="44.27174" lon="11.19727"><ele>250.5</ele><time>2026-04-09T12:46:44.901Z</time></trkpt><trkpt lat="44.2718483" lon="11.197325"><ele>249.25</ele><time>2026-04-09T12:46:45.901Z</time></trkpt><trkpt lat="44.27196" lon="11.1973983"><ele>248.0</ele><time>2026-04-09T12:46:46.901Z</time></trkpt><trkpt lat="44.27207" lon="11.1974867"><ele>248.75</ele><time>2026-04-09T12:46:47.901Z</time></trkpt><trkpt lat="44.2721833" lon="11.19758"><ele>249.5</ele><time>2026-04-09T12:46:48.902Z</time></trkpt><trkpt lat="44.2723017" lon="11.1976683"><ele>250.25</ele><time>2026-04-09T12:46:49.901Z</time></trkpt><trkpt lat="44.2724167" lon="11.1977617"><ele>251.0</ele><time>2026-04-09T12:46:50.901Z</time></trkpt><trkpt lat="44.2725333" lon="11.19786"><ele>251.0</ele><time>2026-04-09T12:46:51.901Z</time></trkpt><trkpt lat="44.2726433" lon="11.1979533"><ele>251.0</ele><time>2026-04-09T12:46:52.901Z</time></trkpt><trkpt lat="44.2727583" lon="11.1980533"><ele>251.0</ele><time>2026-04-09T12:46:53.901Z</time></trkpt><trkpt lat="44.2728717" lon="11.1981567"><ele>251.0</ele><time>2026-04-09T12:46:54.901Z</time></trkpt><trkpt lat="44.2729783" lon="11.1982717"><ele>249.75</ele><time>2026-04-09T12:46:55.901Z</time></trkpt><trkpt lat="44.273085" lon="11.1983867"><ele>248.5</ele><time>2026-04-09T12:46:56.902Z</time></trkpt><trkpt lat="44.273195" lon="11.198485"><ele>247.25</ele><time>2026-04-09T12:46:57.901Z</time></trkpt><trkpt lat="44.2733083" lon="11.19858"><ele>246.0</ele><time>2026-04-09T12:46:58.901Z</time></trkpt><trkpt lat="44.2734233" lon="11.1986783"><ele>246.0</ele><time>2026-04-09T12:46:59.901Z</time></trkpt><trkpt lat="44.2735567" lon="11.1987533"><ele>246.0</ele><time>2026-04-09T12:47:00.901Z</time></trkpt><trkpt lat="44.2736933" lon="11.19882"><ele>246.0</ele><time>2026-04-09T12:47:01.901Z</time></trkpt><trkpt lat="44.2738317" lon="11.1988733"><ele>246.0</ele><time>2026-04-09T12:47:02.901Z</time></trkpt><trkpt lat="44.2741317" lon="11.198925"><ele>239.66666666666669</ele><time>2026-04-09T12:47:04.901Z</time></trkpt><trkpt lat="44.274285" lon="11.1989317"><ele>233.33333333333334</ele><time>2026-04-09T12:47:05.902Z</time></trkpt><trkpt lat="44.274435" lon="11.198945"><ele>227.0</ele><time>2026-04-09T12:47:06.901Z</time></trkpt><trkpt lat="44.274585" lon="11.1989667"><ele>227.5</ele><time>2026-04-09T12:47:07.901Z</time></trkpt><trkpt lat="44.2747283" lon="11.1990083"><ele>228.0</ele><time>2026-04-09T12:47:08.901Z</time></trkpt><trkpt lat="44.2748733" lon="11.1990533"><ele>228.5</ele><time>2026-04-09T12:47:09.901Z</time></trkpt><trkpt lat="44.2750133" lon="11.1990917"><ele>229.0</ele><time>2026-04-09T12:47:10.901Z</time></trkpt><trkpt lat="44.27515" lon="11.1991333"><ele>229.0</ele><time>2026-04-09T12:47:11.901Z</time></trkpt><trkpt lat="44.2752817" lon="11.1991783"><ele>229.0</ele><time>2026-04-09T12:47:12.902Z</time></trkpt><trkpt lat="44.2754117" lon="11.1992167"><ele>229.0</ele><time>2026-04-09T12:47:13.901Z</time></trkpt><trkpt lat="44.27554" lon="11.1992617"><ele>229.0</ele><time>2026-04-09T12:47:14.901Z</time></trkpt><trkpt lat="44.2756633" lon="11.1993017"><ele>228.0</ele><time>2026-04-09T12:47:15.901Z</time></trkpt><trkpt lat="44.27579" lon="11.1993383"><ele>227.0</ele><time>2026-04-09T12:47:16.902Z</time></trkpt><trkpt lat="44.27591" lon="11.199375"><ele>226.0</ele><time>2026-04-09T12:47:17.901Z</time></trkpt><trkpt lat="44.27602" lon="11.199415"><ele>225.0</ele><time>2026-04-09T12:47:18.901Z</time></trkpt><trkpt lat="44.2761383" lon="11.1994433"><ele>225.0</ele><time>2026-04-09T12:47:19.902Z</time></trkpt><trkpt lat="44.276255" lon="11.1994833"><ele>225.0</ele><time>2026-04-09T12:47:20.901Z</time></trkpt><trkpt lat="44.2763667" lon="11.1995217"><ele>225.0</ele><time>2026-04-09T12:47:21.901Z</time></trkpt><trkpt lat="44.2764783" lon="11.1995583"><ele>225.0</ele><time>2026-04-09T12:47:22.901Z</time></trkpt><trkpt lat="44.2765833" lon="11.19959"><ele>226.0</ele><time>2026-04-09T12:47:23.902Z</time></trkpt><trkpt lat="44.2768067" lon="11.1996483"><ele>227.0</ele><time>2026-04-09T12:47:25.901Z</time></trkpt><trkpt lat="44.2769167" lon="11.1996767"><ele>228.0</ele><time>2026-04-09T12:47:26.902Z</time></trkpt><trkpt lat="44.2770267" lon="11.1997117"><ele>228.0</ele><time>2026-04-09T12:47:27.902Z</time></trkpt><trkpt lat="44.2771267" lon="11.1997567"><ele>228.0</ele><time>2026-04-09T12:47:28.901Z</time></trkpt><trkpt lat="44.27723" lon="11.199795"><ele>228.0</ele><time>2026-04-09T12:47:29.902Z</time></trkpt><trkpt lat="44.2773317" lon="11.19985"><ele>228.0</ele><time>2026-04-09T12:47:30.901Z</time></trkpt><trkpt lat="44.27742" lon="11.1999167"><ele>228.0</ele><time>2026-04-09T12:47:31.902Z</time></trkpt><trkpt lat="44.2774867" lon="11.2000183"><ele>231.0</ele><time>2026-04-09T12:47:32.902Z</time></trkpt><trkpt lat="44.2775433" lon="11.2001333"><ele>234.0</ele><time>2026-04-09T12:47:33.901Z</time></trkpt><trkpt lat="44.277595" lon="11.2002533"><ele>237.0</ele><time>2026-04-09T12:47:34.902Z</time></trkpt><trkpt lat="44.27764" lon="11.20037"><ele>240.0</ele><time>2026-04-09T12:47:35.902Z</time></trkpt><trkpt lat="44.2776833" lon="11.2004767"><ele>243.0</ele><time>2026-04-09T12:47:36.901Z</time></trkpt><trkpt lat="44.27772" lon="11.2005767"><ele>245.0</ele><time>2026-04-09T12:47:37.902Z</time></trkpt><trkpt lat="44.27776" lon="11.20067"><ele>247.0</ele><time>2026-04-09T12:47:38.902Z</time></trkpt><trkpt lat="44.277805" lon="11.2007567"><ele>249.0</ele><time>2026-04-09T12:47:39.901Z</time></trkpt><trkpt lat="44.2778333" lon="11.200845"><ele>251.0</ele><time>2026-04-09T12:47:40.901Z</time></trkpt><trkpt lat="44.27787" lon="11.2009383"><ele>253.0</ele><time>2026-04-09T12:47:41.902Z</time></trkpt><trkpt lat="44.2779033" lon="11.201035"><ele>255.0</ele><time>2026-04-09T12:47:42.901Z</time></trkpt><trkpt lat="44.2779567" lon="11.201145"><ele>255.0</ele><time>2026-04-09T12:47:43.901Z</time></trkpt><trkpt lat="44.2780233" lon="11.2012533"><ele>255.0</ele><time>2026-04-09T12:47:44.902Z</time></trkpt><trkpt lat="44.278185" lon="11.2014983"><ele>255.0</ele><time>2026-04-09T12:47:46.901Z</time></trkpt><trkpt lat="44.2782717" lon="11.2016333"><ele>254.25</ele><time>2026-04-09T12:47:47.901Z</time></trkpt><trkpt lat="44.2783533" lon="11.2017817"><ele>253.5</ele><time>2026-04-09T12:47:48.901Z</time></trkpt><trkpt lat="44.2784383" lon="11.201925"><ele>252.75</ele><time>2026-04-09T12:47:49.901Z</time></trkpt><trkpt lat="44.27852" lon="11.2020817"><ele>252.0</ele><time>2026-04-09T12:47:50.901Z</time></trkpt><trkpt lat="44.2786083" lon="11.2022383"><ele>249.66666666666669</ele><time>2026-04-09T12:47:51.901Z</time></trkpt><trkpt lat="44.2787133" lon="11.202405"><ele>247.33333333333334</ele><time>2026-04-09T12:47:52.901Z</time></trkpt><trkpt lat="44.27883" lon="11.20258"><ele>245.0</ele><time>2026-04-09T12:47:53.901Z</time></trkpt><trkpt lat="44.2789567" lon="11.2027517"><ele>245.0</ele><time>2026-04-09T12:47:54.901Z</time></trkpt><trkpt lat="44.2790917" lon="11.20294"><ele>245.0</ele><time>2026-04-09T12:47:55.901Z</time></trkpt><trkpt lat="44.2792333" lon="11.2031317"><ele>245.0</ele><time>2026-04-09T12:47:56.901Z</time></trkpt><trkpt lat="44.2793933" lon="11.20332"><ele>248.33333333333334</ele><time>2026-04-09T12:47:57.901Z</time></trkpt><trkpt lat="44.2795667" lon="11.203505"><ele>251.66666666666669</ele><time>2026-04-09T12:47:58.902Z</time></trkpt><trkpt lat="44.2797233" lon="11.2036683"><ele>255.0</ele><time>2026-04-09T12:47:59.901Z</time></trkpt><trkpt lat="44.2798717" lon="11.2038233"><ele>252.33333333333331</ele><time>2026-04-09T12:48:00.901Z</time></trkpt><trkpt lat="44.2800133" lon="11.2039883"><ele>249.66666666666666</ele><time>2026-04-09T12:48:01.901Z</time></trkpt><trkpt lat="44.280145" lon="11.2041667"><ele>247.0</ele><time>2026-04-09T12:48:02.901Z</time></trkpt><trkpt lat="44.2802683" lon="11.2043533"><ele>247.0</ele><time>2026-04-09T12:48:03.901Z</time></trkpt><trkpt lat="44.2803867" lon="11.2045367"><ele>247.0</ele><time>2026-04-09T12:48:04.901Z</time></trkpt><trkpt lat="44.2804983" lon="11.2047217"><ele>247.0</ele><time>2026-04-09T12:48:05.901Z</time></trkpt><trkpt lat="44.2807133" lon="11.2050667"><ele>244.75</ele><time>2026-04-09T12:48:07.902Z</time></trkpt><trkpt lat="44.2808317" lon="11.2052183"><ele>242.5</ele><time>2026-04-09T12:48:08.902Z</time></trkpt><trkpt lat="44.28095" lon="11.2053483"><ele>240.25</ele><time>2026-04-09T12:48:09.901Z</time></trkpt><trkpt lat="44.2810633" lon="11.2054583"><ele>238.0</ele><time>2026-04-09T12:48:10.901Z</time></trkpt><trkpt lat="44.281175" lon="11.2055683"><ele>238.5</ele><time>2026-04-09T12:48:11.901Z</time></trkpt><trkpt lat="44.2812817" lon="11.2056633"><ele>239.0</ele><time>2026-04-09T12:48:12.902Z</time></trkpt><trkpt lat="44.2813917" lon="11.2057417"><ele>239.5</ele><time>2026-04-09T12:48:13.902Z</time></trkpt><trkpt lat="44.2814983" lon="11.2058133"><ele>240.0</ele><time>2026-04-09T12:48:14.901Z</time></trkpt><trkpt lat="44.281615" lon="11.2058517"><ele>240.0</ele><time>2026-04-09T12:48:15.901Z</time></trkpt><trkpt lat="44.28174" lon="11.2058617"><ele>240.0</ele><time>2026-04-09T12:48:16.902Z</time></trkpt><trkpt lat="44.2818733" lon="11.2058483"><ele>240.0</ele><time>2026-04-09T12:48:17.901Z</time></trkpt><trkpt lat="44.28201" lon="11.205805"><ele>240.0</ele><time>2026-04-09T12:48:18.902Z</time></trkpt><trkpt lat="44.2821567" lon="11.20573"><ele>236.25</ele><time>2026-04-09T12:48:19.901Z</time></trkpt><trkpt lat="44.2823033" lon="11.2056567"><ele>232.5</ele><time>2026-04-09T12:48:20.902Z</time></trkpt><trkpt lat="44.2824417" lon="11.2055933"><ele>228.75</ele><time>2026-04-09T12:48:21.901Z</time></trkpt><trkpt lat="44.2825767" lon="11.2055567"><ele>225.0</ele><time>2026-04-09T12:48:22.901Z</time></trkpt><trkpt lat="44.2827133" lon="11.2055433"><ele>225.0</ele><time>2026-04-09T12:48:23.901Z</time></trkpt><trkpt lat="44.28284" lon="11.2055683"><ele>225.0</ele><time>2026-04-09T12:48:24.902Z</time></trkpt><trkpt lat="44.2829583" lon="11.2056317"><ele>225.0</ele><time>2026-04-09T12:48:25.901Z</time></trkpt><trkpt lat="44.28306" lon="11.2057317"><ele>225.0</ele><time>2026-04-09T12:48:26.901Z</time></trkpt><trkpt lat="44.2832383" lon="11.2060133"><ele>229.33333333333331</ele><time>2026-04-09T12:48:28.901Z</time></trkpt><trkpt lat="44.2833117" lon="11.2061967"><ele>233.66666666666666</ele><time>2026-04-09T12:48:29.901Z</time></trkpt><trkpt lat="44.2833817" lon="11.2063967"><ele>238.0</ele><time>2026-04-09T12:48:30.901Z</time></trkpt><trkpt lat="44.2834517" lon="11.2066017"><ele>240.0</ele><time>2026-04-09T12:48:31.902Z</time></trkpt><trkpt lat="44.2835217" lon="11.2068017"><ele>242.0</ele><time>2026-04-09T12:48:32.902Z</time></trkpt><trkpt lat="44.2836" lon="11.207"><ele>244.0</ele><time>2026-04-09T12:48:33.902Z</time></trkpt><trkpt lat="44.2836817" lon="11.2071967"><ele>244.66666666666666</ele><time>2026-04-09T12:48:34.901Z</time></trkpt><trkpt lat="44.2837617" lon="11.2073833"><ele>245.33333333333331</ele><time>2026-04-09T12:48:35.901Z</time></trkpt><trkpt lat="44.2838567" lon="11.2075633"><ele>246.0</ele><time>2026-04-09T12:48:36.901Z</time></trkpt><trkpt lat="44.283945" lon="11.207735"><ele>246.0</ele><time>2026-04-09T12:48:37.902Z</time></trkpt><trkpt lat="44.284045" lon="11.2079017"><ele>246.0</ele><time>2026-04-09T12:48:38.901Z</time></trkpt><trkpt lat="44.2841383" lon="11.2080633"><ele>246.0</ele><time>2026-04-09T12:48:39.901Z</time></trkpt><trkpt lat="44.284235" lon="11.20822"><ele>247.75</ele><time>2026-04-09T12:48:40.902Z</time></trkpt><trkpt lat="44.2843283" lon="11.20837"><ele>249.5</ele><time>2026-04-09T12:48:41.901Z</time></trkpt><trkpt lat="44.28442" lon="11.20852"><ele>251.25</ele><time>2026-04-09T12:48:42.901Z</time></trkpt><trkpt lat="44.2845117" lon="11.208675"><ele>253.0</ele><time>2026-04-09T12:48:43.901Z</time></trkpt><trkpt lat="44.2846067" lon="11.2088283"><ele>253.0</ele><time>2026-04-09T12:48:44.901Z</time></trkpt><trkpt lat="44.2847083" lon="11.2089883"><ele>253.0</ele><time>2026-04-09T12:48:45.901Z</time></trkpt><trkpt lat="44.284805" lon="11.2091467"><ele>253.0</ele><time>2026-04-09T12:48:46.901Z</time></trkpt><trkpt lat="44.2849067" lon="11.2093083"><ele>247.0</ele><time>2026-04-09T12:48:47.902Z</time></trkpt><trkpt lat="44.2851017" lon="11.2096533"><ele>241.0</ele><time>2026-04-09T12:48:49.901Z</time></trkpt><trkpt lat="44.2851983" lon="11.2098167"><ele>243.33333333333331</ele><time>2026-04-09T12:48:50.901Z</time></trkpt><trkpt lat="44.285305" lon="11.2099817"><ele>245.66666666666669</ele><time>2026-04-09T12:48:51.901Z</time></trkpt><trkpt lat="44.2854183" lon="11.2101367"><ele>248.0</ele><time>2026-04-09T12:48:52.902Z</time></trkpt><trkpt lat="44.2855367" lon="11.2102733"><ele>245.5</ele><time>2026-04-09T12:48:53.901Z</time></trkpt><trkpt lat="44.285665" lon="11.2103867"><ele>243.0</ele><time>2026-04-09T12:48:54.901Z</time></trkpt><trkpt lat="44.2857917" lon="11.21048"><ele>240.5</ele><time>2026-04-09T12:48:55.901Z</time></trkpt><trkpt lat="44.285905" lon="11.2105583"><ele>238.0</ele><time>2026-04-09T12:48:56.901Z</time></trkpt><trkpt lat="44.28601" lon="11.210645"><ele>239.75</ele><time>2026-04-09T12:48:57.901Z</time></trkpt><trkpt lat="44.2861" lon="11.2107583"><ele>241.5</ele><time>2026-04-09T12:48:58.901Z</time></trkpt><trkpt lat="44.2861767" lon="11.2109017"><ele>243.25</ele><time>2026-04-09T12:48:59.901Z</time></trkpt><trkpt lat="44.28625" lon="11.211055"><ele>245.0</ele><time>2026-04-09T12:49:00.901Z</time></trkpt><trkpt lat="44.2863217" lon="11.2112083"><ele>245.0</ele><time>2026-04-09T12:49:01.901Z</time></trkpt><trkpt lat="44.2864033" lon="11.211345"><ele>245.0</ele><time>2026-04-09T12:49:02.902Z</time></trkpt><trkpt lat="44.2865067" lon="11.2114467"><ele>245.0</ele><time>2026-04-09T12:49:03.901Z</time></trkpt><trkpt lat="44.2866267" lon="11.2115183"><ele>245.0</ele><time>2026-04-09T12:49:04.901Z</time></trkpt><trkpt lat="44.2867683" lon="11.2115783"><ele>245.0</ele><time>2026-04-09T12:49:05.901Z</time></trkpt><trkpt lat="44.286915" lon="11.211635"><ele>245.0</ele><time>2026-04-09T12:49:06.901Z</time></trkpt><trkpt lat="44.2870617" lon="11.2116817"><ele>245.0</ele><time>2026-04-09T12:49:07.901Z</time></trkpt><trkpt lat="44.2872133" lon="11.2117283"><ele>242.5</ele><time>2026-04-09T12:49:08.901Z</time></trkpt><trkpt lat="44.2874867" lon="11.2118833"><ele>240.0</ele><time>2026-04-09T12:49:10.901Z</time></trkpt><trkpt lat="44.2876283" lon="11.2119967"><ele>240.0</ele><time>2026-04-09T12:49:11.901Z</time></trkpt><trkpt lat="44.2877667" lon="11.2121217"><ele>240.0</ele><time>2026-04-09T12:49:12.901Z</time></trkpt><trkpt lat="44.2878967" lon="11.2122467"><ele>240.0</ele><time>2026-04-09T12:49:13.901Z</time></trkpt><trkpt lat="44.2880217" lon="11.2123733"><ele>240.66666666666669</ele><time>2026-04-09T12:49:14.901Z</time></trkpt><trkpt lat="44.2881367" lon="11.212515"><ele>241.33333333333334</ele><time>2026-04-09T12:49:15.901Z</time></trkpt><trkpt lat="44.28824" lon="11.2126833"><ele>242.0</ele><time>2026-04-09T12:49:16.901Z</time></trkpt><trkpt lat="44.28834" lon="11.2128683"><ele>242.0</ele><time>2026-04-09T12:49:17.901Z</time></trkpt><trkpt lat="44.288425" lon="11.2130583"><ele>242.0</ele><time>2026-04-09T12:49:18.902Z</time></trkpt><trkpt lat="44.2885133" lon="11.2132483"><ele>242.0</ele><time>2026-04-09T12:49:19.901Z</time></trkpt><trkpt lat="44.288605" lon="11.2134317"><ele>243.0</ele><time>2026-04-09T12:49:20.901Z</time></trkpt><trkpt lat="44.2887167" lon="11.2135933"><ele>244.0</ele><time>2026-04-09T12:49:21.902Z</time></trkpt><trkpt lat="44.2888283" lon="11.2137217"><ele>245.0</ele><time>2026-04-09T12:49:22.901Z</time></trkpt><trkpt lat="44.2889417" lon="11.2138217"><ele>246.0</ele><time>2026-04-09T12:49:23.901Z</time></trkpt><trkpt lat="44.2890433" lon="11.213925"><ele>246.5</ele><time>2026-04-09T12:49:24.901Z</time></trkpt><trkpt lat="44.289135" lon="11.2140367"><ele>247.0</ele><time>2026-04-09T12:49:25.901Z</time></trkpt><trkpt lat="44.2892017" lon="11.2141767"><ele>247.5</ele><time>2026-04-09T12:49:26.901Z</time></trkpt><trkpt lat="44.2892367" lon="11.2143467"><ele>248.0</ele><time>2026-04-09T12:49:27.901Z</time></trkpt><trkpt lat="44.2892433" lon="11.214525"><ele>248.0</ele><time>2026-04-09T12:49:28.901Z</time></trkpt><trkpt lat="44.289235" lon="11.2146933"><ele>248.0</ele><time>2026-04-09T12:49:29.901Z</time></trkpt><trkpt lat="44.28915" lon="11.2149917"><ele>248.0</ele><time>2026-04-09T12:49:31.902Z</time></trkpt><trkpt lat="44.289055" lon="11.2151033"><ele>248.5</ele><time>2026-04-09T12:49:32.901Z</time></trkpt><trkpt lat="44.2889433" lon="11.2152"><ele>249.0</ele><time>2026-04-09T12:49:33.902Z</time></trkpt><trkpt lat="44.2888383" lon="11.2153083"><ele>249.5</ele><time>2026-04-09T12:49:34.901Z</time></trkpt><trkpt lat="44.28878" lon="11.2154367"><ele>250.0</ele><time>2026-04-09T12:49:35.902Z</time></trkpt><trkpt lat="44.2887633" lon="11.2155933"><ele>249.5</ele><time>2026-04-09T12:49:36.902Z</time></trkpt><trkpt lat="44.288775" lon="11.2157783"><ele>249.0</ele><time>2026-04-09T12:49:37.901Z</time></trkpt><trkpt lat="44.288805" lon="11.2159783"><ele>248.5</ele><time>2026-04-09T12:49:38.901Z</time></trkpt><trkpt lat="44.2888383" lon="11.2161917"><ele>248.0</ele><time>2026-04-09T12:49:39.902Z</time></trkpt><trkpt lat="44.2888717" lon="11.216415"><ele>248.66666666666669</ele><time>2026-04-09T12:49:40.901Z</time></trkpt><trkpt lat="44.2889117" lon="11.2166467"><ele>249.33333333333331</ele><time>2026-04-09T12:49:41.901Z</time></trkpt><trkpt lat="44.288945" lon="11.2168583"><ele>250.0</ele><time>2026-04-09T12:49:42.902Z</time></trkpt><trkpt lat="44.2889783" lon="11.21707"><ele>247.0</ele><time>2026-04-09T12:49:43.901Z</time></trkpt><trkpt lat="44.28901" lon="11.217275"><ele>244.0</ele><time>2026-04-09T12:49:44.901Z</time></trkpt><trkpt lat="44.2890433" lon="11.2174683"><ele>241.0</ele><time>2026-04-09T12:49:45.902Z</time></trkpt><trkpt lat="44.2890867" lon="11.21766"><ele>238.0</ele><time>2026-04-09T12:49:46.901Z</time></trkpt><trkpt lat="44.289155" lon="11.2178517"><ele>237.66666666666666</ele><time>2026-04-09T12:49:47.902Z</time></trkpt><trkpt lat="44.2892267" lon="11.2180383"><ele>237.33333333333331</ele><time>2026-04-09T12:49:48.901Z</time></trkpt><trkpt lat="44.2893133" lon="11.2182267"><ele>237.0</ele><time>2026-04-09T12:49:49.901Z</time></trkpt><trkpt lat="44.289415" lon="11.2184083"><ele>240.0</ele><time>2026-04-09T12:49:50.9Z</time></trkpt><trkpt lat="44.2896067" lon="11.2187783"><ele>243.0</ele><time>2026-04-09T12:49:52.9Z</time></trkpt><trkpt lat="44.289695" lon="11.2189583"><ele>238.33333333333331</ele><time>2026-04-09T12:49:53.9Z</time></trkpt><trkpt lat="44.2897667" lon="11.219155"><ele>233.66666666666666</ele><time>2026-04-09T12:49:54.901Z</time></trkpt><trkpt lat="44.2898333" lon="11.2193583"><ele>229.0</ele><time>2026-04-09T12:49:55.9Z</time></trkpt><trkpt lat="44.289895" lon="11.219575"><ele>229.0</ele><time>2026-04-09T12:49:56.9Z</time></trkpt><trkpt lat="44.2899417" lon="11.2198017"><ele>229.0</ele><time>2026-04-09T12:49:57.9Z</time></trkpt><trkpt lat="44.2899867" lon="11.2200383"><ele>229.0</ele><time>2026-04-09T12:49:58.9Z</time></trkpt><trkpt lat="44.29001" lon="11.220295"><ele>230.66666666666666</ele><time>2026-04-09T12:49:59.9Z</time></trkpt><trkpt lat="44.2900533" lon="11.2205483"><ele>232.33333333333331</ele><time>2026-04-09T12:50:00.9Z</time></trkpt><trkpt lat="44.2901083" lon="11.2207967"><ele>234.0</ele><time>2026-04-09T12:50:01.901Z</time></trkpt><trkpt lat="44.2901783" lon="11.2210417"><ele>234.0</ele><time>2026-04-09T12:50:02.9Z</time></trkpt><trkpt lat="44.290245" lon="11.221275"><ele>234.0</ele><time>2026-04-09T12:50:03.9Z</time></trkpt><trkpt lat="44.2903083" lon="11.2215"><ele>234.0</ele><time>2026-04-09T12:50:04.901Z</time></trkpt><trkpt lat="44.2903683" lon="11.2217217"><ele>237.66666666666669</ele><time>2026-04-09T12:50:05.9Z</time></trkpt><trkpt lat="44.2904283" lon="11.2219517"><ele>241.33333333333334</ele><time>2026-04-09T12:50:06.901Z</time></trkpt><trkpt lat="44.2904933" lon="11.2221933"><ele>245.0</ele><time>2026-04-09T12:50:07.9Z</time></trkpt><trkpt lat="44.2905467" lon="11.2224467"><ele>240.66666666666669</ele><time>2026-04-09T12:50:08.9Z</time></trkpt><trkpt lat="44.2906083" lon="11.2226967"><ele>236.33333333333331</ele><time>2026-04-09T12:50:09.9Z</time></trkpt><trkpt lat="44.29067" lon="11.2229333"><ele>232.0</ele><time>2026-04-09T12:50:10.9Z</time></trkpt><trkpt lat="44.29073" lon="11.2231567"><ele>232.0</ele><time>2026-04-09T12:50:11.9Z</time></trkpt><trkpt lat="44.29084" lon="11.2235917"><ele>232.0</ele><time>2026-04-09T12:50:13.9Z</time></trkpt><trkpt lat="44.2908817" lon="11.22382"><ele>232.66666666666666</ele><time>2026-04-09T12:50:14.9Z</time></trkpt><trkpt lat="44.2909183" lon="11.22406"><ele>233.33333333333331</ele><time>2026-04-09T12:50:15.9Z</time></trkpt><trkpt lat="44.2909517" lon="11.2243033"><ele>234.0</ele><time>2026-04-09T12:50:16.9Z</time></trkpt><trkpt lat="44.2909833" lon="11.2245267"><ele>234.0</ele><time>2026-04-09T12:50:17.9Z</time></trkpt><trkpt lat="44.29103" lon="11.2247383"><ele>234.0</ele><time>2026-04-09T12:50:18.9Z</time></trkpt><trkpt lat="44.29109" lon="11.22493"><ele>234.0</ele><time>2026-04-09T12:50:19.901Z</time></trkpt><trkpt lat="44.2911733" lon="11.225115"><ele>232.66666666666669</ele><time>2026-04-09T12:50:20.9Z</time></trkpt><trkpt lat="44.29128" lon="11.22527"><ele>231.33333333333334</ele><time>2026-04-09T12:50:21.9Z</time></trkpt><trkpt lat="44.2913867" lon="11.2254383"><ele>230.0</ele><time>2026-04-09T12:50:22.9Z</time></trkpt><trkpt lat="44.2915033" lon="11.225625"><ele>228.66666666666669</ele><time>2026-04-09T12:50:23.9Z</time></trkpt><trkpt lat="44.2916217" lon="11.2258183"><ele>227.33333333333331</ele><time>2026-04-09T12:50:24.9Z</time></trkpt><trkpt lat="44.29173" lon="11.2260233"><ele>226.0</ele><time>2026-04-09T12:50:25.9Z</time></trkpt><trkpt lat="44.291835" lon="11.2262317"><ele>226.0</ele><time>2026-04-09T12:50:26.9Z</time></trkpt><trkpt lat="44.291935" lon="11.2264333"><ele>226.0</ele><time>2026-04-09T12:50:27.9Z</time></trkpt><trkpt lat="44.2920267" lon="11.2266317"><ele>226.0</ele><time>2026-04-09T12:50:28.9Z</time></trkpt><trkpt lat="44.29211" lon="11.2268217"><ele>225.66666666666666</ele><time>2026-04-09T12:50:29.9Z</time></trkpt><trkpt lat="44.2921817" lon="11.227025"><ele>225.33333333333331</ele><time>2026-04-09T12:50:30.901Z</time></trkpt><trkpt lat="44.29224" lon="11.2272433"><ele>225.0</ele><time>2026-04-09T12:50:31.9Z</time></trkpt><trkpt lat="44.2922917" lon="11.2274617"><ele>225.0</ele><time>2026-04-09T12:50:32.901Z</time></trkpt><trkpt lat="44.2923767" lon="11.22791"><ele>225.0</ele><time>2026-04-09T12:50:34.9Z</time></trkpt><trkpt lat="44.2924183" lon="11.2281333"><ele>225.25</ele><time>2026-04-09T12:50:35.9Z</time></trkpt><trkpt lat="44.2924533" lon="11.228345"><ele>225.5</ele><time>2026-04-09T12:50:36.9Z</time></trkpt><trkpt lat="44.2924867" lon="11.228555"><ele>225.75</ele><time>2026-04-09T12:50:37.9Z</time></trkpt><trkpt lat="44.292515" lon="11.228745"><ele>226.0</ele><time>2026-04-09T12:50:38.9Z</time></trkpt><trkpt lat="44.292565" lon="11.22892"><ele>227.0</ele><time>2026-04-09T12:50:39.9Z</time></trkpt><trkpt lat="44.2926383" lon="11.229085"><ele>228.0</ele><time>2026-04-09T12:50:40.9Z</time></trkpt><trkpt lat="44.292725" lon="11.2292233"><ele>229.0</ele><time>2026-04-09T12:50:41.9Z</time></trkpt><trkpt lat="44.2928483" lon="11.229345"><ele>230.0</ele><time>2026-04-09T12:50:42.9Z</time></trkpt><trkpt lat="44.2929867" lon="11.2294667"><ele>228.0</ele><time>2026-04-09T12:50:43.9Z</time></trkpt><trkpt lat="44.2931283" lon="11.22959"><ele>226.0</ele><time>2026-04-09T12:50:44.9Z</time></trkpt><trkpt lat="44.2932667" lon="11.2297133"><ele>224.0</ele><time>2026-04-09T12:50:45.9Z</time></trkpt><trkpt lat="44.2934" lon="11.22983"><ele>224.0</ele><time>2026-04-09T12:50:46.9Z</time></trkpt><trkpt lat="44.2935217" lon="11.2299467"><ele>224.0</ele><time>2026-04-09T12:50:47.9Z</time></trkpt><trkpt lat="44.2936317" lon="11.2300667"><ele>224.0</ele><time>2026-04-09T12:50:48.9Z</time></trkpt><trkpt lat="44.29373" lon="11.230175"><ele>224.0</ele><time>2026-04-09T12:50:49.9Z</time></trkpt><trkpt lat="44.293805" lon="11.230315"><ele>224.0</ele><time>2026-04-09T12:50:50.901Z</time></trkpt><trkpt lat="44.293855" lon="11.23048"><ele>224.0</ele><time>2026-04-09T12:50:51.901Z</time></trkpt><trkpt lat="44.2938917" lon="11.2306667"><ele>224.0</ele><time>2026-04-09T12:50:52.9Z</time></trkpt><trkpt lat="44.29391" lon="11.2308767"><ele>224.0</ele><time>2026-04-09T12:50:53.9Z</time></trkpt><trkpt lat="44.293925" lon="11.2313067"><ele>220.5</ele><time>2026-04-09T12:50:55.9Z</time></trkpt><trkpt lat="44.2939333" lon="11.231515"><ele>217.0</ele><time>2026-04-09T12:50:56.901Z</time></trkpt><trkpt lat="44.2939417" lon="11.23172"><ele>213.5</ele><time>2026-04-09T12:50:57.9Z</time></trkpt><trkpt lat="44.29396" lon="11.2319167"><ele>210.0</ele><time>2026-04-09T12:50:58.9Z</time></trkpt><trkpt lat="44.294" lon="11.2321"><ele>210.0</ele><time>2026-04-09T12:50:59.9Z</time></trkpt><trkpt lat="44.294065" lon="11.232275"><ele>210.0</ele><time>2026-04-09T12:51:00.9Z</time></trkpt><trkpt lat="44.2941467" lon="11.2324433"><ele>210.0</ele><time>2026-04-09T12:51:01.901Z</time></trkpt><trkpt lat="44.2942367" lon="11.2325967"><ele>210.0</ele><time>2026-04-09T12:51:02.9Z</time></trkpt><trkpt lat="44.2943233" lon="11.232755"><ele>211.25</ele><time>2026-04-09T12:51:03.901Z</time></trkpt><trkpt lat="44.2944033" lon="11.23292"><ele>212.5</ele><time>2026-04-09T12:51:04.9Z</time></trkpt><trkpt lat="44.294485" lon="11.2330867"><ele>213.75</ele><time>2026-04-09T12:51:05.9Z</time></trkpt><trkpt lat="44.2945617" lon="11.2332467"><ele>215.0</ele><time>2026-04-09T12:51:06.9Z</time></trkpt><trkpt lat="44.2946383" lon="11.2334083"><ele>216.25</ele><time>2026-04-09T12:51:07.9Z</time></trkpt><trkpt lat="44.2947133" lon="11.2335667"><ele>217.5</ele><time>2026-04-09T12:51:08.9Z</time></trkpt><trkpt lat="44.294785" lon="11.23373"><ele>218.75</ele><time>2026-04-09T12:51:09.9Z</time></trkpt><trkpt lat="44.294855" lon="11.2338917"><ele>220.0</ele><time>2026-04-09T12:51:10.9Z</time></trkpt><trkpt lat="44.2949167" lon="11.23405"><ele>218.75</ele><time>2026-04-09T12:51:11.901Z</time></trkpt><trkpt lat="44.29496" lon="11.2342083"><ele>217.5</ele><time>2026-04-09T12:51:12.9Z</time></trkpt><trkpt lat="44.294985" lon="11.2343817"><ele>216.25</ele><time>2026-04-09T12:51:13.9Z</time></trkpt><trkpt lat="44.2950033" lon="11.2345617"><ele>215.0</ele><time>2026-04-09T12:51:14.9Z</time></trkpt><trkpt lat="44.2950217" lon="11.2349033"><ele>215.0</ele><time>2026-04-09T12:51:16.9Z</time></trkpt><trkpt lat="44.2950433" lon="11.2350667"><ele>215.0</ele><time>2026-04-09T12:51:17.901Z</time></trkpt><trkpt lat="44.29507" lon="11.2352333"><ele>215.0</ele><time>2026-04-09T12:51:18.901Z</time></trkpt><trkpt lat="44.2950933" lon="11.23541"><ele>215.0</ele><time>2026-04-09T12:51:19.9Z</time></trkpt><trkpt lat="44.2951067" lon="11.2355883"><ele>215.25</ele><time>2026-04-09T12:51:20.9Z</time></trkpt><trkpt lat="44.2950967" lon="11.2357633"><ele>215.5</ele><time>2026-04-09T12:51:21.901Z</time></trkpt><trkpt lat="44.295065" lon="11.2359233"><ele>215.75</ele><time>2026-04-09T12:51:22.901Z</time></trkpt><trkpt lat="44.2950283" lon="11.2360733"><ele>216.0</ele><time>2026-04-09T12:51:23.9Z</time></trkpt><trkpt lat="44.29499" lon="11.2362217"><ele>216.0</ele><time>2026-04-09T12:51:24.9Z</time></trkpt><trkpt lat="44.2949817" lon="11.23636"><ele>216.00000000000003</ele><time>2026-04-09T12:51:25.9Z</time></trkpt><trkpt lat="44.29502" lon="11.236495"><ele>216.00000000000003</ele><time>2026-04-09T12:51:26.9Z</time></trkpt><trkpt lat="44.2950833" lon="11.2366017"><ele>216.0</ele><time>2026-04-09T12:51:27.9Z</time></trkpt><trkpt lat="44.2951767" lon="11.23667"><ele>216.0</ele><time>2026-04-09T12:51:28.9Z</time></trkpt><trkpt lat="44.2952817" lon="11.2367167"><ele>218.4</ele><time>2026-04-09T12:51:29.9Z</time></trkpt><trkpt lat="44.2953917" lon="11.2367467"><ele>220.8</ele><time>2026-04-09T12:51:30.9Z</time></trkpt><trkpt lat="44.2954867" lon="11.2368017"><ele>223.20000000000002</ele><time>2026-04-09T12:51:31.9Z</time></trkpt><trkpt lat="44.29556" lon="11.2369017"><ele>225.60000000000002</ele><time>2026-04-09T12:51:32.901Z</time></trkpt><trkpt lat="44.2956017" lon="11.2370317"><ele>228.0</ele><time>2026-04-09T12:51:33.9Z</time></trkpt><trkpt lat="44.2956183" lon="11.23719"><ele>221.33333333333331</ele><time>2026-04-09T12:51:34.901Z</time></trkpt><trkpt lat="44.2956033" lon="11.2373583"><ele>214.66666666666666</ele><time>2026-04-09T12:51:35.9Z</time></trkpt><trkpt lat="44.29561" lon="11.23777"><ele>208.0</ele><time>2026-04-09T12:51:37.901Z</time></trkpt><trkpt lat="44.295655" lon="11.2380217"><ele>210.33333333333331</ele><time>2026-04-09T12:51:38.9Z</time></trkpt><trkpt lat="44.2957183" lon="11.238285"><ele>212.66666666666669</ele><time>2026-04-09T12:51:39.9Z</time></trkpt><trkpt lat="44.2958" lon="11.2385583"><ele>215.0</ele><time>2026-04-09T12:51:40.9Z</time></trkpt><trkpt lat="44.2958867" lon="11.238825"><ele>221.33333333333334</ele><time>2026-04-09T12:51:41.901Z</time></trkpt><trkpt lat="44.2959717" lon="11.2390883"><ele>227.66666666666669</ele><time>2026-04-09T12:51:42.9Z</time></trkpt><trkpt lat="44.2960767" lon="11.2393333"><ele>234.0</ele><time>2026-04-09T12:51:43.9Z</time></trkpt><trkpt lat="44.2961667" lon="11.239585"><ele>240.33333333333331</ele><time>2026-04-09T12:51:44.9Z</time></trkpt><trkpt lat="44.2962717" lon="11.2398217"><ele>246.66666666666666</ele><time>2026-04-09T12:51:45.9Z</time></trkpt><trkpt lat="44.296385" lon="11.2400533"><ele>253.0</ele><time>2026-04-09T12:51:46.9Z</time></trkpt><trkpt lat="44.2965017" lon="11.2402667"><ele>244.66666666666666</ele><time>2026-04-09T12:51:47.9Z</time></trkpt><trkpt lat="44.2966083" lon="11.240475"><ele>236.33333333333331</ele><time>2026-04-09T12:51:48.9Z</time></trkpt><trkpt lat="44.2967083" lon="11.2406733"><ele>228.0</ele><time>2026-04-09T12:51:49.901Z</time></trkpt><trkpt lat="44.2968083" lon="11.2408567"><ele>228.0</ele><time>2026-04-09T12:51:50.9Z</time></trkpt><trkpt lat="44.29691" lon="11.24102"><ele>228.0</ele><time>2026-04-09T12:51:51.9Z</time></trkpt><trkpt lat="44.2970167" lon="11.241175"><ele>228.0</ele><time>2026-04-09T12:51:52.9Z</time></trkpt><trkpt lat="44.2971067" lon="11.2413433"><ele>232.66666666666669</ele><time>2026-04-09T12:51:53.9Z</time></trkpt><trkpt lat="44.2971783" lon="11.2415283"><ele>237.33333333333334</ele><time>2026-04-09T12:51:54.9Z</time></trkpt><trkpt lat="44.29724" lon="11.241725"><ele>242.0</ele><time>2026-04-09T12:51:55.9Z</time></trkpt><trkpt lat="44.2972783" lon="11.2419317"><ele>228.33333333333334</ele><time>2026-04-09T12:51:56.901Z</time></trkpt><trkpt lat="44.2973283" lon="11.2423167"><ele>214.66666666666669</ele><time>2026-04-09T12:51:58.9Z</time></trkpt><trkpt lat="44.2973417" lon="11.2425"><ele>201.0</ele><time>2026-04-09T12:51:59.901Z</time></trkpt><trkpt lat="44.2973667" lon="11.2426717"><ele>201.0</ele><time>2026-04-09T12:52:00.901Z</time></trkpt><trkpt lat="44.29741" lon="11.2428483"><ele>201.0</ele><time>2026-04-09T12:52:01.9Z</time></trkpt><trkpt lat="44.2974917" lon="11.243025"><ele>201.0</ele><time>2026-04-09T12:52:02.9Z</time></trkpt><trkpt lat="44.2975817" lon="11.2432017"><ele>201.0</ele><time>2026-04-09T12:52:03.9Z</time></trkpt><trkpt lat="44.2976817" lon="11.2433817"><ele>200.66666666666669</ele><time>2026-04-09T12:52:04.9Z</time></trkpt><trkpt lat="44.2977833" lon="11.2435617"><ele>200.33333333333334</ele><time>2026-04-09T12:52:05.9Z</time></trkpt><trkpt lat="44.2978833" lon="11.243745"><ele>200.0</ele><time>2026-04-09T12:52:06.9Z</time></trkpt><trkpt lat="44.2979683" lon="11.24393"><ele>202.0</ele><time>2026-04-09T12:52:07.9Z</time></trkpt><trkpt lat="44.2980583" lon="11.2441133"><ele>204.0</ele><time>2026-04-09T12:52:08.9Z</time></trkpt><trkpt lat="44.2981433" lon="11.2443017"><ele>206.0</ele><time>2026-04-09T12:52:09.901Z</time></trkpt><trkpt lat="44.29824" lon="11.2444717"><ele>201.0</ele><time>2026-04-09T12:52:10.901Z</time></trkpt><trkpt lat="44.2983533" lon="11.2446383"><ele>196.0</ele><time>2026-04-09T12:52:11.9Z</time></trkpt><trkpt lat="44.29847" lon="11.2448017"><ele>191.0</ele><time>2026-04-09T12:52:12.9Z</time></trkpt><trkpt lat="44.2985867" lon="11.2449583"><ele>190.66666666666666</ele><time>2026-04-09T12:52:13.901Z</time></trkpt><trkpt lat="44.2987033" lon="11.2451083"><ele>190.33333333333334</ele><time>2026-04-09T12:52:14.901Z</time></trkpt><trkpt lat="44.29883" lon="11.24524"><ele>190.0</ele><time>2026-04-09T12:52:15.901Z</time></trkpt><trkpt lat="44.2989617" lon="11.2453667"><ele>190.0</ele><time>2026-04-09T12:52:16.9Z</time></trkpt><trkpt lat="44.2990967" lon="11.2454883"><ele>190.0</ele><time>2026-04-09T12:52:17.9Z</time></trkpt><trkpt lat="44.2993517" lon="11.2457333"><ele>191.33333333333334</ele><time>2026-04-09T12:52:19.9Z</time></trkpt><trkpt lat="44.29949" lon="11.2458483"><ele>192.66666666666669</ele><time>2026-04-09T12:52:20.9Z</time></trkpt><trkpt lat="44.29962" lon="11.24595"><ele>194.0</ele><time>2026-04-09T12:52:21.901Z</time></trkpt><trkpt lat="44.2997533" lon="11.2460383"><ele>194.0</ele><time>2026-04-09T12:52:22.9Z</time></trkpt><trkpt lat="44.2998817" lon="11.24612"><ele>194.0</ele><time>2026-04-09T12:52:23.9Z</time></trkpt><trkpt lat="44.30001" lon="11.2461683"><ele>194.0</ele><time>2026-04-09T12:52:24.9Z</time></trkpt><trkpt lat="44.3001417" lon="11.246175"><ele>194.0</ele><time>2026-04-09T12:52:25.9Z</time></trkpt><trkpt lat="44.30028" lon="11.2461467"><ele>194.0</ele><time>2026-04-09T12:52:26.901Z</time></trkpt><trkpt lat="44.3004183" lon="11.24608"><ele>194.0</ele><time>2026-04-09T12:52:27.901Z</time></trkpt><trkpt lat="44.3005667" lon="11.246005"><ele>194.0</ele><time>2026-04-09T12:52:28.9Z</time></trkpt><trkpt lat="44.3007133" lon="11.2459167"><ele>195.0</ele><time>2026-04-09T12:52:29.9Z</time></trkpt><trkpt lat="44.3008383" lon="11.2458233"><ele>196.0</ele><time>2026-04-09T12:52:30.901Z</time></trkpt><trkpt lat="44.3009583" lon="11.2457133"><ele>197.0</ele><time>2026-04-09T12:52:31.901Z</time></trkpt><trkpt lat="44.3010633" lon="11.2455767"><ele>198.0</ele><time>2026-04-09T12:52:32.901Z</time></trkpt><trkpt lat="44.3011483" lon="11.2454033"><ele>195.0</ele><time>2026-04-09T12:52:33.9Z</time></trkpt><trkpt lat="44.30122" lon="11.2452417"><ele>192.0</ele><time>2026-04-09T12:52:34.9Z</time></trkpt><trkpt lat="44.3012867" lon="11.2450983"><ele>189.0</ele><time>2026-04-09T12:52:35.9Z</time></trkpt><trkpt lat="44.301355" lon="11.244995"><ele>186.0</ele><time>2026-04-09T12:52:36.9Z</time></trkpt><trkpt lat="44.3014417" lon="11.2449217"><ele>186.0</ele><time>2026-04-09T12:52:37.901Z</time></trkpt><trkpt lat="44.3015467" lon="11.24491"><ele>186.0</ele><time>2026-04-09T12:52:38.9Z</time></trkpt><trkpt lat="44.3017033" lon="11.2450333"><ele>186.0</ele><time>2026-04-09T12:52:40.9Z</time></trkpt><trkpt lat="44.3017567" lon="11.2451633"><ele>186.0</ele><time>2026-04-09T12:52:41.9Z</time></trkpt><trkpt lat="44.3017967" lon="11.2453283"><ele>186.0</ele><time>2026-04-09T12:52:42.9Z</time></trkpt><trkpt lat="44.30184" lon="11.2455033"><ele>186.0</ele><time>2026-04-09T12:52:43.9Z</time></trkpt><trkpt lat="44.3018733" lon="11.2456967"><ele>186.0</ele><time>2026-04-09T12:52:44.9Z</time></trkpt><trkpt lat="44.3019183" lon="11.2458933"><ele>186.0</ele><time>2026-04-09T12:52:45.9Z</time></trkpt><trkpt lat="44.30197" lon="11.2461033"><ele>193.0</ele><time>2026-04-09T12:52:46.9Z</time></trkpt><trkpt lat="44.3020317" lon="11.2463117"><ele>200.0</ele><time>2026-04-09T12:52:47.9Z</time></trkpt><trkpt lat="44.3020967" lon="11.2465367"><ele>207.0</ele><time>2026-04-09T12:52:48.901Z</time></trkpt><trkpt lat="44.3021617" lon="11.246765"><ele>211.0</ele><time>2026-04-09T12:52:49.9Z</time></trkpt><trkpt lat="44.3022283" lon="11.246985"><ele>215.0</ele><time>2026-04-09T12:52:50.9Z</time></trkpt><trkpt lat="44.3022867" lon="11.2472033"><ele>219.0</ele><time>2026-04-09T12:52:51.9Z</time></trkpt><trkpt lat="44.3023417" lon="11.2474"><ele>210.0</ele><time>2026-04-09T12:52:52.9Z</time></trkpt><trkpt lat="44.3024067" lon="11.2475917"><ele>201.0</ele><time>2026-04-09T12:52:53.9Z</time></trkpt><trkpt lat="44.3025067" lon="11.2477717"><ele>192.0</ele><time>2026-04-09T12:52:54.9Z</time></trkpt><trkpt lat="44.3026133" lon="11.24794"><ele>192.0</ele><time>2026-04-09T12:52:55.9Z</time></trkpt><trkpt lat="44.302735" lon="11.2480917"><ele>192.0</ele><time>2026-04-09T12:52:56.9Z</time></trkpt><trkpt lat="44.3028483" lon="11.248235"><ele>192.0</ele><time>2026-04-09T12:52:57.9Z</time></trkpt><trkpt lat="44.302965" lon="11.2483867"><ele>187.5</ele><time>2026-04-09T12:52:58.9Z</time></trkpt><trkpt lat="44.303065" lon="11.24855"><ele>183.0</ele><time>2026-04-09T12:52:59.9Z</time></trkpt><trkpt lat="44.3032617" lon="11.24891"><ele>191.0</ele><time>2026-04-09T12:53:01.9Z</time></trkpt><trkpt lat="44.30336" lon="11.2490833"><ele>199.0</ele><time>2026-04-09T12:53:02.9Z</time></trkpt><trkpt lat="44.303465" lon="11.2492467"><ele>207.0</ele><time>2026-04-09T12:53:03.9Z</time></trkpt><trkpt lat="44.30358" lon="11.2493883"><ele>207.0</ele><time>2026-04-09T12:53:04.901Z</time></trkpt><trkpt lat="44.3037017" lon="11.2495"><ele>207.0</ele><time>2026-04-09T12:53:05.9Z</time></trkpt><trkpt lat="44.3038383" lon="11.249585"><ele>207.0</ele><time>2026-04-09T12:53:06.9Z</time></trkpt><trkpt lat="44.3039933" lon="11.24963"><ele>198.66666666666666</ele><time>2026-04-09T12:53:07.9Z</time></trkpt><trkpt lat="44.3041467" lon="11.2496633"><ele>190.33333333333331</ele><time>2026-04-09T12:53:08.9Z</time></trkpt><trkpt lat="44.3043" lon="11.24969"><ele>182.0</ele><time>2026-04-09T12:53:09.9Z</time></trkpt><trkpt lat="44.3044467" lon="11.2497"><ele>182.0</ele><time>2026-04-09T12:53:10.9Z</time></trkpt><trkpt lat="44.3045667" lon="11.249745"><ele>182.0</ele><time>2026-04-09T12:53:11.901Z</time></trkpt><trkpt lat="44.304685" lon="11.2498"><ele>182.0</ele><time>2026-04-09T12:53:12.9Z</time></trkpt><trkpt lat="44.304795" lon="11.24988"><ele>182.0</ele><time>2026-04-09T12:53:13.9Z</time></trkpt><trkpt lat="44.3048933" lon="11.2499867"><ele>184.5</ele><time>2026-04-09T12:53:14.9Z</time></trkpt><trkpt lat="44.30497" lon="11.250105"><ele>187.0</ele><time>2026-04-09T12:53:15.901Z</time></trkpt><trkpt lat="44.3050183" lon="11.250245"><ele>189.5</ele><time>2026-04-09T12:53:16.9Z</time></trkpt><trkpt lat="44.30504" lon="11.2504033"><ele>192.0</ele><time>2026-04-09T12:53:17.9Z</time></trkpt><trkpt lat="44.3050233" lon="11.2505783"><ele>191.66666666666666</ele><time>2026-04-09T12:53:18.901Z</time></trkpt><trkpt lat="44.305" lon="11.25077"><ele>191.33333333333331</ele><time>2026-04-09T12:53:19.901Z</time></trkpt><trkpt lat="44.304995" lon="11.250975"><ele>191.0</ele><time>2026-04-09T12:53:20.9Z</time></trkpt><trkpt lat="44.30501" lon="11.251405"><ele>191.5</ele><time>2026-04-09T12:53:22.9Z</time></trkpt><trkpt lat="44.3050233" lon="11.2516117"><ele>192.0</ele><time>2026-04-09T12:53:23.9Z</time></trkpt><trkpt lat="44.305025" lon="11.251815"><ele>192.5</ele><time>2026-04-09T12:53:24.901Z</time></trkpt><trkpt lat="44.3050183" lon="11.2520167"><ele>193.0</ele><time>2026-04-09T12:53:25.9Z</time></trkpt><trkpt lat="44.3049867" lon="11.2522083"><ele>191.5</ele><time>2026-04-09T12:53:26.9Z</time></trkpt><trkpt lat="44.3049533" lon="11.252385"><ele>190.0</ele><time>2026-04-09T12:53:27.9Z</time></trkpt><trkpt lat="44.3049367" lon="11.2525633"><ele>188.5</ele><time>2026-04-09T12:53:28.901Z</time></trkpt><trkpt lat="44.3049483" lon="11.252745"><ele>187.0</ele><time>2026-04-09T12:53:29.9Z</time></trkpt><trkpt lat="44.304985" lon="11.252915"><ele>187.0</ele><time>2026-04-09T12:53:30.9Z</time></trkpt><trkpt lat="44.3050517" lon="11.2530967"><ele>187.0</ele><time>2026-04-09T12:53:31.9Z</time></trkpt><trkpt lat="44.30513" lon="11.25328"><ele>187.0</ele><time>2026-04-09T12:53:32.9Z</time></trkpt><trkpt lat="44.3052183" lon="11.25347"><ele>188.0</ele><time>2026-04-09T12:53:33.901Z</time></trkpt><trkpt lat="44.3053083" lon="11.253665"><ele>189.0</ele><time>2026-04-09T12:53:34.9Z</time></trkpt><trkpt lat="44.3054" lon="11.2538717"><ele>190.0</ele><time>2026-04-09T12:53:35.901Z</time></trkpt><trkpt lat="44.3054767" lon="11.2540733"><ele>184.33333333333334</ele><time>2026-04-09T12:53:36.9Z</time></trkpt><trkpt lat="44.3055567" lon="11.2542667"><ele>178.66666666666666</ele><time>2026-04-09T12:53:37.901Z</time></trkpt><trkpt lat="44.3056433" lon="11.2544533"><ele>173.0</ele><time>2026-04-09T12:53:38.901Z</time></trkpt><trkpt lat="44.3057467" lon="11.2546133"><ele>173.0</ele><time>2026-04-09T12:53:39.899Z</time></trkpt><trkpt lat="44.30587" lon="11.2547517"><ele>173.0</ele><time>2026-04-09T12:53:40.899Z</time></trkpt><trkpt lat="44.3060083" lon="11.2548683"><ele>173.0</ele><time>2026-04-09T12:53:41.899Z</time></trkpt><trkpt lat="44.306315" lon="11.2550467"><ele>172.33333333333331</ele><time>2026-04-09T12:53:43.9Z</time></trkpt><trkpt lat="44.30646" lon="11.2551317"><ele>171.66666666666666</ele><time>2026-04-09T12:53:44.899Z</time></trkpt><trkpt lat="44.30661" lon="11.2551933"><ele>171.0</ele><time>2026-04-09T12:53:45.899Z</time></trkpt><trkpt lat="44.3067667" lon="11.255235"><ele>171.0</ele><time>2026-04-09T12:53:46.899Z</time></trkpt><trkpt lat="44.306925" lon="11.2552417"><ele>171.0</ele><time>2026-04-09T12:53:47.899Z</time></trkpt><trkpt lat="44.30708" lon="11.255215"><ele>171.0</ele><time>2026-04-09T12:53:48.899Z</time></trkpt><trkpt lat="44.3072267" lon="11.255205"><ele>171.66666666666666</ele><time>2026-04-09T12:53:49.899Z</time></trkpt><trkpt lat="44.307375" lon="11.2552067"><ele>172.33333333333331</ele><time>2026-04-09T12:53:50.899Z</time></trkpt><trkpt lat="44.3075267" lon="11.2552317"><ele>173.0</ele><time>2026-04-09T12:53:51.9Z</time></trkpt><trkpt lat="44.307675" lon="11.255285"><ele>173.0</ele><time>2026-04-09T12:53:52.9Z</time></trkpt><trkpt lat="44.3078167" lon="11.2553483"><ele>173.0</ele><time>2026-04-09T12:53:53.899Z</time></trkpt><trkpt lat="44.307955" lon="11.2554133"><ele>173.0</ele><time>2026-04-09T12:53:54.899Z</time></trkpt><trkpt lat="44.3080783" lon="11.255495"><ele>173.0</ele><time>2026-04-09T12:53:55.899Z</time></trkpt><trkpt lat="44.3081883" lon="11.2555933"><ele>174.25</ele><time>2026-04-09T12:53:56.899Z</time></trkpt><trkpt lat="44.30827" lon="11.25572"><ele>175.5</ele><time>2026-04-09T12:53:57.899Z</time></trkpt><trkpt lat="44.3083333" lon="11.2558633"><ele>176.75</ele><time>2026-04-09T12:53:58.899Z</time></trkpt><trkpt lat="44.3083717" lon="11.2560233"><ele>178.0</ele><time>2026-04-09T12:53:59.899Z</time></trkpt><trkpt lat="44.308385" lon="11.2562"><ele>178.0</ele><time>2026-04-09T12:54:00.9Z</time></trkpt><trkpt lat="44.3083883" lon="11.25638"><ele>178.0</ele><time>2026-04-09T12:54:01.899Z</time></trkpt><trkpt lat="44.3083617" lon="11.2565417"><ele>178.0</ele><time>2026-04-09T12:54:02.899Z</time></trkpt><trkpt lat="44.30826" lon="11.2568583"><ele>177.0</ele><time>2026-04-09T12:54:04.899Z</time></trkpt><trkpt lat="44.30821" lon="11.25702"><ele>176.0</ele><time>2026-04-09T12:54:05.899Z</time></trkpt><trkpt lat="44.3082017" lon="11.257205"><ele>175.0</ele><time>2026-04-09T12:54:06.899Z</time></trkpt><trkpt lat="44.3082233" lon="11.2573817"><ele>174.0</ele><time>2026-04-09T12:54:07.899Z</time></trkpt><trkpt lat="44.3082683" lon="11.25755"><ele>173.25</ele><time>2026-04-09T12:54:08.899Z</time></trkpt><trkpt lat="44.3083233" lon="11.2577033"><ele>172.5</ele><time>2026-04-09T12:54:09.899Z</time></trkpt><trkpt lat="44.3083733" lon="11.2578483"><ele>171.75</ele><time>2026-04-09T12:54:10.899Z</time></trkpt><trkpt lat="44.30842" lon="11.2579883"><ele>171.0</ele><time>2026-04-09T12:54:11.899Z</time></trkpt><trkpt lat="44.3084683" lon="11.2581283"><ele>173.0</ele><time>2026-04-09T12:54:12.9Z</time></trkpt><trkpt lat="44.3085183" lon="11.2582683"><ele>175.0</ele><time>2026-04-09T12:54:13.899Z</time></trkpt><trkpt lat="44.3085733" lon="11.2584067"><ele>177.0</ele><time>2026-04-09T12:54:14.899Z</time></trkpt><trkpt lat="44.3086117" lon="11.25857"><ele>179.0</ele><time>2026-04-09T12:54:15.9Z</time></trkpt><trkpt lat="44.30866" lon="11.25874"><ele>179.0</ele><time>2026-04-09T12:54:16.899Z</time></trkpt><trkpt lat="44.3087067" lon="11.2589117"><ele>179.0</ele><time>2026-04-09T12:54:17.899Z</time></trkpt><trkpt lat="44.3087617" lon="11.2590817"><ele>179.0</ele><time>2026-04-09T12:54:18.899Z</time></trkpt><trkpt lat="44.3088383" lon="11.259245"><ele>179.0</ele><time>2026-04-09T12:54:19.899Z</time></trkpt><trkpt lat="44.30893" lon="11.2593967"><ele>177.66666666666666</ele><time>2026-04-09T12:54:20.899Z</time></trkpt><trkpt lat="44.3090433" lon="11.2595467"><ele>176.33333333333334</ele><time>2026-04-09T12:54:21.899Z</time></trkpt><trkpt lat="44.3091717" lon="11.25968"><ele>175.0</ele><time>2026-04-09T12:54:22.9Z</time></trkpt><trkpt lat="44.30929" lon="11.25982"><ele>185.0</ele><time>2026-04-09T12:54:23.899Z</time></trkpt><trkpt lat="44.30955" lon="11.26009"><ele>195.0</ele><time>2026-04-09T12:54:25.9Z</time></trkpt><trkpt lat="44.3096783" lon="11.26023"><ele>185.66666666666666</ele><time>2026-04-09T12:54:26.899Z</time></trkpt><trkpt lat="44.3098067" lon="11.260365"><ele>176.33333333333331</ele><time>2026-04-09T12:54:27.9Z</time></trkpt><trkpt lat="44.3099317" lon="11.2604867"><ele>167.0</ele><time>2026-04-09T12:54:28.9Z</time></trkpt><trkpt lat="44.3100633" lon="11.2605967"><ele>173.66666666666666</ele><time>2026-04-09T12:54:29.899Z</time></trkpt><trkpt lat="44.3102067" lon="11.2606783"><ele>180.33333333333334</ele><time>2026-04-09T12:54:30.899Z</time></trkpt><trkpt lat="44.3103533" lon="11.2607417"><ele>187.0</ele><time>2026-04-09T12:54:31.899Z</time></trkpt><trkpt lat="44.3105067" lon="11.26079"><ele>185.75</ele><time>2026-04-09T12:54:32.9Z</time></trkpt><trkpt lat="44.3106567" lon="11.26082"><ele>184.5</ele><time>2026-04-09T12:54:33.9Z</time></trkpt><trkpt lat="44.3108067" lon="11.2608383"><ele>183.25</ele><time>2026-04-09T12:54:34.9Z</time></trkpt><trkpt lat="44.3109517" lon="11.260835"><ele>182.0</ele><time>2026-04-09T12:54:35.9Z</time></trkpt><trkpt lat="44.3110917" lon="11.2608083"><ele>182.0</ele><time>2026-04-09T12:54:36.9Z</time></trkpt><trkpt lat="44.31123" lon="11.2607467"><ele>182.0</ele><time>2026-04-09T12:54:37.9Z</time></trkpt><trkpt lat="44.3113683" lon="11.2606733"><ele>182.0</ele><time>2026-04-09T12:54:38.899Z</time></trkpt><trkpt lat="44.3115017" lon="11.26059"><ele>182.0</ele><time>2026-04-09T12:54:39.899Z</time></trkpt><trkpt lat="44.3116333" lon="11.2605133"><ele>176.75</ele><time>2026-04-09T12:54:40.899Z</time></trkpt><trkpt lat="44.3117667" lon="11.2604267"><ele>171.5</ele><time>2026-04-09T12:54:41.899Z</time></trkpt><trkpt lat="44.3118883" lon="11.2603233"><ele>166.25</ele><time>2026-04-09T12:54:42.899Z</time></trkpt><trkpt lat="44.3120133" lon="11.2602217"><ele>161.0</ele><time>2026-04-09T12:54:43.899Z</time></trkpt><trkpt lat="44.3121317" lon="11.2601117"><ele>160.33333333333331</ele><time>2026-04-09T12:54:44.899Z</time></trkpt><trkpt lat="44.31235" lon="11.25989"><ele>159.66666666666666</ele><time>2026-04-09T12:54:46.899Z</time></trkpt><trkpt lat="44.3124533" lon="11.259795"><ele>159.0</ele><time>2026-04-09T12:54:47.9Z</time></trkpt><trkpt lat="44.3125533" lon="11.2597033"><ele>159.0</ele><time>2026-04-09T12:54:48.899Z</time></trkpt><trkpt lat="44.3126517" lon="11.2596233"><ele>159.0</ele><time>2026-04-09T12:54:49.899Z</time></trkpt><trkpt lat="44.3127483" lon="11.25955"><ele>159.0</ele><time>2026-04-09T12:54:50.899Z</time></trkpt><trkpt lat="44.312855" lon="11.259495"><ele>159.0</ele><time>2026-04-09T12:54:51.899Z</time></trkpt><trkpt lat="44.3129583" lon="11.2594283"><ele>159.0</ele><time>2026-04-09T12:54:52.9Z</time></trkpt><trkpt lat="44.3130583" lon="11.259365"><ele>159.0</ele><time>2026-04-09T12:54:53.9Z</time></trkpt><trkpt lat="44.3131533" lon="11.2592967"><ele>159.0</ele><time>2026-04-09T12:54:54.9Z</time></trkpt><trkpt lat="44.3132467" lon="11.2592183"><ele>159.0</ele><time>2026-04-09T12:54:55.899Z</time></trkpt><trkpt lat="44.3133317" lon="11.259125"><ele>159.0</ele><time>2026-04-09T12:54:56.9Z</time></trkpt><trkpt lat="44.313405" lon="11.25902"><ele>159.0</ele><time>2026-04-09T12:54:57.9Z</time></trkpt><trkpt lat="44.31348" lon="11.25892"><ele>159.0</ele><time>2026-04-09T12:54:58.899Z</time></trkpt><trkpt lat="44.3135467" lon="11.258815"><ele>159.0</ele><time>2026-04-09T12:54:59.899Z</time></trkpt><trkpt lat="44.3136117" lon="11.2587"><ele>159.0</ele><time>2026-04-09T12:55:00.899Z</time></trkpt><trkpt lat="44.3136833" lon="11.258585"><ele>159.0</ele><time>2026-04-09T12:55:01.899Z</time></trkpt><trkpt lat="44.313755" lon="11.2584667"><ele>159.0</ele><time>2026-04-09T12:55:02.899Z</time></trkpt><trkpt lat="44.31382" lon="11.258355"><ele>159.0</ele><time>2026-04-09T12:55:03.899Z</time></trkpt><trkpt lat="44.31389" lon="11.25824"><ele>159.0</ele><time>2026-04-09T12:55:04.899Z</time></trkpt><trkpt lat="44.313955" lon="11.2581267"><ele>159.0</ele><time>2026-04-09T12:55:05.899Z</time></trkpt><trkpt lat="44.3140967" lon="11.2579"><ele>159.0</ele><time>2026-04-09T12:55:07.9Z</time></trkpt><trkpt lat="44.3141783" lon="11.2577933"><ele>159.0</ele><time>2026-04-09T12:55:08.899Z</time></trkpt><trkpt lat="44.314255" lon="11.257685"><ele>159.0</ele><time>2026-04-09T12:55:09.9Z</time></trkpt><trkpt lat="44.3143417" lon="11.257585"><ele>159.0</ele><time>2026-04-09T12:55:10.899Z</time></trkpt><trkpt lat="44.314435" lon="11.2574883"><ele>159.0</ele><time>2026-04-09T12:55:11.899Z</time></trkpt><trkpt lat="44.3145233" lon="11.257395"><ele>159.0</ele><time>2026-04-09T12:55:12.899Z</time></trkpt><trkpt lat="44.31461" lon="11.2573067"><ele>159.0</ele><time>2026-04-09T12:55:13.899Z</time></trkpt><trkpt lat="44.3146933" lon="11.2572217"><ele>159.0</ele><time>2026-04-09T12:55:14.899Z</time></trkpt><trkpt lat="44.314775" lon="11.257125"><ele>159.0</ele><time>2026-04-09T12:55:15.899Z</time></trkpt><trkpt lat="44.3148517" lon="11.2570467"><ele>159.0</ele><time>2026-04-09T12:55:16.899Z</time></trkpt><trkpt lat="44.3149117" lon="11.2569567"><ele>159.0</ele><time>2026-04-09T12:55:17.899Z</time></trkpt><trkpt lat="44.3149767" lon="11.25688"><ele>159.0</ele><time>2026-04-09T12:55:18.899Z</time></trkpt><trkpt lat="44.31504" lon="11.2568117"><ele>159.0</ele><time>2026-04-09T12:55:19.899Z</time></trkpt><trkpt lat="44.3150933" lon="11.2567483"><ele>159.0</ele><time>2026-04-09T12:55:20.899Z</time></trkpt><trkpt lat="44.3151383" lon="11.2566867"><ele>159.0</ele><time>2026-04-09T12:55:21.899Z</time></trkpt><trkpt lat="44.3152367" lon="11.2566233"><ele>159.0</ele><time>2026-04-09T12:55:23.9Z</time></trkpt><trkpt lat="44.3153433" lon="11.2566567"><ele>159.0</ele><time>2026-04-09T12:55:25.899Z</time></trkpt><trkpt lat="44.315425" lon="11.2566783"><ele>159.0</ele><time>2026-04-09T12:55:27.899Z</time></trkpt><trkpt lat="44.3156033" lon="11.2567117"><ele>159.0</ele><time>2026-04-09T12:55:32.899Z</time></trkpt><trkpt lat="44.315695" lon="11.2567133"><ele>159.0</ele><time>2026-04-09T12:55:34.899Z</time></trkpt><trkpt lat="44.3157817" lon="11.2567383"><ele>159.0</ele><time>2026-04-09T12:55:37.899Z</time></trkpt><trkpt lat="44.31588" lon="11.2567467"><ele>158.83333333333334</ele><time>2026-04-09T12:55:39.899Z</time></trkpt><trkpt lat="44.3159433" lon="11.2567533"><ele>158.66666666666666</ele><time>2026-04-09T12:55:40.899Z</time></trkpt><trkpt lat="44.3160117" lon="11.2567633"><ele>158.5</ele><time>2026-04-09T12:55:41.899Z</time></trkpt><trkpt lat="44.3161383" lon="11.2567967"><ele>158.33333333333331</ele><time>2026-04-09T12:55:43.899Z</time></trkpt><trkpt lat="44.3162083" lon="11.2568167"><ele>158.16666666666666</ele><time>2026-04-09T12:55:44.899Z</time></trkpt><trkpt lat="44.316285" lon="11.2568433"><ele>158.0</ele><time>2026-04-09T12:55:45.899Z</time></trkpt><trkpt lat="44.31636" lon="11.256865"><ele>158.4</ele><time>2026-04-09T12:55:46.899Z</time></trkpt><trkpt lat="44.3164283" lon="11.2568833"><ele>158.8</ele><time>2026-04-09T12:55:47.899Z</time></trkpt><trkpt lat="44.3164967" lon="11.2568983"><ele>159.2</ele><time>2026-04-09T12:55:48.899Z</time></trkpt><trkpt lat="44.3166267" lon="11.2569283"><ele>159.6</ele><time>2026-04-09T12:55:50.899Z</time></trkpt><trkpt lat="44.316725" lon="11.25696"><ele>160.0</ele><time>2026-04-09T12:55:52.899Z</time></trkpt><trkpt lat="44.3168333" lon="11.2570017"><ele>160.0</ele><time>2026-04-09T12:55:54.899Z</time></trkpt><trkpt lat="44.3169483" lon="11.25708"><ele>160.0</ele><time>2026-04-09T12:55:56.9Z</time></trkpt><trkpt lat="44.3170133" lon="11.2571417"><ele>160.0</ele><time>2026-04-09T12:55:57.9Z</time></trkpt><trkpt lat="44.3170717" lon="11.25721"><ele>160.0</ele><time>2026-04-09T12:55:58.899Z</time></trkpt><trkpt lat="44.31713" lon="11.257285"><ele>160.0</ele><time>2026-04-09T12:55:59.9Z</time></trkpt><trkpt lat="44.31718" lon="11.25736"><ele>160.0</ele><time>2026-04-09T12:56:00.899Z</time></trkpt><trkpt lat="44.3172383" lon="11.257435"><ele>160.0</ele><time>2026-04-09T12:56:01.9Z</time></trkpt><trkpt lat="44.3172967" lon="11.2575083"><ele>160.0</ele><time>2026-04-09T12:56:02.899Z</time></trkpt><trkpt lat="44.3173567" lon="11.2575833"><ele>160.0</ele><time>2026-04-09T12:56:03.899Z</time></trkpt><trkpt lat="44.317405" lon="11.25767"><ele>160.0</ele><time>2026-04-09T12:56:04.899Z</time></trkpt><trkpt lat="44.317455" lon="11.2577517"><ele>160.0</ele><time>2026-04-09T12:56:05.899Z</time></trkpt><trkpt lat="44.3175033" lon="11.25784"><ele>160.0</ele><time>2026-04-09T12:56:06.899Z</time></trkpt><trkpt lat="44.3175483" lon="11.2579233"><ele>160.0</ele><time>2026-04-09T12:56:07.899Z</time></trkpt><trkpt lat="44.3175867" lon="11.258005"><ele>160.0</ele><time>2026-04-09T12:56:08.899Z</time></trkpt><trkpt lat="44.3176367" lon="11.258075"><ele>160.0</ele><time>2026-04-09T12:56:09.899Z</time></trkpt><trkpt lat="44.31772" lon="11.2582283"><ele>160.0</ele><time>2026-04-09T12:56:11.9Z</time></trkpt><trkpt lat="44.3177617" lon="11.2583"><ele>160.0</ele><time>2026-04-09T12:56:12.899Z</time></trkpt><trkpt lat="44.317805" lon="11.2583717"><ele>160.0</ele><time>2026-04-09T12:56:13.899Z</time></trkpt><trkpt lat="44.3178467" lon="11.2584417"><ele>159.57142857142856</ele><time>2026-04-09T12:56:14.899Z</time></trkpt><trkpt lat="44.317885" lon="11.2585183"><ele>159.14285714285714</ele><time>2026-04-09T12:56:15.899Z</time></trkpt><trkpt lat="44.3179217" lon="11.2585933"><ele>158.71428571428572</ele><time>2026-04-09T12:56:16.899Z</time></trkpt><trkpt lat="44.3179817" lon="11.258665"><ele>158.28571428571428</ele><time>2026-04-09T12:56:17.899Z</time></trkpt><trkpt lat="44.3180517" lon="11.2587233"><ele>157.85714285714286</ele><time>2026-04-09T12:56:18.899Z</time></trkpt><trkpt lat="44.3181233" lon="11.2587683"><ele>157.42857142857142</ele><time>2026-04-09T12:56:19.899Z</time></trkpt><trkpt lat="44.3181833" lon="11.2588167"><ele>157.0</ele><time>2026-04-09T12:56:20.899Z</time></trkpt><trkpt lat="44.3182517" lon="11.2588633"><ele>157.0</ele><time>2026-04-09T12:56:21.899Z</time></trkpt><trkpt lat="44.3183733" lon="11.25891"><ele>157.0</ele><time>2026-04-09T12:56:23.899Z</time></trkpt><trkpt lat="44.3184967" lon="11.2589167"><ele>157.0</ele><time>2026-04-09T12:56:25.899Z</time></trkpt><trkpt lat="44.318575" lon="11.2589333"><ele>157.0</ele><time>2026-04-09T12:56:27.899Z</time></trkpt><trkpt lat="44.3186583" lon="11.2589967"><ele>157.0</ele><time>2026-04-09T12:56:30.899Z</time></trkpt><trkpt lat="44.318825" lon="11.2591733"><ele>157.2</ele><time>2026-04-09T12:56:34.899Z</time></trkpt><trkpt lat="44.3188933" lon="11.2592467"><ele>157.39999999999998</ele><time>2026-04-09T12:56:35.899Z</time></trkpt><trkpt lat="44.3189733" lon="11.2593217"><ele>157.60000000000002</ele><time>2026-04-09T12:56:36.899Z</time></trkpt><trkpt lat="44.3190683" lon="11.25939"><ele>157.8</ele><time>2026-04-09T12:56:37.899Z</time></trkpt><trkpt lat="44.319175" lon="11.2594617"><ele>158.0</ele><time>2026-04-09T12:56:38.899Z</time></trkpt><trkpt lat="44.3192917" lon="11.2595267"><ele>158.0</ele><time>2026-04-09T12:56:39.899Z</time></trkpt><trkpt lat="44.3194067" lon="11.2595883"><ele>158.0</ele><time>2026-04-09T12:56:40.899Z</time></trkpt><trkpt lat="44.3195233" lon="11.2596417"><ele>158.0</ele><time>2026-04-09T12:56:41.9Z</time></trkpt><trkpt lat="44.31964" lon="11.2597"><ele>158.0</ele><time>2026-04-09T12:56:42.899Z</time></trkpt><trkpt lat="44.3197583" lon="11.2597583"><ele>158.5</ele><time>2026-04-09T12:56:43.899Z</time></trkpt><trkpt lat="44.31988" lon="11.2598133"><ele>159.0</ele><time>2026-04-09T12:56:44.899Z</time></trkpt><trkpt lat="44.3199917" lon="11.2598733"><ele>159.5</ele><time>2026-04-09T12:56:45.899Z</time></trkpt><trkpt lat="44.3200933" lon="11.2599217"><ele>160.0</ele><time>2026-04-09T12:56:46.9Z</time></trkpt><trkpt lat="44.3201917" lon="11.25997"><ele>160.0</ele><time>2026-04-09T12:56:47.899Z</time></trkpt><trkpt lat="44.3202767" lon="11.2600083"><ele>160.0</ele><time>2026-04-09T12:56:48.9Z</time></trkpt><trkpt lat="44.3203533" lon="11.2600433"><ele>160.0</ele><time>2026-04-09T12:56:49.899Z</time></trkpt><trkpt lat="44.320435" lon="11.26008"><ele>160.0</ele><time>2026-04-09T12:56:50.9Z</time></trkpt><trkpt lat="44.32051" lon="11.26011"><ele>160.0</ele><time>2026-04-09T12:56:51.899Z</time></trkpt><trkpt lat="44.320655" lon="11.260185"><ele>159.2</ele><time>2026-04-09T12:56:53.899Z</time></trkpt><trkpt lat="44.32073" lon="11.26023"><ele>158.4</ele><time>2026-04-09T12:56:54.899Z</time></trkpt><trkpt lat="44.3208083" lon="11.260275"><ele>157.6</ele><time>2026-04-09T12:56:55.9Z</time></trkpt><trkpt lat="44.32089" lon="11.260315"><ele>156.8</ele><time>2026-04-09T12:56:56.9Z</time></trkpt><trkpt lat="44.320985" lon="11.2603483"><ele>156.0</ele><time>2026-04-09T12:56:57.899Z</time></trkpt><trkpt lat="44.3210833" lon="11.2603917"><ele>156.0</ele><time>2026-04-09T12:56:58.9Z</time></trkpt><trkpt lat="44.32119" lon="11.2604417"><ele>156.0</ele><time>2026-04-09T12:56:59.899Z</time></trkpt><trkpt lat="44.321295" lon="11.260495"><ele>156.0</ele><time>2026-04-09T12:57:00.9Z</time></trkpt><trkpt lat="44.3214033" lon="11.26057"><ele>156.0</ele><time>2026-04-09T12:57:01.899Z</time></trkpt><trkpt lat="44.3215183" lon="11.2606583"><ele>157.25</ele><time>2026-04-09T12:57:02.899Z</time></trkpt><trkpt lat="44.3216233" lon="11.2607483"><ele>158.5</ele><time>2026-04-09T12:57:03.899Z</time></trkpt><trkpt lat="44.321735" lon="11.260815"><ele>159.75</ele><time>2026-04-09T12:57:04.899Z</time></trkpt><trkpt lat="44.3218467" lon="11.2608967"><ele>161.0</ele><time>2026-04-09T12:57:05.899Z</time></trkpt><trkpt lat="44.3219583" lon="11.260975"><ele>161.0</ele><time>2026-04-09T12:57:06.899Z</time></trkpt><trkpt lat="44.32207" lon="11.2610517"><ele>161.0</ele><time>2026-04-09T12:57:07.899Z</time></trkpt><trkpt lat="44.3221883" lon="11.2611367"><ele>161.0</ele><time>2026-04-09T12:57:08.899Z</time></trkpt><trkpt lat="44.3223067" lon="11.261215"><ele>161.0</ele><time>2026-04-09T12:57:09.899Z</time></trkpt><trkpt lat="44.3224283" lon="11.2612917"><ele>162.0</ele><time>2026-04-09T12:57:10.899Z</time></trkpt><trkpt lat="44.3225483" lon="11.261365"><ele>163.0</ele><time>2026-04-09T12:57:11.899Z</time></trkpt><trkpt lat="44.3226667" lon="11.2614367"><ele>164.0</ele><time>2026-04-09T12:57:12.899Z</time></trkpt><trkpt lat="44.32291" lon="11.2615733"><ele>164.0</ele><time>2026-04-09T12:57:14.899Z</time></trkpt><trkpt lat="44.3230433" lon="11.2616533"><ele>164.0</ele><time>2026-04-09T12:57:15.899Z</time></trkpt><trkpt lat="44.3231733" lon="11.2617383"><ele>164.0</ele><time>2026-04-09T12:57:16.899Z</time></trkpt><trkpt lat="44.32331" lon="11.2618183"><ele>164.0</ele><time>2026-04-09T12:57:17.899Z</time></trkpt><trkpt lat="44.3234483" lon="11.2618967"><ele>161.33333333333331</ele><time>2026-04-09T12:57:18.899Z</time></trkpt><trkpt lat="44.3236067" lon="11.2619717"><ele>158.66666666666666</ele><time>2026-04-09T12:57:19.899Z</time></trkpt><trkpt lat="44.323785" lon="11.26203"><ele>156.0</ele><time>2026-04-09T12:57:20.899Z</time></trkpt><trkpt lat="44.3239683" lon="11.262075"><ele>154.33333333333334</ele><time>2026-04-09T12:57:21.9Z</time></trkpt><trkpt lat="44.324155" lon="11.2621167"><ele>152.66666666666669</ele><time>2026-04-09T12:57:22.899Z</time></trkpt><trkpt lat="44.3243367" lon="11.2621483"><ele>151.0</ele><time>2026-04-09T12:57:23.899Z</time></trkpt><trkpt lat="44.3245083" lon="11.2621683"><ele>151.0</ele><time>2026-04-09T12:57:24.899Z</time></trkpt><trkpt lat="44.3246867" lon="11.262175"><ele>151.0</ele><time>2026-04-09T12:57:25.9Z</time></trkpt><trkpt lat="44.3248633" lon="11.2621767"><ele>151.0</ele><time>2026-04-09T12:57:26.9Z</time></trkpt><trkpt lat="44.32505" lon="11.262185"><ele>150.0</ele><time>2026-04-09T12:57:27.899Z</time></trkpt><trkpt lat="44.3252167" lon="11.2621883"><ele>149.0</ele><time>2026-04-09T12:57:28.899Z</time></trkpt><trkpt lat="44.3253767" lon="11.262195"><ele>148.0</ele><time>2026-04-09T12:57:29.899Z</time></trkpt><trkpt lat="44.3255317" lon="11.2622033"><ele>147.5</ele><time>2026-04-09T12:57:30.899Z</time></trkpt><trkpt lat="44.32569" lon="11.2622183"><ele>147.0</ele><time>2026-04-09T12:57:31.899Z</time></trkpt><trkpt lat="44.3258267" lon="11.26224"><ele>146.5</ele><time>2026-04-09T12:57:32.898Z</time></trkpt><trkpt lat="44.3259617" lon="11.26228"><ele>146.0</ele><time>2026-04-09T12:57:33.898Z</time></trkpt><trkpt lat="44.32621" lon="11.2624133"><ele>147.0</ele><time>2026-04-09T12:57:35.899Z</time></trkpt><trkpt lat="44.3263283" lon="11.2625067"><ele>148.0</ele><time>2026-04-09T12:57:36.898Z</time></trkpt><trkpt lat="44.32646" lon="11.2626033"><ele>149.0</ele><time>2026-04-09T12:57:37.898Z</time></trkpt><trkpt lat="44.32657" lon="11.2627133"><ele>150.0</ele><time>2026-04-09T12:57:38.898Z</time></trkpt><trkpt lat="44.3266567" lon="11.2628317"><ele>150.0</ele><time>2026-04-09T12:57:39.898Z</time></trkpt><trkpt lat="44.3267367" lon="11.26295"><ele>150.0</ele><time>2026-04-09T12:57:40.898Z</time></trkpt><trkpt lat="44.3268083" lon="11.2630633"><ele>150.0</ele><time>2026-04-09T12:57:41.898Z</time></trkpt><trkpt lat="44.32687" lon="11.2631733"><ele>150.0</ele><time>2026-04-09T12:57:42.898Z</time></trkpt><trkpt lat="44.3269217" lon="11.2632817"><ele>150.0</ele><time>2026-04-09T12:57:43.898Z</time></trkpt><trkpt lat="44.3269667" lon="11.2633867"><ele>150.5</ele><time>2026-04-09T12:57:44.898Z</time></trkpt><trkpt lat="44.3270117" lon="11.2634833"><ele>151.0</ele><time>2026-04-09T12:57:45.898Z</time></trkpt><trkpt lat="44.3270617" lon="11.2635717"><ele>151.5</ele><time>2026-04-09T12:57:46.899Z</time></trkpt><trkpt lat="44.3271283" lon="11.2636417"><ele>152.0</ele><time>2026-04-09T12:57:47.898Z</time></trkpt><trkpt lat="44.3272117" lon="11.263675"><ele>152.5</ele><time>2026-04-09T12:57:48.898Z</time></trkpt><trkpt lat="44.3272933" lon="11.2637033"><ele>153.0</ele><time>2026-04-09T12:57:49.898Z</time></trkpt><trkpt lat="44.3273683" lon="11.26374"><ele>151.8</ele><time>2026-04-09T12:57:50.898Z</time></trkpt><trkpt lat="44.32744" lon="11.2638067"><ele>150.60000000000002</ele><time>2026-04-09T12:57:51.898Z</time></trkpt><trkpt lat="44.3275017" lon="11.2638983"><ele>149.39999999999998</ele><time>2026-04-09T12:57:52.899Z</time></trkpt><trkpt lat="44.3275617" lon="11.264"><ele>148.2</ele><time>2026-04-09T12:57:53.899Z</time></trkpt><trkpt lat="44.3276133" lon="11.2641083"><ele>147.0</ele><time>2026-04-09T12:57:54.898Z</time></trkpt><trkpt lat="44.3277183" lon="11.2643133"><ele>147.0</ele><time>2026-04-09T12:57:56.898Z</time></trkpt><trkpt lat="44.3277633" lon="11.2644017"><ele>147.0</ele><time>2026-04-09T12:57:57.898Z</time></trkpt><trkpt lat="44.3278033" lon="11.2644983"><ele>147.0</ele><time>2026-04-09T12:57:58.899Z</time></trkpt><trkpt lat="44.3278433" lon="11.264595"><ele>147.0</ele><time>2026-04-09T12:57:59.898Z</time></trkpt><trkpt lat="44.3278883" lon="11.2646917"><ele>147.0</ele><time>2026-04-09T12:58:00.899Z</time></trkpt><trkpt lat="44.3279483" lon="11.264805"><ele>147.0</ele><time>2026-04-09T12:58:01.898Z</time></trkpt><trkpt lat="44.3280167" lon="11.264935"><ele>147.33333333333334</ele><time>2026-04-09T12:58:02.898Z</time></trkpt><trkpt lat="44.32809" lon="11.2650867"><ele>147.66666666666669</ele><time>2026-04-09T12:58:03.898Z</time></trkpt><trkpt lat="44.3281783" lon="11.2652567"><ele>148.0</ele><time>2026-04-09T12:58:04.898Z</time></trkpt><trkpt lat="44.3282733" lon="11.2654567"><ele>148.33333333333334</ele><time>2026-04-09T12:58:05.898Z</time></trkpt><trkpt lat="44.328375" lon="11.2656867"><ele>148.66666666666666</ele><time>2026-04-09T12:58:06.898Z</time></trkpt><trkpt lat="44.3284883" lon="11.2659467"><ele>149.0</ele><time>2026-04-09T12:58:07.898Z</time></trkpt><trkpt lat="44.3286083" lon="11.2662133"><ele>151.0</ele><time>2026-04-09T12:58:08.899Z</time></trkpt><trkpt lat="44.3287333" lon="11.2664883"><ele>153.0</ele><time>2026-04-09T12:58:09.898Z</time></trkpt><trkpt lat="44.3288633" lon="11.2667617"><ele>153.33333333333334</ele><time>2026-04-09T12:58:10.899Z</time></trkpt><trkpt lat="44.32899" lon="11.2670233"><ele>153.66666666666669</ele><time>2026-04-09T12:58:11.898Z</time></trkpt><trkpt lat="44.3291083" lon="11.26728"><ele>154.0</ele><time>2026-04-09T12:58:12.898Z</time></trkpt><trkpt lat="44.329225" lon="11.2675483"><ele>154.0</ele><time>2026-04-09T12:58:13.898Z</time></trkpt><trkpt lat="44.3293367" lon="11.267805"><ele>154.0</ele><time>2026-04-09T12:58:14.898Z</time></trkpt><trkpt lat="44.3294467" lon="11.2680417"><ele>154.0</ele><time>2026-04-09T12:58:15.898Z</time></trkpt><trkpt lat="44.329665" lon="11.2684933"><ele>152.0</ele><time>2026-04-09T12:58:17.898Z</time></trkpt><trkpt lat="44.329785" lon="11.26871"><ele>150.0</ele><time>2026-04-09T12:58:18.899Z</time></trkpt><trkpt lat="44.32991" lon="11.2689183"><ele>148.0</ele><time>2026-04-09T12:58:19.898Z</time></trkpt><trkpt lat="44.3300467" lon="11.26912"><ele>148.0</ele><time>2026-04-09T12:58:20.898Z</time></trkpt><trkpt lat="44.3301833" lon="11.269305"><ele>148.0</ele><time>2026-04-09T12:58:21.898Z</time></trkpt><trkpt lat="44.3303517" lon="11.2694717"><ele>148.0</ele><time>2026-04-09T12:58:22.898Z</time></trkpt><trkpt lat="44.33053" lon="11.269625"><ele>148.66666666666669</ele><time>2026-04-09T12:58:23.899Z</time></trkpt><trkpt lat="44.3307117" lon="11.2697667"><ele>149.33333333333334</ele><time>2026-04-09T12:58:24.898Z</time></trkpt><trkpt lat="44.3308983" lon="11.2698867"><ele>150.0</ele><time>2026-04-09T12:58:25.898Z</time></trkpt><trkpt lat="44.331085" lon="11.269985"><ele>150.0</ele><time>2026-04-09T12:58:26.898Z</time></trkpt><trkpt lat="44.3312667" lon="11.270065"><ele>150.0</ele><time>2026-04-09T12:58:27.898Z</time></trkpt><trkpt lat="44.3314417" lon="11.2701283"><ele>150.0</ele><time>2026-04-09T12:58:28.898Z</time></trkpt><trkpt lat="44.3316233" lon="11.2701667"><ele>148.66666666666666</ele><time>2026-04-09T12:58:29.898Z</time></trkpt><trkpt lat="44.3318133" lon="11.27019"><ele>147.33333333333331</ele><time>2026-04-09T12:58:30.898Z</time></trkpt><trkpt lat="44.332" lon="11.2701967"><ele>146.0</ele><time>2026-04-09T12:58:31.899Z</time></trkpt><trkpt lat="44.3321933" lon="11.2701867"><ele>146.66666666666666</ele><time>2026-04-09T12:58:32.898Z</time></trkpt><trkpt lat="44.3323833" lon="11.2701483"><ele>147.33333333333334</ele><time>2026-04-09T12:58:33.898Z</time></trkpt><trkpt lat="44.3325817" lon="11.2701"><ele>148.0</ele><time>2026-04-09T12:58:34.898Z</time></trkpt><trkpt lat="44.3327783" lon="11.27003"><ele>148.0</ele><time>2026-04-09T12:58:35.898Z</time></trkpt><trkpt lat="44.3329733" lon="11.2699717"><ele>148.0</ele><time>2026-04-09T12:58:36.898Z</time></trkpt><trkpt lat="44.3333533" lon="11.269835"><ele>144.33333333333334</ele><time>2026-04-09T12:58:38.898Z</time></trkpt><trkpt lat="44.333535" lon="11.269775"><ele>140.66666666666666</ele><time>2026-04-09T12:58:39.898Z</time></trkpt><trkpt lat="44.333705" lon="11.2697183"><ele>137.0</ele><time>2026-04-09T12:58:40.898Z</time></trkpt><trkpt lat="44.3338567" lon="11.26967"><ele>137.5</ele><time>2026-04-09T12:58:41.898Z</time></trkpt><trkpt lat="44.333995" lon="11.26962"><ele>138.0</ele><time>2026-04-09T12:58:42.898Z</time></trkpt><trkpt lat="44.3341233" lon="11.2695783"><ele>138.5</ele><time>2026-04-09T12:58:43.899Z</time></trkpt><trkpt lat="44.33424" lon="11.26956"><ele>139.0</ele><time>2026-04-09T12:58:44.898Z</time></trkpt><trkpt lat="44.3343483" lon="11.26958"><ele>139.0</ele><time>2026-04-09T12:58:45.898Z</time></trkpt><trkpt lat="44.3344583" lon="11.2696183"><ele>139.0</ele><time>2026-04-09T12:58:46.898Z</time></trkpt><trkpt lat="44.3345733" lon="11.2696433"><ele>139.0</ele><time>2026-04-09T12:58:47.898Z</time></trkpt><trkpt lat="44.3346983" lon="11.2696483"><ele>139.0</ele><time>2026-04-09T12:58:48.898Z</time></trkpt><trkpt lat="44.3348533" lon="11.2696267"><ele>140.0</ele><time>2026-04-09T12:58:49.898Z</time></trkpt><trkpt lat="44.3350267" lon="11.269605"><ele>141.0</ele><time>2026-04-09T12:58:50.898Z</time></trkpt><trkpt lat="44.3352083" lon="11.2695883"><ele>142.0</ele><time>2026-04-09T12:58:51.899Z</time></trkpt><trkpt lat="44.3354083" lon="11.26958"><ele>142.0</ele><time>2026-04-09T12:58:52.898Z</time></trkpt><trkpt lat="44.3356033" lon="11.2695533"><ele>142.0</ele><time>2026-04-09T12:58:53.899Z</time></trkpt><trkpt lat="44.335815" lon="11.2694967"><ele>142.0</ele><time>2026-04-09T12:58:54.899Z</time></trkpt><trkpt lat="44.3360267" lon="11.2694317"><ele>142.0</ele><time>2026-04-09T12:58:55.898Z</time></trkpt><trkpt lat="44.336235" lon="11.2693583"><ele>142.0</ele><time>2026-04-09T12:58:56.898Z</time></trkpt><trkpt lat="44.336445" lon="11.269275"><ele>142.0</ele><time>2026-04-09T12:58:57.898Z</time></trkpt><trkpt lat="44.3368233" lon="11.2690883"><ele>142.0</ele><time>2026-04-09T12:58:59.899Z</time></trkpt><trkpt lat="44.33699" lon="11.268995"><ele>142.0</ele><time>2026-04-09T12:59:00.899Z</time></trkpt><trkpt lat="44.3371533" lon="11.2689083"><ele>142.0</ele><time>2026-04-09T12:59:01.898Z</time></trkpt><trkpt lat="44.3373167" lon="11.268815"><ele>141.0</ele><time>2026-04-09T12:59:02.898Z</time></trkpt><trkpt lat="44.3374833" lon="11.2687333"><ele>140.0</ele><time>2026-04-09T12:59:03.898Z</time></trkpt><trkpt lat="44.33765" lon="11.2686567"><ele>139.0</ele><time>2026-04-09T12:59:04.898Z</time></trkpt><trkpt lat="44.3378183" lon="11.2685817"><ele>139.0</ele><time>2026-04-09T12:59:05.898Z</time></trkpt><trkpt lat="44.3379983" lon="11.2685117"><ele>139.0</ele><time>2026-04-09T12:59:06.898Z</time></trkpt><trkpt lat="44.338165" lon="11.2684367"><ele>139.0</ele><time>2026-04-09T12:59:07.898Z</time></trkpt><trkpt lat="44.338345" lon="11.2683767"><ele>140.33333333333334</ele><time>2026-04-09T12:59:08.898Z</time></trkpt><trkpt lat="44.338525" lon="11.2683333"><ele>141.66666666666666</ele><time>2026-04-09T12:59:09.898Z</time></trkpt><trkpt lat="44.338715" lon="11.2682983"><ele>143.0</ele><time>2026-04-09T12:59:10.898Z</time></trkpt><trkpt lat="44.3389117" lon="11.2682817"><ele>143.0</ele><time>2026-04-09T12:59:11.899Z</time></trkpt><trkpt lat="44.3390967" lon="11.268265"><ele>143.0</ele><time>2026-04-09T12:59:12.898Z</time></trkpt><trkpt lat="44.3392783" lon="11.268265"><ele>143.0</ele><time>2026-04-09T12:59:13.899Z</time></trkpt><trkpt lat="44.33945" lon="11.26827"><ele>143.0</ele><time>2026-04-09T12:59:14.898Z</time></trkpt><trkpt lat="44.3396167" lon="11.2682917"><ele>143.0</ele><time>2026-04-09T12:59:15.898Z</time></trkpt><trkpt lat="44.3397717" lon="11.2683317"><ele>143.0</ele><time>2026-04-09T12:59:16.898Z</time></trkpt><trkpt lat="44.3399117" lon="11.2683867"><ele>140.5</ele><time>2026-04-09T12:59:17.898Z</time></trkpt><trkpt lat="44.3400567" lon="11.26846"><ele>138.0</ele><time>2026-04-09T12:59:18.899Z</time></trkpt><trkpt lat="44.3403583" lon="11.2686083"><ele>138.0</ele><time>2026-04-09T12:59:20.899Z</time></trkpt><trkpt lat="44.3405083" lon="11.2686917"><ele>138.0</ele><time>2026-04-09T12:59:21.898Z</time></trkpt><trkpt lat="44.3406667" lon="11.2687617"><ele>138.0</ele><time>2026-04-09T12:59:22.898Z</time></trkpt><trkpt lat="44.34083" lon="11.2688217"><ele>136.66666666666666</ele><time>2026-04-09T12:59:23.898Z</time></trkpt><trkpt lat="44.340995" lon="11.2688783"><ele>135.33333333333331</ele><time>2026-04-09T12:59:24.898Z</time></trkpt><trkpt lat="44.3411683" lon="11.2689233"><ele>134.0</ele><time>2026-04-09T12:59:25.898Z</time></trkpt><trkpt lat="44.3413467" lon="11.26896"><ele>133.66666666666666</ele><time>2026-04-09T12:59:26.898Z</time></trkpt><trkpt lat="44.3415333" lon="11.268995"><ele>133.33333333333334</ele><time>2026-04-09T12:59:27.899Z</time></trkpt><trkpt lat="44.34172" lon="11.2690217"><ele>133.0</ele><time>2026-04-09T12:59:28.898Z</time></trkpt><trkpt lat="44.3419117" lon="11.2690467"><ele>133.0</ele><time>2026-04-09T12:59:29.898Z</time></trkpt><trkpt lat="44.342105" lon="11.2690617"><ele>133.0</ele><time>2026-04-09T12:59:30.898Z</time></trkpt><trkpt lat="44.3422983" lon="11.2690683"><ele>133.0</ele><time>2026-04-09T12:59:31.898Z</time></trkpt><trkpt lat="44.342495" lon="11.2690633"><ele>132.66666666666669</ele><time>2026-04-09T12:59:32.898Z</time></trkpt><trkpt lat="44.3426917" lon="11.2690483"><ele>132.33333333333334</ele><time>2026-04-09T12:59:33.898Z</time></trkpt><trkpt lat="44.34289" lon="11.2690267"><ele>132.0</ele><time>2026-04-09T12:59:34.898Z</time></trkpt><trkpt lat="44.3430817" lon="11.2690067"><ele>131.66666666666666</ele><time>2026-04-09T12:59:35.898Z</time></trkpt><trkpt lat="44.343285" lon="11.268975"><ele>131.33333333333331</ele><time>2026-04-09T12:59:36.898Z</time></trkpt><trkpt lat="44.343485" lon="11.2689417"><ele>131.0</ele><time>2026-04-09T12:59:37.898Z</time></trkpt><trkpt lat="44.3436883" lon="11.2689067"><ele>130.5</ele><time>2026-04-09T12:59:38.898Z</time></trkpt><trkpt lat="44.343895" lon="11.2688783"><ele>130.0</ele><time>2026-04-09T12:59:39.898Z</time></trkpt><trkpt lat="44.3443233" lon="11.2688167"><ele>130.0</ele><time>2026-04-09T12:59:41.898Z</time></trkpt><trkpt lat="44.3445367" lon="11.26878"><ele>130.0</ele><time>2026-04-09T12:59:42.899Z</time></trkpt><trkpt lat="44.344755" lon="11.2687417"><ele>130.0</ele><time>2026-04-09T12:59:43.898Z</time></trkpt><trkpt lat="44.3449733" lon="11.268705"><ele>130.0</ele><time>2026-04-09T12:59:44.898Z</time></trkpt><trkpt lat="44.345195" lon="11.2686633"><ele>130.0</ele><time>2026-04-09T12:59:45.898Z</time></trkpt><trkpt lat="44.3454133" lon="11.26864"><ele>130.0</ele><time>2026-04-09T12:59:46.899Z</time></trkpt><trkpt lat="44.34564" lon="11.2686333"><ele>129.66666666666669</ele><time>2026-04-09T12:59:47.898Z</time></trkpt><trkpt lat="44.34586" lon="11.2686083"><ele>129.33333333333334</ele><time>2026-04-09T12:59:48.898Z</time></trkpt><trkpt lat="44.346085" lon="11.2685817"><ele>129.0</ele><time>2026-04-09T12:59:49.898Z</time></trkpt><trkpt lat="44.34631" lon="11.268555"><ele>129.5</ele><time>2026-04-09T12:59:50.898Z</time></trkpt><trkpt lat="44.3465383" lon="11.2685183"><ele>130.0</ele><time>2026-04-09T12:59:51.898Z</time></trkpt><trkpt lat="44.346775" lon="11.2684767"><ele>130.0</ele><time>2026-04-09T12:59:52.898Z</time></trkpt><trkpt lat="44.347005" lon="11.2684383"><ele>130.0</ele><time>2026-04-09T12:59:53.898Z</time></trkpt><trkpt lat="44.3472383" lon="11.2684"><ele>130.5</ele><time>2026-04-09T12:59:54.898Z</time></trkpt><trkpt lat="44.3474717" lon="11.2683567"><ele>131.0</ele><time>2026-04-09T12:59:55.898Z</time></trkpt><trkpt lat="44.347705" lon="11.2683167"><ele>131.0</ele><time>2026-04-09T12:59:56.898Z</time></trkpt><trkpt lat="44.3479433" lon="11.2682783"><ele>131.0</ele><time>2026-04-09T12:59:57.898Z</time></trkpt><trkpt lat="44.3481817" lon="11.2682367"><ele>135.5</ele><time>2026-04-09T12:59:58.898Z</time></trkpt><trkpt lat="44.34842" lon="11.268195"><ele>140.0</ele><time>2026-04-09T12:59:59.898Z</time></trkpt><trkpt lat="44.3486667" lon="11.2681383"><ele>126.0</ele><time>2026-04-09T13:00:00.898Z</time></trkpt><trkpt lat="44.3491467" lon="11.2680267"><ele>126.0</ele><time>2026-04-09T13:00:02.898Z</time></trkpt><trkpt lat="44.349375" lon="11.267965"><ele>126.0</ele><time>2026-04-09T13:00:03.898Z</time></trkpt><trkpt lat="44.34959" lon="11.26791"><ele>126.33333333333334</ele><time>2026-04-09T13:00:04.899Z</time></trkpt><trkpt lat="44.3497967" lon="11.26785"><ele>126.66666666666667</ele><time>2026-04-09T13:00:05.898Z</time></trkpt><trkpt lat="44.3499933" lon="11.2678"><ele>127.0</ele><time>2026-04-09T13:00:06.898Z</time></trkpt><trkpt lat="44.3501967" lon="11.2677467"><ele>127.0</ele><time>2026-04-09T13:00:07.898Z</time></trkpt><trkpt lat="44.3503917" lon="11.26768"><ele>127.0</ele><time>2026-04-09T13:00:08.898Z</time></trkpt><trkpt lat="44.35058" lon="11.2675867"><ele>127.0</ele><time>2026-04-09T13:00:09.899Z</time></trkpt><trkpt lat="44.3507733" lon="11.2674683"><ele>126.66666666666667</ele><time>2026-04-09T13:00:10.898Z</time></trkpt><trkpt lat="44.3509533" lon="11.2673383"><ele>126.33333333333334</ele><time>2026-04-09T13:00:11.899Z</time></trkpt><trkpt lat="44.3511417" lon="11.267225"><ele>126.0</ele><time>2026-04-09T13:00:12.899Z</time></trkpt><trkpt lat="44.351335" lon="11.2671"><ele>126.66666666666666</ele><time>2026-04-09T13:00:13.898Z</time></trkpt><trkpt lat="44.3515383" lon="11.266995"><ele>127.33333333333333</ele><time>2026-04-09T13:00:14.899Z</time></trkpt><trkpt lat="44.3517533" lon="11.2669183"><ele>128.0</ele><time>2026-04-09T13:00:15.898Z</time></trkpt><trkpt lat="44.35198" lon="11.2668517"><ele>128.0</ele><time>2026-04-09T13:00:16.898Z</time></trkpt><trkpt lat="44.3522033" lon="11.2667983"><ele>128.0</ele><time>2026-04-09T13:00:17.898Z</time></trkpt><trkpt lat="44.3524217" lon="11.2667433"><ele>128.0</ele><time>2026-04-09T13:00:18.898Z</time></trkpt><trkpt lat="44.3526433" lon="11.2666633"><ele>129.33333333333331</ele><time>2026-04-09T13:00:19.898Z</time></trkpt><trkpt lat="44.3528533" lon="11.2665717"><ele>130.66666666666666</ele><time>2026-04-09T13:00:20.899Z</time></trkpt><trkpt lat="44.35305" lon="11.2664767"><ele>132.0</ele><time>2026-04-09T13:00:21.898Z</time></trkpt><trkpt lat="44.3534217" lon="11.2663083"><ele>129.0</ele><time>2026-04-09T13:00:23.898Z</time></trkpt><trkpt lat="44.353605" lon="11.2662167"><ele>126.0</ele><time>2026-04-09T13:00:24.898Z</time></trkpt><trkpt lat="44.3537933" lon="11.2661233"><ele>123.0</ele><time>2026-04-09T13:00:25.898Z</time></trkpt><trkpt lat="44.3539767" lon="11.2660283"><ele>122.33333333333334</ele><time>2026-04-09T13:00:26.898Z</time></trkpt><trkpt lat="44.3541567" lon="11.2659383"><ele>121.66666666666667</ele><time>2026-04-09T13:00:27.898Z</time></trkpt><trkpt lat="44.354335" lon="11.2658467"><ele>121.0</ele><time>2026-04-09T13:00:28.899Z</time></trkpt><trkpt lat="44.354515" lon="11.2657583"><ele>121.0</ele><time>2026-04-09T13:00:29.898Z</time></trkpt><trkpt lat="44.354695" lon="11.2656717"><ele>121.0</ele><time>2026-04-09T13:00:30.898Z</time></trkpt><trkpt lat="44.3548717" lon="11.2655767"><ele>121.0</ele><time>2026-04-09T13:00:31.898Z</time></trkpt><trkpt lat="44.35504" lon="11.2654767"><ele>119.33333333333334</ele><time>2026-04-09T13:00:32.898Z</time></trkpt><trkpt lat="44.3552067" lon="11.2653867"><ele>117.66666666666666</ele><time>2026-04-09T13:00:33.898Z</time></trkpt><trkpt lat="44.3553683" lon="11.2653017"><ele>116.0</ele><time>2026-04-09T13:00:34.899Z</time></trkpt><trkpt lat="44.3555317" lon="11.2652183"><ele>117.66666666666666</ele><time>2026-04-09T13:00:35.898Z</time></trkpt><trkpt lat="44.35569" lon="11.2651367"><ele>119.33333333333334</ele><time>2026-04-09T13:00:36.898Z</time></trkpt><trkpt lat="44.35585" lon="11.26506"><ele>121.0</ele><time>2026-04-09T13:00:37.898Z</time></trkpt><trkpt lat="44.3560033" lon="11.2649783"><ele>121.0</ele><time>2026-04-09T13:00:38.898Z</time></trkpt><trkpt lat="44.3561567" lon="11.26493"><ele>121.0</ele><time>2026-04-09T13:00:39.899Z</time></trkpt><trkpt lat="44.3563017" lon="11.26486"><ele>121.0</ele><time>2026-04-09T13:00:40.898Z</time></trkpt><trkpt lat="44.3564333" lon="11.26478"><ele>120.0</ele><time>2026-04-09T13:00:41.898Z</time></trkpt><trkpt lat="44.35656" lon="11.2647067"><ele>119.0</ele><time>2026-04-09T13:00:42.898Z</time></trkpt><trkpt lat="44.3567933" lon="11.2645733"><ele>118.0</ele><time>2026-04-09T13:00:44.898Z</time></trkpt><trkpt lat="44.3569" lon="11.2645133"><ele>118.0</ele><time>2026-04-09T13:00:45.898Z</time></trkpt><trkpt lat="44.357005" lon="11.2644683"><ele>118.00000000000001</ele><time>2026-04-09T13:00:46.898Z</time></trkpt><trkpt lat="44.3571033" lon="11.2644183"><ele>118.00000000000001</ele><time>2026-04-09T13:00:47.898Z</time></trkpt><trkpt lat="44.35719" lon="11.2643633"><ele>118.0</ele><time>2026-04-09T13:00:48.899Z</time></trkpt><trkpt lat="44.35727" lon="11.2643083"><ele>118.0</ele><time>2026-04-09T13:00:49.898Z</time></trkpt><trkpt lat="44.35735" lon="11.264245"><ele>119.60000000000001</ele><time>2026-04-09T13:00:50.898Z</time></trkpt><trkpt lat="44.35744" lon="11.2641917"><ele>121.20000000000002</ele><time>2026-04-09T13:00:51.899Z</time></trkpt><trkpt lat="44.3575467" lon="11.26413"><ele>122.8</ele><time>2026-04-09T13:00:52.898Z</time></trkpt><trkpt lat="44.357655" lon="11.2640683"><ele>124.4</ele><time>2026-04-09T13:00:53.898Z</time></trkpt><trkpt lat="44.357765" lon="11.2640183"><ele>126.0</ele><time>2026-04-09T13:00:54.898Z</time></trkpt><trkpt lat="44.3578683" lon="11.263975"><ele>125.0</ele><time>2026-04-09T13:00:55.898Z</time></trkpt><trkpt lat="44.3579617" lon="11.2639267"><ele>124.0</ele><time>2026-04-09T13:00:56.898Z</time></trkpt><trkpt lat="44.358045" lon="11.2638817"><ele>123.0</ele><time>2026-04-09T13:00:57.898Z</time></trkpt><trkpt lat="44.3581233" lon="11.263845"><ele>122.0</ele><time>2026-04-09T13:00:58.898Z</time></trkpt><trkpt lat="44.3581883" lon="11.2638117"><ele>121.0</ele><time>2026-04-09T13:00:59.898Z</time></trkpt><trkpt lat="44.3582483" lon="11.2637817"><ele>120.0</ele><time>2026-04-09T13:01:00.898Z</time></trkpt><trkpt lat="44.35831" lon="11.2637517"><ele>120.0</ele><time>2026-04-09T13:01:01.898Z</time></trkpt><trkpt lat="44.358425" lon="11.2636933"><ele>120.0</ele><time>2026-04-09T13:01:03.899Z</time></trkpt><trkpt lat="44.358605" lon="11.2636017"><ele>120.0</ele><time>2026-04-09T13:01:06.898Z</time></trkpt><trkpt lat="44.3586717" lon="11.2635717"><ele>120.0</ele><time>2026-04-09T13:01:07.898Z</time></trkpt><trkpt lat="44.3587333" lon="11.2635417"><ele>120.0</ele><time>2026-04-09T13:01:08.898Z</time></trkpt><trkpt lat="44.358855" lon="11.263505"><ele>120.2</ele><time>2026-04-09T13:01:10.898Z</time></trkpt><trkpt lat="44.35892" lon="11.2634967"><ele>120.4</ele><time>2026-04-09T13:01:11.898Z</time></trkpt><trkpt lat="44.3590333" lon="11.2634983"><ele>120.6</ele><time>2026-04-09T13:01:13.897Z</time></trkpt><trkpt lat="44.3591483" lon="11.2634983"><ele>120.8</ele><time>2026-04-09T13:01:15.897Z</time></trkpt><trkpt lat="44.3592667" lon="11.2634883"><ele>121.0</ele><time>2026-04-09T13:01:17.897Z</time></trkpt><trkpt lat="44.3593317" lon="11.2634783"><ele>121.0</ele><time>2026-04-09T13:01:18.897Z</time></trkpt><trkpt lat="44.3594733" lon="11.263475"><ele>121.0</ele><time>2026-04-09T13:01:20.897Z</time></trkpt><trkpt lat="44.35957" lon="11.2634717"><ele>121.0</ele><time>2026-04-09T13:01:21.897Z</time></trkpt><trkpt lat="44.35968" lon="11.2634767"><ele>121.0</ele><time>2026-04-09T13:01:22.897Z</time></trkpt><trkpt lat="44.3597867" lon="11.2634883"><ele>120.5</ele><time>2026-04-09T13:01:23.897Z</time></trkpt><trkpt lat="44.359905" lon="11.2635"><ele>120.0</ele><time>2026-04-09T13:01:24.898Z</time></trkpt><trkpt lat="44.360125" lon="11.2635233"><ele>119.5</ele><time>2026-04-09T13:01:26.897Z</time></trkpt><trkpt lat="44.3602183" lon="11.2635367"><ele>119.0</ele><time>2026-04-09T13:01:27.897Z</time></trkpt><trkpt lat="44.3603033" lon="11.2635483"><ele>118.99999999999999</ele><time>2026-04-09T13:01:28.897Z</time></trkpt><trkpt lat="44.3603767" lon="11.2635583"><ele>119.0</ele><time>2026-04-09T13:01:29.897Z</time></trkpt><trkpt lat="44.360445" lon="11.2635683"><ele>119.0</ele><time>2026-04-09T13:01:30.897Z</time></trkpt><trkpt lat="44.3605133" lon="11.2635733"><ele>119.0</ele><time>2026-04-09T13:01:31.897Z</time></trkpt><trkpt lat="44.3606267" lon="11.2636"><ele>118.99999999999999</ele><time>2026-04-09T13:01:33.897Z</time></trkpt><trkpt lat="44.36069" lon="11.2636033"><ele>119.0</ele><time>2026-04-09T13:01:34.897Z</time></trkpt><trkpt lat="44.360755" lon="11.2636083"><ele>118.80000000000001</ele><time>2026-04-09T13:01:35.897Z</time></trkpt><trkpt lat="44.36082" lon="11.26361"><ele>118.60000000000001</ele><time>2026-04-09T13:01:36.898Z</time></trkpt><trkpt lat="44.3608867" lon="11.2636033"><ele>118.4</ele><time>2026-04-09T13:01:37.897Z</time></trkpt><trkpt lat="44.3610083" lon="11.2635967"><ele>118.2</ele><time>2026-04-09T13:01:39.898Z</time></trkpt><trkpt lat="44.36112" lon="11.2635833"><ele>118.0</ele><time>2026-04-09T13:01:41.897Z</time></trkpt><trkpt lat="44.361225" lon="11.26356"><ele>118.0</ele><time>2026-04-09T13:01:43.898Z</time></trkpt><trkpt lat="44.3613433" lon="11.2635067"><ele>118.0</ele><time>2026-04-09T13:01:45.898Z</time></trkpt><trkpt lat="44.3615667" lon="11.2633433"><ele>118.0</ele><time>2026-04-09T13:01:49.897Z</time></trkpt><trkpt lat="44.3616733" lon="11.2632633"><ele>118.33333333333334</ele><time>2026-04-09T13:01:51.897Z</time></trkpt><trkpt lat="44.3617333" lon="11.263225"><ele>118.66666666666667</ele><time>2026-04-09T13:01:52.897Z</time></trkpt><trkpt lat="44.3617883" lon="11.2631817"><ele>119.0</ele><time>2026-04-09T13:01:53.897Z</time></trkpt><trkpt lat="44.361855" lon="11.263135"><ele>119.33333333333334</ele><time>2026-04-09T13:01:54.897Z</time></trkpt><trkpt lat="44.3619333" lon="11.26309"><ele>119.66666666666667</ele><time>2026-04-09T13:01:55.897Z</time></trkpt><trkpt lat="44.3620167" lon="11.2630517"><ele>120.0</ele><time>2026-04-09T13:01:56.898Z</time></trkpt><trkpt lat="44.362095" lon="11.2630217"><ele>119.5</ele><time>2026-04-09T13:01:57.898Z</time></trkpt><trkpt lat="44.362165" lon="11.2629933"><ele>119.0</ele><time>2026-04-09T13:01:58.897Z</time></trkpt><trkpt lat="44.3622333" lon="11.26297"><ele>118.5</ele><time>2026-04-09T13:01:59.897Z</time></trkpt><trkpt lat="44.3622967" lon="11.2629533"><ele>118.0</ele><time>2026-04-09T13:02:00.897Z</time></trkpt><trkpt lat="44.3623683" lon="11.2629333"><ele>117.5</ele><time>2026-04-09T13:02:01.897Z</time></trkpt><trkpt lat="44.3624467" lon="11.2629117"><ele>117.0</ele><time>2026-04-09T13:02:02.897Z</time></trkpt><trkpt lat="44.36254" lon="11.2628867"><ele>117.0</ele><time>2026-04-09T13:02:03.898Z</time></trkpt><trkpt lat="44.3626667" lon="11.2628467"><ele>117.0</ele><time>2026-04-09T13:02:04.897Z</time></trkpt><trkpt lat="44.3628217" lon="11.2628083"><ele>117.0</ele><time>2026-04-09T13:02:05.898Z</time></trkpt><trkpt lat="44.36298" lon="11.2627633"><ele>117.0</ele><time>2026-04-09T13:02:06.897Z</time></trkpt><trkpt lat="44.3632933" lon="11.262705"><ele>117.75</ele><time>2026-04-09T13:02:08.898Z</time></trkpt><trkpt lat="44.36344" lon="11.2626667"><ele>118.5</ele><time>2026-04-09T13:02:09.897Z</time></trkpt><trkpt lat="44.3635817" lon="11.262625"><ele>119.25</ele><time>2026-04-09T13:02:10.897Z</time></trkpt><trkpt lat="44.3637067" lon="11.26258"><ele>120.0</ele><time>2026-04-09T13:02:11.897Z</time></trkpt><trkpt lat="44.3638217" lon="11.2625183"><ele>118.75</ele><time>2026-04-09T13:02:12.898Z</time></trkpt><trkpt lat="44.36394" lon="11.262425"><ele>117.5</ele><time>2026-04-09T13:02:13.897Z</time></trkpt><trkpt lat="44.364055" lon="11.2623117"><ele>116.25</ele><time>2026-04-09T13:02:14.897Z</time></trkpt><trkpt lat="44.3641767" lon="11.2621783"><ele>115.0</ele><time>2026-04-09T13:02:15.897Z</time></trkpt><trkpt lat="44.3643067" lon="11.2620483"><ele>115.0</ele><time>2026-04-09T13:02:16.897Z</time></trkpt><trkpt lat="44.3644333" lon="11.2619283"><ele>115.0</ele><time>2026-04-09T13:02:17.897Z</time></trkpt><trkpt lat="44.3645717" lon="11.2618167"><ele>115.0</ele><time>2026-04-09T13:02:18.897Z</time></trkpt><trkpt lat="44.36472" lon="11.2617117"><ele>115.33333333333334</ele><time>2026-04-09T13:02:19.897Z</time></trkpt><trkpt lat="44.364875" lon="11.2616117"><ele>115.66666666666666</ele><time>2026-04-09T13:02:20.898Z</time></trkpt><trkpt lat="44.3650283" lon="11.26152"><ele>116.0</ele><time>2026-04-09T13:02:21.898Z</time></trkpt><trkpt lat="44.365175" lon="11.2614267"><ele>116.0</ele><time>2026-04-09T13:02:22.897Z</time></trkpt><trkpt lat="44.3653167" lon="11.2613133"><ele>116.0</ele><time>2026-04-09T13:02:23.898Z</time></trkpt><trkpt lat="44.3654533" lon="11.26121"><ele>116.0</ele><time>2026-04-09T13:02:24.897Z</time></trkpt><trkpt lat="44.36558" lon="11.2610783"><ele>115.66666666666666</ele><time>2026-04-09T13:02:25.898Z</time></trkpt><trkpt lat="44.365695" lon="11.260945"><ele>115.33333333333334</ele><time>2026-04-09T13:02:26.897Z</time></trkpt><trkpt lat="44.3657967" lon="11.2608067"><ele>115.0</ele><time>2026-04-09T13:02:27.897Z</time></trkpt><trkpt lat="44.3659933" lon="11.2605283"><ele>114.2</ele><time>2026-04-09T13:02:29.897Z</time></trkpt><trkpt lat="44.3660733" lon="11.2603883"><ele>113.4</ele><time>2026-04-09T13:02:30.898Z</time></trkpt><trkpt lat="44.3661467" lon="11.2602583"><ele>112.6</ele><time>2026-04-09T13:02:31.897Z</time></trkpt><trkpt lat="44.36621" lon="11.2601467"><ele>111.8</ele><time>2026-04-09T13:02:32.897Z</time></trkpt><trkpt lat="44.3662567" lon="11.2600383"><ele>111.0</ele><time>2026-04-09T13:02:33.897Z</time></trkpt><trkpt lat="44.3662933" lon="11.2599533"><ele>111.0</ele><time>2026-04-09T13:02:34.897Z</time></trkpt><trkpt lat="44.3663383" lon="11.2598867"><ele>111.0</ele><time>2026-04-09T13:02:35.897Z</time></trkpt><trkpt lat="44.3663983" lon="11.25982"><ele>111.0</ele><time>2026-04-09T13:02:36.897Z</time></trkpt><trkpt lat="44.366465" lon="11.259725"><ele>111.0</ele><time>2026-04-09T13:02:37.897Z</time></trkpt><trkpt lat="44.3665183" lon="11.259595"><ele>111.0</ele><time>2026-04-09T13:02:38.897Z</time></trkpt><trkpt lat="44.3665717" lon="11.2594383"><ele>111.0</ele><time>2026-04-09T13:02:39.898Z</time></trkpt><trkpt lat="44.3666383" lon="11.2592917"><ele>111.0</ele><time>2026-04-09T13:02:40.897Z</time></trkpt><trkpt lat="44.3667217" lon="11.259165"><ele>111.0</ele><time>2026-04-09T13:02:41.897Z</time></trkpt><trkpt lat="44.3668183" lon="11.2590467"><ele>111.0</ele><time>2026-04-09T13:02:42.897Z</time></trkpt><trkpt lat="44.36691" lon="11.2589"><ele>111.0</ele><time>2026-04-09T13:02:43.897Z</time></trkpt><trkpt lat="44.3670033" lon="11.2587467"><ele>111.0</ele><time>2026-04-09T13:02:44.898Z</time></trkpt><trkpt lat="44.3671" lon="11.25859"><ele>111.0</ele><time>2026-04-09T13:02:45.897Z</time></trkpt><trkpt lat="44.3671933" lon="11.258415"><ele>111.0</ele><time>2026-04-09T13:02:46.898Z</time></trkpt><trkpt lat="44.3672917" lon="11.25822"><ele>110.5</ele><time>2026-04-09T13:02:47.897Z</time></trkpt><trkpt lat="44.3673867" lon="11.258025"><ele>110.0</ele><time>2026-04-09T13:02:48.897Z</time></trkpt><trkpt lat="44.367575" lon="11.257645"><ele>110.0</ele><time>2026-04-09T13:02:50.897Z</time></trkpt><trkpt lat="44.3677833" lon="11.2572983"><ele>110.0</ele><time>2026-04-09T13:02:52.898Z</time></trkpt><trkpt lat="44.3679133" lon="11.257195"><ele>109.66666666666666</ele><time>2026-04-09T13:02:53.899Z</time></trkpt><trkpt lat="44.3681767" lon="11.25724"><ele>109.33333333333334</ele><time>2026-04-09T13:02:54.898Z</time></trkpt><trkpt lat="44.3683233" lon="11.2571733"><ele>109.0</ele><time>2026-04-09T13:02:55.899Z</time></trkpt><trkpt lat="44.3684683" lon="11.25708"><ele>109.0</ele><time>2026-04-09T13:02:56.898Z</time></trkpt><trkpt lat="44.36861" lon="11.2569767"><ele>109.0</ele><time>2026-04-09T13:02:57.898Z</time></trkpt><trkpt lat="44.3687633" lon="11.25687"><ele>109.0</ele><time>2026-04-09T13:02:58.898Z</time></trkpt><trkpt lat="44.368915" lon="11.256755"><ele>110.0</ele><time>2026-04-09T13:02:59.898Z</time></trkpt><trkpt lat="44.3690683" lon="11.2566433"><ele>111.0</ele><time>2026-04-09T13:03:00.898Z</time></trkpt><trkpt lat="44.369225" lon="11.2565267"><ele>112.0</ele><time>2026-04-09T13:03:01.898Z</time></trkpt><trkpt lat="44.3693833" lon="11.2564017"><ele>112.0</ele><time>2026-04-09T13:03:02.898Z</time></trkpt><trkpt lat="44.369535" lon="11.2562767"><ele>112.0</ele><time>2026-04-09T13:03:03.899Z</time></trkpt><trkpt lat="44.3696817" lon="11.25615"><ele>112.0</ele><time>2026-04-09T13:03:04.898Z</time></trkpt><trkpt lat="44.36982" lon="11.25601"><ele>112.33333333333334</ele><time>2026-04-09T13:03:05.898Z</time></trkpt><trkpt lat="44.3699567" lon="11.2558667"><ele>112.66666666666666</ele><time>2026-04-09T13:03:06.899Z</time></trkpt><trkpt lat="44.3700933" lon="11.2557267"><ele>113.0</ele><time>2026-04-09T13:03:07.898Z</time></trkpt><trkpt lat="44.3702317" lon="11.2556033"><ele>111.5</ele><time>2026-04-09T13:03:08.898Z</time></trkpt><trkpt lat="44.3703767" lon="11.2554833"><ele>110.0</ele><time>2026-04-09T13:03:09.898Z</time></trkpt><trkpt lat="44.37067" lon="11.2552517"><ele>112.33333333333333</ele><time>2026-04-09T13:03:11.899Z</time></trkpt><trkpt lat="44.3708183" lon="11.25514"><ele>114.66666666666666</ele><time>2026-04-09T13:03:12.898Z</time></trkpt><trkpt lat="44.3709717" lon="11.2550283"><ele>117.0</ele><time>2026-04-09T13:03:13.899Z</time></trkpt><trkpt lat="44.3711233" lon="11.2549117"><ele>117.0</ele><time>2026-04-09T13:03:14.898Z</time></trkpt><trkpt lat="44.371275" lon="11.2547967"><ele>117.0</ele><time>2026-04-09T13:03:15.898Z</time></trkpt><trkpt lat="44.3714317" lon="11.254685"><ele>117.0</ele><time>2026-04-09T13:03:16.898Z</time></trkpt><trkpt lat="44.3715867" lon="11.254565"><ele>119.0</ele><time>2026-04-09T13:03:17.898Z</time></trkpt><trkpt lat="44.3717433" lon="11.2544467"><ele>121.0</ele><time>2026-04-09T13:03:18.899Z</time></trkpt><trkpt lat="44.3719017" lon="11.2543267"><ele>123.0</ele><time>2026-04-09T13:03:19.898Z</time></trkpt><trkpt lat="44.3720583" lon="11.2542083"><ele>122.33333333333334</ele><time>2026-04-09T13:03:20.898Z</time></trkpt><trkpt lat="44.3722167" lon="11.254085"><ele>121.66666666666667</ele><time>2026-04-09T13:03:21.898Z</time></trkpt><trkpt lat="44.3723717" lon="11.2539617"><ele>121.0</ele><time>2026-04-09T13:03:22.898Z</time></trkpt><trkpt lat="44.3725233" lon="11.25384"><ele>121.0</ele><time>2026-04-09T13:03:23.898Z</time></trkpt><trkpt lat="44.3726833" lon="11.25372"><ele>121.0</ele><time>2026-04-09T13:03:24.898Z</time></trkpt><trkpt lat="44.3728417" lon="11.2535983"><ele>121.0</ele><time>2026-04-09T13:03:25.899Z</time></trkpt><trkpt lat="44.373" lon="11.25348"><ele>122.66666666666667</ele><time>2026-04-09T13:03:26.898Z</time></trkpt><trkpt lat="44.3731617" lon="11.2533683"><ele>124.33333333333334</ele><time>2026-04-09T13:03:27.898Z</time></trkpt><trkpt lat="44.3733283" lon="11.2532517"><ele>126.0</ele><time>2026-04-09T13:03:28.898Z</time></trkpt><trkpt lat="44.3735033" lon="11.2531433"><ele>122.0</ele><time>2026-04-09T13:03:29.898Z</time></trkpt><trkpt lat="44.37368" lon="11.2530483"><ele>118.0</ele><time>2026-04-09T13:03:30.898Z</time></trkpt><trkpt lat="44.37405" lon="11.25288"><ele>118.0</ele><time>2026-04-09T13:03:32.898Z</time></trkpt><trkpt lat="44.3742367" lon="11.2528167"><ele>118.0</ele><time>2026-04-09T13:03:33.898Z</time></trkpt><trkpt lat="44.3744267" lon="11.2527583"><ele>118.0</ele><time>2026-04-09T13:03:34.898Z</time></trkpt><trkpt lat="44.374615" lon="11.2527183"><ele>120.0</ele><time>2026-04-09T13:03:35.898Z</time></trkpt><trkpt lat="44.3748067" lon="11.2526867"><ele>122.0</ele><time>2026-04-09T13:03:36.898Z</time></trkpt><trkpt lat="44.375005" lon="11.25266"><ele>124.0</ele><time>2026-04-09T13:03:37.898Z</time></trkpt><trkpt lat="44.375205" lon="11.252655"><ele>124.0</ele><time>2026-04-09T13:03:38.898Z</time></trkpt><trkpt lat="44.3754017" lon="11.2526567"><ele>124.0</ele><time>2026-04-09T13:03:39.898Z</time></trkpt><trkpt lat="44.3756017" lon="11.2526617"><ele>124.0</ele><time>2026-04-09T13:03:40.898Z</time></trkpt><trkpt lat="44.375795" lon="11.25268"><ele>123.66666666666667</ele><time>2026-04-09T13:03:41.899Z</time></trkpt><trkpt lat="44.3759917" lon="11.2526883"><ele>123.33333333333334</ele><time>2026-04-09T13:03:42.898Z</time></trkpt><trkpt lat="44.3761867" lon="11.2527"><ele>123.0</ele><time>2026-04-09T13:03:43.898Z</time></trkpt><trkpt lat="44.3763767" lon="11.2526983"><ele>122.0</ele><time>2026-04-09T13:03:44.898Z</time></trkpt><trkpt lat="44.3765633" lon="11.2526983"><ele>121.0</ele><time>2026-04-09T13:03:45.898Z</time></trkpt><trkpt lat="44.3767517" lon="11.2526967"><ele>120.0</ele><time>2026-04-09T13:03:46.898Z</time></trkpt><trkpt lat="44.3769433" lon="11.2526817"><ele>120.0</ele><time>2026-04-09T13:03:47.898Z</time></trkpt><trkpt lat="44.3771283" lon="11.252655"><ele>120.0</ele><time>2026-04-09T13:03:48.898Z</time></trkpt><trkpt lat="44.377315" lon="11.2526067"><ele>120.0</ele><time>2026-04-09T13:03:49.898Z</time></trkpt><trkpt lat="44.3775017" lon="11.2525483"><ele>120.5</ele><time>2026-04-09T13:03:50.898Z</time></trkpt><trkpt lat="44.3776883" lon="11.25248"><ele>121.0</ele><time>2026-04-09T13:03:51.898Z</time></trkpt><trkpt lat="44.3780667" lon="11.2523167"><ele>119.33333333333334</ele><time>2026-04-09T13:03:53.898Z</time></trkpt><trkpt lat="44.37826" lon="11.2522317"><ele>117.66666666666666</ele><time>2026-04-09T13:03:54.899Z</time></trkpt><trkpt lat="44.378445" lon="11.252145"><ele>116.0</ele><time>2026-04-09T13:03:55.898Z</time></trkpt><trkpt lat="44.37863" lon="11.25206"><ele>116.0</ele><time>2026-04-09T13:03:56.899Z</time></trkpt><trkpt lat="44.3788067" lon="11.2519683"><ele>116.0</ele><time>2026-04-09T13:03:57.898Z</time></trkpt><trkpt lat="44.3789783" lon="11.25189"><ele>116.0</ele><time>2026-04-09T13:03:58.898Z</time></trkpt><trkpt lat="44.3791633" lon="11.2518183"><ele>119.0</ele><time>2026-04-09T13:03:59.898Z</time></trkpt><trkpt lat="44.3793467" lon="11.2517483"><ele>122.0</ele><time>2026-04-09T13:04:00.898Z</time></trkpt><trkpt lat="44.3795317" lon="11.2516967"><ele>125.0</ele><time>2026-04-09T13:04:01.899Z</time></trkpt><trkpt lat="44.37972" lon="11.25165"><ele>126.66666666666666</ele><time>2026-04-09T13:04:02.898Z</time></trkpt><trkpt lat="44.3799133" lon="11.2516183"><ele>128.33333333333334</ele><time>2026-04-09T13:04:03.899Z</time></trkpt><trkpt lat="44.3801067" lon="11.251585"><ele>130.0</ele><time>2026-04-09T13:04:04.898Z</time></trkpt><trkpt lat="44.3803017" lon="11.2515533"><ele>130.0</ele><time>2026-04-09T13:04:05.898Z</time></trkpt><trkpt lat="44.3804883" lon="11.25152"><ele>130.0</ele><time>2026-04-09T13:04:06.898Z</time></trkpt><trkpt lat="44.3806633" lon="11.2514867"><ele>130.0</ele><time>2026-04-09T13:04:07.898Z</time></trkpt><trkpt lat="44.38084" lon="11.25145"><ele>124.33333333333334</ele><time>2026-04-09T13:04:08.898Z</time></trkpt><trkpt lat="44.3810167" lon="11.2514117"><ele>118.66666666666666</ele><time>2026-04-09T13:04:09.898Z</time></trkpt><trkpt lat="44.3811933" lon="11.251365"><ele>113.0</ele><time>2026-04-09T13:04:10.899Z</time></trkpt><trkpt lat="44.3813717" lon="11.2513083"><ele>113.0</ele><time>2026-04-09T13:04:11.899Z</time></trkpt><trkpt lat="44.381555" lon="11.251235"><ele>113.0</ele><time>2026-04-09T13:04:12.898Z</time></trkpt><trkpt lat="44.38192" lon="11.2510617"><ele>113.0</ele><time>2026-04-09T13:04:14.898Z</time></trkpt><trkpt lat="44.3821" lon="11.2509517"><ele>113.0</ele><time>2026-04-09T13:04:15.898Z</time></trkpt><trkpt lat="44.38228" lon="11.25083"><ele>113.0</ele><time>2026-04-09T13:04:16.898Z</time></trkpt><trkpt lat="44.3824533" lon="11.2506983"><ele>112.66666666666666</ele><time>2026-04-09T13:04:17.898Z</time></trkpt><trkpt lat="44.3826267" lon="11.2505633"><ele>112.33333333333334</ele><time>2026-04-09T13:04:18.898Z</time></trkpt><trkpt lat="44.3828" lon="11.2504233"><ele>112.0</ele><time>2026-04-09T13:04:19.898Z</time></trkpt><trkpt lat="44.3829767" lon="11.2502883"><ele>116.33333333333334</ele><time>2026-04-09T13:04:20.898Z</time></trkpt><trkpt lat="44.383155" lon="11.250145"><ele>120.66666666666666</ele><time>2026-04-09T13:04:21.898Z</time></trkpt><trkpt lat="44.38335" lon="11.2500133"><ele>125.0</ele><time>2026-04-09T13:04:22.898Z</time></trkpt><trkpt lat="44.3835383" lon="11.2498783"><ele>123.33333333333333</ele><time>2026-04-09T13:04:23.898Z</time></trkpt><trkpt lat="44.3837117" lon="11.2497283"><ele>121.66666666666666</ele><time>2026-04-09T13:04:24.898Z</time></trkpt><trkpt lat="44.38389" lon="11.2495767"><ele>120.0</ele><time>2026-04-09T13:04:25.898Z</time></trkpt><trkpt lat="44.3840717" lon="11.249425"><ele>120.0</ele><time>2026-04-09T13:04:26.898Z</time></trkpt><trkpt lat="44.384245" lon="11.2492683"><ele>120.0</ele><time>2026-04-09T13:04:27.898Z</time></trkpt><trkpt lat="44.384415" lon="11.2491317"><ele>120.0</ele><time>2026-04-09T13:04:28.898Z</time></trkpt><trkpt lat="44.3845767" lon="11.2490083"><ele>117.33333333333334</ele><time>2026-04-09T13:04:29.899Z</time></trkpt><trkpt lat="44.3847383" lon="11.2488833"><ele>114.66666666666667</ele><time>2026-04-09T13:04:30.898Z</time></trkpt><trkpt lat="44.3849017" lon="11.2487717"><ele>112.0</ele><time>2026-04-09T13:04:31.898Z</time></trkpt><trkpt lat="44.3850667" lon="11.2486717"><ele>112.0</ele><time>2026-04-09T13:04:32.899Z</time></trkpt><trkpt lat="44.385235" lon="11.24859"><ele>112.0</ele><time>2026-04-09T13:04:33.898Z</time></trkpt><trkpt lat="44.3855667" lon="11.2484817"><ele>115.33333333333334</ele><time>2026-04-09T13:04:35.898Z</time></trkpt><trkpt lat="44.3857317" lon="11.2484367"><ele>118.66666666666666</ele><time>2026-04-09T13:04:36.898Z</time></trkpt><trkpt lat="44.3859" lon="11.248415"><ele>122.0</ele><time>2026-04-09T13:04:37.898Z</time></trkpt><trkpt lat="44.38607" lon="11.248395"><ele>122.0</ele><time>2026-04-09T13:04:38.898Z</time></trkpt><trkpt lat="44.3862367" lon="11.24839"><ele>122.0</ele><time>2026-04-09T13:04:39.898Z</time></trkpt><trkpt lat="44.386405" lon="11.2483933"><ele>122.0</ele><time>2026-04-09T13:04:40.898Z</time></trkpt><trkpt lat="44.3865767" lon="11.2484067"><ele>122.66666666666666</ele><time>2026-04-09T13:04:41.898Z</time></trkpt><trkpt lat="44.38675" lon="11.24844"><ele>123.33333333333334</ele><time>2026-04-09T13:04:42.898Z</time></trkpt><trkpt lat="44.386915" lon="11.2484867"><ele>124.0</ele><time>2026-04-09T13:04:43.898Z</time></trkpt><trkpt lat="44.3870883" lon="11.24855"><ele>123.33333333333334</ele><time>2026-04-09T13:04:44.898Z</time></trkpt><trkpt lat="44.3872583" lon="11.24862"><ele>122.66666666666666</ele><time>2026-04-09T13:04:45.899Z</time></trkpt><trkpt lat="44.387415" lon="11.2487117"><ele>122.0</ele><time>2026-04-09T13:04:46.898Z</time></trkpt><trkpt lat="44.387565" lon="11.2488117"><ele>122.0</ele><time>2026-04-09T13:04:47.898Z</time></trkpt><trkpt lat="44.38771" lon="11.24892"><ele>122.0</ele><time>2026-04-09T13:04:48.898Z</time></trkpt><trkpt lat="44.3878517" lon="11.249035"><ele>122.0</ele><time>2026-04-09T13:04:49.898Z</time></trkpt><trkpt lat="44.3879817" lon="11.2491567"><ele>121.66666666666666</ele><time>2026-04-09T13:04:50.898Z</time></trkpt><trkpt lat="44.38811" lon="11.2492817"><ele>121.33333333333334</ele><time>2026-04-09T13:04:51.898Z</time></trkpt><trkpt lat="44.3882317" lon="11.249415"><ele>121.0</ele><time>2026-04-09T13:04:52.899Z</time></trkpt><trkpt lat="44.38834" lon="11.24955"><ele>121.0</ele><time>2026-04-09T13:04:53.898Z</time></trkpt><trkpt lat="44.3884483" lon="11.249685"><ele>121.0</ele><time>2026-04-09T13:04:54.898Z</time></trkpt><trkpt lat="44.388635" lon="11.2499367"><ele>121.0</ele><time>2026-04-09T13:04:56.898Z</time></trkpt><trkpt lat="44.388725" lon="11.2500433"><ele>121.0</ele><time>2026-04-09T13:04:57.898Z</time></trkpt><trkpt lat="44.388805" lon="11.2501333"><ele>121.0</ele><time>2026-04-09T13:04:58.898Z</time></trkpt><trkpt lat="44.3888767" lon="11.250205"><ele>121.0</ele><time>2026-04-09T13:04:59.898Z</time></trkpt><trkpt lat="44.3889267" lon="11.2502683"><ele>121.0</ele><time>2026-04-09T13:05:00.897Z</time></trkpt><trkpt lat="44.3889933" lon="11.2503667"><ele>121.0</ele><time>2026-04-09T13:05:02.898Z</time></trkpt><trkpt lat="44.3890667" lon="11.250495"><ele>121.0</ele><time>2026-04-09T13:05:04.897Z</time></trkpt><trkpt lat="44.38911" lon="11.250565"><ele>120.99999999999999</ele><time>2026-04-09T13:05:05.898Z</time></trkpt><trkpt lat="44.3891683" lon="11.2506133"><ele>121.0</ele><time>2026-04-09T13:05:06.897Z</time></trkpt><trkpt lat="44.3892317" lon="11.250625"><ele>121.0</ele><time>2026-04-09T13:05:07.897Z</time></trkpt><trkpt lat="44.3893" lon="11.2505933"><ele>120.99999999999999</ele><time>2026-04-09T13:05:08.897Z</time></trkpt><trkpt lat="44.3893583" lon="11.2505233"><ele>121.0</ele><time>2026-04-09T13:05:09.898Z</time></trkpt><trkpt lat="44.3894" lon="11.2504283"><ele>121.0</ele><time>2026-04-09T13:05:10.898Z</time></trkpt><trkpt lat="44.3894083" lon="11.25033"><ele>121.0</ele><time>2026-04-09T13:05:11.897Z</time></trkpt><trkpt lat="44.3893867" lon="11.2502083"><ele>121.0</ele><time>2026-04-09T13:05:12.898Z</time></trkpt><trkpt lat="44.3893467" lon="11.2500833"><ele>121.0</ele><time>2026-04-09T13:05:13.897Z</time></trkpt><trkpt lat="44.3893067" lon="11.2499367"><ele>121.0</ele><time>2026-04-09T13:05:14.897Z</time></trkpt><trkpt lat="44.389285" lon="11.2497683"><ele>121.0</ele><time>2026-04-09T13:05:15.897Z</time></trkpt><trkpt lat="44.389245" lon="11.2493933"><ele>120.75</ele><time>2026-04-09T13:05:17.897Z</time></trkpt><trkpt lat="44.3891983" lon="11.2492117"><ele>120.5</ele><time>2026-04-09T13:05:18.898Z</time></trkpt><trkpt lat="44.3891383" lon="11.2490267"><ele>120.25</ele><time>2026-04-09T13:05:19.898Z</time></trkpt><trkpt lat="44.3890667" lon="11.2488483"><ele>120.0</ele><time>2026-04-09T13:05:20.897Z</time></trkpt><trkpt lat="44.3889883" lon="11.248685"><ele>120.25</ele><time>2026-04-09T13:05:21.897Z</time></trkpt><trkpt lat="44.3889167" lon="11.2485217"><ele>120.5</ele><time>2026-04-09T13:05:22.897Z</time></trkpt><trkpt lat="44.388845" lon="11.2483667"><ele>120.75</ele><time>2026-04-09T13:05:23.897Z</time></trkpt><trkpt lat="44.3887783" lon="11.2482233"><ele>121.0</ele><time>2026-04-09T13:05:24.897Z</time></trkpt><trkpt lat="44.388715" lon="11.2480967"><ele>121.0</ele><time>2026-04-09T13:05:25.897Z</time></trkpt><trkpt lat="44.3886617" lon="11.2479933"><ele>121.0</ele><time>2026-04-09T13:05:26.897Z</time></trkpt><trkpt lat="44.388625" lon="11.2479133"><ele>121.0</ele><time>2026-04-09T13:05:27.897Z</time></trkpt><trkpt lat="44.38855" lon="11.2477833"><ele>121.0</ele><time>2026-04-09T13:05:29.898Z</time></trkpt><trkpt lat="44.38849" lon="11.247645"><ele>121.0</ele><time>2026-04-09T13:05:31.897Z</time></trkpt><trkpt lat="44.3884783" lon="11.2475567"><ele>121.0</ele><time>2026-04-09T13:05:32.897Z</time></trkpt><trkpt lat="44.38847" lon="11.24739"><ele>121.0</ele><time>2026-04-09T13:05:34.897Z</time></trkpt><trkpt lat="44.388485" lon="11.2472417"><ele>121.0</ele><time>2026-04-09T13:05:36.897Z</time></trkpt><trkpt lat="44.3886217" lon="11.247085"><ele>121.0</ele><time>2026-04-09T13:05:39.897Z</time></trkpt><trkpt lat="44.388705" lon="11.2470467"><ele>118.75</ele><time>2026-04-09T13:05:40.897Z</time></trkpt><trkpt lat="44.388805" lon="11.2470017"><ele>116.5</ele><time>2026-04-09T13:05:41.897Z</time></trkpt><trkpt lat="44.3889117" lon="11.2469533"><ele>114.25</ele><time>2026-04-09T13:05:42.897Z</time></trkpt><trkpt lat="44.3890267" lon="11.2468967"><ele>112.0</ele><time>2026-04-09T13:05:43.897Z</time></trkpt><trkpt lat="44.38914" lon="11.246845"><ele>109.25</ele><time>2026-04-09T13:05:44.897Z</time></trkpt><trkpt lat="44.3892467" lon="11.2467917"><ele>106.5</ele><time>2026-04-09T13:05:45.897Z</time></trkpt><trkpt lat="44.3893567" lon="11.246745"><ele>103.75</ele><time>2026-04-09T13:05:46.897Z</time></trkpt><trkpt lat="44.3894667" lon="11.246695"><ele>101.0</ele><time>2026-04-09T13:05:47.897Z</time></trkpt><trkpt lat="44.3895683" lon="11.2466467"><ele>101.0</ele><time>2026-04-09T13:05:48.897Z</time></trkpt><trkpt lat="44.3896717" lon="11.2465967"><ele>101.0</ele><time>2026-04-09T13:05:49.897Z</time></trkpt><trkpt lat="44.38977" lon="11.2465567"><ele>101.0</ele><time>2026-04-09T13:05:50.898Z</time></trkpt><trkpt lat="44.38987" lon="11.24651"><ele>101.0</ele><time>2026-04-09T13:05:51.897Z</time></trkpt><trkpt lat="44.3899683" lon="11.2464617"><ele>101.0</ele><time>2026-04-09T13:05:52.897Z</time></trkpt><trkpt lat="44.3900667" lon="11.24641"><ele>103.0</ele><time>2026-04-09T13:05:53.897Z</time></trkpt><trkpt lat="44.390155" lon="11.24637"><ele>105.0</ele><time>2026-04-09T13:05:54.897Z</time></trkpt><trkpt lat="44.390235" lon="11.2463333"><ele>107.0</ele><time>2026-04-09T13:05:55.898Z</time></trkpt><trkpt lat="44.3903033" lon="11.2463"><ele>109.0</ele><time>2026-04-09T13:05:56.897Z</time></trkpt><trkpt lat="44.390395" lon="11.2462533"><ele>111.0</ele><time>2026-04-09T13:05:58.897Z</time></trkpt><trkpt lat="44.39055" lon="11.2462133"><ele>113.83333333333333</ele><time>2026-04-09T13:06:04.897Z</time></trkpt><trkpt lat="44.3906217" lon="11.2462033"><ele>116.66666666666666</ele><time>2026-04-09T13:06:06.898Z</time></trkpt><trkpt lat="44.390725" lon="11.2462183"><ele>119.5</ele><time>2026-04-09T13:06:08.897Z</time></trkpt><trkpt lat="44.3907967" lon="11.2462367"><ele>122.33333333333333</ele><time>2026-04-09T13:06:09.897Z</time></trkpt><trkpt lat="44.390875" lon="11.246235"><ele>125.16666666666666</ele><time>2026-04-09T13:06:10.897Z</time></trkpt><trkpt lat="44.3909467" lon="11.2461983"><ele>128.0</ele><time>2026-04-09T13:06:11.897Z</time></trkpt><trkpt lat="44.3910133" lon="11.2461417"><ele>127.99999999999999</ele><time>2026-04-09T13:06:12.897Z</time></trkpt><trkpt lat="44.39107" lon="11.2460567"><ele>128.0</ele><time>2026-04-09T13:06:13.897Z</time></trkpt><trkpt lat="44.39109" lon="11.2459483"><ele>128.0</ele><time>2026-04-09T13:06:14.897Z</time></trkpt><trkpt lat="44.3910567" lon="11.2458333"><ele>128.0</ele><time>2026-04-09T13:06:15.898Z</time></trkpt><trkpt lat="44.3909933" lon="11.2457333"><ele>127.99999999999999</ele><time>2026-04-09T13:06:16.898Z</time></trkpt><trkpt lat="44.39091" lon="11.2456583"><ele>128.0</ele><time>2026-04-09T13:06:17.898Z</time></trkpt><trkpt lat="44.3908083" lon="11.2456117"><ele>127.5</ele><time>2026-04-09T13:06:18.897Z</time></trkpt><trkpt lat="44.3907017" lon="11.2455717"><ele>127.0</ele><time>2026-04-09T13:06:19.897Z</time></trkpt><trkpt lat="44.390495" lon="11.2454817"><ele>126.5</ele><time>2026-04-09T13:06:21.897Z</time></trkpt><trkpt lat="44.3903933" lon="11.2454417"><ele>126.0</ele><time>2026-04-09T13:06:22.897Z</time></trkpt><trkpt lat="44.3902917" lon="11.2453983"><ele>125.33333333333333</ele><time>2026-04-09T13:06:23.897Z</time></trkpt><trkpt lat="44.3901883" lon="11.245355"><ele>124.66666666666666</ele><time>2026-04-09T13:06:24.897Z</time></trkpt><trkpt lat="44.39009" lon="11.2453167"><ele>124.0</ele><time>2026-04-09T13:06:25.897Z</time></trkpt><trkpt lat="44.390005" lon="11.2452833"><ele>123.33333333333333</ele><time>2026-04-09T13:06:26.897Z</time></trkpt><trkpt lat="44.3899433" lon="11.2452533"><ele>122.66666666666666</ele><time>2026-04-09T13:06:27.898Z</time></trkpt><trkpt lat="44.3898783" lon="11.2451817"><ele>122.0</ele><time>2026-04-09T13:06:29.897Z</time></trkpt><trkpt lat="44.3899117" lon="11.2450617"><ele>121.99999999999999</ele><time>2026-04-09T13:06:31.897Z</time></trkpt><trkpt lat="44.38996" lon="11.245"><ele>122.0</ele><time>2026-04-09T13:06:32.898Z</time></trkpt><trkpt lat="44.3900167" lon="11.2449217"><ele>122.0</ele><time>2026-04-09T13:06:33.897Z</time></trkpt><trkpt lat="44.3900767" lon="11.2448233"><ele>122.0</ele><time>2026-04-09T13:06:34.897Z</time></trkpt><trkpt lat="44.3901417" lon="11.24472"><ele>121.99999999999999</ele><time>2026-04-09T13:06:35.897Z</time></trkpt><trkpt lat="44.3902033" lon="11.244605"><ele>122.0</ele><time>2026-04-09T13:06:36.897Z</time></trkpt><trkpt lat="44.390265" lon="11.2444917"><ele>122.5</ele><time>2026-04-09T13:06:37.897Z</time></trkpt><trkpt lat="44.3903367" lon="11.244405"><ele>123.0</ele><time>2026-04-09T13:06:38.897Z</time></trkpt><trkpt lat="44.390405" lon="11.2443183"><ele>123.5</ele><time>2026-04-09T13:06:39.897Z</time></trkpt><trkpt lat="44.390485" lon="11.244225"><ele>124.0</ele><time>2026-04-09T13:06:40.897Z</time></trkpt><trkpt lat="44.3906633" lon="11.244055"><ele>129.2</ele><time>2026-04-09T13:06:42.897Z</time></trkpt><trkpt lat="44.3907467" lon="11.24394"><ele>134.4</ele><time>2026-04-09T13:06:43.897Z</time></trkpt><trkpt lat="44.3908367" lon="11.2438517"><ele>139.6</ele><time>2026-04-09T13:06:44.897Z</time></trkpt><trkpt lat="44.39093" lon="11.243765"><ele>144.8</ele><time>2026-04-09T13:06:45.897Z</time></trkpt><trkpt lat="44.3910183" lon="11.2436783"><ele>150.0</ele><time>2026-04-09T13:06:46.897Z</time></trkpt><trkpt lat="44.39111" lon="11.2435833"><ele>150.0</ele><time>2026-04-09T13:06:47.898Z</time></trkpt><trkpt lat="44.3911967" lon="11.24349"><ele>150.0</ele><time>2026-04-09T13:06:48.898Z</time></trkpt><trkpt lat="44.3912833" lon="11.2434067"><ele>150.0</ele><time>2026-04-09T13:06:49.897Z</time></trkpt><trkpt lat="44.391365" lon="11.2433333"><ele>150.0</ele><time>2026-04-09T13:06:50.897Z</time></trkpt><trkpt lat="44.3914533" lon="11.243265"><ele>150.0</ele><time>2026-04-09T13:06:51.897Z</time></trkpt><trkpt lat="44.3915467" lon="11.24323"><ele>145.25</ele><time>2026-04-09T13:06:52.898Z</time></trkpt><trkpt lat="44.391655" lon="11.24321"><ele>140.5</ele><time>2026-04-09T13:06:53.898Z</time></trkpt><trkpt lat="44.3917633" lon="11.2432133"><ele>135.75</ele><time>2026-04-09T13:06:54.897Z</time></trkpt><trkpt lat="44.3918783" lon="11.2432267"><ele>131.0</ele><time>2026-04-09T13:06:55.897Z</time></trkpt><trkpt lat="44.3919933" lon="11.2432583"><ele>131.0</ele><time>2026-04-09T13:06:56.897Z</time></trkpt><trkpt lat="44.3921117" lon="11.2433183"><ele>131.0</ele><time>2026-04-09T13:06:57.897Z</time></trkpt><trkpt lat="44.39223" lon="11.2433817"><ele>131.0</ele><time>2026-04-09T13:06:58.897Z</time></trkpt><trkpt lat="44.3923367" lon="11.2434717"><ele>131.0</ele><time>2026-04-09T13:06:59.897Z</time></trkpt><trkpt lat="44.39245" lon="11.2435533"><ele>131.66666666666666</ele><time>2026-04-09T13:07:00.897Z</time></trkpt><trkpt lat="44.3925567" lon="11.243635"><ele>132.33333333333334</ele><time>2026-04-09T13:07:01.897Z</time></trkpt><trkpt lat="44.392765" lon="11.243795"><ele>133.0</ele><time>2026-04-09T13:07:03.898Z</time></trkpt><trkpt lat="44.3928683" lon="11.2438733"><ele>133.0</ele><time>2026-04-09T13:07:04.898Z</time></trkpt><trkpt lat="44.39297" lon="11.2439383"><ele>133.0</ele><time>2026-04-09T13:07:05.897Z</time></trkpt><trkpt lat="44.3930683" lon="11.244"><ele>133.0</ele><time>2026-04-09T13:07:06.897Z</time></trkpt><trkpt lat="44.3931617" lon="11.2440583"><ele>133.0</ele><time>2026-04-09T13:07:07.897Z</time></trkpt><trkpt lat="44.3932467" lon="11.24412"><ele>133.0</ele><time>2026-04-09T13:07:08.897Z</time></trkpt><trkpt lat="44.3933317" lon="11.2441833"><ele>133.5</ele><time>2026-04-09T13:07:09.897Z</time></trkpt><trkpt lat="44.39342" lon="11.2442467"><ele>134.0</ele><time>2026-04-09T13:07:10.897Z</time></trkpt><trkpt lat="44.3934967" lon="11.244305"><ele>134.5</ele><time>2026-04-09T13:07:11.897Z</time></trkpt><trkpt lat="44.3935717" lon="11.244365"><ele>135.0</ele><time>2026-04-09T13:07:12.897Z</time></trkpt><trkpt lat="44.393645" lon="11.2444167"><ele>135.5</ele><time>2026-04-09T13:07:13.897Z</time></trkpt><trkpt lat="44.3937183" lon="11.2444633"><ele>136.0</ele><time>2026-04-09T13:07:14.898Z</time></trkpt><trkpt lat="44.3937883" lon="11.244505"><ele>135.8</ele><time>2026-04-09T13:07:15.897Z</time></trkpt><trkpt lat="44.3938533" lon="11.2445367"><ele>135.6</ele><time>2026-04-09T13:07:16.898Z</time></trkpt><trkpt lat="44.3939233" lon="11.2445583"><ele>135.4</ele><time>2026-04-09T13:07:17.897Z</time></trkpt><trkpt lat="44.39401" lon="11.244605"><ele>135.2</ele><time>2026-04-09T13:07:19.897Z</time></trkpt><trkpt lat="44.39409" lon="11.244655"><ele>135.0</ele><time>2026-04-09T13:07:22.897Z</time></trkpt><trkpt lat="44.394235" lon="11.2447267"><ele>135.0</ele><time>2026-04-09T13:07:26.898Z</time></trkpt><trkpt lat="44.3943017" lon="11.2447583"><ele>135.0</ele><time>2026-04-09T13:07:28.897Z</time></trkpt><trkpt lat="44.3943883" lon="11.244785"><ele>135.0</ele><time>2026-04-09T13:07:30.897Z</time></trkpt><trkpt lat="44.3944833" lon="11.244815"><ele>135.0</ele><time>2026-04-09T13:07:32.898Z</time></trkpt><trkpt lat="44.394575" lon="11.24484"><ele>135.0</ele><time>2026-04-09T13:07:34.897Z</time></trkpt><trkpt lat="44.394665" lon="11.244875"><ele>135.0</ele><time>2026-04-09T13:07:36.897Z</time></trkpt><trkpt lat="44.3947517" lon="11.2449183"><ele>135.2</ele><time>2026-04-09T13:07:38.898Z</time></trkpt><trkpt lat="44.3948333" lon="11.24496"><ele>135.4</ele><time>2026-04-09T13:07:40.897Z</time></trkpt><trkpt lat="44.3949167" lon="11.245"><ele>135.6</ele><time>2026-04-09T13:07:42.897Z</time></trkpt><trkpt lat="44.3949983" lon="11.2450317"><ele>135.8</ele><time>2026-04-09T13:07:44.897Z</time></trkpt><trkpt lat="44.3951733" lon="11.245065"><ele>136.0</ele><time>2026-04-09T13:07:48.897Z</time></trkpt><trkpt lat="44.3952367" lon="11.24506"><ele>136.0</ele><time>2026-04-09T13:07:50.897Z</time></trkpt><trkpt lat="44.3953183" lon="11.24504"><ele>136.0</ele><time>2026-04-09T13:07:52.897Z</time></trkpt><trkpt lat="44.395425" lon="11.245065"><ele>136.0</ele><time>2026-04-09T13:07:54.897Z</time></trkpt><trkpt lat="44.395525" lon="11.2451283"><ele>136.0</ele><time>2026-04-09T13:07:56.897Z</time></trkpt><trkpt lat="44.395625" lon="11.2451633"><ele>136.0</ele><time>2026-04-09T13:07:58.897Z</time></trkpt><trkpt lat="44.3957233" lon="11.2452"><ele>136.0</ele><time>2026-04-09T13:08:00.897Z</time></trkpt><trkpt lat="44.3958217" lon="11.2452633"><ele>136.0</ele><time>2026-04-09T13:08:02.897Z</time></trkpt><trkpt lat="44.3959083" lon="11.2453133"><ele>136.0</ele><time>2026-04-09T13:08:04.897Z</time></trkpt><trkpt lat="44.3959833" lon="11.245345"><ele>136.0</ele><time>2026-04-09T13:08:06.897Z</time></trkpt><trkpt lat="44.3960933" lon="11.245265"><ele>136.0</ele><time>2026-04-09T13:08:32.897Z</time></trkpt><trkpt lat="44.3960783" lon="11.2452633"><ele>136.0</ele><time>2026-04-09T13:32:37.89Z</time></trkpt><trkpt lat="44.3961917" lon="11.2454967"><ele>135.75</ele><time>2026-04-09T13:32:58.89Z</time></trkpt><trkpt lat="44.3963617" lon="11.24562"><ele>135.5</ele><time>2026-04-09T13:33:02.89Z</time></trkpt><trkpt lat="44.3964417" lon="11.2456617"><ele>135.25</ele><time>2026-04-09T13:33:04.89Z</time></trkpt><trkpt lat="44.39643" lon="11.2458"><ele>135.0</ele><time>2026-04-09T13:33:07.89Z</time></trkpt><trkpt lat="44.396375" lon="11.2459283"><ele>134.4</ele><time>2026-04-09T13:33:09.89Z</time></trkpt><trkpt lat="44.3963067" lon="11.2460717"><ele>133.8</ele><time>2026-04-09T13:33:11.89Z</time></trkpt><trkpt lat="44.396265" lon="11.2461683"><ele>133.2</ele><time>2026-04-09T13:33:12.89Z</time></trkpt><trkpt lat="44.39622" lon="11.246275"><ele>132.6</ele><time>2026-04-09T13:33:13.891Z</time></trkpt><trkpt lat="44.3961767" lon="11.246385"><ele>132.0</ele><time>2026-04-09T13:33:14.89Z</time></trkpt><trkpt lat="44.3961367" lon="11.2464983"><ele>131.4</ele><time>2026-04-09T13:33:15.891Z</time></trkpt><trkpt lat="44.3961017" lon="11.2466017"><ele>130.79999999999998</ele><time>2026-04-09T13:33:16.89Z</time></trkpt><trkpt lat="44.396065" lon="11.2467067"><ele>130.2</ele><time>2026-04-09T13:33:17.89Z</time></trkpt><trkpt lat="44.39603" lon="11.2468067"><ele>129.6</ele><time>2026-04-09T13:33:18.89Z</time></trkpt><trkpt lat="44.395995" lon="11.2469067"><ele>129.0</ele><time>2026-04-09T13:33:19.89Z</time></trkpt><trkpt lat="44.3959283" lon="11.247115"><ele>129.0</ele><time>2026-04-09T13:33:21.89Z</time></trkpt><trkpt lat="44.3958883" lon="11.2472283"><ele>129.0</ele><time>2026-04-09T13:33:22.89Z</time></trkpt><trkpt lat="44.3958417" lon="11.2473383"><ele>129.0</ele><time>2026-04-09T13:33:23.891Z</time></trkpt><trkpt lat="44.3958" lon="11.2474367"><ele>129.0</ele><time>2026-04-09T13:33:24.89Z</time></trkpt><trkpt lat="44.395765" lon="11.2475317"><ele>129.0</ele><time>2026-04-09T13:33:25.891Z</time></trkpt><trkpt lat="44.3957367" lon="11.2476183"><ele>129.0</ele><time>2026-04-09T13:33:26.89Z</time></trkpt><trkpt lat="44.3957117" lon="11.2477017"><ele>128.83333333333334</ele><time>2026-04-09T13:33:27.89Z</time></trkpt><trkpt lat="44.3956667" lon="11.2478117"><ele>128.66666666666666</ele><time>2026-04-09T13:33:29.89Z</time></trkpt><trkpt lat="44.3956083" lon="11.2478867"><ele>128.5</ele><time>2026-04-09T13:33:33.891Z</time></trkpt><trkpt lat="44.395545" lon="11.2478833"><ele>128.33333333333331</ele><time>2026-04-09T13:33:35.89Z</time></trkpt><trkpt lat="44.3954483" lon="11.2478367"><ele>128.16666666666666</ele><time>2026-04-09T13:33:37.89Z</time></trkpt><trkpt lat="44.39538" lon="11.2478017"><ele>128.0</ele><time>2026-04-09T13:33:38.89Z</time></trkpt><trkpt lat="44.395305" lon="11.24777"><ele>127.60000000000001</ele><time>2026-04-09T13:33:39.89Z</time></trkpt><trkpt lat="44.395225" lon="11.2477317"><ele>127.20000000000002</ele><time>2026-04-09T13:33:40.89Z</time></trkpt><trkpt lat="44.3950583" lon="11.24765"><ele>126.8</ele><time>2026-04-09T13:33:42.89Z</time></trkpt><trkpt lat="44.3949833" lon="11.2476067"><ele>126.4</ele><time>2026-04-09T13:33:43.89Z</time></trkpt><trkpt lat="44.3949017" lon="11.2475567"><ele>126.0</ele><time>2026-04-09T13:33:44.891Z</time></trkpt><trkpt lat="44.3948217" lon="11.24751"><ele>126.0</ele><time>2026-04-09T13:33:45.891Z</time></trkpt><trkpt lat="44.3947383" lon="11.2474583"><ele>126.0</ele><time>2026-04-09T13:33:46.89Z</time></trkpt><trkpt lat="44.3946533" lon="11.2474167"><ele>126.0</ele><time>2026-04-09T13:33:47.89Z</time></trkpt><trkpt lat="44.3945717" lon="11.24737"><ele>126.0</ele><time>2026-04-09T13:33:48.891Z</time></trkpt><trkpt lat="44.394475" lon="11.2473367"><ele>126.0</ele><time>2026-04-09T13:33:49.89Z</time></trkpt><trkpt lat="44.3943817" lon="11.2472883"><ele>125.83333333333333</ele><time>2026-04-09T13:33:50.89Z</time></trkpt><trkpt lat="44.3942833" lon="11.2472633"><ele>125.66666666666666</ele><time>2026-04-09T13:33:51.89Z</time></trkpt><trkpt lat="44.394195" lon="11.2472367"><ele>125.5</ele><time>2026-04-09T13:33:52.89Z</time></trkpt><trkpt lat="44.3941233" lon="11.247205"><ele>125.33333333333333</ele><time>2026-04-09T13:33:53.89Z</time></trkpt><trkpt lat="44.394055" lon="11.2471817"><ele>125.16666666666666</ele><time>2026-04-09T13:33:54.89Z</time></trkpt><trkpt lat="44.393985" lon="11.2471583"><ele>125.0</ele><time>2026-04-09T13:33:55.89Z</time></trkpt><trkpt lat="44.3939217" lon="11.2471233"><ele>124.99999999999999</ele><time>2026-04-09T13:33:56.89Z</time></trkpt><trkpt lat="44.3938567" lon="11.2470933"><ele>125.0</ele><time>2026-04-09T13:33:57.89Z</time></trkpt><trkpt lat="44.3937767" lon="11.2470517"><ele>125.0</ele><time>2026-04-09T13:33:58.89Z</time></trkpt><trkpt lat="44.3936933" lon="11.24701"><ele>125.0</ele><time>2026-04-09T13:33:59.89Z</time></trkpt><trkpt lat="44.3936067" lon="11.2469667"><ele>124.99999999999999</ele><time>2026-04-09T13:34:00.89Z</time></trkpt><trkpt lat="44.393505" lon="11.246915"><ele>125.0</ele><time>2026-04-09T13:34:01.891Z</time></trkpt><trkpt lat="44.3933017" lon="11.2468233"><ele>125.25</ele><time>2026-04-09T13:34:03.891Z</time></trkpt><trkpt lat="44.3932" lon="11.2467767"><ele>125.5</ele><time>2026-04-09T13:34:04.891Z</time></trkpt><trkpt lat="44.3930883" lon="11.2467333"><ele>125.75</ele><time>2026-04-09T13:34:05.89Z</time></trkpt><trkpt lat="44.3929817" lon="11.246675"><ele>126.0</ele><time>2026-04-09T13:34:06.89Z</time></trkpt><trkpt lat="44.3928717" lon="11.2466167"><ele>126.5</ele><time>2026-04-09T13:34:07.891Z</time></trkpt><trkpt lat="44.3927583" lon="11.246565"><ele>127.0</ele><time>2026-04-09T13:34:08.891Z</time></trkpt><trkpt lat="44.3926433" lon="11.24651"><ele>127.5</ele><time>2026-04-09T13:34:09.89Z</time></trkpt><trkpt lat="44.392525" lon="11.2464517"><ele>128.0</ele><time>2026-04-09T13:34:10.89Z</time></trkpt><trkpt lat="44.392405" lon="11.2463933"><ele>128.75</ele><time>2026-04-09T13:34:11.89Z</time></trkpt><trkpt lat="44.3922917" lon="11.2463267"><ele>129.5</ele><time>2026-04-09T13:34:12.891Z</time></trkpt><trkpt lat="44.3921733" lon="11.2462733"><ele>130.25</ele><time>2026-04-09T13:34:13.89Z</time></trkpt><trkpt lat="44.39206" lon="11.24622"><ele>131.0</ele><time>2026-04-09T13:34:14.89Z</time></trkpt><trkpt lat="44.39195" lon="11.2461667"><ele>131.0</ele><time>2026-04-09T13:34:15.891Z</time></trkpt><trkpt lat="44.391835" lon="11.24612"><ele>131.0</ele><time>2026-04-09T13:34:16.891Z</time></trkpt><trkpt lat="44.39171" lon="11.2460617"><ele>131.0</ele><time>2026-04-09T13:34:17.89Z</time></trkpt><trkpt lat="44.39159" lon="11.2460217"><ele>131.0</ele><time>2026-04-09T13:34:18.891Z</time></trkpt><trkpt lat="44.3914717" lon="11.2459917"><ele>131.0</ele><time>2026-04-09T13:34:19.89Z</time></trkpt><trkpt lat="44.391365" lon="11.245965"><ele>131.0</ele><time>2026-04-09T13:34:20.891Z</time></trkpt><trkpt lat="44.3912767" lon="11.2459417"><ele>131.0</ele><time>2026-04-09T13:34:21.89Z</time></trkpt><trkpt lat="44.391205" lon="11.2459067"><ele>131.0</ele><time>2026-04-09T13:34:22.891Z</time></trkpt><trkpt lat="44.3910633" lon="11.2457917"><ele>131.0</ele><time>2026-04-09T13:34:24.89Z</time></trkpt><trkpt lat="44.3909917" lon="11.245735"><ele>130.5</ele><time>2026-04-09T13:34:25.89Z</time></trkpt><trkpt lat="44.390905" lon="11.2457017"><ele>130.0</ele><time>2026-04-09T13:34:26.89Z</time></trkpt><trkpt lat="44.3908283" lon="11.245695"><ele>129.5</ele><time>2026-04-09T13:34:27.89Z</time></trkpt><trkpt lat="44.390745" lon="11.24573"><ele>129.0</ele><time>2026-04-09T13:34:28.89Z</time></trkpt><trkpt lat="44.3906883" lon="11.2458067"><ele>128.5</ele><time>2026-04-09T13:34:29.89Z</time></trkpt><trkpt lat="44.3906367" lon="11.2459067"><ele>128.0</ele><time>2026-04-09T13:34:30.89Z</time></trkpt><trkpt lat="44.39058" lon="11.2460083"><ele>128.0</ele><time>2026-04-09T13:34:31.89Z</time></trkpt><trkpt lat="44.390515" lon="11.2460917"><ele>128.0</ele><time>2026-04-09T13:34:32.89Z</time></trkpt><trkpt lat="44.3904333" lon="11.2461717"><ele>128.0</ele><time>2026-04-09T13:34:33.89Z</time></trkpt><trkpt lat="44.3903267" lon="11.2462367"><ele>128.0</ele><time>2026-04-09T13:34:34.89Z</time></trkpt><trkpt lat="44.3902133" lon="11.2462967"><ele>128.0</ele><time>2026-04-09T13:34:35.89Z</time></trkpt><trkpt lat="44.3900867" lon="11.246355"><ele>122.33333333333333</ele><time>2026-04-09T13:34:36.89Z</time></trkpt><trkpt lat="44.3899483" lon="11.246425"><ele>116.66666666666666</ele><time>2026-04-09T13:34:37.89Z</time></trkpt><trkpt lat="44.3898033" lon="11.2464883"><ele>111.0</ele><time>2026-04-09T13:34:38.89Z</time></trkpt><trkpt lat="44.3896533" lon="11.2465567"><ele>107.66666666666666</ele><time>2026-04-09T13:34:39.891Z</time></trkpt><trkpt lat="44.3895" lon="11.2466267"><ele>104.33333333333333</ele><time>2026-04-09T13:34:40.89Z</time></trkpt><trkpt lat="44.3893517" lon="11.246695"><ele>101.0</ele><time>2026-04-09T13:34:41.89Z</time></trkpt><trkpt lat="44.3892083" lon="11.24677"><ele>101.0</ele><time>2026-04-09T13:34:42.891Z</time></trkpt><trkpt lat="44.389075" lon="11.2468333"><ele>101.0</ele><time>2026-04-09T13:34:43.89Z</time></trkpt><trkpt lat="44.388825" lon="11.2469417"><ele>101.0</ele><time>2026-04-09T13:34:45.89Z</time></trkpt><trkpt lat="44.3887217" lon="11.2469867"><ele>102.83333333333333</ele><time>2026-04-09T13:34:46.89Z</time></trkpt><trkpt lat="44.3886333" lon="11.247025"><ele>104.66666666666666</ele><time>2026-04-09T13:34:47.89Z</time></trkpt><trkpt lat="44.3885617" lon="11.2470567"><ele>106.5</ele><time>2026-04-09T13:34:48.89Z</time></trkpt><trkpt lat="44.388445" lon="11.247105"><ele>108.33333333333334</ele><time>2026-04-09T13:34:50.89Z</time></trkpt><trkpt lat="44.3883817" lon="11.2471017"><ele>110.16666666666667</ele><time>2026-04-09T13:34:51.89Z</time></trkpt><trkpt lat="44.388315" lon="11.247105"><ele>112.0</ele><time>2026-04-09T13:34:52.891Z</time></trkpt><trkpt lat="44.38824" lon="11.247125"><ele>112.0</ele><time>2026-04-09T13:34:53.891Z</time></trkpt><trkpt lat="44.38816" lon="11.2471717"><ele>111.99999999999999</ele><time>2026-04-09T13:34:54.89Z</time></trkpt><trkpt lat="44.388075" lon="11.2472333"><ele>111.99999999999999</ele><time>2026-04-09T13:34:55.89Z</time></trkpt><trkpt lat="44.3879883" lon="11.24731"><ele>112.0</ele><time>2026-04-09T13:34:56.89Z</time></trkpt><trkpt lat="44.3878917" lon="11.247375"><ele>112.0</ele><time>2026-04-09T13:34:57.89Z</time></trkpt><trkpt lat="44.3877817" lon="11.2474383"><ele>114.75</ele><time>2026-04-09T13:34:58.89Z</time></trkpt><trkpt lat="44.38766" lon="11.2474967"><ele>117.5</ele><time>2026-04-09T13:34:59.889Z</time></trkpt><trkpt lat="44.387525" lon="11.247555"><ele>120.25</ele><time>2026-04-09T13:35:00.889Z</time></trkpt><trkpt lat="44.3873883" lon="11.247625"><ele>123.0</ele><time>2026-04-09T13:35:01.889Z</time></trkpt><trkpt lat="44.3872433" lon="11.2476883"><ele>123.0</ele><time>2026-04-09T13:35:02.889Z</time></trkpt><trkpt lat="44.3870867" lon="11.247755"><ele>123.0</ele><time>2026-04-09T13:35:03.89Z</time></trkpt><trkpt lat="44.3869233" lon="11.247835"><ele>123.0</ele><time>2026-04-09T13:35:04.889Z</time></trkpt><trkpt lat="44.3865867" lon="11.247975"><ele>123.0</ele><time>2026-04-09T13:35:06.889Z</time></trkpt><trkpt lat="44.38642" lon="11.24805"><ele>123.0</ele><time>2026-04-09T13:35:07.889Z</time></trkpt><trkpt lat="44.3862633" lon="11.248115"><ele>123.0</ele><time>2026-04-09T13:35:08.889Z</time></trkpt><trkpt lat="44.386115" lon="11.2481617"><ele>122.66666666666666</ele><time>2026-04-09T13:35:09.889Z</time></trkpt><trkpt lat="44.3859617" lon="11.2481967"><ele>122.33333333333333</ele><time>2026-04-09T13:35:10.889Z</time></trkpt><trkpt lat="44.3857967" lon="11.2482333"><ele>122.0</ele><time>2026-04-09T13:35:11.89Z</time></trkpt><trkpt lat="44.3856283" lon="11.24828"><ele>118.66666666666666</ele><time>2026-04-09T13:35:12.89Z</time></trkpt><trkpt lat="44.385455" lon="11.2483283"><ele>115.33333333333334</ele><time>2026-04-09T13:35:13.889Z</time></trkpt><trkpt lat="44.3852817" lon="11.2483867"><ele>112.0</ele><time>2026-04-09T13:35:14.889Z</time></trkpt><trkpt lat="44.38511" lon="11.2484633"><ele>112.0</ele><time>2026-04-09T13:35:15.889Z</time></trkpt><trkpt lat="44.384935" lon="11.248555"><ele>112.0</ele><time>2026-04-09T13:35:16.889Z</time></trkpt><trkpt lat="44.3847567" lon="11.2486567"><ele>112.0</ele><time>2026-04-09T13:35:17.889Z</time></trkpt><trkpt lat="44.3845917" lon="11.24878"><ele>109.33333333333334</ele><time>2026-04-09T13:35:18.889Z</time></trkpt><trkpt lat="44.3844233" lon="11.2489117"><ele>106.66666666666666</ele><time>2026-04-09T13:35:19.89Z</time></trkpt><trkpt lat="44.3842483" lon="11.2490433"><ele>104.0</ele><time>2026-04-09T13:35:20.889Z</time></trkpt><trkpt lat="44.3840767" lon="11.2491617"><ele>107.66666666666666</ele><time>2026-04-09T13:35:21.89Z</time></trkpt><trkpt lat="44.3838967" lon="11.2492667"><ele>111.33333333333334</ele><time>2026-04-09T13:35:22.889Z</time></trkpt><trkpt lat="44.3837167" lon="11.2493583"><ele>115.0</ele><time>2026-04-09T13:35:23.889Z</time></trkpt><trkpt lat="44.3835383" lon="11.249455"><ele>115.0</ele><time>2026-04-09T13:35:24.889Z</time></trkpt><trkpt lat="44.3833583" lon="11.2495617"><ele>115.0</ele><time>2026-04-09T13:35:25.889Z</time></trkpt><trkpt lat="44.383025" lon="11.2497917"><ele>114.0</ele><time>2026-04-09T13:35:27.889Z</time></trkpt><trkpt lat="44.3828633" lon="11.2499167"><ele>113.0</ele><time>2026-04-09T13:35:28.889Z</time></trkpt><trkpt lat="44.38271" lon="11.2500717"><ele>112.0</ele><time>2026-04-09T13:35:29.889Z</time></trkpt><trkpt lat="44.3825567" lon="11.250225"><ele>112.0</ele><time>2026-04-09T13:35:30.889Z</time></trkpt><trkpt lat="44.38241" lon="11.25039"><ele>112.0</ele><time>2026-04-09T13:35:31.889Z</time></trkpt><trkpt lat="44.3822567" lon="11.250545"><ele>112.0</ele><time>2026-04-09T13:35:32.889Z</time></trkpt><trkpt lat="44.38209" lon="11.2506917"><ele>112.33333333333334</ele><time>2026-04-09T13:35:33.889Z</time></trkpt><trkpt lat="44.38192" lon="11.250825"><ele>112.66666666666666</ele><time>2026-04-09T13:35:34.889Z</time></trkpt><trkpt lat="44.38175" lon="11.25093"><ele>113.0</ele><time>2026-04-09T13:35:35.89Z</time></trkpt><trkpt lat="44.3815817" lon="11.25102"><ele>113.0</ele><time>2026-04-09T13:35:36.889Z</time></trkpt><trkpt lat="44.3814033" lon="11.25109"><ele>113.0</ele><time>2026-04-09T13:35:37.889Z</time></trkpt><trkpt lat="44.381225" lon="11.2511417"><ele>113.0</ele><time>2026-04-09T13:35:38.889Z</time></trkpt><trkpt lat="44.381045" lon="11.251185"><ele>112.33333333333333</ele><time>2026-04-09T13:35:39.889Z</time></trkpt><trkpt lat="44.3808733" lon="11.2511967"><ele>111.66666666666666</ele><time>2026-04-09T13:35:40.889Z</time></trkpt><trkpt lat="44.3807117" lon="11.2511983"><ele>111.0</ele><time>2026-04-09T13:35:41.89Z</time></trkpt><trkpt lat="44.38056" lon="11.25118"><ele>113.0</ele><time>2026-04-09T13:35:42.889Z</time></trkpt><trkpt lat="44.3804067" lon="11.2511233"><ele>115.0</ele><time>2026-04-09T13:35:43.889Z</time></trkpt><trkpt lat="44.3802583" lon="11.25105"><ele>117.0</ele><time>2026-04-09T13:35:44.889Z</time></trkpt><trkpt lat="44.3801233" lon="11.2509533"><ele>117.0</ele><time>2026-04-09T13:35:45.89Z</time></trkpt><trkpt lat="44.37999" lon="11.250855"><ele>117.0</ele><time>2026-04-09T13:35:46.889Z</time></trkpt><trkpt lat="44.3797283" lon="11.2507083"><ele>117.0</ele><time>2026-04-09T13:35:48.889Z</time></trkpt><trkpt lat="44.3796033" lon="11.2506783"><ele>115.5</ele><time>2026-04-09T13:35:49.889Z</time></trkpt><trkpt lat="44.37948" lon="11.2507017"><ele>114.0</ele><time>2026-04-09T13:35:50.889Z</time></trkpt><trkpt lat="44.3793517" lon="11.2507883"><ele>112.5</ele><time>2026-04-09T13:35:51.889Z</time></trkpt><trkpt lat="44.3792233" lon="11.2509"><ele>111.0</ele><time>2026-04-09T13:35:52.89Z</time></trkpt><trkpt lat="44.3790933" lon="11.2510267"><ele>111.0</ele><time>2026-04-09T13:35:53.889Z</time></trkpt><trkpt lat="44.378955" lon="11.251155"><ele>111.0</ele><time>2026-04-09T13:35:54.89Z</time></trkpt><trkpt lat="44.3788083" lon="11.2512917"><ele>111.0</ele><time>2026-04-09T13:35:55.889Z</time></trkpt><trkpt lat="44.3786633" lon="11.2514367"><ele>112.66666666666666</ele><time>2026-04-09T13:35:56.89Z</time></trkpt><trkpt lat="44.37853" lon="11.251585"><ele>114.33333333333333</ele><time>2026-04-09T13:35:57.889Z</time></trkpt><trkpt lat="44.3784033" lon="11.2517333"><ele>116.0</ele><time>2026-04-09T13:35:58.889Z</time></trkpt><trkpt lat="44.378285" lon="11.251875"><ele>116.0</ele><time>2026-04-09T13:35:59.89Z</time></trkpt><trkpt lat="44.3781583" lon="11.2519983"><ele>116.0</ele><time>2026-04-09T13:36:00.889Z</time></trkpt><trkpt lat="44.378025" lon="11.2521017"><ele>116.0</ele><time>2026-04-09T13:36:01.889Z</time></trkpt><trkpt lat="44.3778817" lon="11.25218"><ele>114.33333333333333</ele><time>2026-04-09T13:36:02.889Z</time></trkpt><trkpt lat="44.3777317" lon="11.2522517"><ele>112.66666666666666</ele><time>2026-04-09T13:36:03.889Z</time></trkpt><trkpt lat="44.3775783" lon="11.2523117"><ele>111.0</ele><time>2026-04-09T13:36:04.889Z</time></trkpt><trkpt lat="44.37741" lon="11.2523667"><ele>114.0</ele><time>2026-04-09T13:36:05.889Z</time></trkpt><trkpt lat="44.377235" lon="11.2524117"><ele>117.0</ele><time>2026-04-09T13:36:06.889Z</time></trkpt><trkpt lat="44.377065" lon="11.25246"><ele>120.0</ele><time>2026-04-09T13:36:07.889Z</time></trkpt><trkpt lat="44.37672" lon="11.2525017"><ele>120.0</ele><time>2026-04-09T13:36:09.889Z</time></trkpt><trkpt lat="44.3765467" lon="11.2524917"><ele>120.0</ele><time>2026-04-09T13:36:10.89Z</time></trkpt><trkpt lat="44.3763717" lon="11.2524533"><ele>120.0</ele><time>2026-04-09T13:36:11.889Z</time></trkpt><trkpt lat="44.3762" lon="11.252405"><ele>121.0</ele><time>2026-04-09T13:36:12.889Z</time></trkpt><trkpt lat="44.3760383" lon="11.2523533"><ele>122.0</ele><time>2026-04-09T13:36:13.889Z</time></trkpt><trkpt lat="44.37588" lon="11.252295"><ele>123.0</ele><time>2026-04-09T13:36:14.889Z</time></trkpt><trkpt lat="44.375735" lon="11.2522133"><ele>120.5</ele><time>2026-04-09T13:36:15.889Z</time></trkpt><trkpt lat="44.3756033" lon="11.252135"><ele>118.0</ele><time>2026-04-09T13:36:16.889Z</time></trkpt><trkpt lat="44.375475" lon="11.252065"><ele>115.5</ele><time>2026-04-09T13:36:17.889Z</time></trkpt><trkpt lat="44.3753433" lon="11.2520167"><ele>113.0</ele><time>2026-04-09T13:36:18.889Z</time></trkpt><trkpt lat="44.3752" lon="11.2519983"><ele>112.75</ele><time>2026-04-09T13:36:19.889Z</time></trkpt><trkpt lat="44.375065" lon="11.252015"><ele>112.5</ele><time>2026-04-09T13:36:20.889Z</time></trkpt><trkpt lat="44.3749217" lon="11.2520483"><ele>112.25</ele><time>2026-04-09T13:36:21.889Z</time></trkpt><trkpt lat="44.3747833" lon="11.2520767"><ele>112.0</ele><time>2026-04-09T13:36:22.889Z</time></trkpt><trkpt lat="44.3746483" lon="11.252105"><ele>111.25</ele><time>2026-04-09T13:36:23.889Z</time></trkpt><trkpt lat="44.3745133" lon="11.2521483"><ele>110.5</ele><time>2026-04-09T13:36:24.889Z</time></trkpt><trkpt lat="44.3743783" lon="11.2521917"><ele>109.75</ele><time>2026-04-09T13:36:25.889Z</time></trkpt><trkpt lat="44.3742367" lon="11.2522317"><ele>109.0</ele><time>2026-04-09T13:36:26.889Z</time></trkpt><trkpt lat="44.3740883" lon="11.252295"><ele>111.0</ele><time>2026-04-09T13:36:27.889Z</time></trkpt><trkpt lat="44.3739417" lon="11.252365"><ele>113.0</ele><time>2026-04-09T13:36:28.889Z</time></trkpt><trkpt lat="44.3736433" lon="11.252525"><ele>113.0</ele><time>2026-04-09T13:36:30.889Z</time></trkpt><trkpt lat="44.3734983" lon="11.2526133"><ele>113.0</ele><time>2026-04-09T13:36:31.889Z</time></trkpt><trkpt lat="44.3733483" lon="11.2527083"><ele>113.0</ele><time>2026-04-09T13:36:32.889Z</time></trkpt><trkpt lat="44.3732" lon="11.2527933"><ele>113.0</ele><time>2026-04-09T13:36:33.889Z</time></trkpt><trkpt lat="44.3730567" lon="11.2528567"><ele>113.0</ele><time>2026-04-09T13:36:34.889Z</time></trkpt><trkpt lat="44.3729083" lon="11.252915"><ele>113.0</ele><time>2026-04-09T13:36:35.889Z</time></trkpt><trkpt lat="44.3727683" lon="11.2529567"><ele>113.0</ele><time>2026-04-09T13:36:36.889Z</time></trkpt><trkpt lat="44.3726183" lon="11.2529983"><ele>113.33333333333333</ele><time>2026-04-09T13:36:37.889Z</time></trkpt><trkpt lat="44.372465" lon="11.2530383"><ele>113.66666666666666</ele><time>2026-04-09T13:36:38.89Z</time></trkpt><trkpt lat="44.372315" lon="11.2531"><ele>114.0</ele><time>2026-04-09T13:36:39.889Z</time></trkpt><trkpt lat="44.3721683" lon="11.2531767"><ele>114.0</ele><time>2026-04-09T13:36:40.89Z</time></trkpt><trkpt lat="44.372025" lon="11.25327"><ele>114.0</ele><time>2026-04-09T13:36:41.889Z</time></trkpt><trkpt lat="44.371885" lon="11.253365"><ele>114.0</ele><time>2026-04-09T13:36:42.889Z</time></trkpt><trkpt lat="44.3717467" lon="11.253475"><ele>114.0</ele><time>2026-04-09T13:36:43.889Z</time></trkpt><trkpt lat="44.3716133" lon="11.2536033"><ele>114.0</ele><time>2026-04-09T13:36:44.889Z</time></trkpt><trkpt lat="44.37149" lon="11.2537383"><ele>114.0</ele><time>2026-04-09T13:36:45.889Z</time></trkpt><trkpt lat="44.3713833" lon="11.253885"><ele>113.0</ele><time>2026-04-09T13:36:46.889Z</time></trkpt><trkpt lat="44.3712917" lon="11.2540517"><ele>112.0</ele><time>2026-04-09T13:36:47.889Z</time></trkpt><trkpt lat="44.3712033" lon="11.2542317"><ele>111.0</ele><time>2026-04-09T13:36:48.889Z</time></trkpt><trkpt lat="44.3711317" lon="11.2544417"><ele>114.0</ele><time>2026-04-09T13:36:49.89Z</time></trkpt><trkpt lat="44.3709717" lon="11.2548683"><ele>117.0</ele><time>2026-04-09T13:36:51.889Z</time></trkpt><trkpt lat="44.3708817" lon="11.2550683"><ele>117.0</ele><time>2026-04-09T13:36:52.89Z</time></trkpt><trkpt lat="44.3707867" lon="11.2552683"><ele>117.0</ele><time>2026-04-09T13:36:53.889Z</time></trkpt><trkpt lat="44.3706983" lon="11.2554867"><ele>117.0</ele><time>2026-04-09T13:36:54.889Z</time></trkpt><trkpt lat="44.37062" lon="11.2557017"><ele>115.66666666666666</ele><time>2026-04-09T13:36:55.889Z</time></trkpt><trkpt lat="44.37054" lon="11.2559067"><ele>114.33333333333333</ele><time>2026-04-09T13:36:56.889Z</time></trkpt><trkpt lat="44.3704383" lon="11.2561217"><ele>113.0</ele><time>2026-04-09T13:36:57.889Z</time></trkpt><trkpt lat="44.37034" lon="11.2563267"><ele>114.66666666666666</ele><time>2026-04-09T13:36:58.889Z</time></trkpt><trkpt lat="44.3702367" lon="11.2565283"><ele>116.33333333333334</ele><time>2026-04-09T13:36:59.89Z</time></trkpt><trkpt lat="44.3701433" lon="11.2567167"><ele>118.0</ele><time>2026-04-09T13:37:00.889Z</time></trkpt><trkpt lat="44.370055" lon="11.2569017"><ele>118.0</ele><time>2026-04-09T13:37:01.889Z</time></trkpt><trkpt lat="44.3699733" lon="11.2570867"><ele>118.0</ele><time>2026-04-09T13:37:02.889Z</time></trkpt><trkpt lat="44.3698933" lon="11.2572617"><ele>118.0</ele><time>2026-04-09T13:37:03.889Z</time></trkpt><trkpt lat="44.3698033" lon="11.25746"><ele>117.5</ele><time>2026-04-09T13:37:04.889Z</time></trkpt><trkpt lat="44.3697233" lon="11.2576367"><ele>117.0</ele><time>2026-04-09T13:37:05.889Z</time></trkpt><trkpt lat="44.3696483" lon="11.25781"><ele>116.5</ele><time>2026-04-09T13:37:06.889Z</time></trkpt><trkpt lat="44.36957" lon="11.2579633"><ele>116.0</ele><time>2026-04-09T13:37:07.889Z</time></trkpt><trkpt lat="44.36951" lon="11.2581333"><ele>116.0</ele><time>2026-04-09T13:37:08.889Z</time></trkpt><trkpt lat="44.36942" lon="11.258275"><ele>116.0</ele><time>2026-04-09T13:37:09.889Z</time></trkpt><trkpt lat="44.3693583" lon="11.2584083"><ele>116.0</ele><time>2026-04-09T13:37:10.889Z</time></trkpt><trkpt lat="44.3692467" lon="11.2587183"><ele>115.99999999999999</ele><time>2026-04-09T13:37:12.889Z</time></trkpt><trkpt lat="44.3692033" lon="11.2588483"><ele>116.0</ele><time>2026-04-09T13:37:13.889Z</time></trkpt><trkpt lat="44.3691667" lon="11.2589717"><ele>116.0</ele><time>2026-04-09T13:37:14.889Z</time></trkpt><trkpt lat="44.3691317" lon="11.2590733"><ele>116.0</ele><time>2026-04-09T13:37:15.889Z</time></trkpt><trkpt lat="44.3691033" lon="11.2591567"><ele>115.99999999999999</ele><time>2026-04-09T13:37:16.889Z</time></trkpt><trkpt lat="44.36906" lon="11.25928"><ele>116.0</ele><time>2026-04-09T13:37:18.89Z</time></trkpt><trkpt lat="44.3690483" lon="11.2593717"><ele>116.83333333333333</ele><time>2026-04-09T13:37:20.89Z</time></trkpt><trkpt lat="44.3691083" lon="11.2594967"><ele>117.66666666666666</ele><time>2026-04-09T13:37:22.889Z</time></trkpt><trkpt lat="44.3691617" lon="11.2595667"><ele>118.5</ele><time>2026-04-09T13:37:23.889Z</time></trkpt><trkpt lat="44.3692217" lon="11.2596483"><ele>119.33333333333334</ele><time>2026-04-09T13:37:24.889Z</time></trkpt><trkpt lat="44.3692767" lon="11.2597467"><ele>120.16666666666667</ele><time>2026-04-09T13:37:25.889Z</time></trkpt><trkpt lat="44.3693267" lon="11.2598583"><ele>121.0</ele><time>2026-04-09T13:37:26.889Z</time></trkpt><trkpt lat="44.36937" lon="11.259985"><ele>121.0</ele><time>2026-04-09T13:37:27.889Z</time></trkpt><trkpt lat="44.36941" lon="11.2601083"><ele>121.0</ele><time>2026-04-09T13:37:28.89Z</time></trkpt><trkpt lat="44.3694367" lon="11.26022"><ele>121.0</ele><time>2026-04-09T13:37:29.89Z</time></trkpt><trkpt lat="44.369465" lon="11.2603333"><ele>121.0</ele><time>2026-04-09T13:37:30.89Z</time></trkpt><trkpt lat="44.3695" lon="11.2604267"><ele>121.0</ele><time>2026-04-09T13:37:31.89Z</time></trkpt><trkpt lat="44.3696583" lon="11.2605367"><ele>123.4</ele><time>2026-04-09T13:37:34.889Z</time></trkpt><trkpt lat="44.369745" lon="11.2603983"><ele>125.8</ele><time>2026-04-09T13:37:36.889Z</time></trkpt><trkpt lat="44.3697517" lon="11.260275"><ele>128.20000000000002</ele><time>2026-04-09T13:37:37.889Z</time></trkpt><trkpt lat="44.36975" lon="11.2601483"><ele>130.6</ele><time>2026-04-09T13:37:38.889Z</time></trkpt><trkpt lat="44.3697367" lon="11.2600083"><ele>133.0</ele><time>2026-04-09T13:37:39.889Z</time></trkpt><trkpt lat="44.3697333" lon="11.259865"><ele>133.0</ele><time>2026-04-09T13:37:40.889Z</time></trkpt><trkpt lat="44.3697317" lon="11.259725"><ele>133.0</ele><time>2026-04-09T13:37:41.89Z</time></trkpt><trkpt lat="44.3697383" lon="11.259595"><ele>133.0</ele><time>2026-04-09T13:37:42.889Z</time></trkpt><trkpt lat="44.3697583" lon="11.2594683"><ele>133.0</ele><time>2026-04-09T13:37:43.889Z</time></trkpt><trkpt lat="44.3697933" lon="11.2593417"><ele>133.0</ele><time>2026-04-09T13:37:44.889Z</time></trkpt><trkpt lat="44.3698483" lon="11.25921"><ele>133.0</ele><time>2026-04-09T13:37:45.89Z</time></trkpt><trkpt lat="44.3699233" lon="11.2590883"><ele>133.0</ele><time>2026-04-09T13:37:46.889Z</time></trkpt><trkpt lat="44.37001" lon="11.2589717"><ele>133.0</ele><time>2026-04-09T13:37:47.889Z</time></trkpt><trkpt lat="44.3701067" lon="11.2588483"><ele>133.0</ele><time>2026-04-09T13:37:48.889Z</time></trkpt><trkpt lat="44.3702067" lon="11.2587267"><ele>132.25</ele><time>2026-04-09T13:37:49.889Z</time></trkpt><trkpt lat="44.3703067" lon="11.258605"><ele>131.5</ele><time>2026-04-09T13:37:50.889Z</time></trkpt><trkpt lat="44.3703967" lon="11.2584817"><ele>130.75</ele><time>2026-04-09T13:37:51.89Z</time></trkpt><trkpt lat="44.3704783" lon="11.258385"><ele>130.0</ele><time>2026-04-09T13:37:52.889Z</time></trkpt><trkpt lat="44.3706283" lon="11.2582367"><ele>133.0</ele><time>2026-04-09T13:37:54.889Z</time></trkpt><trkpt lat="44.37072" lon="11.2582167"><ele>136.0</ele><time>2026-04-09T13:37:55.89Z</time></trkpt><trkpt lat="44.3708133" lon="11.258235"><ele>139.0</ele><time>2026-04-09T13:37:56.889Z</time></trkpt><trkpt lat="44.370895" lon="11.258305"><ele>142.0</ele><time>2026-04-09T13:37:57.889Z</time></trkpt><trkpt lat="44.370965" lon="11.2584167"><ele>145.0</ele><time>2026-04-09T13:37:58.889Z</time></trkpt><trkpt lat="44.3710283" lon="11.258525"><ele>145.0</ele><time>2026-04-09T13:37:59.889Z</time></trkpt><trkpt lat="44.371095" lon="11.2586117"><ele>145.0</ele><time>2026-04-09T13:38:00.889Z</time></trkpt><trkpt lat="44.37117" lon="11.2586717"><ele>145.0</ele><time>2026-04-09T13:38:01.889Z</time></trkpt><trkpt lat="44.37126" lon="11.258685"><ele>145.0</ele><time>2026-04-09T13:38:02.889Z</time></trkpt><trkpt lat="44.3713517" lon="11.2586383"><ele>145.0</ele><time>2026-04-09T13:38:03.889Z</time></trkpt><trkpt lat="44.37145" lon="11.258545"><ele>146.0</ele><time>2026-04-09T13:38:04.889Z</time></trkpt><trkpt lat="44.37154" lon="11.258435"><ele>147.0</ele><time>2026-04-09T13:38:05.89Z</time></trkpt><trkpt lat="44.371625" lon="11.258295"><ele>148.0</ele><time>2026-04-09T13:38:06.889Z</time></trkpt><trkpt lat="44.3717067" lon="11.25815"><ele>149.0</ele><time>2026-04-09T13:38:07.889Z</time></trkpt><trkpt lat="44.3717983" lon="11.2579883"><ele>149.0</ele><time>2026-04-09T13:38:08.889Z</time></trkpt><trkpt lat="44.3718983" lon="11.2578317"><ele>149.0</ele><time>2026-04-09T13:38:09.889Z</time></trkpt><trkpt lat="44.3720083" lon="11.2576783"><ele>149.0</ele><time>2026-04-09T13:38:10.89Z</time></trkpt><trkpt lat="44.372135" lon="11.2575217"><ele>151.33333333333331</ele><time>2026-04-09T13:38:11.889Z</time></trkpt><trkpt lat="44.3722617" lon="11.25736"><ele>153.66666666666666</ele><time>2026-04-09T13:38:12.889Z</time></trkpt><trkpt lat="44.37239" lon="11.257195"><ele>156.0</ele><time>2026-04-09T13:38:13.889Z</time></trkpt><trkpt lat="44.3726533" lon="11.2568583"><ele>156.0</ele><time>2026-04-09T13:38:15.889Z</time></trkpt><trkpt lat="44.37278" lon="11.2566967"><ele>156.0</ele><time>2026-04-09T13:38:16.889Z</time></trkpt><trkpt lat="44.3729033" lon="11.2565367"><ele>156.0</ele><time>2026-04-09T13:38:17.889Z</time></trkpt><trkpt lat="44.3730217" lon="11.2563783"><ele>157.25</ele><time>2026-04-09T13:38:18.889Z</time></trkpt><trkpt lat="44.3731317" lon="11.2562333"><ele>158.5</ele><time>2026-04-09T13:38:19.889Z</time></trkpt><trkpt lat="44.3732417" lon="11.2560917"><ele>159.75</ele><time>2026-04-09T13:38:20.889Z</time></trkpt><trkpt lat="44.3733517" lon="11.255965"><ele>161.0</ele><time>2026-04-09T13:38:21.889Z</time></trkpt><trkpt lat="44.37347" lon="11.2558483"><ele>161.0</ele><time>2026-04-09T13:38:22.889Z</time></trkpt><trkpt lat="44.373605" lon="11.2557483"><ele>161.0</ele><time>2026-04-09T13:38:23.889Z</time></trkpt><trkpt lat="44.37375" lon="11.2556583"><ele>161.0</ele><time>2026-04-09T13:38:24.89Z</time></trkpt><trkpt lat="44.3739" lon="11.2555667"><ele>161.0</ele><time>2026-04-09T13:38:25.889Z</time></trkpt><trkpt lat="44.374035" lon="11.255475"><ele>161.0</ele><time>2026-04-09T13:38:26.889Z</time></trkpt><trkpt lat="44.3741633" lon="11.2553767"><ele>161.0</ele><time>2026-04-09T13:38:27.89Z</time></trkpt><trkpt lat="44.3742767" lon="11.255285"><ele>161.0</ele><time>2026-04-09T13:38:28.89Z</time></trkpt><trkpt lat="44.3743883" lon="11.2552217"><ele>161.0</ele><time>2026-04-09T13:38:29.889Z</time></trkpt><trkpt lat="44.3745133" lon="11.2551883"><ele>161.0</ele><time>2026-04-09T13:38:30.889Z</time></trkpt><trkpt lat="44.37463" lon="11.2551817"><ele>161.0</ele><time>2026-04-09T13:38:31.89Z</time></trkpt><trkpt lat="44.374745" lon="11.255185"><ele>161.0</ele><time>2026-04-09T13:38:32.889Z</time></trkpt><trkpt lat="44.374855" lon="11.2551383"><ele>164.0</ele><time>2026-04-09T13:38:33.89Z</time></trkpt><trkpt lat="44.3749633" lon="11.255055"><ele>167.0</ele><time>2026-04-09T13:38:34.889Z</time></trkpt><trkpt lat="44.37517" lon="11.2548817"><ele>170.0</ele><time>2026-04-09T13:38:36.889Z</time></trkpt><trkpt lat="44.3752633" lon="11.2548133"><ele>170.0</ele><time>2026-04-09T13:38:37.889Z</time></trkpt><trkpt lat="44.3753533" lon="11.2547733"><ele>170.0</ele><time>2026-04-09T13:38:38.889Z</time></trkpt><trkpt lat="44.375425" lon="11.2547567"><ele>170.0</ele><time>2026-04-09T13:38:39.89Z</time></trkpt><trkpt lat="44.375505" lon="11.254825"><ele>170.0</ele><time>2026-04-09T13:38:41.89Z</time></trkpt><trkpt lat="44.37549" lon="11.2549217"><ele>170.0</ele><time>2026-04-09T13:38:43.889Z</time></trkpt><trkpt lat="44.3753917" lon="11.2549733"><ele>170.0</ele><time>2026-04-09T13:38:45.889Z</time></trkpt><trkpt lat="44.3753117" lon="11.255"><ele>170.0</ele><time>2026-04-09T13:38:46.889Z</time></trkpt><trkpt lat="44.375225" lon="11.2550533"><ele>170.0</ele><time>2026-04-09T13:38:47.889Z</time></trkpt><trkpt lat="44.375145" lon="11.2551367"><ele>170.0</ele><time>2026-04-09T13:38:48.889Z</time></trkpt><trkpt lat="44.3750633" lon="11.2552333"><ele>170.0</ele><time>2026-04-09T13:38:49.889Z</time></trkpt><trkpt lat="44.3749883" lon="11.2553533"><ele>170.0</ele><time>2026-04-09T13:38:50.888Z</time></trkpt><trkpt lat="44.3749417" lon="11.2555017"><ele>172.5</ele><time>2026-04-09T13:38:51.888Z</time></trkpt><trkpt lat="44.37492" lon="11.2556633"><ele>175.0</ele><time>2026-04-09T13:38:52.888Z</time></trkpt><trkpt lat="44.37491" lon="11.2558267"><ele>177.5</ele><time>2026-04-09T13:38:53.888Z</time></trkpt><trkpt lat="44.3749117" lon="11.255995"><ele>180.0</ele><time>2026-04-09T13:38:54.888Z</time></trkpt><trkpt lat="44.3748967" lon="11.2561433"><ele>180.0</ele><time>2026-04-09T13:38:55.888Z</time></trkpt><trkpt lat="44.374815" lon="11.2564217"><ele>180.0</ele><time>2026-04-09T13:38:57.889Z</time></trkpt><trkpt lat="44.3747433" lon="11.256515"><ele>180.0</ele><time>2026-04-09T13:38:58.888Z</time></trkpt><trkpt lat="44.37468" lon="11.2565867"><ele>180.0</ele><time>2026-04-09T13:38:59.888Z</time></trkpt><trkpt lat="44.3746367" lon="11.2567217"><ele>182.4</ele><time>2026-04-09T13:39:01.888Z</time></trkpt><trkpt lat="44.3747067" lon="11.2568117"><ele>184.8</ele><time>2026-04-09T13:39:03.888Z</time></trkpt><trkpt lat="44.3747867" lon="11.2567967"><ele>187.2</ele><time>2026-04-09T13:39:04.888Z</time></trkpt><trkpt lat="44.3748767" lon="11.2567317"><ele>189.6</ele><time>2026-04-09T13:39:05.889Z</time></trkpt><trkpt lat="44.3749633" lon="11.2566383"><ele>192.0</ele><time>2026-04-09T13:39:06.889Z</time></trkpt><trkpt lat="44.3750467" lon="11.2565317"><ele>192.0</ele><time>2026-04-09T13:39:07.889Z</time></trkpt><trkpt lat="44.3751233" lon="11.25643"><ele>192.0</ele><time>2026-04-09T13:39:08.888Z</time></trkpt><trkpt lat="44.3751867" lon="11.256365"><ele>192.0</ele><time>2026-04-09T13:39:09.889Z</time></trkpt><trkpt lat="44.3752833" lon="11.2563683"><ele>192.0</ele><time>2026-04-09T13:39:11.888Z</time></trkpt><trkpt lat="44.3752933" lon="11.2565133"><ele>192.0</ele><time>2026-04-09T13:39:13.888Z</time></trkpt><trkpt lat="44.3752583" lon="11.2565967"><ele>192.0</ele><time>2026-04-09T13:39:14.888Z</time></trkpt><trkpt lat="44.3752017" lon="11.256685"><ele>192.0</ele><time>2026-04-09T13:39:15.888Z</time></trkpt><trkpt lat="44.37513" lon="11.256785"><ele>192.0</ele><time>2026-04-09T13:39:16.888Z</time></trkpt><trkpt lat="44.3750417" lon="11.2570517"><ele>192.0</ele><time>2026-04-09T13:39:18.888Z</time></trkpt><trkpt lat="44.3750117" lon="11.2572117"><ele>194.25</ele><time>2026-04-09T13:39:19.888Z</time></trkpt><trkpt lat="44.374985" lon="11.2573883"><ele>196.5</ele><time>2026-04-09T13:39:20.888Z</time></trkpt><trkpt lat="44.3749533" lon="11.2575617"><ele>198.75</ele><time>2026-04-09T13:39:21.888Z</time></trkpt><trkpt lat="44.374905" lon="11.257735"><ele>201.0</ele><time>2026-04-09T13:39:22.888Z</time></trkpt><trkpt lat="44.3748433" lon="11.257905"><ele>201.0</ele><time>2026-04-09T13:39:23.888Z</time></trkpt><trkpt lat="44.3747783" lon="11.2580733"><ele>201.0</ele><time>2026-04-09T13:39:24.888Z</time></trkpt><trkpt lat="44.3747167" lon="11.25823"><ele>201.0</ele><time>2026-04-09T13:39:25.888Z</time></trkpt><trkpt lat="44.3746667" lon="11.2583667"><ele>201.0</ele><time>2026-04-09T13:39:26.888Z</time></trkpt><trkpt lat="44.3746017" lon="11.2584733"><ele>199.83333333333334</ele><time>2026-04-09T13:39:27.888Z</time></trkpt><trkpt lat="44.37453" lon="11.25855"><ele>198.66666666666669</ele><time>2026-04-09T13:39:28.888Z</time></trkpt><trkpt lat="44.37447" lon="11.25861"><ele>197.5</ele><time>2026-04-09T13:39:29.888Z</time></trkpt><trkpt lat="44.3744183" lon="11.258665"><ele>196.33333333333334</ele><time>2026-04-09T13:39:30.888Z</time></trkpt><trkpt lat="44.3743917" lon="11.2587983"><ele>195.16666666666669</ele><time>2026-04-09T13:39:32.888Z</time></trkpt><trkpt lat="44.3744933" lon="11.258875"><ele>194.0</ele><time>2026-04-09T13:39:34.888Z</time></trkpt><trkpt lat="44.37458" lon="11.25886"><ele>194.0</ele><time>2026-04-09T13:39:35.888Z</time></trkpt><trkpt lat="44.3746817" lon="11.2588217"><ele>194.0</ele><time>2026-04-09T13:39:36.888Z</time></trkpt><trkpt lat="44.3747967" lon="11.258775"><ele>194.0</ele><time>2026-04-09T13:39:37.888Z</time></trkpt><trkpt lat="44.3750317" lon="11.2587033"><ele>196.16666666666669</ele><time>2026-04-09T13:39:39.888Z</time></trkpt><trkpt lat="44.3751367" lon="11.258665"><ele>198.33333333333334</ele><time>2026-04-09T13:39:40.889Z</time></trkpt><trkpt lat="44.3752283" lon="11.2586317"><ele>200.5</ele><time>2026-04-09T13:39:41.888Z</time></trkpt><trkpt lat="44.37531" lon="11.25861"><ele>202.66666666666669</ele><time>2026-04-09T13:39:42.889Z</time></trkpt><trkpt lat="44.3753767" lon="11.2586067"><ele>204.83333333333334</ele><time>2026-04-09T13:39:43.888Z</time></trkpt><trkpt lat="44.3754567" lon="11.2586767"><ele>207.0</ele><time>2026-04-09T13:39:45.888Z</time></trkpt><trkpt lat="44.3754333" lon="11.2588183"><ele>207.0</ele><time>2026-04-09T13:39:47.888Z</time></trkpt><trkpt lat="44.375375" lon="11.2588883"><ele>207.0</ele><time>2026-04-09T13:39:48.888Z</time></trkpt><trkpt lat="44.3753017" lon="11.25895"><ele>207.0</ele><time>2026-04-09T13:39:49.888Z</time></trkpt><trkpt lat="44.37521" lon="11.2590117"><ele>207.0</ele><time>2026-04-09T13:39:50.888Z</time></trkpt><trkpt lat="44.3751233" lon="11.2590833"><ele>207.0</ele><time>2026-04-09T13:39:51.889Z</time></trkpt><trkpt lat="44.3750433" lon="11.2591517"><ele>210.0</ele><time>2026-04-09T13:39:52.888Z</time></trkpt><trkpt lat="44.37497" lon="11.2592267"><ele>213.0</ele><time>2026-04-09T13:39:53.888Z</time></trkpt><trkpt lat="44.3749267" lon="11.25933"><ele>216.0</ele><time>2026-04-09T13:39:54.888Z</time></trkpt><trkpt lat="44.3749083" lon="11.2594417"><ele>219.0</ele><time>2026-04-09T13:39:55.888Z</time></trkpt><trkpt lat="44.3749167" lon="11.2595733"><ele>222.0</ele><time>2026-04-09T13:39:56.888Z</time></trkpt><trkpt lat="44.374935" lon="11.2597167"><ele>224.5</ele><time>2026-04-09T13:39:57.888Z</time></trkpt><trkpt lat="44.37495" lon="11.2598633"><ele>227.0</ele><time>2026-04-09T13:39:58.888Z</time></trkpt><trkpt lat="44.37495" lon="11.2601533"><ele>229.5</ele><time>2026-04-09T13:40:00.888Z</time></trkpt><trkpt lat="44.374925" lon="11.2602883"><ele>232.0</ele><time>2026-04-09T13:40:01.888Z</time></trkpt><trkpt lat="44.3748783" lon="11.2604117"><ele>232.0</ele><time>2026-04-09T13:40:02.888Z</time></trkpt><trkpt lat="44.374815" lon="11.2605183"><ele>232.0</ele><time>2026-04-09T13:40:03.888Z</time></trkpt><trkpt lat="44.3747283" lon="11.260615"><ele>232.0</ele><time>2026-04-09T13:40:04.888Z</time></trkpt><trkpt lat="44.3746383" lon="11.260715"><ele>232.0</ele><time>2026-04-09T13:40:05.888Z</time></trkpt><trkpt lat="44.3745483" lon="11.260815"><ele>232.0</ele><time>2026-04-09T13:40:06.888Z</time></trkpt><trkpt lat="44.37446" lon="11.2609267"><ele>231.75</ele><time>2026-04-09T13:40:07.889Z</time></trkpt><trkpt lat="44.374375" lon="11.2610433"><ele>231.5</ele><time>2026-04-09T13:40:08.888Z</time></trkpt><trkpt lat="44.3742933" lon="11.261165"><ele>231.25</ele><time>2026-04-09T13:40:09.889Z</time></trkpt><trkpt lat="44.3742167" lon="11.2612933"><ele>231.0</ele><time>2026-04-09T13:40:10.889Z</time></trkpt><trkpt lat="44.3741317" lon="11.2614217"><ele>228.8</ele><time>2026-04-09T13:40:11.888Z</time></trkpt><trkpt lat="44.3740567" lon="11.261555"><ele>226.60000000000002</ele><time>2026-04-09T13:40:12.888Z</time></trkpt><trkpt lat="44.37398" lon="11.2616733"><ele>224.4</ele><time>2026-04-09T13:40:13.888Z</time></trkpt><trkpt lat="44.3739067" lon="11.2617833"><ele>222.2</ele><time>2026-04-09T13:40:14.888Z</time></trkpt><trkpt lat="44.3738283" lon="11.2618833"><ele>220.0</ele><time>2026-04-09T13:40:15.888Z</time></trkpt><trkpt lat="44.37375" lon="11.26198"><ele>220.0</ele><time>2026-04-09T13:40:16.888Z</time></trkpt><trkpt lat="44.37369" lon="11.2620867"><ele>220.0</ele><time>2026-04-09T13:40:17.888Z</time></trkpt><trkpt lat="44.37366" lon="11.2622017"><ele>220.0</ele><time>2026-04-09T13:40:18.889Z</time></trkpt><trkpt lat="44.3736583" lon="11.2623267"><ele>220.0</ele><time>2026-04-09T13:40:19.888Z</time></trkpt><trkpt lat="44.3737083" lon="11.262625"><ele>220.25</ele><time>2026-04-09T13:40:21.888Z</time></trkpt><trkpt lat="44.3737433" lon="11.2627833"><ele>220.5</ele><time>2026-04-09T13:40:22.889Z</time></trkpt><trkpt lat="44.3737883" lon="11.26295"><ele>220.75</ele><time>2026-04-09T13:40:23.888Z</time></trkpt><trkpt lat="44.37384" lon="11.26312"><ele>221.0</ele><time>2026-04-09T13:40:24.888Z</time></trkpt><trkpt lat="44.3738983" lon="11.263295"><ele>225.0</ele><time>2026-04-09T13:40:25.888Z</time></trkpt><trkpt lat="44.373965" lon="11.2634667"><ele>229.0</ele><time>2026-04-09T13:40:26.889Z</time></trkpt><trkpt lat="44.3740333" lon="11.26365"><ele>233.0</ele><time>2026-04-09T13:40:27.888Z</time></trkpt><trkpt lat="44.3741" lon="11.2638217"><ele>237.0</ele><time>2026-04-09T13:40:28.889Z</time></trkpt><trkpt lat="44.3741633" lon="11.2639917"><ele>237.0</ele><time>2026-04-09T13:40:29.889Z</time></trkpt><trkpt lat="44.374235" lon="11.2641383"><ele>237.0</ele><time>2026-04-09T13:40:30.889Z</time></trkpt><trkpt lat="44.3743033" lon="11.264275"><ele>237.0</ele><time>2026-04-09T13:40:31.888Z</time></trkpt><trkpt lat="44.3743667" lon="11.264395"><ele>237.0</ele><time>2026-04-09T13:40:32.888Z</time></trkpt><trkpt lat="44.3744167" lon="11.2645483"><ele>237.0</ele><time>2026-04-09T13:40:33.888Z</time></trkpt><trkpt lat="44.37446" lon="11.2647233"><ele>237.0</ele><time>2026-04-09T13:40:34.888Z</time></trkpt><trkpt lat="44.3744983" lon="11.2648983"><ele>237.0</ele><time>2026-04-09T13:40:35.888Z</time></trkpt><trkpt lat="44.3745283" lon="11.2650767"><ele>237.0</ele><time>2026-04-09T13:40:36.888Z</time></trkpt><trkpt lat="44.374555" lon="11.2652633"><ele>236.0</ele><time>2026-04-09T13:40:37.888Z</time></trkpt><trkpt lat="44.37457" lon="11.2654517"><ele>235.0</ele><time>2026-04-09T13:40:38.888Z</time></trkpt><trkpt lat="44.3745733" lon="11.2656433"><ele>234.0</ele><time>2026-04-09T13:40:39.889Z</time></trkpt><trkpt lat="44.37456" lon="11.2658433"><ele>233.0</ele><time>2026-04-09T13:40:40.888Z</time></trkpt><trkpt lat="44.3744833" lon="11.2662567"><ele>233.5</ele><time>2026-04-09T13:40:42.888Z</time></trkpt><trkpt lat="44.374435" lon="11.2664533"><ele>234.0</ele><time>2026-04-09T13:40:43.888Z</time></trkpt><trkpt lat="44.3743917" lon="11.266645"><ele>234.5</ele><time>2026-04-09T13:40:44.888Z</time></trkpt><trkpt lat="44.3743483" lon="11.2668217"><ele>235.0</ele><time>2026-04-09T13:40:45.888Z</time></trkpt><trkpt lat="44.3743017" lon="11.26699"><ele>235.0</ele><time>2026-04-09T13:40:46.888Z</time></trkpt><trkpt lat="44.3742567" lon="11.2671417"><ele>235.0</ele><time>2026-04-09T13:40:47.888Z</time></trkpt><trkpt lat="44.3742083" lon="11.2673033"><ele>235.0</ele><time>2026-04-09T13:40:48.888Z</time></trkpt><trkpt lat="44.37417" lon="11.2674733"><ele>235.0</ele><time>2026-04-09T13:40:49.888Z</time></trkpt><trkpt lat="44.3741383" lon="11.2676517"><ele>237.5</ele><time>2026-04-09T13:40:50.888Z</time></trkpt><trkpt lat="44.3741183" lon="11.2678533"><ele>240.0</ele><time>2026-04-09T13:40:51.888Z</time></trkpt><trkpt lat="44.3740917" lon="11.2680433"><ele>242.5</ele><time>2026-04-09T13:40:52.888Z</time></trkpt><trkpt lat="44.374065" lon="11.2682233"><ele>245.0</ele><time>2026-04-09T13:40:53.888Z</time></trkpt><trkpt lat="44.3740267" lon="11.2683867"><ele>247.25</ele><time>2026-04-09T13:40:54.888Z</time></trkpt><trkpt lat="44.37397" lon="11.2685367"><ele>249.5</ele><time>2026-04-09T13:40:55.888Z</time></trkpt><trkpt lat="44.3738967" lon="11.268685"><ele>251.75</ele><time>2026-04-09T13:40:56.888Z</time></trkpt><trkpt lat="44.3738117" lon="11.2688283"><ele>254.0</ele><time>2026-04-09T13:40:57.888Z</time></trkpt><trkpt lat="44.373725" lon="11.2689617"><ele>248.5</ele><time>2026-04-09T13:40:58.889Z</time></trkpt><trkpt lat="44.373625" lon="11.2690833"><ele>243.0</ele><time>2026-04-09T13:40:59.889Z</time></trkpt><trkpt lat="44.373525" lon="11.2692"><ele>237.5</ele><time>2026-04-09T13:41:00.889Z</time></trkpt><trkpt lat="44.37343" lon="11.2693367"><ele>232.0</ele><time>2026-04-09T13:41:01.888Z</time></trkpt><trkpt lat="44.373245" lon="11.269675"><ele>230.0</ele><time>2026-04-09T13:41:03.888Z</time></trkpt><trkpt lat="44.3731583" lon="11.2698417"><ele>228.0</ele><time>2026-04-09T13:41:04.888Z</time></trkpt><trkpt lat="44.3730683" lon="11.2700033"><ele>226.0</ele><time>2026-04-09T13:41:05.888Z</time></trkpt><trkpt lat="44.3729867" lon="11.2701467"><ele>224.0</ele><time>2026-04-09T13:41:06.888Z</time></trkpt><trkpt lat="44.37289" lon="11.2702767"><ele>224.0</ele><time>2026-04-09T13:41:07.888Z</time></trkpt><trkpt lat="44.3727717" lon="11.270405"><ele>224.0</ele><time>2026-04-09T13:41:08.888Z</time></trkpt><trkpt lat="44.3726417" lon="11.27053"><ele>224.0</ele><time>2026-04-09T13:41:09.888Z</time></trkpt><trkpt lat="44.372515" lon="11.270655"><ele>228.33333333333334</ele><time>2026-04-09T13:41:10.888Z</time></trkpt><trkpt lat="44.3724067" lon="11.27081"><ele>232.66666666666669</ele><time>2026-04-09T13:41:11.888Z</time></trkpt><trkpt lat="44.3723" lon="11.2709717"><ele>237.0</ele><time>2026-04-09T13:41:12.888Z</time></trkpt><trkpt lat="44.3721917" lon="11.2711383"><ele>234.66666666666669</ele><time>2026-04-09T13:41:13.888Z</time></trkpt><trkpt lat="44.3720917" lon="11.2713117"><ele>232.33333333333334</ele><time>2026-04-09T13:41:14.888Z</time></trkpt><trkpt lat="44.3720033" lon="11.271505"><ele>230.0</ele><time>2026-04-09T13:41:15.889Z</time></trkpt><trkpt lat="44.3719267" lon="11.271715"><ele>230.0</ele><time>2026-04-09T13:41:16.888Z</time></trkpt><trkpt lat="44.371855" lon="11.2719283"><ele>230.0</ele><time>2026-04-09T13:41:17.888Z</time></trkpt><trkpt lat="44.371795" lon="11.2721433"><ele>230.0</ele><time>2026-04-09T13:41:18.888Z</time></trkpt><trkpt lat="44.3717383" lon="11.272345"><ele>232.75</ele><time>2026-04-09T13:41:19.889Z</time></trkpt><trkpt lat="44.3716867" lon="11.27253"><ele>235.5</ele><time>2026-04-09T13:41:20.889Z</time></trkpt><trkpt lat="44.371635" lon="11.2727067"><ele>238.25</ele><time>2026-04-09T13:41:21.888Z</time></trkpt><trkpt lat="44.371595" lon="11.2728733"><ele>241.0</ele><time>2026-04-09T13:41:22.888Z</time></trkpt><trkpt lat="44.3715717" lon="11.2732133"><ele>243.8</ele><time>2026-04-09T13:41:24.888Z</time></trkpt><trkpt lat="44.3715683" lon="11.2733767"><ele>246.60000000000002</ele><time>2026-04-09T13:41:25.888Z</time></trkpt><trkpt lat="44.3715733" lon="11.2735283"><ele>249.4</ele><time>2026-04-09T13:41:26.888Z</time></trkpt><trkpt lat="44.3715683" lon="11.2736483"><ele>252.2</ele><time>2026-04-09T13:41:27.888Z</time></trkpt><trkpt lat="44.3715567" lon="11.2737667"><ele>255.0</ele><time>2026-04-09T13:41:28.888Z</time></trkpt><trkpt lat="44.3715317" lon="11.273855"><ele>255.0</ele><time>2026-04-09T13:41:29.888Z</time></trkpt><trkpt lat="44.3714883" lon="11.273925"><ele>255.0</ele><time>2026-04-09T13:41:30.888Z</time></trkpt><trkpt lat="44.3714333" lon="11.2739833"><ele>255.0</ele><time>2026-04-09T13:41:31.888Z</time></trkpt><trkpt lat="44.3713683" lon="11.2740317"><ele>255.0</ele><time>2026-04-09T13:41:32.888Z</time></trkpt><trkpt lat="44.37129" lon="11.274075"><ele>255.0</ele><time>2026-04-09T13:41:33.889Z</time></trkpt><trkpt lat="44.37119" lon="11.2741133"><ele>255.0</ele><time>2026-04-09T13:41:34.889Z</time></trkpt><trkpt lat="44.3710933" lon="11.2741317"><ele>253.0</ele><time>2026-04-09T13:41:35.888Z</time></trkpt><trkpt lat="44.3710083" lon="11.274105"><ele>251.0</ele><time>2026-04-09T13:41:36.888Z</time></trkpt><trkpt lat="44.370925" lon="11.2740283"><ele>249.0</ele><time>2026-04-09T13:41:37.888Z</time></trkpt><trkpt lat="44.3708483" lon="11.273915"><ele>247.0</ele><time>2026-04-09T13:41:38.888Z</time></trkpt><trkpt lat="44.3707717" lon="11.2737717"><ele>245.0</ele><time>2026-04-09T13:41:39.888Z</time></trkpt><trkpt lat="44.3706967" lon="11.2736183"><ele>245.0</ele><time>2026-04-09T13:41:40.889Z</time></trkpt><trkpt lat="44.3706133" lon="11.2734667"><ele>245.0</ele><time>2026-04-09T13:41:41.888Z</time></trkpt><trkpt lat="44.3705333" lon="11.2733217"><ele>245.0</ele><time>2026-04-09T13:41:42.888Z</time></trkpt><trkpt lat="44.3704733" lon="11.2731833"><ele>245.0</ele><time>2026-04-09T13:41:43.888Z</time></trkpt><trkpt lat="44.37039" lon="11.2729017"><ele>248.00000000000003</ele><time>2026-04-09T13:41:45.888Z</time></trkpt><trkpt lat="44.37037" lon="11.2727717"><ele>251.0</ele><time>2026-04-09T13:41:46.889Z</time></trkpt><trkpt lat="44.370355" lon="11.2726467"><ele>254.0</ele><time>2026-04-09T13:41:47.889Z</time></trkpt><trkpt lat="44.37033" lon="11.2725333"><ele>257.0</ele><time>2026-04-09T13:41:48.888Z</time></trkpt><trkpt lat="44.3702867" lon="11.272435"><ele>260.0</ele><time>2026-04-09T13:41:49.888Z</time></trkpt><trkpt lat="44.370215" lon="11.2723533"><ele>263.0</ele><time>2026-04-09T13:41:50.888Z</time></trkpt><trkpt lat="44.3701367" lon="11.272295"><ele>260.75</ele><time>2026-04-09T13:41:51.889Z</time></trkpt><trkpt lat="44.3700133" lon="11.2722333"><ele>258.5</ele><time>2026-04-09T13:41:52.888Z</time></trkpt><trkpt lat="44.3698817" lon="11.2721583"><ele>256.25</ele><time>2026-04-09T13:41:53.888Z</time></trkpt><trkpt lat="44.3697417" lon="11.27208"><ele>254.0</ele><time>2026-04-09T13:41:54.888Z</time></trkpt><trkpt lat="44.3696017" lon="11.2720167"><ele>254.0</ele><time>2026-04-09T13:41:55.888Z</time></trkpt><trkpt lat="44.3694683" lon="11.2719533"><ele>254.0</ele><time>2026-04-09T13:41:56.889Z</time></trkpt><trkpt lat="44.3693317" lon="11.2718933"><ele>254.0</ele><time>2026-04-09T13:41:57.888Z</time></trkpt><trkpt lat="44.3691983" lon="11.2718233"><ele>254.0</ele><time>2026-04-09T13:41:58.888Z</time></trkpt><trkpt lat="44.3690667" lon="11.2717367"><ele>254.0</ele><time>2026-04-09T13:41:59.888Z</time></trkpt><trkpt lat="44.3689367" lon="11.27164"><ele>254.0</ele><time>2026-04-09T13:42:00.888Z</time></trkpt><trkpt lat="44.3688167" lon="11.2715233"><ele>254.0</ele><time>2026-04-09T13:42:01.888Z</time></trkpt><trkpt lat="44.3686917" lon="11.27141"><ele>254.0</ele><time>2026-04-09T13:42:02.888Z</time></trkpt><trkpt lat="44.3685767" lon="11.2712983"><ele>253.0</ele><time>2026-04-09T13:42:03.889Z</time></trkpt><trkpt lat="44.3684667" lon="11.2711917"><ele>252.0</ele><time>2026-04-09T13:42:04.888Z</time></trkpt><trkpt lat="44.368265" lon="11.2709667"><ele>251.0</ele><time>2026-04-09T13:42:06.888Z</time></trkpt><trkpt lat="44.3681717" lon="11.27084"><ele>251.0</ele><time>2026-04-09T13:42:07.888Z</time></trkpt><trkpt lat="44.368075" lon="11.270725"><ele>251.0</ele><time>2026-04-09T13:42:08.888Z</time></trkpt><trkpt lat="44.3679767" lon="11.2706183"><ele>251.0</ele><time>2026-04-09T13:42:09.888Z</time></trkpt><trkpt lat="44.3678683" lon="11.2705217"><ele>251.0</ele><time>2026-04-09T13:42:10.889Z</time></trkpt><trkpt lat="44.36774" lon="11.2704433"><ele>251.5</ele><time>2026-04-09T13:42:11.888Z</time></trkpt><trkpt lat="44.3675967" lon="11.27037"><ele>252.0</ele><time>2026-04-09T13:42:12.888Z</time></trkpt><trkpt lat="44.3674633" lon="11.2702867"><ele>252.5</ele><time>2026-04-09T13:42:13.889Z</time></trkpt><trkpt lat="44.3673267" lon="11.2701983"><ele>253.0</ele><time>2026-04-09T13:42:14.888Z</time></trkpt><trkpt lat="44.3671867" lon="11.2701133"><ele>257.75</ele><time>2026-04-09T13:42:15.888Z</time></trkpt><trkpt lat="44.3670617" lon="11.2700317"><ele>262.5</ele><time>2026-04-09T13:42:16.889Z</time></trkpt><trkpt lat="44.3669583" lon="11.26996"><ele>267.25</ele><time>2026-04-09T13:42:17.888Z</time></trkpt><trkpt lat="44.3668583" lon="11.2698917"><ele>272.0</ele><time>2026-04-09T13:42:18.888Z</time></trkpt><trkpt lat="44.3667683" lon="11.2698117"><ele>269.4</ele><time>2026-04-09T13:42:19.888Z</time></trkpt><trkpt lat="44.3666967" lon="11.2697167"><ele>266.79999999999995</ele><time>2026-04-09T13:42:20.888Z</time></trkpt><trkpt lat="44.36664" lon="11.2696"><ele>264.2</ele><time>2026-04-09T13:42:21.888Z</time></trkpt><trkpt lat="44.3665883" lon="11.2694617"><ele>261.59999999999997</ele><time>2026-04-09T13:42:22.889Z</time></trkpt><trkpt lat="44.3665367" lon="11.2693283"><ele>259.0</ele><time>2026-04-09T13:42:23.888Z</time></trkpt><trkpt lat="44.3664867" lon="11.2692117"><ele>259.0</ele><time>2026-04-09T13:42:24.888Z</time></trkpt><trkpt lat="44.366435" lon="11.2691233"><ele>259.0</ele><time>2026-04-09T13:42:25.888Z</time></trkpt><trkpt lat="44.3663067" lon="11.2689767"><ele>259.0</ele><time>2026-04-09T13:42:27.888Z</time></trkpt><trkpt lat="44.3662133" lon="11.2689517"><ele>259.0</ele><time>2026-04-09T13:42:28.888Z</time></trkpt><trkpt lat="44.36612" lon="11.26896"><ele>259.0</ele><time>2026-04-09T13:42:29.888Z</time></trkpt><trkpt lat="44.3660233" lon="11.2690083"><ele>261.5</ele><time>2026-04-09T13:42:30.888Z</time></trkpt><trkpt lat="44.36592" lon="11.2690833"><ele>264.0</ele><time>2026-04-09T13:42:31.888Z</time></trkpt><trkpt lat="44.36581" lon="11.2691517"><ele>266.5</ele><time>2026-04-09T13:42:32.889Z</time></trkpt><trkpt lat="44.3656967" lon="11.2691983"><ele>269.0</ele><time>2026-04-09T13:42:33.888Z</time></trkpt><trkpt lat="44.3655867" lon="11.2692233"><ele>269.0</ele><time>2026-04-09T13:42:34.889Z</time></trkpt><trkpt lat="44.3654733" lon="11.269255"><ele>269.0</ele><time>2026-04-09T13:42:35.889Z</time></trkpt><trkpt lat="44.36536" lon="11.269305"><ele>269.0</ele><time>2026-04-09T13:42:36.888Z</time></trkpt><trkpt lat="44.3652383" lon="11.269385"><ele>269.0</ele><time>2026-04-09T13:42:37.888Z</time></trkpt><trkpt lat="44.3651233" lon="11.269465"><ele>269.0</ele><time>2026-04-09T13:42:38.889Z</time></trkpt><trkpt lat="44.3650083" lon="11.269555"><ele>269.0</ele><time>2026-04-09T13:42:39.888Z</time></trkpt><trkpt lat="44.3648967" lon="11.269635"><ele>269.0</ele><time>2026-04-09T13:42:40.888Z</time></trkpt><trkpt lat="44.3647933" lon="11.2697083"><ele>269.0</ele><time>2026-04-09T13:42:41.888Z</time></trkpt><trkpt lat="44.364705" lon="11.2697633"><ele>271.25</ele><time>2026-04-09T13:42:42.887Z</time></trkpt><trkpt lat="44.3646317" lon="11.26982"><ele>273.5</ele><time>2026-04-09T13:42:43.887Z</time></trkpt><trkpt lat="44.364575" lon="11.26988"><ele>275.75</ele><time>2026-04-09T13:42:44.887Z</time></trkpt><trkpt lat="44.3645517" lon="11.2700167"><ele>278.0</ele><time>2026-04-09T13:42:46.887Z</time></trkpt><trkpt lat="44.364745" lon="11.2701433"><ele>278.0</ele><time>2026-04-09T13:42:49.887Z</time></trkpt><trkpt lat="44.3648467" lon="11.2701483"><ele>278.0</ele><time>2026-04-09T13:42:50.888Z</time></trkpt><trkpt lat="44.36495" lon="11.2701533"><ele>278.0</ele><time>2026-04-09T13:42:51.888Z</time></trkpt><trkpt lat="44.3650617" lon="11.2701667"><ele>278.0</ele><time>2026-04-09T13:42:52.887Z</time></trkpt><trkpt lat="44.3651783" lon="11.2701817"><ele>278.0</ele><time>2026-04-09T13:42:53.887Z</time></trkpt><trkpt lat="44.3653033" lon="11.2702"><ele>278.0</ele><time>2026-04-09T13:42:54.888Z</time></trkpt><trkpt lat="44.3654283" lon="11.2702133"><ele>278.0</ele><time>2026-04-09T13:42:55.888Z</time></trkpt><trkpt lat="44.3655483" lon="11.2702167"><ele>278.0</ele><time>2026-04-09T13:42:56.887Z</time></trkpt><trkpt lat="44.3656533" lon="11.2702117"><ele>278.0</ele><time>2026-04-09T13:42:57.887Z</time></trkpt><trkpt lat="44.365745" lon="11.2702183"><ele>278.0</ele><time>2026-04-09T13:42:58.888Z</time></trkpt><trkpt lat="44.3658267" lon="11.2702283"><ele>279.2</ele><time>2026-04-09T13:42:59.887Z</time></trkpt><trkpt lat="44.3658933" lon="11.270255"><ele>280.4</ele><time>2026-04-09T13:43:00.887Z</time></trkpt><trkpt lat="44.365945" lon="11.27038"><ele>281.59999999999997</ele><time>2026-04-09T13:43:02.888Z</time></trkpt><trkpt lat="44.3658733" lon="11.2704833"><ele>282.8</ele><time>2026-04-09T13:43:04.888Z</time></trkpt><trkpt lat="44.3657867" lon="11.2705083"><ele>284.0</ele><time>2026-04-09T13:43:05.887Z</time></trkpt><trkpt lat="44.3656917" lon="11.2705183"><ele>284.0</ele><time>2026-04-09T13:43:06.887Z</time></trkpt><trkpt lat="44.3655817" lon="11.270535"><ele>284.0</ele><time>2026-04-09T13:43:07.888Z</time></trkpt><trkpt lat="44.3653333" lon="11.2706083"><ele>284.0</ele><time>2026-04-09T13:43:09.887Z</time></trkpt><trkpt lat="44.3652017" lon="11.2706517"><ele>287.0</ele><time>2026-04-09T13:43:10.887Z</time></trkpt><trkpt lat="44.3650817" lon="11.2706817"><ele>290.0</ele><time>2026-04-09T13:43:11.887Z</time></trkpt><trkpt lat="44.364955" lon="11.27072"><ele>293.0</ele><time>2026-04-09T13:43:12.887Z</time></trkpt><trkpt lat="44.364835" lon="11.2707567"><ele>296.0</ele><time>2026-04-09T13:43:13.887Z</time></trkpt><trkpt lat="44.3647167" lon="11.270775"><ele>297.25</ele><time>2026-04-09T13:43:14.888Z</time></trkpt><trkpt lat="44.3645983" lon="11.270765"><ele>298.5</ele><time>2026-04-09T13:43:15.888Z</time></trkpt><trkpt lat="44.3644817" lon="11.2707317"><ele>299.75</ele><time>2026-04-09T13:43:16.887Z</time></trkpt><trkpt lat="44.3643633" lon="11.2706783"><ele>301.0</ele><time>2026-04-09T13:43:17.887Z</time></trkpt><trkpt lat="44.3642583" lon="11.2706083"><ele>301.0</ele><time>2026-04-09T13:43:18.887Z</time></trkpt><trkpt lat="44.36417" lon="11.2705333"><ele>301.0</ele><time>2026-04-09T13:43:19.887Z</time></trkpt><trkpt lat="44.3640983" lon="11.270475"><ele>301.0</ele><time>2026-04-09T13:43:20.887Z</time></trkpt><trkpt lat="44.3640367" lon="11.2704433"><ele>301.0</ele><time>2026-04-09T13:43:21.887Z</time></trkpt><trkpt lat="44.3639383" lon="11.2704733"><ele>301.0</ele><time>2026-04-09T13:43:23.888Z</time></trkpt><trkpt lat="44.3639217" lon="11.2706183"><ele>301.0</ele><time>2026-04-09T13:43:25.887Z</time></trkpt><trkpt lat="44.3640083" lon="11.2707417"><ele>301.0</ele><time>2026-04-09T13:43:27.887Z</time></trkpt><trkpt lat="44.364095" lon="11.2707933"><ele>301.0</ele><time>2026-04-09T13:43:28.887Z</time></trkpt><trkpt lat="44.3643017" lon="11.2709033"><ele>301.0</ele><time>2026-04-09T13:43:30.887Z</time></trkpt><trkpt lat="44.3644117" lon="11.2709717"><ele>301.0</ele><time>2026-04-09T13:43:31.887Z</time></trkpt><trkpt lat="44.3645267" lon="11.271045"><ele>301.0</ele><time>2026-04-09T13:43:32.887Z</time></trkpt><trkpt lat="44.3646417" lon="11.27111"><ele>301.0</ele><time>2026-04-09T13:43:33.887Z</time></trkpt><trkpt lat="44.3647633" lon="11.2711717"><ele>301.0</ele><time>2026-04-09T13:43:34.887Z</time></trkpt><trkpt lat="44.3648767" lon="11.271235"><ele>299.75</ele><time>2026-04-09T13:43:35.887Z</time></trkpt><trkpt lat="44.36499" lon="11.271305"><ele>298.5</ele><time>2026-04-09T13:43:36.887Z</time></trkpt><trkpt lat="44.3650983" lon="11.2713733"><ele>297.25</ele><time>2026-04-09T13:43:37.888Z</time></trkpt><trkpt lat="44.365205" lon="11.271445"><ele>296.0</ele><time>2026-04-09T13:43:38.887Z</time></trkpt><trkpt lat="44.3653067" lon="11.2715033"><ele>299.0</ele><time>2026-04-09T13:43:39.887Z</time></trkpt><trkpt lat="44.365405" lon="11.2715467"><ele>302.0</ele><time>2026-04-09T13:43:40.887Z</time></trkpt><trkpt lat="44.36549" lon="11.2715767"><ele>305.0</ele><time>2026-04-09T13:43:41.887Z</time></trkpt><trkpt lat="44.365565" lon="11.2716017"><ele>308.0</ele><time>2026-04-09T13:43:42.887Z</time></trkpt><trkpt lat="44.3656283" lon="11.2716267"><ele>311.0</ele><time>2026-04-09T13:43:43.887Z</time></trkpt><trkpt lat="44.3657067" lon="11.2717283"><ele>314.0</ele><time>2026-04-09T13:43:45.888Z</time></trkpt><trkpt lat="44.3656883" lon="11.271875"><ele>314.0</ele><time>2026-04-09T13:43:47.887Z</time></trkpt><trkpt lat="44.3655833" lon="11.2719383"><ele>314.0</ele><time>2026-04-09T13:43:49.887Z</time></trkpt><trkpt lat="44.3653917" lon="11.2719083"><ele>314.0</ele><time>2026-04-09T13:43:51.888Z</time></trkpt><trkpt lat="44.3652867" lon="11.2719017"><ele>314.0</ele><time>2026-04-09T13:43:52.888Z</time></trkpt><trkpt lat="44.3651767" lon="11.2718783"><ele>315.0</ele><time>2026-04-09T13:43:53.887Z</time></trkpt><trkpt lat="44.3650583" lon="11.2718633"><ele>316.0</ele><time>2026-04-09T13:43:54.888Z</time></trkpt><trkpt lat="44.36494" lon="11.271835"><ele>317.0</ele><time>2026-04-09T13:43:55.887Z</time></trkpt><trkpt lat="44.364825" lon="11.271795"><ele>318.0</ele><time>2026-04-09T13:43:56.888Z</time></trkpt><trkpt lat="44.3647183" lon="11.2717533"><ele>318.2</ele><time>2026-04-09T13:43:57.887Z</time></trkpt><trkpt lat="44.3646183" lon="11.2717233"><ele>318.4</ele><time>2026-04-09T13:43:58.888Z</time></trkpt><trkpt lat="44.3645217" lon="11.2717083"><ele>318.59999999999997</ele><time>2026-04-09T13:43:59.888Z</time></trkpt><trkpt lat="44.3644217" lon="11.2717"><ele>318.8</ele><time>2026-04-09T13:44:00.887Z</time></trkpt><trkpt lat="44.36433" lon="11.2717167"><ele>319.0</ele><time>2026-04-09T13:44:01.887Z</time></trkpt><trkpt lat="44.3642417" lon="11.2717633"><ele>319.0</ele><time>2026-04-09T13:44:02.887Z</time></trkpt><trkpt lat="44.36417" lon="11.2718467"><ele>319.0</ele><time>2026-04-09T13:44:03.887Z</time></trkpt><trkpt lat="44.36411" lon="11.2719483"><ele>319.0</ele><time>2026-04-09T13:44:04.887Z</time></trkpt><trkpt lat="44.3640583" lon="11.2720467"><ele>319.0</ele><time>2026-04-09T13:44:05.887Z</time></trkpt><trkpt lat="44.3640217" lon="11.2721417"><ele>319.0</ele><time>2026-04-09T13:44:06.887Z</time></trkpt><trkpt lat="44.3640167" lon="11.27223"><ele>319.0</ele><time>2026-04-09T13:44:07.887Z</time></trkpt><trkpt lat="44.36407" lon="11.2723433"><ele>319.0</ele><time>2026-04-09T13:44:09.887Z</time></trkpt><trkpt lat="44.3641383" lon="11.2723317"><ele>319.0</ele><time>2026-04-09T13:44:10.887Z</time></trkpt><trkpt lat="44.3642467" lon="11.2722117"><ele>319.0</ele><time>2026-04-09T13:44:12.887Z</time></trkpt><trkpt lat="44.3642917" lon="11.272125"><ele>319.0</ele><time>2026-04-09T13:44:13.888Z</time></trkpt><trkpt lat="44.364345" lon="11.2720467"><ele>319.0</ele><time>2026-04-09T13:44:14.887Z</time></trkpt><trkpt lat="44.36446" lon="11.27201"><ele>319.0</ele><time>2026-04-09T13:44:16.887Z</time></trkpt><trkpt lat="44.36454" lon="11.2720433"><ele>319.0</ele><time>2026-04-09T13:44:17.887Z</time></trkpt><trkpt lat="44.3646333" lon="11.2720833"><ele>319.0</ele><time>2026-04-09T13:44:18.887Z</time></trkpt><trkpt lat="44.364735" lon="11.272145"><ele>319.0</ele><time>2026-04-09T13:44:19.887Z</time></trkpt><trkpt lat="44.364835" lon="11.2721983"><ele>319.0</ele><time>2026-04-09T13:44:20.887Z</time></trkpt><trkpt lat="44.364945" lon="11.2722583"><ele>325.0</ele><time>2026-04-09T13:44:21.888Z</time></trkpt><trkpt lat="44.365065" lon="11.2723217"><ele>331.0</ele><time>2026-04-09T13:44:22.887Z</time></trkpt><trkpt lat="44.3651783" lon="11.27238"><ele>337.0</ele><time>2026-04-09T13:44:23.887Z</time></trkpt><trkpt lat="44.3652817" lon="11.2724233"><ele>343.0</ele><time>2026-04-09T13:44:24.887Z</time></trkpt><trkpt lat="44.365375" lon="11.272445"><ele>343.0</ele><time>2026-04-09T13:44:25.888Z</time></trkpt><trkpt lat="44.36546" lon="11.2724567"><ele>343.0</ele><time>2026-04-09T13:44:26.887Z</time></trkpt><trkpt lat="44.365545" lon="11.2724567"><ele>343.0</ele><time>2026-04-09T13:44:27.887Z</time></trkpt><trkpt lat="44.365615" lon="11.27246"><ele>343.0</ele><time>2026-04-09T13:44:28.887Z</time></trkpt><trkpt lat="44.3657183" lon="11.2725317"><ele>343.0</ele><time>2026-04-09T13:44:30.888Z</time></trkpt><trkpt lat="44.3657067" lon="11.2726817"><ele>343.0</ele><time>2026-04-09T13:44:32.888Z</time></trkpt><trkpt lat="44.36551" lon="11.27277"><ele>343.0</ele><time>2026-04-09T13:44:35.887Z</time></trkpt><trkpt lat="44.3654033" lon="11.27274"><ele>343.0</ele><time>2026-04-09T13:44:36.887Z</time></trkpt><trkpt lat="44.3652833" lon="11.2727067"><ele>343.0</ele><time>2026-04-09T13:44:37.887Z</time></trkpt><trkpt lat="44.3651583" lon="11.2726717"><ele>343.0</ele><time>2026-04-09T13:44:38.887Z</time></trkpt><trkpt lat="44.365045" lon="11.2726267"><ele>343.0</ele><time>2026-04-09T13:44:39.887Z</time></trkpt><trkpt lat="44.3649433" lon="11.2725933"><ele>343.0</ele><time>2026-04-09T13:44:40.887Z</time></trkpt><trkpt lat="44.3648483" lon="11.2725717"><ele>343.0</ele><time>2026-04-09T13:44:41.887Z</time></trkpt><trkpt lat="44.3647633" lon="11.2725633"><ele>343.0</ele><time>2026-04-09T13:44:42.887Z</time></trkpt><trkpt lat="44.36468" lon="11.2725833"><ele>341.25</ele><time>2026-04-09T13:44:43.887Z</time></trkpt><trkpt lat="44.36459" lon="11.2726417"><ele>339.5</ele><time>2026-04-09T13:44:44.887Z</time></trkpt><trkpt lat="44.3644967" lon="11.2727383"><ele>337.75</ele><time>2026-04-09T13:44:45.887Z</time></trkpt><trkpt lat="44.364415" lon="11.27287"><ele>336.0</ele><time>2026-04-09T13:44:46.887Z</time></trkpt><trkpt lat="44.36434" lon="11.273015"><ele>338.75</ele><time>2026-04-09T13:44:47.888Z</time></trkpt><trkpt lat="44.3642583" lon="11.273165"><ele>341.5</ele><time>2026-04-09T13:44:48.887Z</time></trkpt><trkpt lat="44.3641717" lon="11.2733167"><ele>344.25</ele><time>2026-04-09T13:44:49.887Z</time></trkpt><trkpt lat="44.36409" lon="11.273465"><ele>347.0</ele><time>2026-04-09T13:44:50.887Z</time></trkpt><trkpt lat="44.3640183" lon="11.2736067"><ele>347.0</ele><time>2026-04-09T13:44:51.887Z</time></trkpt><trkpt lat="44.3639467" lon="11.2737267"><ele>347.0</ele><time>2026-04-09T13:44:52.887Z</time></trkpt><trkpt lat="44.3638683" lon="11.2738267"><ele>347.0</ele><time>2026-04-09T13:44:53.887Z</time></trkpt><trkpt lat="44.3636717" lon="11.273985"><ele>347.0</ele><time>2026-04-09T13:44:55.888Z</time></trkpt><trkpt lat="44.3635567" lon="11.2740483"><ele>348.20000000000005</ele><time>2026-04-09T13:44:56.887Z</time></trkpt><trkpt lat="44.363445" lon="11.27411"><ele>349.4</ele><time>2026-04-09T13:44:57.887Z</time></trkpt><trkpt lat="44.3633517" lon="11.27416"><ele>350.6</ele><time>2026-04-09T13:44:58.887Z</time></trkpt><trkpt lat="44.3632667" lon="11.2742133"><ele>351.79999999999995</ele><time>2026-04-09T13:44:59.887Z</time></trkpt><trkpt lat="44.3632033" lon="11.2743"><ele>353.0</ele><time>2026-04-09T13:45:00.887Z</time></trkpt><trkpt lat="44.3631633" lon="11.2744083"><ele>353.0</ele><time>2026-04-09T13:45:01.888Z</time></trkpt><trkpt lat="44.363145" lon="11.2745433"><ele>353.0</ele><time>2026-04-09T13:45:02.887Z</time></trkpt><trkpt lat="44.36313" lon="11.2746933"><ele>353.0</ele><time>2026-04-09T13:45:03.887Z</time></trkpt><trkpt lat="44.363115" lon="11.2748333"><ele>353.0</ele><time>2026-04-09T13:45:04.887Z</time></trkpt><trkpt lat="44.36309" lon="11.2749617"><ele>353.0</ele><time>2026-04-09T13:45:05.888Z</time></trkpt><trkpt lat="44.36305" lon="11.2750783"><ele>351.79999999999995</ele><time>2026-04-09T13:45:06.887Z</time></trkpt><trkpt lat="44.3629983" lon="11.2752"><ele>350.6</ele><time>2026-04-09T13:45:07.888Z</time></trkpt><trkpt lat="44.3629317" lon="11.2753167"><ele>349.4</ele><time>2026-04-09T13:45:08.887Z</time></trkpt><trkpt lat="44.362855" lon="11.27543"><ele>348.20000000000005</ele><time>2026-04-09T13:45:09.887Z</time></trkpt><trkpt lat="44.36278" lon="11.2755533"><ele>347.0</ele><time>2026-04-09T13:45:10.887Z</time></trkpt><trkpt lat="44.3627133" lon="11.2756733"><ele>350.75</ele><time>2026-04-09T13:45:11.887Z</time></trkpt><trkpt lat="44.3626517" lon="11.2757933"><ele>354.5</ele><time>2026-04-09T13:45:12.887Z</time></trkpt><trkpt lat="44.362595" lon="11.2759017"><ele>358.25</ele><time>2026-04-09T13:45:13.888Z</time></trkpt><trkpt lat="44.3625417" lon="11.2760033"><ele>362.0</ele><time>2026-04-09T13:45:14.887Z</time></trkpt><trkpt lat="44.362435" lon="11.2762"><ele>362.0</ele><time>2026-04-09T13:45:16.887Z</time></trkpt><trkpt lat="44.3623617" lon="11.2762833"><ele>362.0</ele><time>2026-04-09T13:45:17.887Z</time></trkpt><trkpt lat="44.3622733" lon="11.276365"><ele>362.0</ele><time>2026-04-09T13:45:18.887Z</time></trkpt><trkpt lat="44.36219" lon="11.27645"><ele>362.0</ele><time>2026-04-09T13:45:19.888Z</time></trkpt><trkpt lat="44.3620983" lon="11.2765283"><ele>362.0</ele><time>2026-04-09T13:45:20.887Z</time></trkpt><trkpt lat="44.3620183" lon="11.276625"><ele>362.8</ele><time>2026-04-09T13:45:21.887Z</time></trkpt><trkpt lat="44.3619367" lon="11.27671"><ele>363.6</ele><time>2026-04-09T13:45:22.887Z</time></trkpt><trkpt lat="44.361865" lon="11.2768017"><ele>364.40000000000003</ele><time>2026-04-09T13:45:23.887Z</time></trkpt><trkpt lat="44.3617983" lon="11.2769017"><ele>365.20000000000005</ele><time>2026-04-09T13:45:24.887Z</time></trkpt><trkpt lat="44.3617433" lon="11.2769883"><ele>366.0</ele><time>2026-04-09T13:45:25.887Z</time></trkpt><trkpt lat="44.361695" lon="11.2770683"><ele>366.0</ele><time>2026-04-09T13:45:26.887Z</time></trkpt><trkpt lat="44.3616517" lon="11.2771417"><ele>366.0</ele><time>2026-04-09T13:45:27.887Z</time></trkpt><trkpt lat="44.3616183" lon="11.2772217"><ele>366.0</ele><time>2026-04-09T13:45:28.887Z</time></trkpt><trkpt lat="44.361555" lon="11.2773517"><ele>366.0</ele><time>2026-04-09T13:45:30.887Z</time></trkpt><trkpt lat="44.3614883" lon="11.2774933"><ele>366.0</ele><time>2026-04-09T13:45:32.887Z</time></trkpt><trkpt lat="44.3614483" lon="11.2775633"><ele>366.0</ele><time>2026-04-09T13:45:33.887Z</time></trkpt><trkpt lat="44.361405" lon="11.2776317"><ele>367.8333333333333</ele><time>2026-04-09T13:45:34.887Z</time></trkpt><trkpt lat="44.36136" lon="11.2777083"><ele>369.6666666666667</ele><time>2026-04-09T13:45:35.887Z</time></trkpt><trkpt lat="44.3612617" lon="11.2778467"><ele>371.5</ele><time>2026-04-09T13:45:37.887Z</time></trkpt><trkpt lat="44.3612017" lon="11.27791"><ele>373.33333333333337</ele><time>2026-04-09T13:45:38.887Z</time></trkpt><trkpt lat="44.3611433" lon="11.2779683"><ele>375.1666666666667</ele><time>2026-04-09T13:45:39.887Z</time></trkpt><trkpt lat="44.3610783" lon="11.2780233"><ele>377.0</ele><time>2026-04-09T13:45:40.888Z</time></trkpt><trkpt lat="44.3610133" lon="11.278065"><ele>377.33333333333337</ele><time>2026-04-09T13:45:41.887Z</time></trkpt><trkpt lat="44.3609503" lon="11.2781145"><ele>377.6666666666667</ele><time>2026-04-09T13:45:42.888Z</time></trkpt><trkpt lat="44.3608827" lon="11.278153"><ele>378.0</ele><time>2026-04-09T13:45:43.887Z</time></trkpt><trkpt lat="44.3608019" lon="11.2781835"><ele>378.3333333333333</ele><time>2026-04-09T13:45:44.887Z</time></trkpt><trkpt lat="44.3607227" lon="11.2781964"><ele>378.66666666666663</ele><time>2026-04-09T13:45:45.888Z</time></trkpt><trkpt lat="44.3606388" lon="11.2782027"><ele>379.0</ele><time>2026-04-09T13:45:46.887Z</time></trkpt><trkpt lat="44.3605618" lon="11.2782017"><ele>380.0</ele><time>2026-04-09T13:45:47.888Z</time></trkpt><trkpt lat="44.3604781" lon="11.2781926"><ele>381.0</ele><time>2026-04-09T13:45:48.887Z</time></trkpt><trkpt lat="44.3603973" lon="11.278178"><ele>382.0</ele><time>2026-04-09T13:45:49.888Z</time></trkpt><trkpt lat="44.3603138" lon="11.2781602"><ele>383.0</ele><time>2026-04-09T13:45:50.887Z</time></trkpt><trkpt lat="44.3602302" lon="11.2781282"><ele>384.00000000000006</ele><time>2026-04-09T13:45:51.887Z</time></trkpt><trkpt lat="44.3601515" lon="11.2780896"><ele>385.0</ele><time>2026-04-09T13:45:52.887Z</time></trkpt><trkpt lat="44.3600715" lon="11.2780564"><ele>383.4</ele><time>2026-04-09T13:45:53.887Z</time></trkpt><trkpt lat="44.3600003" lon="11.2780325"><ele>381.8</ele><time>2026-04-09T13:45:54.887Z</time></trkpt><trkpt lat="44.3599353" lon="11.2780301"><ele>380.20000000000005</ele><time>2026-04-09T13:45:55.887Z</time></trkpt><trkpt lat="44.3598699" lon="11.2780445"><ele>378.6</ele><time>2026-04-09T13:45:56.888Z</time></trkpt><trkpt lat="44.3596505" lon="11.2781777"><ele>377.0</ele><time>2026-04-09T13:46:00.887Z</time></trkpt><trkpt lat="44.3595655" lon="11.2781987"><ele>377.0</ele><time>2026-04-09T13:46:02.888Z</time></trkpt><trkpt lat="44.3594917" lon="11.2782233"><ele>377.0</ele><time>2026-04-09T13:46:05.887Z</time></trkpt><trkpt lat="44.3595183" lon="11.2783267"><ele>377.0</ele><time>2026-04-09T13:46:09.887Z</time></trkpt><trkpt lat="44.3596033" lon="11.2782767"><ele>377.0</ele><time>2026-04-09T13:46:12.887Z</time></trkpt><trkpt lat="44.3597167" lon="11.2781617"><ele>377.0</ele><time>2026-04-09T13:46:14.888Z</time></trkpt><trkpt lat="44.3597833" lon="11.278105"><ele>376.20000000000005</ele><time>2026-04-09T13:46:15.887Z</time></trkpt><trkpt lat="44.3598467" lon="11.2780567"><ele>375.4</ele><time>2026-04-09T13:46:16.887Z</time></trkpt><trkpt lat="44.3599633" lon="11.2780517"><ele>374.6</ele><time>2026-04-09T13:46:18.887Z</time></trkpt><trkpt lat="44.3601417" lon="11.2781167"><ele>373.79999999999995</ele><time>2026-04-09T13:46:21.887Z</time></trkpt><trkpt lat="44.3602133" lon="11.2781467"><ele>373.0</ele><time>2026-04-09T13:46:22.887Z</time></trkpt><trkpt lat="44.3602967" lon="11.2781817"><ele>374.2</ele><time>2026-04-09T13:46:23.887Z</time></trkpt><trkpt lat="44.3604017" lon="11.27821"><ele>375.4</ele><time>2026-04-09T13:46:24.887Z</time></trkpt><trkpt lat="44.3605083" lon="11.27823"><ele>376.59999999999997</ele><time>2026-04-09T13:46:25.887Z</time></trkpt><trkpt lat="44.3606167" lon="11.2782333"><ele>377.79999999999995</ele><time>2026-04-09T13:46:26.887Z</time></trkpt><trkpt lat="44.3607033" lon="11.2782417"><ele>379.0</ele><time>2026-04-09T13:46:27.887Z</time></trkpt><trkpt lat="44.36079" lon="11.278215"><ele>379.0</ele><time>2026-04-09T13:46:28.887Z</time></trkpt><trkpt lat="44.3608817" lon="11.2781983"><ele>379.0</ele><time>2026-04-09T13:46:29.887Z</time></trkpt><trkpt lat="44.3609717" lon="11.2781583"><ele>379.0</ele><time>2026-04-09T13:46:30.887Z</time></trkpt><trkpt lat="44.3610567" lon="11.2780983"><ele>379.0</ele><time>2026-04-09T13:46:31.887Z</time></trkpt><trkpt lat="44.3611383" lon="11.27802"><ele>379.0</ele><time>2026-04-09T13:46:32.888Z</time></trkpt><trkpt lat="44.3612167" lon="11.2779517"><ele>378.66666666666663</ele><time>2026-04-09T13:46:33.887Z</time></trkpt><trkpt lat="44.36129" lon="11.277865"><ele>378.3333333333333</ele><time>2026-04-09T13:46:34.887Z</time></trkpt><trkpt lat="44.36135" lon="11.2777783"><ele>378.0</ele><time>2026-04-09T13:46:35.888Z</time></trkpt><trkpt lat="44.361405" lon="11.27769"><ele>377.6666666666667</ele><time>2026-04-09T13:46:36.888Z</time></trkpt><trkpt lat="44.361455" lon="11.277615"><ele>377.33333333333337</ele><time>2026-04-09T13:46:37.887Z</time></trkpt><trkpt lat="44.3615183" lon="11.277515"><ele>377.0</ele><time>2026-04-09T13:46:39.886Z</time></trkpt><trkpt lat="44.3616667" lon="11.2774733"><ele>376.6666666666667</ele><time>2026-04-09T13:46:44.886Z</time></trkpt><trkpt lat="44.36175" lon="11.2774617"><ele>376.33333333333337</ele><time>2026-04-09T13:46:47.886Z</time></trkpt><trkpt lat="44.3618233" lon="11.2774417"><ele>376.0</ele><time>2026-04-09T13:46:50.887Z</time></trkpt><trkpt lat="44.3618917" lon="11.277395"><ele>375.6666666666667</ele><time>2026-04-09T13:46:52.886Z</time></trkpt><trkpt lat="44.36195" lon="11.2773317"><ele>375.3333333333333</ele><time>2026-04-09T13:46:54.886Z</time></trkpt><trkpt lat="44.3620033" lon="11.277255"><ele>375.0</ele><time>2026-04-09T13:46:56.886Z</time></trkpt><trkpt lat="44.3620517" lon="11.2771883"><ele>375.0</ele><time>2026-04-09T13:46:58.886Z</time></trkpt><trkpt lat="44.3621067" lon="11.2771333"><ele>375.0</ele><time>2026-04-09T13:47:00.887Z</time></trkpt><trkpt lat="44.3621983" lon="11.277"><ele>375.0</ele><time>2026-04-09T13:47:07.887Z</time></trkpt><trkpt lat="44.3621333" lon="11.2771483"><ele>375.0</ele><time>2026-04-09T13:56:32.884Z</time></trkpt><trkpt lat="44.361975" lon="11.2773067"><ele>375.0</ele><time>2026-04-09T13:56:36.885Z</time></trkpt><trkpt lat="44.3619" lon="11.2773767"><ele>375.0</ele><time>2026-04-09T13:56:38.884Z</time></trkpt><trkpt lat="44.3618283" lon="11.2774317"><ele>375.0</ele><time>2026-04-09T13:56:40.884Z</time></trkpt><trkpt lat="44.36176" lon="11.27747"><ele>375.0</ele><time>2026-04-09T13:56:42.884Z</time></trkpt><trkpt lat="44.3616883" lon="11.2774883"><ele>375.0</ele><time>2026-04-09T13:56:44.884Z</time></trkpt><trkpt lat="44.3616183" lon="11.27747"><ele>375.0</ele><time>2026-04-09T13:56:47.884Z</time></trkpt><trkpt lat="44.36159" lon="11.2773783"><ele>373.2</ele><time>2026-04-09T13:56:51.884Z</time></trkpt><trkpt lat="44.3616367" lon="11.2772667"><ele>371.4</ele><time>2026-04-09T13:56:53.884Z</time></trkpt><trkpt lat="44.36172" lon="11.2770967"><ele>369.6</ele><time>2026-04-09T13:56:55.884Z</time></trkpt><trkpt lat="44.3617767" lon="11.2769983"><ele>367.8</ele><time>2026-04-09T13:56:56.884Z</time></trkpt><trkpt lat="44.3618417" lon="11.27689"><ele>366.0</ele><time>2026-04-09T13:56:57.884Z</time></trkpt><trkpt lat="44.3619167" lon="11.2767783"><ele>366.0</ele><time>2026-04-09T13:56:58.884Z</time></trkpt><trkpt lat="44.362005" lon="11.2766717"><ele>366.0</ele><time>2026-04-09T13:56:59.884Z</time></trkpt><trkpt lat="44.3620983" lon="11.2765617"><ele>366.0</ele><time>2026-04-09T13:57:00.884Z</time></trkpt><trkpt lat="44.3622017" lon="11.2764533"><ele>366.0</ele><time>2026-04-09T13:57:01.885Z</time></trkpt><trkpt lat="44.362305" lon="11.276355"><ele>365.20000000000005</ele><time>2026-04-09T13:57:02.884Z</time></trkpt><trkpt lat="44.3624083" lon="11.2762717"><ele>364.40000000000003</ele><time>2026-04-09T13:57:03.884Z</time></trkpt><trkpt lat="44.3624967" lon="11.2762"><ele>363.6</ele><time>2026-04-09T13:57:04.884Z</time></trkpt><trkpt lat="44.3625683" lon="11.2761167"><ele>362.8</ele><time>2026-04-09T13:57:05.884Z</time></trkpt><trkpt lat="44.3626233" lon="11.2760133"><ele>362.0</ele><time>2026-04-09T13:57:06.884Z</time></trkpt><trkpt lat="44.3626683" lon="11.2758933"><ele>362.0</ele><time>2026-04-09T13:57:07.884Z</time></trkpt><trkpt lat="44.3627183" lon="11.2757617"><ele>362.0</ele><time>2026-04-09T13:57:08.885Z</time></trkpt><trkpt lat="44.36278" lon="11.2756367"><ele>362.0</ele><time>2026-04-09T13:57:09.884Z</time></trkpt><trkpt lat="44.3628517" lon="11.2755183"><ele>362.0</ele><time>2026-04-09T13:57:10.884Z</time></trkpt><trkpt lat="44.36293" lon="11.2754083"><ele>362.0</ele><time>2026-04-09T13:57:11.885Z</time></trkpt><trkpt lat="44.363005" lon="11.2752933"><ele>359.75</ele><time>2026-04-09T13:57:12.884Z</time></trkpt><trkpt lat="44.36307" lon="11.27517"><ele>357.5</ele><time>2026-04-09T13:57:13.885Z</time></trkpt><trkpt lat="44.3631283" lon="11.27504"><ele>355.25</ele><time>2026-04-09T13:57:14.884Z</time></trkpt><trkpt lat="44.36318" lon="11.27474"><ele>353.0</ele><time>2026-04-09T13:57:16.885Z</time></trkpt><trkpt lat="44.363185" lon="11.274585"><ele>353.0</ele><time>2026-04-09T13:57:17.884Z</time></trkpt><trkpt lat="44.3632017" lon="11.2744583"><ele>353.0</ele><time>2026-04-09T13:57:18.884Z</time></trkpt><trkpt lat="44.363225" lon="11.2743517"><ele>353.0</ele><time>2026-04-09T13:57:19.885Z</time></trkpt><trkpt lat="44.3632617" lon="11.274255"><ele>353.0</ele><time>2026-04-09T13:57:20.884Z</time></trkpt><trkpt lat="44.3633233" lon="11.274175"><ele>353.0</ele><time>2026-04-09T13:57:21.885Z</time></trkpt><trkpt lat="44.363405" lon="11.2741233"><ele>353.0</ele><time>2026-04-09T13:57:22.884Z</time></trkpt><trkpt lat="44.363515" lon="11.2740783"><ele>353.0</ele><time>2026-04-09T13:57:23.884Z</time></trkpt><trkpt lat="44.363635" lon="11.2740183"><ele>353.0</ele><time>2026-04-09T13:57:24.885Z</time></trkpt><trkpt lat="44.3637533" lon="11.2739467"><ele>353.0</ele><time>2026-04-09T13:57:25.884Z</time></trkpt><trkpt lat="44.36386" lon="11.2738533"><ele>353.0</ele><time>2026-04-09T13:57:26.884Z</time></trkpt><trkpt lat="44.363955" lon="11.2737383"><ele>351.5</ele><time>2026-04-09T13:57:27.885Z</time></trkpt><trkpt lat="44.3640517" lon="11.273605"><ele>350.0</ele><time>2026-04-09T13:57:28.884Z</time></trkpt><trkpt lat="44.3641367" lon="11.2734467"><ele>348.5</ele><time>2026-04-09T13:57:29.884Z</time></trkpt><trkpt lat="44.3642233" lon="11.2732883"><ele>347.0</ele><time>2026-04-09T13:57:30.884Z</time></trkpt><trkpt lat="44.3643067" lon="11.2731383"><ele>346.20000000000005</ele><time>2026-04-09T13:57:31.884Z</time></trkpt><trkpt lat="44.3643817" lon="11.2730033"><ele>345.4</ele><time>2026-04-09T13:57:32.884Z</time></trkpt><trkpt lat="44.3644583" lon="11.2728833"><ele>344.6</ele><time>2026-04-09T13:57:33.884Z</time></trkpt><trkpt lat="44.3645283" lon="11.2727733"><ele>343.79999999999995</ele><time>2026-04-09T13:57:34.885Z</time></trkpt><trkpt lat="44.3646033" lon="11.2726817"><ele>343.0</ele><time>2026-04-09T13:57:35.884Z</time></trkpt><trkpt lat="44.36476" lon="11.272575"><ele>343.0</ele><time>2026-04-09T13:57:37.884Z</time></trkpt><trkpt lat="44.3648417" lon="11.2725717"><ele>343.0</ele><time>2026-04-09T13:57:38.884Z</time></trkpt><trkpt lat="44.3649383" lon="11.2726033"><ele>343.0</ele><time>2026-04-09T13:57:39.884Z</time></trkpt><trkpt lat="44.3650483" lon="11.2726567"><ele>343.0</ele><time>2026-04-09T13:57:40.884Z</time></trkpt><trkpt lat="44.3651683" lon="11.2727117"><ele>343.0</ele><time>2026-04-09T13:57:41.884Z</time></trkpt><trkpt lat="44.3652933" lon="11.2727433"><ele>343.0</ele><time>2026-04-09T13:57:42.884Z</time></trkpt><trkpt lat="44.3654133" lon="11.2727633"><ele>343.0</ele><time>2026-04-09T13:57:43.884Z</time></trkpt><trkpt lat="44.365525" lon="11.2727633"><ele>343.0</ele><time>2026-04-09T13:57:44.885Z</time></trkpt><trkpt lat="44.365615" lon="11.2727667"><ele>343.0</ele><time>2026-04-09T13:57:45.884Z</time></trkpt><trkpt lat="44.365695" lon="11.2727517"><ele>343.0</ele><time>2026-04-09T13:57:46.885Z</time></trkpt><trkpt lat="44.3657783" lon="11.2726833"><ele>343.0</ele><time>2026-04-09T13:57:48.885Z</time></trkpt><trkpt lat="44.365715" lon="11.2725667"><ele>343.0</ele><time>2026-04-09T13:57:50.884Z</time></trkpt><trkpt lat="44.36564" lon="11.2725383"><ele>343.0</ele><time>2026-04-09T13:57:51.884Z</time></trkpt><trkpt lat="44.3655417" lon="11.27252"><ele>343.0</ele><time>2026-04-09T13:57:52.885Z</time></trkpt><trkpt lat="44.3654367" lon="11.2725083"><ele>343.0</ele><time>2026-04-09T13:57:53.884Z</time></trkpt><trkpt lat="44.3653333" lon="11.272485"><ele>343.0</ele><time>2026-04-09T13:57:54.884Z</time></trkpt><trkpt lat="44.36523" lon="11.272445"><ele>343.0</ele><time>2026-04-09T13:57:55.885Z</time></trkpt><trkpt lat="44.36512" lon="11.2723817"><ele>343.0</ele><time>2026-04-09T13:57:56.884Z</time></trkpt><trkpt lat="44.36488" lon="11.2722283"><ele>338.2</ele><time>2026-04-09T13:57:58.884Z</time></trkpt><trkpt lat="44.3647617" lon="11.2721567"><ele>333.4</ele><time>2026-04-09T13:57:59.884Z</time></trkpt><trkpt lat="44.3646517" lon="11.2720867"><ele>328.59999999999997</ele><time>2026-04-09T13:58:00.885Z</time></trkpt><trkpt lat="44.364555" lon="11.272035"><ele>323.79999999999995</ele><time>2026-04-09T13:58:01.884Z</time></trkpt><trkpt lat="44.364465" lon="11.2720033"><ele>319.0</ele><time>2026-04-09T13:58:02.884Z</time></trkpt><trkpt lat="44.364385" lon="11.27198"><ele>319.0</ele><time>2026-04-09T13:58:03.884Z</time></trkpt><trkpt lat="44.3643133" lon="11.2719967"><ele>319.0</ele><time>2026-04-09T13:58:04.885Z</time></trkpt><trkpt lat="44.3642583" lon="11.2720683"><ele>319.0</ele><time>2026-04-09T13:58:05.885Z</time></trkpt><trkpt lat="44.3642167" lon="11.27216"><ele>319.0</ele><time>2026-04-09T13:58:06.884Z</time></trkpt><trkpt lat="44.3641783" lon="11.27224"><ele>319.0</ele><time>2026-04-09T13:58:07.885Z</time></trkpt><trkpt lat="44.3641" lon="11.2723183"><ele>319.0</ele><time>2026-04-09T13:58:09.884Z</time></trkpt><trkpt lat="44.3640433" lon="11.2722417"><ele>319.0</ele><time>2026-04-09T13:58:11.884Z</time></trkpt><trkpt lat="44.3640467" lon="11.2721517"><ele>319.0</ele><time>2026-04-09T13:58:12.884Z</time></trkpt><trkpt lat="44.3640767" lon="11.27206"><ele>319.0</ele><time>2026-04-09T13:58:13.885Z</time></trkpt><trkpt lat="44.3641283" lon="11.2719817"><ele>319.0</ele><time>2026-04-09T13:58:14.884Z</time></trkpt><trkpt lat="44.3641867" lon="11.2719033"><ele>319.0</ele><time>2026-04-09T13:58:15.885Z</time></trkpt><trkpt lat="44.3642517" lon="11.2718283"><ele>319.0</ele><time>2026-04-09T13:58:16.884Z</time></trkpt><trkpt lat="44.3643283" lon="11.2717683"><ele>319.0</ele><time>2026-04-09T13:58:17.885Z</time></trkpt><trkpt lat="44.364525" lon="11.2717333"><ele>319.0</ele><time>2026-04-09T13:58:19.885Z</time></trkpt><trkpt lat="44.3646467" lon="11.27176"><ele>319.0</ele><time>2026-04-09T13:58:20.885Z</time></trkpt><trkpt lat="44.3647683" lon="11.2718033"><ele>319.0</ele><time>2026-04-09T13:58:21.884Z</time></trkpt><trkpt lat="44.3648817" lon="11.2718517"><ele>318.8</ele><time>2026-04-09T13:58:22.885Z</time></trkpt><trkpt lat="44.3649883" lon="11.2718817"><ele>318.59999999999997</ele><time>2026-04-09T13:58:23.884Z</time></trkpt><trkpt lat="44.3650917" lon="11.271905"><ele>318.4</ele><time>2026-04-09T13:58:24.884Z</time></trkpt><trkpt lat="44.3651967" lon="11.2719233"><ele>318.2</ele><time>2026-04-09T13:58:25.884Z</time></trkpt><trkpt lat="44.365305" lon="11.2719333"><ele>318.0</ele><time>2026-04-09T13:58:26.884Z</time></trkpt><trkpt lat="44.3654117" lon="11.271935"><ele>318.0</ele><time>2026-04-09T13:58:27.884Z</time></trkpt><trkpt lat="44.3655133" lon="11.2719417"><ele>318.0</ele><time>2026-04-09T13:58:28.884Z</time></trkpt><trkpt lat="44.365595" lon="11.2719417"><ele>318.0</ele><time>2026-04-09T13:58:29.884Z</time></trkpt><trkpt lat="44.365665" lon="11.2719283"><ele>318.0</ele><time>2026-04-09T13:58:30.884Z</time></trkpt><trkpt lat="44.36573" lon="11.2718083"><ele>318.0</ele><time>2026-04-09T13:58:32.884Z</time></trkpt><trkpt lat="44.3656767" lon="11.2716667"><ele>318.0</ele><time>2026-04-09T13:58:34.884Z</time></trkpt><trkpt lat="44.36561" lon="11.2716217"><ele>318.0</ele><time>2026-04-09T13:58:35.884Z</time></trkpt><trkpt lat="44.3655267" lon="11.2715867"><ele>318.0</ele><time>2026-04-09T13:58:36.885Z</time></trkpt><trkpt lat="44.3654183" lon="11.2715533"><ele>318.0</ele><time>2026-04-09T13:58:37.884Z</time></trkpt><trkpt lat="44.3653017" lon="11.2715017"><ele>318.0</ele><time>2026-04-09T13:58:38.885Z</time></trkpt><trkpt lat="44.3650767" lon="11.2713617"><ele>313.75</ele><time>2026-04-09T13:58:40.884Z</time></trkpt><trkpt lat="44.3649583" lon="11.271275"><ele>309.5</ele><time>2026-04-09T13:58:41.884Z</time></trkpt><trkpt lat="44.3648417" lon="11.2712017"><ele>305.25</ele><time>2026-04-09T13:58:42.884Z</time></trkpt><trkpt lat="44.36473" lon="11.2711433"><ele>301.0</ele><time>2026-04-09T13:58:43.884Z</time></trkpt><trkpt lat="44.3646083" lon="11.2710833"><ele>301.0</ele><time>2026-04-09T13:58:44.884Z</time></trkpt><trkpt lat="44.3644883" lon="11.27102"><ele>301.0</ele><time>2026-04-09T13:58:45.885Z</time></trkpt><trkpt lat="44.3643717" lon="11.27095"><ele>301.0</ele><time>2026-04-09T13:58:46.884Z</time></trkpt><trkpt lat="44.364265" lon="11.2708767"><ele>301.0</ele><time>2026-04-09T13:58:47.884Z</time></trkpt><trkpt lat="44.364165" lon="11.270815"><ele>301.0</ele><time>2026-04-09T13:58:48.884Z</time></trkpt><trkpt lat="44.3640917" lon="11.2707633"><ele>301.0</ele><time>2026-04-09T13:58:49.884Z</time></trkpt><trkpt lat="44.3640167" lon="11.2706967"><ele>301.0</ele><time>2026-04-09T13:58:51.884Z</time></trkpt><trkpt lat="44.3639583" lon="11.2706433"><ele>301.0</ele><time>2026-04-09T13:58:53.884Z</time></trkpt><trkpt lat="44.3639467" lon="11.2705367"><ele>301.0</ele><time>2026-04-09T13:58:55.885Z</time></trkpt><trkpt lat="44.3640267" lon="11.27047"><ele>301.0</ele><time>2026-04-09T13:58:57.884Z</time></trkpt><trkpt lat="44.3641483" lon="11.2705283"><ele>301.0</ele><time>2026-04-09T13:58:59.884Z</time></trkpt><trkpt lat="44.3643183" lon="11.27066"><ele>301.0</ele><time>2026-04-09T13:59:01.885Z</time></trkpt><trkpt lat="44.3644217" lon="11.2707383"><ele>301.0</ele><time>2026-04-09T13:59:02.885Z</time></trkpt><trkpt lat="44.3645367" lon="11.2707883"><ele>301.0</ele><time>2026-04-09T13:59:03.884Z</time></trkpt><trkpt lat="44.3646583" lon="11.2708017"><ele>299.75</ele><time>2026-04-09T13:59:04.884Z</time></trkpt><trkpt lat="44.3647867" lon="11.2707983"><ele>298.5</ele><time>2026-04-09T13:59:05.884Z</time></trkpt><trkpt lat="44.36492" lon="11.27077"><ele>297.25</ele><time>2026-04-09T13:59:06.884Z</time></trkpt><trkpt lat="44.36507" lon="11.27073"><ele>296.0</ele><time>2026-04-09T13:59:07.884Z</time></trkpt><trkpt lat="44.3652217" lon="11.2706817"><ele>296.0</ele><time>2026-04-09T13:59:08.884Z</time></trkpt><trkpt lat="44.3653633" lon="11.2706383"><ele>296.0</ele><time>2026-04-09T13:59:09.885Z</time></trkpt><trkpt lat="44.3655017" lon="11.2705967"><ele>296.0</ele><time>2026-04-09T13:59:10.884Z</time></trkpt><trkpt lat="44.3656283" lon="11.2705617"><ele>296.0</ele><time>2026-04-09T13:59:11.885Z</time></trkpt><trkpt lat="44.365735" lon="11.270535"><ele>294.0</ele><time>2026-04-09T13:59:12.884Z</time></trkpt><trkpt lat="44.3658183" lon="11.2705183"><ele>292.0</ele><time>2026-04-09T13:59:13.885Z</time></trkpt><trkpt lat="44.3658867" lon="11.27048"><ele>290.0</ele><time>2026-04-09T13:59:14.885Z</time></trkpt><trkpt lat="44.365935" lon="11.2704117"><ele>288.0</ele><time>2026-04-09T13:59:15.884Z</time></trkpt><trkpt lat="44.3659383" lon="11.2702733"><ele>286.0</ele><time>2026-04-09T13:59:17.885Z</time></trkpt><trkpt lat="44.3658817" lon="11.2702233"><ele>284.0</ele><time>2026-04-09T13:59:18.884Z</time></trkpt><trkpt lat="44.3658067" lon="11.2702017"><ele>284.0</ele><time>2026-04-09T13:59:19.884Z</time></trkpt><trkpt lat="44.365715" lon="11.2701983"><ele>284.0</ele><time>2026-04-09T13:59:20.885Z</time></trkpt><trkpt lat="44.36549" lon="11.2702083"><ele>284.0</ele><time>2026-04-09T13:59:22.884Z</time></trkpt><trkpt lat="44.3653717" lon="11.2702"><ele>284.0</ele><time>2026-04-09T13:59:23.884Z</time></trkpt><trkpt lat="44.3652483" lon="11.2701767"><ele>282.5</ele><time>2026-04-09T13:59:24.884Z</time></trkpt><trkpt lat="44.3651217" lon="11.2701567"><ele>281.0</ele><time>2026-04-09T13:59:25.884Z</time></trkpt><trkpt lat="44.3650017" lon="11.27014"><ele>279.5</ele><time>2026-04-09T13:59:26.884Z</time></trkpt><trkpt lat="44.3648917" lon="11.27013"><ele>278.0</ele><time>2026-04-09T13:59:27.884Z</time></trkpt><trkpt lat="44.3647967" lon="11.27012"><ele>278.0</ele><time>2026-04-09T13:59:28.884Z</time></trkpt><trkpt lat="44.3647117" lon="11.2701017"><ele>278.0</ele><time>2026-04-09T13:59:29.884Z</time></trkpt><trkpt lat="44.36464" lon="11.27007"><ele>278.0</ele><time>2026-04-09T13:59:30.883Z</time></trkpt><trkpt lat="44.3645767" lon="11.2699583"><ele>278.0</ele><time>2026-04-09T13:59:32.883Z</time></trkpt><trkpt lat="44.3646417" lon="11.2698167"><ele>278.0</ele><time>2026-04-09T13:59:34.883Z</time></trkpt><trkpt lat="44.3647167" lon="11.26976"><ele>276.2</ele><time>2026-04-09T13:59:35.884Z</time></trkpt><trkpt lat="44.3648067" lon="11.2697117"><ele>274.4</ele><time>2026-04-09T13:59:36.883Z</time></trkpt><trkpt lat="44.3649033" lon="11.269645"><ele>272.59999999999997</ele><time>2026-04-09T13:59:37.883Z</time></trkpt><trkpt lat="44.365005" lon="11.2695733"><ele>270.8</ele><time>2026-04-09T13:59:38.884Z</time></trkpt><trkpt lat="44.3651017" lon="11.2695017"><ele>269.0</ele><time>2026-04-09T13:59:39.883Z</time></trkpt><trkpt lat="44.3651967" lon="11.2694367"><ele>269.0</ele><time>2026-04-09T13:59:40.884Z</time></trkpt><trkpt lat="44.3652917" lon="11.2693767"><ele>269.0</ele><time>2026-04-09T13:59:41.883Z</time></trkpt><trkpt lat="44.3655033" lon="11.2692767"><ele>269.0</ele><time>2026-04-09T13:59:43.884Z</time></trkpt><trkpt lat="44.3656233" lon="11.2692417"><ele>269.0</ele><time>2026-04-09T13:59:44.884Z</time></trkpt><trkpt lat="44.3657433" lon="11.26921"><ele>269.0</ele><time>2026-04-09T13:59:45.884Z</time></trkpt><trkpt lat="44.3658483" lon="11.2691633"><ele>269.0</ele><time>2026-04-09T13:59:46.883Z</time></trkpt><trkpt lat="44.3659517" lon="11.2691017"><ele>269.0</ele><time>2026-04-09T13:59:47.883Z</time></trkpt><trkpt lat="44.3660433" lon="11.2690417"><ele>269.0</ele><time>2026-04-09T13:59:48.884Z</time></trkpt><trkpt lat="44.3661333" lon="11.2690067"><ele>269.0</ele><time>2026-04-09T13:59:49.883Z</time></trkpt><trkpt lat="44.3662233" lon="11.2690067"><ele>269.0</ele><time>2026-04-09T13:59:50.883Z</time></trkpt><trkpt lat="44.3663167" lon="11.2690383"><ele>269.0</ele><time>2026-04-09T13:59:51.883Z</time></trkpt><trkpt lat="44.3663917" lon="11.2691067"><ele>269.0</ele><time>2026-04-09T13:59:52.884Z</time></trkpt><trkpt lat="44.3664533" lon="11.2692283"><ele>269.0</ele><time>2026-04-09T13:59:53.883Z</time></trkpt><trkpt lat="44.36652" lon="11.2693717"><ele>269.75</ele><time>2026-04-09T13:59:54.884Z</time></trkpt><trkpt lat="44.36659" lon="11.269525"><ele>270.5</ele><time>2026-04-09T13:59:55.884Z</time></trkpt><trkpt lat="44.366655" lon="11.2696683"><ele>271.25</ele><time>2026-04-09T13:59:56.883Z</time></trkpt><trkpt lat="44.3667333" lon="11.2697933"><ele>272.0</ele><time>2026-04-09T13:59:57.884Z</time></trkpt><trkpt lat="44.3668217" lon="11.2698983"><ele>272.0</ele><time>2026-04-09T13:59:58.883Z</time></trkpt><trkpt lat="44.3669183" lon="11.2699867"><ele>272.0</ele><time>2026-04-09T13:59:59.883Z</time></trkpt><trkpt lat="44.3670217" lon="11.2700567"><ele>272.0</ele><time>2026-04-09T14:00:00.883Z</time></trkpt><trkpt lat="44.367125" lon="11.27012"><ele>272.0</ele><time>2026-04-09T14:00:01.883Z</time></trkpt><trkpt lat="44.3672267" lon="11.2701867"><ele>265.6666666666667</ele><time>2026-04-09T14:00:02.884Z</time></trkpt><trkpt lat="44.3674733" lon="11.2703417"><ele>259.3333333333333</ele><time>2026-04-09T14:00:04.883Z</time></trkpt><trkpt lat="44.3676017" lon="11.2704217"><ele>253.0</ele><time>2026-04-09T14:00:05.884Z</time></trkpt><trkpt lat="44.367725" lon="11.2705"><ele>253.0</ele><time>2026-04-09T14:00:06.883Z</time></trkpt><trkpt lat="44.36785" lon="11.27058"><ele>253.0</ele><time>2026-04-09T14:00:07.883Z</time></trkpt><trkpt lat="44.3679633" lon="11.2706667"><ele>253.0</ele><time>2026-04-09T14:00:08.883Z</time></trkpt><trkpt lat="44.3680733" lon="11.2707717"><ele>253.0</ele><time>2026-04-09T14:00:09.883Z</time></trkpt><trkpt lat="44.3681883" lon="11.2708933"><ele>252.5</ele><time>2026-04-09T14:00:10.883Z</time></trkpt><trkpt lat="44.3682967" lon="11.2710233"><ele>252.0</ele><time>2026-04-09T14:00:11.883Z</time></trkpt><trkpt lat="44.3684017" lon="11.2711533"><ele>251.5</ele><time>2026-04-09T14:00:12.883Z</time></trkpt><trkpt lat="44.3685183" lon="11.271275"><ele>251.0</ele><time>2026-04-09T14:00:13.883Z</time></trkpt><trkpt lat="44.36864" lon="11.2713933"><ele>251.75</ele><time>2026-04-09T14:00:14.883Z</time></trkpt><trkpt lat="44.3687583" lon="11.271505"><ele>252.5</ele><time>2026-04-09T14:00:15.884Z</time></trkpt><trkpt lat="44.3688817" lon="11.271615"><ele>253.25</ele><time>2026-04-09T14:00:16.883Z</time></trkpt><trkpt lat="44.3690133" lon="11.271715"><ele>254.0</ele><time>2026-04-09T14:00:17.883Z</time></trkpt><trkpt lat="44.3691283" lon="11.2718067"><ele>254.0</ele><time>2026-04-09T14:00:18.883Z</time></trkpt><trkpt lat="44.3692583" lon="11.2718917"><ele>254.0</ele><time>2026-04-09T14:00:19.883Z</time></trkpt><trkpt lat="44.36939" lon="11.2719733"><ele>254.0</ele><time>2026-04-09T14:00:20.883Z</time></trkpt><trkpt lat="44.36953" lon="11.2720483"><ele>254.0</ele><time>2026-04-09T14:00:21.883Z</time></trkpt><trkpt lat="44.3696717" lon="11.2721233"><ele>257.0</ele><time>2026-04-09T14:00:22.883Z</time></trkpt><trkpt lat="44.3698067" lon="11.2722017"><ele>260.0</ele><time>2026-04-09T14:00:23.883Z</time></trkpt><trkpt lat="44.3700383" lon="11.2723617"><ele>263.0</ele><time>2026-04-09T14:00:25.883Z</time></trkpt><trkpt lat="44.3701433" lon="11.272415"><ele>263.0</ele><time>2026-04-09T14:00:26.884Z</time></trkpt><trkpt lat="44.3702267" lon="11.2724617"><ele>263.0</ele><time>2026-04-09T14:00:27.883Z</time></trkpt><trkpt lat="44.37029" lon="11.272535"><ele>263.0</ele><time>2026-04-09T14:00:28.884Z</time></trkpt><trkpt lat="44.3703433" lon="11.2726267"><ele>263.0</ele><time>2026-04-09T14:00:29.883Z</time></trkpt><trkpt lat="44.37038" lon="11.2727467"><ele>263.0</ele><time>2026-04-09T14:00:30.883Z</time></trkpt><trkpt lat="44.3703933" lon="11.272875"><ele>263.0</ele><time>2026-04-09T14:00:31.883Z</time></trkpt><trkpt lat="44.3704167" lon="11.273015"><ele>258.5</ele><time>2026-04-09T14:00:32.883Z</time></trkpt><trkpt lat="44.37046" lon="11.2731617"><ele>254.0</ele><time>2026-04-09T14:00:33.883Z</time></trkpt><trkpt lat="44.3705233" lon="11.2733167"><ele>249.5</ele><time>2026-04-09T14:00:34.884Z</time></trkpt><trkpt lat="44.3706" lon="11.273475"><ele>245.0</ele><time>2026-04-09T14:00:35.883Z</time></trkpt><trkpt lat="44.3706867" lon="11.2736333"><ele>245.0</ele><time>2026-04-09T14:00:36.884Z</time></trkpt><trkpt lat="44.3707667" lon="11.2737917"><ele>245.0</ele><time>2026-04-09T14:00:37.883Z</time></trkpt><trkpt lat="44.3708433" lon="11.273935"><ele>245.0</ele><time>2026-04-09T14:00:38.884Z</time></trkpt><trkpt lat="44.3709167" lon="11.27405"><ele>245.0</ele><time>2026-04-09T14:00:39.883Z</time></trkpt><trkpt lat="44.3709917" lon="11.2741283"><ele>246.4</ele><time>2026-04-09T14:00:40.883Z</time></trkpt><trkpt lat="44.37108" lon="11.2741633"><ele>247.8</ele><time>2026-04-09T14:00:41.883Z</time></trkpt><trkpt lat="44.3711683" lon="11.2741683"><ele>249.2</ele><time>2026-04-09T14:00:42.883Z</time></trkpt><trkpt lat="44.3712683" lon="11.2741167"><ele>250.6</ele><time>2026-04-09T14:00:43.883Z</time></trkpt><trkpt lat="44.3713717" lon="11.27406"><ele>252.0</ele><time>2026-04-09T14:00:44.883Z</time></trkpt><trkpt lat="44.371535" lon="11.2739183"><ele>252.75</ele><time>2026-04-09T14:00:46.883Z</time></trkpt><trkpt lat="44.3715917" lon="11.2738133"><ele>253.5</ele><time>2026-04-09T14:00:47.883Z</time></trkpt><trkpt lat="44.3716133" lon="11.27366"><ele>254.25</ele><time>2026-04-09T14:00:48.884Z</time></trkpt><trkpt lat="44.3716133" lon="11.2734917"><ele>255.0</ele><time>2026-04-09T14:00:49.883Z</time></trkpt><trkpt lat="44.3716083" lon="11.2733167"><ele>255.0</ele><time>2026-04-09T14:00:50.883Z</time></trkpt><trkpt lat="44.3716133" lon="11.2731317"><ele>255.0</ele><time>2026-04-09T14:00:51.883Z</time></trkpt><trkpt lat="44.37163" lon="11.2729533"><ele>255.0</ele><time>2026-04-09T14:00:52.883Z</time></trkpt><trkpt lat="44.3716617" lon="11.2727617"><ele>255.0</ele><time>2026-04-09T14:00:53.883Z</time></trkpt><trkpt lat="44.3717117" lon="11.2725633"><ele>250.33333333333331</ele><time>2026-04-09T14:00:54.883Z</time></trkpt><trkpt lat="44.3717717" lon="11.2723617"><ele>245.66666666666666</ele><time>2026-04-09T14:00:55.883Z</time></trkpt><trkpt lat="44.371825" lon="11.272155"><ele>241.0</ele><time>2026-04-09T14:00:56.883Z</time></trkpt><trkpt lat="44.3718833" lon="11.271955"><ele>237.33333333333331</ele><time>2026-04-09T14:00:57.883Z</time></trkpt><trkpt lat="44.3719533" lon="11.271765"><ele>233.66666666666669</ele><time>2026-04-09T14:00:58.883Z</time></trkpt><trkpt lat="44.3720317" lon="11.2715883"><ele>230.0</ele><time>2026-04-09T14:00:59.883Z</time></trkpt><trkpt lat="44.3721133" lon="11.27141"><ele>232.33333333333334</ele><time>2026-04-09T14:01:00.883Z</time></trkpt><trkpt lat="44.3722067" lon="11.27124"><ele>234.66666666666669</ele><time>2026-04-09T14:01:01.883Z</time></trkpt><trkpt lat="44.372305" lon="11.271075"><ele>237.0</ele><time>2026-04-09T14:01:02.884Z</time></trkpt><trkpt lat="44.3723983" lon="11.2708933"><ele>237.0</ele><time>2026-04-09T14:01:03.883Z</time></trkpt><trkpt lat="44.37252" lon="11.27074"><ele>237.0</ele><time>2026-04-09T14:01:04.884Z</time></trkpt><trkpt lat="44.3726417" lon="11.2706017"><ele>237.0</ele><time>2026-04-09T14:01:05.883Z</time></trkpt><trkpt lat="44.3728733" lon="11.2703583"><ele>239.5</ele><time>2026-04-09T14:01:07.884Z</time></trkpt><trkpt lat="44.3729817" lon="11.2702367"><ele>242.0</ele><time>2026-04-09T14:01:08.883Z</time></trkpt><trkpt lat="44.373085" lon="11.270095"><ele>244.5</ele><time>2026-04-09T14:01:09.884Z</time></trkpt><trkpt lat="44.3731767" lon="11.2699383"><ele>247.0</ele><time>2026-04-09T14:01:10.883Z</time></trkpt><trkpt lat="44.3732583" lon="11.2697783"><ele>243.25</ele><time>2026-04-09T14:01:11.883Z</time></trkpt><trkpt lat="44.3733367" lon="11.2696167"><ele>239.5</ele><time>2026-04-09T14:01:12.883Z</time></trkpt><trkpt lat="44.373415" lon="11.2694633"><ele>235.75</ele><time>2026-04-09T14:01:13.883Z</time></trkpt><trkpt lat="44.3734983" lon="11.2693217"><ele>232.0</ele><time>2026-04-09T14:01:14.884Z</time></trkpt><trkpt lat="44.373595" lon="11.26918"><ele>232.0</ele><time>2026-04-09T14:01:15.883Z</time></trkpt><trkpt lat="44.3736933" lon="11.269045"><ele>232.0</ele><time>2026-04-09T14:01:16.883Z</time></trkpt><trkpt lat="44.3737883" lon="11.268905"><ele>232.0</ele><time>2026-04-09T14:01:17.884Z</time></trkpt><trkpt lat="44.3738783" lon="11.26875"><ele>232.0</ele><time>2026-04-09T14:01:18.884Z</time></trkpt><trkpt lat="44.37396" lon="11.26859"><ele>235.25</ele><time>2026-04-09T14:01:19.883Z</time></trkpt><trkpt lat="44.374025" lon="11.2684317"><ele>238.5</ele><time>2026-04-09T14:01:20.883Z</time></trkpt><trkpt lat="44.374075" lon="11.2682483"><ele>241.75</ele><time>2026-04-09T14:01:21.883Z</time></trkpt><trkpt lat="44.3741033" lon="11.26804"><ele>245.0</ele><time>2026-04-09T14:01:22.883Z</time></trkpt><trkpt lat="44.3741283" lon="11.2678317"><ele>245.0</ele><time>2026-04-09T14:01:23.883Z</time></trkpt><trkpt lat="44.3741583" lon="11.2676217"><ele>245.0</ele><time>2026-04-09T14:01:24.883Z</time></trkpt><trkpt lat="44.374195" lon="11.267425"><ele>245.0</ele><time>2026-04-09T14:01:25.884Z</time></trkpt><trkpt lat="44.37424" lon="11.26723"><ele>245.0</ele><time>2026-04-09T14:01:26.883Z</time></trkpt><trkpt lat="44.3743533" lon="11.2668367"><ele>241.66666666666669</ele><time>2026-04-09T14:01:28.883Z</time></trkpt><trkpt lat="44.3744" lon="11.2666317"><ele>238.33333333333331</ele><time>2026-04-09T14:01:29.883Z</time></trkpt><trkpt lat="44.3744467" lon="11.2664217"><ele>235.0</ele><time>2026-04-09T14:01:30.883Z</time></trkpt><trkpt lat="44.3744933" lon="11.26623"><ele>234.5</ele><time>2026-04-09T14:01:31.883Z</time></trkpt><trkpt lat="44.374525" lon="11.2660367"><ele>234.0</ele><time>2026-04-09T14:01:32.884Z</time></trkpt><trkpt lat="44.3745617" lon="11.2658417"><ele>233.5</ele><time>2026-04-09T14:01:33.883Z</time></trkpt><trkpt lat="44.3745733" lon="11.2656417"><ele>233.0</ele><time>2026-04-09T14:01:34.883Z</time></trkpt><trkpt lat="44.3745733" lon="11.2654383"><ele>232.66666666666669</ele><time>2026-04-09T14:01:35.884Z</time></trkpt><trkpt lat="44.37456" lon="11.265215"><ele>232.33333333333331</ele><time>2026-04-09T14:01:36.883Z</time></trkpt><trkpt lat="44.374535" lon="11.2650083"><ele>232.0</ele><time>2026-04-09T14:01:37.883Z</time></trkpt><trkpt lat="44.3745" lon="11.2648083"><ele>233.25</ele><time>2026-04-09T14:01:38.883Z</time></trkpt><trkpt lat="44.3744633" lon="11.2646233"><ele>234.5</ele><time>2026-04-09T14:01:39.883Z</time></trkpt><trkpt lat="44.3744233" lon="11.2644583"><ele>235.75</ele><time>2026-04-09T14:01:40.883Z</time></trkpt><trkpt lat="44.3743583" lon="11.2643067"><ele>237.0</ele><time>2026-04-09T14:01:41.883Z</time></trkpt><trkpt lat="44.374275" lon="11.2641533"><ele>237.0</ele><time>2026-04-09T14:01:42.883Z</time></trkpt><trkpt lat="44.374195" lon="11.2640017"><ele>237.0</ele><time>2026-04-09T14:01:43.884Z</time></trkpt><trkpt lat="44.3741217" lon="11.2638333"><ele>237.0</ele><time>2026-04-09T14:01:44.883Z</time></trkpt><trkpt lat="44.37405" lon="11.2636517"><ele>237.0</ele><time>2026-04-09T14:01:45.883Z</time></trkpt><trkpt lat="44.3739883" lon="11.2634583"><ele>240.0</ele><time>2026-04-09T14:01:46.883Z</time></trkpt><trkpt lat="44.3739283" lon="11.2632683"><ele>243.0</ele><time>2026-04-09T14:01:47.883Z</time></trkpt><trkpt lat="44.3738067" lon="11.2629"><ele>246.0</ele><time>2026-04-09T14:01:49.883Z</time></trkpt><trkpt lat="44.3737567" lon="11.2627217"><ele>241.8</ele><time>2026-04-09T14:01:50.884Z</time></trkpt><trkpt lat="44.3737133" lon="11.2625467"><ele>237.60000000000002</ele><time>2026-04-09T14:01:51.883Z</time></trkpt><trkpt lat="44.373685" lon="11.26239"><ele>233.4</ele><time>2026-04-09T14:01:52.883Z</time></trkpt><trkpt lat="44.37368" lon="11.2622533"><ele>229.2</ele><time>2026-04-09T14:01:53.884Z</time></trkpt><trkpt lat="44.3736917" lon="11.2621267"><ele>225.0</ele><time>2026-04-09T14:01:54.883Z</time></trkpt><trkpt lat="44.3737317" lon="11.2620067"><ele>223.75</ele><time>2026-04-09T14:01:55.884Z</time></trkpt><trkpt lat="44.3738033" lon="11.2619"><ele>222.5</ele><time>2026-04-09T14:01:56.883Z</time></trkpt><trkpt lat="44.37389" lon="11.2618017"><ele>221.25</ele><time>2026-04-09T14:01:57.883Z</time></trkpt><trkpt lat="44.3739783" lon="11.2616783"><ele>220.0</ele><time>2026-04-09T14:01:58.883Z</time></trkpt><trkpt lat="44.374065" lon="11.2615383"><ele>222.75</ele><time>2026-04-09T14:01:59.884Z</time></trkpt><trkpt lat="44.37415" lon="11.2613867"><ele>225.5</ele><time>2026-04-09T14:02:00.884Z</time></trkpt><trkpt lat="44.374235" lon="11.2612383"><ele>228.25</ele><time>2026-04-09T14:02:01.884Z</time></trkpt><trkpt lat="44.374325" lon="11.2611033"><ele>231.0</ele><time>2026-04-09T14:02:02.883Z</time></trkpt><trkpt lat="44.3744133" lon="11.2609717"><ele>231.0</ele><time>2026-04-09T14:02:03.883Z</time></trkpt><trkpt lat="44.3745217" lon="11.2608633"><ele>231.0</ele><time>2026-04-09T14:02:04.883Z</time></trkpt><trkpt lat="44.3746233" lon="11.26076"><ele>231.0</ele><time>2026-04-09T14:02:05.883Z</time></trkpt><trkpt lat="44.3747167" lon="11.2606433"><ele>231.0</ele><time>2026-04-09T14:02:06.883Z</time></trkpt><trkpt lat="44.374805" lon="11.26053"><ele>231.33333333333331</ele><time>2026-04-09T14:02:07.883Z</time></trkpt><trkpt lat="44.3748817" lon="11.2604067"><ele>231.66666666666666</ele><time>2026-04-09T14:02:08.883Z</time></trkpt><trkpt lat="44.3749617" lon="11.2601167"><ele>232.0</ele><time>2026-04-09T14:02:10.884Z</time></trkpt><trkpt lat="44.3749633" lon="11.2599467"><ele>230.0</ele><time>2026-04-09T14:02:11.883Z</time></trkpt><trkpt lat="44.3749567" lon="11.2597783"><ele>228.0</ele><time>2026-04-09T14:02:12.883Z</time></trkpt><trkpt lat="44.37494" lon="11.2596183"><ele>226.0</ele><time>2026-04-09T14:02:13.883Z</time></trkpt><trkpt lat="44.3749283" lon="11.2594817"><ele>224.0</ele><time>2026-04-09T14:02:14.884Z</time></trkpt><trkpt lat="44.3749383" lon="11.2593617"><ele>222.0</ele><time>2026-04-09T14:02:15.883Z</time></trkpt><trkpt lat="44.3749767" lon="11.25925"><ele>222.0</ele><time>2026-04-09T14:02:16.883Z</time></trkpt><trkpt lat="44.3750333" lon="11.2591467"><ele>222.0</ele><time>2026-04-09T14:02:17.883Z</time></trkpt><trkpt lat="44.3751183" lon="11.2590633"><ele>222.0</ele><time>2026-04-09T14:02:18.884Z</time></trkpt><trkpt lat="44.3752183" lon="11.2590017"><ele>222.0</ele><time>2026-04-09T14:02:19.883Z</time></trkpt><trkpt lat="44.3753167" lon="11.2589367"><ele>222.0</ele><time>2026-04-09T14:02:20.884Z</time></trkpt><trkpt lat="44.3753967" lon="11.2588583"><ele>219.5</ele><time>2026-04-09T14:02:21.883Z</time></trkpt><trkpt lat="44.37545" lon="11.25877"><ele>217.0</ele><time>2026-04-09T14:02:22.883Z</time></trkpt><trkpt lat="44.3754683" lon="11.258685"><ele>214.5</ele><time>2026-04-09T14:02:23.883Z</time></trkpt><trkpt lat="44.3754" lon="11.258575"><ele>212.0</ele><time>2026-04-09T14:02:25.883Z</time></trkpt><trkpt lat="44.375315" lon="11.2585817"><ele>209.5</ele><time>2026-04-09T14:02:26.883Z</time></trkpt><trkpt lat="44.3752317" lon="11.2586183"><ele>207.0</ele><time>2026-04-09T14:02:27.884Z</time></trkpt><trkpt lat="44.37513" lon="11.2586467"><ele>207.0</ele><time>2026-04-09T14:02:28.883Z</time></trkpt><trkpt lat="44.3750167" lon="11.2586867"><ele>207.0</ele><time>2026-04-09T14:02:29.884Z</time></trkpt><trkpt lat="44.3747817" lon="11.2587717"><ele>207.0</ele><time>2026-04-09T14:02:31.884Z</time></trkpt><trkpt lat="44.374665" lon="11.2588133"><ele>204.39999999999998</ele><time>2026-04-09T14:02:32.883Z</time></trkpt><trkpt lat="44.3745717" lon="11.2588433"><ele>201.79999999999998</ele><time>2026-04-09T14:02:33.883Z</time></trkpt><trkpt lat="44.374495" lon="11.2588517"><ele>199.2</ele><time>2026-04-09T14:02:34.883Z</time></trkpt><trkpt lat="44.374415" lon="11.2587717"><ele>196.6</ele><time>2026-04-09T14:02:36.883Z</time></trkpt><trkpt lat="44.3744617" lon="11.25863"><ele>194.0</ele><time>2026-04-09T14:02:38.883Z</time></trkpt><trkpt lat="44.3745317" lon="11.2585633"><ele>194.0</ele><time>2026-04-09T14:02:39.883Z</time></trkpt><trkpt lat="44.3746117" lon="11.258485"><ele>194.0</ele><time>2026-04-09T14:02:40.883Z</time></trkpt><trkpt lat="44.3746867" lon="11.25837"><ele>194.0</ele><time>2026-04-09T14:02:41.883Z</time></trkpt><trkpt lat="44.37475" lon="11.2582083"><ele>194.0</ele><time>2026-04-09T14:02:42.883Z</time></trkpt><trkpt lat="44.3748117" lon="11.2580333"><ele>195.75</ele><time>2026-04-09T14:02:43.883Z</time></trkpt><trkpt lat="44.374875" lon="11.2578633"><ele>197.5</ele><time>2026-04-09T14:02:44.883Z</time></trkpt><trkpt lat="44.3749317" lon="11.2577017"><ele>199.25</ele><time>2026-04-09T14:02:45.883Z</time></trkpt><trkpt lat="44.37497" lon="11.2575317"><ele>201.0</ele><time>2026-04-09T14:02:46.884Z</time></trkpt><trkpt lat="44.3749933" lon="11.2573583"><ele>198.75</ele><time>2026-04-09T14:02:47.883Z</time></trkpt><trkpt lat="44.3750083" lon="11.2571917"><ele>196.5</ele><time>2026-04-09T14:02:48.884Z</time></trkpt><trkpt lat="44.375035" lon="11.2570417"><ele>194.25</ele><time>2026-04-09T14:02:49.883Z</time></trkpt><trkpt lat="44.3750783" lon="11.2569067"><ele>192.0</ele><time>2026-04-09T14:02:50.883Z</time></trkpt><trkpt lat="44.3751933" lon="11.2566683"><ele>192.0</ele><time>2026-04-09T14:02:52.883Z</time></trkpt><trkpt lat="44.3752533" lon="11.2565717"><ele>192.0</ele><time>2026-04-09T14:02:53.883Z</time></trkpt><trkpt lat="44.3752983" lon="11.2564783"><ele>192.0</ele><time>2026-04-09T14:02:54.883Z</time></trkpt><trkpt lat="44.375285" lon="11.2563417"><ele>192.0</ele><time>2026-04-09T14:02:56.883Z</time></trkpt><trkpt lat="44.3751717" lon="11.2563217"><ele>192.0</ele><time>2026-04-09T14:02:58.883Z</time></trkpt><trkpt lat="44.3751117" lon="11.256385"><ele>192.0</ele><time>2026-04-09T14:02:59.883Z</time></trkpt><trkpt lat="44.37505" lon="11.2564717"><ele>192.0</ele><time>2026-04-09T14:03:00.883Z</time></trkpt><trkpt lat="44.3749817" lon="11.2565717"><ele>192.0</ele><time>2026-04-09T14:03:01.884Z</time></trkpt><trkpt lat="44.374905" lon="11.2566733"><ele>192.0</ele><time>2026-04-09T14:03:02.883Z</time></trkpt><trkpt lat="44.3748317" lon="11.256745"><ele>192.0</ele><time>2026-04-09T14:03:03.883Z</time></trkpt><trkpt lat="44.3747633" lon="11.2567833"><ele>192.0</ele><time>2026-04-09T14:03:04.883Z</time></trkpt><trkpt lat="44.3746683" lon="11.2567283"><ele>192.0</ele><time>2026-04-09T14:03:06.883Z</time></trkpt><trkpt lat="44.374675" lon="11.2565783"><ele>192.0</ele><time>2026-04-09T14:03:08.884Z</time></trkpt><trkpt lat="44.3747217" lon="11.2564967"><ele>192.0</ele><time>2026-04-09T14:03:09.883Z</time></trkpt><trkpt lat="44.3747867" lon="11.256415"><ele>192.0</ele><time>2026-04-09T14:03:10.883Z</time></trkpt><trkpt lat="44.3748467" lon="11.2563033"><ele>189.0</ele><time>2026-04-09T14:03:11.883Z</time></trkpt><trkpt lat="44.3749117" lon="11.2560183"><ele>186.0</ele><time>2026-04-09T14:03:13.883Z</time></trkpt><trkpt lat="44.374915" lon="11.2558517"><ele>183.0</ele><time>2026-04-09T14:03:14.884Z</time></trkpt><trkpt lat="44.3749217" lon="11.2557017"><ele>180.0</ele><time>2026-04-09T14:03:15.884Z</time></trkpt><trkpt lat="44.37494" lon="11.2555567"><ele>178.0</ele><time>2026-04-09T14:03:16.883Z</time></trkpt><trkpt lat="44.3749733" lon="11.2554233"><ele>176.0</ele><time>2026-04-09T14:03:17.883Z</time></trkpt><trkpt lat="44.3750317" lon="11.255295"><ele>174.0</ele><time>2026-04-09T14:03:18.883Z</time></trkpt><trkpt lat="44.3751083" lon="11.2551767"><ele>172.0</ele><time>2026-04-09T14:03:19.883Z</time></trkpt><trkpt lat="44.3752033" lon="11.2550783"><ele>170.0</ele><time>2026-04-09T14:03:20.883Z</time></trkpt><trkpt lat="44.375295" lon="11.255005"><ele>170.0</ele><time>2026-04-09T14:03:21.884Z</time></trkpt><trkpt lat="44.3753767" lon="11.25497"><ele>170.0</ele><time>2026-04-09T14:03:22.883Z</time></trkpt><trkpt lat="44.3754467" lon="11.25495"><ele>170.0</ele><time>2026-04-09T14:03:23.883Z</time></trkpt><trkpt lat="44.3755233" lon="11.2548583"><ele>170.0</ele><time>2026-04-09T14:03:25.883Z</time></trkpt><trkpt lat="44.375445" lon="11.254765"><ele>170.0</ele><time>2026-04-09T14:03:27.883Z</time></trkpt><trkpt lat="44.3753783" lon="11.2547533"><ele>170.0</ele><time>2026-04-09T14:03:28.883Z</time></trkpt><trkpt lat="44.3752967" lon="11.254775"><ele>170.0</ele><time>2026-04-09T14:03:29.884Z</time></trkpt><trkpt lat="44.375195" lon="11.254825"><ele>170.0</ele><time>2026-04-09T14:03:30.883Z</time></trkpt><trkpt lat="44.3750933" lon="11.254895"><ele>170.0</ele><time>2026-04-09T14:03:31.883Z</time></trkpt><trkpt lat="44.3749983" lon="11.254985"><ele>170.0</ele><time>2026-04-09T14:03:32.884Z</time></trkpt><trkpt lat="44.374805" lon="11.2551467"><ele>170.0</ele><time>2026-04-09T14:03:34.883Z</time></trkpt><trkpt lat="44.3747017" lon="11.2551767"><ele>170.0</ele><time>2026-04-09T14:03:35.883Z</time></trkpt><trkpt lat="44.374595" lon="11.2551733"><ele>170.0</ele><time>2026-04-09T14:03:36.883Z</time></trkpt><trkpt lat="44.374475" lon="11.255165"><ele>170.0</ele><time>2026-04-09T14:03:37.884Z</time></trkpt><trkpt lat="44.3743533" lon="11.2551933"><ele>167.75</ele><time>2026-04-09T14:03:38.883Z</time></trkpt><trkpt lat="44.3742417" lon="11.255265"><ele>165.5</ele><time>2026-04-09T14:03:39.883Z</time></trkpt><trkpt lat="44.3741233" lon="11.25537"><ele>163.25</ele><time>2026-04-09T14:03:40.883Z</time></trkpt><trkpt lat="44.3739967" lon="11.25549"><ele>161.0</ele><time>2026-04-09T14:03:41.883Z</time></trkpt><trkpt lat="44.3738567" lon="11.2555867"><ele>161.0</ele><time>2026-04-09T14:03:42.884Z</time></trkpt><trkpt lat="44.37372" lon="11.2556567"><ele>161.0</ele><time>2026-04-09T14:03:43.884Z</time></trkpt><trkpt lat="44.3735833" lon="11.25572"><ele>161.0</ele><time>2026-04-09T14:03:44.883Z</time></trkpt><trkpt lat="44.3734667" lon="11.2558117"><ele>161.0</ele><time>2026-04-09T14:03:45.883Z</time></trkpt><trkpt lat="44.37335" lon="11.255935"><ele>161.0</ele><time>2026-04-09T14:03:46.883Z</time></trkpt><trkpt lat="44.3732383" lon="11.25608"><ele>161.0</ele><time>2026-04-09T14:03:47.883Z</time></trkpt><trkpt lat="44.37312" lon="11.2562333"><ele>161.0</ele><time>2026-04-09T14:03:48.884Z</time></trkpt><trkpt lat="44.3729967" lon="11.2563883"><ele>159.33333333333331</ele><time>2026-04-09T14:03:49.883Z</time></trkpt><trkpt lat="44.3728733" lon="11.256545"><ele>157.66666666666666</ele><time>2026-04-09T14:03:50.883Z</time></trkpt><trkpt lat="44.3727483" lon="11.2567017"><ele>156.0</ele><time>2026-04-09T14:03:51.883Z</time></trkpt><trkpt lat="44.3726333" lon="11.2568517"><ele>156.0</ele><time>2026-04-09T14:03:52.884Z</time></trkpt><trkpt lat="44.3725183" lon="11.257"><ele>156.0</ele><time>2026-04-09T14:03:53.883Z</time></trkpt><trkpt lat="44.3722917" lon="11.25728"><ele>154.25</ele><time>2026-04-09T14:03:55.883Z</time></trkpt><trkpt lat="44.372185" lon="11.257415"><ele>152.5</ele><time>2026-04-09T14:03:56.883Z</time></trkpt><trkpt lat="44.3720817" lon="11.2575467"><ele>150.75</ele><time>2026-04-09T14:03:57.883Z</time></trkpt><trkpt lat="44.371985" lon="11.257675"><ele>149.0</ele><time>2026-04-09T14:03:58.882Z</time></trkpt><trkpt lat="44.3718883" lon="11.25781"><ele>149.0</ele><time>2026-04-09T14:03:59.882Z</time></trkpt><trkpt lat="44.3718" lon="11.257945"><ele>149.0</ele><time>2026-04-09T14:04:00.882Z</time></trkpt><trkpt lat="44.3717233" lon="11.2580833"><ele>149.0</ele><time>2026-04-09T14:04:01.882Z</time></trkpt><trkpt lat="44.371645" lon="11.258215"><ele>149.0</ele><time>2026-04-09T14:04:02.882Z</time></trkpt><trkpt lat="44.3715733" lon="11.2583333"><ele>148.33333333333331</ele><time>2026-04-09T14:04:03.882Z</time></trkpt><trkpt lat="44.3714983" lon="11.25844"><ele>147.66666666666666</ele><time>2026-04-09T14:04:04.883Z</time></trkpt><trkpt lat="44.371425" lon="11.2585267"><ele>147.0</ele><time>2026-04-09T14:04:05.882Z</time></trkpt><trkpt lat="44.3713567" lon="11.2586"><ele>146.33333333333334</ele><time>2026-04-09T14:04:06.882Z</time></trkpt><trkpt lat="44.3712867" lon="11.2586467"><ele>145.66666666666669</ele><time>2026-04-09T14:04:07.882Z</time></trkpt><trkpt lat="44.3712117" lon="11.2586667"><ele>145.0</ele><time>2026-04-09T14:04:08.882Z</time></trkpt><trkpt lat="44.3711317" lon="11.2586383"><ele>145.0</ele><time>2026-04-09T14:04:09.882Z</time></trkpt><trkpt lat="44.3710617" lon="11.2585683"><ele>145.0</ele><time>2026-04-09T14:04:10.882Z</time></trkpt><trkpt lat="44.371" lon="11.258475"><ele>145.0</ele><time>2026-04-09T14:04:11.882Z</time></trkpt><trkpt lat="44.3709433" lon="11.2583683"><ele>145.0</ele><time>2026-04-09T14:04:12.883Z</time></trkpt><trkpt lat="44.370885" lon="11.25828"><ele>145.0</ele><time>2026-04-09T14:04:13.882Z</time></trkpt><trkpt lat="44.3708167" lon="11.25822"><ele>145.0</ele><time>2026-04-09T14:04:14.882Z</time></trkpt><trkpt lat="44.3706617" lon="11.2581983"><ele>145.0</ele><time>2026-04-09T14:04:16.882Z</time></trkpt><trkpt lat="44.3705717" lon="11.2582583"><ele>145.0</ele><time>2026-04-09T14:04:17.882Z</time></trkpt><trkpt lat="44.3704767" lon="11.2583517"><ele>145.0</ele><time>2026-04-09T14:04:18.882Z</time></trkpt><trkpt lat="44.3703767" lon="11.2584867"><ele>145.0</ele><time>2026-04-09T14:04:19.883Z</time></trkpt><trkpt lat="44.370275" lon="11.2586167"><ele>142.0</ele><time>2026-04-09T14:04:20.882Z</time></trkpt><trkpt lat="44.3701817" lon="11.2587367"><ele>139.0</ele><time>2026-04-09T14:04:21.883Z</time></trkpt><trkpt lat="44.3700867" lon="11.2588533"><ele>136.0</ele><time>2026-04-09T14:04:22.882Z</time></trkpt><trkpt lat="44.3699933" lon="11.2589633"><ele>133.0</ele><time>2026-04-09T14:04:23.882Z</time></trkpt><trkpt lat="44.3699133" lon="11.2590817"><ele>133.0</ele><time>2026-04-09T14:04:24.882Z</time></trkpt><trkpt lat="44.3698367" lon="11.2591967"><ele>133.0</ele><time>2026-04-09T14:04:25.882Z</time></trkpt><trkpt lat="44.36978" lon="11.2593133"><ele>133.0</ele><time>2026-04-09T14:04:26.882Z</time></trkpt><trkpt lat="44.3697483" lon="11.2594533"><ele>133.0</ele><time>2026-04-09T14:04:27.883Z</time></trkpt><trkpt lat="44.3697183" lon="11.2595883"><ele>133.0</ele><time>2026-04-09T14:04:28.882Z</time></trkpt><trkpt lat="44.3697167" lon="11.2597383"><ele>133.0</ele><time>2026-04-09T14:04:29.882Z</time></trkpt><trkpt lat="44.369725" lon="11.2598917"><ele>133.0</ele><time>2026-04-09T14:04:30.882Z</time></trkpt><trkpt lat="44.3697333" lon="11.2600483"><ele>133.0</ele><time>2026-04-09T14:04:31.882Z</time></trkpt><trkpt lat="44.3697433" lon="11.2601917"><ele>133.0</ele><time>2026-04-09T14:04:32.882Z</time></trkpt><trkpt lat="44.369745" lon="11.2603067"><ele>133.0</ele><time>2026-04-09T14:04:33.882Z</time></trkpt><trkpt lat="44.3697383" lon="11.2603983"><ele>130.0</ele><time>2026-04-09T14:04:34.882Z</time></trkpt><trkpt lat="44.3696617" lon="11.26051"><ele>127.0</ele><time>2026-04-09T14:04:36.882Z</time></trkpt><trkpt lat="44.3694933" lon="11.2603833"><ele>124.0</ele><time>2026-04-09T14:04:39.882Z</time></trkpt><trkpt lat="44.36946" lon="11.2602617"><ele>121.0</ele><time>2026-04-09T14:04:40.883Z</time></trkpt><trkpt lat="44.3694217" lon="11.2601333"><ele>121.0</ele><time>2026-04-09T14:04:41.882Z</time></trkpt><trkpt lat="44.3693783" lon="11.2599983"><ele>121.0</ele><time>2026-04-09T14:04:42.882Z</time></trkpt><trkpt lat="44.36933" lon="11.2598567"><ele>121.0</ele><time>2026-04-09T14:04:43.882Z</time></trkpt><trkpt lat="44.3692767" lon="11.2597233"><ele>121.0</ele><time>2026-04-09T14:04:44.883Z</time></trkpt><trkpt lat="44.3692183" lon="11.2596083"><ele>121.0</ele><time>2026-04-09T14:04:45.883Z</time></trkpt><trkpt lat="44.3691783" lon="11.25952"><ele>121.00000000000001</ele><time>2026-04-09T14:04:46.882Z</time></trkpt><trkpt lat="44.3691417" lon="11.2594467"><ele>121.0</ele><time>2026-04-09T14:04:47.882Z</time></trkpt><trkpt lat="44.3691183" lon="11.259305"><ele>121.0</ele><time>2026-04-09T14:04:49.882Z</time></trkpt><trkpt lat="44.3691483" lon="11.2591717"><ele>121.0</ele><time>2026-04-09T14:04:51.882Z</time></trkpt><trkpt lat="44.36918" lon="11.25909"><ele>121.00000000000001</ele><time>2026-04-09T14:04:53.882Z</time></trkpt><trkpt lat="44.3691683" lon="11.2589383"><ele>121.0</ele><time>2026-04-09T14:05:45.883Z</time></trkpt><trkpt lat="44.36925" lon="11.2586733"><ele>120.16666666666667</ele><time>2026-04-09T14:05:48.883Z</time></trkpt><trkpt lat="44.3692883" lon="11.258575"><ele>119.33333333333334</ele><time>2026-04-09T14:05:49.882Z</time></trkpt><trkpt lat="44.369325" lon="11.2584783"><ele>118.5</ele><time>2026-04-09T14:05:50.882Z</time></trkpt><trkpt lat="44.3693633" lon="11.25838"><ele>117.66666666666666</ele><time>2026-04-09T14:05:51.883Z</time></trkpt><trkpt lat="44.3694067" lon="11.2582717"><ele>116.83333333333333</ele><time>2026-04-09T14:05:52.882Z</time></trkpt><trkpt lat="44.369455" lon="11.2581583"><ele>116.0</ele><time>2026-04-09T14:05:53.882Z</time></trkpt><trkpt lat="44.3695033" lon="11.258045"><ele>115.6</ele><time>2026-04-09T14:05:54.882Z</time></trkpt><trkpt lat="44.3695617" lon="11.257935"><ele>115.19999999999999</ele><time>2026-04-09T14:05:55.882Z</time></trkpt><trkpt lat="44.3696267" lon="11.2578133"><ele>114.80000000000001</ele><time>2026-04-09T14:05:56.882Z</time></trkpt><trkpt lat="44.369695" lon="11.2576917"><ele>114.4</ele><time>2026-04-09T14:05:57.882Z</time></trkpt><trkpt lat="44.36976" lon="11.25757"><ele>114.0</ele><time>2026-04-09T14:05:58.882Z</time></trkpt><trkpt lat="44.3698333" lon="11.2574317"><ele>115.33333333333334</ele><time>2026-04-09T14:05:59.882Z</time></trkpt><trkpt lat="44.36991" lon="11.2572767"><ele>116.66666666666667</ele><time>2026-04-09T14:06:00.882Z</time></trkpt><trkpt lat="44.3700583" lon="11.25699"><ele>118.0</ele><time>2026-04-09T14:06:01.882Z</time></trkpt><trkpt lat="44.3701783" lon="11.256765"><ele>118.0</ele><time>2026-04-09T14:06:02.883Z</time></trkpt><trkpt lat="44.3702767" lon="11.2565567"><ele>118.0</ele><time>2026-04-09T14:06:03.882Z</time></trkpt><trkpt lat="44.370375" lon="11.256345"><ele>118.0</ele><time>2026-04-09T14:06:04.882Z</time></trkpt><trkpt lat="44.3704783" lon="11.2561517"><ele>117.5</ele><time>2026-04-09T14:06:05.882Z</time></trkpt><trkpt lat="44.3705733" lon="11.2559583"><ele>117.0</ele><time>2026-04-09T14:06:06.882Z</time></trkpt><trkpt lat="44.3707633" lon="11.25556"><ele>117.0</ele><time>2026-04-09T14:06:08.882Z</time></trkpt><trkpt lat="44.3708467" lon="11.2553583"><ele>117.0</ele><time>2026-04-09T14:06:09.882Z</time></trkpt><trkpt lat="44.3709417" lon="11.2551567"><ele>117.0</ele><time>2026-04-09T14:06:10.883Z</time></trkpt><trkpt lat="44.37102" lon="11.25493"><ele>115.0</ele><time>2026-04-09T14:06:11.883Z</time></trkpt><trkpt lat="44.3711" lon="11.25471"><ele>113.0</ele><time>2026-04-09T14:06:12.882Z</time></trkpt><trkpt lat="44.3711733" lon="11.2544967"><ele>111.0</ele><time>2026-04-09T14:06:13.882Z</time></trkpt><trkpt lat="44.3712417" lon="11.2542917"><ele>111.0</ele><time>2026-04-09T14:06:14.882Z</time></trkpt><trkpt lat="44.3713267" lon="11.254115"><ele>111.0</ele><time>2026-04-09T14:06:15.882Z</time></trkpt><trkpt lat="44.3714133" lon="11.2539417"><ele>111.0</ele><time>2026-04-09T14:06:16.882Z</time></trkpt><trkpt lat="44.3715167" lon="11.2537867"><ele>112.0</ele><time>2026-04-09T14:06:17.882Z</time></trkpt><trkpt lat="44.37163" lon="11.25364"><ele>113.0</ele><time>2026-04-09T14:06:18.882Z</time></trkpt><trkpt lat="44.371755" lon="11.2535083"><ele>114.0</ele><time>2026-04-09T14:06:19.882Z</time></trkpt><trkpt lat="44.3718883" lon="11.2533933"><ele>114.0</ele><time>2026-04-09T14:06:20.882Z</time></trkpt><trkpt lat="44.372035" lon="11.2532933"><ele>114.0</ele><time>2026-04-09T14:06:21.882Z</time></trkpt><trkpt lat="44.3721817" lon="11.2532033"><ele>114.0</ele><time>2026-04-09T14:06:22.882Z</time></trkpt><trkpt lat="44.372335" lon="11.25313"><ele>112.66666666666666</ele><time>2026-04-09T14:06:23.882Z</time></trkpt><trkpt lat="44.3724983" lon="11.2530633"><ele>111.33333333333333</ele><time>2026-04-09T14:06:24.882Z</time></trkpt><trkpt lat="44.372675" lon="11.2530183"><ele>110.0</ele><time>2026-04-09T14:06:25.882Z</time></trkpt><trkpt lat="44.3728433" lon="11.2529583"><ele>110.0</ele><time>2026-04-09T14:06:26.882Z</time></trkpt><trkpt lat="44.3730133" lon="11.2529067"><ele>110.0</ele><time>2026-04-09T14:06:27.882Z</time></trkpt><trkpt lat="44.3733817" lon="11.2527517"><ele>111.0</ele><time>2026-04-09T14:06:29.882Z</time></trkpt><trkpt lat="44.3735617" lon="11.2526517"><ele>112.0</ele><time>2026-04-09T14:06:30.883Z</time></trkpt><trkpt lat="44.37373" lon="11.2525283"><ele>113.0</ele><time>2026-04-09T14:06:31.882Z</time></trkpt><trkpt lat="44.3739" lon="11.25242"><ele>111.66666666666666</ele><time>2026-04-09T14:06:32.882Z</time></trkpt><trkpt lat="44.3740617" lon="11.2523317"><ele>110.33333333333334</ele><time>2026-04-09T14:06:33.882Z</time></trkpt><trkpt lat="44.3742233" lon="11.2522567"><ele>109.0</ele><time>2026-04-09T14:06:34.882Z</time></trkpt><trkpt lat="44.374395" lon="11.2521967"><ele>109.0</ele><time>2026-04-09T14:06:35.882Z</time></trkpt><trkpt lat="44.374575" lon="11.2521483"><ele>109.0</ele><time>2026-04-09T14:06:36.882Z</time></trkpt><trkpt lat="44.3747567" lon="11.2521017"><ele>109.0</ele><time>2026-04-09T14:06:37.882Z</time></trkpt><trkpt lat="44.3749367" lon="11.252065"><ele>110.0</ele><time>2026-04-09T14:06:38.883Z</time></trkpt><trkpt lat="44.3751083" lon="11.25204"><ele>111.0</ele><time>2026-04-09T14:06:39.883Z</time></trkpt><trkpt lat="44.3752617" lon="11.252025"><ele>112.0</ele><time>2026-04-09T14:06:40.883Z</time></trkpt><trkpt lat="44.3754033" lon="11.25203"><ele>112.33333333333334</ele><time>2026-04-09T14:06:41.883Z</time></trkpt><trkpt lat="44.3755417" lon="11.2520633"><ele>112.66666666666666</ele><time>2026-04-09T14:06:42.882Z</time></trkpt><trkpt lat="44.3756833" lon="11.2521367"><ele>113.0</ele><time>2026-04-09T14:06:43.882Z</time></trkpt><trkpt lat="44.3758367" lon="11.2522317"><ele>116.33333333333333</ele><time>2026-04-09T14:06:44.882Z</time></trkpt><trkpt lat="44.3760033" lon="11.2523233"><ele>119.66666666666666</ele><time>2026-04-09T14:06:45.883Z</time></trkpt><trkpt lat="44.3761617" lon="11.2524067"><ele>123.0</ele><time>2026-04-09T14:06:46.882Z</time></trkpt><trkpt lat="44.3763333" lon="11.25246"><ele>121.5</ele><time>2026-04-09T14:06:47.883Z</time></trkpt><trkpt lat="44.3765133" lon="11.2525017"><ele>120.0</ele><time>2026-04-09T14:06:48.882Z</time></trkpt><trkpt lat="44.3768767" lon="11.2525367"><ele>120.0</ele><time>2026-04-09T14:06:50.883Z</time></trkpt><trkpt lat="44.3770683" lon="11.2525233"><ele>120.0</ele><time>2026-04-09T14:06:51.882Z</time></trkpt><trkpt lat="44.377255" lon="11.2524933"><ele>120.0</ele><time>2026-04-09T14:06:52.883Z</time></trkpt><trkpt lat="44.3774383" lon="11.25243"><ele>120.33333333333334</ele><time>2026-04-09T14:06:53.882Z</time></trkpt><trkpt lat="44.3776183" lon="11.252355"><ele>120.66666666666667</ele><time>2026-04-09T14:06:54.882Z</time></trkpt><trkpt lat="44.3778" lon="11.2522783"><ele>121.0</ele><time>2026-04-09T14:06:55.882Z</time></trkpt><trkpt lat="44.377975" lon="11.2521883"><ele>119.33333333333334</ele><time>2026-04-09T14:06:56.882Z</time></trkpt><trkpt lat="44.3781367" lon="11.2520717"><ele>117.66666666666666</ele><time>2026-04-09T14:06:57.883Z</time></trkpt><trkpt lat="44.3782933" lon="11.25193"><ele>116.0</ele><time>2026-04-09T14:06:58.882Z</time></trkpt><trkpt lat="44.3784483" lon="11.2517817"><ele>116.0</ele><time>2026-04-09T14:06:59.882Z</time></trkpt><trkpt lat="44.3785967" lon="11.2516283"><ele>116.0</ele><time>2026-04-09T14:07:00.882Z</time></trkpt><trkpt lat="44.3787367" lon="11.2514667"><ele>116.0</ele><time>2026-04-09T14:07:01.882Z</time></trkpt><trkpt lat="44.37887" lon="11.251325"><ele>114.75</ele><time>2026-04-09T14:07:02.882Z</time></trkpt><trkpt lat="44.3789983" lon="11.251195"><ele>113.5</ele><time>2026-04-09T14:07:03.882Z</time></trkpt><trkpt lat="44.3791217" lon="11.2510733"><ele>112.25</ele><time>2026-04-09T14:07:04.882Z</time></trkpt><trkpt lat="44.3792367" lon="11.2509767"><ele>111.0</ele><time>2026-04-09T14:07:05.882Z</time></trkpt><trkpt lat="44.3793483" lon="11.250875"><ele>111.0</ele><time>2026-04-09T14:07:06.882Z</time></trkpt><trkpt lat="44.3794533" lon="11.25079"><ele>111.0</ele><time>2026-04-09T14:07:07.882Z</time></trkpt><trkpt lat="44.3795667" lon="11.2507383"><ele>111.0</ele><time>2026-04-09T14:07:08.882Z</time></trkpt><trkpt lat="44.37969" lon="11.25072"><ele>111.0</ele><time>2026-04-09T14:07:09.882Z</time></trkpt><trkpt lat="44.3799333" lon="11.25082"><ele>113.0</ele><time>2026-04-09T14:07:11.882Z</time></trkpt><trkpt lat="44.3800733" lon="11.250915"><ele>115.0</ele><time>2026-04-09T14:07:12.882Z</time></trkpt><trkpt lat="44.3802317" lon="11.2510117"><ele>117.0</ele><time>2026-04-09T14:07:13.882Z</time></trkpt><trkpt lat="44.3803967" lon="11.25111"><ele>115.0</ele><time>2026-04-09T14:07:14.882Z</time></trkpt><trkpt lat="44.3805683" lon="11.2511783"><ele>113.0</ele><time>2026-04-09T14:07:15.883Z</time></trkpt><trkpt lat="44.3807433" lon="11.251215"><ele>111.0</ele><time>2026-04-09T14:07:16.882Z</time></trkpt><trkpt lat="44.3809333" lon="11.251215"><ele>111.0</ele><time>2026-04-09T14:07:17.882Z</time></trkpt><trkpt lat="44.38111" lon="11.2511867"><ele>111.0</ele><time>2026-04-09T14:07:18.882Z</time></trkpt><trkpt lat="44.3812933" lon="11.251135"><ele>111.0</ele><time>2026-04-09T14:07:19.882Z</time></trkpt><trkpt lat="44.3814733" lon="11.2510767"><ele>111.66666666666666</ele><time>2026-04-09T14:07:20.882Z</time></trkpt><trkpt lat="44.3816617" lon="11.2509917"><ele>112.33333333333333</ele><time>2026-04-09T14:07:21.882Z</time></trkpt><trkpt lat="44.3818483" lon="11.2508883"><ele>113.0</ele><time>2026-04-09T14:07:22.882Z</time></trkpt><trkpt lat="44.3820167" lon="11.2507567"><ele>112.66666666666666</ele><time>2026-04-09T14:07:23.882Z</time></trkpt><trkpt lat="44.3821917" lon="11.250635"><ele>112.33333333333334</ele><time>2026-04-09T14:07:24.882Z</time></trkpt><trkpt lat="44.3823667" lon="11.250495"><ele>112.0</ele><time>2026-04-09T14:07:25.882Z</time></trkpt><trkpt lat="44.38253" lon="11.2503367"><ele>112.0</ele><time>2026-04-09T14:07:26.882Z</time></trkpt><trkpt lat="44.3826867" lon="11.250175"><ele>112.0</ele><time>2026-04-09T14:07:27.882Z</time></trkpt><trkpt lat="44.382835" lon="11.250015"><ele>112.0</ele><time>2026-04-09T14:07:28.883Z</time></trkpt><trkpt lat="44.3829867" lon="11.2498783"><ele>113.5</ele><time>2026-04-09T14:07:29.882Z</time></trkpt><trkpt lat="44.3831517" lon="11.2497483"><ele>115.0</ele><time>2026-04-09T14:07:30.882Z</time></trkpt><trkpt lat="44.3834933" lon="11.2495283"><ele>115.0</ele><time>2026-04-09T14:07:32.882Z</time></trkpt><trkpt lat="44.3836717" lon="11.2494333"><ele>115.0</ele><time>2026-04-09T14:07:33.883Z</time></trkpt><trkpt lat="44.38385" lon="11.2493467"><ele>115.0</ele><time>2026-04-09T14:07:34.882Z</time></trkpt><trkpt lat="44.384025" lon="11.2492517"><ele>116.66666666666667</ele><time>2026-04-09T14:07:35.882Z</time></trkpt><trkpt lat="44.3842017" lon="11.2491383"><ele>118.33333333333334</ele><time>2026-04-09T14:07:36.883Z</time></trkpt><trkpt lat="44.38437" lon="11.2490083"><ele>120.0</ele><time>2026-04-09T14:07:37.882Z</time></trkpt><trkpt lat="44.3845383" lon="11.24888"><ele>117.33333333333334</ele><time>2026-04-09T14:07:38.882Z</time></trkpt><trkpt lat="44.3847" lon="11.2487483"><ele>114.66666666666667</ele><time>2026-04-09T14:07:39.882Z</time></trkpt><trkpt lat="44.3848633" lon="11.2486317"><ele>112.0</ele><time>2026-04-09T14:07:40.882Z</time></trkpt><trkpt lat="44.3850317" lon="11.2485267"><ele>112.0</ele><time>2026-04-09T14:07:41.882Z</time></trkpt><trkpt lat="44.3852" lon="11.2484433"><ele>112.0</ele><time>2026-04-09T14:07:42.883Z</time></trkpt><trkpt lat="44.38538" lon="11.2483817"><ele>112.0</ele><time>2026-04-09T14:07:43.882Z</time></trkpt><trkpt lat="44.38556" lon="11.248315"><ele>115.33333333333334</ele><time>2026-04-09T14:07:44.882Z</time></trkpt><trkpt lat="44.385745" lon="11.2482767"><ele>118.66666666666666</ele><time>2026-04-09T14:07:45.883Z</time></trkpt><trkpt lat="44.3859133" lon="11.24825"><ele>122.0</ele><time>2026-04-09T14:07:46.882Z</time></trkpt><trkpt lat="44.386075" lon="11.2482267"><ele>122.0</ele><time>2026-04-09T14:07:47.882Z</time></trkpt><trkpt lat="44.386235" lon="11.2481917"><ele>122.0</ele><time>2026-04-09T14:07:48.882Z</time></trkpt><trkpt lat="44.3863933" lon="11.24813"><ele>122.0</ele><time>2026-04-09T14:07:49.883Z</time></trkpt><trkpt lat="44.38654" lon="11.24807"><ele>122.5</ele><time>2026-04-09T14:07:50.882Z</time></trkpt><trkpt lat="44.386695" lon="11.2480017"><ele>123.0</ele><time>2026-04-09T14:07:51.882Z</time></trkpt><trkpt lat="44.3869767" lon="11.2478567"><ele>123.0</ele><time>2026-04-09T14:07:53.882Z</time></trkpt><trkpt lat="44.3871083" lon="11.2477933"><ele>123.0</ele><time>2026-04-09T14:07:54.882Z</time></trkpt><trkpt lat="44.387235" lon="11.2477333"><ele>123.0</ele><time>2026-04-09T14:07:55.882Z</time></trkpt><trkpt lat="44.3873517" lon="11.2476783"><ele>123.0</ele><time>2026-04-09T14:07:56.882Z</time></trkpt><trkpt lat="44.38747" lon="11.2476217"><ele>123.0</ele><time>2026-04-09T14:07:57.882Z</time></trkpt><trkpt lat="44.38758" lon="11.2475767"><ele>123.00000000000001</ele><time>2026-04-09T14:07:58.882Z</time></trkpt><trkpt lat="44.387685" lon="11.247535"><ele>123.00000000000001</ele><time>2026-04-09T14:07:59.882Z</time></trkpt><trkpt lat="44.3877733" lon="11.2474967"><ele>123.0</ele><time>2026-04-09T14:08:00.882Z</time></trkpt><trkpt lat="44.38785" lon="11.2474683"><ele>123.0</ele><time>2026-04-09T14:08:01.882Z</time></trkpt><trkpt lat="44.3879433" lon="11.24745"><ele>122.60000000000001</ele><time>2026-04-09T14:08:03.882Z</time></trkpt><trkpt lat="44.388015" lon="11.2474783"><ele>122.20000000000002</ele><time>2026-04-09T14:08:06.882Z</time></trkpt><trkpt lat="44.3880933" lon="11.24754"><ele>121.8</ele><time>2026-04-09T14:08:17.883Z</time></trkpt><trkpt lat="44.3882833" lon="11.2476133"><ele>121.4</ele><time>2026-04-09T14:08:20.881Z</time></trkpt><trkpt lat="44.38836" lon="11.2475967"><ele>121.0</ele><time>2026-04-09T14:08:21.881Z</time></trkpt><trkpt lat="44.3884217" lon="11.247535"><ele>121.00000000000001</ele><time>2026-04-09T14:08:22.881Z</time></trkpt><trkpt lat="44.3884633" lon="11.2474367"><ele>121.0</ele><time>2026-04-09T14:08:23.881Z</time></trkpt><trkpt lat="44.3884867" lon="11.2473117"><ele>121.0</ele><time>2026-04-09T14:08:24.881Z</time></trkpt><trkpt lat="44.3885183" lon="11.24721"><ele>121.0</ele><time>2026-04-09T14:08:25.881Z</time></trkpt><trkpt lat="44.3885617" lon="11.247135"><ele>121.00000000000001</ele><time>2026-04-09T14:08:26.882Z</time></trkpt><trkpt lat="44.38863" lon="11.2470833"><ele>121.0</ele><time>2026-04-09T14:08:27.881Z</time></trkpt><trkpt lat="44.3887317" lon="11.2470383"><ele>116.0</ele><time>2026-04-09T14:08:28.881Z</time></trkpt><trkpt lat="44.3888467" lon="11.24699"><ele>111.0</ele><time>2026-04-09T14:08:29.881Z</time></trkpt><trkpt lat="44.38898" lon="11.2469283"><ele>106.0</ele><time>2026-04-09T14:08:30.881Z</time></trkpt><trkpt lat="44.3891183" lon="11.2468683"><ele>101.0</ele><time>2026-04-09T14:08:31.881Z</time></trkpt><trkpt lat="44.3892583" lon="11.2468033"><ele>101.0</ele><time>2026-04-09T14:08:32.882Z</time></trkpt><trkpt lat="44.3893983" lon="11.246735"><ele>101.0</ele><time>2026-04-09T14:08:33.881Z</time></trkpt><trkpt lat="44.38955" lon="11.2466633"><ele>101.0</ele><time>2026-04-09T14:08:34.881Z</time></trkpt><trkpt lat="44.3897033" lon="11.2465933"><ele>100.0</ele><time>2026-04-09T14:08:35.881Z</time></trkpt><trkpt lat="44.3898467" lon="11.2465217"><ele>99.0</ele><time>2026-04-09T14:08:36.881Z</time></trkpt><trkpt lat="44.38998" lon="11.2464617"><ele>98.0</ele><time>2026-04-09T14:08:37.881Z</time></trkpt><trkpt lat="44.3901017" lon="11.2464033"><ele>97.0</ele><time>2026-04-09T14:08:38.881Z</time></trkpt><trkpt lat="44.3903183" lon="11.2463"><ele>99.33333333333334</ele><time>2026-04-09T14:08:40.881Z</time></trkpt><trkpt lat="44.39041" lon="11.24626"><ele>101.66666666666667</ele><time>2026-04-09T14:08:41.882Z</time></trkpt><trkpt lat="44.3904867" lon="11.2462417"><ele>104.0</ele><time>2026-04-09T14:08:42.881Z</time></trkpt><trkpt lat="44.39059" lon="11.2462333"><ele>106.33333333333334</ele><time>2026-04-09T14:08:44.881Z</time></trkpt><trkpt lat="44.39067" lon="11.2462417"><ele>108.66666666666667</ele><time>2026-04-09T14:08:46.881Z</time></trkpt><trkpt lat="44.3907333" lon="11.2462533"><ele>111.0</ele><time>2026-04-09T14:08:47.882Z</time></trkpt><trkpt lat="44.390805" lon="11.2462683"><ele>113.83333333333333</ele><time>2026-04-09T14:08:48.881Z</time></trkpt><trkpt lat="44.3908883" lon="11.24626"><ele>116.66666666666666</ele><time>2026-04-09T14:08:49.881Z</time></trkpt><trkpt lat="44.39097" lon="11.2462217"><ele>119.5</ele><time>2026-04-09T14:08:50.881Z</time></trkpt><trkpt lat="44.391035" lon="11.2461317"><ele>122.33333333333333</ele><time>2026-04-09T14:08:51.881Z</time></trkpt><trkpt lat="44.3910717" lon="11.2460183"><ele>125.16666666666666</ele><time>2026-04-09T14:08:52.881Z</time></trkpt><trkpt lat="44.3910833" lon="11.2459"><ele>128.0</ele><time>2026-04-09T14:08:53.882Z</time></trkpt><trkpt lat="44.3910383" lon="11.245785"><ele>128.0</ele><time>2026-04-09T14:08:54.881Z</time></trkpt><trkpt lat="44.3909717" lon="11.2457033"><ele>128.0</ele><time>2026-04-09T14:08:55.881Z</time></trkpt><trkpt lat="44.3908767" lon="11.24564"><ele>128.0</ele><time>2026-04-09T14:08:56.881Z</time></trkpt><trkpt lat="44.3907617" lon="11.2455933"><ele>128.0</ele><time>2026-04-09T14:08:57.882Z</time></trkpt><trkpt lat="44.3906367" lon="11.2455517"><ele>128.0</ele><time>2026-04-09T14:08:58.882Z</time></trkpt><trkpt lat="44.390505" lon="11.2454983"><ele>126.0</ele><time>2026-04-09T14:08:59.881Z</time></trkpt><trkpt lat="44.3902617" lon="11.245395"><ele>124.0</ele><time>2026-04-09T14:09:01.881Z</time></trkpt><trkpt lat="44.39015" lon="11.2453483"><ele>122.0</ele><time>2026-04-09T14:09:02.882Z</time></trkpt><trkpt lat="44.390055" lon="11.2453117"><ele>121.99999999999999</ele><time>2026-04-09T14:09:03.882Z</time></trkpt><trkpt lat="44.3899767" lon="11.2452783"><ele>122.0</ele><time>2026-04-09T14:09:04.881Z</time></trkpt><trkpt lat="44.3899183" lon="11.2452433"><ele>122.0</ele><time>2026-04-09T14:09:05.881Z</time></trkpt><trkpt lat="44.38987" lon="11.2451383"><ele>122.0</ele><time>2026-04-09T14:09:07.882Z</time></trkpt><trkpt lat="44.3899267" lon="11.2450283"><ele>121.99999999999999</ele><time>2026-04-09T14:09:09.881Z</time></trkpt><trkpt lat="44.3899833" lon="11.2449633"><ele>122.0</ele><time>2026-04-09T14:09:10.881Z</time></trkpt><trkpt lat="44.3900433" lon="11.244895"><ele>122.0</ele><time>2026-04-09T14:09:11.881Z</time></trkpt><trkpt lat="44.3901067" lon="11.2448033"><ele>121.99999999999999</ele><time>2026-04-09T14:09:12.881Z</time></trkpt><trkpt lat="44.39016" lon="11.2447033"><ele>121.99999999999999</ele><time>2026-04-09T14:09:13.881Z</time></trkpt><trkpt lat="44.390215" lon="11.2446"><ele>122.0</ele><time>2026-04-09T14:09:14.881Z</time></trkpt><trkpt lat="44.3902717" lon="11.244495"><ele>122.0</ele><time>2026-04-09T14:09:15.881Z</time></trkpt><trkpt lat="44.390335" lon="11.24441"><ele>122.39999999999999</ele><time>2026-04-09T14:09:16.881Z</time></trkpt><trkpt lat="44.3903983" lon="11.2443317"><ele>122.79999999999998</ele><time>2026-04-09T14:09:17.881Z</time></trkpt><trkpt lat="44.39047" lon="11.244255"><ele>123.2</ele><time>2026-04-09T14:09:18.882Z</time></trkpt><trkpt lat="44.3905433" lon="11.2441883"><ele>123.6</ele><time>2026-04-09T14:09:19.881Z</time></trkpt><trkpt lat="44.3906217" lon="11.2441233"><ele>124.0</ele><time>2026-04-09T14:09:20.881Z</time></trkpt><trkpt lat="44.39076" lon="11.2439767"><ele>128.33333333333334</ele><time>2026-04-09T14:09:22.881Z</time></trkpt><trkpt lat="44.3908183" lon="11.243905"><ele>132.66666666666669</ele><time>2026-04-09T14:09:23.881Z</time></trkpt><trkpt lat="44.39088" lon="11.2438333"><ele>137.0</ele><time>2026-04-09T14:09:24.881Z</time></trkpt><trkpt lat="44.3909433" lon="11.243765"><ele>141.33333333333334</ele><time>2026-04-09T14:09:25.881Z</time></trkpt><trkpt lat="44.3910267" lon="11.2436833"><ele>145.66666666666666</ele><time>2026-04-09T14:09:26.881Z</time></trkpt><trkpt lat="44.3911067" lon="11.2435983"><ele>150.0</ele><time>2026-04-09T14:09:27.881Z</time></trkpt><trkpt lat="44.3911883" lon="11.2435217"><ele>150.0</ele><time>2026-04-09T14:09:28.881Z</time></trkpt><trkpt lat="44.39127" lon="11.2434433"><ele>150.0</ele><time>2026-04-09T14:09:29.881Z</time></trkpt><trkpt lat="44.39135" lon="11.2433633"><ele>150.0</ele><time>2026-04-09T14:09:30.881Z</time></trkpt><trkpt lat="44.3914383" lon="11.2432983"><ele>150.0</ele><time>2026-04-09T14:09:31.881Z</time></trkpt><trkpt lat="44.39153" lon="11.2432583"><ele>150.0</ele><time>2026-04-09T14:09:32.881Z</time></trkpt><trkpt lat="44.3916233" lon="11.2432333"><ele>146.2</ele><time>2026-04-09T14:09:33.881Z</time></trkpt><trkpt lat="44.391725" lon="11.2432267"><ele>142.4</ele><time>2026-04-09T14:09:34.882Z</time></trkpt><trkpt lat="44.39183" lon="11.24324"><ele>138.6</ele><time>2026-04-09T14:09:35.881Z</time></trkpt><trkpt lat="44.3919367" lon="11.2432667"><ele>134.8</ele><time>2026-04-09T14:09:36.881Z</time></trkpt><trkpt lat="44.392035" lon="11.2433017"><ele>131.0</ele><time>2026-04-09T14:09:37.881Z</time></trkpt><trkpt lat="44.392135" lon="11.2433467"><ele>131.5</ele><time>2026-04-09T14:09:38.881Z</time></trkpt><trkpt lat="44.3922367" lon="11.2434083"><ele>132.0</ele><time>2026-04-09T14:09:39.882Z</time></trkpt><trkpt lat="44.39233" lon="11.2434717"><ele>132.5</ele><time>2026-04-09T14:09:40.881Z</time></trkpt><trkpt lat="44.392425" lon="11.2435417"><ele>133.0</ele><time>2026-04-09T14:09:41.881Z</time></trkpt><trkpt lat="44.3926083" lon="11.243665"><ele>133.0</ele><time>2026-04-09T14:09:43.881Z</time></trkpt><trkpt lat="44.3927033" lon="11.243725"><ele>133.0</ele><time>2026-04-09T14:09:44.881Z</time></trkpt><trkpt lat="44.3927983" lon="11.24379"><ele>133.0</ele><time>2026-04-09T14:09:45.882Z</time></trkpt><trkpt lat="44.3928883" lon="11.24386"><ele>133.0</ele><time>2026-04-09T14:09:46.881Z</time></trkpt><trkpt lat="44.3929833" lon="11.2439283"><ele>133.0</ele><time>2026-04-09T14:09:47.881Z</time></trkpt><trkpt lat="44.3930767" lon="11.2439967"><ele>133.5</ele><time>2026-04-09T14:09:48.881Z</time></trkpt><trkpt lat="44.393155" lon="11.244055"><ele>134.0</ele><time>2026-04-09T14:09:49.881Z</time></trkpt><trkpt lat="44.3932267" lon="11.2441067"><ele>134.5</ele><time>2026-04-09T14:09:50.882Z</time></trkpt><trkpt lat="44.3932967" lon="11.244155"><ele>135.0</ele><time>2026-04-09T14:09:51.881Z</time></trkpt><trkpt lat="44.3933567" lon="11.2442"><ele>135.5</ele><time>2026-04-09T14:09:52.881Z</time></trkpt><trkpt lat="44.39346" lon="11.2442867"><ele>136.0</ele><time>2026-04-09T14:09:54.881Z</time></trkpt><trkpt lat="44.3935767" lon="11.244385"><ele>136.0</ele><time>2026-04-09T14:09:56.881Z</time></trkpt><trkpt lat="44.3936467" lon="11.24444"><ele>136.0</ele><time>2026-04-09T14:09:57.881Z</time></trkpt><trkpt lat="44.3937067" lon="11.2444833"><ele>136.0</ele><time>2026-04-09T14:09:58.882Z</time></trkpt><trkpt lat="44.3937783" lon="11.2445183"><ele>136.0</ele><time>2026-04-09T14:09:59.881Z</time></trkpt><trkpt lat="44.39385" lon="11.2445467"><ele>136.0</ele><time>2026-04-09T14:10:00.881Z</time></trkpt><trkpt lat="44.3939567" lon="11.2445967"><ele>136.0</ele><time>2026-04-09T14:10:02.881Z</time></trkpt><trkpt lat="44.39412" lon="11.2446717"><ele>135.8</ele><time>2026-04-09T14:10:06.881Z</time></trkpt><trkpt lat="44.39419" lon="11.2446917"><ele>135.6</ele><time>2026-04-09T14:10:08.881Z</time></trkpt><trkpt lat="44.3942733" lon="11.2447233"><ele>135.4</ele><time>2026-04-09T14:10:12.881Z</time></trkpt><trkpt lat="44.3943633" lon="11.2447533"><ele>135.2</ele><time>2026-04-09T14:10:14.881Z</time></trkpt><trkpt lat="44.39447" lon="11.2447917"><ele>135.0</ele><time>2026-04-09T14:10:16.881Z</time></trkpt><trkpt lat="44.3945667" lon="11.2448367"><ele>135.2</ele><time>2026-04-09T14:10:18.881Z</time></trkpt><trkpt lat="44.3946267" lon="11.244865"><ele>135.4</ele><time>2026-04-09T14:10:19.881Z</time></trkpt><trkpt lat="44.3946867" lon="11.2448967"><ele>135.6</ele><time>2026-04-09T14:10:20.881Z</time></trkpt><trkpt lat="44.39475" lon="11.2449233"><ele>135.8</ele><time>2026-04-09T14:10:21.881Z</time></trkpt><trkpt lat="44.3948583" lon="11.244975"><ele>136.0</ele><time>2026-04-09T14:10:23.882Z</time></trkpt><trkpt lat="44.395015" lon="11.2450433"><ele>136.0</ele><time>2026-04-09T14:10:27.881Z</time></trkpt><trkpt lat="44.395085" lon="11.245055"><ele>136.0</ele><time>2026-04-09T14:10:29.881Z</time></trkpt><trkpt lat="44.3951483" lon="11.245075"><ele>136.0</ele><time>2026-04-09T14:10:31.882Z</time></trkpt><trkpt lat="44.39522" lon="11.2450867"><ele>136.0</ele><time>2026-04-09T14:10:33.881Z</time></trkpt><trkpt lat="44.395305" lon="11.2451"><ele>136.0</ele><time>2026-04-09T14:10:35.882Z</time></trkpt><trkpt lat="44.3953917" lon="11.2451283"><ele>136.0</ele><time>2026-04-09T14:10:37.882Z</time></trkpt><trkpt lat="44.3954967" lon="11.24516"><ele>136.0</ele><time>2026-04-09T14:10:39.881Z</time></trkpt><trkpt lat="44.3956033" lon="11.2452067"><ele>136.0</ele><time>2026-04-09T14:10:41.882Z</time></trkpt><trkpt lat="44.3957183" lon="11.2452517"><ele>136.0</ele><time>2026-04-09T14:10:43.881Z</time></trkpt><trkpt lat="44.3957833" lon="11.2452717"><ele>136.0</ele><time>2026-04-09T14:10:44.881Z</time></trkpt><trkpt lat="44.3959633" lon="11.245365"><ele>136.0</ele><time>2026-04-09T14:10:48.881Z</time></trkpt><trkpt lat="44.3960633" lon="11.245255"><ele>136.0</ele><time>2026-04-09T14:11:12.881Z</time></trkpt></trkseg></trk></gpx>